﻿<?xml version="1.0" encoding="UTF-8"?>
<gpx xmlns="http://www.topografix.com/GPX/1/1" creator="HOLUX ezTour Plus" version="1.1">
<metadata>
<link href="http://www.holux.com"><text>HOLUX Technology, Inc.</text></link>
<time>2013-11-27T20:33:11Z</time></metadata>
<trk>
<name><![CDATA[Holux2013/11/20_08:16]]></name>
<trkseg>
<trkpt lat="31.041328430" lon="34.720272064">
<ele>273.468750</ele>
<time>2013-11-20T06:16:04Z</time>
<speed>0.350000</speed>
<extensions>
<speed>0.3</speed>
<temp>0.00</temp>
<bpm>0</bpm>
<rpm>0.00</rpm>
</extensions>
</trkpt>
<trkpt lat="31.041357040" lon="34.720283508">
<ele>268.476563</ele>
<time>2013-11-20T06:16:09Z</time>
<speed>0.010000</speed>
<extensions>
<speed>0.0</speed>
<temp>0.00</temp>
<bpm>0</bpm>
<rpm>0.00</rpm>
</extensions>
</trkpt>
<trkpt lat="31.041357040" lon="34.720302582">
<ele>267.468750</ele>
<time>2013-11-20T06:16:14Z</time>
<speed>0.010000</speed>
<extensions>
<speed>0.0</speed>
<temp>0.00</temp>
<bpm>0</bpm>
<rpm>0.00</rpm>
</extensions>
</trkpt>
<trkpt lat="31.041358948" lon="34.720306396">
<ele>268.000000</ele>
<time>2013-11-20T06:16:19Z</time>
<extensions>
<speed>0.0</speed>
<temp>0.00</temp>
<bpm>0</bpm>
<rpm>0.00</rpm>
</extensions>
</trkpt>
<trkpt lat="31.041357040" lon="34.720306396">
<ele>268.710938</ele>
<time>2013-11-20T06:16:24Z</time>
<speed>0.020000</speed>
<extensions>
<speed>0.0</speed>
<temp>0.00</temp>
<bpm>0</bpm>
<rpm>0.00</rpm>
</extensions>
</trkpt>
<trkpt lat="31.041360855" lon="34.720306396">
<ele>268.992188</ele>
<time>2013-11-20T06:16:29Z</time>
<extensions>
<speed>0.0</speed>
<temp>0.00</temp>
<bpm>0</bpm>
<rpm>0.00</rpm>
</extensions>
</trkpt>
<trkpt lat="31.041364670" lon="34.720302582">
<ele>268.070313</ele>
<time>2013-11-20T06:16:34Z</time>
<speed>0.010000</speed>
<extensions>
<speed>0.0</speed>
<temp>0.00</temp>
<bpm>0</bpm>
<rpm>0.00</rpm>
</extensions>
</trkpt>
<trkpt lat="31.041360855" lon="34.720298767">
<ele>269.468750</ele>
<time>2013-11-20T06:16:39Z</time>
<extensions>
<speed>0.0</speed>
<temp>0.00</temp>
<bpm>0</bpm>
<rpm>0.00</rpm>
</extensions>
</trkpt>
<trkpt lat="31.041360855" lon="34.720298767">
<ele>269.539063</ele>
<time>2013-11-20T06:16:44Z</time>
<speed>0.010000</speed>
<extensions>
<speed>0.0</speed>
<temp>0.00</temp>
<bpm>0</bpm>
<rpm>0.00</rpm>
</extensions>
</trkpt>
<trkpt lat="31.041360855" lon="34.720298767">
<ele>269.562500</ele>
<time>2013-11-20T06:16:49Z</time>
<extensions>
<speed>0.0</speed>
<temp>0.00</temp>
<bpm>0</bpm>
<rpm>0.00</rpm>
</extensions>
</trkpt>
<trkpt lat="31.041360855" lon="34.720298767">
<ele>269.578125</ele>
<time>2013-11-20T06:16:54Z</time>
<extensions>
<speed>0.0</speed>
<temp>0.00</temp>
<bpm>0</bpm>
<rpm>0.00</rpm>
</extensions>
</trkpt>
<trkpt lat="31.041360855" lon="34.720298767">
<ele>269.585938</ele>
<time>2013-11-20T06:16:59Z</time>
<extensions>
<speed>0.0</speed>
<temp>0.00</temp>
<bpm>0</bpm>
<rpm>0.00</rpm>
</extensions>
</trkpt>
<trkpt lat="31.041358948" lon="34.720298767">
<ele>269.609375</ele>
<time>2013-11-20T06:17:04Z</time>
<extensions>
<speed>0.0</speed>
<temp>0.00</temp>
<bpm>0</bpm>
<rpm>0.00</rpm>
</extensions>
</trkpt>
<trkpt lat="31.041358948" lon="34.720298767">
<ele>269.656250</ele>
<time>2013-11-20T06:17:09Z</time>
<speed>0.010000</speed>
<extensions>
<speed>0.0</speed>
<temp>0.00</temp>
<bpm>0</bpm>
<rpm>0.00</rpm>
</extensions>
</trkpt>
<trkpt lat="31.041358948" lon="34.720298767">
<ele>269.718750</ele>
<time>2013-11-20T06:17:14Z</time>
<extensions>
<speed>0.0</speed>
<temp>0.00</temp>
<bpm>0</bpm>
<rpm>0.00</rpm>
</extensions>
</trkpt>
<trkpt lat="31.041358948" lon="34.720298767">
<ele>269.742188</ele>
<time>2013-11-20T06:17:19Z</time>
<extensions>
<speed>0.0</speed>
<temp>0.00</temp>
<bpm>0</bpm>
<rpm>0.00</rpm>
</extensions>
</trkpt>
<trkpt lat="31.041358948" lon="34.720298767">
<ele>269.742188</ele>
<time>2013-11-20T06:17:24Z</time>
<extensions>
<speed>0.0</speed>
<temp>0.00</temp>
<bpm>0</bpm>
<rpm>0.00</rpm>
</extensions>
</trkpt>
<trkpt lat="31.041358948" lon="34.720298767">
<ele>269.765625</ele>
<time>2013-11-20T06:17:29Z</time>
<extensions>
<speed>0.0</speed>
<temp>0.00</temp>
<bpm>0</bpm>
<rpm>0.00</rpm>
</extensions>
</trkpt>
<trkpt lat="31.041358948" lon="34.720298767">
<ele>269.781250</ele>
<time>2013-11-20T06:17:34Z</time>
<extensions>
<speed>0.0</speed>
<temp>0.00</temp>
<bpm>0</bpm>
<rpm>0.00</rpm>
</extensions>
</trkpt>
<trkpt lat="31.041358948" lon="34.720298767">
<ele>269.812500</ele>
<time>2013-11-20T06:17:39Z</time>
<extensions>
<speed>0.0</speed>
<temp>0.00</temp>
<bpm>0</bpm>
<rpm>0.00</rpm>
</extensions>
</trkpt>
<trkpt lat="31.041358948" lon="34.720298767">
<ele>269.820313</ele>
<time>2013-11-20T06:17:44Z</time>
<extensions>
<speed>0.0</speed>
<temp>0.00</temp>
<bpm>0</bpm>
<rpm>0.00</rpm>
</extensions>
</trkpt>
<trkpt lat="31.041358948" lon="34.720298767">
<ele>269.820313</ele>
<time>2013-11-20T06:17:49Z</time>
<extensions>
<speed>0.0</speed>
<temp>0.00</temp>
<bpm>0</bpm>
<rpm>0.00</rpm>
</extensions>
</trkpt>
<trkpt lat="31.041357040" lon="34.720298767">
<ele>269.828125</ele>
<time>2013-11-20T06:17:54Z</time>
<extensions>
<speed>0.0</speed>
<temp>0.00</temp>
<bpm>0</bpm>
<rpm>0.00</rpm>
</extensions>
</trkpt>
<trkpt lat="31.041357040" lon="34.720298767">
<ele>269.843750</ele>
<time>2013-11-20T06:17:59Z</time>
<extensions>
<speed>0.0</speed>
<temp>0.00</temp>
<bpm>0</bpm>
<rpm>0.00</rpm>
</extensions>
</trkpt>
<trkpt lat="31.041357040" lon="34.720298767">
<ele>269.843750</ele>
<time>2013-11-20T06:18:04Z</time>
<extensions>
<speed>0.0</speed>
<temp>0.00</temp>
<bpm>0</bpm>
<rpm>0.00</rpm>
</extensions>
</trkpt>
<trkpt lat="31.041357040" lon="34.720298767">
<ele>269.835938</ele>
<time>2013-11-20T06:18:09Z</time>
<extensions>
<speed>0.0</speed>
<temp>0.00</temp>
<bpm>0</bpm>
<rpm>0.00</rpm>
</extensions>
</trkpt>
<trkpt lat="31.041357040" lon="34.720298767">
<ele>269.851563</ele>
<time>2013-11-20T06:18:14Z</time>
<speed>0.030000</speed>
<extensions>
<speed>0.0</speed>
<temp>0.00</temp>
<bpm>0</bpm>
<rpm>0.00</rpm>
</extensions>
</trkpt>
<trkpt lat="31.041357040" lon="34.720298767">
<ele>269.859375</ele>
<time>2013-11-20T06:18:19Z</time>
<speed>0.010000</speed>
<extensions>
<speed>0.0</speed>
<temp>0.00</temp>
<bpm>0</bpm>
<rpm>0.00</rpm>
</extensions>
</trkpt>
<trkpt lat="31.041357040" lon="34.720298767">
<ele>269.867188</ele>
<time>2013-11-20T06:18:24Z</time>
<speed>0.020000</speed>
<extensions>
<speed>0.0</speed>
<temp>0.00</temp>
<bpm>0</bpm>
<rpm>0.00</rpm>
</extensions>
</trkpt>
<trkpt lat="31.041357040" lon="34.720298767">
<ele>269.867188</ele>
<time>2013-11-20T06:18:29Z</time>
<speed>0.010000</speed>
<extensions>
<speed>0.0</speed>
<temp>0.00</temp>
<bpm>0</bpm>
<rpm>0.00</rpm>
</extensions>
</trkpt>
<trkpt lat="31.041357040" lon="34.720298767">
<ele>269.843750</ele>
<time>2013-11-20T06:18:34Z</time>
<extensions>
<speed>0.0</speed>
<temp>0.00</temp>
<bpm>0</bpm>
<rpm>0.00</rpm>
</extensions>
</trkpt>
<trkpt lat="31.041357040" lon="34.720298767">
<ele>269.835938</ele>
<time>2013-11-20T06:18:39Z</time>
<speed>0.020000</speed>
<extensions>
<speed>0.0</speed>
<temp>0.00</temp>
<bpm>0</bpm>
<rpm>0.00</rpm>
</extensions>
</trkpt>
<trkpt lat="31.041357040" lon="34.720298767">
<ele>269.835938</ele>
<time>2013-11-20T06:18:44Z</time>
<speed>0.020000</speed>
<extensions>
<speed>0.0</speed>
<temp>0.00</temp>
<bpm>0</bpm>
<rpm>0.00</rpm>
</extensions>
</trkpt>
<trkpt lat="31.041355133" lon="34.720298767">
<ele>269.843750</ele>
<time>2013-11-20T06:18:49Z</time>
<speed>0.020000</speed>
<extensions>
<speed>0.0</speed>
<temp>0.00</temp>
<bpm>0</bpm>
<rpm>0.00</rpm>
</extensions>
</trkpt>
<trkpt lat="31.041355133" lon="34.720294952">
<ele>269.851563</ele>
<time>2013-11-20T06:18:54Z</time>
<extensions>
<speed>0.0</speed>
<temp>0.00</temp>
<bpm>0</bpm>
<rpm>0.00</rpm>
</extensions>
</trkpt>
<trkpt lat="31.041355133" lon="34.720294952">
<ele>269.875000</ele>
<time>2013-11-20T06:18:59Z</time>
<speed>0.010000</speed>
<extensions>
<speed>0.0</speed>
<temp>0.00</temp>
<bpm>0</bpm>
<rpm>0.00</rpm>
</extensions>
</trkpt>
<trkpt lat="31.041353226" lon="34.720294952">
<ele>269.906250</ele>
<time>2013-11-20T06:19:04Z</time>
<speed>0.020000</speed>
<extensions>
<speed>0.0</speed>
<temp>0.00</temp>
<bpm>0</bpm>
<rpm>0.00</rpm>
</extensions>
</trkpt>
<trkpt lat="31.041353226" lon="34.720294952">
<ele>269.937500</ele>
<time>2013-11-20T06:19:09Z</time>
<speed>0.010000</speed>
<extensions>
<speed>0.0</speed>
<temp>0.00</temp>
<bpm>0</bpm>
<rpm>0.00</rpm>
</extensions>
</trkpt>
<trkpt lat="31.041353226" lon="34.720294952">
<ele>269.976563</ele>
<time>2013-11-20T06:19:14Z</time>
<extensions>
<speed>0.0</speed>
<temp>0.00</temp>
<bpm>0</bpm>
<rpm>0.00</rpm>
</extensions>
</trkpt>
<trkpt lat="31.041353226" lon="34.720294952">
<ele>269.968750</ele>
<time>2013-11-20T06:19:19Z</time>
<speed>0.010000</speed>
<extensions>
<speed>0.0</speed>
<temp>0.00</temp>
<bpm>0</bpm>
<rpm>0.00</rpm>
</extensions>
</trkpt>
<trkpt lat="31.041353226" lon="34.720294952">
<ele>269.976563</ele>
<time>2013-11-20T06:19:24Z</time>
<speed>0.010000</speed>
<extensions>
<speed>0.0</speed>
<temp>0.00</temp>
<bpm>0</bpm>
<rpm>0.00</rpm>
</extensions>
</trkpt>
<trkpt lat="31.041351318" lon="34.720291138">
<ele>269.984375</ele>
<time>2013-11-20T06:19:29Z</time>
<speed>0.010000</speed>
<extensions>
<speed>0.0</speed>
<temp>0.00</temp>
<bpm>0</bpm>
<rpm>0.00</rpm>
</extensions>
</trkpt>
<trkpt lat="31.041351318" lon="34.720291138">
<ele>269.992188</ele>
<time>2013-11-20T06:19:34Z</time>
<speed>0.010000</speed>
<extensions>
<speed>0.0</speed>
<temp>0.00</temp>
<bpm>0</bpm>
<rpm>0.00</rpm>
</extensions>
</trkpt>
<trkpt lat="31.041351318" lon="34.720291138">
<ele>270.000000</ele>
<time>2013-11-20T06:19:39Z</time>
<speed>0.010000</speed>
<extensions>
<speed>0.0</speed>
<temp>0.00</temp>
<bpm>0</bpm>
<rpm>0.00</rpm>
</extensions>
</trkpt>
<trkpt lat="31.041351318" lon="34.720291138">
<ele>270.054688</ele>
<time>2013-11-20T06:19:44Z</time>
<speed>0.030000</speed>
<extensions>
<speed>0.0</speed>
<temp>0.00</temp>
<bpm>0</bpm>
<rpm>0.00</rpm>
</extensions>
</trkpt>
<trkpt lat="31.041349411" lon="34.720291138">
<ele>270.156250</ele>
<time>2013-11-20T06:19:49Z</time>
<speed>0.040000</speed>
<extensions>
<speed>0.0</speed>
<temp>0.00</temp>
<bpm>0</bpm>
<rpm>0.00</rpm>
</extensions>
</trkpt>
<trkpt lat="31.041347504" lon="34.720287323">
<ele>270.320313</ele>
<time>2013-11-20T06:19:54Z</time>
<speed>0.060000</speed>
<extensions>
<speed>0.1</speed>
<temp>0.00</temp>
<bpm>0</bpm>
<rpm>0.00</rpm>
</extensions>
</trkpt>
<trkpt lat="31.041347504" lon="34.720287323">
<ele>270.539063</ele>
<time>2013-11-20T06:19:59Z</time>
<speed>0.010000</speed>
<extensions>
<speed>0.0</speed>
<temp>0.00</temp>
<bpm>0</bpm>
<rpm>0.00</rpm>
</extensions>
</trkpt>
<trkpt lat="31.041347504" lon="34.720287323">
<ele>270.601563</ele>
<time>2013-11-20T06:20:04Z</time>
<speed>0.010000</speed>
<extensions>
<speed>0.0</speed>
<temp>0.00</temp>
<bpm>0</bpm>
<rpm>0.00</rpm>
</extensions>
</trkpt>
<trkpt lat="31.041347504" lon="34.720287323">
<ele>270.609375</ele>
<time>2013-11-20T06:20:09Z</time>
<extensions>
<speed>0.0</speed>
<temp>0.00</temp>
<bpm>0</bpm>
<rpm>0.00</rpm>
</extensions>
</trkpt>
<trkpt lat="31.041347504" lon="34.720287323">
<ele>270.625000</ele>
<time>2013-11-20T06:20:14Z</time>
<speed>0.010000</speed>
<extensions>
<speed>0.0</speed>
<temp>0.00</temp>
<bpm>0</bpm>
<rpm>0.00</rpm>
</extensions>
</trkpt>
<trkpt lat="31.041347504" lon="34.720287323">
<ele>270.640625</ele>
<time>2013-11-20T06:20:19Z</time>
<extensions>
<speed>0.0</speed>
<temp>0.00</temp>
<bpm>0</bpm>
<rpm>0.00</rpm>
</extensions>
</trkpt>
<trkpt lat="31.041345596" lon="34.720287323">
<ele>270.695313</ele>
<time>2013-11-20T06:20:24Z</time>
<extensions>
<speed>0.0</speed>
<temp>0.00</temp>
<bpm>0</bpm>
<rpm>0.00</rpm>
</extensions>
</trkpt>
<trkpt lat="31.041345596" lon="34.720287323">
<ele>270.726563</ele>
<time>2013-11-20T06:20:29Z</time>
<speed>0.010000</speed>
<extensions>
<speed>0.0</speed>
<temp>0.00</temp>
<bpm>0</bpm>
<rpm>0.00</rpm>
</extensions>
</trkpt>
<trkpt lat="31.041345596" lon="34.720287323">
<ele>270.757813</ele>
<time>2013-11-20T06:20:34Z</time>
<extensions>
<speed>0.0</speed>
<temp>0.00</temp>
<bpm>0</bpm>
<rpm>0.00</rpm>
</extensions>
</trkpt>
<trkpt lat="31.041345596" lon="34.720287323">
<ele>270.804688</ele>
<time>2013-11-20T06:20:39Z</time>
<speed>0.010000</speed>
<extensions>
<speed>0.0</speed>
<temp>0.00</temp>
<bpm>0</bpm>
<rpm>0.00</rpm>
</extensions>
</trkpt>
<trkpt lat="31.041345596" lon="34.720287323">
<ele>270.890625</ele>
<time>2013-11-20T06:20:44Z</time>
<speed>0.010000</speed>
<extensions>
<speed>0.0</speed>
<temp>0.00</temp>
<bpm>0</bpm>
<rpm>0.00</rpm>
</extensions>
</trkpt>
<trkpt lat="31.041345596" lon="34.720287323">
<ele>270.984375</ele>
<time>2013-11-20T06:20:49Z</time>
<extensions>
<speed>0.0</speed>
<temp>0.00</temp>
<bpm>0</bpm>
<rpm>0.00</rpm>
</extensions>
</trkpt>
<trkpt lat="31.041343689" lon="34.720283508">
<ele>271.085938</ele>
<time>2013-11-20T06:20:54Z</time>
<speed>0.020000</speed>
<extensions>
<speed>0.0</speed>
<temp>0.00</temp>
<bpm>0</bpm>
<rpm>0.00</rpm>
</extensions>
</trkpt>
<trkpt lat="31.041343689" lon="34.720283508">
<ele>271.179688</ele>
<time>2013-11-20T06:20:59Z</time>
<speed>0.020000</speed>
<extensions>
<speed>0.0</speed>
<temp>0.00</temp>
<bpm>0</bpm>
<rpm>0.00</rpm>
</extensions>
</trkpt>
<trkpt lat="31.041343689" lon="34.720283508">
<ele>271.296875</ele>
<time>2013-11-20T06:21:04Z</time>
<extensions>
<speed>0.0</speed>
<temp>0.00</temp>
<bpm>0</bpm>
<rpm>0.00</rpm>
</extensions>
</trkpt>
<trkpt lat="31.041343689" lon="34.720283508">
<ele>271.390625</ele>
<time>2013-11-20T06:21:09Z</time>
<extensions>
<speed>0.0</speed>
<temp>0.00</temp>
<bpm>0</bpm>
<rpm>0.00</rpm>
</extensions>
</trkpt>
<trkpt lat="31.041343689" lon="34.720283508">
<ele>271.500000</ele>
<time>2013-11-20T06:21:14Z</time>
<speed>0.010000</speed>
<extensions>
<speed>0.0</speed>
<temp>0.00</temp>
<bpm>0</bpm>
<rpm>0.00</rpm>
</extensions>
</trkpt>
<trkpt lat="31.041341782" lon="34.720283508">
<ele>271.632813</ele>
<time>2013-11-20T06:21:19Z</time>
<extensions>
<speed>0.0</speed>
<temp>0.00</temp>
<bpm>0</bpm>
<rpm>0.00</rpm>
</extensions>
</trkpt>
<trkpt lat="31.041341782" lon="34.720283508">
<ele>271.773438</ele>
<time>2013-11-20T06:21:24Z</time>
<speed>0.010000</speed>
<extensions>
<speed>0.0</speed>
<temp>0.00</temp>
<bpm>0</bpm>
<rpm>0.00</rpm>
</extensions>
</trkpt>
<trkpt lat="31.041341782" lon="34.720283508">
<ele>271.929688</ele>
<time>2013-11-20T06:21:29Z</time>
<speed>0.010000</speed>
<extensions>
<speed>0.0</speed>
<temp>0.00</temp>
<bpm>0</bpm>
<rpm>0.00</rpm>
</extensions>
</trkpt>
<trkpt lat="31.041339874" lon="34.720279694">
<ele>272.171875</ele>
<time>2013-11-20T06:21:34Z</time>
<speed>0.010000</speed>
<extensions>
<speed>0.0</speed>
<temp>0.00</temp>
<bpm>0</bpm>
<rpm>0.00</rpm>
</extensions>
</trkpt>
<trkpt lat="31.041339874" lon="34.720279694">
<ele>272.523438</ele>
<time>2013-11-20T06:21:39Z</time>
<speed>0.020000</speed>
<extensions>
<speed>0.0</speed>
<temp>0.00</temp>
<bpm>0</bpm>
<rpm>0.00</rpm>
</extensions>
</trkpt>
<trkpt lat="31.041337967" lon="34.720279694">
<ele>273.007813</ele>
<time>2013-11-20T06:21:44Z</time>
<speed>0.030000</speed>
<extensions>
<speed>0.0</speed>
<temp>0.00</temp>
<bpm>0</bpm>
<rpm>0.00</rpm>
</extensions>
</trkpt>
<trkpt lat="31.041336060" lon="34.720279694">
<ele>273.601563</ele>
<time>2013-11-20T06:21:49Z</time>
<speed>0.040000</speed>
<extensions>
<speed>0.0</speed>
<temp>0.00</temp>
<bpm>0</bpm>
<rpm>0.00</rpm>
</extensions>
</trkpt>
<trkpt lat="31.041332245" lon="34.720279694">
<ele>274.265625</ele>
<time>2013-11-20T06:21:54Z</time>
<speed>0.050000</speed>
<extensions>
<speed>0.1</speed>
<temp>0.00</temp>
<bpm>0</bpm>
<rpm>0.00</rpm>
</extensions>
</trkpt>
<trkpt lat="31.041330338" lon="34.720279694">
<ele>275.007813</ele>
<time>2013-11-20T06:21:59Z</time>
<speed>0.050000</speed>
<extensions>
<speed>0.1</speed>
<temp>0.00</temp>
<bpm>0</bpm>
<rpm>0.00</rpm>
</extensions>
</trkpt>
<trkpt lat="31.041328430" lon="34.720279694">
<ele>275.835938</ele>
<time>2013-11-20T06:22:04Z</time>
<speed>0.060000</speed>
<extensions>
<speed>0.1</speed>
<temp>0.00</temp>
<bpm>0</bpm>
<rpm>0.00</rpm>
</extensions>
</trkpt>
<trkpt lat="31.041326523" lon="34.720283508">
<ele>276.671875</ele>
<time>2013-11-20T06:22:09Z</time>
<speed>0.050000</speed>
<extensions>
<speed>0.1</speed>
<temp>0.00</temp>
<bpm>0</bpm>
<rpm>0.00</rpm>
</extensions>
</trkpt>
<trkpt lat="31.041322708" lon="34.720279694">
<ele>277.609375</ele>
<time>2013-11-20T06:22:14Z</time>
<speed>0.060000</speed>
<extensions>
<speed>0.1</speed>
<temp>0.00</temp>
<bpm>0</bpm>
<rpm>0.00</rpm>
</extensions>
</trkpt>
<trkpt lat="31.041318893" lon="34.720279694">
<ele>278.664063</ele>
<time>2013-11-20T06:22:19Z</time>
<speed>0.070000</speed>
<extensions>
<speed>0.1</speed>
<temp>0.00</temp>
<bpm>0</bpm>
<rpm>0.00</rpm>
</extensions>
</trkpt>
<trkpt lat="31.041315079" lon="34.720279694">
<ele>279.757813</ele>
<time>2013-11-20T06:22:24Z</time>
<speed>0.060000</speed>
<extensions>
<speed>0.1</speed>
<temp>0.00</temp>
<bpm>0</bpm>
<rpm>0.00</rpm>
</extensions>
</trkpt>
<trkpt lat="31.041315079" lon="34.720279694">
<ele>280.218750</ele>
<time>2013-11-20T06:22:29Z</time>
<speed>0.020000</speed>
<extensions>
<speed>0.0</speed>
<temp>0.00</temp>
<bpm>0</bpm>
<rpm>0.00</rpm>
</extensions>
</trkpt>
<trkpt lat="31.041313171" lon="34.720283508">
<ele>280.351563</ele>
<time>2013-11-20T06:22:34Z</time>
<extensions>
<speed>0.0</speed>
<temp>0.00</temp>
<bpm>0</bpm>
<rpm>0.00</rpm>
</extensions>
</trkpt>
<trkpt lat="31.041313171" lon="34.720283508">
<ele>280.382813</ele>
<time>2013-11-20T06:22:39Z</time>
<extensions>
<speed>0.0</speed>
<temp>0.00</temp>
<bpm>0</bpm>
<rpm>0.00</rpm>
</extensions>
</trkpt>
<trkpt lat="31.041313171" lon="34.720283508">
<ele>280.414063</ele>
<time>2013-11-20T06:22:44Z</time>
<extensions>
<speed>0.0</speed>
<temp>0.00</temp>
<bpm>0</bpm>
<rpm>0.00</rpm>
</extensions>
</trkpt>
<trkpt lat="31.041313171" lon="34.720283508">
<ele>280.414063</ele>
<time>2013-11-20T06:22:49Z</time>
<extensions>
<speed>0.0</speed>
<temp>0.00</temp>
<bpm>0</bpm>
<rpm>0.00</rpm>
</extensions>
</trkpt>
<trkpt lat="31.041313171" lon="34.720283508">
<ele>280.421875</ele>
<time>2013-11-20T06:22:54Z</time>
<extensions>
<speed>0.0</speed>
<temp>0.00</temp>
<bpm>0</bpm>
<rpm>0.00</rpm>
</extensions>
</trkpt>
<trkpt lat="31.041313171" lon="34.720283508">
<ele>280.429688</ele>
<time>2013-11-20T06:22:59Z</time>
<speed>0.010000</speed>
<extensions>
<speed>0.0</speed>
<temp>0.00</temp>
<bpm>0</bpm>
<rpm>0.00</rpm>
</extensions>
</trkpt>
<trkpt lat="31.041313171" lon="34.720283508">
<ele>280.429688</ele>
<time>2013-11-20T06:23:04Z</time>
<extensions>
<speed>0.0</speed>
<temp>0.00</temp>
<bpm>0</bpm>
<rpm>0.00</rpm>
</extensions>
</trkpt>
<trkpt lat="31.041313171" lon="34.720283508">
<ele>280.429688</ele>
<time>2013-11-20T06:23:09Z</time>
<extensions>
<speed>0.0</speed>
<temp>0.00</temp>
<bpm>0</bpm>
<rpm>0.00</rpm>
</extensions>
</trkpt>
<trkpt lat="31.041313171" lon="34.720283508">
<ele>280.421875</ele>
<time>2013-11-20T06:23:14Z</time>
<extensions>
<speed>0.0</speed>
<temp>0.00</temp>
<bpm>0</bpm>
<rpm>0.00</rpm>
</extensions>
</trkpt>
<trkpt lat="31.041313171" lon="34.720283508">
<ele>280.390625</ele>
<time>2013-11-20T06:23:19Z</time>
<extensions>
<speed>0.0</speed>
<temp>0.00</temp>
<bpm>0</bpm>
<rpm>0.00</rpm>
</extensions>
</trkpt>
<trkpt lat="31.041313171" lon="34.720283508">
<ele>280.382813</ele>
<time>2013-11-20T06:23:24Z</time>
<speed>0.010000</speed>
<extensions>
<speed>0.0</speed>
<temp>0.00</temp>
<bpm>0</bpm>
<rpm>0.00</rpm>
</extensions>
</trkpt>
<trkpt lat="31.041313171" lon="34.720283508">
<ele>280.367188</ele>
<time>2013-11-20T06:23:29Z</time>
<extensions>
<speed>0.0</speed>
<temp>0.00</temp>
<bpm>0</bpm>
<rpm>0.00</rpm>
</extensions>
</trkpt>
<trkpt lat="31.041313171" lon="34.720283508">
<ele>280.359375</ele>
<time>2013-11-20T06:23:34Z</time>
<extensions>
<speed>0.0</speed>
<temp>0.00</temp>
<bpm>0</bpm>
<rpm>0.00</rpm>
</extensions>
</trkpt>
<trkpt lat="31.041311264" lon="34.720283508">
<ele>280.351563</ele>
<time>2013-11-20T06:23:39Z</time>
<extensions>
<speed>0.0</speed>
<temp>0.00</temp>
<bpm>0</bpm>
<rpm>0.00</rpm>
</extensions>
</trkpt>
<trkpt lat="31.041311264" lon="34.720283508">
<ele>280.328125</ele>
<time>2013-11-20T06:23:44Z</time>
<extensions>
<speed>0.0</speed>
<temp>0.00</temp>
<bpm>0</bpm>
<rpm>0.00</rpm>
</extensions>
</trkpt>
<trkpt lat="31.041311264" lon="34.720283508">
<ele>280.328125</ele>
<time>2013-11-20T06:23:49Z</time>
<extensions>
<speed>0.0</speed>
<temp>0.00</temp>
<bpm>0</bpm>
<rpm>0.00</rpm>
</extensions>
</trkpt>
<trkpt lat="31.041311264" lon="34.720283508">
<ele>280.328125</ele>
<time>2013-11-20T06:23:54Z</time>
<extensions>
<speed>0.0</speed>
<temp>0.00</temp>
<bpm>0</bpm>
<rpm>0.00</rpm>
</extensions>
</trkpt>
<trkpt lat="31.041311264" lon="34.720283508">
<ele>280.328125</ele>
<time>2013-11-20T06:23:59Z</time>
<extensions>
<speed>0.0</speed>
<temp>0.00</temp>
<bpm>0</bpm>
<rpm>0.00</rpm>
</extensions>
</trkpt>
<trkpt lat="31.041311264" lon="34.720283508">
<ele>280.320313</ele>
<time>2013-11-20T06:24:04Z</time>
<extensions>
<speed>0.0</speed>
<temp>0.00</temp>
<bpm>0</bpm>
<rpm>0.00</rpm>
</extensions>
</trkpt>
<trkpt lat="31.041311264" lon="34.720283508">
<ele>280.312500</ele>
<time>2013-11-20T06:24:09Z</time>
<extensions>
<speed>0.0</speed>
<temp>0.00</temp>
<bpm>0</bpm>
<rpm>0.00</rpm>
</extensions>
</trkpt>
<trkpt lat="31.041311264" lon="34.720283508">
<ele>280.312500</ele>
<time>2013-11-20T06:24:14Z</time>
<extensions>
<speed>0.0</speed>
<temp>0.00</temp>
<bpm>0</bpm>
<rpm>0.00</rpm>
</extensions>
</trkpt>
<trkpt lat="31.041311264" lon="34.720283508">
<ele>280.328125</ele>
<time>2013-11-20T06:24:19Z</time>
<extensions>
<speed>0.0</speed>
<temp>0.00</temp>
<bpm>0</bpm>
<rpm>0.00</rpm>
</extensions>
</trkpt>
<trkpt lat="31.041311264" lon="34.720283508">
<ele>280.343750</ele>
<time>2013-11-20T06:24:24Z</time>
<speed>0.010000</speed>
<extensions>
<speed>0.0</speed>
<temp>0.00</temp>
<bpm>0</bpm>
<rpm>0.00</rpm>
</extensions>
</trkpt>
<trkpt lat="31.041311264" lon="34.720283508">
<ele>280.351563</ele>
<time>2013-11-20T06:24:29Z</time>
<extensions>
<speed>0.0</speed>
<temp>0.00</temp>
<bpm>0</bpm>
<rpm>0.00</rpm>
</extensions>
</trkpt>
<trkpt lat="31.041311264" lon="34.720283508">
<ele>280.351563</ele>
<time>2013-11-20T06:24:34Z</time>
<extensions>
<speed>0.0</speed>
<temp>0.00</temp>
<bpm>0</bpm>
<rpm>0.00</rpm>
</extensions>
</trkpt>
<trkpt lat="31.041311264" lon="34.720283508">
<ele>280.359375</ele>
<time>2013-11-20T06:24:39Z</time>
<extensions>
<speed>0.0</speed>
<temp>0.00</temp>
<bpm>0</bpm>
<rpm>0.00</rpm>
</extensions>
</trkpt>
<trkpt lat="31.041311264" lon="34.720283508">
<ele>280.359375</ele>
<time>2013-11-20T06:24:44Z</time>
<speed>0.010000</speed>
<extensions>
<speed>0.0</speed>
<temp>0.00</temp>
<bpm>0</bpm>
<rpm>0.00</rpm>
</extensions>
</trkpt>
<trkpt lat="31.041311264" lon="34.720283508">
<ele>280.359375</ele>
<time>2013-11-20T06:24:49Z</time>
<extensions>
<speed>0.0</speed>
<temp>0.00</temp>
<bpm>0</bpm>
<rpm>0.00</rpm>
</extensions>
</trkpt>
<trkpt lat="31.041311264" lon="34.720283508">
<ele>280.351563</ele>
<time>2013-11-20T06:24:54Z</time>
<speed>0.010000</speed>
<extensions>
<speed>0.0</speed>
<temp>0.00</temp>
<bpm>0</bpm>
<rpm>0.00</rpm>
</extensions>
</trkpt>
<trkpt lat="31.041311264" lon="34.720283508">
<ele>280.343750</ele>
<time>2013-11-20T06:24:59Z</time>
<speed>0.010000</speed>
<extensions>
<speed>0.0</speed>
<temp>0.00</temp>
<bpm>0</bpm>
<rpm>0.00</rpm>
</extensions>
</trkpt>
<trkpt lat="31.041311264" lon="34.720283508">
<ele>280.335938</ele>
<time>2013-11-20T06:25:04Z</time>
<extensions>
<speed>0.0</speed>
<temp>0.00</temp>
<bpm>0</bpm>
<rpm>0.00</rpm>
</extensions>
</trkpt>
<trkpt lat="31.041311264" lon="34.720283508">
<ele>280.335938</ele>
<time>2013-11-20T06:25:09Z</time>
<extensions>
<speed>0.0</speed>
<temp>0.00</temp>
<bpm>0</bpm>
<rpm>0.00</rpm>
</extensions>
</trkpt>
<trkpt lat="31.041311264" lon="34.720283508">
<ele>280.328125</ele>
<time>2013-11-20T06:25:14Z</time>
<speed>0.010000</speed>
<extensions>
<speed>0.0</speed>
<temp>0.00</temp>
<bpm>0</bpm>
<rpm>0.00</rpm>
</extensions>
</trkpt>
<trkpt lat="31.041311264" lon="34.720283508">
<ele>280.335938</ele>
<time>2013-11-20T06:25:19Z</time>
<extensions>
<speed>0.0</speed>
<temp>0.00</temp>
<bpm>0</bpm>
<rpm>0.00</rpm>
</extensions>
</trkpt>
<trkpt lat="31.041311264" lon="34.720283508">
<ele>280.335938</ele>
<time>2013-11-20T06:25:24Z</time>
<speed>0.010000</speed>
<extensions>
<speed>0.0</speed>
<temp>0.00</temp>
<bpm>0</bpm>
<rpm>0.00</rpm>
</extensions>
</trkpt>
<trkpt lat="31.041311264" lon="34.720283508">
<ele>280.335938</ele>
<time>2013-11-20T06:25:29Z</time>
<speed>0.010000</speed>
<extensions>
<speed>0.0</speed>
<temp>0.00</temp>
<bpm>0</bpm>
<rpm>0.00</rpm>
</extensions>
</trkpt>
<trkpt lat="31.041311264" lon="34.720283508">
<ele>280.328125</ele>
<time>2013-11-20T06:25:34Z</time>
<extensions>
<speed>0.0</speed>
<temp>0.00</temp>
<bpm>0</bpm>
<rpm>0.00</rpm>
</extensions>
</trkpt>
<trkpt lat="31.041311264" lon="34.720283508">
<ele>280.328125</ele>
<time>2013-11-20T06:25:39Z</time>
<speed>0.010000</speed>
<extensions>
<speed>0.0</speed>
<temp>0.00</temp>
<bpm>0</bpm>
<rpm>0.00</rpm>
</extensions>
</trkpt>
<trkpt lat="31.041309357" lon="34.720283508">
<ele>280.335938</ele>
<time>2013-11-20T06:25:44Z</time>
<speed>0.010000</speed>
<extensions>
<speed>0.0</speed>
<temp>0.00</temp>
<bpm>0</bpm>
<rpm>0.00</rpm>
</extensions>
</trkpt>
<trkpt lat="31.041311264" lon="34.720283508">
<ele>280.328125</ele>
<time>2013-11-20T06:25:49Z</time>
<speed>0.010000</speed>
<extensions>
<speed>0.0</speed>
<temp>0.00</temp>
<bpm>0</bpm>
<rpm>0.00</rpm>
</extensions>
</trkpt>
<trkpt lat="31.041309357" lon="34.720283508">
<ele>280.312500</ele>
<time>2013-11-20T06:25:54Z</time>
<speed>0.020000</speed>
<extensions>
<speed>0.0</speed>
<temp>0.00</temp>
<bpm>0</bpm>
<rpm>0.00</rpm>
</extensions>
</trkpt>
<trkpt lat="31.041307449" lon="34.720279694">
<ele>280.289063</ele>
<time>2013-11-20T06:25:59Z</time>
<speed>0.040000</speed>
<extensions>
<speed>0.0</speed>
<temp>0.00</temp>
<bpm>0</bpm>
<rpm>0.00</rpm>
</extensions>
</trkpt>
<trkpt lat="31.041307449" lon="34.720279694">
<ele>280.289063</ele>
<time>2013-11-20T06:26:04Z</time>
<speed>0.080000</speed>
<extensions>
<speed>0.1</speed>
<temp>0.00</temp>
<bpm>0</bpm>
<rpm>0.00</rpm>
</extensions>
</trkpt>
<trkpt lat="31.041307449" lon="34.720279694">
<ele>280.289063</ele>
<time>2013-11-20T06:26:09Z</time>
<extensions>
<speed>0.0</speed>
<temp>0.00</temp>
<bpm>0</bpm>
<rpm>0.00</rpm>
</extensions>
</trkpt>
<trkpt lat="31.041307449" lon="34.720279694">
<ele>280.281250</ele>
<time>2013-11-20T06:26:14Z</time>
<speed>0.010000</speed>
<extensions>
<speed>0.0</speed>
<temp>0.00</temp>
<bpm>0</bpm>
<rpm>0.00</rpm>
</extensions>
</trkpt>
<trkpt lat="31.041307449" lon="34.720279694">
<ele>280.273438</ele>
<time>2013-11-20T06:26:19Z</time>
<extensions>
<speed>0.0</speed>
<temp>0.00</temp>
<bpm>0</bpm>
<rpm>0.00</rpm>
</extensions>
</trkpt>
<trkpt lat="31.041307449" lon="34.720279694">
<ele>280.257813</ele>
<time>2013-11-20T06:26:24Z</time>
<speed>0.010000</speed>
<extensions>
<speed>0.0</speed>
<temp>0.00</temp>
<bpm>0</bpm>
<rpm>0.00</rpm>
</extensions>
</trkpt>
<trkpt lat="31.041307449" lon="34.720279694">
<ele>280.250000</ele>
<time>2013-11-20T06:26:29Z</time>
<speed>0.010000</speed>
<extensions>
<speed>0.0</speed>
<temp>0.00</temp>
<bpm>0</bpm>
<rpm>0.00</rpm>
</extensions>
</trkpt>
<trkpt lat="31.041309357" lon="34.720279694">
<ele>280.250000</ele>
<time>2013-11-20T06:26:34Z</time>
<extensions>
<speed>0.0</speed>
<temp>0.00</temp>
<bpm>0</bpm>
<rpm>0.00</rpm>
</extensions>
</trkpt>
<trkpt lat="31.041309357" lon="34.720283508">
<ele>280.328125</ele>
<time>2013-11-20T06:26:39Z</time>
<speed>0.040000</speed>
<extensions>
<speed>0.0</speed>
<temp>0.00</temp>
<bpm>0</bpm>
<rpm>0.00</rpm>
</extensions>
</trkpt>
<trkpt lat="31.041309357" lon="34.720283508">
<ele>280.468750</ele>
<time>2013-11-20T06:26:44Z</time>
<extensions>
<speed>0.0</speed>
<temp>0.00</temp>
<bpm>0</bpm>
<rpm>0.00</rpm>
</extensions>
</trkpt>
<trkpt lat="31.041309357" lon="34.720283508">
<ele>280.492188</ele>
<time>2013-11-20T06:26:49Z</time>
<extensions>
<speed>0.0</speed>
<temp>0.00</temp>
<bpm>0</bpm>
<rpm>0.00</rpm>
</extensions>
</trkpt>
<trkpt lat="31.041307449" lon="34.720283508">
<ele>280.507813</ele>
<time>2013-11-20T06:26:54Z</time>
<extensions>
<speed>0.0</speed>
<temp>0.00</temp>
<bpm>0</bpm>
<rpm>0.00</rpm>
</extensions>
</trkpt>
<trkpt lat="31.041307449" lon="34.720283508">
<ele>280.515625</ele>
<time>2013-11-20T06:26:59Z</time>
<speed>0.010000</speed>
<extensions>
<speed>0.0</speed>
<temp>0.00</temp>
<bpm>0</bpm>
<rpm>0.00</rpm>
</extensions>
</trkpt>
<trkpt lat="31.041307449" lon="34.720283508">
<ele>280.500000</ele>
<time>2013-11-20T06:27:04Z</time>
<extensions>
<speed>0.0</speed>
<temp>0.00</temp>
<bpm>0</bpm>
<rpm>0.00</rpm>
</extensions>
</trkpt>
<trkpt lat="31.041307449" lon="34.720287323">
<ele>280.507813</ele>
<time>2013-11-20T06:27:09Z</time>
<speed>0.040000</speed>
<extensions>
<speed>0.0</speed>
<temp>0.00</temp>
<bpm>0</bpm>
<rpm>0.00</rpm>
</extensions>
</trkpt>
<trkpt lat="31.041307449" lon="34.720287323">
<ele>280.507813</ele>
<time>2013-11-20T06:27:14Z</time>
<speed>0.020000</speed>
<extensions>
<speed>0.0</speed>
<temp>0.00</temp>
<bpm>0</bpm>
<rpm>0.00</rpm>
</extensions>
</trkpt>
<trkpt lat="31.041307449" lon="34.720287323">
<ele>280.523438</ele>
<time>2013-11-20T06:27:19Z</time>
<speed>0.010000</speed>
<extensions>
<speed>0.0</speed>
<temp>0.00</temp>
<bpm>0</bpm>
<rpm>0.00</rpm>
</extensions>
</trkpt>
<trkpt lat="31.041307449" lon="34.720287323">
<ele>280.531250</ele>
<time>2013-11-20T06:27:24Z</time>
<speed>0.030000</speed>
<extensions>
<speed>0.0</speed>
<temp>0.00</temp>
<bpm>0</bpm>
<rpm>0.00</rpm>
</extensions>
</trkpt>
<trkpt lat="31.041307449" lon="34.720287323">
<ele>280.554688</ele>
<time>2013-11-20T06:27:29Z</time>
<speed>0.030000</speed>
<extensions>
<speed>0.0</speed>
<temp>0.00</temp>
<bpm>0</bpm>
<rpm>0.00</rpm>
</extensions>
</trkpt>
<trkpt lat="31.041307449" lon="34.720291138">
<ele>280.578125</ele>
<time>2013-11-20T06:27:34Z</time>
<speed>0.080000</speed>
<extensions>
<speed>0.1</speed>
<temp>0.00</temp>
<bpm>0</bpm>
<rpm>0.00</rpm>
</extensions>
</trkpt>
<trkpt lat="31.041307449" lon="34.720294952">
<ele>280.609375</ele>
<time>2013-11-20T06:27:39Z</time>
<speed>0.110000</speed>
<extensions>
<speed>0.1</speed>
<temp>0.00</temp>
<bpm>0</bpm>
<rpm>0.00</rpm>
</extensions>
</trkpt>
<trkpt lat="31.041305542" lon="34.720302582">
<ele>280.679688</ele>
<time>2013-11-20T06:27:44Z</time>
<speed>0.130000</speed>
<extensions>
<speed>0.1</speed>
<temp>0.00</temp>
<bpm>0</bpm>
<rpm>0.00</rpm>
</extensions>
</trkpt>
<trkpt lat="31.041307449" lon="34.720310211">
<ele>280.796875</ele>
<time>2013-11-20T06:27:49Z</time>
<speed>0.120000</speed>
<extensions>
<speed>0.1</speed>
<temp>0.00</temp>
<bpm>0</bpm>
<rpm>0.00</rpm>
</extensions>
</trkpt>
<trkpt lat="31.041305542" lon="34.720314026">
<ele>280.914063</ele>
<time>2013-11-20T06:27:54Z</time>
<speed>0.160000</speed>
<extensions>
<speed>0.2</speed>
<temp>0.00</temp>
<bpm>0</bpm>
<rpm>0.00</rpm>
</extensions>
</trkpt>
<trkpt lat="31.041307449" lon="34.720325470">
<ele>281.062500</ele>
<time>2013-11-20T06:27:59Z</time>
<speed>0.180000</speed>
<extensions>
<speed>0.2</speed>
<temp>0.00</temp>
<bpm>0</bpm>
<rpm>0.00</rpm>
</extensions>
</trkpt>
<trkpt lat="31.041307449" lon="34.720333099">
<ele>281.234375</ele>
<time>2013-11-20T06:28:04Z</time>
<speed>0.140000</speed>
<extensions>
<speed>0.1</speed>
<temp>0.00</temp>
<bpm>0</bpm>
<rpm>0.00</rpm>
</extensions>
</trkpt>
<trkpt lat="31.041307449" lon="34.720336914">
<ele>281.429688</ele>
<time>2013-11-20T06:28:09Z</time>
<speed>0.040000</speed>
<extensions>
<speed>0.0</speed>
<temp>0.00</temp>
<bpm>0</bpm>
<rpm>0.00</rpm>
</extensions>
</trkpt>
<trkpt lat="31.041307449" lon="34.720340729">
<ele>281.625000</ele>
<time>2013-11-20T06:28:14Z</time>
<speed>0.020000</speed>
<extensions>
<speed>0.0</speed>
<temp>0.00</temp>
<bpm>0</bpm>
<rpm>0.00</rpm>
</extensions>
</trkpt>
<trkpt lat="31.041305542" lon="34.720336914">
<ele>281.835938</ele>
<time>2013-11-20T06:28:19Z</time>
<speed>0.120000</speed>
<extensions>
<speed>0.1</speed>
<temp>0.00</temp>
<bpm>0</bpm>
<rpm>0.00</rpm>
</extensions>
</trkpt>
<trkpt lat="31.041303635" lon="34.720329285">
<ele>282.046875</ele>
<time>2013-11-20T06:28:24Z</time>
<speed>0.170000</speed>
<extensions>
<speed>0.2</speed>
<temp>0.00</temp>
<bpm>0</bpm>
<rpm>0.00</rpm>
</extensions>
</trkpt>
<trkpt lat="31.041301727" lon="34.720321655">
<ele>282.257813</ele>
<time>2013-11-20T06:28:29Z</time>
<speed>0.200000</speed>
<extensions>
<speed>0.2</speed>
<temp>0.00</temp>
<bpm>0</bpm>
<rpm>0.00</rpm>
</extensions>
</trkpt>
<trkpt lat="31.041297913" lon="34.720310211">
<ele>282.484375</ele>
<time>2013-11-20T06:28:34Z</time>
<speed>0.210000</speed>
<extensions>
<speed>0.2</speed>
<temp>0.00</temp>
<bpm>0</bpm>
<rpm>0.00</rpm>
</extensions>
</trkpt>
<trkpt lat="31.041296005" lon="34.720294952">
<ele>282.703125</ele>
<time>2013-11-20T06:28:39Z</time>
<speed>0.250000</speed>
<extensions>
<speed>0.2</speed>
<temp>0.00</temp>
<bpm>0</bpm>
<rpm>0.00</rpm>
</extensions>
</trkpt>
<trkpt lat="31.041294098" lon="34.720283508">
<ele>282.937500</ele>
<time>2013-11-20T06:28:44Z</time>
<speed>0.250000</speed>
<extensions>
<speed>0.2</speed>
<temp>0.00</temp>
<bpm>0</bpm>
<rpm>0.00</rpm>
</extensions>
</trkpt>
<trkpt lat="31.041292191" lon="34.720272064">
<ele>283.156250</ele>
<time>2013-11-20T06:28:49Z</time>
<speed>0.200000</speed>
<extensions>
<speed>0.2</speed>
<temp>0.00</temp>
<bpm>0</bpm>
<rpm>0.00</rpm>
</extensions>
</trkpt>
<trkpt lat="31.041288376" lon="34.720260620">
<ele>283.390625</ele>
<time>2013-11-20T06:28:54Z</time>
<speed>0.230000</speed>
<extensions>
<speed>0.2</speed>
<temp>0.00</temp>
<bpm>0</bpm>
<rpm>0.00</rpm>
</extensions>
</trkpt>
<trkpt lat="31.041286469" lon="34.720252991">
<ele>283.632813</ele>
<time>2013-11-20T06:28:59Z</time>
<speed>0.070000</speed>
<extensions>
<speed>0.1</speed>
<temp>0.00</temp>
<bpm>0</bpm>
<rpm>0.00</rpm>
</extensions>
</trkpt>
<trkpt lat="31.041286469" lon="34.720252991">
<ele>283.945313</ele>
<time>2013-11-20T06:29:04Z</time>
<speed>0.050000</speed>
<extensions>
<speed>0.1</speed>
<temp>0.00</temp>
<bpm>0</bpm>
<rpm>0.00</rpm>
</extensions>
</trkpt>
<trkpt lat="31.041286469" lon="34.720252991">
<ele>284.320313</ele>
<time>2013-11-20T06:29:09Z</time>
<speed>0.050000</speed>
<extensions>
<speed>0.1</speed>
<temp>0.00</temp>
<bpm>0</bpm>
<rpm>0.00</rpm>
</extensions>
</trkpt>
<trkpt lat="31.041284561" lon="34.720252991">
<ele>284.570313</ele>
<time>2013-11-20T06:29:14Z</time>
<extensions>
<speed>0.0</speed>
<temp>0.00</temp>
<bpm>0</bpm>
<rpm>0.00</rpm>
</extensions>
</trkpt>
<trkpt lat="31.041284561" lon="34.720252991">
<ele>284.562500</ele>
<time>2013-11-20T06:29:19Z</time>
<extensions>
<speed>0.0</speed>
<temp>0.00</temp>
<bpm>0</bpm>
<rpm>0.00</rpm>
</extensions>
</trkpt>
<trkpt lat="31.041284561" lon="34.720252991">
<ele>284.609375</ele>
<time>2013-11-20T06:29:24Z</time>
<speed>0.020000</speed>
<extensions>
<speed>0.0</speed>
<temp>0.00</temp>
<bpm>0</bpm>
<rpm>0.00</rpm>
</extensions>
</trkpt>
<trkpt lat="31.041284561" lon="34.720252991">
<ele>284.617188</ele>
<time>2013-11-20T06:29:29Z</time>
<speed>0.020000</speed>
<extensions>
<speed>0.0</speed>
<temp>0.00</temp>
<bpm>0</bpm>
<rpm>0.00</rpm>
</extensions>
</trkpt>
<trkpt lat="31.041284561" lon="34.720252991">
<ele>284.625000</ele>
<time>2013-11-20T06:29:34Z</time>
<extensions>
<speed>0.0</speed>
<temp>0.00</temp>
<bpm>0</bpm>
<rpm>0.00</rpm>
</extensions>
</trkpt>
<trkpt lat="31.041284561" lon="34.720252991">
<ele>284.640625</ele>
<time>2013-11-20T06:29:39Z</time>
<speed>0.010000</speed>
<extensions>
<speed>0.0</speed>
<temp>0.00</temp>
<bpm>0</bpm>
<rpm>0.00</rpm>
</extensions>
</trkpt>
<trkpt lat="31.041284561" lon="34.720252991">
<ele>284.648438</ele>
<time>2013-11-20T06:29:44Z</time>
<speed>0.020000</speed>
<extensions>
<speed>0.0</speed>
<temp>0.00</temp>
<bpm>0</bpm>
<rpm>0.00</rpm>
</extensions>
</trkpt>
<trkpt lat="31.041284561" lon="34.720252991">
<ele>284.640625</ele>
<time>2013-11-20T06:29:49Z</time>
<speed>0.040000</speed>
<extensions>
<speed>0.0</speed>
<temp>0.00</temp>
<bpm>0</bpm>
<rpm>0.00</rpm>
</extensions>
</trkpt>
<trkpt lat="31.041284561" lon="34.720252991">
<ele>284.632813</ele>
<time>2013-11-20T06:29:54Z</time>
<speed>0.010000</speed>
<extensions>
<speed>0.0</speed>
<temp>0.00</temp>
<bpm>0</bpm>
<rpm>0.00</rpm>
</extensions>
</trkpt>
<trkpt lat="31.041286469" lon="34.720252991">
<ele>284.609375</ele>
<time>2013-11-20T06:29:59Z</time>
<speed>0.010000</speed>
<extensions>
<speed>0.0</speed>
<temp>0.00</temp>
<bpm>0</bpm>
<rpm>0.00</rpm>
</extensions>
</trkpt>
<trkpt lat="31.041286469" lon="34.720252991">
<ele>284.617188</ele>
<time>2013-11-20T06:30:04Z</time>
<speed>0.020000</speed>
<extensions>
<speed>0.0</speed>
<temp>0.00</temp>
<bpm>0</bpm>
<rpm>0.00</rpm>
</extensions>
</trkpt>
<trkpt lat="31.041286469" lon="34.720252991">
<ele>284.625000</ele>
<time>2013-11-20T06:30:09Z</time>
<extensions>
<speed>0.0</speed>
<temp>0.00</temp>
<bpm>0</bpm>
<rpm>0.00</rpm>
</extensions>
</trkpt>
<trkpt lat="31.041286469" lon="34.720252991">
<ele>284.625000</ele>
<time>2013-11-20T06:30:14Z</time>
<speed>0.010000</speed>
<extensions>
<speed>0.0</speed>
<temp>0.00</temp>
<bpm>0</bpm>
<rpm>0.00</rpm>
</extensions>
</trkpt>
<trkpt lat="31.041286469" lon="34.720252991">
<ele>284.625000</ele>
<time>2013-11-20T06:30:19Z</time>
<speed>0.010000</speed>
<extensions>
<speed>0.0</speed>
<temp>0.00</temp>
<bpm>0</bpm>
<rpm>0.00</rpm>
</extensions>
</trkpt>
<trkpt lat="31.041286469" lon="34.720252991">
<ele>284.625000</ele>
<time>2013-11-20T06:30:24Z</time>
<speed>0.010000</speed>
<extensions>
<speed>0.0</speed>
<temp>0.00</temp>
<bpm>0</bpm>
<rpm>0.00</rpm>
</extensions>
</trkpt>
<trkpt lat="31.041286469" lon="34.720252991">
<ele>284.632813</ele>
<time>2013-11-20T06:30:29Z</time>
<speed>0.020000</speed>
<extensions>
<speed>0.0</speed>
<temp>0.00</temp>
<bpm>0</bpm>
<rpm>0.00</rpm>
</extensions>
</trkpt>
<trkpt lat="31.041286469" lon="34.720252991">
<ele>284.625000</ele>
<time>2013-11-20T06:30:34Z</time>
<speed>0.030000</speed>
<extensions>
<speed>0.0</speed>
<temp>0.00</temp>
<bpm>0</bpm>
<rpm>0.00</rpm>
</extensions>
</trkpt>
<trkpt lat="31.041286469" lon="34.720252991">
<ele>284.601563</ele>
<time>2013-11-20T06:30:39Z</time>
<speed>0.060000</speed>
<extensions>
<speed>0.1</speed>
<temp>0.00</temp>
<bpm>0</bpm>
<rpm>0.00</rpm>
</extensions>
</trkpt>
<trkpt lat="31.041284561" lon="34.720256805">
<ele>284.617188</ele>
<time>2013-11-20T06:30:44Z</time>
<speed>0.070000</speed>
<extensions>
<speed>0.1</speed>
<temp>0.00</temp>
<bpm>0</bpm>
<rpm>0.00</rpm>
</extensions>
</trkpt>
<trkpt lat="31.041280746" lon="34.720256805">
<ele>284.671875</ele>
<time>2013-11-20T06:30:49Z</time>
<speed>0.080000</speed>
<extensions>
<speed>0.1</speed>
<temp>0.00</temp>
<bpm>0</bpm>
<rpm>0.00</rpm>
</extensions>
</trkpt>
<trkpt lat="31.041278839" lon="34.720260620">
<ele>284.773438</ele>
<time>2013-11-20T06:30:54Z</time>
<speed>0.070000</speed>
<extensions>
<speed>0.1</speed>
<temp>0.00</temp>
<bpm>0</bpm>
<rpm>0.00</rpm>
</extensions>
</trkpt>
<trkpt lat="31.041276932" lon="34.720268250">
<ele>284.914063</ele>
<time>2013-11-20T06:30:59Z</time>
<speed>0.110000</speed>
<extensions>
<speed>0.1</speed>
<temp>0.00</temp>
<bpm>0</bpm>
<rpm>0.00</rpm>
</extensions>
</trkpt>
<trkpt lat="31.041275024" lon="34.720272064">
<ele>285.078125</ele>
<time>2013-11-20T06:31:04Z</time>
<speed>0.060000</speed>
<extensions>
<speed>0.1</speed>
<temp>0.00</temp>
<bpm>0</bpm>
<rpm>0.00</rpm>
</extensions>
</trkpt>
<trkpt lat="31.041275024" lon="34.720272064">
<ele>285.171875</ele>
<time>2013-11-20T06:31:09Z</time>
<speed>0.040000</speed>
<extensions>
<speed>0.0</speed>
<temp>0.00</temp>
<bpm>0</bpm>
<rpm>0.00</rpm>
</extensions>
</trkpt>
<trkpt lat="31.041276932" lon="34.720275879">
<ele>285.148438</ele>
<time>2013-11-20T06:31:14Z</time>
<speed>0.070000</speed>
<extensions>
<speed>0.1</speed>
<temp>0.00</temp>
<bpm>0</bpm>
<rpm>0.00</rpm>
</extensions>
</trkpt>
<trkpt lat="31.041276932" lon="34.720275879">
<ele>285.062500</ele>
<time>2013-11-20T06:31:19Z</time>
<speed>0.010000</speed>
<extensions>
<speed>0.0</speed>
<temp>0.00</temp>
<bpm>0</bpm>
<rpm>0.00</rpm>
</extensions>
</trkpt>
<trkpt lat="31.041276932" lon="34.720275879">
<ele>285.054688</ele>
<time>2013-11-20T06:31:24Z</time>
<speed>0.010000</speed>
<extensions>
<speed>0.0</speed>
<temp>0.00</temp>
<bpm>0</bpm>
<rpm>0.00</rpm>
</extensions>
</trkpt>
<trkpt lat="31.041278839" lon="34.720275879">
<ele>285.015625</ele>
<time>2013-11-20T06:31:29Z</time>
<speed>0.010000</speed>
<extensions>
<speed>0.0</speed>
<temp>0.00</temp>
<bpm>0</bpm>
<rpm>0.00</rpm>
</extensions>
</trkpt>
<trkpt lat="31.041278839" lon="34.720275879">
<ele>284.773438</ele>
<time>2013-11-20T06:31:34Z</time>
<extensions>
<speed>0.0</speed>
<temp>0.00</temp>
<bpm>0</bpm>
<rpm>0.00</rpm>
</extensions>
</trkpt>
<trkpt lat="31.041278839" lon="34.720275879">
<ele>284.632813</ele>
<time>2013-11-20T06:31:39Z</time>
<speed>0.020000</speed>
<extensions>
<speed>0.0</speed>
<temp>0.00</temp>
<bpm>0</bpm>
<rpm>0.00</rpm>
</extensions>
</trkpt>
<trkpt lat="31.041278839" lon="34.720275879">
<ele>284.679688</ele>
<time>2013-11-20T06:31:44Z</time>
<extensions>
<speed>0.0</speed>
<temp>0.00</temp>
<bpm>0</bpm>
<rpm>0.00</rpm>
</extensions>
</trkpt>
<trkpt lat="31.041280746" lon="34.720275879">
<ele>284.703125</ele>
<time>2013-11-20T06:31:49Z</time>
<speed>0.010000</speed>
<extensions>
<speed>0.0</speed>
<temp>0.00</temp>
<bpm>0</bpm>
<rpm>0.00</rpm>
</extensions>
</trkpt>
<trkpt lat="31.041280746" lon="34.720275879">
<ele>284.710938</ele>
<time>2013-11-20T06:31:54Z</time>
<speed>0.010000</speed>
<extensions>
<speed>0.0</speed>
<temp>0.00</temp>
<bpm>0</bpm>
<rpm>0.00</rpm>
</extensions>
</trkpt>
<trkpt lat="31.041280746" lon="34.720275879">
<ele>284.710938</ele>
<time>2013-11-20T06:31:59Z</time>
<extensions>
<speed>0.0</speed>
<temp>0.00</temp>
<bpm>0</bpm>
<rpm>0.00</rpm>
</extensions>
</trkpt>
<trkpt lat="31.041280746" lon="34.720275879">
<ele>284.726563</ele>
<time>2013-11-20T06:32:04Z</time>
<extensions>
<speed>0.0</speed>
<temp>0.00</temp>
<bpm>0</bpm>
<rpm>0.00</rpm>
</extensions>
</trkpt>
<trkpt lat="31.041278839" lon="34.720275879">
<ele>284.742188</ele>
<time>2013-11-20T06:32:09Z</time>
<speed>0.020000</speed>
<extensions>
<speed>0.0</speed>
<temp>0.00</temp>
<bpm>0</bpm>
<rpm>0.00</rpm>
</extensions>
</trkpt>
<trkpt lat="31.041278839" lon="34.720275879">
<ele>284.726563</ele>
<time>2013-11-20T06:32:14Z</time>
<extensions>
<speed>0.0</speed>
<temp>0.00</temp>
<bpm>0</bpm>
<rpm>0.00</rpm>
</extensions>
</trkpt>
<trkpt lat="31.041280746" lon="34.720275879">
<ele>284.734375</ele>
<time>2013-11-20T06:32:19Z</time>
<extensions>
<speed>0.0</speed>
<temp>0.00</temp>
<bpm>0</bpm>
<rpm>0.00</rpm>
</extensions>
</trkpt>
<trkpt lat="31.041278839" lon="34.720275879">
<ele>284.757813</ele>
<time>2013-11-20T06:32:24Z</time>
<speed>0.010000</speed>
<extensions>
<speed>0.0</speed>
<temp>0.00</temp>
<bpm>0</bpm>
<rpm>0.00</rpm>
</extensions>
</trkpt>
<trkpt lat="31.041280746" lon="34.720275879">
<ele>284.781250</ele>
<time>2013-11-20T06:32:29Z</time>
<extensions>
<speed>0.0</speed>
<temp>0.00</temp>
<bpm>0</bpm>
<rpm>0.00</rpm>
</extensions>
</trkpt>
<trkpt lat="31.041280746" lon="34.720275879">
<ele>284.796875</ele>
<time>2013-11-20T06:32:34Z</time>
<speed>0.020000</speed>
<extensions>
<speed>0.0</speed>
<temp>0.00</temp>
<bpm>0</bpm>
<rpm>0.00</rpm>
</extensions>
</trkpt>
<trkpt lat="31.041280746" lon="34.720275879">
<ele>284.804688</ele>
<time>2013-11-20T06:32:39Z</time>
<extensions>
<speed>0.0</speed>
<temp>0.00</temp>
<bpm>0</bpm>
<rpm>0.00</rpm>
</extensions>
</trkpt>
<trkpt lat="31.041280746" lon="34.720275879">
<ele>284.804688</ele>
<time>2013-11-20T06:32:44Z</time>
<extensions>
<speed>0.0</speed>
<temp>0.00</temp>
<bpm>0</bpm>
<rpm>0.00</rpm>
</extensions>
</trkpt>
<trkpt lat="31.041278839" lon="34.720275879">
<ele>284.804688</ele>
<time>2013-11-20T06:32:49Z</time>
<extensions>
<speed>0.0</speed>
<temp>0.00</temp>
<bpm>0</bpm>
<rpm>0.00</rpm>
</extensions>
</trkpt>
<trkpt lat="31.041280746" lon="34.720275879">
<ele>284.750000</ele>
<time>2013-11-20T06:32:54Z</time>
<extensions>
<speed>0.0</speed>
<temp>0.00</temp>
<bpm>0</bpm>
<rpm>0.00</rpm>
</extensions>
</trkpt>
<trkpt lat="31.041280746" lon="34.720279694">
<ele>284.734375</ele>
<time>2013-11-20T06:32:59Z</time>
<speed>0.010000</speed>
<extensions>
<speed>0.0</speed>
<temp>0.00</temp>
<bpm>0</bpm>
<rpm>0.00</rpm>
</extensions>
</trkpt>
<trkpt lat="31.041280746" lon="34.720279694">
<ele>284.703125</ele>
<time>2013-11-20T06:33:04Z</time>
<extensions>
<speed>0.0</speed>
<temp>0.00</temp>
<bpm>0</bpm>
<rpm>0.00</rpm>
</extensions>
</trkpt>
<trkpt lat="31.041280746" lon="34.720279694">
<ele>284.648438</ele>
<time>2013-11-20T06:33:09Z</time>
<speed>0.010000</speed>
<extensions>
<speed>0.0</speed>
<temp>0.00</temp>
<bpm>0</bpm>
<rpm>0.00</rpm>
</extensions>
</trkpt>
<trkpt lat="31.041280746" lon="34.720279694">
<ele>284.609375</ele>
<time>2013-11-20T06:33:14Z</time>
<speed>0.030000</speed>
<extensions>
<speed>0.0</speed>
<temp>0.00</temp>
<bpm>0</bpm>
<rpm>0.00</rpm>
</extensions>
</trkpt>
<trkpt lat="31.041280746" lon="34.720279694">
<ele>284.601563</ele>
<time>2013-11-20T06:33:19Z</time>
<speed>0.020000</speed>
<extensions>
<speed>0.0</speed>
<temp>0.00</temp>
<bpm>0</bpm>
<rpm>0.00</rpm>
</extensions>
</trkpt>
<trkpt lat="31.041280746" lon="34.720279694">
<ele>284.601563</ele>
<time>2013-11-20T06:33:24Z</time>
<speed>0.020000</speed>
<extensions>
<speed>0.0</speed>
<temp>0.00</temp>
<bpm>0</bpm>
<rpm>0.00</rpm>
</extensions>
</trkpt>
<trkpt lat="31.041276932" lon="34.720275879">
<ele>284.578125</ele>
<time>2013-11-20T06:33:29Z</time>
<speed>0.100000</speed>
<extensions>
<speed>0.1</speed>
<temp>0.00</temp>
<bpm>0</bpm>
<rpm>0.00</rpm>
</extensions>
</trkpt>
<trkpt lat="31.041276932" lon="34.720272064">
<ele>284.570313</ele>
<time>2013-11-20T06:33:34Z</time>
<speed>0.070000</speed>
<extensions>
<speed>0.1</speed>
<temp>0.00</temp>
<bpm>0</bpm>
<rpm>0.00</rpm>
</extensions>
</trkpt>
<trkpt lat="31.041276932" lon="34.720272064">
<ele>284.570313</ele>
<time>2013-11-20T06:33:39Z</time>
<speed>0.050000</speed>
<extensions>
<speed>0.1</speed>
<temp>0.00</temp>
<bpm>0</bpm>
<rpm>0.00</rpm>
</extensions>
</trkpt>
<trkpt lat="31.041275024" lon="34.720268250">
<ele>284.585938</ele>
<time>2013-11-20T06:33:44Z</time>
<speed>0.030000</speed>
<extensions>
<speed>0.0</speed>
<temp>0.00</temp>
<bpm>0</bpm>
<rpm>0.00</rpm>
</extensions>
</trkpt>
<trkpt lat="31.041273117" lon="34.720268250">
<ele>284.593750</ele>
<time>2013-11-20T06:33:49Z</time>
<speed>0.060000</speed>
<extensions>
<speed>0.1</speed>
<temp>0.00</temp>
<bpm>0</bpm>
<rpm>0.00</rpm>
</extensions>
</trkpt>
<trkpt lat="31.041271210" lon="34.720268250">
<ele>284.601563</ele>
<time>2013-11-20T06:33:54Z</time>
<speed>0.020000</speed>
<extensions>
<speed>0.0</speed>
<temp>0.00</temp>
<bpm>0</bpm>
<rpm>0.00</rpm>
</extensions>
</trkpt>
<trkpt lat="31.041271210" lon="34.720264435">
<ele>284.578125</ele>
<time>2013-11-20T06:33:59Z</time>
<speed>0.040000</speed>
<extensions>
<speed>0.0</speed>
<temp>0.00</temp>
<bpm>0</bpm>
<rpm>0.00</rpm>
</extensions>
</trkpt>
<trkpt lat="31.041273117" lon="34.720260620">
<ele>284.539063</ele>
<time>2013-11-20T06:34:04Z</time>
<speed>0.070000</speed>
<extensions>
<speed>0.1</speed>
<temp>0.00</temp>
<bpm>0</bpm>
<rpm>0.00</rpm>
</extensions>
</trkpt>
<trkpt lat="31.041275024" lon="34.720260620">
<ele>284.484375</ele>
<time>2013-11-20T06:34:09Z</time>
<speed>0.020000</speed>
<extensions>
<speed>0.0</speed>
<temp>0.00</temp>
<bpm>0</bpm>
<rpm>0.00</rpm>
</extensions>
</trkpt>
<trkpt lat="31.041275024" lon="34.720264435">
<ele>284.421875</ele>
<time>2013-11-20T06:34:14Z</time>
<speed>0.020000</speed>
<extensions>
<speed>0.0</speed>
<temp>0.00</temp>
<bpm>0</bpm>
<rpm>0.00</rpm>
</extensions>
</trkpt>
<trkpt lat="31.041275024" lon="34.720264435">
<ele>284.390625</ele>
<time>2013-11-20T06:34:19Z</time>
<speed>0.020000</speed>
<extensions>
<speed>0.0</speed>
<temp>0.00</temp>
<bpm>0</bpm>
<rpm>0.00</rpm>
</extensions>
</trkpt>
<trkpt lat="31.041275024" lon="34.720264435">
<ele>284.398438</ele>
<time>2013-11-20T06:34:24Z</time>
<speed>0.020000</speed>
<extensions>
<speed>0.0</speed>
<temp>0.00</temp>
<bpm>0</bpm>
<rpm>0.00</rpm>
</extensions>
</trkpt>
<trkpt lat="31.041275024" lon="34.720264435">
<ele>284.398438</ele>
<time>2013-11-20T06:34:29Z</time>
<speed>0.020000</speed>
<extensions>
<speed>0.0</speed>
<temp>0.00</temp>
<bpm>0</bpm>
<rpm>0.00</rpm>
</extensions>
</trkpt>
<trkpt lat="31.041275024" lon="34.720264435">
<ele>284.398438</ele>
<time>2013-11-20T06:34:34Z</time>
<speed>0.010000</speed>
<extensions>
<speed>0.0</speed>
<temp>0.00</temp>
<bpm>0</bpm>
<rpm>0.00</rpm>
</extensions>
</trkpt>
<trkpt lat="31.041275024" lon="34.720264435">
<ele>284.390625</ele>
<time>2013-11-20T06:34:39Z</time>
<speed>0.010000</speed>
<extensions>
<speed>0.0</speed>
<temp>0.00</temp>
<bpm>0</bpm>
<rpm>0.00</rpm>
</extensions>
</trkpt>
<trkpt lat="31.041273117" lon="34.720264435">
<ele>284.406250</ele>
<time>2013-11-20T06:34:44Z</time>
<speed>0.030000</speed>
<extensions>
<speed>0.0</speed>
<temp>0.00</temp>
<bpm>0</bpm>
<rpm>0.00</rpm>
</extensions>
</trkpt>
<trkpt lat="31.041271210" lon="34.720264435">
<ele>284.484375</ele>
<time>2013-11-20T06:34:49Z</time>
<speed>0.020000</speed>
<extensions>
<speed>0.0</speed>
<temp>0.00</temp>
<bpm>0</bpm>
<rpm>0.00</rpm>
</extensions>
</trkpt>
<trkpt lat="31.041271210" lon="34.720264435">
<ele>284.609375</ele>
<time>2013-11-20T06:34:54Z</time>
<speed>0.010000</speed>
<extensions>
<speed>0.0</speed>
<temp>0.00</temp>
<bpm>0</bpm>
<rpm>0.00</rpm>
</extensions>
</trkpt>
<trkpt lat="31.041273117" lon="34.720264435">
<ele>284.757813</ele>
<time>2013-11-20T06:34:59Z</time>
<speed>0.060000</speed>
<extensions>
<speed>0.1</speed>
<temp>0.00</temp>
<bpm>0</bpm>
<rpm>0.00</rpm>
</extensions>
</trkpt>
<trkpt lat="31.041276932" lon="34.720264435">
<ele>284.890625</ele>
<time>2013-11-20T06:35:04Z</time>
<speed>0.100000</speed>
<extensions>
<speed>0.1</speed>
<temp>0.00</temp>
<bpm>0</bpm>
<rpm>0.00</rpm>
</extensions>
</trkpt>
<trkpt lat="31.041280746" lon="34.720264435">
<ele>285.007813</ele>
<time>2013-11-20T06:35:09Z</time>
<speed>0.120000</speed>
<extensions>
<speed>0.1</speed>
<temp>0.00</temp>
<bpm>0</bpm>
<rpm>0.00</rpm>
</extensions>
</trkpt>
<trkpt lat="31.041286469" lon="34.720260620">
<ele>285.109375</ele>
<time>2013-11-20T06:35:14Z</time>
<speed>0.130000</speed>
<extensions>
<speed>0.1</speed>
<temp>0.00</temp>
<bpm>0</bpm>
<rpm>0.00</rpm>
</extensions>
</trkpt>
<trkpt lat="31.041292191" lon="34.720260620">
<ele>285.195313</ele>
<time>2013-11-20T06:35:19Z</time>
<speed>0.120000</speed>
<extensions>
<speed>0.1</speed>
<temp>0.00</temp>
<bpm>0</bpm>
<rpm>0.00</rpm>
</extensions>
</trkpt>
<trkpt lat="31.041297913" lon="34.720256805">
<ele>285.304688</ele>
<time>2013-11-20T06:35:24Z</time>
<speed>0.080000</speed>
<extensions>
<speed>0.1</speed>
<temp>0.00</temp>
<bpm>0</bpm>
<rpm>0.00</rpm>
</extensions>
</trkpt>
<trkpt lat="31.041299820" lon="34.720256805">
<ele>285.453125</ele>
<time>2013-11-20T06:35:29Z</time>
<speed>0.040000</speed>
<extensions>
<speed>0.0</speed>
<temp>0.00</temp>
<bpm>0</bpm>
<rpm>0.00</rpm>
</extensions>
</trkpt>
<trkpt lat="31.041299820" lon="34.720256805">
<ele>285.640625</ele>
<time>2013-11-20T06:35:34Z</time>
<speed>0.030000</speed>
<extensions>
<speed>0.0</speed>
<temp>0.00</temp>
<bpm>0</bpm>
<rpm>0.00</rpm>
</extensions>
</trkpt>
<trkpt lat="31.041299820" lon="34.720256805">
<ele>285.835938</ele>
<time>2013-11-20T06:35:39Z</time>
<speed>0.010000</speed>
<extensions>
<speed>0.0</speed>
<temp>0.00</temp>
<bpm>0</bpm>
<rpm>0.00</rpm>
</extensions>
</trkpt>
<trkpt lat="31.041299820" lon="34.720256805">
<ele>285.828125</ele>
<time>2013-11-20T06:35:44Z</time>
<speed>0.010000</speed>
<extensions>
<speed>0.0</speed>
<temp>0.00</temp>
<bpm>0</bpm>
<rpm>0.00</rpm>
</extensions>
</trkpt>
<trkpt lat="31.041297913" lon="34.720256805">
<ele>285.726563</ele>
<time>2013-11-20T06:35:49Z</time>
<extensions>
<speed>0.0</speed>
<temp>0.00</temp>
<bpm>0</bpm>
<rpm>0.00</rpm>
</extensions>
</trkpt>
<trkpt lat="31.041297913" lon="34.720256805">
<ele>285.718750</ele>
<time>2013-11-20T06:35:54Z</time>
<extensions>
<speed>0.0</speed>
<temp>0.00</temp>
<bpm>0</bpm>
<rpm>0.00</rpm>
</extensions>
</trkpt>
<trkpt lat="31.041299820" lon="34.720256805">
<ele>285.703125</ele>
<time>2013-11-20T06:35:59Z</time>
<speed>0.010000</speed>
<extensions>
<speed>0.0</speed>
<temp>0.00</temp>
<bpm>0</bpm>
<rpm>0.00</rpm>
</extensions>
</trkpt>
<trkpt lat="31.041330338" lon="34.720233917">
<ele>285.796875</ele>
<time>2013-11-20T06:36:04Z</time>
<speed>1.080000</speed>
<extensions>
<speed>1.1</speed>
<temp>0.00</temp>
<bpm>0</bpm>
<rpm>0.00</rpm>
</extensions>
</trkpt>
<trkpt lat="31.041456223" lon="34.720180511">
<ele>285.132813</ele>
<time>2013-11-20T06:36:09Z</time>
<speed>1.380000</speed>
<extensions>
<speed>1.4</speed>
<temp>0.00</temp>
<bpm>0</bpm>
<rpm>0.00</rpm>
</extensions>
</trkpt>
<trkpt lat="31.041591644" lon="34.720199585">
<ele>284.445313</ele>
<time>2013-11-20T06:36:14Z</time>
<speed>3.080000</speed>
<extensions>
<speed>3.1</speed>
<temp>0.00</temp>
<bpm>0</bpm>
<rpm>0.00</rpm>
</extensions>
</trkpt>
<trkpt lat="31.041759491" lon="34.720283508">
<ele>283.078125</ele>
<time>2013-11-20T06:36:19Z</time>
<speed>3.400000</speed>
<extensions>
<speed>3.4</speed>
<temp>0.00</temp>
<bpm>0</bpm>
<rpm>0.00</rpm>
</extensions>
</trkpt>
<trkpt lat="31.041896820" lon="34.720348358">
<ele>282.328125</ele>
<time>2013-11-20T06:36:24Z</time>
<speed>3.010000</speed>
<extensions>
<speed>3.0</speed>
<temp>0.00</temp>
<bpm>0</bpm>
<rpm>0.00</rpm>
</extensions>
</trkpt>
<trkpt lat="31.042024612" lon="34.720428467">
<ele>281.531250</ele>
<time>2013-11-20T06:36:29Z</time>
<speed>2.880000</speed>
<extensions>
<speed>2.9</speed>
<temp>0.00</temp>
<bpm>0</bpm>
<rpm>0.00</rpm>
</extensions>
</trkpt>
<trkpt lat="31.042198181" lon="34.720367432">
<ele>281.375000</ele>
<time>2013-11-20T06:36:34Z</time>
<speed>3.790000</speed>
<extensions>
<speed>3.8</speed>
<temp>0.00</temp>
<bpm>0</bpm>
<rpm>0.00</rpm>
</extensions>
</trkpt>
<trkpt lat="31.042352676" lon="34.720275879">
<ele>280.914063</ele>
<time>2013-11-20T06:36:39Z</time>
<speed>3.040000</speed>
<extensions>
<speed>3.0</speed>
<temp>0.00</temp>
<bpm>0</bpm>
<rpm>0.00</rpm>
</extensions>
</trkpt>
<trkpt lat="31.042518616" lon="34.720127106">
<ele>280.859375</ele>
<time>2013-11-20T06:36:44Z</time>
<speed>4.720000</speed>
<extensions>
<speed>4.7</speed>
<temp>0.00</temp>
<bpm>0</bpm>
<rpm>0.00</rpm>
</extensions>
</trkpt>
<trkpt lat="31.042736053" lon="34.719997406">
<ele>281.531250</ele>
<time>2013-11-20T06:36:49Z</time>
<speed>5.560000</speed>
<extensions>
<speed>5.6</speed>
<temp>0.00</temp>
<bpm>0</bpm>
<rpm>0.00</rpm>
</extensions>
</trkpt>
<trkpt lat="31.042989731" lon="34.719882965">
<ele>281.015625</ele>
<time>2013-11-20T06:36:54Z</time>
<speed>5.890000</speed>
<extensions>
<speed>5.9</speed>
<temp>0.00</temp>
<bpm>0</bpm>
<rpm>0.00</rpm>
</extensions>
</trkpt>
<trkpt lat="31.043212891" lon="34.719787598">
<ele>280.531250</ele>
<time>2013-11-20T06:36:59Z</time>
<speed>4.830000</speed>
<extensions>
<speed>4.8</speed>
<temp>0.00</temp>
<bpm>0</bpm>
<rpm>0.00</rpm>
</extensions>
</trkpt>
<trkpt lat="31.043420792" lon="34.719718933">
<ele>279.257813</ele>
<time>2013-11-20T06:37:04Z</time>
<speed>4.020000</speed>
<extensions>
<speed>4.0</speed>
<temp>0.00</temp>
<bpm>0</bpm>
<rpm>0.00</rpm>
</extensions>
</trkpt>
<trkpt lat="31.043663025" lon="34.719715118">
<ele>277.421875</ele>
<time>2013-11-20T06:37:09Z</time>
<speed>4.840000</speed>
<extensions>
<speed>4.8</speed>
<temp>0.00</temp>
<bpm>0</bpm>
<rpm>0.00</rpm>
</extensions>
</trkpt>
<trkpt lat="31.043893814" lon="34.719821930">
<ele>277.085938</ele>
<time>2013-11-20T06:37:14Z</time>
<speed>5.050000</speed>
<extensions>
<speed>5.1</speed>
<temp>0.00</temp>
<bpm>0</bpm>
<rpm>0.00</rpm>
</extensions>
</trkpt>
<trkpt lat="31.044086456" lon="34.719974518">
<ele>276.468750</ele>
<time>2013-11-20T06:37:19Z</time>
<speed>4.860000</speed>
<extensions>
<speed>4.9</speed>
<temp>0.00</temp>
<bpm>0</bpm>
<rpm>0.00</rpm>
</extensions>
</trkpt>
<trkpt lat="31.044258118" lon="34.720085144">
<ele>274.601563</ele>
<time>2013-11-20T06:37:24Z</time>
<speed>4.540000</speed>
<extensions>
<speed>4.5</speed>
<temp>0.00</temp>
<bpm>0</bpm>
<rpm>0.00</rpm>
</extensions>
</trkpt>
<trkpt lat="31.044445038" lon="34.719959259">
<ele>275.164063</ele>
<time>2013-11-20T06:37:29Z</time>
<speed>4.460000</speed>
<extensions>
<speed>4.5</speed>
<temp>0.00</temp>
<bpm>0</bpm>
<rpm>0.00</rpm>
</extensions>
</trkpt>
<trkpt lat="31.044672012" lon="34.719825745">
<ele>276.070313</ele>
<time>2013-11-20T06:37:34Z</time>
<speed>6.010000</speed>
<extensions>
<speed>6.0</speed>
<temp>0.00</temp>
<bpm>0</bpm>
<rpm>0.00</rpm>
</extensions>
</trkpt>
<trkpt lat="31.044898987" lon="34.719692230">
<ele>276.968750</ele>
<time>2013-11-20T06:37:39Z</time>
<speed>5.480000</speed>
<extensions>
<speed>5.5</speed>
<temp>0.00</temp>
<bpm>0</bpm>
<rpm>0.00</rpm>
</extensions>
</trkpt>
<trkpt lat="31.045101166" lon="34.719532013">
<ele>276.906250</ele>
<time>2013-11-20T06:37:44Z</time>
<speed>4.810000</speed>
<extensions>
<speed>4.8</speed>
<temp>0.00</temp>
<bpm>0</bpm>
<rpm>0.00</rpm>
</extensions>
</trkpt>
<trkpt lat="31.045316696" lon="34.719387054">
<ele>277.476563</ele>
<time>2013-11-20T06:37:49Z</time>
<speed>4.430000</speed>
<extensions>
<speed>4.4</speed>
<temp>0.00</temp>
<bpm>0</bpm>
<rpm>0.00</rpm>
</extensions>
</trkpt>
<trkpt lat="31.045541763" lon="34.719261169">
<ele>278.546875</ele>
<time>2013-11-20T06:37:54Z</time>
<speed>4.570000</speed>
<extensions>
<speed>4.6</speed>
<temp>0.00</temp>
<bpm>0</bpm>
<rpm>0.00</rpm>
</extensions>
</trkpt>
<trkpt lat="31.045715332" lon="34.719127655">
<ele>279.093750</ele>
<time>2013-11-20T06:37:59Z</time>
<speed>3.490000</speed>
<extensions>
<speed>3.5</speed>
<temp>0.00</temp>
<bpm>0</bpm>
<rpm>0.00</rpm>
</extensions>
</trkpt>
<trkpt lat="31.045959473" lon="34.719089508">
<ele>277.929688</ele>
<time>2013-11-20T06:38:04Z</time>
<speed>4.430000</speed>
<extensions>
<speed>4.4</speed>
<temp>0.00</temp>
<bpm>0</bpm>
<rpm>0.00</rpm>
</extensions>
</trkpt>
<trkpt lat="31.046072006" lon="34.719226837">
<ele>277.796875</ele>
<time>2013-11-20T06:38:09Z</time>
<speed>1.720000</speed>
<extensions>
<speed>1.7</speed>
<temp>0.00</temp>
<bpm>0</bpm>
<rpm>0.00</rpm>
</extensions>
</trkpt>
<trkpt lat="31.046037674" lon="34.719165802">
<ele>277.171875</ele>
<time>2013-11-20T06:38:14Z</time>
<speed>2.650000</speed>
<extensions>
<speed>2.6</speed>
<temp>0.00</temp>
<bpm>0</bpm>
<rpm>0.00</rpm>
</extensions>
</trkpt>
<trkpt lat="31.045984268" lon="34.718990326">
<ele>277.125000</ele>
<time>2013-11-20T06:38:19Z</time>
<speed>4.120000</speed>
<extensions>
<speed>4.1</speed>
<temp>0.00</temp>
<bpm>0</bpm>
<rpm>0.00</rpm>
</extensions>
</trkpt>
<trkpt lat="31.045913696" lon="34.718772888">
<ele>276.328125</ele>
<time>2013-11-20T06:38:24Z</time>
<speed>4.570000</speed>
<extensions>
<speed>4.6</speed>
<temp>0.00</temp>
<bpm>0</bpm>
<rpm>0.00</rpm>
</extensions>
</trkpt>
<trkpt lat="31.045814514" lon="34.718547821">
<ele>275.796875</ele>
<time>2013-11-20T06:38:29Z</time>
<speed>5.080000</speed>
<extensions>
<speed>5.1</speed>
<temp>0.00</temp>
<bpm>0</bpm>
<rpm>0.00</rpm>
</extensions>
</trkpt>
<trkpt lat="31.045705795" lon="34.718326569">
<ele>275.562500</ele>
<time>2013-11-20T06:38:34Z</time>
<speed>4.020000</speed>
<extensions>
<speed>4.0</speed>
<temp>0.00</temp>
<bpm>0</bpm>
<rpm>0.00</rpm>
</extensions>
</trkpt>
<trkpt lat="31.045566559" lon="34.718185425">
<ele>274.804688</ele>
<time>2013-11-20T06:38:39Z</time>
<speed>4.910000</speed>
<extensions>
<speed>4.9</speed>
<temp>0.00</temp>
<bpm>0</bpm>
<rpm>0.00</rpm>
</extensions>
</trkpt>
<trkpt lat="31.045452118" lon="34.717998505">
<ele>273.429688</ele>
<time>2013-11-20T06:38:44Z</time>
<speed>4.870000</speed>
<extensions>
<speed>4.9</speed>
<temp>0.00</temp>
<bpm>0</bpm>
<rpm>0.00</rpm>
</extensions>
</trkpt>
<trkpt lat="31.045352936" lon="34.717800140">
<ele>273.234375</ele>
<time>2013-11-20T06:38:49Z</time>
<speed>3.720000</speed>
<extensions>
<speed>3.7</speed>
<temp>0.00</temp>
<bpm>0</bpm>
<rpm>0.00</rpm>
</extensions>
</trkpt>
<trkpt lat="31.045299530" lon="34.717685699">
<ele>273.187500</ele>
<time>2013-11-20T06:38:54Z</time>
<speed>1.530000</speed>
<extensions>
<speed>1.5</speed>
<temp>0.00</temp>
<bpm>0</bpm>
<rpm>0.00</rpm>
</extensions>
</trkpt>
<trkpt lat="31.045272827" lon="34.717632294">
<ele>273.750000</ele>
<time>2013-11-20T06:38:59Z</time>
<speed>0.370000</speed>
<extensions>
<speed>0.4</speed>
<temp>0.00</temp>
<bpm>0</bpm>
<rpm>0.00</rpm>
</extensions>
</trkpt>
<trkpt lat="31.045274734" lon="34.717632294">
<ele>273.640625</ele>
<time>2013-11-20T06:39:04Z</time>
<speed>0.030000</speed>
<extensions>
<speed>0.0</speed>
<temp>0.00</temp>
<bpm>0</bpm>
<rpm>0.00</rpm>
</extensions>
</trkpt>
<trkpt lat="31.045272827" lon="34.717632294">
<ele>273.703125</ele>
<time>2013-11-20T06:39:09Z</time>
<speed>0.010000</speed>
<extensions>
<speed>0.0</speed>
<temp>0.00</temp>
<bpm>0</bpm>
<rpm>0.00</rpm>
</extensions>
</trkpt>
<trkpt lat="31.045272827" lon="34.717632294">
<ele>273.703125</ele>
<time>2013-11-20T06:39:14Z</time>
<speed>0.040000</speed>
<extensions>
<speed>0.0</speed>
<temp>0.00</temp>
<bpm>0</bpm>
<rpm>0.00</rpm>
</extensions>
</trkpt>
<trkpt lat="31.045269012" lon="34.717632294">
<ele>273.882813</ele>
<time>2013-11-20T06:39:19Z</time>
<speed>0.190000</speed>
<extensions>
<speed>0.2</speed>
<temp>0.00</temp>
<bpm>0</bpm>
<rpm>0.00</rpm>
</extensions>
</trkpt>
<trkpt lat="31.045265198" lon="34.717628479">
<ele>273.906250</ele>
<time>2013-11-20T06:39:24Z</time>
<speed>0.010000</speed>
<extensions>
<speed>0.0</speed>
<temp>0.00</temp>
<bpm>0</bpm>
<rpm>0.00</rpm>
</extensions>
</trkpt>
<trkpt lat="31.045267105" lon="34.717632294">
<ele>273.921875</ele>
<time>2013-11-20T06:39:29Z</time>
<speed>0.100000</speed>
<extensions>
<speed>0.1</speed>
<temp>0.00</temp>
<bpm>0</bpm>
<rpm>0.00</rpm>
</extensions>
</trkpt>
<trkpt lat="31.045269012" lon="34.717632294">
<ele>273.890625</ele>
<time>2013-11-20T06:39:34Z</time>
<speed>0.040000</speed>
<extensions>
<speed>0.0</speed>
<temp>0.00</temp>
<bpm>0</bpm>
<rpm>0.00</rpm>
</extensions>
</trkpt>
<trkpt lat="31.045269012" lon="34.717632294">
<ele>273.859375</ele>
<time>2013-11-20T06:39:39Z</time>
<extensions>
<speed>0.0</speed>
<temp>0.00</temp>
<bpm>0</bpm>
<rpm>0.00</rpm>
</extensions>
</trkpt>
<trkpt lat="31.045269012" lon="34.717636108">
<ele>273.875000</ele>
<time>2013-11-20T06:39:44Z</time>
<speed>0.010000</speed>
<extensions>
<speed>0.0</speed>
<temp>0.00</temp>
<bpm>0</bpm>
<rpm>0.00</rpm>
</extensions>
</trkpt>
<trkpt lat="31.045263290" lon="34.717617035">
<ele>273.984375</ele>
<time>2013-11-20T06:39:49Z</time>
<speed>1.500000</speed>
<extensions>
<speed>1.5</speed>
<temp>0.00</temp>
<bpm>0</bpm>
<rpm>0.00</rpm>
</extensions>
</trkpt>
<trkpt lat="31.045206070" lon="34.717525482">
<ele>274.695313</ele>
<time>2013-11-20T06:39:54Z</time>
<speed>1.790000</speed>
<extensions>
<speed>1.8</speed>
<temp>0.00</temp>
<bpm>0</bpm>
<rpm>0.00</rpm>
</extensions>
</trkpt>
<trkpt lat="31.045152664" lon="34.717437744">
<ele>275.687500</ele>
<time>2013-11-20T06:39:59Z</time>
<speed>2.030000</speed>
<extensions>
<speed>2.0</speed>
<temp>0.00</temp>
<bpm>0</bpm>
<rpm>0.00</rpm>
</extensions>
</trkpt>
<trkpt lat="31.045103073" lon="34.717361450">
<ele>276.687500</ele>
<time>2013-11-20T06:40:04Z</time>
<speed>1.400000</speed>
<extensions>
<speed>1.4</speed>
<temp>0.00</temp>
<bpm>0</bpm>
<rpm>0.00</rpm>
</extensions>
</trkpt>
<trkpt lat="31.045084000" lon="34.717342377">
<ele>276.929688</ele>
<time>2013-11-20T06:40:09Z</time>
<speed>0.960000</speed>
<extensions>
<speed>1.0</speed>
<temp>0.00</temp>
<bpm>0</bpm>
<rpm>0.00</rpm>
</extensions>
</trkpt>
<trkpt lat="31.045051575" lon="34.717304230">
<ele>277.093750</ele>
<time>2013-11-20T06:40:14Z</time>
<speed>1.690000</speed>
<extensions>
<speed>1.7</speed>
<temp>0.00</temp>
<bpm>0</bpm>
<rpm>0.00</rpm>
</extensions>
</trkpt>
<trkpt lat="31.045001984" lon="34.717212677">
<ele>276.906250</ele>
<time>2013-11-20T06:40:19Z</time>
<speed>2.110000</speed>
<extensions>
<speed>2.1</speed>
<temp>0.00</temp>
<bpm>0</bpm>
<rpm>0.00</rpm>
</extensions>
</trkpt>
<trkpt lat="31.044958115" lon="34.717132568">
<ele>275.976563</ele>
<time>2013-11-20T06:40:24Z</time>
<speed>1.940000</speed>
<extensions>
<speed>1.9</speed>
<temp>0.00</temp>
<bpm>0</bpm>
<rpm>0.00</rpm>
</extensions>
</trkpt>
<trkpt lat="31.044946671" lon="34.717071533">
<ele>275.281250</ele>
<time>2013-11-20T06:40:29Z</time>
<speed>0.250000</speed>
<extensions>
<speed>0.2</speed>
<temp>0.00</temp>
<bpm>0</bpm>
<rpm>0.00</rpm>
</extensions>
</trkpt>
<trkpt lat="31.044946671" lon="34.717052460">
<ele>275.156250</ele>
<time>2013-11-20T06:40:34Z</time>
<speed>0.100000</speed>
<extensions>
<speed>0.1</speed>
<temp>0.00</temp>
<bpm>0</bpm>
<rpm>0.00</rpm>
</extensions>
</trkpt>
<trkpt lat="31.044946671" lon="34.717052460">
<ele>274.593750</ele>
<time>2013-11-20T06:40:39Z</time>
<speed>0.030000</speed>
<extensions>
<speed>0.0</speed>
<temp>0.00</temp>
<bpm>0</bpm>
<rpm>0.00</rpm>
</extensions>
</trkpt>
<trkpt lat="31.044944763" lon="34.717052460">
<ele>274.039063</ele>
<time>2013-11-20T06:40:44Z</time>
<speed>0.070000</speed>
<extensions>
<speed>0.1</speed>
<temp>0.00</temp>
<bpm>0</bpm>
<rpm>0.00</rpm>
</extensions>
</trkpt>
<trkpt lat="31.044940948" lon="34.717052460">
<ele>273.484375</ele>
<time>2013-11-20T06:40:49Z</time>
<speed>0.130000</speed>
<extensions>
<speed>0.1</speed>
<temp>0.00</temp>
<bpm>0</bpm>
<rpm>0.00</rpm>
</extensions>
</trkpt>
<trkpt lat="31.044940948" lon="34.717056274">
<ele>273.179688</ele>
<time>2013-11-20T06:40:54Z</time>
<speed>0.010000</speed>
<extensions>
<speed>0.0</speed>
<temp>0.00</temp>
<bpm>0</bpm>
<rpm>0.00</rpm>
</extensions>
</trkpt>
<trkpt lat="31.044939041" lon="34.717056274">
<ele>273.109375</ele>
<time>2013-11-20T06:40:59Z</time>
<speed>0.080000</speed>
<extensions>
<speed>0.1</speed>
<temp>0.00</temp>
<bpm>0</bpm>
<rpm>0.00</rpm>
</extensions>
</trkpt>
<trkpt lat="31.044939041" lon="34.717056274">
<ele>273.109375</ele>
<time>2013-11-20T06:41:04Z</time>
<speed>0.010000</speed>
<extensions>
<speed>0.0</speed>
<temp>0.00</temp>
<bpm>0</bpm>
<rpm>0.00</rpm>
</extensions>
</trkpt>
<trkpt lat="31.044931412" lon="34.717044830">
<ele>272.960938</ele>
<time>2013-11-20T06:41:09Z</time>
<speed>0.780000</speed>
<extensions>
<speed>0.8</speed>
<temp>0.00</temp>
<bpm>0</bpm>
<rpm>0.00</rpm>
</extensions>
</trkpt>
<trkpt lat="31.044906616" lon="34.716964722">
<ele>272.304688</ele>
<time>2013-11-20T06:41:14Z</time>
<speed>1.230000</speed>
<extensions>
<speed>1.2</speed>
<temp>0.00</temp>
<bpm>0</bpm>
<rpm>0.00</rpm>
</extensions>
</trkpt>
<trkpt lat="31.044855118" lon="34.716918945">
<ele>272.265625</ele>
<time>2013-11-20T06:41:19Z</time>
<speed>1.980000</speed>
<extensions>
<speed>2.0</speed>
<temp>0.00</temp>
<bpm>0</bpm>
<rpm>0.00</rpm>
</extensions>
</trkpt>
<trkpt lat="31.044763565" lon="34.716880798">
<ele>272.515625</ele>
<time>2013-11-20T06:41:24Z</time>
<speed>1.740000</speed>
<extensions>
<speed>1.7</speed>
<temp>0.00</temp>
<bpm>0</bpm>
<rpm>0.00</rpm>
</extensions>
</trkpt>
<trkpt lat="31.044683456" lon="34.716857910">
<ele>272.976563</ele>
<time>2013-11-20T06:41:29Z</time>
<speed>2.050000</speed>
<extensions>
<speed>2.1</speed>
<temp>0.00</temp>
<bpm>0</bpm>
<rpm>0.00</rpm>
</extensions>
</trkpt>
<trkpt lat="31.044595718" lon="34.716846466">
<ele>273.593750</ele>
<time>2013-11-20T06:41:34Z</time>
<speed>1.850000</speed>
<extensions>
<speed>1.8</speed>
<temp>0.00</temp>
<bpm>0</bpm>
<rpm>0.00</rpm>
</extensions>
</trkpt>
<trkpt lat="31.044494629" lon="34.716831207">
<ele>274.437500</ele>
<time>2013-11-20T06:41:39Z</time>
<speed>2.440000</speed>
<extensions>
<speed>2.4</speed>
<temp>0.00</temp>
<bpm>0</bpm>
<rpm>0.00</rpm>
</extensions>
</trkpt>
<trkpt lat="31.044389725" lon="34.716907501">
<ele>275.554688</ele>
<time>2013-11-20T06:41:44Z</time>
<speed>2.870000</speed>
<extensions>
<speed>2.9</speed>
<temp>0.00</temp>
<bpm>0</bpm>
<rpm>0.00</rpm>
</extensions>
</trkpt>
<trkpt lat="31.044305801" lon="34.717014313">
<ele>276.828125</ele>
<time>2013-11-20T06:41:49Z</time>
<speed>2.130000</speed>
<extensions>
<speed>2.1</speed>
<temp>0.00</temp>
<bpm>0</bpm>
<rpm>0.00</rpm>
</extensions>
</trkpt>
<trkpt lat="31.044250488" lon="34.717082977">
<ele>278.117188</ele>
<time>2013-11-20T06:41:54Z</time>
<speed>1.910000</speed>
<extensions>
<speed>1.9</speed>
<temp>0.00</temp>
<bpm>0</bpm>
<rpm>0.00</rpm>
</extensions>
</trkpt>
<trkpt lat="31.044166565" lon="34.717117310">
<ele>279.960938</ele>
<time>2013-11-20T06:41:59Z</time>
<speed>1.500000</speed>
<extensions>
<speed>1.5</speed>
<temp>0.00</temp>
<bpm>0</bpm>
<rpm>0.00</rpm>
</extensions>
</trkpt>
<trkpt lat="31.044179916" lon="34.717197418">
<ele>281.921875</ele>
<time>2013-11-20T06:42:04Z</time>
<speed>1.750000</speed>
<extensions>
<speed>1.8</speed>
<temp>0.00</temp>
<bpm>0</bpm>
<rpm>0.00</rpm>
</extensions>
</trkpt>
<trkpt lat="31.044242859" lon="34.717304230">
<ele>283.234375</ele>
<time>2013-11-20T06:42:09Z</time>
<speed>2.040000</speed>
<extensions>
<speed>2.0</speed>
<temp>0.00</temp>
<bpm>0</bpm>
<rpm>0.00</rpm>
</extensions>
</trkpt>
<trkpt lat="31.044296265" lon="34.717403412">
<ele>283.953125</ele>
<time>2013-11-20T06:42:14Z</time>
<speed>1.740000</speed>
<extensions>
<speed>1.7</speed>
<temp>0.00</temp>
<bpm>0</bpm>
<rpm>0.00</rpm>
</extensions>
</trkpt>
<trkpt lat="31.044378281" lon="34.717494965">
<ele>285.484375</ele>
<time>2013-11-20T06:42:19Z</time>
<speed>2.790000</speed>
<extensions>
<speed>2.8</speed>
<temp>0.00</temp>
<bpm>0</bpm>
<rpm>0.00</rpm>
</extensions>
</trkpt>
<trkpt lat="31.044393539" lon="34.717609406">
<ele>286.687500</ele>
<time>2013-11-20T06:42:24Z</time>
<speed>2.000000</speed>
<extensions>
<speed>2.0</speed>
<temp>0.00</temp>
<bpm>0</bpm>
<rpm>0.00</rpm>
</extensions>
</trkpt>
<trkpt lat="31.044355392" lon="34.717647552">
<ele>287.429688</ele>
<time>2013-11-20T06:42:29Z</time>
<speed>0.370000</speed>
<extensions>
<speed>0.4</speed>
<temp>0.00</temp>
<bpm>0</bpm>
<rpm>0.00</rpm>
</extensions>
</trkpt>
<trkpt lat="31.044347763" lon="34.717647552">
<ele>288.117188</ele>
<time>2013-11-20T06:42:34Z</time>
<speed>0.110000</speed>
<extensions>
<speed>0.1</speed>
<temp>0.00</temp>
<bpm>0</bpm>
<rpm>0.00</rpm>
</extensions>
</trkpt>
<trkpt lat="31.044349670" lon="34.717655182">
<ele>289.164063</ele>
<time>2013-11-20T06:42:39Z</time>
<speed>0.150000</speed>
<extensions>
<speed>0.2</speed>
<temp>0.00</temp>
<bpm>0</bpm>
<rpm>0.00</rpm>
</extensions>
</trkpt>
<trkpt lat="31.044353485" lon="34.717662811">
<ele>290.171875</ele>
<time>2013-11-20T06:42:44Z</time>
<speed>0.120000</speed>
<extensions>
<speed>0.1</speed>
<temp>0.00</temp>
<bpm>0</bpm>
<rpm>0.00</rpm>
</extensions>
</trkpt>
<trkpt lat="31.044347763" lon="34.717666626">
<ele>291.156250</ele>
<time>2013-11-20T06:42:49Z</time>
<speed>0.140000</speed>
<extensions>
<speed>0.1</speed>
<temp>0.00</temp>
<bpm>0</bpm>
<rpm>0.00</rpm>
</extensions>
</trkpt>
<trkpt lat="31.044342041" lon="34.717670441">
<ele>292.148438</ele>
<time>2013-11-20T06:42:54Z</time>
<speed>0.160000</speed>
<extensions>
<speed>0.2</speed>
<temp>0.00</temp>
<bpm>0</bpm>
<rpm>0.00</rpm>
</extensions>
</trkpt>
<trkpt lat="31.044332504" lon="34.717670441">
<ele>293.101563</ele>
<time>2013-11-20T06:42:59Z</time>
<speed>0.230000</speed>
<extensions>
<speed>0.2</speed>
<temp>0.00</temp>
<bpm>0</bpm>
<rpm>0.00</rpm>
</extensions>
</trkpt>
<trkpt lat="31.044321060" lon="34.717662811">
<ele>293.976563</ele>
<time>2013-11-20T06:43:04Z</time>
<speed>0.270000</speed>
<extensions>
<speed>0.3</speed>
<temp>0.00</temp>
<bpm>0</bpm>
<rpm>0.00</rpm>
</extensions>
</trkpt>
<trkpt lat="31.044343948" lon="34.717685699">
<ele>293.445313</ele>
<time>2013-11-20T06:43:09Z</time>
<speed>0.370000</speed>
<extensions>
<speed>0.4</speed>
<temp>0.00</temp>
<bpm>0</bpm>
<rpm>0.00</rpm>
</extensions>
</trkpt>
<trkpt lat="31.044427872" lon="34.717712402">
<ele>292.695313</ele>
<time>2013-11-20T06:43:14Z</time>
<speed>2.870000</speed>
<extensions>
<speed>2.9</speed>
<temp>0.00</temp>
<bpm>0</bpm>
<rpm>0.00</rpm>
</extensions>
</trkpt>
<trkpt lat="31.044578552" lon="34.717704773">
<ele>291.687500</ele>
<time>2013-11-20T06:43:19Z</time>
<speed>3.030000</speed>
<extensions>
<speed>3.0</speed>
<temp>0.00</temp>
<bpm>0</bpm>
<rpm>0.00</rpm>
</extensions>
</trkpt>
<trkpt lat="31.044670105" lon="34.717674255">
<ele>290.414063</ele>
<time>2013-11-20T06:43:24Z</time>
<speed>1.290000</speed>
<extensions>
<speed>1.3</speed>
<temp>0.00</temp>
<bpm>0</bpm>
<rpm>0.00</rpm>
</extensions>
</trkpt>
<trkpt lat="31.044672012" lon="34.717708588">
<ele>288.820313</ele>
<time>2013-11-20T06:43:29Z</time>
<speed>0.120000</speed>
<extensions>
<speed>0.1</speed>
<temp>0.00</temp>
<bpm>0</bpm>
<rpm>0.00</rpm>
</extensions>
</trkpt>
<trkpt lat="31.044672012" lon="34.717704773">
<ele>288.710938</ele>
<time>2013-11-20T06:43:34Z</time>
<speed>0.140000</speed>
<extensions>
<speed>0.1</speed>
<temp>0.00</temp>
<bpm>0</bpm>
<rpm>0.00</rpm>
</extensions>
</trkpt>
<trkpt lat="31.044666290" lon="34.717708588">
<ele>288.648438</ele>
<time>2013-11-20T06:43:39Z</time>
<speed>0.530000</speed>
<extensions>
<speed>0.5</speed>
<temp>0.00</temp>
<bpm>0</bpm>
<rpm>0.00</rpm>
</extensions>
</trkpt>
<trkpt lat="31.044702530" lon="34.717666626">
<ele>287.875000</ele>
<time>2013-11-20T06:43:44Z</time>
<speed>0.190000</speed>
<extensions>
<speed>0.2</speed>
<temp>0.00</temp>
<bpm>0</bpm>
<rpm>0.00</rpm>
</extensions>
</trkpt>
<trkpt lat="31.044692993" lon="34.717666626">
<ele>286.921875</ele>
<time>2013-11-20T06:43:49Z</time>
<speed>0.170000</speed>
<extensions>
<speed>0.2</speed>
<temp>0.00</temp>
<bpm>0</bpm>
<rpm>0.00</rpm>
</extensions>
</trkpt>
<trkpt lat="31.044656754" lon="34.717636108">
<ele>285.171875</ele>
<time>2013-11-20T06:43:54Z</time>
<speed>2.230000</speed>
<extensions>
<speed>2.2</speed>
<temp>0.00</temp>
<bpm>0</bpm>
<rpm>0.00</rpm>
</extensions>
</trkpt>
<trkpt lat="31.044576645" lon="34.717727661">
<ele>284.515625</ele>
<time>2013-11-20T06:43:59Z</time>
<speed>2.890000</speed>
<extensions>
<speed>2.9</speed>
<temp>0.00</temp>
<bpm>0</bpm>
<rpm>0.00</rpm>
</extensions>
</trkpt>
<trkpt lat="31.044498444" lon="34.717861176">
<ele>282.773438</ele>
<time>2013-11-20T06:44:04Z</time>
<speed>2.680000</speed>
<extensions>
<speed>2.7</speed>
<temp>0.00</temp>
<bpm>0</bpm>
<rpm>0.00</rpm>
</extensions>
</trkpt>
<trkpt lat="31.044458389" lon="34.717998505">
<ele>281.335938</ele>
<time>2013-11-20T06:44:09Z</time>
<speed>2.350000</speed>
<extensions>
<speed>2.4</speed>
<temp>0.00</temp>
<bpm>0</bpm>
<rpm>0.00</rpm>
</extensions>
</trkpt>
<trkpt lat="31.044452667" lon="34.718162537">
<ele>280.578125</ele>
<time>2013-11-20T06:44:14Z</time>
<speed>3.590000</speed>
<extensions>
<speed>3.6</speed>
<temp>0.00</temp>
<bpm>0</bpm>
<rpm>0.00</rpm>
</extensions>
</trkpt>
<trkpt lat="31.044395447" lon="34.718433380">
<ele>279.289063</ele>
<time>2013-11-20T06:44:19Z</time>
<speed>6.220000</speed>
<extensions>
<speed>6.2</speed>
<temp>0.00</temp>
<bpm>0</bpm>
<rpm>0.00</rpm>
</extensions>
</trkpt>
<trkpt lat="31.044309616" lon="34.718784332">
<ele>275.710938</ele>
<time>2013-11-20T06:44:24Z</time>
<speed>6.810000</speed>
<extensions>
<speed>6.8</speed>
<temp>0.00</temp>
<bpm>0</bpm>
<rpm>0.00</rpm>
</extensions>
</trkpt>
<trkpt lat="31.044187546" lon="34.719116211">
<ele>274.710938</ele>
<time>2013-11-20T06:44:29Z</time>
<speed>6.700000</speed>
<extensions>
<speed>6.7</speed>
<temp>0.00</temp>
<bpm>0</bpm>
<rpm>0.00</rpm>
</extensions>
</trkpt>
<trkpt lat="31.044116974" lon="34.719436646">
<ele>273.046875</ele>
<time>2013-11-20T06:44:34Z</time>
<speed>5.800000</speed>
<extensions>
<speed>5.8</speed>
<temp>0.00</temp>
<bpm>0</bpm>
<rpm>0.00</rpm>
</extensions>
</trkpt>
<trkpt lat="31.044103622" lon="34.719718933">
<ele>272.406250</ele>
<time>2013-11-20T06:44:39Z</time>
<speed>5.220000</speed>
<extensions>
<speed>5.2</speed>
<temp>0.00</temp>
<bpm>0</bpm>
<rpm>0.00</rpm>
</extensions>
</trkpt>
<trkpt lat="31.044027328" lon="34.719905853">
<ele>270.476563</ele>
<time>2013-11-20T06:44:44Z</time>
<speed>3.310000</speed>
<extensions>
<speed>3.3</speed>
<temp>0.00</temp>
<bpm>0</bpm>
<rpm>0.00</rpm>
</extensions>
</trkpt>
<trkpt lat="31.043838501" lon="34.719810486">
<ele>270.421875</ele>
<time>2013-11-20T06:44:49Z</time>
<speed>5.060000</speed>
<extensions>
<speed>5.1</speed>
<temp>0.00</temp>
<bpm>0</bpm>
<rpm>0.00</rpm>
</extensions>
</trkpt>
<trkpt lat="31.043645859" lon="34.719692230">
<ele>272.156250</ele>
<time>2013-11-20T06:44:54Z</time>
<speed>4.690000</speed>
<extensions>
<speed>4.7</speed>
<temp>0.00</temp>
<bpm>0</bpm>
<rpm>0.00</rpm>
</extensions>
</trkpt>
<trkpt lat="31.043420792" lon="34.719703674">
<ele>272.828125</ele>
<time>2013-11-20T06:44:59Z</time>
<speed>4.750000</speed>
<extensions>
<speed>4.8</speed>
<temp>0.00</temp>
<bpm>0</bpm>
<rpm>0.00</rpm>
</extensions>
</trkpt>
<trkpt lat="31.043214798" lon="34.719768524">
<ele>272.148438</ele>
<time>2013-11-20T06:45:04Z</time>
<speed>4.590000</speed>
<extensions>
<speed>4.6</speed>
<temp>0.00</temp>
<bpm>0</bpm>
<rpm>0.00</rpm>
</extensions>
</trkpt>
<trkpt lat="31.043024063" lon="34.719879150">
<ele>271.093750</ele>
<time>2013-11-20T06:45:09Z</time>
<speed>4.580000</speed>
<extensions>
<speed>4.6</speed>
<temp>0.00</temp>
<bpm>0</bpm>
<rpm>0.00</rpm>
</extensions>
</trkpt>
<trkpt lat="31.042835236" lon="34.719966888">
<ele>268.875000</ele>
<time>2013-11-20T06:45:14Z</time>
<speed>4.600000</speed>
<extensions>
<speed>4.6</speed>
<temp>0.00</temp>
<bpm>0</bpm>
<rpm>0.00</rpm>
</extensions>
</trkpt>
<trkpt lat="31.042657852" lon="34.720062256">
<ele>269.382813</ele>
<time>2013-11-20T06:45:19Z</time>
<speed>4.030000</speed>
<extensions>
<speed>4.0</speed>
<temp>0.00</temp>
<bpm>0</bpm>
<rpm>0.00</rpm>
</extensions>
</trkpt>
<trkpt lat="31.042493820" lon="34.720153809">
<ele>269.757813</ele>
<time>2013-11-20T06:45:24Z</time>
<speed>3.840000</speed>
<extensions>
<speed>3.8</speed>
<temp>0.00</temp>
<bpm>0</bpm>
<rpm>0.00</rpm>
</extensions>
</trkpt>
<trkpt lat="31.042377472" lon="34.720233917">
<ele>271.492188</ele>
<time>2013-11-20T06:45:29Z</time>
<speed>1.880000</speed>
<extensions>
<speed>1.9</speed>
<temp>0.00</temp>
<bpm>0</bpm>
<rpm>0.00</rpm>
</extensions>
</trkpt>
<trkpt lat="31.042266846" lon="34.720180511">
<ele>272.992188</ele>
<time>2013-11-20T06:45:34Z</time>
<speed>3.860000</speed>
<extensions>
<speed>3.9</speed>
<temp>0.00</temp>
<bpm>0</bpm>
<rpm>0.00</rpm>
</extensions>
</trkpt>
<trkpt lat="31.042095184" lon="34.720073700">
<ele>271.984375</ele>
<time>2013-11-20T06:45:39Z</time>
<speed>4.560000</speed>
<extensions>
<speed>4.6</speed>
<temp>0.00</temp>
<bpm>0</bpm>
<rpm>0.00</rpm>
</extensions>
</trkpt>
<trkpt lat="31.041889191" lon="34.719944000">
<ele>272.015625</ele>
<time>2013-11-20T06:45:44Z</time>
<speed>4.830000</speed>
<extensions>
<speed>4.8</speed>
<temp>0.00</temp>
<bpm>0</bpm>
<rpm>0.00</rpm>
</extensions>
</trkpt>
<trkpt lat="31.041725159" lon="34.719825745">
<ele>271.843750</ele>
<time>2013-11-20T06:45:49Z</time>
<speed>4.940000</speed>
<extensions>
<speed>4.9</speed>
<temp>0.00</temp>
<bpm>0</bpm>
<rpm>0.00</rpm>
</extensions>
</trkpt>
<trkpt lat="31.041532516" lon="34.719699860">
<ele>272.968750</ele>
<time>2013-11-20T06:45:54Z</time>
<speed>4.400000</speed>
<extensions>
<speed>4.4</speed>
<temp>0.00</temp>
<bpm>0</bpm>
<rpm>0.00</rpm>
</extensions>
</trkpt>
<trkpt lat="31.041341782" lon="34.719612122">
<ele>272.328125</ele>
<time>2013-11-20T06:45:59Z</time>
<speed>3.530000</speed>
<extensions>
<speed>3.5</speed>
<temp>0.00</temp>
<bpm>0</bpm>
<rpm>0.00</rpm>
</extensions>
</trkpt>
<trkpt lat="31.041208267" lon="34.719757080">
<ele>270.578125</ele>
<time>2013-11-20T06:46:04Z</time>
<speed>3.930000</speed>
<extensions>
<speed>3.9</speed>
<temp>0.00</temp>
<bpm>0</bpm>
<rpm>0.00</rpm>
</extensions>
</trkpt>
<trkpt lat="31.041103363" lon="34.719932556">
<ele>269.492188</ele>
<time>2013-11-20T06:46:09Z</time>
<speed>3.920000</speed>
<extensions>
<speed>3.9</speed>
<temp>0.00</temp>
<bpm>0</bpm>
<rpm>0.00</rpm>
</extensions>
</trkpt>
<trkpt lat="31.041025162" lon="34.720088959">
<ele>269.140625</ele>
<time>2013-11-20T06:46:14Z</time>
<speed>2.790000</speed>
<extensions>
<speed>2.8</speed>
<temp>0.00</temp>
<bpm>0</bpm>
<rpm>0.00</rpm>
</extensions>
</trkpt>
<trkpt lat="31.040975571" lon="34.720176697">
<ele>267.515625</ele>
<time>2013-11-20T06:46:19Z</time>
<speed>1.150000</speed>
<extensions>
<speed>1.1</speed>
<temp>0.00</temp>
<bpm>0</bpm>
<rpm>0.00</rpm>
</extensions>
</trkpt>
<trkpt lat="31.040931702" lon="34.720226288">
<ele>267.593750</ele>
<time>2013-11-20T06:46:24Z</time>
<speed>0.850000</speed>
<extensions>
<speed>0.8</speed>
<temp>0.00</temp>
<bpm>0</bpm>
<rpm>0.00</rpm>
</extensions>
</trkpt>
<trkpt lat="31.040925980" lon="34.720237732">
<ele>267.328125</ele>
<time>2013-11-20T06:46:29Z</time>
<speed>0.160000</speed>
<extensions>
<speed>0.2</speed>
<temp>0.00</temp>
<bpm>0</bpm>
<rpm>0.00</rpm>
</extensions>
</trkpt>
<trkpt lat="31.040925980" lon="34.720237732">
<ele>267.203125</ele>
<time>2013-11-20T06:46:34Z</time>
<extensions>
<speed>0.0</speed>
<temp>0.00</temp>
<bpm>0</bpm>
<rpm>0.00</rpm>
</extensions>
</trkpt>
<trkpt lat="31.040925980" lon="34.720237732">
<ele>267.218750</ele>
<time>2013-11-20T06:46:39Z</time>
<speed>0.010000</speed>
<extensions>
<speed>0.0</speed>
<temp>0.00</temp>
<bpm>0</bpm>
<rpm>0.00</rpm>
</extensions>
</trkpt>
<trkpt lat="31.040925980" lon="34.720233917">
<ele>267.093750</ele>
<time>2013-11-20T06:46:44Z</time>
<speed>0.120000</speed>
<extensions>
<speed>0.1</speed>
<temp>0.00</temp>
<bpm>0</bpm>
<rpm>0.00</rpm>
</extensions>
</trkpt>
<trkpt lat="31.040925980" lon="34.720230103">
<ele>266.914063</ele>
<time>2013-11-20T06:46:49Z</time>
<speed>0.030000</speed>
<extensions>
<speed>0.0</speed>
<temp>0.00</temp>
<bpm>0</bpm>
<rpm>0.00</rpm>
</extensions>
</trkpt>
<trkpt lat="31.040925980" lon="34.720233917">
<ele>266.828125</ele>
<time>2013-11-20T06:46:54Z</time>
<speed>0.020000</speed>
<extensions>
<speed>0.0</speed>
<temp>0.00</temp>
<bpm>0</bpm>
<rpm>0.00</rpm>
</extensions>
</trkpt>
<trkpt lat="31.040922165" lon="34.720241547">
<ele>266.875000</ele>
<time>2013-11-20T06:46:59Z</time>
<speed>0.790000</speed>
<extensions>
<speed>0.8</speed>
<temp>0.00</temp>
<bpm>0</bpm>
<rpm>0.00</rpm>
</extensions>
</trkpt>
<trkpt lat="31.040878296" lon="34.720287323">
<ele>266.632813</ele>
<time>2013-11-20T06:47:04Z</time>
<speed>1.620000</speed>
<extensions>
<speed>1.6</speed>
<temp>0.00</temp>
<bpm>0</bpm>
<rpm>0.00</rpm>
</extensions>
</trkpt>
<trkpt lat="31.040836334" lon="34.720359802">
<ele>266.250000</ele>
<time>2013-11-20T06:47:09Z</time>
<speed>1.940000</speed>
<extensions>
<speed>1.9</speed>
<temp>0.00</temp>
<bpm>0</bpm>
<rpm>0.00</rpm>
</extensions>
</trkpt>
<trkpt lat="31.040771484" lon="34.720451355">
<ele>266.242188</ele>
<time>2013-11-20T06:47:14Z</time>
<speed>2.350000</speed>
<extensions>
<speed>2.4</speed>
<temp>0.00</temp>
<bpm>0</bpm>
<rpm>0.00</rpm>
</extensions>
</trkpt>
<trkpt lat="31.040704727" lon="34.720561981">
<ele>266.007813</ele>
<time>2013-11-20T06:47:19Z</time>
<speed>2.930000</speed>
<extensions>
<speed>2.9</speed>
<temp>0.00</temp>
<bpm>0</bpm>
<rpm>0.00</rpm>
</extensions>
</trkpt>
<trkpt lat="31.040620804" lon="34.720695496">
<ele>266.171875</ele>
<time>2013-11-20T06:47:24Z</time>
<speed>3.370000</speed>
<extensions>
<speed>3.4</speed>
<temp>0.00</temp>
<bpm>0</bpm>
<rpm>0.00</rpm>
</extensions>
</trkpt>
<trkpt lat="31.040523529" lon="34.720851898">
<ele>265.828125</ele>
<time>2013-11-20T06:47:29Z</time>
<speed>3.530000</speed>
<extensions>
<speed>3.5</speed>
<temp>0.00</temp>
<bpm>0</bpm>
<rpm>0.00</rpm>
</extensions>
</trkpt>
<trkpt lat="31.040370941" lon="34.720851898">
<ele>265.484375</ele>
<time>2013-11-20T06:47:34Z</time>
<speed>4.000000</speed>
<extensions>
<speed>4.0</speed>
<temp>0.00</temp>
<bpm>0</bpm>
<rpm>0.00</rpm>
</extensions>
</trkpt>
<trkpt lat="31.040241241" lon="34.720706940">
<ele>265.851563</ele>
<time>2013-11-20T06:47:39Z</time>
<speed>3.930000</speed>
<extensions>
<speed>3.9</speed>
<temp>0.00</temp>
<bpm>0</bpm>
<rpm>0.00</rpm>
</extensions>
</trkpt>
<trkpt lat="31.040100098" lon="34.720554352">
<ele>266.406250</ele>
<time>2013-11-20T06:47:44Z</time>
<speed>4.340000</speed>
<extensions>
<speed>4.3</speed>
<temp>0.00</temp>
<bpm>0</bpm>
<rpm>0.00</rpm>
</extensions>
</trkpt>
<trkpt lat="31.039932251" lon="34.720378876">
<ele>266.890625</ele>
<time>2013-11-20T06:47:49Z</time>
<speed>4.670000</speed>
<extensions>
<speed>4.7</speed>
<temp>0.00</temp>
<bpm>0</bpm>
<rpm>0.00</rpm>
</extensions>
</trkpt>
<trkpt lat="31.039779663" lon="34.720226288">
<ele>267.335938</ele>
<time>2013-11-20T06:47:54Z</time>
<speed>4.560000</speed>
<extensions>
<speed>4.6</speed>
<temp>0.00</temp>
<bpm>0</bpm>
<rpm>0.00</rpm>
</extensions>
</trkpt>
<trkpt lat="31.039634705" lon="34.720058441">
<ele>268.187500</ele>
<time>2013-11-20T06:47:59Z</time>
<speed>4.740000</speed>
<extensions>
<speed>4.7</speed>
<temp>0.00</temp>
<bpm>0</bpm>
<rpm>0.00</rpm>
</extensions>
</trkpt>
<trkpt lat="31.039470673" lon="34.719909668">
<ele>269.000000</ele>
<time>2013-11-20T06:48:04Z</time>
<speed>4.270000</speed>
<extensions>
<speed>4.3</speed>
<temp>0.00</temp>
<bpm>0</bpm>
<rpm>0.00</rpm>
</extensions>
</trkpt>
<trkpt lat="31.039319992" lon="34.719764709">
<ele>270.148438</ele>
<time>2013-11-20T06:48:09Z</time>
<speed>4.400000</speed>
<extensions>
<speed>4.4</speed>
<temp>0.00</temp>
<bpm>0</bpm>
<rpm>0.00</rpm>
</extensions>
</trkpt>
<trkpt lat="31.039180756" lon="34.719585419">
<ele>270.375000</ele>
<time>2013-11-20T06:48:14Z</time>
<speed>4.900000</speed>
<extensions>
<speed>4.9</speed>
<temp>0.00</temp>
<bpm>0</bpm>
<rpm>0.00</rpm>
</extensions>
</trkpt>
<trkpt lat="31.039138794" lon="34.719341278">
<ele>270.929688</ele>
<time>2013-11-20T06:48:19Z</time>
<speed>4.910000</speed>
<extensions>
<speed>4.9</speed>
<temp>0.00</temp>
<bpm>0</bpm>
<rpm>0.00</rpm>
</extensions>
</trkpt>
<trkpt lat="31.039190292" lon="34.719058990">
<ele>272.742188</ele>
<time>2013-11-20T06:48:24Z</time>
<speed>5.060000</speed>
<extensions>
<speed>5.1</speed>
<temp>0.00</temp>
<bpm>0</bpm>
<rpm>0.00</rpm>
</extensions>
</trkpt>
<trkpt lat="31.039266586" lon="34.718788147">
<ele>272.031250</ele>
<time>2013-11-20T06:48:29Z</time>
<speed>5.090000</speed>
<extensions>
<speed>5.1</speed>
<temp>0.00</temp>
<bpm>0</bpm>
<rpm>0.00</rpm>
</extensions>
</trkpt>
<trkpt lat="31.039356232" lon="34.718528748">
<ele>271.500000</ele>
<time>2013-11-20T06:48:34Z</time>
<speed>5.120000</speed>
<extensions>
<speed>5.1</speed>
<temp>0.00</temp>
<bpm>0</bpm>
<rpm>0.00</rpm>
</extensions>
</trkpt>
<trkpt lat="31.039417267" lon="34.718288422">
<ele>268.968750</ele>
<time>2013-11-20T06:48:39Z</time>
<speed>4.610000</speed>
<extensions>
<speed>4.6</speed>
<temp>0.00</temp>
<bpm>0</bpm>
<rpm>0.00</rpm>
</extensions>
</trkpt>
<trkpt lat="31.039480209" lon="34.718097687">
<ele>266.867188</ele>
<time>2013-11-20T06:48:44Z</time>
<speed>2.890000</speed>
<extensions>
<speed>2.9</speed>
<temp>0.00</temp>
<bpm>0</bpm>
<rpm>0.00</rpm>
</extensions>
</trkpt>
<trkpt lat="31.039505005" lon="34.718013763">
<ele>264.218750</ele>
<time>2013-11-20T06:48:49Z</time>
<speed>2.370000</speed>
<extensions>
<speed>2.4</speed>
<temp>0.00</temp>
<bpm>0</bpm>
<rpm>0.00</rpm>
</extensions>
</trkpt>
<trkpt lat="31.039522171" lon="34.718074799">
<ele>264.750000</ele>
<time>2013-11-20T06:48:54Z</time>
<speed>0.870000</speed>
<extensions>
<speed>0.9</speed>
<temp>0.00</temp>
<bpm>0</bpm>
<rpm>0.00</rpm>
</extensions>
</trkpt>
<trkpt lat="31.039506912" lon="34.718090057">
<ele>263.062500</ele>
<time>2013-11-20T06:48:59Z</time>
<speed>0.270000</speed>
<extensions>
<speed>0.3</speed>
<temp>0.00</temp>
<bpm>0</bpm>
<rpm>0.00</rpm>
</extensions>
</trkpt>
<trkpt lat="31.039503098" lon="34.718097687">
<ele>261.875000</ele>
<time>2013-11-20T06:49:04Z</time>
<speed>0.140000</speed>
<extensions>
<speed>0.1</speed>
<temp>0.00</temp>
<bpm>0</bpm>
<rpm>0.00</rpm>
</extensions>
</trkpt>
<trkpt lat="31.039497375" lon="34.718105316">
<ele>260.890625</ele>
<time>2013-11-20T06:49:09Z</time>
<speed>0.020000</speed>
<extensions>
<speed>0.0</speed>
<temp>0.00</temp>
<bpm>0</bpm>
<rpm>0.00</rpm>
</extensions>
</trkpt>
<trkpt lat="31.039497375" lon="34.718105316">
<ele>259.992188</ele>
<time>2013-11-20T06:49:14Z</time>
<speed>0.060000</speed>
<extensions>
<speed>0.1</speed>
<temp>0.00</temp>
<bpm>0</bpm>
<rpm>0.00</rpm>
</extensions>
</trkpt>
<trkpt lat="31.039497375" lon="34.718109131">
<ele>259.242188</ele>
<time>2013-11-20T06:49:19Z</time>
<speed>0.050000</speed>
<extensions>
<speed>0.1</speed>
<temp>0.00</temp>
<bpm>0</bpm>
<rpm>0.00</rpm>
</extensions>
</trkpt>
<trkpt lat="31.039499283" lon="34.718112946">
<ele>258.578125</ele>
<time>2013-11-20T06:49:24Z</time>
<speed>0.160000</speed>
<extensions>
<speed>0.2</speed>
<temp>0.00</temp>
<bpm>0</bpm>
<rpm>0.00</rpm>
</extensions>
</trkpt>
<trkpt lat="31.039503098" lon="34.718116760">
<ele>258.242188</ele>
<time>2013-11-20T06:49:29Z</time>
<speed>0.040000</speed>
<extensions>
<speed>0.0</speed>
<temp>0.00</temp>
<bpm>0</bpm>
<rpm>0.00</rpm>
</extensions>
</trkpt>
<trkpt lat="31.039505005" lon="34.718116760">
<ele>258.375000</ele>
<time>2013-11-20T06:49:34Z</time>
<extensions>
<speed>0.0</speed>
<temp>0.00</temp>
<bpm>0</bpm>
<rpm>0.00</rpm>
</extensions>
</trkpt>
<trkpt lat="31.039505005" lon="34.718116760">
<ele>258.359375</ele>
<time>2013-11-20T06:49:39Z</time>
<extensions>
<speed>0.0</speed>
<temp>0.00</temp>
<bpm>0</bpm>
<rpm>0.00</rpm>
</extensions>
</trkpt>
<trkpt lat="31.039505005" lon="34.718116760">
<ele>258.367188</ele>
<time>2013-11-20T06:49:44Z</time>
<extensions>
<speed>0.0</speed>
<temp>0.00</temp>
<bpm>0</bpm>
<rpm>0.00</rpm>
</extensions>
</trkpt>
<trkpt lat="31.039505005" lon="34.718116760">
<ele>258.367188</ele>
<time>2013-11-20T06:49:49Z</time>
<extensions>
<speed>0.0</speed>
<temp>0.00</temp>
<bpm>0</bpm>
<rpm>0.00</rpm>
</extensions>
</trkpt>
<trkpt lat="31.039503098" lon="34.718116760">
<ele>258.367188</ele>
<time>2013-11-20T06:49:54Z</time>
<extensions>
<speed>0.0</speed>
<temp>0.00</temp>
<bpm>0</bpm>
<rpm>0.00</rpm>
</extensions>
</trkpt>
<trkpt lat="31.039503098" lon="34.718116760">
<ele>258.375000</ele>
<time>2013-11-20T06:49:59Z</time>
<extensions>
<speed>0.0</speed>
<temp>0.00</temp>
<bpm>0</bpm>
<rpm>0.00</rpm>
</extensions>
</trkpt>
<trkpt lat="31.039503098" lon="34.718116760">
<ele>258.398438</ele>
<time>2013-11-20T06:50:04Z</time>
<extensions>
<speed>0.0</speed>
<temp>0.00</temp>
<bpm>0</bpm>
<rpm>0.00</rpm>
</extensions>
</trkpt>
<trkpt lat="31.039503098" lon="34.718116760">
<ele>258.476563</ele>
<time>2013-11-20T06:50:09Z</time>
<extensions>
<speed>0.0</speed>
<temp>0.00</temp>
<bpm>0</bpm>
<rpm>0.00</rpm>
</extensions>
</trkpt>
<trkpt lat="31.039503098" lon="34.718116760">
<ele>258.515625</ele>
<time>2013-11-20T06:50:14Z</time>
<extensions>
<speed>0.0</speed>
<temp>0.00</temp>
<bpm>0</bpm>
<rpm>0.00</rpm>
</extensions>
</trkpt>
<trkpt lat="31.039501190" lon="34.718116760">
<ele>258.843750</ele>
<time>2013-11-20T06:50:19Z</time>
<extensions>
<speed>0.0</speed>
<temp>0.00</temp>
<bpm>0</bpm>
<rpm>0.00</rpm>
</extensions>
</trkpt>
<trkpt lat="31.039493561" lon="34.718120575">
<ele>260.921875</ele>
<time>2013-11-20T06:50:24Z</time>
<speed>0.010000</speed>
<extensions>
<speed>0.0</speed>
<temp>0.00</temp>
<bpm>0</bpm>
<rpm>0.00</rpm>
</extensions>
</trkpt>
<trkpt lat="31.039493561" lon="34.718120575">
<ele>262.929688</ele>
<time>2013-11-20T06:50:29Z</time>
<speed>0.010000</speed>
<extensions>
<speed>0.0</speed>
<temp>0.00</temp>
<bpm>0</bpm>
<rpm>0.00</rpm>
</extensions>
</trkpt>
<trkpt lat="31.039491653" lon="34.718124390">
<ele>264.375000</ele>
<time>2013-11-20T06:50:34Z</time>
<extensions>
<speed>0.0</speed>
<temp>0.00</temp>
<bpm>0</bpm>
<rpm>0.00</rpm>
</extensions>
</trkpt>
<trkpt lat="31.039491653" lon="34.718124390">
<ele>265.601563</ele>
<time>2013-11-20T06:50:39Z</time>
<extensions>
<speed>0.0</speed>
<temp>0.00</temp>
<bpm>0</bpm>
<rpm>0.00</rpm>
</extensions>
</trkpt>
<trkpt lat="31.039487839" lon="34.718124390">
<ele>267.046875</ele>
<time>2013-11-20T06:50:44Z</time>
<extensions>
<speed>0.0</speed>
<temp>0.00</temp>
<bpm>0</bpm>
<rpm>0.00</rpm>
</extensions>
</trkpt>
<trkpt lat="31.039485931" lon="34.718128204">
<ele>268.046875</ele>
<time>2013-11-20T06:50:49Z</time>
<extensions>
<speed>0.0</speed>
<temp>0.00</temp>
<bpm>0</bpm>
<rpm>0.00</rpm>
</extensions>
</trkpt>
<trkpt lat="31.039478302" lon="34.718128204">
<ele>269.234375</ele>
<time>2013-11-20T06:50:54Z</time>
<extensions>
<speed>0.0</speed>
<temp>0.00</temp>
<bpm>0</bpm>
<rpm>0.00</rpm>
</extensions>
</trkpt>
<trkpt lat="31.039474487" lon="34.718132019">
<ele>270.476563</ele>
<time>2013-11-20T06:50:59Z</time>
<extensions>
<speed>0.0</speed>
<temp>0.00</temp>
<bpm>0</bpm>
<rpm>0.00</rpm>
</extensions>
</trkpt>
<trkpt lat="31.039470673" lon="34.718128204">
<ele>270.898438</ele>
<time>2013-11-20T06:51:04Z</time>
<extensions>
<speed>0.0</speed>
<temp>0.00</temp>
<bpm>0</bpm>
<rpm>0.00</rpm>
</extensions>
</trkpt>
<trkpt lat="31.039470673" lon="34.718128204">
<ele>270.914063</ele>
<time>2013-11-20T06:51:09Z</time>
<extensions>
<speed>0.0</speed>
<temp>0.00</temp>
<bpm>0</bpm>
<rpm>0.00</rpm>
</extensions>
</trkpt>
<trkpt lat="31.039470673" lon="34.718128204">
<ele>270.945313</ele>
<time>2013-11-20T06:51:14Z</time>
<extensions>
<speed>0.0</speed>
<temp>0.00</temp>
<bpm>0</bpm>
<rpm>0.00</rpm>
</extensions>
</trkpt>
<trkpt lat="31.039470673" lon="34.718128204">
<ele>270.960938</ele>
<time>2013-11-20T06:51:19Z</time>
<extensions>
<speed>0.0</speed>
<temp>0.00</temp>
<bpm>0</bpm>
<rpm>0.00</rpm>
</extensions>
</trkpt>
<trkpt lat="31.039470673" lon="34.718128204">
<ele>270.984375</ele>
<time>2013-11-20T06:51:24Z</time>
<extensions>
<speed>0.0</speed>
<temp>0.00</temp>
<bpm>0</bpm>
<rpm>0.00</rpm>
</extensions>
</trkpt>
<trkpt lat="31.039470673" lon="34.718128204">
<ele>270.992188</ele>
<time>2013-11-20T06:51:29Z</time>
<extensions>
<speed>0.0</speed>
<temp>0.00</temp>
<bpm>0</bpm>
<rpm>0.00</rpm>
</extensions>
</trkpt>
<trkpt lat="31.039470673" lon="34.718128204">
<ele>271.007813</ele>
<time>2013-11-20T06:51:34Z</time>
<extensions>
<speed>0.0</speed>
<temp>0.00</temp>
<bpm>0</bpm>
<rpm>0.00</rpm>
</extensions>
</trkpt>
<trkpt lat="31.039470673" lon="34.718128204">
<ele>271.031250</ele>
<time>2013-11-20T06:51:39Z</time>
<extensions>
<speed>0.0</speed>
<temp>0.00</temp>
<bpm>0</bpm>
<rpm>0.00</rpm>
</extensions>
</trkpt>
<trkpt lat="31.039470673" lon="34.718128204">
<ele>271.062500</ele>
<time>2013-11-20T06:51:44Z</time>
<extensions>
<speed>0.0</speed>
<temp>0.00</temp>
<bpm>0</bpm>
<rpm>0.00</rpm>
</extensions>
</trkpt>
<trkpt lat="31.039470673" lon="34.718128204">
<ele>271.078125</ele>
<time>2013-11-20T06:51:49Z</time>
<extensions>
<speed>0.0</speed>
<temp>0.00</temp>
<bpm>0</bpm>
<rpm>0.00</rpm>
</extensions>
</trkpt>
<trkpt lat="31.039470673" lon="34.718128204">
<ele>271.101563</ele>
<time>2013-11-20T06:51:54Z</time>
<extensions>
<speed>0.0</speed>
<temp>0.00</temp>
<bpm>0</bpm>
<rpm>0.00</rpm>
</extensions>
</trkpt>
<trkpt lat="31.039470673" lon="34.718128204">
<ele>271.132813</ele>
<time>2013-11-20T06:51:59Z</time>
<extensions>
<speed>0.0</speed>
<temp>0.00</temp>
<bpm>0</bpm>
<rpm>0.00</rpm>
</extensions>
</trkpt>
<trkpt lat="31.039470673" lon="34.718128204">
<ele>271.140625</ele>
<time>2013-11-20T06:52:04Z</time>
<extensions>
<speed>0.0</speed>
<temp>0.00</temp>
<bpm>0</bpm>
<rpm>0.00</rpm>
</extensions>
</trkpt>
<trkpt lat="31.039470673" lon="34.718128204">
<ele>271.164063</ele>
<time>2013-11-20T06:52:09Z</time>
<extensions>
<speed>0.0</speed>
<temp>0.00</temp>
<bpm>0</bpm>
<rpm>0.00</rpm>
</extensions>
</trkpt>
<trkpt lat="31.039470673" lon="34.718128204">
<ele>271.195313</ele>
<time>2013-11-20T06:52:14Z</time>
<extensions>
<speed>0.0</speed>
<temp>0.00</temp>
<bpm>0</bpm>
<rpm>0.00</rpm>
</extensions>
</trkpt>
<trkpt lat="31.039470673" lon="34.718128204">
<ele>271.195313</ele>
<time>2013-11-20T06:52:19Z</time>
<extensions>
<speed>0.0</speed>
<temp>0.00</temp>
<bpm>0</bpm>
<rpm>0.00</rpm>
</extensions>
</trkpt>
<trkpt lat="31.039470673" lon="34.718128204">
<ele>271.210938</ele>
<time>2013-11-20T06:52:24Z</time>
<extensions>
<speed>0.0</speed>
<temp>0.00</temp>
<bpm>0</bpm>
<rpm>0.00</rpm>
</extensions>
</trkpt>
<trkpt lat="31.039470673" lon="34.718128204">
<ele>271.218750</ele>
<time>2013-11-20T06:52:29Z</time>
<extensions>
<speed>0.0</speed>
<temp>0.00</temp>
<bpm>0</bpm>
<rpm>0.00</rpm>
</extensions>
</trkpt>
<trkpt lat="31.039470673" lon="34.718128204">
<ele>271.242188</ele>
<time>2013-11-20T06:52:34Z</time>
<extensions>
<speed>0.0</speed>
<temp>0.00</temp>
<bpm>0</bpm>
<rpm>0.00</rpm>
</extensions>
</trkpt>
<trkpt lat="31.039470673" lon="34.718128204">
<ele>271.250000</ele>
<time>2013-11-20T06:52:39Z</time>
<extensions>
<speed>0.0</speed>
<temp>0.00</temp>
<bpm>0</bpm>
<rpm>0.00</rpm>
</extensions>
</trkpt>
<trkpt lat="31.039470673" lon="34.718128204">
<ele>271.281250</ele>
<time>2013-11-20T06:52:44Z</time>
<extensions>
<speed>0.0</speed>
<temp>0.00</temp>
<bpm>0</bpm>
<rpm>0.00</rpm>
</extensions>
</trkpt>
<trkpt lat="31.039470673" lon="34.718128204">
<ele>271.320313</ele>
<time>2013-11-20T06:52:49Z</time>
<extensions>
<speed>0.0</speed>
<temp>0.00</temp>
<bpm>0</bpm>
<rpm>0.00</rpm>
</extensions>
</trkpt>
<trkpt lat="31.039470673" lon="34.718128204">
<ele>271.351563</ele>
<time>2013-11-20T06:52:54Z</time>
<extensions>
<speed>0.0</speed>
<temp>0.00</temp>
<bpm>0</bpm>
<rpm>0.00</rpm>
</extensions>
</trkpt>
<trkpt lat="31.039470673" lon="34.718128204">
<ele>271.390625</ele>
<time>2013-11-20T06:52:59Z</time>
<extensions>
<speed>0.0</speed>
<temp>0.00</temp>
<bpm>0</bpm>
<rpm>0.00</rpm>
</extensions>
</trkpt>
<trkpt lat="31.039470673" lon="34.718128204">
<ele>271.429688</ele>
<time>2013-11-20T06:53:04Z</time>
<extensions>
<speed>0.0</speed>
<temp>0.00</temp>
<bpm>0</bpm>
<rpm>0.00</rpm>
</extensions>
</trkpt>
<trkpt lat="31.039470673" lon="34.718128204">
<ele>271.460938</ele>
<time>2013-11-20T06:53:09Z</time>
<extensions>
<speed>0.0</speed>
<temp>0.00</temp>
<bpm>0</bpm>
<rpm>0.00</rpm>
</extensions>
</trkpt>
<trkpt lat="31.039470673" lon="34.718128204">
<ele>271.484375</ele>
<time>2013-11-20T06:53:14Z</time>
<extensions>
<speed>0.0</speed>
<temp>0.00</temp>
<bpm>0</bpm>
<rpm>0.00</rpm>
</extensions>
</trkpt>
<trkpt lat="31.039470673" lon="34.718128204">
<ele>271.523438</ele>
<time>2013-11-20T06:53:19Z</time>
<extensions>
<speed>0.0</speed>
<temp>0.00</temp>
<bpm>0</bpm>
<rpm>0.00</rpm>
</extensions>
</trkpt>
<trkpt lat="31.039470673" lon="34.718128204">
<ele>271.562500</ele>
<time>2013-11-20T06:53:24Z</time>
<extensions>
<speed>0.0</speed>
<temp>0.00</temp>
<bpm>0</bpm>
<rpm>0.00</rpm>
</extensions>
</trkpt>
<trkpt lat="31.039470673" lon="34.718128204">
<ele>271.570313</ele>
<time>2013-11-20T06:53:29Z</time>
<extensions>
<speed>0.0</speed>
<temp>0.00</temp>
<bpm>0</bpm>
<rpm>0.00</rpm>
</extensions>
</trkpt>
<trkpt lat="31.039470673" lon="34.718128204">
<ele>271.570313</ele>
<time>2013-11-20T06:53:34Z</time>
<extensions>
<speed>0.0</speed>
<temp>0.00</temp>
<bpm>0</bpm>
<rpm>0.00</rpm>
</extensions>
</trkpt>
<trkpt lat="31.039470673" lon="34.718128204">
<ele>271.578125</ele>
<time>2013-11-20T06:53:39Z</time>
<extensions>
<speed>0.0</speed>
<temp>0.00</temp>
<bpm>0</bpm>
<rpm>0.00</rpm>
</extensions>
</trkpt>
<trkpt lat="31.039470673" lon="34.718128204">
<ele>271.585938</ele>
<time>2013-11-20T06:53:44Z</time>
<extensions>
<speed>0.0</speed>
<temp>0.00</temp>
<bpm>0</bpm>
<rpm>0.00</rpm>
</extensions>
</trkpt>
<trkpt lat="31.039470673" lon="34.718128204">
<ele>271.601563</ele>
<time>2013-11-20T06:53:49Z</time>
<extensions>
<speed>0.0</speed>
<temp>0.00</temp>
<bpm>0</bpm>
<rpm>0.00</rpm>
</extensions>
</trkpt>
<trkpt lat="31.039470673" lon="34.718128204">
<ele>271.632813</ele>
<time>2013-11-20T06:53:54Z</time>
<extensions>
<speed>0.0</speed>
<temp>0.00</temp>
<bpm>0</bpm>
<rpm>0.00</rpm>
</extensions>
</trkpt>
<trkpt lat="31.039470673" lon="34.718128204">
<ele>271.648438</ele>
<time>2013-11-20T06:53:59Z</time>
<extensions>
<speed>0.0</speed>
<temp>0.00</temp>
<bpm>0</bpm>
<rpm>0.00</rpm>
</extensions>
</trkpt>
<trkpt lat="31.039470673" lon="34.718128204">
<ele>271.671875</ele>
<time>2013-11-20T06:54:04Z</time>
<extensions>
<speed>0.0</speed>
<temp>0.00</temp>
<bpm>0</bpm>
<rpm>0.00</rpm>
</extensions>
</trkpt>
<trkpt lat="31.039470673" lon="34.718128204">
<ele>271.695313</ele>
<time>2013-11-20T06:54:09Z</time>
<extensions>
<speed>0.0</speed>
<temp>0.00</temp>
<bpm>0</bpm>
<rpm>0.00</rpm>
</extensions>
</trkpt>
<trkpt lat="31.039470673" lon="34.718128204">
<ele>271.703125</ele>
<time>2013-11-20T06:54:14Z</time>
<extensions>
<speed>0.0</speed>
<temp>0.00</temp>
<bpm>0</bpm>
<rpm>0.00</rpm>
</extensions>
</trkpt>
<trkpt lat="31.039470673" lon="34.718128204">
<ele>271.734375</ele>
<time>2013-11-20T06:54:19Z</time>
<extensions>
<speed>0.0</speed>
<temp>0.00</temp>
<bpm>0</bpm>
<rpm>0.00</rpm>
</extensions>
</trkpt>
<trkpt lat="31.039470673" lon="34.718128204">
<ele>271.765625</ele>
<time>2013-11-20T06:54:24Z</time>
<extensions>
<speed>0.0</speed>
<temp>0.00</temp>
<bpm>0</bpm>
<rpm>0.00</rpm>
</extensions>
</trkpt>
<trkpt lat="31.039470673" lon="34.718128204">
<ele>271.773438</ele>
<time>2013-11-20T06:54:29Z</time>
<extensions>
<speed>0.0</speed>
<temp>0.00</temp>
<bpm>0</bpm>
<rpm>0.00</rpm>
</extensions>
</trkpt>
<trkpt lat="31.039470673" lon="34.718128204">
<ele>271.796875</ele>
<time>2013-11-20T06:54:34Z</time>
<speed>0.010000</speed>
<extensions>
<speed>0.0</speed>
<temp>0.00</temp>
<bpm>0</bpm>
<rpm>0.00</rpm>
</extensions>
</trkpt>
<trkpt lat="31.039470673" lon="34.718128204">
<ele>271.820313</ele>
<time>2013-11-20T06:54:39Z</time>
<extensions>
<speed>0.0</speed>
<temp>0.00</temp>
<bpm>0</bpm>
<rpm>0.00</rpm>
</extensions>
</trkpt>
<trkpt lat="31.039470673" lon="34.718128204">
<ele>271.843750</ele>
<time>2013-11-20T06:54:44Z</time>
<speed>0.010000</speed>
<extensions>
<speed>0.0</speed>
<temp>0.00</temp>
<bpm>0</bpm>
<rpm>0.00</rpm>
</extensions>
</trkpt>
<trkpt lat="31.039470673" lon="34.718128204">
<ele>271.867188</ele>
<time>2013-11-20T06:54:49Z</time>
<extensions>
<speed>0.0</speed>
<temp>0.00</temp>
<bpm>0</bpm>
<rpm>0.00</rpm>
</extensions>
</trkpt>
<trkpt lat="31.039470673" lon="34.718128204">
<ele>271.882813</ele>
<time>2013-11-20T06:54:54Z</time>
<extensions>
<speed>0.0</speed>
<temp>0.00</temp>
<bpm>0</bpm>
<rpm>0.00</rpm>
</extensions>
</trkpt>
<trkpt lat="31.039470673" lon="34.718124390">
<ele>271.914063</ele>
<time>2013-11-20T06:54:59Z</time>
<extensions>
<speed>0.0</speed>
<temp>0.00</temp>
<bpm>0</bpm>
<rpm>0.00</rpm>
</extensions>
</trkpt>
<trkpt lat="31.039470673" lon="34.718124390">
<ele>271.953125</ele>
<time>2013-11-20T06:55:04Z</time>
<extensions>
<speed>0.0</speed>
<temp>0.00</temp>
<bpm>0</bpm>
<rpm>0.00</rpm>
</extensions>
</trkpt>
<trkpt lat="31.039470673" lon="34.718124390">
<ele>272.000000</ele>
<time>2013-11-20T06:55:09Z</time>
<extensions>
<speed>0.0</speed>
<temp>0.00</temp>
<bpm>0</bpm>
<rpm>0.00</rpm>
</extensions>
</trkpt>
<trkpt lat="31.039468765" lon="34.718124390">
<ele>272.039063</ele>
<time>2013-11-20T06:55:14Z</time>
<speed>0.010000</speed>
<extensions>
<speed>0.0</speed>
<temp>0.00</temp>
<bpm>0</bpm>
<rpm>0.00</rpm>
</extensions>
</trkpt>
<trkpt lat="31.039468765" lon="34.718124390">
<ele>272.062500</ele>
<time>2013-11-20T06:55:19Z</time>
<speed>0.010000</speed>
<extensions>
<speed>0.0</speed>
<temp>0.00</temp>
<bpm>0</bpm>
<rpm>0.00</rpm>
</extensions>
</trkpt>
<trkpt lat="31.039468765" lon="34.718124390">
<ele>272.101563</ele>
<time>2013-11-20T06:55:24Z</time>
<extensions>
<speed>0.0</speed>
<temp>0.00</temp>
<bpm>0</bpm>
<rpm>0.00</rpm>
</extensions>
</trkpt>
<trkpt lat="31.039468765" lon="34.718124390">
<ele>272.148438</ele>
<time>2013-11-20T06:55:29Z</time>
<extensions>
<speed>0.0</speed>
<temp>0.00</temp>
<bpm>0</bpm>
<rpm>0.00</rpm>
</extensions>
</trkpt>
<trkpt lat="31.039468765" lon="34.718124390">
<ele>272.164063</ele>
<time>2013-11-20T06:55:34Z</time>
<speed>0.010000</speed>
<extensions>
<speed>0.0</speed>
<temp>0.00</temp>
<bpm>0</bpm>
<rpm>0.00</rpm>
</extensions>
</trkpt>
<trkpt lat="31.039468765" lon="34.718124390">
<ele>272.210938</ele>
<time>2013-11-20T06:55:39Z</time>
<extensions>
<speed>0.0</speed>
<temp>0.00</temp>
<bpm>0</bpm>
<rpm>0.00</rpm>
</extensions>
</trkpt>
<trkpt lat="31.039468765" lon="34.718124390">
<ele>272.242188</ele>
<time>2013-11-20T06:55:44Z</time>
<extensions>
<speed>0.0</speed>
<temp>0.00</temp>
<bpm>0</bpm>
<rpm>0.00</rpm>
</extensions>
</trkpt>
<trkpt lat="31.039466858" lon="34.718124390">
<ele>272.257813</ele>
<time>2013-11-20T06:55:49Z</time>
<speed>0.030000</speed>
<extensions>
<speed>0.0</speed>
<temp>0.00</temp>
<bpm>0</bpm>
<rpm>0.00</rpm>
</extensions>
</trkpt>
<trkpt lat="31.039466858" lon="34.718124390">
<ele>272.312500</ele>
<time>2013-11-20T06:55:54Z</time>
<speed>0.010000</speed>
<extensions>
<speed>0.0</speed>
<temp>0.00</temp>
<bpm>0</bpm>
<rpm>0.00</rpm>
</extensions>
</trkpt>
<trkpt lat="31.039466858" lon="34.718124390">
<ele>272.328125</ele>
<time>2013-11-20T06:55:59Z</time>
<extensions>
<speed>0.0</speed>
<temp>0.00</temp>
<bpm>0</bpm>
<rpm>0.00</rpm>
</extensions>
</trkpt>
<trkpt lat="31.039466858" lon="34.718124390">
<ele>272.390625</ele>
<time>2013-11-20T06:56:04Z</time>
<extensions>
<speed>0.0</speed>
<temp>0.00</temp>
<bpm>0</bpm>
<rpm>0.00</rpm>
</extensions>
</trkpt>
<trkpt lat="31.039466858" lon="34.718124390">
<ele>272.382813</ele>
<time>2013-11-20T06:56:09Z</time>
<speed>0.030000</speed>
<extensions>
<speed>0.0</speed>
<temp>0.00</temp>
<bpm>0</bpm>
<rpm>0.00</rpm>
</extensions>
</trkpt>
<trkpt lat="31.039466858" lon="34.718124390">
<ele>272.421875</ele>
<time>2013-11-20T06:56:14Z</time>
<speed>0.020000</speed>
<extensions>
<speed>0.0</speed>
<temp>0.00</temp>
<bpm>0</bpm>
<rpm>0.00</rpm>
</extensions>
</trkpt>
<trkpt lat="31.039466858" lon="34.718124390">
<ele>272.429688</ele>
<time>2013-11-20T06:56:19Z</time>
<extensions>
<speed>0.0</speed>
<temp>0.00</temp>
<bpm>0</bpm>
<rpm>0.00</rpm>
</extensions>
</trkpt>
<trkpt lat="31.039466858" lon="34.718128204">
<ele>272.453125</ele>
<time>2013-11-20T06:56:24Z</time>
<speed>0.010000</speed>
<extensions>
<speed>0.0</speed>
<temp>0.00</temp>
<bpm>0</bpm>
<rpm>0.00</rpm>
</extensions>
</trkpt>
<trkpt lat="31.039466858" lon="34.718128204">
<ele>272.507813</ele>
<time>2013-11-20T06:56:29Z</time>
<extensions>
<speed>0.0</speed>
<temp>0.00</temp>
<bpm>0</bpm>
<rpm>0.00</rpm>
</extensions>
</trkpt>
<trkpt lat="31.039466858" lon="34.718128204">
<ele>272.507813</ele>
<time>2013-11-20T06:56:34Z</time>
<extensions>
<speed>0.0</speed>
<temp>0.00</temp>
<bpm>0</bpm>
<rpm>0.00</rpm>
</extensions>
</trkpt>
<trkpt lat="31.039466858" lon="34.718128204">
<ele>272.531250</ele>
<time>2013-11-20T06:56:39Z</time>
<extensions>
<speed>0.0</speed>
<temp>0.00</temp>
<bpm>0</bpm>
<rpm>0.00</rpm>
</extensions>
</trkpt>
<trkpt lat="31.039466858" lon="34.718124390">
<ele>272.578125</ele>
<time>2013-11-20T06:56:44Z</time>
<extensions>
<speed>0.0</speed>
<temp>0.00</temp>
<bpm>0</bpm>
<rpm>0.00</rpm>
</extensions>
</trkpt>
<trkpt lat="31.039466858" lon="34.718124390">
<ele>272.585938</ele>
<time>2013-11-20T06:56:49Z</time>
<speed>0.010000</speed>
<extensions>
<speed>0.0</speed>
<temp>0.00</temp>
<bpm>0</bpm>
<rpm>0.00</rpm>
</extensions>
</trkpt>
<trkpt lat="31.039466858" lon="34.718124390">
<ele>272.625000</ele>
<time>2013-11-20T06:56:54Z</time>
<extensions>
<speed>0.0</speed>
<temp>0.00</temp>
<bpm>0</bpm>
<rpm>0.00</rpm>
</extensions>
</trkpt>
<trkpt lat="31.039466858" lon="34.718124390">
<ele>272.671875</ele>
<time>2013-11-20T06:56:59Z</time>
<extensions>
<speed>0.0</speed>
<temp>0.00</temp>
<bpm>0</bpm>
<rpm>0.00</rpm>
</extensions>
</trkpt>
<trkpt lat="31.039466858" lon="34.718124390">
<ele>272.703125</ele>
<time>2013-11-20T06:57:04Z</time>
<extensions>
<speed>0.0</speed>
<temp>0.00</temp>
<bpm>0</bpm>
<rpm>0.00</rpm>
</extensions>
</trkpt>
<trkpt lat="31.039466858" lon="34.718124390">
<ele>272.726563</ele>
<time>2013-11-20T06:57:09Z</time>
<extensions>
<speed>0.0</speed>
<temp>0.00</temp>
<bpm>0</bpm>
<rpm>0.00</rpm>
</extensions>
</trkpt>
<trkpt lat="31.039468765" lon="34.718124390">
<ele>272.789063</ele>
<time>2013-11-20T06:57:14Z</time>
<extensions>
<speed>0.0</speed>
<temp>0.00</temp>
<bpm>0</bpm>
<rpm>0.00</rpm>
</extensions>
</trkpt>
<trkpt lat="31.039468765" lon="34.718124390">
<ele>272.859375</ele>
<time>2013-11-20T06:57:19Z</time>
<extensions>
<speed>0.0</speed>
<temp>0.00</temp>
<bpm>0</bpm>
<rpm>0.00</rpm>
</extensions>
</trkpt>
<trkpt lat="31.039468765" lon="34.718124390">
<ele>272.914063</ele>
<time>2013-11-20T06:57:24Z</time>
<extensions>
<speed>0.0</speed>
<temp>0.00</temp>
<bpm>0</bpm>
<rpm>0.00</rpm>
</extensions>
</trkpt>
<trkpt lat="31.039466858" lon="34.718124390">
<ele>273.000000</ele>
<time>2013-11-20T06:57:29Z</time>
<speed>0.010000</speed>
<extensions>
<speed>0.0</speed>
<temp>0.00</temp>
<bpm>0</bpm>
<rpm>0.00</rpm>
</extensions>
</trkpt>
<trkpt lat="31.039466858" lon="34.718124390">
<ele>273.031250</ele>
<time>2013-11-20T06:57:34Z</time>
<extensions>
<speed>0.0</speed>
<temp>0.00</temp>
<bpm>0</bpm>
<rpm>0.00</rpm>
</extensions>
</trkpt>
<trkpt lat="31.039466858" lon="34.718124390">
<ele>273.062500</ele>
<time>2013-11-20T06:57:39Z</time>
<speed>0.010000</speed>
<extensions>
<speed>0.0</speed>
<temp>0.00</temp>
<bpm>0</bpm>
<rpm>0.00</rpm>
</extensions>
</trkpt>
<trkpt lat="31.039466858" lon="34.718124390">
<ele>273.125000</ele>
<time>2013-11-20T06:57:44Z</time>
<speed>0.010000</speed>
<extensions>
<speed>0.0</speed>
<temp>0.00</temp>
<bpm>0</bpm>
<rpm>0.00</rpm>
</extensions>
</trkpt>
<trkpt lat="31.039466858" lon="34.718124390">
<ele>273.195313</ele>
<time>2013-11-20T06:57:49Z</time>
<extensions>
<speed>0.0</speed>
<temp>0.00</temp>
<bpm>0</bpm>
<rpm>0.00</rpm>
</extensions>
</trkpt>
<trkpt lat="31.039466858" lon="34.718124390">
<ele>273.250000</ele>
<time>2013-11-20T06:57:54Z</time>
<extensions>
<speed>0.0</speed>
<temp>0.00</temp>
<bpm>0</bpm>
<rpm>0.00</rpm>
</extensions>
</trkpt>
<trkpt lat="31.039466858" lon="34.718124390">
<ele>273.296875</ele>
<time>2013-11-20T06:57:59Z</time>
<extensions>
<speed>0.0</speed>
<temp>0.00</temp>
<bpm>0</bpm>
<rpm>0.00</rpm>
</extensions>
</trkpt>
<trkpt lat="31.039466858" lon="34.718124390">
<ele>273.367188</ele>
<time>2013-11-20T06:58:04Z</time>
<extensions>
<speed>0.0</speed>
<temp>0.00</temp>
<bpm>0</bpm>
<rpm>0.00</rpm>
</extensions>
</trkpt>
<trkpt lat="31.039466858" lon="34.718120575">
<ele>273.437500</ele>
<time>2013-11-20T06:58:09Z</time>
<extensions>
<speed>0.0</speed>
<temp>0.00</temp>
<bpm>0</bpm>
<rpm>0.00</rpm>
</extensions>
</trkpt>
<trkpt lat="31.039466858" lon="34.718120575">
<ele>273.484375</ele>
<time>2013-11-20T06:58:14Z</time>
<extensions>
<speed>0.0</speed>
<temp>0.00</temp>
<bpm>0</bpm>
<rpm>0.00</rpm>
</extensions>
</trkpt>
<trkpt lat="31.039466858" lon="34.718120575">
<ele>273.539063</ele>
<time>2013-11-20T06:58:19Z</time>
<extensions>
<speed>0.0</speed>
<temp>0.00</temp>
<bpm>0</bpm>
<rpm>0.00</rpm>
</extensions>
</trkpt>
<trkpt lat="31.039466858" lon="34.718120575">
<ele>273.578125</ele>
<time>2013-11-20T06:58:24Z</time>
<extensions>
<speed>0.0</speed>
<temp>0.00</temp>
<bpm>0</bpm>
<rpm>0.00</rpm>
</extensions>
</trkpt>
<trkpt lat="31.039464951" lon="34.718120575">
<ele>273.609375</ele>
<time>2013-11-20T06:58:29Z</time>
<extensions>
<speed>0.0</speed>
<temp>0.00</temp>
<bpm>0</bpm>
<rpm>0.00</rpm>
</extensions>
</trkpt>
<trkpt lat="31.039464951" lon="34.718120575">
<ele>273.671875</ele>
<time>2013-11-20T06:58:34Z</time>
<extensions>
<speed>0.0</speed>
<temp>0.00</temp>
<bpm>0</bpm>
<rpm>0.00</rpm>
</extensions>
</trkpt>
<trkpt lat="31.039464951" lon="34.718120575">
<ele>273.734375</ele>
<time>2013-11-20T06:58:39Z</time>
<speed>0.010000</speed>
<extensions>
<speed>0.0</speed>
<temp>0.00</temp>
<bpm>0</bpm>
<rpm>0.00</rpm>
</extensions>
</trkpt>
<trkpt lat="31.039464951" lon="34.718120575">
<ele>273.796875</ele>
<time>2013-11-20T06:58:44Z</time>
<extensions>
<speed>0.0</speed>
<temp>0.00</temp>
<bpm>0</bpm>
<rpm>0.00</rpm>
</extensions>
</trkpt>
<trkpt lat="31.039464951" lon="34.718120575">
<ele>273.835938</ele>
<time>2013-11-20T06:58:49Z</time>
<extensions>
<speed>0.0</speed>
<temp>0.00</temp>
<bpm>0</bpm>
<rpm>0.00</rpm>
</extensions>
</trkpt>
<trkpt lat="31.039464951" lon="34.718120575">
<ele>273.843750</ele>
<time>2013-11-20T06:58:54Z</time>
<extensions>
<speed>0.0</speed>
<temp>0.00</temp>
<bpm>0</bpm>
<rpm>0.00</rpm>
</extensions>
</trkpt>
<trkpt lat="31.039464951" lon="34.718120575">
<ele>273.875000</ele>
<time>2013-11-20T06:58:59Z</time>
<extensions>
<speed>0.0</speed>
<temp>0.00</temp>
<bpm>0</bpm>
<rpm>0.00</rpm>
</extensions>
</trkpt>
<trkpt lat="31.039464951" lon="34.718120575">
<ele>273.921875</ele>
<time>2013-11-20T06:59:04Z</time>
<extensions>
<speed>0.0</speed>
<temp>0.00</temp>
<bpm>0</bpm>
<rpm>0.00</rpm>
</extensions>
</trkpt>
<trkpt lat="31.039464951" lon="34.718120575">
<ele>273.968750</ele>
<time>2013-11-20T06:59:09Z</time>
<extensions>
<speed>0.0</speed>
<temp>0.00</temp>
<bpm>0</bpm>
<rpm>0.00</rpm>
</extensions>
</trkpt>
<trkpt lat="31.039464951" lon="34.718120575">
<ele>273.976563</ele>
<time>2013-11-20T06:59:14Z</time>
<extensions>
<speed>0.0</speed>
<temp>0.00</temp>
<bpm>0</bpm>
<rpm>0.00</rpm>
</extensions>
</trkpt>
<trkpt lat="31.039464951" lon="34.718120575">
<ele>274.039063</ele>
<time>2013-11-20T06:59:19Z</time>
<speed>0.010000</speed>
<extensions>
<speed>0.0</speed>
<temp>0.00</temp>
<bpm>0</bpm>
<rpm>0.00</rpm>
</extensions>
</trkpt>
<trkpt lat="31.039463043" lon="34.718120575">
<ele>274.070313</ele>
<time>2013-11-20T06:59:24Z</time>
<extensions>
<speed>0.0</speed>
<temp>0.00</temp>
<bpm>0</bpm>
<rpm>0.00</rpm>
</extensions>
</trkpt>
<trkpt lat="31.039463043" lon="34.718120575">
<ele>274.093750</ele>
<time>2013-11-20T06:59:29Z</time>
<extensions>
<speed>0.0</speed>
<temp>0.00</temp>
<bpm>0</bpm>
<rpm>0.00</rpm>
</extensions>
</trkpt>
<trkpt lat="31.039463043" lon="34.718120575">
<ele>274.148438</ele>
<time>2013-11-20T06:59:34Z</time>
<extensions>
<speed>0.0</speed>
<temp>0.00</temp>
<bpm>0</bpm>
<rpm>0.00</rpm>
</extensions>
</trkpt>
<trkpt lat="31.039463043" lon="34.718120575">
<ele>274.195313</ele>
<time>2013-11-20T06:59:39Z</time>
<extensions>
<speed>0.0</speed>
<temp>0.00</temp>
<bpm>0</bpm>
<rpm>0.00</rpm>
</extensions>
</trkpt>
<trkpt lat="31.039463043" lon="34.718120575">
<ele>274.218750</ele>
<time>2013-11-20T06:59:44Z</time>
<extensions>
<speed>0.0</speed>
<temp>0.00</temp>
<bpm>0</bpm>
<rpm>0.00</rpm>
</extensions>
</trkpt>
<trkpt lat="31.039463043" lon="34.718120575">
<ele>274.242188</ele>
<time>2013-11-20T06:59:49Z</time>
<extensions>
<speed>0.0</speed>
<temp>0.00</temp>
<bpm>0</bpm>
<rpm>0.00</rpm>
</extensions>
</trkpt>
<trkpt lat="31.039463043" lon="34.718120575">
<ele>274.265625</ele>
<time>2013-11-20T06:59:54Z</time>
<extensions>
<speed>0.0</speed>
<temp>0.00</temp>
<bpm>0</bpm>
<rpm>0.00</rpm>
</extensions>
</trkpt>
<trkpt lat="31.039463043" lon="34.718120575">
<ele>274.312500</ele>
<time>2013-11-20T06:59:59Z</time>
<extensions>
<speed>0.0</speed>
<temp>0.00</temp>
<bpm>0</bpm>
<rpm>0.00</rpm>
</extensions>
</trkpt>
<trkpt lat="31.039463043" lon="34.718120575">
<ele>274.328125</ele>
<time>2013-11-20T07:00:04Z</time>
<extensions>
<speed>0.0</speed>
<temp>0.00</temp>
<bpm>0</bpm>
<rpm>0.00</rpm>
</extensions>
</trkpt>
<trkpt lat="31.039463043" lon="34.718120575">
<ele>274.343750</ele>
<time>2013-11-20T07:00:09Z</time>
<extensions>
<speed>0.0</speed>
<temp>0.00</temp>
<bpm>0</bpm>
<rpm>0.00</rpm>
</extensions>
</trkpt>
<trkpt lat="31.039463043" lon="34.718120575">
<ele>274.367188</ele>
<time>2013-11-20T07:00:14Z</time>
<extensions>
<speed>0.0</speed>
<temp>0.00</temp>
<bpm>0</bpm>
<rpm>0.00</rpm>
</extensions>
</trkpt>
<trkpt lat="31.039461136" lon="34.718120575">
<ele>274.382813</ele>
<time>2013-11-20T07:00:19Z</time>
<extensions>
<speed>0.0</speed>
<temp>0.00</temp>
<bpm>0</bpm>
<rpm>0.00</rpm>
</extensions>
</trkpt>
<trkpt lat="31.039461136" lon="34.718120575">
<ele>274.437500</ele>
<time>2013-11-20T07:00:24Z</time>
<extensions>
<speed>0.0</speed>
<temp>0.00</temp>
<bpm>0</bpm>
<rpm>0.00</rpm>
</extensions>
</trkpt>
<trkpt lat="31.039461136" lon="34.718120575">
<ele>274.460938</ele>
<time>2013-11-20T07:00:29Z</time>
<speed>0.020000</speed>
<extensions>
<speed>0.0</speed>
<temp>0.00</temp>
<bpm>0</bpm>
<rpm>0.00</rpm>
</extensions>
</trkpt>
<trkpt lat="31.039461136" lon="34.718120575">
<ele>274.515625</ele>
<time>2013-11-20T07:00:34Z</time>
<extensions>
<speed>0.0</speed>
<temp>0.00</temp>
<bpm>0</bpm>
<rpm>0.00</rpm>
</extensions>
</trkpt>
<trkpt lat="31.039461136" lon="34.718120575">
<ele>274.539063</ele>
<time>2013-11-20T07:00:39Z</time>
<extensions>
<speed>0.0</speed>
<temp>0.00</temp>
<bpm>0</bpm>
<rpm>0.00</rpm>
</extensions>
</trkpt>
<trkpt lat="31.039461136" lon="34.718120575">
<ele>274.562500</ele>
<time>2013-11-20T07:00:44Z</time>
<extensions>
<speed>0.0</speed>
<temp>0.00</temp>
<bpm>0</bpm>
<rpm>0.00</rpm>
</extensions>
</trkpt>
<trkpt lat="31.039461136" lon="34.718120575">
<ele>274.601563</ele>
<time>2013-11-20T07:00:49Z</time>
<extensions>
<speed>0.0</speed>
<temp>0.00</temp>
<bpm>0</bpm>
<rpm>0.00</rpm>
</extensions>
</trkpt>
<trkpt lat="31.039461136" lon="34.718120575">
<ele>274.640625</ele>
<time>2013-11-20T07:00:54Z</time>
<extensions>
<speed>0.0</speed>
<temp>0.00</temp>
<bpm>0</bpm>
<rpm>0.00</rpm>
</extensions>
</trkpt>
<trkpt lat="31.039459229" lon="34.718120575">
<ele>274.679688</ele>
<time>2013-11-20T07:00:59Z</time>
<extensions>
<speed>0.0</speed>
<temp>0.00</temp>
<bpm>0</bpm>
<rpm>0.00</rpm>
</extensions>
</trkpt>
<trkpt lat="31.039459229" lon="34.718120575">
<ele>274.718750</ele>
<time>2013-11-20T07:01:04Z</time>
<extensions>
<speed>0.0</speed>
<temp>0.00</temp>
<bpm>0</bpm>
<rpm>0.00</rpm>
</extensions>
</trkpt>
<trkpt lat="31.039459229" lon="34.718120575">
<ele>274.773438</ele>
<time>2013-11-20T07:01:09Z</time>
<extensions>
<speed>0.0</speed>
<temp>0.00</temp>
<bpm>0</bpm>
<rpm>0.00</rpm>
</extensions>
</trkpt>
<trkpt lat="31.039459229" lon="34.718120575">
<ele>274.812500</ele>
<time>2013-11-20T07:01:14Z</time>
<extensions>
<speed>0.0</speed>
<temp>0.00</temp>
<bpm>0</bpm>
<rpm>0.00</rpm>
</extensions>
</trkpt>
<trkpt lat="31.039459229" lon="34.718120575">
<ele>274.851563</ele>
<time>2013-11-20T07:01:19Z</time>
<extensions>
<speed>0.0</speed>
<temp>0.00</temp>
<bpm>0</bpm>
<rpm>0.00</rpm>
</extensions>
</trkpt>
<trkpt lat="31.039459229" lon="34.718120575">
<ele>274.898438</ele>
<time>2013-11-20T07:01:24Z</time>
<extensions>
<speed>0.0</speed>
<temp>0.00</temp>
<bpm>0</bpm>
<rpm>0.00</rpm>
</extensions>
</trkpt>
<trkpt lat="31.039459229" lon="34.718120575">
<ele>274.953125</ele>
<time>2013-11-20T07:01:29Z</time>
<extensions>
<speed>0.0</speed>
<temp>0.00</temp>
<bpm>0</bpm>
<rpm>0.00</rpm>
</extensions>
</trkpt>
<trkpt lat="31.039459229" lon="34.718120575">
<ele>275.000000</ele>
<time>2013-11-20T07:01:34Z</time>
<extensions>
<speed>0.0</speed>
<temp>0.00</temp>
<bpm>0</bpm>
<rpm>0.00</rpm>
</extensions>
</trkpt>
<trkpt lat="31.039459229" lon="34.718120575">
<ele>275.039063</ele>
<time>2013-11-20T07:01:39Z</time>
<extensions>
<speed>0.0</speed>
<temp>0.00</temp>
<bpm>0</bpm>
<rpm>0.00</rpm>
</extensions>
</trkpt>
<trkpt lat="31.039459229" lon="34.718120575">
<ele>275.078125</ele>
<time>2013-11-20T07:01:44Z</time>
<extensions>
<speed>0.0</speed>
<temp>0.00</temp>
<bpm>0</bpm>
<rpm>0.00</rpm>
</extensions>
</trkpt>
<trkpt lat="31.039459229" lon="34.718120575">
<ele>275.109375</ele>
<time>2013-11-20T07:01:49Z</time>
<extensions>
<speed>0.0</speed>
<temp>0.00</temp>
<bpm>0</bpm>
<rpm>0.00</rpm>
</extensions>
</trkpt>
<trkpt lat="31.039459229" lon="34.718120575">
<ele>275.132813</ele>
<time>2013-11-20T07:01:54Z</time>
<extensions>
<speed>0.0</speed>
<temp>0.00</temp>
<bpm>0</bpm>
<rpm>0.00</rpm>
</extensions>
</trkpt>
<trkpt lat="31.039457321" lon="34.718120575">
<ele>275.164063</ele>
<time>2013-11-20T07:01:59Z</time>
<extensions>
<speed>0.0</speed>
<temp>0.00</temp>
<bpm>0</bpm>
<rpm>0.00</rpm>
</extensions>
</trkpt>
<trkpt lat="31.039457321" lon="34.718120575">
<ele>275.187500</ele>
<time>2013-11-20T07:02:04Z</time>
<extensions>
<speed>0.0</speed>
<temp>0.00</temp>
<bpm>0</bpm>
<rpm>0.00</rpm>
</extensions>
</trkpt>
<trkpt lat="31.039457321" lon="34.718120575">
<ele>275.226563</ele>
<time>2013-11-20T07:02:09Z</time>
<extensions>
<speed>0.0</speed>
<temp>0.00</temp>
<bpm>0</bpm>
<rpm>0.00</rpm>
</extensions>
</trkpt>
<trkpt lat="31.039457321" lon="34.718120575">
<ele>275.257813</ele>
<time>2013-11-20T07:02:14Z</time>
<extensions>
<speed>0.0</speed>
<temp>0.00</temp>
<bpm>0</bpm>
<rpm>0.00</rpm>
</extensions>
</trkpt>
<trkpt lat="31.039457321" lon="34.718120575">
<ele>275.289063</ele>
<time>2013-11-20T07:02:19Z</time>
<extensions>
<speed>0.0</speed>
<temp>0.00</temp>
<bpm>0</bpm>
<rpm>0.00</rpm>
</extensions>
</trkpt>
<trkpt lat="31.039457321" lon="34.718120575">
<ele>275.320313</ele>
<time>2013-11-20T07:02:24Z</time>
<extensions>
<speed>0.0</speed>
<temp>0.00</temp>
<bpm>0</bpm>
<rpm>0.00</rpm>
</extensions>
</trkpt>
<trkpt lat="31.039457321" lon="34.718120575">
<ele>275.367188</ele>
<time>2013-11-20T07:02:29Z</time>
<speed>0.010000</speed>
<extensions>
<speed>0.0</speed>
<temp>0.00</temp>
<bpm>0</bpm>
<rpm>0.00</rpm>
</extensions>
</trkpt>
<trkpt lat="31.039457321" lon="34.718116760">
<ele>275.406250</ele>
<time>2013-11-20T07:02:34Z</time>
<extensions>
<speed>0.0</speed>
<temp>0.00</temp>
<bpm>0</bpm>
<rpm>0.00</rpm>
</extensions>
</trkpt>
<trkpt lat="31.039457321" lon="34.718116760">
<ele>275.460938</ele>
<time>2013-11-20T07:02:39Z</time>
<speed>0.010000</speed>
<extensions>
<speed>0.0</speed>
<temp>0.00</temp>
<bpm>0</bpm>
<rpm>0.00</rpm>
</extensions>
</trkpt>
<trkpt lat="31.039457321" lon="34.718116760">
<ele>275.492188</ele>
<time>2013-11-20T07:02:44Z</time>
<extensions>
<speed>0.0</speed>
<temp>0.00</temp>
<bpm>0</bpm>
<rpm>0.00</rpm>
</extensions>
</trkpt>
<trkpt lat="31.039457321" lon="34.718116760">
<ele>275.531250</ele>
<time>2013-11-20T07:02:49Z</time>
<extensions>
<speed>0.0</speed>
<temp>0.00</temp>
<bpm>0</bpm>
<rpm>0.00</rpm>
</extensions>
</trkpt>
<trkpt lat="31.039455414" lon="34.718116760">
<ele>275.570313</ele>
<time>2013-11-20T07:02:54Z</time>
<extensions>
<speed>0.0</speed>
<temp>0.00</temp>
<bpm>0</bpm>
<rpm>0.00</rpm>
</extensions>
</trkpt>
<trkpt lat="31.039455414" lon="34.718116760">
<ele>275.609375</ele>
<time>2013-11-20T07:02:59Z</time>
<extensions>
<speed>0.0</speed>
<temp>0.00</temp>
<bpm>0</bpm>
<rpm>0.00</rpm>
</extensions>
</trkpt>
<trkpt lat="31.039455414" lon="34.718116760">
<ele>275.648438</ele>
<time>2013-11-20T07:03:04Z</time>
<extensions>
<speed>0.0</speed>
<temp>0.00</temp>
<bpm>0</bpm>
<rpm>0.00</rpm>
</extensions>
</trkpt>
<trkpt lat="31.039455414" lon="34.718116760">
<ele>275.687500</ele>
<time>2013-11-20T07:03:09Z</time>
<extensions>
<speed>0.0</speed>
<temp>0.00</temp>
<bpm>0</bpm>
<rpm>0.00</rpm>
</extensions>
</trkpt>
<trkpt lat="31.039455414" lon="34.718116760">
<ele>275.726563</ele>
<time>2013-11-20T07:03:14Z</time>
<speed>0.010000</speed>
<extensions>
<speed>0.0</speed>
<temp>0.00</temp>
<bpm>0</bpm>
<rpm>0.00</rpm>
</extensions>
</trkpt>
<trkpt lat="31.039455414" lon="34.718116760">
<ele>275.773438</ele>
<time>2013-11-20T07:03:19Z</time>
<extensions>
<speed>0.0</speed>
<temp>0.00</temp>
<bpm>0</bpm>
<rpm>0.00</rpm>
</extensions>
</trkpt>
<trkpt lat="31.039455414" lon="34.718116760">
<ele>275.812500</ele>
<time>2013-11-20T07:03:24Z</time>
<extensions>
<speed>0.0</speed>
<temp>0.00</temp>
<bpm>0</bpm>
<rpm>0.00</rpm>
</extensions>
</trkpt>
<trkpt lat="31.039455414" lon="34.718116760">
<ele>275.851563</ele>
<time>2013-11-20T07:03:29Z</time>
<extensions>
<speed>0.0</speed>
<temp>0.00</temp>
<bpm>0</bpm>
<rpm>0.00</rpm>
</extensions>
</trkpt>
<trkpt lat="31.039455414" lon="34.718116760">
<ele>275.882813</ele>
<time>2013-11-20T07:03:34Z</time>
<extensions>
<speed>0.0</speed>
<temp>0.00</temp>
<bpm>0</bpm>
<rpm>0.00</rpm>
</extensions>
</trkpt>
<trkpt lat="31.039455414" lon="34.718116760">
<ele>275.929688</ele>
<time>2013-11-20T07:03:39Z</time>
<extensions>
<speed>0.0</speed>
<temp>0.00</temp>
<bpm>0</bpm>
<rpm>0.00</rpm>
</extensions>
</trkpt>
<trkpt lat="31.039455414" lon="34.718116760">
<ele>275.953125</ele>
<time>2013-11-20T07:03:44Z</time>
<extensions>
<speed>0.0</speed>
<temp>0.00</temp>
<bpm>0</bpm>
<rpm>0.00</rpm>
</extensions>
</trkpt>
<trkpt lat="31.039455414" lon="34.718116760">
<ele>275.984375</ele>
<time>2013-11-20T07:03:49Z</time>
<extensions>
<speed>0.0</speed>
<temp>0.00</temp>
<bpm>0</bpm>
<rpm>0.00</rpm>
</extensions>
</trkpt>
<trkpt lat="31.039455414" lon="34.718116760">
<ele>275.992188</ele>
<time>2013-11-20T07:03:54Z</time>
<extensions>
<speed>0.0</speed>
<temp>0.00</temp>
<bpm>0</bpm>
<rpm>0.00</rpm>
</extensions>
</trkpt>
<trkpt lat="31.039455414" lon="34.718116760">
<ele>276.031250</ele>
<time>2013-11-20T07:03:59Z</time>
<extensions>
<speed>0.0</speed>
<temp>0.00</temp>
<bpm>0</bpm>
<rpm>0.00</rpm>
</extensions>
</trkpt>
<trkpt lat="31.039455414" lon="34.718116760">
<ele>276.054688</ele>
<time>2013-11-20T07:04:04Z</time>
<extensions>
<speed>0.0</speed>
<temp>0.00</temp>
<bpm>0</bpm>
<rpm>0.00</rpm>
</extensions>
</trkpt>
<trkpt lat="31.039455414" lon="34.718116760">
<ele>276.078125</ele>
<time>2013-11-20T07:04:09Z</time>
<extensions>
<speed>0.0</speed>
<temp>0.00</temp>
<bpm>0</bpm>
<rpm>0.00</rpm>
</extensions>
</trkpt>
<trkpt lat="31.039455414" lon="34.718116760">
<ele>276.109375</ele>
<time>2013-11-20T07:04:14Z</time>
<extensions>
<speed>0.0</speed>
<temp>0.00</temp>
<bpm>0</bpm>
<rpm>0.00</rpm>
</extensions>
</trkpt>
<trkpt lat="31.039455414" lon="34.718116760">
<ele>276.148438</ele>
<time>2013-11-20T07:04:19Z</time>
<speed>0.010000</speed>
<extensions>
<speed>0.0</speed>
<temp>0.00</temp>
<bpm>0</bpm>
<rpm>0.00</rpm>
</extensions>
</trkpt>
<trkpt lat="31.039455414" lon="34.718116760">
<ele>276.171875</ele>
<time>2013-11-20T07:04:24Z</time>
<extensions>
<speed>0.0</speed>
<temp>0.00</temp>
<bpm>0</bpm>
<rpm>0.00</rpm>
</extensions>
</trkpt>
<trkpt lat="31.039455414" lon="34.718116760">
<ele>276.210938</ele>
<time>2013-11-20T07:04:29Z</time>
<extensions>
<speed>0.0</speed>
<temp>0.00</temp>
<bpm>0</bpm>
<rpm>0.00</rpm>
</extensions>
</trkpt>
<trkpt lat="31.039455414" lon="34.718116760">
<ele>276.242188</ele>
<time>2013-11-20T07:04:34Z</time>
<extensions>
<speed>0.0</speed>
<temp>0.00</temp>
<bpm>0</bpm>
<rpm>0.00</rpm>
</extensions>
</trkpt>
<trkpt lat="31.039455414" lon="34.718116760">
<ele>276.273438</ele>
<time>2013-11-20T07:04:39Z</time>
<extensions>
<speed>0.0</speed>
<temp>0.00</temp>
<bpm>0</bpm>
<rpm>0.00</rpm>
</extensions>
</trkpt>
<trkpt lat="31.039455414" lon="34.718116760">
<ele>276.304688</ele>
<time>2013-11-20T07:04:44Z</time>
<extensions>
<speed>0.0</speed>
<temp>0.00</temp>
<bpm>0</bpm>
<rpm>0.00</rpm>
</extensions>
</trkpt>
<trkpt lat="31.039455414" lon="34.718116760">
<ele>276.328125</ele>
<time>2013-11-20T07:04:49Z</time>
<extensions>
<speed>0.0</speed>
<temp>0.00</temp>
<bpm>0</bpm>
<rpm>0.00</rpm>
</extensions>
</trkpt>
<trkpt lat="31.039455414" lon="34.718116760">
<ele>276.367188</ele>
<time>2013-11-20T07:04:54Z</time>
<extensions>
<speed>0.0</speed>
<temp>0.00</temp>
<bpm>0</bpm>
<rpm>0.00</rpm>
</extensions>
</trkpt>
<trkpt lat="31.039455414" lon="34.718116760">
<ele>276.406250</ele>
<time>2013-11-20T07:04:59Z</time>
<extensions>
<speed>0.0</speed>
<temp>0.00</temp>
<bpm>0</bpm>
<rpm>0.00</rpm>
</extensions>
</trkpt>
<trkpt lat="31.039455414" lon="34.718116760">
<ele>276.437500</ele>
<time>2013-11-20T07:05:04Z</time>
<extensions>
<speed>0.0</speed>
<temp>0.00</temp>
<bpm>0</bpm>
<rpm>0.00</rpm>
</extensions>
</trkpt>
<trkpt lat="31.039455414" lon="34.718116760">
<ele>276.476563</ele>
<time>2013-11-20T07:05:09Z</time>
<extensions>
<speed>0.0</speed>
<temp>0.00</temp>
<bpm>0</bpm>
<rpm>0.00</rpm>
</extensions>
</trkpt>
<trkpt lat="31.039455414" lon="34.718116760">
<ele>276.507813</ele>
<time>2013-11-20T07:05:14Z</time>
<extensions>
<speed>0.0</speed>
<temp>0.00</temp>
<bpm>0</bpm>
<rpm>0.00</rpm>
</extensions>
</trkpt>
<trkpt lat="31.039455414" lon="34.718116760">
<ele>276.539063</ele>
<time>2013-11-20T07:05:19Z</time>
<extensions>
<speed>0.0</speed>
<temp>0.00</temp>
<bpm>0</bpm>
<rpm>0.00</rpm>
</extensions>
</trkpt>
<trkpt lat="31.039453506" lon="34.718116760">
<ele>276.578125</ele>
<time>2013-11-20T07:05:24Z</time>
<extensions>
<speed>0.0</speed>
<temp>0.00</temp>
<bpm>0</bpm>
<rpm>0.00</rpm>
</extensions>
</trkpt>
<trkpt lat="31.039453506" lon="34.718116760">
<ele>276.617188</ele>
<time>2013-11-20T07:05:29Z</time>
<extensions>
<speed>0.0</speed>
<temp>0.00</temp>
<bpm>0</bpm>
<rpm>0.00</rpm>
</extensions>
</trkpt>
<trkpt lat="31.039453506" lon="34.718116760">
<ele>276.648438</ele>
<time>2013-11-20T07:05:34Z</time>
<extensions>
<speed>0.0</speed>
<temp>0.00</temp>
<bpm>0</bpm>
<rpm>0.00</rpm>
</extensions>
</trkpt>
<trkpt lat="31.039453506" lon="34.718116760">
<ele>276.679688</ele>
<time>2013-11-20T07:05:39Z</time>
<extensions>
<speed>0.0</speed>
<temp>0.00</temp>
<bpm>0</bpm>
<rpm>0.00</rpm>
</extensions>
</trkpt>
<trkpt lat="31.039453506" lon="34.718116760">
<ele>276.718750</ele>
<time>2013-11-20T07:05:44Z</time>
<extensions>
<speed>0.0</speed>
<temp>0.00</temp>
<bpm>0</bpm>
<rpm>0.00</rpm>
</extensions>
</trkpt>
<trkpt lat="31.039453506" lon="34.718116760">
<ele>276.734375</ele>
<time>2013-11-20T07:05:49Z</time>
<extensions>
<speed>0.0</speed>
<temp>0.00</temp>
<bpm>0</bpm>
<rpm>0.00</rpm>
</extensions>
</trkpt>
<trkpt lat="31.039453506" lon="34.718116760">
<ele>276.757813</ele>
<time>2013-11-20T07:05:54Z</time>
<extensions>
<speed>0.0</speed>
<temp>0.00</temp>
<bpm>0</bpm>
<rpm>0.00</rpm>
</extensions>
</trkpt>
<trkpt lat="31.039453506" lon="34.718116760">
<ele>276.781250</ele>
<time>2013-11-20T07:05:59Z</time>
<extensions>
<speed>0.0</speed>
<temp>0.00</temp>
<bpm>0</bpm>
<rpm>0.00</rpm>
</extensions>
</trkpt>
<trkpt lat="31.039453506" lon="34.718116760">
<ele>276.804688</ele>
<time>2013-11-20T07:06:04Z</time>
<extensions>
<speed>0.0</speed>
<temp>0.00</temp>
<bpm>0</bpm>
<rpm>0.00</rpm>
</extensions>
</trkpt>
<trkpt lat="31.039453506" lon="34.718116760">
<ele>276.820313</ele>
<time>2013-11-20T07:06:09Z</time>
<speed>0.010000</speed>
<extensions>
<speed>0.0</speed>
<temp>0.00</temp>
<bpm>0</bpm>
<rpm>0.00</rpm>
</extensions>
</trkpt>
<trkpt lat="31.039453506" lon="34.718116760">
<ele>276.835938</ele>
<time>2013-11-20T07:06:14Z</time>
<extensions>
<speed>0.0</speed>
<temp>0.00</temp>
<bpm>0</bpm>
<rpm>0.00</rpm>
</extensions>
</trkpt>
<trkpt lat="31.039453506" lon="34.718116760">
<ele>276.851563</ele>
<time>2013-11-20T07:06:19Z</time>
<extensions>
<speed>0.0</speed>
<temp>0.00</temp>
<bpm>0</bpm>
<rpm>0.00</rpm>
</extensions>
</trkpt>
<trkpt lat="31.039453506" lon="34.718116760">
<ele>276.875000</ele>
<time>2013-11-20T07:06:24Z</time>
<extensions>
<speed>0.0</speed>
<temp>0.00</temp>
<bpm>0</bpm>
<rpm>0.00</rpm>
</extensions>
</trkpt>
<trkpt lat="31.039453506" lon="34.718116760">
<ele>276.875000</ele>
<time>2013-11-20T07:06:29Z</time>
<extensions>
<speed>0.0</speed>
<temp>0.00</temp>
<bpm>0</bpm>
<rpm>0.00</rpm>
</extensions>
</trkpt>
<trkpt lat="31.039453506" lon="34.718116760">
<ele>276.882813</ele>
<time>2013-11-20T07:06:34Z</time>
<extensions>
<speed>0.0</speed>
<temp>0.00</temp>
<bpm>0</bpm>
<rpm>0.00</rpm>
</extensions>
</trkpt>
<trkpt lat="31.039455414" lon="34.718116760">
<ele>276.890625</ele>
<time>2013-11-20T07:06:39Z</time>
<extensions>
<speed>0.0</speed>
<temp>0.00</temp>
<bpm>0</bpm>
<rpm>0.00</rpm>
</extensions>
</trkpt>
<trkpt lat="31.039453506" lon="34.718116760">
<ele>276.906250</ele>
<time>2013-11-20T07:06:44Z</time>
<extensions>
<speed>0.0</speed>
<temp>0.00</temp>
<bpm>0</bpm>
<rpm>0.00</rpm>
</extensions>
</trkpt>
<trkpt lat="31.039455414" lon="34.718116760">
<ele>276.921875</ele>
<time>2013-11-20T07:06:49Z</time>
<extensions>
<speed>0.0</speed>
<temp>0.00</temp>
<bpm>0</bpm>
<rpm>0.00</rpm>
</extensions>
</trkpt>
<trkpt lat="31.039455414" lon="34.718116760">
<ele>276.937500</ele>
<time>2013-11-20T07:06:54Z</time>
<extensions>
<speed>0.0</speed>
<temp>0.00</temp>
<bpm>0</bpm>
<rpm>0.00</rpm>
</extensions>
</trkpt>
<trkpt lat="31.039455414" lon="34.718116760">
<ele>276.968750</ele>
<time>2013-11-20T07:06:59Z</time>
<extensions>
<speed>0.0</speed>
<temp>0.00</temp>
<bpm>0</bpm>
<rpm>0.00</rpm>
</extensions>
</trkpt>
<trkpt lat="31.039455414" lon="34.718116760">
<ele>276.992188</ele>
<time>2013-11-20T07:07:04Z</time>
<extensions>
<speed>0.0</speed>
<temp>0.00</temp>
<bpm>0</bpm>
<rpm>0.00</rpm>
</extensions>
</trkpt>
<trkpt lat="31.039455414" lon="34.718116760">
<ele>277.015625</ele>
<time>2013-11-20T07:07:09Z</time>
<extensions>
<speed>0.0</speed>
<temp>0.00</temp>
<bpm>0</bpm>
<rpm>0.00</rpm>
</extensions>
</trkpt>
<trkpt lat="31.039455414" lon="34.718116760">
<ele>277.046875</ele>
<time>2013-11-20T07:07:14Z</time>
<extensions>
<speed>0.0</speed>
<temp>0.00</temp>
<bpm>0</bpm>
<rpm>0.00</rpm>
</extensions>
</trkpt>
<trkpt lat="31.039455414" lon="34.718116760">
<ele>277.062500</ele>
<time>2013-11-20T07:07:19Z</time>
<extensions>
<speed>0.0</speed>
<temp>0.00</temp>
<bpm>0</bpm>
<rpm>0.00</rpm>
</extensions>
</trkpt>
<trkpt lat="31.039455414" lon="34.718116760">
<ele>277.070313</ele>
<time>2013-11-20T07:07:24Z</time>
<extensions>
<speed>0.0</speed>
<temp>0.00</temp>
<bpm>0</bpm>
<rpm>0.00</rpm>
</extensions>
</trkpt>
<trkpt lat="31.039455414" lon="34.718116760">
<ele>277.078125</ele>
<time>2013-11-20T07:07:29Z</time>
<extensions>
<speed>0.0</speed>
<temp>0.00</temp>
<bpm>0</bpm>
<rpm>0.00</rpm>
</extensions>
</trkpt>
<trkpt lat="31.039455414" lon="34.718116760">
<ele>277.093750</ele>
<time>2013-11-20T07:07:34Z</time>
<extensions>
<speed>0.0</speed>
<temp>0.00</temp>
<bpm>0</bpm>
<rpm>0.00</rpm>
</extensions>
</trkpt>
<trkpt lat="31.039453506" lon="34.718116760">
<ele>277.109375</ele>
<time>2013-11-20T07:07:39Z</time>
<speed>0.010000</speed>
<extensions>
<speed>0.0</speed>
<temp>0.00</temp>
<bpm>0</bpm>
<rpm>0.00</rpm>
</extensions>
</trkpt>
<trkpt lat="31.039453506" lon="34.718116760">
<ele>277.117188</ele>
<time>2013-11-20T07:07:44Z</time>
<speed>0.010000</speed>
<extensions>
<speed>0.0</speed>
<temp>0.00</temp>
<bpm>0</bpm>
<rpm>0.00</rpm>
</extensions>
</trkpt>
<trkpt lat="31.039453506" lon="34.718116760">
<ele>277.132813</ele>
<time>2013-11-20T07:07:49Z</time>
<speed>0.040000</speed>
<extensions>
<speed>0.0</speed>
<temp>0.00</temp>
<bpm>0</bpm>
<rpm>0.00</rpm>
</extensions>
</trkpt>
<trkpt lat="31.039453506" lon="34.718116760">
<ele>277.148438</ele>
<time>2013-11-20T07:07:54Z</time>
<speed>0.010000</speed>
<extensions>
<speed>0.0</speed>
<temp>0.00</temp>
<bpm>0</bpm>
<rpm>0.00</rpm>
</extensions>
</trkpt>
<trkpt lat="31.039453506" lon="34.718116760">
<ele>277.156250</ele>
<time>2013-11-20T07:07:59Z</time>
<extensions>
<speed>0.0</speed>
<temp>0.00</temp>
<bpm>0</bpm>
<rpm>0.00</rpm>
</extensions>
</trkpt>
<trkpt lat="31.039453506" lon="34.718116760">
<ele>277.164063</ele>
<time>2013-11-20T07:08:04Z</time>
<speed>0.010000</speed>
<extensions>
<speed>0.0</speed>
<temp>0.00</temp>
<bpm>0</bpm>
<rpm>0.00</rpm>
</extensions>
</trkpt>
<trkpt lat="31.039453506" lon="34.718116760">
<ele>277.179688</ele>
<time>2013-11-20T07:08:09Z</time>
<extensions>
<speed>0.0</speed>
<temp>0.00</temp>
<bpm>0</bpm>
<rpm>0.00</rpm>
</extensions>
</trkpt>
<trkpt lat="31.039453506" lon="34.718116760">
<ele>277.179688</ele>
<time>2013-11-20T07:08:14Z</time>
<extensions>
<speed>0.0</speed>
<temp>0.00</temp>
<bpm>0</bpm>
<rpm>0.00</rpm>
</extensions>
</trkpt>
<trkpt lat="31.039453506" lon="34.718116760">
<ele>277.210938</ele>
<time>2013-11-20T07:08:19Z</time>
<extensions>
<speed>0.0</speed>
<temp>0.00</temp>
<bpm>0</bpm>
<rpm>0.00</rpm>
</extensions>
</trkpt>
<trkpt lat="31.039453506" lon="34.718116760">
<ele>277.242188</ele>
<time>2013-11-20T07:08:24Z</time>
<speed>0.010000</speed>
<extensions>
<speed>0.0</speed>
<temp>0.00</temp>
<bpm>0</bpm>
<rpm>0.00</rpm>
</extensions>
</trkpt>
<trkpt lat="31.039453506" lon="34.718116760">
<ele>277.257813</ele>
<time>2013-11-20T07:08:29Z</time>
<extensions>
<speed>0.0</speed>
<temp>0.00</temp>
<bpm>0</bpm>
<rpm>0.00</rpm>
</extensions>
</trkpt>
<trkpt lat="31.039453506" lon="34.718116760">
<ele>277.289063</ele>
<time>2013-11-20T07:08:34Z</time>
<extensions>
<speed>0.0</speed>
<temp>0.00</temp>
<bpm>0</bpm>
<rpm>0.00</rpm>
</extensions>
</trkpt>
<trkpt lat="31.039453506" lon="34.718116760">
<ele>277.312500</ele>
<time>2013-11-20T07:08:39Z</time>
<extensions>
<speed>0.0</speed>
<temp>0.00</temp>
<bpm>0</bpm>
<rpm>0.00</rpm>
</extensions>
</trkpt>
<trkpt lat="31.039453506" lon="34.718116760">
<ele>277.335938</ele>
<time>2013-11-20T07:08:44Z</time>
<extensions>
<speed>0.0</speed>
<temp>0.00</temp>
<bpm>0</bpm>
<rpm>0.00</rpm>
</extensions>
</trkpt>
<trkpt lat="31.039453506" lon="34.718116760">
<ele>277.375000</ele>
<time>2013-11-20T07:08:49Z</time>
<extensions>
<speed>0.0</speed>
<temp>0.00</temp>
<bpm>0</bpm>
<rpm>0.00</rpm>
</extensions>
</trkpt>
<trkpt lat="31.039453506" lon="34.718116760">
<ele>277.421875</ele>
<time>2013-11-20T07:08:54Z</time>
<extensions>
<speed>0.0</speed>
<temp>0.00</temp>
<bpm>0</bpm>
<rpm>0.00</rpm>
</extensions>
</trkpt>
<trkpt lat="31.039453506" lon="34.718116760">
<ele>277.453125</ele>
<time>2013-11-20T07:08:59Z</time>
<extensions>
<speed>0.0</speed>
<temp>0.00</temp>
<bpm>0</bpm>
<rpm>0.00</rpm>
</extensions>
</trkpt>
<trkpt lat="31.039453506" lon="34.718116760">
<ele>277.492188</ele>
<time>2013-11-20T07:09:04Z</time>
<extensions>
<speed>0.0</speed>
<temp>0.00</temp>
<bpm>0</bpm>
<rpm>0.00</rpm>
</extensions>
</trkpt>
<trkpt lat="31.039453506" lon="34.718112946">
<ele>277.523438</ele>
<time>2013-11-20T07:09:09Z</time>
<extensions>
<speed>0.0</speed>
<temp>0.00</temp>
<bpm>0</bpm>
<rpm>0.00</rpm>
</extensions>
</trkpt>
<trkpt lat="31.039453506" lon="34.718112946">
<ele>277.562500</ele>
<time>2013-11-20T07:09:14Z</time>
<extensions>
<speed>0.0</speed>
<temp>0.00</temp>
<bpm>0</bpm>
<rpm>0.00</rpm>
</extensions>
</trkpt>
<trkpt lat="31.039453506" lon="34.718112946">
<ele>277.585938</ele>
<time>2013-11-20T07:09:19Z</time>
<extensions>
<speed>0.0</speed>
<temp>0.00</temp>
<bpm>0</bpm>
<rpm>0.00</rpm>
</extensions>
</trkpt>
<trkpt lat="31.039453506" lon="34.718112946">
<ele>277.632813</ele>
<time>2013-11-20T07:09:24Z</time>
<extensions>
<speed>0.0</speed>
<temp>0.00</temp>
<bpm>0</bpm>
<rpm>0.00</rpm>
</extensions>
</trkpt>
<trkpt lat="31.039453506" lon="34.718112946">
<ele>277.656250</ele>
<time>2013-11-20T07:09:29Z</time>
<extensions>
<speed>0.0</speed>
<temp>0.00</temp>
<bpm>0</bpm>
<rpm>0.00</rpm>
</extensions>
</trkpt>
<trkpt lat="31.039453506" lon="34.718112946">
<ele>277.703125</ele>
<time>2013-11-20T07:09:34Z</time>
<extensions>
<speed>0.0</speed>
<temp>0.00</temp>
<bpm>0</bpm>
<rpm>0.00</rpm>
</extensions>
</trkpt>
<trkpt lat="31.039453506" lon="34.718112946">
<ele>277.734375</ele>
<time>2013-11-20T07:09:39Z</time>
<speed>0.010000</speed>
<extensions>
<speed>0.0</speed>
<temp>0.00</temp>
<bpm>0</bpm>
<rpm>0.00</rpm>
</extensions>
</trkpt>
<trkpt lat="31.039453506" lon="34.718112946">
<ele>277.765625</ele>
<time>2013-11-20T07:09:44Z</time>
<extensions>
<speed>0.0</speed>
<temp>0.00</temp>
<bpm>0</bpm>
<rpm>0.00</rpm>
</extensions>
</trkpt>
<trkpt lat="31.039453506" lon="34.718112946">
<ele>277.796875</ele>
<time>2013-11-20T07:09:49Z</time>
<extensions>
<speed>0.0</speed>
<temp>0.00</temp>
<bpm>0</bpm>
<rpm>0.00</rpm>
</extensions>
</trkpt>
<trkpt lat="31.039453506" lon="34.718112946">
<ele>277.828125</ele>
<time>2013-11-20T07:09:54Z</time>
<extensions>
<speed>0.0</speed>
<temp>0.00</temp>
<bpm>0</bpm>
<rpm>0.00</rpm>
</extensions>
</trkpt>
<trkpt lat="31.039453506" lon="34.718112946">
<ele>277.875000</ele>
<time>2013-11-20T07:09:59Z</time>
<extensions>
<speed>0.0</speed>
<temp>0.00</temp>
<bpm>0</bpm>
<rpm>0.00</rpm>
</extensions>
</trkpt>
<trkpt lat="31.039453506" lon="34.718112946">
<ele>277.906250</ele>
<time>2013-11-20T07:10:04Z</time>
<extensions>
<speed>0.0</speed>
<temp>0.00</temp>
<bpm>0</bpm>
<rpm>0.00</rpm>
</extensions>
</trkpt>
<trkpt lat="31.039451599" lon="34.718112946">
<ele>277.937500</ele>
<time>2013-11-20T07:10:09Z</time>
<speed>0.020000</speed>
<extensions>
<speed>0.0</speed>
<temp>0.00</temp>
<bpm>0</bpm>
<rpm>0.00</rpm>
</extensions>
</trkpt>
<trkpt lat="31.039451599" lon="34.718112946">
<ele>278.000000</ele>
<time>2013-11-20T07:10:14Z</time>
<extensions>
<speed>0.0</speed>
<temp>0.00</temp>
<bpm>0</bpm>
<rpm>0.00</rpm>
</extensions>
</trkpt>
<trkpt lat="31.039451599" lon="34.718112946">
<ele>278.054688</ele>
<time>2013-11-20T07:10:19Z</time>
<extensions>
<speed>0.0</speed>
<temp>0.00</temp>
<bpm>0</bpm>
<rpm>0.00</rpm>
</extensions>
</trkpt>
<trkpt lat="31.039451599" lon="34.718112946">
<ele>278.101563</ele>
<time>2013-11-20T07:10:24Z</time>
<extensions>
<speed>0.0</speed>
<temp>0.00</temp>
<bpm>0</bpm>
<rpm>0.00</rpm>
</extensions>
</trkpt>
<trkpt lat="31.039451599" lon="34.718112946">
<ele>278.148438</ele>
<time>2013-11-20T07:10:29Z</time>
<extensions>
<speed>0.0</speed>
<temp>0.00</temp>
<bpm>0</bpm>
<rpm>0.00</rpm>
</extensions>
</trkpt>
<trkpt lat="31.039451599" lon="34.718109131">
<ele>278.195313</ele>
<time>2013-11-20T07:10:34Z</time>
<extensions>
<speed>0.0</speed>
<temp>0.00</temp>
<bpm>0</bpm>
<rpm>0.00</rpm>
</extensions>
</trkpt>
<trkpt lat="31.039449692" lon="34.718109131">
<ele>278.242188</ele>
<time>2013-11-20T07:10:39Z</time>
<extensions>
<speed>0.0</speed>
<temp>0.00</temp>
<bpm>0</bpm>
<rpm>0.00</rpm>
</extensions>
</trkpt>
<trkpt lat="31.039449692" lon="34.718109131">
<ele>278.289063</ele>
<time>2013-11-20T07:10:44Z</time>
<extensions>
<speed>0.0</speed>
<temp>0.00</temp>
<bpm>0</bpm>
<rpm>0.00</rpm>
</extensions>
</trkpt>
<trkpt lat="31.039449692" lon="34.718109131">
<ele>278.328125</ele>
<time>2013-11-20T07:10:49Z</time>
<extensions>
<speed>0.0</speed>
<temp>0.00</temp>
<bpm>0</bpm>
<rpm>0.00</rpm>
</extensions>
</trkpt>
<trkpt lat="31.039449692" lon="34.718109131">
<ele>278.382813</ele>
<time>2013-11-20T07:10:54Z</time>
<extensions>
<speed>0.0</speed>
<temp>0.00</temp>
<bpm>0</bpm>
<rpm>0.00</rpm>
</extensions>
</trkpt>
<trkpt lat="31.039449692" lon="34.718109131">
<ele>278.429688</ele>
<time>2013-11-20T07:10:59Z</time>
<extensions>
<speed>0.0</speed>
<temp>0.00</temp>
<bpm>0</bpm>
<rpm>0.00</rpm>
</extensions>
</trkpt>
<trkpt lat="31.039449692" lon="34.718109131">
<ele>278.484375</ele>
<time>2013-11-20T07:11:04Z</time>
<extensions>
<speed>0.0</speed>
<temp>0.00</temp>
<bpm>0</bpm>
<rpm>0.00</rpm>
</extensions>
</trkpt>
<trkpt lat="31.039449692" lon="34.718109131">
<ele>278.531250</ele>
<time>2013-11-20T07:11:09Z</time>
<extensions>
<speed>0.0</speed>
<temp>0.00</temp>
<bpm>0</bpm>
<rpm>0.00</rpm>
</extensions>
</trkpt>
<trkpt lat="31.039447784" lon="34.718109131">
<ele>278.570313</ele>
<time>2013-11-20T07:11:14Z</time>
<extensions>
<speed>0.0</speed>
<temp>0.00</temp>
<bpm>0</bpm>
<rpm>0.00</rpm>
</extensions>
</trkpt>
<trkpt lat="31.039447784" lon="34.718109131">
<ele>278.601563</ele>
<time>2013-11-20T07:11:19Z</time>
<speed>0.010000</speed>
<extensions>
<speed>0.0</speed>
<temp>0.00</temp>
<bpm>0</bpm>
<rpm>0.00</rpm>
</extensions>
</trkpt>
<trkpt lat="31.039447784" lon="34.718109131">
<ele>278.640625</ele>
<time>2013-11-20T07:11:24Z</time>
<speed>0.010000</speed>
<extensions>
<speed>0.0</speed>
<temp>0.00</temp>
<bpm>0</bpm>
<rpm>0.00</rpm>
</extensions>
</trkpt>
<trkpt lat="31.039447784" lon="34.718109131">
<ele>278.679688</ele>
<time>2013-11-20T07:11:29Z</time>
<speed>0.010000</speed>
<extensions>
<speed>0.0</speed>
<temp>0.00</temp>
<bpm>0</bpm>
<rpm>0.00</rpm>
</extensions>
</trkpt>
<trkpt lat="31.039447784" lon="34.718109131">
<ele>278.710938</ele>
<time>2013-11-20T07:11:34Z</time>
<speed>0.010000</speed>
<extensions>
<speed>0.0</speed>
<temp>0.00</temp>
<bpm>0</bpm>
<rpm>0.00</rpm>
</extensions>
</trkpt>
<trkpt lat="31.039445877" lon="34.718109131">
<ele>278.734375</ele>
<time>2013-11-20T07:11:39Z</time>
<extensions>
<speed>0.0</speed>
<temp>0.00</temp>
<bpm>0</bpm>
<rpm>0.00</rpm>
</extensions>
</trkpt>
<trkpt lat="31.039445877" lon="34.718109131">
<ele>278.765625</ele>
<time>2013-11-20T07:11:44Z</time>
<extensions>
<speed>0.0</speed>
<temp>0.00</temp>
<bpm>0</bpm>
<rpm>0.00</rpm>
</extensions>
</trkpt>
<trkpt lat="31.039445877" lon="34.718109131">
<ele>278.781250</ele>
<time>2013-11-20T07:11:49Z</time>
<extensions>
<speed>0.0</speed>
<temp>0.00</temp>
<bpm>0</bpm>
<rpm>0.00</rpm>
</extensions>
</trkpt>
<trkpt lat="31.039445877" lon="34.718109131">
<ele>278.812500</ele>
<time>2013-11-20T07:11:54Z</time>
<speed>0.010000</speed>
<extensions>
<speed>0.0</speed>
<temp>0.00</temp>
<bpm>0</bpm>
<rpm>0.00</rpm>
</extensions>
</trkpt>
<trkpt lat="31.039445877" lon="34.718109131">
<ele>278.835938</ele>
<time>2013-11-20T07:11:59Z</time>
<extensions>
<speed>0.0</speed>
<temp>0.00</temp>
<bpm>0</bpm>
<rpm>0.00</rpm>
</extensions>
</trkpt>
<trkpt lat="31.039445877" lon="34.718109131">
<ele>278.859375</ele>
<time>2013-11-20T07:12:04Z</time>
<speed>0.010000</speed>
<extensions>
<speed>0.0</speed>
<temp>0.00</temp>
<bpm>0</bpm>
<rpm>0.00</rpm>
</extensions>
</trkpt>
<trkpt lat="31.039443970" lon="34.718109131">
<ele>278.890625</ele>
<time>2013-11-20T07:12:09Z</time>
<extensions>
<speed>0.0</speed>
<temp>0.00</temp>
<bpm>0</bpm>
<rpm>0.00</rpm>
</extensions>
</trkpt>
<trkpt lat="31.039443970" lon="34.718109131">
<ele>278.921875</ele>
<time>2013-11-20T07:12:14Z</time>
<extensions>
<speed>0.0</speed>
<temp>0.00</temp>
<bpm>0</bpm>
<rpm>0.00</rpm>
</extensions>
</trkpt>
<trkpt lat="31.039443970" lon="34.718109131">
<ele>278.945313</ele>
<time>2013-11-20T07:12:19Z</time>
<speed>0.010000</speed>
<extensions>
<speed>0.0</speed>
<temp>0.00</temp>
<bpm>0</bpm>
<rpm>0.00</rpm>
</extensions>
</trkpt>
<trkpt lat="31.039443970" lon="34.718109131">
<ele>278.976563</ele>
<time>2013-11-20T07:12:24Z</time>
<extensions>
<speed>0.0</speed>
<temp>0.00</temp>
<bpm>0</bpm>
<rpm>0.00</rpm>
</extensions>
</trkpt>
<trkpt lat="31.039443970" lon="34.718109131">
<ele>279.000000</ele>
<time>2013-11-20T07:12:29Z</time>
<extensions>
<speed>0.0</speed>
<temp>0.00</temp>
<bpm>0</bpm>
<rpm>0.00</rpm>
</extensions>
</trkpt>
<trkpt lat="31.039443970" lon="34.718109131">
<ele>279.023438</ele>
<time>2013-11-20T07:12:34Z</time>
<extensions>
<speed>0.0</speed>
<temp>0.00</temp>
<bpm>0</bpm>
<rpm>0.00</rpm>
</extensions>
</trkpt>
<trkpt lat="31.039442062" lon="34.718109131">
<ele>279.054688</ele>
<time>2013-11-20T07:12:39Z</time>
<speed>0.010000</speed>
<extensions>
<speed>0.0</speed>
<temp>0.00</temp>
<bpm>0</bpm>
<rpm>0.00</rpm>
</extensions>
</trkpt>
<trkpt lat="31.039442062" lon="34.718109131">
<ele>279.085938</ele>
<time>2013-11-20T07:12:44Z</time>
<extensions>
<speed>0.0</speed>
<temp>0.00</temp>
<bpm>0</bpm>
<rpm>0.00</rpm>
</extensions>
</trkpt>
<trkpt lat="31.039442062" lon="34.718109131">
<ele>279.109375</ele>
<time>2013-11-20T07:12:49Z</time>
<extensions>
<speed>0.0</speed>
<temp>0.00</temp>
<bpm>0</bpm>
<rpm>0.00</rpm>
</extensions>
</trkpt>
<trkpt lat="31.039442062" lon="34.718109131">
<ele>279.132813</ele>
<time>2013-11-20T07:12:54Z</time>
<extensions>
<speed>0.0</speed>
<temp>0.00</temp>
<bpm>0</bpm>
<rpm>0.00</rpm>
</extensions>
</trkpt>
<trkpt lat="31.039442062" lon="34.718109131">
<ele>279.156250</ele>
<time>2013-11-20T07:12:59Z</time>
<extensions>
<speed>0.0</speed>
<temp>0.00</temp>
<bpm>0</bpm>
<rpm>0.00</rpm>
</extensions>
</trkpt>
<trkpt lat="31.039442062" lon="34.718109131">
<ele>279.171875</ele>
<time>2013-11-20T07:13:04Z</time>
<extensions>
<speed>0.0</speed>
<temp>0.00</temp>
<bpm>0</bpm>
<rpm>0.00</rpm>
</extensions>
</trkpt>
<trkpt lat="31.039442062" lon="34.718109131">
<ele>279.203125</ele>
<time>2013-11-20T07:13:09Z</time>
<speed>0.010000</speed>
<extensions>
<speed>0.0</speed>
<temp>0.00</temp>
<bpm>0</bpm>
<rpm>0.00</rpm>
</extensions>
</trkpt>
<trkpt lat="31.039442062" lon="34.718109131">
<ele>279.226563</ele>
<time>2013-11-20T07:13:14Z</time>
<extensions>
<speed>0.0</speed>
<temp>0.00</temp>
<bpm>0</bpm>
<rpm>0.00</rpm>
</extensions>
</trkpt>
<trkpt lat="31.039440155" lon="34.718109131">
<ele>279.250000</ele>
<time>2013-11-20T07:13:19Z</time>
<extensions>
<speed>0.0</speed>
<temp>0.00</temp>
<bpm>0</bpm>
<rpm>0.00</rpm>
</extensions>
</trkpt>
<trkpt lat="31.039440155" lon="34.718109131">
<ele>279.281250</ele>
<time>2013-11-20T07:13:24Z</time>
<extensions>
<speed>0.0</speed>
<temp>0.00</temp>
<bpm>0</bpm>
<rpm>0.00</rpm>
</extensions>
</trkpt>
<trkpt lat="31.039440155" lon="34.718105316">
<ele>279.312500</ele>
<time>2013-11-20T07:13:29Z</time>
<extensions>
<speed>0.0</speed>
<temp>0.00</temp>
<bpm>0</bpm>
<rpm>0.00</rpm>
</extensions>
</trkpt>
<trkpt lat="31.039440155" lon="34.718105316">
<ele>279.335938</ele>
<time>2013-11-20T07:13:34Z</time>
<extensions>
<speed>0.0</speed>
<temp>0.00</temp>
<bpm>0</bpm>
<rpm>0.00</rpm>
</extensions>
</trkpt>
<trkpt lat="31.039440155" lon="34.718105316">
<ele>279.359375</ele>
<time>2013-11-20T07:13:39Z</time>
<extensions>
<speed>0.0</speed>
<temp>0.00</temp>
<bpm>0</bpm>
<rpm>0.00</rpm>
</extensions>
</trkpt>
<trkpt lat="31.039440155" lon="34.718105316">
<ele>279.382813</ele>
<time>2013-11-20T07:13:44Z</time>
<speed>0.010000</speed>
<extensions>
<speed>0.0</speed>
<temp>0.00</temp>
<bpm>0</bpm>
<rpm>0.00</rpm>
</extensions>
</trkpt>
<trkpt lat="31.039438248" lon="34.718105316">
<ele>279.406250</ele>
<time>2013-11-20T07:13:49Z</time>
<extensions>
<speed>0.0</speed>
<temp>0.00</temp>
<bpm>0</bpm>
<rpm>0.00</rpm>
</extensions>
</trkpt>
<trkpt lat="31.039438248" lon="34.718105316">
<ele>279.429688</ele>
<time>2013-11-20T07:13:54Z</time>
<extensions>
<speed>0.0</speed>
<temp>0.00</temp>
<bpm>0</bpm>
<rpm>0.00</rpm>
</extensions>
</trkpt>
<trkpt lat="31.039438248" lon="34.718105316">
<ele>279.445313</ele>
<time>2013-11-20T07:13:59Z</time>
<extensions>
<speed>0.0</speed>
<temp>0.00</temp>
<bpm>0</bpm>
<rpm>0.00</rpm>
</extensions>
</trkpt>
<trkpt lat="31.039438248" lon="34.718105316">
<ele>279.468750</ele>
<time>2013-11-20T07:14:04Z</time>
<extensions>
<speed>0.0</speed>
<temp>0.00</temp>
<bpm>0</bpm>
<rpm>0.00</rpm>
</extensions>
</trkpt>
<trkpt lat="31.039438248" lon="34.718105316">
<ele>279.500000</ele>
<time>2013-11-20T07:14:09Z</time>
<extensions>
<speed>0.0</speed>
<temp>0.00</temp>
<bpm>0</bpm>
<rpm>0.00</rpm>
</extensions>
</trkpt>
<trkpt lat="31.039438248" lon="34.718105316">
<ele>279.523438</ele>
<time>2013-11-20T07:14:14Z</time>
<speed>0.010000</speed>
<extensions>
<speed>0.0</speed>
<temp>0.00</temp>
<bpm>0</bpm>
<rpm>0.00</rpm>
</extensions>
</trkpt>
<trkpt lat="31.039438248" lon="34.718105316">
<ele>279.546875</ele>
<time>2013-11-20T07:14:19Z</time>
<extensions>
<speed>0.0</speed>
<temp>0.00</temp>
<bpm>0</bpm>
<rpm>0.00</rpm>
</extensions>
</trkpt>
<trkpt lat="31.039436340" lon="34.718105316">
<ele>279.578125</ele>
<time>2013-11-20T07:14:24Z</time>
<extensions>
<speed>0.0</speed>
<temp>0.00</temp>
<bpm>0</bpm>
<rpm>0.00</rpm>
</extensions>
</trkpt>
<trkpt lat="31.039436340" lon="34.718105316">
<ele>279.601563</ele>
<time>2013-11-20T07:14:29Z</time>
<extensions>
<speed>0.0</speed>
<temp>0.00</temp>
<bpm>0</bpm>
<rpm>0.00</rpm>
</extensions>
</trkpt>
<trkpt lat="31.039436340" lon="34.718105316">
<ele>279.632813</ele>
<time>2013-11-20T07:14:34Z</time>
<extensions>
<speed>0.0</speed>
<temp>0.00</temp>
<bpm>0</bpm>
<rpm>0.00</rpm>
</extensions>
</trkpt>
<trkpt lat="31.039436340" lon="34.718105316">
<ele>279.656250</ele>
<time>2013-11-20T07:14:39Z</time>
<speed>0.010000</speed>
<extensions>
<speed>0.0</speed>
<temp>0.00</temp>
<bpm>0</bpm>
<rpm>0.00</rpm>
</extensions>
</trkpt>
<trkpt lat="31.039436340" lon="34.718105316">
<ele>279.679688</ele>
<time>2013-11-20T07:14:44Z</time>
<extensions>
<speed>0.0</speed>
<temp>0.00</temp>
<bpm>0</bpm>
<rpm>0.00</rpm>
</extensions>
</trkpt>
<trkpt lat="31.039436340" lon="34.718105316">
<ele>279.695313</ele>
<time>2013-11-20T07:14:49Z</time>
<speed>0.010000</speed>
<extensions>
<speed>0.0</speed>
<temp>0.00</temp>
<bpm>0</bpm>
<rpm>0.00</rpm>
</extensions>
</trkpt>
<trkpt lat="31.039436340" lon="34.718105316">
<ele>279.718750</ele>
<time>2013-11-20T07:14:54Z</time>
<extensions>
<speed>0.0</speed>
<temp>0.00</temp>
<bpm>0</bpm>
<rpm>0.00</rpm>
</extensions>
</trkpt>
<trkpt lat="31.039436340" lon="34.718105316">
<ele>279.742188</ele>
<time>2013-11-20T07:14:59Z</time>
<extensions>
<speed>0.0</speed>
<temp>0.00</temp>
<bpm>0</bpm>
<rpm>0.00</rpm>
</extensions>
</trkpt>
<trkpt lat="31.039434433" lon="34.718105316">
<ele>279.765625</ele>
<time>2013-11-20T07:15:04Z</time>
<extensions>
<speed>0.0</speed>
<temp>0.00</temp>
<bpm>0</bpm>
<rpm>0.00</rpm>
</extensions>
</trkpt>
<trkpt lat="31.039434433" lon="34.718105316">
<ele>279.796875</ele>
<time>2013-11-20T07:15:09Z</time>
<speed>0.010000</speed>
<extensions>
<speed>0.0</speed>
<temp>0.00</temp>
<bpm>0</bpm>
<rpm>0.00</rpm>
</extensions>
</trkpt>
<trkpt lat="31.039434433" lon="34.718105316">
<ele>279.828125</ele>
<time>2013-11-20T07:15:14Z</time>
<extensions>
<speed>0.0</speed>
<temp>0.00</temp>
<bpm>0</bpm>
<rpm>0.00</rpm>
</extensions>
</trkpt>
<trkpt lat="31.039434433" lon="34.718105316">
<ele>279.859375</ele>
<time>2013-11-20T07:15:19Z</time>
<speed>0.010000</speed>
<extensions>
<speed>0.0</speed>
<temp>0.00</temp>
<bpm>0</bpm>
<rpm>0.00</rpm>
</extensions>
</trkpt>
<trkpt lat="31.039434433" lon="34.718105316">
<ele>279.882813</ele>
<time>2013-11-20T07:15:24Z</time>
<extensions>
<speed>0.0</speed>
<temp>0.00</temp>
<bpm>0</bpm>
<rpm>0.00</rpm>
</extensions>
</trkpt>
<trkpt lat="31.039434433" lon="34.718105316">
<ele>279.906250</ele>
<time>2013-11-20T07:15:29Z</time>
<extensions>
<speed>0.0</speed>
<temp>0.00</temp>
<bpm>0</bpm>
<rpm>0.00</rpm>
</extensions>
</trkpt>
<trkpt lat="31.039434433" lon="34.718105316">
<ele>279.921875</ele>
<time>2013-11-20T07:15:34Z</time>
<extensions>
<speed>0.0</speed>
<temp>0.00</temp>
<bpm>0</bpm>
<rpm>0.00</rpm>
</extensions>
</trkpt>
<trkpt lat="31.039432526" lon="34.718105316">
<ele>279.953125</ele>
<time>2013-11-20T07:15:39Z</time>
<extensions>
<speed>0.0</speed>
<temp>0.00</temp>
<bpm>0</bpm>
<rpm>0.00</rpm>
</extensions>
</trkpt>
<trkpt lat="31.039432526" lon="34.718105316">
<ele>279.984375</ele>
<time>2013-11-20T07:15:44Z</time>
<speed>0.010000</speed>
<extensions>
<speed>0.0</speed>
<temp>0.00</temp>
<bpm>0</bpm>
<rpm>0.00</rpm>
</extensions>
</trkpt>
<trkpt lat="31.039432526" lon="34.718105316">
<ele>280.007813</ele>
<time>2013-11-20T07:15:49Z</time>
<extensions>
<speed>0.0</speed>
<temp>0.00</temp>
<bpm>0</bpm>
<rpm>0.00</rpm>
</extensions>
</trkpt>
<trkpt lat="31.039432526" lon="34.718105316">
<ele>280.046875</ele>
<time>2013-11-20T07:15:54Z</time>
<speed>0.010000</speed>
<extensions>
<speed>0.0</speed>
<temp>0.00</temp>
<bpm>0</bpm>
<rpm>0.00</rpm>
</extensions>
</trkpt>
<trkpt lat="31.039432526" lon="34.718105316">
<ele>280.085938</ele>
<time>2013-11-20T07:15:59Z</time>
<extensions>
<speed>0.0</speed>
<temp>0.00</temp>
<bpm>0</bpm>
<rpm>0.00</rpm>
</extensions>
</trkpt>
<trkpt lat="31.039432526" lon="34.718105316">
<ele>280.109375</ele>
<time>2013-11-20T07:16:04Z</time>
<extensions>
<speed>0.0</speed>
<temp>0.00</temp>
<bpm>0</bpm>
<rpm>0.00</rpm>
</extensions>
</trkpt>
<trkpt lat="31.039432526" lon="34.718105316">
<ele>280.140625</ele>
<time>2013-11-20T07:16:09Z</time>
<extensions>
<speed>0.0</speed>
<temp>0.00</temp>
<bpm>0</bpm>
<rpm>0.00</rpm>
</extensions>
</trkpt>
<trkpt lat="31.039432526" lon="34.718105316">
<ele>280.164063</ele>
<time>2013-11-20T07:16:14Z</time>
<extensions>
<speed>0.0</speed>
<temp>0.00</temp>
<bpm>0</bpm>
<rpm>0.00</rpm>
</extensions>
</trkpt>
<trkpt lat="31.039432526" lon="34.718105316">
<ele>280.195313</ele>
<time>2013-11-20T07:16:19Z</time>
<extensions>
<speed>0.0</speed>
<temp>0.00</temp>
<bpm>0</bpm>
<rpm>0.00</rpm>
</extensions>
</trkpt>
<trkpt lat="31.039430618" lon="34.718105316">
<ele>280.218750</ele>
<time>2013-11-20T07:16:24Z</time>
<extensions>
<speed>0.0</speed>
<temp>0.00</temp>
<bpm>0</bpm>
<rpm>0.00</rpm>
</extensions>
</trkpt>
<trkpt lat="31.039430618" lon="34.718105316">
<ele>280.257813</ele>
<time>2013-11-20T07:16:29Z</time>
<extensions>
<speed>0.0</speed>
<temp>0.00</temp>
<bpm>0</bpm>
<rpm>0.00</rpm>
</extensions>
</trkpt>
<trkpt lat="31.039430618" lon="34.718105316">
<ele>280.289063</ele>
<time>2013-11-20T07:16:34Z</time>
<extensions>
<speed>0.0</speed>
<temp>0.00</temp>
<bpm>0</bpm>
<rpm>0.00</rpm>
</extensions>
</trkpt>
<trkpt lat="31.039430618" lon="34.718105316">
<ele>280.312500</ele>
<time>2013-11-20T07:16:39Z</time>
<speed>0.010000</speed>
<extensions>
<speed>0.0</speed>
<temp>0.00</temp>
<bpm>0</bpm>
<rpm>0.00</rpm>
</extensions>
</trkpt>
<trkpt lat="31.039430618" lon="34.718105316">
<ele>280.343750</ele>
<time>2013-11-20T07:16:44Z</time>
<extensions>
<speed>0.0</speed>
<temp>0.00</temp>
<bpm>0</bpm>
<rpm>0.00</rpm>
</extensions>
</trkpt>
<trkpt lat="31.039430618" lon="34.718105316">
<ele>280.359375</ele>
<time>2013-11-20T07:16:49Z</time>
<extensions>
<speed>0.0</speed>
<temp>0.00</temp>
<bpm>0</bpm>
<rpm>0.00</rpm>
</extensions>
</trkpt>
<trkpt lat="31.039428711" lon="34.718105316">
<ele>280.390625</ele>
<time>2013-11-20T07:16:54Z</time>
<extensions>
<speed>0.0</speed>
<temp>0.00</temp>
<bpm>0</bpm>
<rpm>0.00</rpm>
</extensions>
</trkpt>
<trkpt lat="31.039428711" lon="34.718105316">
<ele>280.406250</ele>
<time>2013-11-20T07:16:59Z</time>
<extensions>
<speed>0.0</speed>
<temp>0.00</temp>
<bpm>0</bpm>
<rpm>0.00</rpm>
</extensions>
</trkpt>
<trkpt lat="31.039428711" lon="34.718105316">
<ele>280.429688</ele>
<time>2013-11-20T07:17:04Z</time>
<extensions>
<speed>0.0</speed>
<temp>0.00</temp>
<bpm>0</bpm>
<rpm>0.00</rpm>
</extensions>
</trkpt>
<trkpt lat="31.039428711" lon="34.718105316">
<ele>280.460938</ele>
<time>2013-11-20T07:17:09Z</time>
<extensions>
<speed>0.0</speed>
<temp>0.00</temp>
<bpm>0</bpm>
<rpm>0.00</rpm>
</extensions>
</trkpt>
<trkpt lat="31.039428711" lon="34.718105316">
<ele>280.492188</ele>
<time>2013-11-20T07:17:14Z</time>
<speed>0.010000</speed>
<extensions>
<speed>0.0</speed>
<temp>0.00</temp>
<bpm>0</bpm>
<rpm>0.00</rpm>
</extensions>
</trkpt>
<trkpt lat="31.039428711" lon="34.718105316">
<ele>280.523438</ele>
<time>2013-11-20T07:17:19Z</time>
<extensions>
<speed>0.0</speed>
<temp>0.00</temp>
<bpm>0</bpm>
<rpm>0.00</rpm>
</extensions>
</trkpt>
<trkpt lat="31.039428711" lon="34.718105316">
<ele>280.546875</ele>
<time>2013-11-20T07:17:24Z</time>
<speed>0.010000</speed>
<extensions>
<speed>0.0</speed>
<temp>0.00</temp>
<bpm>0</bpm>
<rpm>0.00</rpm>
</extensions>
</trkpt>
<trkpt lat="31.039428711" lon="34.718105316">
<ele>280.578125</ele>
<time>2013-11-20T07:17:29Z</time>
<extensions>
<speed>0.0</speed>
<temp>0.00</temp>
<bpm>0</bpm>
<rpm>0.00</rpm>
</extensions>
</trkpt>
<trkpt lat="31.039428711" lon="34.718105316">
<ele>280.609375</ele>
<time>2013-11-20T07:17:34Z</time>
<extensions>
<speed>0.0</speed>
<temp>0.00</temp>
<bpm>0</bpm>
<rpm>0.00</rpm>
</extensions>
</trkpt>
<trkpt lat="31.039426804" lon="34.718105316">
<ele>280.640625</ele>
<time>2013-11-20T07:17:39Z</time>
<speed>0.010000</speed>
<extensions>
<speed>0.0</speed>
<temp>0.00</temp>
<bpm>0</bpm>
<rpm>0.00</rpm>
</extensions>
</trkpt>
<trkpt lat="31.039426804" lon="34.718105316">
<ele>280.664063</ele>
<time>2013-11-20T07:17:44Z</time>
<extensions>
<speed>0.0</speed>
<temp>0.00</temp>
<bpm>0</bpm>
<rpm>0.00</rpm>
</extensions>
</trkpt>
<trkpt lat="31.039426804" lon="34.718105316">
<ele>280.703125</ele>
<time>2013-11-20T07:17:49Z</time>
<extensions>
<speed>0.0</speed>
<temp>0.00</temp>
<bpm>0</bpm>
<rpm>0.00</rpm>
</extensions>
</trkpt>
<trkpt lat="31.039426804" lon="34.718105316">
<ele>280.734375</ele>
<time>2013-11-20T07:17:54Z</time>
<speed>0.010000</speed>
<extensions>
<speed>0.0</speed>
<temp>0.00</temp>
<bpm>0</bpm>
<rpm>0.00</rpm>
</extensions>
</trkpt>
<trkpt lat="31.039426804" lon="34.718105316">
<ele>280.765625</ele>
<time>2013-11-20T07:17:59Z</time>
<extensions>
<speed>0.0</speed>
<temp>0.00</temp>
<bpm>0</bpm>
<rpm>0.00</rpm>
</extensions>
</trkpt>
<trkpt lat="31.039426804" lon="34.718105316">
<ele>280.796875</ele>
<time>2013-11-20T07:18:04Z</time>
<extensions>
<speed>0.0</speed>
<temp>0.00</temp>
<bpm>0</bpm>
<rpm>0.00</rpm>
</extensions>
</trkpt>
<trkpt lat="31.039424896" lon="34.718105316">
<ele>280.820313</ele>
<time>2013-11-20T07:18:09Z</time>
<extensions>
<speed>0.0</speed>
<temp>0.00</temp>
<bpm>0</bpm>
<rpm>0.00</rpm>
</extensions>
</trkpt>
<trkpt lat="31.039424896" lon="34.718105316">
<ele>280.851563</ele>
<time>2013-11-20T07:18:14Z</time>
<speed>0.010000</speed>
<extensions>
<speed>0.0</speed>
<temp>0.00</temp>
<bpm>0</bpm>
<rpm>0.00</rpm>
</extensions>
</trkpt>
<trkpt lat="31.039424896" lon="34.718105316">
<ele>280.882813</ele>
<time>2013-11-20T07:18:19Z</time>
<speed>0.010000</speed>
<extensions>
<speed>0.0</speed>
<temp>0.00</temp>
<bpm>0</bpm>
<rpm>0.00</rpm>
</extensions>
</trkpt>
<trkpt lat="31.039424896" lon="34.718105316">
<ele>280.898438</ele>
<time>2013-11-20T07:18:24Z</time>
<extensions>
<speed>0.0</speed>
<temp>0.00</temp>
<bpm>0</bpm>
<rpm>0.00</rpm>
</extensions>
</trkpt>
<trkpt lat="31.039424896" lon="34.718105316">
<ele>280.921875</ele>
<time>2013-11-20T07:18:29Z</time>
<extensions>
<speed>0.0</speed>
<temp>0.00</temp>
<bpm>0</bpm>
<rpm>0.00</rpm>
</extensions>
</trkpt>
<trkpt lat="31.039424896" lon="34.718105316">
<ele>280.953125</ele>
<time>2013-11-20T07:18:34Z</time>
<extensions>
<speed>0.0</speed>
<temp>0.00</temp>
<bpm>0</bpm>
<rpm>0.00</rpm>
</extensions>
</trkpt>
<trkpt lat="31.039424896" lon="34.718105316">
<ele>280.968750</ele>
<time>2013-11-20T07:18:39Z</time>
<extensions>
<speed>0.0</speed>
<temp>0.00</temp>
<bpm>0</bpm>
<rpm>0.00</rpm>
</extensions>
</trkpt>
<trkpt lat="31.039424896" lon="34.718105316">
<ele>280.992188</ele>
<time>2013-11-20T07:18:44Z</time>
<extensions>
<speed>0.0</speed>
<temp>0.00</temp>
<bpm>0</bpm>
<rpm>0.00</rpm>
</extensions>
</trkpt>
<trkpt lat="31.039424896" lon="34.718105316">
<ele>281.015625</ele>
<time>2013-11-20T07:18:49Z</time>
<extensions>
<speed>0.0</speed>
<temp>0.00</temp>
<bpm>0</bpm>
<rpm>0.00</rpm>
</extensions>
</trkpt>
<trkpt lat="31.039424896" lon="34.718105316">
<ele>281.039063</ele>
<time>2013-11-20T07:18:54Z</time>
<extensions>
<speed>0.0</speed>
<temp>0.00</temp>
<bpm>0</bpm>
<rpm>0.00</rpm>
</extensions>
</trkpt>
<trkpt lat="31.039422989" lon="34.718105316">
<ele>281.054688</ele>
<time>2013-11-20T07:18:59Z</time>
<speed>0.010000</speed>
<extensions>
<speed>0.0</speed>
<temp>0.00</temp>
<bpm>0</bpm>
<rpm>0.00</rpm>
</extensions>
</trkpt>
<trkpt lat="31.039422989" lon="34.718105316">
<ele>281.078125</ele>
<time>2013-11-20T07:19:04Z</time>
<speed>0.010000</speed>
<extensions>
<speed>0.0</speed>
<temp>0.00</temp>
<bpm>0</bpm>
<rpm>0.00</rpm>
</extensions>
</trkpt>
<trkpt lat="31.039422989" lon="34.718105316">
<ele>281.101563</ele>
<time>2013-11-20T07:19:09Z</time>
<extensions>
<speed>0.0</speed>
<temp>0.00</temp>
<bpm>0</bpm>
<rpm>0.00</rpm>
</extensions>
</trkpt>
<trkpt lat="31.039422989" lon="34.718105316">
<ele>281.132813</ele>
<time>2013-11-20T07:19:14Z</time>
<extensions>
<speed>0.0</speed>
<temp>0.00</temp>
<bpm>0</bpm>
<rpm>0.00</rpm>
</extensions>
</trkpt>
<trkpt lat="31.039422989" lon="34.718105316">
<ele>281.164063</ele>
<time>2013-11-20T07:19:19Z</time>
<extensions>
<speed>0.0</speed>
<temp>0.00</temp>
<bpm>0</bpm>
<rpm>0.00</rpm>
</extensions>
</trkpt>
<trkpt lat="31.039422989" lon="34.718105316">
<ele>281.179688</ele>
<time>2013-11-20T07:19:24Z</time>
<speed>0.010000</speed>
<extensions>
<speed>0.0</speed>
<temp>0.00</temp>
<bpm>0</bpm>
<rpm>0.00</rpm>
</extensions>
</trkpt>
<trkpt lat="31.039422989" lon="34.718105316">
<ele>281.203125</ele>
<time>2013-11-20T07:19:29Z</time>
<extensions>
<speed>0.0</speed>
<temp>0.00</temp>
<bpm>0</bpm>
<rpm>0.00</rpm>
</extensions>
</trkpt>
<trkpt lat="31.039422989" lon="34.718105316">
<ele>281.226563</ele>
<time>2013-11-20T07:19:34Z</time>
<extensions>
<speed>0.0</speed>
<temp>0.00</temp>
<bpm>0</bpm>
<rpm>0.00</rpm>
</extensions>
</trkpt>
<trkpt lat="31.039422989" lon="34.718105316">
<ele>281.242188</ele>
<time>2013-11-20T07:19:39Z</time>
<extensions>
<speed>0.0</speed>
<temp>0.00</temp>
<bpm>0</bpm>
<rpm>0.00</rpm>
</extensions>
</trkpt>
<trkpt lat="31.039422989" lon="34.718105316">
<ele>281.250000</ele>
<time>2013-11-20T07:19:44Z</time>
<extensions>
<speed>0.0</speed>
<temp>0.00</temp>
<bpm>0</bpm>
<rpm>0.00</rpm>
</extensions>
</trkpt>
<trkpt lat="31.039422989" lon="34.718105316">
<ele>281.273438</ele>
<time>2013-11-20T07:19:49Z</time>
<extensions>
<speed>0.0</speed>
<temp>0.00</temp>
<bpm>0</bpm>
<rpm>0.00</rpm>
</extensions>
</trkpt>
<trkpt lat="31.039422989" lon="34.718109131">
<ele>281.289063</ele>
<time>2013-11-20T07:19:54Z</time>
<extensions>
<speed>0.0</speed>
<temp>0.00</temp>
<bpm>0</bpm>
<rpm>0.00</rpm>
</extensions>
</trkpt>
<trkpt lat="31.039422989" lon="34.718109131">
<ele>281.312500</ele>
<time>2013-11-20T07:19:59Z</time>
<extensions>
<speed>0.0</speed>
<temp>0.00</temp>
<bpm>0</bpm>
<rpm>0.00</rpm>
</extensions>
</trkpt>
<trkpt lat="31.039422989" lon="34.718109131">
<ele>281.343750</ele>
<time>2013-11-20T07:20:04Z</time>
<extensions>
<speed>0.0</speed>
<temp>0.00</temp>
<bpm>0</bpm>
<rpm>0.00</rpm>
</extensions>
</trkpt>
<trkpt lat="31.039422989" lon="34.718109131">
<ele>281.367188</ele>
<time>2013-11-20T07:20:09Z</time>
<extensions>
<speed>0.0</speed>
<temp>0.00</temp>
<bpm>0</bpm>
<rpm>0.00</rpm>
</extensions>
</trkpt>
<trkpt lat="31.039422989" lon="34.718109131">
<ele>281.382813</ele>
<time>2013-11-20T07:20:14Z</time>
<speed>0.010000</speed>
<extensions>
<speed>0.0</speed>
<temp>0.00</temp>
<bpm>0</bpm>
<rpm>0.00</rpm>
</extensions>
</trkpt>
<trkpt lat="31.039422989" lon="34.718109131">
<ele>281.406250</ele>
<time>2013-11-20T07:20:19Z</time>
<extensions>
<speed>0.0</speed>
<temp>0.00</temp>
<bpm>0</bpm>
<rpm>0.00</rpm>
</extensions>
</trkpt>
<trkpt lat="31.039422989" lon="34.718109131">
<ele>281.437500</ele>
<time>2013-11-20T07:20:24Z</time>
<extensions>
<speed>0.0</speed>
<temp>0.00</temp>
<bpm>0</bpm>
<rpm>0.00</rpm>
</extensions>
</trkpt>
<trkpt lat="31.039422989" lon="34.718109131">
<ele>281.460938</ele>
<time>2013-11-20T07:20:29Z</time>
<extensions>
<speed>0.0</speed>
<temp>0.00</temp>
<bpm>0</bpm>
<rpm>0.00</rpm>
</extensions>
</trkpt>
<trkpt lat="31.039422989" lon="34.718109131">
<ele>281.484375</ele>
<time>2013-11-20T07:20:34Z</time>
<extensions>
<speed>0.0</speed>
<temp>0.00</temp>
<bpm>0</bpm>
<rpm>0.00</rpm>
</extensions>
</trkpt>
<trkpt lat="31.039422989" lon="34.718109131">
<ele>281.492188</ele>
<time>2013-11-20T07:20:39Z</time>
<extensions>
<speed>0.0</speed>
<temp>0.00</temp>
<bpm>0</bpm>
<rpm>0.00</rpm>
</extensions>
</trkpt>
<trkpt lat="31.039422989" lon="34.718109131">
<ele>281.476563</ele>
<time>2013-11-20T07:20:44Z</time>
<extensions>
<speed>0.0</speed>
<temp>0.00</temp>
<bpm>0</bpm>
<rpm>0.00</rpm>
</extensions>
</trkpt>
<trkpt lat="31.039422989" lon="34.718109131">
<ele>281.460938</ele>
<time>2013-11-20T07:20:49Z</time>
<extensions>
<speed>0.0</speed>
<temp>0.00</temp>
<bpm>0</bpm>
<rpm>0.00</rpm>
</extensions>
</trkpt>
<trkpt lat="31.039422989" lon="34.718109131">
<ele>281.429688</ele>
<time>2013-11-20T07:20:54Z</time>
<extensions>
<speed>0.0</speed>
<temp>0.00</temp>
<bpm>0</bpm>
<rpm>0.00</rpm>
</extensions>
</trkpt>
<trkpt lat="31.039422989" lon="34.718109131">
<ele>281.414063</ele>
<time>2013-11-20T07:20:59Z</time>
<extensions>
<speed>0.0</speed>
<temp>0.00</temp>
<bpm>0</bpm>
<rpm>0.00</rpm>
</extensions>
</trkpt>
<trkpt lat="31.039422989" lon="34.718109131">
<ele>281.390625</ele>
<time>2013-11-20T07:21:04Z</time>
<extensions>
<speed>0.0</speed>
<temp>0.00</temp>
<bpm>0</bpm>
<rpm>0.00</rpm>
</extensions>
</trkpt>
<trkpt lat="31.039422989" lon="34.718109131">
<ele>281.351563</ele>
<time>2013-11-20T07:21:09Z</time>
<extensions>
<speed>0.0</speed>
<temp>0.00</temp>
<bpm>0</bpm>
<rpm>0.00</rpm>
</extensions>
</trkpt>
<trkpt lat="31.039422989" lon="34.718109131">
<ele>281.312500</ele>
<time>2013-11-20T07:21:14Z</time>
<extensions>
<speed>0.0</speed>
<temp>0.00</temp>
<bpm>0</bpm>
<rpm>0.00</rpm>
</extensions>
</trkpt>
<trkpt lat="31.039422989" lon="34.718109131">
<ele>281.296875</ele>
<time>2013-11-20T07:21:19Z</time>
<extensions>
<speed>0.0</speed>
<temp>0.00</temp>
<bpm>0</bpm>
<rpm>0.00</rpm>
</extensions>
</trkpt>
<trkpt lat="31.039424896" lon="34.718109131">
<ele>281.273438</ele>
<time>2013-11-20T07:21:24Z</time>
<extensions>
<speed>0.0</speed>
<temp>0.00</temp>
<bpm>0</bpm>
<rpm>0.00</rpm>
</extensions>
</trkpt>
<trkpt lat="31.039424896" lon="34.718109131">
<ele>281.234375</ele>
<time>2013-11-20T07:21:29Z</time>
<extensions>
<speed>0.0</speed>
<temp>0.00</temp>
<bpm>0</bpm>
<rpm>0.00</rpm>
</extensions>
</trkpt>
<trkpt lat="31.039424896" lon="34.718109131">
<ele>281.203125</ele>
<time>2013-11-20T07:21:34Z</time>
<extensions>
<speed>0.0</speed>
<temp>0.00</temp>
<bpm>0</bpm>
<rpm>0.00</rpm>
</extensions>
</trkpt>
<trkpt lat="31.039424896" lon="34.718109131">
<ele>281.187500</ele>
<time>2013-11-20T07:21:39Z</time>
<extensions>
<speed>0.0</speed>
<temp>0.00</temp>
<bpm>0</bpm>
<rpm>0.00</rpm>
</extensions>
</trkpt>
<trkpt lat="31.039424896" lon="34.718109131">
<ele>281.179688</ele>
<time>2013-11-20T07:21:44Z</time>
<extensions>
<speed>0.0</speed>
<temp>0.00</temp>
<bpm>0</bpm>
<rpm>0.00</rpm>
</extensions>
</trkpt>
<trkpt lat="31.039424896" lon="34.718109131">
<ele>281.148438</ele>
<time>2013-11-20T07:21:49Z</time>
<extensions>
<speed>0.0</speed>
<temp>0.00</temp>
<bpm>0</bpm>
<rpm>0.00</rpm>
</extensions>
</trkpt>
<trkpt lat="31.039424896" lon="34.718109131">
<ele>281.125000</ele>
<time>2013-11-20T07:21:54Z</time>
<extensions>
<speed>0.0</speed>
<temp>0.00</temp>
<bpm>0</bpm>
<rpm>0.00</rpm>
</extensions>
</trkpt>
<trkpt lat="31.039424896" lon="34.718109131">
<ele>281.101563</ele>
<time>2013-11-20T07:21:59Z</time>
<extensions>
<speed>0.0</speed>
<temp>0.00</temp>
<bpm>0</bpm>
<rpm>0.00</rpm>
</extensions>
</trkpt>
<trkpt lat="31.039424896" lon="34.718109131">
<ele>281.085938</ele>
<time>2013-11-20T07:22:04Z</time>
<extensions>
<speed>0.0</speed>
<temp>0.00</temp>
<bpm>0</bpm>
<rpm>0.00</rpm>
</extensions>
</trkpt>
<trkpt lat="31.039424896" lon="34.718109131">
<ele>281.070313</ele>
<time>2013-11-20T07:22:09Z</time>
<extensions>
<speed>0.0</speed>
<temp>0.00</temp>
<bpm>0</bpm>
<rpm>0.00</rpm>
</extensions>
</trkpt>
<trkpt lat="31.039424896" lon="34.718109131">
<ele>281.054688</ele>
<time>2013-11-20T07:22:14Z</time>
<speed>0.010000</speed>
<extensions>
<speed>0.0</speed>
<temp>0.00</temp>
<bpm>0</bpm>
<rpm>0.00</rpm>
</extensions>
</trkpt>
<trkpt lat="31.039424896" lon="34.718109131">
<ele>281.039063</ele>
<time>2013-11-20T07:22:19Z</time>
<extensions>
<speed>0.0</speed>
<temp>0.00</temp>
<bpm>0</bpm>
<rpm>0.00</rpm>
</extensions>
</trkpt>
<trkpt lat="31.039424896" lon="34.718109131">
<ele>281.031250</ele>
<time>2013-11-20T07:22:24Z</time>
<speed>0.010000</speed>
<extensions>
<speed>0.0</speed>
<temp>0.00</temp>
<bpm>0</bpm>
<rpm>0.00</rpm>
</extensions>
</trkpt>
<trkpt lat="31.039424896" lon="34.718109131">
<ele>281.023438</ele>
<time>2013-11-20T07:22:29Z</time>
<speed>0.010000</speed>
<extensions>
<speed>0.0</speed>
<temp>0.00</temp>
<bpm>0</bpm>
<rpm>0.00</rpm>
</extensions>
</trkpt>
<trkpt lat="31.039424896" lon="34.718109131">
<ele>281.015625</ele>
<time>2013-11-20T07:22:34Z</time>
<speed>0.010000</speed>
<extensions>
<speed>0.0</speed>
<temp>0.00</temp>
<bpm>0</bpm>
<rpm>0.00</rpm>
</extensions>
</trkpt>
<trkpt lat="31.039424896" lon="34.718109131">
<ele>281.000000</ele>
<time>2013-11-20T07:22:39Z</time>
<extensions>
<speed>0.0</speed>
<temp>0.00</temp>
<bpm>0</bpm>
<rpm>0.00</rpm>
</extensions>
</trkpt>
<trkpt lat="31.039424896" lon="34.718109131">
<ele>280.984375</ele>
<time>2013-11-20T07:22:44Z</time>
<extensions>
<speed>0.0</speed>
<temp>0.00</temp>
<bpm>0</bpm>
<rpm>0.00</rpm>
</extensions>
</trkpt>
<trkpt lat="31.039426804" lon="34.718109131">
<ele>280.968750</ele>
<time>2013-11-20T07:22:49Z</time>
<extensions>
<speed>0.0</speed>
<temp>0.00</temp>
<bpm>0</bpm>
<rpm>0.00</rpm>
</extensions>
</trkpt>
<trkpt lat="31.039426804" lon="34.718109131">
<ele>280.968750</ele>
<time>2013-11-20T07:22:54Z</time>
<speed>0.010000</speed>
<extensions>
<speed>0.0</speed>
<temp>0.00</temp>
<bpm>0</bpm>
<rpm>0.00</rpm>
</extensions>
</trkpt>
<trkpt lat="31.039426804" lon="34.718109131">
<ele>280.960938</ele>
<time>2013-11-20T07:22:59Z</time>
<extensions>
<speed>0.0</speed>
<temp>0.00</temp>
<bpm>0</bpm>
<rpm>0.00</rpm>
</extensions>
</trkpt>
<trkpt lat="31.039426804" lon="34.718109131">
<ele>280.960938</ele>
<time>2013-11-20T07:23:04Z</time>
<extensions>
<speed>0.0</speed>
<temp>0.00</temp>
<bpm>0</bpm>
<rpm>0.00</rpm>
</extensions>
</trkpt>
<trkpt lat="31.039426804" lon="34.718109131">
<ele>280.953125</ele>
<time>2013-11-20T07:23:09Z</time>
<extensions>
<speed>0.0</speed>
<temp>0.00</temp>
<bpm>0</bpm>
<rpm>0.00</rpm>
</extensions>
</trkpt>
<trkpt lat="31.039426804" lon="34.718109131">
<ele>280.945313</ele>
<time>2013-11-20T07:23:14Z</time>
<extensions>
<speed>0.0</speed>
<temp>0.00</temp>
<bpm>0</bpm>
<rpm>0.00</rpm>
</extensions>
</trkpt>
<trkpt lat="31.039426804" lon="34.718109131">
<ele>280.953125</ele>
<time>2013-11-20T07:23:19Z</time>
<extensions>
<speed>0.0</speed>
<temp>0.00</temp>
<bpm>0</bpm>
<rpm>0.00</rpm>
</extensions>
</trkpt>
<trkpt lat="31.039426804" lon="34.718112946">
<ele>280.945313</ele>
<time>2013-11-20T07:23:24Z</time>
<extensions>
<speed>0.0</speed>
<temp>0.00</temp>
<bpm>0</bpm>
<rpm>0.00</rpm>
</extensions>
</trkpt>
<trkpt lat="31.039426804" lon="34.718112946">
<ele>280.937500</ele>
<time>2013-11-20T07:23:29Z</time>
<extensions>
<speed>0.0</speed>
<temp>0.00</temp>
<bpm>0</bpm>
<rpm>0.00</rpm>
</extensions>
</trkpt>
<trkpt lat="31.039426804" lon="34.718112946">
<ele>280.929688</ele>
<time>2013-11-20T07:23:34Z</time>
<extensions>
<speed>0.0</speed>
<temp>0.00</temp>
<bpm>0</bpm>
<rpm>0.00</rpm>
</extensions>
</trkpt>
<trkpt lat="31.039426804" lon="34.718112946">
<ele>280.929688</ele>
<time>2013-11-20T07:23:39Z</time>
<extensions>
<speed>0.0</speed>
<temp>0.00</temp>
<bpm>0</bpm>
<rpm>0.00</rpm>
</extensions>
</trkpt>
<trkpt lat="31.039426804" lon="34.718112946">
<ele>280.929688</ele>
<time>2013-11-20T07:23:44Z</time>
<extensions>
<speed>0.0</speed>
<temp>0.00</temp>
<bpm>0</bpm>
<rpm>0.00</rpm>
</extensions>
</trkpt>
<trkpt lat="31.039426804" lon="34.718112946">
<ele>280.929688</ele>
<time>2013-11-20T07:23:49Z</time>
<extensions>
<speed>0.0</speed>
<temp>0.00</temp>
<bpm>0</bpm>
<rpm>0.00</rpm>
</extensions>
</trkpt>
<trkpt lat="31.039426804" lon="34.718112946">
<ele>280.921875</ele>
<time>2013-11-20T07:23:54Z</time>
<extensions>
<speed>0.0</speed>
<temp>0.00</temp>
<bpm>0</bpm>
<rpm>0.00</rpm>
</extensions>
</trkpt>
<trkpt lat="31.039426804" lon="34.718112946">
<ele>280.921875</ele>
<time>2013-11-20T07:23:59Z</time>
<extensions>
<speed>0.0</speed>
<temp>0.00</temp>
<bpm>0</bpm>
<rpm>0.00</rpm>
</extensions>
</trkpt>
<trkpt lat="31.039426804" lon="34.718112946">
<ele>280.921875</ele>
<time>2013-11-20T07:24:04Z</time>
<extensions>
<speed>0.0</speed>
<temp>0.00</temp>
<bpm>0</bpm>
<rpm>0.00</rpm>
</extensions>
</trkpt>
<trkpt lat="31.039428711" lon="34.718112946">
<ele>280.921875</ele>
<time>2013-11-20T07:24:09Z</time>
<extensions>
<speed>0.0</speed>
<temp>0.00</temp>
<bpm>0</bpm>
<rpm>0.00</rpm>
</extensions>
</trkpt>
<trkpt lat="31.039428711" lon="34.718112946">
<ele>280.937500</ele>
<time>2013-11-20T07:24:14Z</time>
<extensions>
<speed>0.0</speed>
<temp>0.00</temp>
<bpm>0</bpm>
<rpm>0.00</rpm>
</extensions>
</trkpt>
<trkpt lat="31.039428711" lon="34.718112946">
<ele>280.945313</ele>
<time>2013-11-20T07:24:19Z</time>
<speed>0.010000</speed>
<extensions>
<speed>0.0</speed>
<temp>0.00</temp>
<bpm>0</bpm>
<rpm>0.00</rpm>
</extensions>
</trkpt>
<trkpt lat="31.039428711" lon="34.718116760">
<ele>280.945313</ele>
<time>2013-11-20T07:24:24Z</time>
<speed>0.010000</speed>
<extensions>
<speed>0.0</speed>
<temp>0.00</temp>
<bpm>0</bpm>
<rpm>0.00</rpm>
</extensions>
</trkpt>
<trkpt lat="31.039428711" lon="34.718116760">
<ele>280.953125</ele>
<time>2013-11-20T07:24:29Z</time>
<speed>0.010000</speed>
<extensions>
<speed>0.0</speed>
<temp>0.00</temp>
<bpm>0</bpm>
<rpm>0.00</rpm>
</extensions>
</trkpt>
<trkpt lat="31.039428711" lon="34.718116760">
<ele>280.945313</ele>
<time>2013-11-20T07:24:34Z</time>
<speed>0.020000</speed>
<extensions>
<speed>0.0</speed>
<temp>0.00</temp>
<bpm>0</bpm>
<rpm>0.00</rpm>
</extensions>
</trkpt>
<trkpt lat="31.039428711" lon="34.718116760">
<ele>280.945313</ele>
<time>2013-11-20T07:24:39Z</time>
<extensions>
<speed>0.0</speed>
<temp>0.00</temp>
<bpm>0</bpm>
<rpm>0.00</rpm>
</extensions>
</trkpt>
<trkpt lat="31.039428711" lon="34.718116760">
<ele>280.945313</ele>
<time>2013-11-20T07:24:44Z</time>
<speed>0.010000</speed>
<extensions>
<speed>0.0</speed>
<temp>0.00</temp>
<bpm>0</bpm>
<rpm>0.00</rpm>
</extensions>
</trkpt>
<trkpt lat="31.039428711" lon="34.718116760">
<ele>280.945313</ele>
<time>2013-11-20T07:24:49Z</time>
<speed>0.160000</speed>
<extensions>
<speed>0.2</speed>
<temp>0.00</temp>
<bpm>0</bpm>
<rpm>0.00</rpm>
</extensions>
</trkpt>
<trkpt lat="31.039424896" lon="34.718120575">
<ele>281.601563</ele>
<time>2013-11-20T07:24:54Z</time>
<speed>0.480000</speed>
<extensions>
<speed>0.5</speed>
<temp>0.00</temp>
<bpm>0</bpm>
<rpm>0.00</rpm>
</extensions>
</trkpt>
<trkpt lat="31.039373398" lon="34.718105316">
<ele>281.570313</ele>
<time>2013-11-20T07:24:59Z</time>
<speed>2.430000</speed>
<extensions>
<speed>2.4</speed>
<temp>0.00</temp>
<bpm>0</bpm>
<rpm>0.00</rpm>
</extensions>
</trkpt>
<trkpt lat="31.039299011" lon="34.718219757">
<ele>280.921875</ele>
<time>2013-11-20T07:25:04Z</time>
<speed>3.250000</speed>
<extensions>
<speed>3.2</speed>
<temp>0.00</temp>
<bpm>0</bpm>
<rpm>0.00</rpm>
</extensions>
</trkpt>
<trkpt lat="31.039268494" lon="34.718399048">
<ele>279.546875</ele>
<time>2013-11-20T07:25:09Z</time>
<speed>3.650000</speed>
<extensions>
<speed>3.7</speed>
<temp>0.00</temp>
<bpm>0</bpm>
<rpm>0.00</rpm>
</extensions>
</trkpt>
<trkpt lat="31.039247513" lon="34.718589783">
<ele>280.398438</ele>
<time>2013-11-20T07:25:14Z</time>
<speed>3.510000</speed>
<extensions>
<speed>3.5</speed>
<temp>0.00</temp>
<bpm>0</bpm>
<rpm>0.00</rpm>
</extensions>
</trkpt>
<trkpt lat="31.039209366" lon="34.718784332">
<ele>280.093750</ele>
<time>2013-11-20T07:25:19Z</time>
<speed>3.710000</speed>
<extensions>
<speed>3.7</speed>
<temp>0.00</temp>
<bpm>0</bpm>
<rpm>0.00</rpm>
</extensions>
</trkpt>
<trkpt lat="31.039173126" lon="34.718986511">
<ele>280.265625</ele>
<time>2013-11-20T07:25:24Z</time>
<speed>3.920000</speed>
<extensions>
<speed>3.9</speed>
<temp>0.00</temp>
<bpm>0</bpm>
<rpm>0.00</rpm>
</extensions>
</trkpt>
<trkpt lat="31.039136887" lon="34.719181061">
<ele>280.640625</ele>
<time>2013-11-20T07:25:29Z</time>
<speed>3.720000</speed>
<extensions>
<speed>3.7</speed>
<temp>0.00</temp>
<bpm>0</bpm>
<rpm>0.00</rpm>
</extensions>
</trkpt>
<trkpt lat="31.039127350" lon="34.719387054">
<ele>280.531250</ele>
<time>2013-11-20T07:25:34Z</time>
<speed>3.870000</speed>
<extensions>
<speed>3.9</speed>
<temp>0.00</temp>
<bpm>0</bpm>
<rpm>0.00</rpm>
</extensions>
</trkpt>
<trkpt lat="31.039169312" lon="34.719623566">
<ele>279.968750</ele>
<time>2013-11-20T07:25:39Z</time>
<speed>4.230000</speed>
<extensions>
<speed>4.2</speed>
<temp>0.00</temp>
<bpm>0</bpm>
<rpm>0.00</rpm>
</extensions>
</trkpt>
<trkpt lat="31.039258957" lon="34.719825745">
<ele>281.484375</ele>
<time>2013-11-20T07:25:44Z</time>
<speed>4.430000</speed>
<extensions>
<speed>4.4</speed>
<temp>0.00</temp>
<bpm>0</bpm>
<rpm>0.00</rpm>
</extensions>
</trkpt>
<trkpt lat="31.039411545" lon="34.720008850">
<ele>280.851563</ele>
<time>2013-11-20T07:25:49Z</time>
<speed>4.890000</speed>
<extensions>
<speed>4.9</speed>
<temp>0.00</temp>
<bpm>0</bpm>
<rpm>0.00</rpm>
</extensions>
</trkpt>
<trkpt lat="31.039592743" lon="34.720180511">
<ele>279.703125</ele>
<time>2013-11-20T07:25:54Z</time>
<speed>5.300000</speed>
<extensions>
<speed>5.3</speed>
<temp>0.00</temp>
<bpm>0</bpm>
<rpm>0.00</rpm>
</extensions>
</trkpt>
<trkpt lat="31.039772034" lon="34.720375061">
<ele>278.523438</ele>
<time>2013-11-20T07:25:59Z</time>
<speed>5.450000</speed>
<extensions>
<speed>5.5</speed>
<temp>0.00</temp>
<bpm>0</bpm>
<rpm>0.00</rpm>
</extensions>
</trkpt>
<trkpt lat="31.039966583" lon="34.720554352">
<ele>277.531250</ele>
<time>2013-11-20T07:26:04Z</time>
<speed>5.520000</speed>
<extensions>
<speed>5.5</speed>
<temp>0.00</temp>
<bpm>0</bpm>
<rpm>0.00</rpm>
</extensions>
</trkpt>
<trkpt lat="31.040155411" lon="34.720748901">
<ele>276.921875</ele>
<time>2013-11-20T07:26:09Z</time>
<speed>5.400000</speed>
<extensions>
<speed>5.4</speed>
<temp>0.00</temp>
<bpm>0</bpm>
<rpm>0.00</rpm>
</extensions>
</trkpt>
<trkpt lat="31.040334702" lon="34.720935822">
<ele>277.484375</ele>
<time>2013-11-20T07:26:14Z</time>
<speed>5.190000</speed>
<extensions>
<speed>5.2</speed>
<temp>0.00</temp>
<bpm>0</bpm>
<rpm>0.00</rpm>
</extensions>
</trkpt>
<trkpt lat="31.040513992" lon="34.721115112">
<ele>279.195313</ele>
<time>2013-11-20T07:26:19Z</time>
<speed>5.170000</speed>
<extensions>
<speed>5.2</speed>
<temp>0.00</temp>
<bpm>0</bpm>
<rpm>0.00</rpm>
</extensions>
</trkpt>
<trkpt lat="31.040699005" lon="34.721298218">
<ele>279.984375</ele>
<time>2013-11-20T07:26:24Z</time>
<speed>5.300000</speed>
<extensions>
<speed>5.3</speed>
<temp>0.00</temp>
<bpm>0</bpm>
<rpm>0.00</rpm>
</extensions>
</trkpt>
<trkpt lat="31.040868759" lon="34.721488953">
<ele>279.601563</ele>
<time>2013-11-20T07:26:29Z</time>
<speed>5.100000</speed>
<extensions>
<speed>5.1</speed>
<temp>0.00</temp>
<bpm>0</bpm>
<rpm>0.00</rpm>
</extensions>
</trkpt>
<trkpt lat="31.040990829" lon="34.721717834">
<ele>280.250000</ele>
<time>2013-11-20T07:26:34Z</time>
<speed>5.040000</speed>
<extensions>
<speed>5.0</speed>
<temp>0.00</temp>
<bpm>0</bpm>
<rpm>0.00</rpm>
</extensions>
</trkpt>
<trkpt lat="31.041118622" lon="34.721935272">
<ele>280.484375</ele>
<time>2013-11-20T07:26:39Z</time>
<speed>4.670000</speed>
<extensions>
<speed>4.7</speed>
<temp>0.00</temp>
<bpm>0</bpm>
<rpm>0.00</rpm>
</extensions>
</trkpt>
<trkpt lat="31.041233063" lon="34.722141266">
<ele>281.507813</ele>
<time>2013-11-20T07:26:44Z</time>
<speed>4.800000</speed>
<extensions>
<speed>4.8</speed>
<temp>0.00</temp>
<bpm>0</bpm>
<rpm>0.00</rpm>
</extensions>
</trkpt>
<trkpt lat="31.041339874" lon="34.722347260">
<ele>280.984375</ele>
<time>2013-11-20T07:26:49Z</time>
<speed>4.760000</speed>
<extensions>
<speed>4.8</speed>
<temp>0.00</temp>
<bpm>0</bpm>
<rpm>0.00</rpm>
</extensions>
</trkpt>
<trkpt lat="31.041456223" lon="34.722549438">
<ele>281.007813</ele>
<time>2013-11-20T07:26:54Z</time>
<speed>4.710000</speed>
<extensions>
<speed>4.7</speed>
<temp>0.00</temp>
<bpm>0</bpm>
<rpm>0.00</rpm>
</extensions>
</trkpt>
<trkpt lat="31.041568756" lon="34.722743988">
<ele>282.351563</ele>
<time>2013-11-20T07:26:59Z</time>
<speed>4.610000</speed>
<extensions>
<speed>4.6</speed>
<temp>0.00</temp>
<bpm>0</bpm>
<rpm>0.00</rpm>
</extensions>
</trkpt>
<trkpt lat="31.041677475" lon="34.722934723">
<ele>279.632813</ele>
<time>2013-11-20T07:27:04Z</time>
<speed>4.340000</speed>
<extensions>
<speed>4.3</speed>
<temp>0.00</temp>
<bpm>0</bpm>
<rpm>0.00</rpm>
</extensions>
</trkpt>
<trkpt lat="31.041790009" lon="34.723106384">
<ele>279.812500</ele>
<time>2013-11-20T07:27:09Z</time>
<speed>4.150000</speed>
<extensions>
<speed>4.1</speed>
<temp>0.00</temp>
<bpm>0</bpm>
<rpm>0.00</rpm>
</extensions>
</trkpt>
<trkpt lat="31.041917801" lon="34.723266602">
<ele>279.304688</ele>
<time>2013-11-20T07:27:14Z</time>
<speed>4.060000</speed>
<extensions>
<speed>4.1</speed>
<temp>0.00</temp>
<bpm>0</bpm>
<rpm>0.00</rpm>
</extensions>
</trkpt>
<trkpt lat="31.042062759" lon="34.723392487">
<ele>278.437500</ele>
<time>2013-11-20T07:27:19Z</time>
<speed>4.330000</speed>
<extensions>
<speed>4.3</speed>
<temp>0.00</temp>
<bpm>0</bpm>
<rpm>0.00</rpm>
</extensions>
</trkpt>
<trkpt lat="31.042259216" lon="34.723491669">
<ele>278.671875</ele>
<time>2013-11-20T07:27:24Z</time>
<speed>5.100000</speed>
<extensions>
<speed>5.1</speed>
<temp>0.00</temp>
<bpm>0</bpm>
<rpm>0.00</rpm>
</extensions>
</trkpt>
<trkpt lat="31.042486191" lon="34.723602295">
<ele>278.335938</ele>
<time>2013-11-20T07:27:29Z</time>
<speed>5.750000</speed>
<extensions>
<speed>5.8</speed>
<temp>0.00</temp>
<bpm>0</bpm>
<rpm>0.00</rpm>
</extensions>
</trkpt>
<trkpt lat="31.042669296" lon="34.723674774">
<ele>277.250000</ele>
<time>2013-11-20T07:27:34Z</time>
<speed>3.240000</speed>
<extensions>
<speed>3.2</speed>
<temp>0.00</temp>
<bpm>0</bpm>
<rpm>0.00</rpm>
</extensions>
</trkpt>
<trkpt lat="31.042852402" lon="34.723789215">
<ele>276.093750</ele>
<time>2013-11-20T07:27:39Z</time>
<speed>5.490000</speed>
<extensions>
<speed>5.5</speed>
<temp>0.00</temp>
<bpm>0</bpm>
<rpm>0.00</rpm>
</extensions>
</trkpt>
<trkpt lat="31.043100357" lon="34.723941803">
<ele>275.906250</ele>
<time>2013-11-20T07:27:44Z</time>
<speed>6.790000</speed>
<extensions>
<speed>6.8</speed>
<temp>0.00</temp>
<bpm>0</bpm>
<rpm>0.00</rpm>
</extensions>
</trkpt>
<trkpt lat="31.043390274" lon="34.724071503">
<ele>275.484375</ele>
<time>2013-11-20T07:27:49Z</time>
<speed>7.070000</speed>
<extensions>
<speed>7.1</speed>
<temp>0.00</temp>
<bpm>0</bpm>
<rpm>0.00</rpm>
</extensions>
</trkpt>
<trkpt lat="31.043693542" lon="34.724197388">
<ele>276.171875</ele>
<time>2013-11-20T07:27:54Z</time>
<speed>6.940000</speed>
<extensions>
<speed>6.9</speed>
<temp>0.00</temp>
<bpm>0</bpm>
<rpm>0.00</rpm>
</extensions>
</trkpt>
<trkpt lat="31.043958664" lon="34.724281311">
<ele>275.312500</ele>
<time>2013-11-20T07:27:59Z</time>
<speed>5.430000</speed>
<extensions>
<speed>5.4</speed>
<temp>0.00</temp>
<bpm>0</bpm>
<rpm>0.00</rpm>
</extensions>
</trkpt>
<trkpt lat="31.044206619" lon="34.724357605">
<ele>275.843750</ele>
<time>2013-11-20T07:28:04Z</time>
<speed>6.070000</speed>
<extensions>
<speed>6.1</speed>
<temp>0.00</temp>
<bpm>0</bpm>
<rpm>0.00</rpm>
</extensions>
</trkpt>
<trkpt lat="31.044487000" lon="34.724403381">
<ele>274.609375</ele>
<time>2013-11-20T07:28:09Z</time>
<speed>6.140000</speed>
<extensions>
<speed>6.1</speed>
<temp>0.00</temp>
<bpm>0</bpm>
<rpm>0.00</rpm>
</extensions>
</trkpt>
<trkpt lat="31.044778824" lon="34.724395752">
<ele>275.445313</ele>
<time>2013-11-20T07:28:14Z</time>
<speed>6.060000</speed>
<extensions>
<speed>6.1</speed>
<temp>0.00</temp>
<bpm>0</bpm>
<rpm>0.00</rpm>
</extensions>
</trkpt>
<trkpt lat="31.045043945" lon="34.724338531">
<ele>279.343750</ele>
<time>2013-11-20T07:28:19Z</time>
<speed>5.750000</speed>
<extensions>
<speed>5.8</speed>
<temp>0.00</temp>
<bpm>0</bpm>
<rpm>0.00</rpm>
</extensions>
</trkpt>
<trkpt lat="31.045330048" lon="34.724243164">
<ele>282.218750</ele>
<time>2013-11-20T07:28:24Z</time>
<speed>6.240000</speed>
<extensions>
<speed>6.2</speed>
<temp>0.00</temp>
<bpm>0</bpm>
<rpm>0.00</rpm>
</extensions>
</trkpt>
<trkpt lat="31.045568466" lon="34.724121094">
<ele>283.023438</ele>
<time>2013-11-20T07:28:29Z</time>
<speed>4.250000</speed>
<extensions>
<speed>4.3</speed>
<temp>0.00</temp>
<bpm>0</bpm>
<rpm>0.00</rpm>
</extensions>
</trkpt>
<trkpt lat="31.045681000" lon="34.724082947">
<ele>281.679688</ele>
<time>2013-11-20T07:28:34Z</time>
<speed>2.360000</speed>
<extensions>
<speed>2.4</speed>
<temp>0.00</temp>
<bpm>0</bpm>
<rpm>0.00</rpm>
</extensions>
</trkpt>
<trkpt lat="31.045806885" lon="34.724021912">
<ele>280.953125</ele>
<time>2013-11-20T07:28:39Z</time>
<speed>3.290000</speed>
<extensions>
<speed>3.3</speed>
<temp>0.00</temp>
<bpm>0</bpm>
<rpm>0.00</rpm>
</extensions>
</trkpt>
<trkpt lat="31.045976639" lon="34.723953247">
<ele>280.242188</ele>
<time>2013-11-20T07:28:44Z</time>
<speed>4.060000</speed>
<extensions>
<speed>4.1</speed>
<temp>0.00</temp>
<bpm>0</bpm>
<rpm>0.00</rpm>
</extensions>
</trkpt>
<trkpt lat="31.046146393" lon="34.723926544">
<ele>280.398438</ele>
<time>2013-11-20T07:28:49Z</time>
<speed>3.560000</speed>
<extensions>
<speed>3.6</speed>
<temp>0.00</temp>
<bpm>0</bpm>
<rpm>0.00</rpm>
</extensions>
</trkpt>
<trkpt lat="31.046306610" lon="34.723899841">
<ele>281.500000</ele>
<time>2013-11-20T07:28:54Z</time>
<speed>3.600000</speed>
<extensions>
<speed>3.6</speed>
<temp>0.00</temp>
<bpm>0</bpm>
<rpm>0.00</rpm>
</extensions>
</trkpt>
<trkpt lat="31.046482086" lon="34.723876953">
<ele>281.007813</ele>
<time>2013-11-20T07:28:59Z</time>
<speed>3.950000</speed>
<extensions>
<speed>4.0</speed>
<temp>0.00</temp>
<bpm>0</bpm>
<rpm>0.00</rpm>
</extensions>
</trkpt>
<trkpt lat="31.046663284" lon="34.723873138">
<ele>280.789063</ele>
<time>2013-11-20T07:29:04Z</time>
<speed>3.810000</speed>
<extensions>
<speed>3.8</speed>
<temp>0.00</temp>
<bpm>0</bpm>
<rpm>0.00</rpm>
</extensions>
</trkpt>
<trkpt lat="31.046846390" lon="34.723911285">
<ele>278.859375</ele>
<time>2013-11-20T07:29:09Z</time>
<speed>4.380000</speed>
<extensions>
<speed>4.4</speed>
<temp>0.00</temp>
<bpm>0</bpm>
<rpm>0.00</rpm>
</extensions>
</trkpt>
<trkpt lat="31.047048569" lon="34.723979950">
<ele>277.906250</ele>
<time>2013-11-20T07:29:14Z</time>
<speed>5.380000</speed>
<extensions>
<speed>5.4</speed>
<temp>0.00</temp>
<bpm>0</bpm>
<rpm>0.00</rpm>
</extensions>
</trkpt>
<trkpt lat="31.047279358" lon="34.724086761">
<ele>276.843750</ele>
<time>2013-11-20T07:29:19Z</time>
<speed>5.800000</speed>
<extensions>
<speed>5.8</speed>
<temp>0.00</temp>
<bpm>0</bpm>
<rpm>0.00</rpm>
</extensions>
</trkpt>
<trkpt lat="31.047506332" lon="34.724246979">
<ele>277.468750</ele>
<time>2013-11-20T07:29:24Z</time>
<speed>5.630000</speed>
<extensions>
<speed>5.6</speed>
<temp>0.00</temp>
<bpm>0</bpm>
<rpm>0.00</rpm>
</extensions>
</trkpt>
<trkpt lat="31.047712326" lon="34.724437714">
<ele>277.695313</ele>
<time>2013-11-20T07:29:29Z</time>
<speed>6.190000</speed>
<extensions>
<speed>6.2</speed>
<temp>0.00</temp>
<bpm>0</bpm>
<rpm>0.00</rpm>
</extensions>
</trkpt>
<trkpt lat="31.047929764" lon="34.724658966">
<ele>277.070313</ele>
<time>2013-11-20T07:29:34Z</time>
<speed>6.300000</speed>
<extensions>
<speed>6.3</speed>
<temp>0.00</temp>
<bpm>0</bpm>
<rpm>0.00</rpm>
</extensions>
</trkpt>
<trkpt lat="31.048139572" lon="34.724872589">
<ele>276.445313</ele>
<time>2013-11-20T07:29:39Z</time>
<speed>6.020000</speed>
<extensions>
<speed>6.0</speed>
<temp>0.00</temp>
<bpm>0</bpm>
<rpm>0.00</rpm>
</extensions>
</trkpt>
<trkpt lat="31.048351288" lon="34.725074768">
<ele>276.406250</ele>
<time>2013-11-20T07:29:44Z</time>
<speed>5.770000</speed>
<extensions>
<speed>5.8</speed>
<temp>0.00</temp>
<bpm>0</bpm>
<rpm>0.00</rpm>
</extensions>
</trkpt>
<trkpt lat="31.048559189" lon="34.725280762">
<ele>275.492188</ele>
<time>2013-11-20T07:29:49Z</time>
<speed>6.120000</speed>
<extensions>
<speed>6.1</speed>
<temp>0.00</temp>
<bpm>0</bpm>
<rpm>0.00</rpm>
</extensions>
</trkpt>
<trkpt lat="31.048774719" lon="34.725498199">
<ele>274.343750</ele>
<time>2013-11-20T07:29:54Z</time>
<speed>6.170000</speed>
<extensions>
<speed>6.2</speed>
<temp>0.00</temp>
<bpm>0</bpm>
<rpm>0.00</rpm>
</extensions>
</trkpt>
<trkpt lat="31.048984528" lon="34.725708008">
<ele>272.765625</ele>
<time>2013-11-20T07:29:59Z</time>
<speed>6.320000</speed>
<extensions>
<speed>6.3</speed>
<temp>0.00</temp>
<bpm>0</bpm>
<rpm>0.00</rpm>
</extensions>
</trkpt>
<trkpt lat="31.049192429" lon="34.725925446">
<ele>271.898438</ele>
<time>2013-11-20T07:30:04Z</time>
<speed>6.170000</speed>
<extensions>
<speed>6.2</speed>
<temp>0.00</temp>
<bpm>0</bpm>
<rpm>0.00</rpm>
</extensions>
</trkpt>
<trkpt lat="31.049404144" lon="34.726150513">
<ele>272.125000</ele>
<time>2013-11-20T07:30:09Z</time>
<speed>6.220000</speed>
<extensions>
<speed>6.2</speed>
<temp>0.00</temp>
<bpm>0</bpm>
<rpm>0.00</rpm>
</extensions>
</trkpt>
<trkpt lat="31.049621582" lon="34.726356506">
<ele>272.867188</ele>
<time>2013-11-20T07:30:14Z</time>
<speed>6.090000</speed>
<extensions>
<speed>6.1</speed>
<temp>0.00</temp>
<bpm>0</bpm>
<rpm>0.00</rpm>
</extensions>
</trkpt>
<trkpt lat="31.049831390" lon="34.726573944">
<ele>272.140625</ele>
<time>2013-11-20T07:30:19Z</time>
<speed>6.190000</speed>
<extensions>
<speed>6.2</speed>
<temp>0.00</temp>
<bpm>0</bpm>
<rpm>0.00</rpm>
</extensions>
</trkpt>
<trkpt lat="31.050045013" lon="34.726772308">
<ele>271.453125</ele>
<time>2013-11-20T07:30:24Z</time>
<speed>6.110000</speed>
<extensions>
<speed>6.1</speed>
<temp>0.00</temp>
<bpm>0</bpm>
<rpm>0.00</rpm>
</extensions>
</trkpt>
<trkpt lat="31.050249100" lon="34.726982117">
<ele>270.195313</ele>
<time>2013-11-20T07:30:29Z</time>
<speed>6.150000</speed>
<extensions>
<speed>6.1</speed>
<temp>0.00</temp>
<bpm>0</bpm>
<rpm>0.00</rpm>
</extensions>
</trkpt>
<trkpt lat="31.050468445" lon="34.727207184">
<ele>269.476563</ele>
<time>2013-11-20T07:30:34Z</time>
<speed>6.110000</speed>
<extensions>
<speed>6.1</speed>
<temp>0.00</temp>
<bpm>0</bpm>
<rpm>0.00</rpm>
</extensions>
</trkpt>
<trkpt lat="31.050592422" lon="34.727478027">
<ele>269.609375</ele>
<time>2013-11-20T07:30:39Z</time>
<speed>6.390000</speed>
<extensions>
<speed>6.4</speed>
<temp>0.00</temp>
<bpm>0</bpm>
<rpm>0.00</rpm>
</extensions>
</trkpt>
<trkpt lat="31.050445557" lon="34.727756500">
<ele>270.109375</ele>
<time>2013-11-20T07:30:44Z</time>
<speed>5.920000</speed>
<extensions>
<speed>5.9</speed>
<temp>0.00</temp>
<bpm>0</bpm>
<rpm>0.00</rpm>
</extensions>
</trkpt>
<trkpt lat="31.050291061" lon="34.727977753">
<ele>269.171875</ele>
<time>2013-11-20T07:30:49Z</time>
<speed>5.100000</speed>
<extensions>
<speed>5.1</speed>
<temp>0.00</temp>
<bpm>0</bpm>
<rpm>0.00</rpm>
</extensions>
</trkpt>
<trkpt lat="31.050146103" lon="34.728176117">
<ele>269.945313</ele>
<time>2013-11-20T07:30:54Z</time>
<speed>5.480000</speed>
<extensions>
<speed>5.5</speed>
<temp>0.00</temp>
<bpm>0</bpm>
<rpm>0.00</rpm>
</extensions>
</trkpt>
<trkpt lat="31.049991608" lon="34.728378296">
<ele>271.718750</ele>
<time>2013-11-20T07:30:59Z</time>
<speed>4.870000</speed>
<extensions>
<speed>4.9</speed>
<temp>0.00</temp>
<bpm>0</bpm>
<rpm>0.00</rpm>
</extensions>
</trkpt>
<trkpt lat="31.049842834" lon="34.728565216">
<ele>272.781250</ele>
<time>2013-11-20T07:31:04Z</time>
<speed>4.840000</speed>
<extensions>
<speed>4.8</speed>
<temp>0.00</temp>
<bpm>0</bpm>
<rpm>0.00</rpm>
</extensions>
</trkpt>
<trkpt lat="31.049674988" lon="34.728740692">
<ele>275.062500</ele>
<time>2013-11-20T07:31:09Z</time>
<speed>4.510000</speed>
<extensions>
<speed>4.5</speed>
<temp>0.00</temp>
<bpm>0</bpm>
<rpm>0.00</rpm>
</extensions>
</trkpt>
<trkpt lat="31.049526215" lon="34.728919983">
<ele>275.921875</ele>
<time>2013-11-20T07:31:14Z</time>
<speed>4.450000</speed>
<extensions>
<speed>4.5</speed>
<temp>0.00</temp>
<bpm>0</bpm>
<rpm>0.00</rpm>
</extensions>
</trkpt>
<trkpt lat="31.049402237" lon="34.729072571">
<ele>277.054688</ele>
<time>2013-11-20T07:31:19Z</time>
<speed>4.000000</speed>
<extensions>
<speed>4.0</speed>
<temp>0.00</temp>
<bpm>0</bpm>
<rpm>0.00</rpm>
</extensions>
</trkpt>
<trkpt lat="31.049238205" lon="34.729217529">
<ele>277.585938</ele>
<time>2013-11-20T07:31:24Z</time>
<speed>4.260000</speed>
<extensions>
<speed>4.3</speed>
<temp>0.00</temp>
<bpm>0</bpm>
<rpm>0.00</rpm>
</extensions>
</trkpt>
<trkpt lat="31.049093246" lon="34.729366302">
<ele>276.601563</ele>
<time>2013-11-20T07:31:29Z</time>
<speed>4.480000</speed>
<extensions>
<speed>4.5</speed>
<temp>0.00</temp>
<bpm>0</bpm>
<rpm>0.00</rpm>
</extensions>
</trkpt>
<trkpt lat="31.048938751" lon="34.729518890">
<ele>276.945313</ele>
<time>2013-11-20T07:31:34Z</time>
<speed>4.330000</speed>
<extensions>
<speed>4.3</speed>
<temp>0.00</temp>
<bpm>0</bpm>
<rpm>0.00</rpm>
</extensions>
</trkpt>
<trkpt lat="31.048788071" lon="34.729671478">
<ele>277.164063</ele>
<time>2013-11-20T07:31:39Z</time>
<speed>4.150000</speed>
<extensions>
<speed>4.1</speed>
<temp>0.00</temp>
<bpm>0</bpm>
<rpm>0.00</rpm>
</extensions>
</trkpt>
<trkpt lat="31.048639297" lon="34.729839325">
<ele>276.179688</ele>
<time>2013-11-20T07:31:44Z</time>
<speed>4.330000</speed>
<extensions>
<speed>4.3</speed>
<temp>0.00</temp>
<bpm>0</bpm>
<rpm>0.00</rpm>
</extensions>
</trkpt>
<trkpt lat="31.048488617" lon="34.730003357">
<ele>276.617188</ele>
<time>2013-11-20T07:31:49Z</time>
<speed>4.700000</speed>
<extensions>
<speed>4.7</speed>
<temp>0.00</temp>
<bpm>0</bpm>
<rpm>0.00</rpm>
</extensions>
</trkpt>
<trkpt lat="31.048332214" lon="34.730155945">
<ele>277.671875</ele>
<time>2013-11-20T07:31:54Z</time>
<speed>4.570000</speed>
<extensions>
<speed>4.6</speed>
<temp>0.00</temp>
<bpm>0</bpm>
<rpm>0.00</rpm>
</extensions>
</trkpt>
<trkpt lat="31.048181534" lon="34.730304718">
<ele>277.562500</ele>
<time>2013-11-20T07:31:59Z</time>
<speed>4.200000</speed>
<extensions>
<speed>4.2</speed>
<temp>0.00</temp>
<bpm>0</bpm>
<rpm>0.00</rpm>
</extensions>
</trkpt>
<trkpt lat="31.048046112" lon="34.730468750">
<ele>281.703125</ele>
<time>2013-11-20T07:32:04Z</time>
<speed>4.260000</speed>
<extensions>
<speed>4.3</speed>
<temp>0.00</temp>
<bpm>0</bpm>
<rpm>0.00</rpm>
</extensions>
</trkpt>
<trkpt lat="31.047914505" lon="34.730621338">
<ele>282.148438</ele>
<time>2013-11-20T07:32:09Z</time>
<speed>4.140000</speed>
<extensions>
<speed>4.1</speed>
<temp>0.00</temp>
<bpm>0</bpm>
<rpm>0.00</rpm>
</extensions>
</trkpt>
<trkpt lat="31.047777176" lon="34.730766296">
<ele>282.585938</ele>
<time>2013-11-20T07:32:14Z</time>
<speed>3.870000</speed>
<extensions>
<speed>3.9</speed>
<temp>0.00</temp>
<bpm>0</bpm>
<rpm>0.00</rpm>
</extensions>
</trkpt>
<trkpt lat="31.047643661" lon="34.730895996">
<ele>281.992188</ele>
<time>2013-11-20T07:32:19Z</time>
<speed>3.750000</speed>
<extensions>
<speed>3.8</speed>
<temp>0.00</temp>
<bpm>0</bpm>
<rpm>0.00</rpm>
</extensions>
</trkpt>
<trkpt lat="31.047504425" lon="34.731025696">
<ele>281.203125</ele>
<time>2013-11-20T07:32:24Z</time>
<speed>4.010000</speed>
<extensions>
<speed>4.0</speed>
<temp>0.00</temp>
<bpm>0</bpm>
<rpm>0.00</rpm>
</extensions>
</trkpt>
<trkpt lat="31.047357559" lon="34.731170654">
<ele>283.414063</ele>
<time>2013-11-20T07:32:29Z</time>
<speed>4.000000</speed>
<extensions>
<speed>4.0</speed>
<temp>0.00</temp>
<bpm>0</bpm>
<rpm>0.00</rpm>
</extensions>
</trkpt>
<trkpt lat="31.047210693" lon="34.731296539">
<ele>283.195313</ele>
<time>2013-11-20T07:32:34Z</time>
<speed>4.370000</speed>
<extensions>
<speed>4.4</speed>
<temp>0.00</temp>
<bpm>0</bpm>
<rpm>0.00</rpm>
</extensions>
</trkpt>
<trkpt lat="31.047061920" lon="34.731430054">
<ele>283.460938</ele>
<time>2013-11-20T07:32:39Z</time>
<speed>4.110000</speed>
<extensions>
<speed>4.1</speed>
<temp>0.00</temp>
<bpm>0</bpm>
<rpm>0.00</rpm>
</extensions>
</trkpt>
<trkpt lat="31.046895981" lon="34.731582642">
<ele>283.820313</ele>
<time>2013-11-20T07:32:44Z</time>
<speed>4.190000</speed>
<extensions>
<speed>4.2</speed>
<temp>0.00</temp>
<bpm>0</bpm>
<rpm>0.00</rpm>
</extensions>
</trkpt>
<trkpt lat="31.046741486" lon="34.731716156">
<ele>284.015625</ele>
<time>2013-11-20T07:32:49Z</time>
<speed>4.400000</speed>
<extensions>
<speed>4.4</speed>
<temp>0.00</temp>
<bpm>0</bpm>
<rpm>0.00</rpm>
</extensions>
</trkpt>
<trkpt lat="31.046596527" lon="34.731845856">
<ele>283.960938</ele>
<time>2013-11-20T07:32:54Z</time>
<speed>4.280000</speed>
<extensions>
<speed>4.3</speed>
<temp>0.00</temp>
<bpm>0</bpm>
<rpm>0.00</rpm>
</extensions>
</trkpt>
<trkpt lat="31.046449661" lon="34.731952667">
<ele>283.851563</ele>
<time>2013-11-20T07:32:59Z</time>
<speed>3.630000</speed>
<extensions>
<speed>3.6</speed>
<temp>0.00</temp>
<bpm>0</bpm>
<rpm>0.00</rpm>
</extensions>
</trkpt>
<trkpt lat="31.046285629" lon="34.732059479">
<ele>284.421875</ele>
<time>2013-11-20T07:33:04Z</time>
<speed>4.340000</speed>
<extensions>
<speed>4.3</speed>
<temp>0.00</temp>
<bpm>0</bpm>
<rpm>0.00</rpm>
</extensions>
</trkpt>
<trkpt lat="31.046119690" lon="34.732162476">
<ele>285.398438</ele>
<time>2013-11-20T07:33:09Z</time>
<speed>4.230000</speed>
<extensions>
<speed>4.2</speed>
<temp>0.00</temp>
<bpm>0</bpm>
<rpm>0.00</rpm>
</extensions>
</trkpt>
<trkpt lat="31.045951843" lon="34.732276917">
<ele>284.367188</ele>
<time>2013-11-20T07:33:14Z</time>
<speed>4.240000</speed>
<extensions>
<speed>4.2</speed>
<temp>0.00</temp>
<bpm>0</bpm>
<rpm>0.00</rpm>
</extensions>
</trkpt>
<trkpt lat="31.045768738" lon="34.732398987">
<ele>283.718750</ele>
<time>2013-11-20T07:33:19Z</time>
<speed>4.430000</speed>
<extensions>
<speed>4.4</speed>
<temp>0.00</temp>
<bpm>0</bpm>
<rpm>0.00</rpm>
</extensions>
</trkpt>
<trkpt lat="31.045593262" lon="34.732501984">
<ele>285.203125</ele>
<time>2013-11-20T07:33:24Z</time>
<speed>4.370000</speed>
<extensions>
<speed>4.4</speed>
<temp>0.00</temp>
<bpm>0</bpm>
<rpm>0.00</rpm>
</extensions>
</trkpt>
<trkpt lat="31.045425415" lon="34.732604980">
<ele>287.156250</ele>
<time>2013-11-20T07:33:29Z</time>
<speed>4.210000</speed>
<extensions>
<speed>4.2</speed>
<temp>0.00</temp>
<bpm>0</bpm>
<rpm>0.00</rpm>
</extensions>
</trkpt>
<trkpt lat="31.045263290" lon="34.732685089">
<ele>286.500000</ele>
<time>2013-11-20T07:33:34Z</time>
<speed>3.990000</speed>
<extensions>
<speed>4.0</speed>
<temp>0.00</temp>
<bpm>0</bpm>
<rpm>0.00</rpm>
</extensions>
</trkpt>
<trkpt lat="31.045099258" lon="34.732776642">
<ele>286.335938</ele>
<time>2013-11-20T07:33:39Z</time>
<speed>4.230000</speed>
<extensions>
<speed>4.2</speed>
<temp>0.00</temp>
<bpm>0</bpm>
<rpm>0.00</rpm>
</extensions>
</trkpt>
<trkpt lat="31.044916153" lon="34.732864380">
<ele>286.171875</ele>
<time>2013-11-20T07:33:44Z</time>
<speed>4.260000</speed>
<extensions>
<speed>4.3</speed>
<temp>0.00</temp>
<bpm>0</bpm>
<rpm>0.00</rpm>
</extensions>
</trkpt>
<trkpt lat="31.044744492" lon="34.732959747">
<ele>287.031250</ele>
<time>2013-11-20T07:33:49Z</time>
<speed>4.360000</speed>
<extensions>
<speed>4.4</speed>
<temp>0.00</temp>
<bpm>0</bpm>
<rpm>0.00</rpm>
</extensions>
</trkpt>
<trkpt lat="31.044574738" lon="34.733058929">
<ele>287.757813</ele>
<time>2013-11-20T07:33:54Z</time>
<speed>4.360000</speed>
<extensions>
<speed>4.4</speed>
<temp>0.00</temp>
<bpm>0</bpm>
<rpm>0.00</rpm>
</extensions>
</trkpt>
<trkpt lat="31.044397354" lon="34.733158112">
<ele>287.820313</ele>
<time>2013-11-20T07:33:59Z</time>
<speed>3.960000</speed>
<extensions>
<speed>4.0</speed>
<temp>0.00</temp>
<bpm>0</bpm>
<rpm>0.00</rpm>
</extensions>
</trkpt>
<trkpt lat="31.044225693" lon="34.733257294">
<ele>288.078125</ele>
<time>2013-11-20T07:34:04Z</time>
<speed>4.230000</speed>
<extensions>
<speed>4.2</speed>
<temp>0.00</temp>
<bpm>0</bpm>
<rpm>0.00</rpm>
</extensions>
</trkpt>
<trkpt lat="31.044046402" lon="34.733352661">
<ele>289.476563</ele>
<time>2013-11-20T07:34:09Z</time>
<speed>4.310000</speed>
<extensions>
<speed>4.3</speed>
<temp>0.00</temp>
<bpm>0</bpm>
<rpm>0.00</rpm>
</extensions>
</trkpt>
<trkpt lat="31.043874741" lon="34.733459473">
<ele>290.609375</ele>
<time>2013-11-20T07:34:14Z</time>
<speed>4.500000</speed>
<extensions>
<speed>4.5</speed>
<temp>0.00</temp>
<bpm>0</bpm>
<rpm>0.00</rpm>
</extensions>
</trkpt>
<trkpt lat="31.043689728" lon="34.733589172">
<ele>292.742188</ele>
<time>2013-11-20T07:34:19Z</time>
<speed>4.650000</speed>
<extensions>
<speed>4.6</speed>
<temp>0.00</temp>
<bpm>0</bpm>
<rpm>0.00</rpm>
</extensions>
</trkpt>
<trkpt lat="31.043508530" lon="34.733730316">
<ele>292.796875</ele>
<time>2013-11-20T07:34:24Z</time>
<speed>4.780000</speed>
<extensions>
<speed>4.8</speed>
<temp>0.00</temp>
<bpm>0</bpm>
<rpm>0.00</rpm>
</extensions>
</trkpt>
<trkpt lat="31.043334961" lon="34.733890533">
<ele>293.531250</ele>
<time>2013-11-20T07:34:29Z</time>
<speed>4.910000</speed>
<extensions>
<speed>4.9</speed>
<temp>0.00</temp>
<bpm>0</bpm>
<rpm>0.00</rpm>
</extensions>
</trkpt>
<trkpt lat="31.043169022" lon="34.734058380">
<ele>292.679688</ele>
<time>2013-11-20T07:34:34Z</time>
<speed>4.890000</speed>
<extensions>
<speed>4.9</speed>
<temp>0.00</temp>
<bpm>0</bpm>
<rpm>0.00</rpm>
</extensions>
</trkpt>
<trkpt lat="31.043008804" lon="34.734249115">
<ele>291.992188</ele>
<time>2013-11-20T07:34:39Z</time>
<speed>5.220000</speed>
<extensions>
<speed>5.2</speed>
<temp>0.00</temp>
<bpm>0</bpm>
<rpm>0.00</rpm>
</extensions>
</trkpt>
<trkpt lat="31.042854309" lon="34.734455109">
<ele>291.437500</ele>
<time>2013-11-20T07:34:44Z</time>
<speed>5.150000</speed>
<extensions>
<speed>5.2</speed>
<temp>0.00</temp>
<bpm>0</bpm>
<rpm>0.00</rpm>
</extensions>
</trkpt>
<trkpt lat="31.042690277" lon="34.734680176">
<ele>290.148438</ele>
<time>2013-11-20T07:34:49Z</time>
<speed>5.710000</speed>
<extensions>
<speed>5.7</speed>
<temp>0.00</temp>
<bpm>0</bpm>
<rpm>0.00</rpm>
</extensions>
</trkpt>
<trkpt lat="31.042539597" lon="34.734928131">
<ele>289.484375</ele>
<time>2013-11-20T07:34:54Z</time>
<speed>5.750000</speed>
<extensions>
<speed>5.8</speed>
<temp>0.00</temp>
<bpm>0</bpm>
<rpm>0.00</rpm>
</extensions>
</trkpt>
<trkpt lat="31.042409897" lon="34.735179901">
<ele>289.101563</ele>
<time>2013-11-20T07:34:59Z</time>
<speed>5.770000</speed>
<extensions>
<speed>5.8</speed>
<temp>0.00</temp>
<bpm>0</bpm>
<rpm>0.00</rpm>
</extensions>
</trkpt>
<trkpt lat="31.042282104" lon="34.735462189">
<ele>288.546875</ele>
<time>2013-11-20T07:35:04Z</time>
<speed>6.360000</speed>
<extensions>
<speed>6.4</speed>
<temp>0.00</temp>
<bpm>0</bpm>
<rpm>0.00</rpm>
</extensions>
</trkpt>
<trkpt lat="31.042152405" lon="34.735755920">
<ele>288.320313</ele>
<time>2013-11-20T07:35:09Z</time>
<speed>6.380000</speed>
<extensions>
<speed>6.4</speed>
<temp>0.00</temp>
<bpm>0</bpm>
<rpm>0.00</rpm>
</extensions>
</trkpt>
<trkpt lat="31.042030334" lon="34.736045837">
<ele>287.210938</ele>
<time>2013-11-20T07:35:14Z</time>
<speed>6.320000</speed>
<extensions>
<speed>6.3</speed>
<temp>0.00</temp>
<bpm>0</bpm>
<rpm>0.00</rpm>
</extensions>
</trkpt>
<trkpt lat="31.041898727" lon="34.736339569">
<ele>287.414063</ele>
<time>2013-11-20T07:35:19Z</time>
<speed>6.340000</speed>
<extensions>
<speed>6.3</speed>
<temp>0.00</temp>
<bpm>0</bpm>
<rpm>0.00</rpm>
</extensions>
</trkpt>
<trkpt lat="31.041769028" lon="34.736637115">
<ele>287.320313</ele>
<time>2013-11-20T07:35:24Z</time>
<speed>6.250000</speed>
<extensions>
<speed>6.3</speed>
<temp>0.00</temp>
<bpm>0</bpm>
<rpm>0.00</rpm>
</extensions>
</trkpt>
<trkpt lat="31.041631699" lon="34.736934662">
<ele>288.140625</ele>
<time>2013-11-20T07:35:29Z</time>
<speed>6.510000</speed>
<extensions>
<speed>6.5</speed>
<temp>0.00</temp>
<bpm>0</bpm>
<rpm>0.00</rpm>
</extensions>
</trkpt>
<trkpt lat="31.041503906" lon="34.737228394">
<ele>287.984375</ele>
<time>2013-11-20T07:35:34Z</time>
<speed>6.230000</speed>
<extensions>
<speed>6.2</speed>
<temp>0.00</temp>
<bpm>0</bpm>
<rpm>0.00</rpm>
</extensions>
</trkpt>
<trkpt lat="31.041378021" lon="34.737522125">
<ele>288.156250</ele>
<time>2013-11-20T07:35:39Z</time>
<speed>6.240000</speed>
<extensions>
<speed>6.2</speed>
<temp>0.00</temp>
<bpm>0</bpm>
<rpm>0.00</rpm>
</extensions>
</trkpt>
<trkpt lat="31.041252136" lon="34.737812042">
<ele>287.820313</ele>
<time>2013-11-20T07:35:44Z</time>
<speed>6.240000</speed>
<extensions>
<speed>6.2</speed>
<temp>0.00</temp>
<bpm>0</bpm>
<rpm>0.00</rpm>
</extensions>
</trkpt>
<trkpt lat="31.041118622" lon="34.738113403">
<ele>288.601563</ele>
<time>2013-11-20T07:35:49Z</time>
<speed>6.430000</speed>
<extensions>
<speed>6.4</speed>
<temp>0.00</temp>
<bpm>0</bpm>
<rpm>0.00</rpm>
</extensions>
</trkpt>
<trkpt lat="31.040992737" lon="34.738407135">
<ele>288.312500</ele>
<time>2013-11-20T07:35:54Z</time>
<speed>6.230000</speed>
<extensions>
<speed>6.2</speed>
<temp>0.00</temp>
<bpm>0</bpm>
<rpm>0.00</rpm>
</extensions>
</trkpt>
<trkpt lat="31.040876389" lon="34.738681793">
<ele>288.726563</ele>
<time>2013-11-20T07:35:59Z</time>
<speed>5.670000</speed>
<extensions>
<speed>5.7</speed>
<temp>0.00</temp>
<bpm>0</bpm>
<rpm>0.00</rpm>
</extensions>
</trkpt>
<trkpt lat="31.040754318" lon="34.738929749">
<ele>289.546875</ele>
<time>2013-11-20T07:36:04Z</time>
<speed>5.270000</speed>
<extensions>
<speed>5.3</speed>
<temp>0.00</temp>
<bpm>0</bpm>
<rpm>0.00</rpm>
</extensions>
</trkpt>
<trkpt lat="31.040657043" lon="34.739166260">
<ele>291.031250</ele>
<time>2013-11-20T07:36:09Z</time>
<speed>4.800000</speed>
<extensions>
<speed>4.8</speed>
<temp>0.00</temp>
<bpm>0</bpm>
<rpm>0.00</rpm>
</extensions>
</trkpt>
<trkpt lat="31.040563583" lon="34.739383698">
<ele>291.226563</ele>
<time>2013-11-20T07:36:14Z</time>
<speed>4.710000</speed>
<extensions>
<speed>4.7</speed>
<temp>0.00</temp>
<bpm>0</bpm>
<rpm>0.00</rpm>
</extensions>
</trkpt>
<trkpt lat="31.040464401" lon="34.739597321">
<ele>291.648438</ele>
<time>2013-11-20T07:36:19Z</time>
<speed>4.540000</speed>
<extensions>
<speed>4.5</speed>
<temp>0.00</temp>
<bpm>0</bpm>
<rpm>0.00</rpm>
</extensions>
</trkpt>
<trkpt lat="31.040374756" lon="34.739810944">
<ele>293.085938</ele>
<time>2013-11-20T07:36:24Z</time>
<speed>4.420000</speed>
<extensions>
<speed>4.4</speed>
<temp>0.00</temp>
<bpm>0</bpm>
<rpm>0.00</rpm>
</extensions>
</trkpt>
<trkpt lat="31.040283203" lon="34.740016937">
<ele>295.335938</ele>
<time>2013-11-20T07:36:29Z</time>
<speed>4.560000</speed>
<extensions>
<speed>4.6</speed>
<temp>0.00</temp>
<bpm>0</bpm>
<rpm>0.00</rpm>
</extensions>
</trkpt>
<trkpt lat="31.040185928" lon="34.740234375">
<ele>295.250000</ele>
<time>2013-11-20T07:36:34Z</time>
<speed>4.490000</speed>
<extensions>
<speed>4.5</speed>
<temp>0.00</temp>
<bpm>0</bpm>
<rpm>0.00</rpm>
</extensions>
</trkpt>
<trkpt lat="31.040092468" lon="34.740451813">
<ele>296.046875</ele>
<time>2013-11-20T07:36:39Z</time>
<speed>4.610000</speed>
<extensions>
<speed>4.6</speed>
<temp>0.00</temp>
<bpm>0</bpm>
<rpm>0.00</rpm>
</extensions>
</trkpt>
<trkpt lat="31.040000916" lon="34.740657806">
<ele>298.000000</ele>
<time>2013-11-20T07:36:44Z</time>
<speed>4.160000</speed>
<extensions>
<speed>4.2</speed>
<temp>0.00</temp>
<bpm>0</bpm>
<rpm>0.00</rpm>
</extensions>
</trkpt>
<trkpt lat="31.039905548" lon="34.740863800">
<ele>298.062500</ele>
<time>2013-11-20T07:36:49Z</time>
<speed>4.670000</speed>
<extensions>
<speed>4.7</speed>
<temp>0.00</temp>
<bpm>0</bpm>
<rpm>0.00</rpm>
</extensions>
</trkpt>
<trkpt lat="31.039812088" lon="34.741081238">
<ele>298.914063</ele>
<time>2013-11-20T07:36:54Z</time>
<speed>4.710000</speed>
<extensions>
<speed>4.7</speed>
<temp>0.00</temp>
<bpm>0</bpm>
<rpm>0.00</rpm>
</extensions>
</trkpt>
<trkpt lat="31.039714813" lon="34.741306305">
<ele>299.468750</ele>
<time>2013-11-20T07:36:59Z</time>
<speed>4.890000</speed>
<extensions>
<speed>4.9</speed>
<temp>0.00</temp>
<bpm>0</bpm>
<rpm>0.00</rpm>
</extensions>
</trkpt>
<trkpt lat="31.039611816" lon="34.741531372">
<ele>299.867188</ele>
<time>2013-11-20T07:37:04Z</time>
<speed>4.990000</speed>
<extensions>
<speed>5.0</speed>
<temp>0.00</temp>
<bpm>0</bpm>
<rpm>0.00</rpm>
</extensions>
</trkpt>
<trkpt lat="31.039508820" lon="34.741767883">
<ele>300.242188</ele>
<time>2013-11-20T07:37:09Z</time>
<speed>5.200000</speed>
<extensions>
<speed>5.2</speed>
<temp>0.00</temp>
<bpm>0</bpm>
<rpm>0.00</rpm>
</extensions>
</trkpt>
<trkpt lat="31.039400101" lon="34.742019653">
<ele>300.406250</ele>
<time>2013-11-20T07:37:14Z</time>
<speed>5.410000</speed>
<extensions>
<speed>5.4</speed>
<temp>0.00</temp>
<bpm>0</bpm>
<rpm>0.00</rpm>
</extensions>
</trkpt>
<trkpt lat="31.039291382" lon="34.742271423">
<ele>301.109375</ele>
<time>2013-11-20T07:37:19Z</time>
<speed>5.370000</speed>
<extensions>
<speed>5.4</speed>
<temp>0.00</temp>
<bpm>0</bpm>
<rpm>0.00</rpm>
</extensions>
</trkpt>
<trkpt lat="31.039186478" lon="34.742527008">
<ele>301.914063</ele>
<time>2013-11-20T07:37:24Z</time>
<speed>5.430000</speed>
<extensions>
<speed>5.4</speed>
<temp>0.00</temp>
<bpm>0</bpm>
<rpm>0.00</rpm>
</extensions>
</trkpt>
<trkpt lat="31.039070129" lon="34.742774963">
<ele>302.054688</ele>
<time>2013-11-20T07:37:29Z</time>
<speed>5.360000</speed>
<extensions>
<speed>5.4</speed>
<temp>0.00</temp>
<bpm>0</bpm>
<rpm>0.00</rpm>
</extensions>
</trkpt>
<trkpt lat="31.038955688" lon="34.743026733">
<ele>302.507813</ele>
<time>2013-11-20T07:37:34Z</time>
<speed>5.370000</speed>
<extensions>
<speed>5.4</speed>
<temp>0.00</temp>
<bpm>0</bpm>
<rpm>0.00</rpm>
</extensions>
</trkpt>
<trkpt lat="31.038845062" lon="34.743274689">
<ele>302.992188</ele>
<time>2013-11-20T07:37:39Z</time>
<speed>5.250000</speed>
<extensions>
<speed>5.2</speed>
<temp>0.00</temp>
<bpm>0</bpm>
<rpm>0.00</rpm>
</extensions>
</trkpt>
<trkpt lat="31.038736343" lon="34.743526459">
<ele>303.390625</ele>
<time>2013-11-20T07:37:44Z</time>
<speed>5.270000</speed>
<extensions>
<speed>5.3</speed>
<temp>0.00</temp>
<bpm>0</bpm>
<rpm>0.00</rpm>
</extensions>
</trkpt>
<trkpt lat="31.038633347" lon="34.743774414">
<ele>303.695313</ele>
<time>2013-11-20T07:37:49Z</time>
<speed>5.420000</speed>
<extensions>
<speed>5.4</speed>
<temp>0.00</temp>
<bpm>0</bpm>
<rpm>0.00</rpm>
</extensions>
</trkpt>
<trkpt lat="31.038520813" lon="34.744026184">
<ele>304.132813</ele>
<time>2013-11-20T07:37:54Z</time>
<speed>5.470000</speed>
<extensions>
<speed>5.5</speed>
<temp>0.00</temp>
<bpm>0</bpm>
<rpm>0.00</rpm>
</extensions>
</trkpt>
<trkpt lat="31.038408279" lon="34.744281769">
<ele>304.742188</ele>
<time>2013-11-20T07:37:59Z</time>
<speed>5.490000</speed>
<extensions>
<speed>5.5</speed>
<temp>0.00</temp>
<bpm>0</bpm>
<rpm>0.00</rpm>
</extensions>
</trkpt>
<trkpt lat="31.038297653" lon="34.744541168">
<ele>305.203125</ele>
<time>2013-11-20T07:38:04Z</time>
<speed>5.430000</speed>
<extensions>
<speed>5.4</speed>
<temp>0.00</temp>
<bpm>0</bpm>
<rpm>0.00</rpm>
</extensions>
</trkpt>
<trkpt lat="31.038181305" lon="34.744800568">
<ele>305.437500</ele>
<time>2013-11-20T07:38:09Z</time>
<speed>5.660000</speed>
<extensions>
<speed>5.7</speed>
<temp>0.00</temp>
<bpm>0</bpm>
<rpm>0.00</rpm>
</extensions>
</trkpt>
<trkpt lat="31.038061142" lon="34.745071411">
<ele>306.070313</ele>
<time>2013-11-20T07:38:14Z</time>
<speed>5.730000</speed>
<extensions>
<speed>5.7</speed>
<temp>0.00</temp>
<bpm>0</bpm>
<rpm>0.00</rpm>
</extensions>
</trkpt>
<trkpt lat="31.037937164" lon="34.745342255">
<ele>305.859375</ele>
<time>2013-11-20T07:38:19Z</time>
<speed>5.900000</speed>
<extensions>
<speed>5.9</speed>
<temp>0.00</temp>
<bpm>0</bpm>
<rpm>0.00</rpm>
</extensions>
</trkpt>
<trkpt lat="31.037822723" lon="34.745620728">
<ele>306.484375</ele>
<time>2013-11-20T07:38:24Z</time>
<speed>5.620000</speed>
<extensions>
<speed>5.6</speed>
<temp>0.00</temp>
<bpm>0</bpm>
<rpm>0.00</rpm>
</extensions>
</trkpt>
<trkpt lat="31.037712097" lon="34.745880127">
<ele>306.164063</ele>
<time>2013-11-20T07:38:29Z</time>
<speed>5.600000</speed>
<extensions>
<speed>5.6</speed>
<temp>0.00</temp>
<bpm>0</bpm>
<rpm>0.00</rpm>
</extensions>
</trkpt>
<trkpt lat="31.037603378" lon="34.746154785">
<ele>307.945313</ele>
<time>2013-11-20T07:38:34Z</time>
<speed>5.690000</speed>
<extensions>
<speed>5.7</speed>
<temp>0.00</temp>
<bpm>0</bpm>
<rpm>0.00</rpm>
</extensions>
</trkpt>
<trkpt lat="31.037490845" lon="34.746410370">
<ele>308.234375</ele>
<time>2013-11-20T07:38:39Z</time>
<speed>5.380000</speed>
<extensions>
<speed>5.4</speed>
<temp>0.00</temp>
<bpm>0</bpm>
<rpm>0.00</rpm>
</extensions>
</trkpt>
<trkpt lat="31.037378311" lon="34.746658325">
<ele>307.945313</ele>
<time>2013-11-20T07:38:44Z</time>
<speed>5.350000</speed>
<extensions>
<speed>5.4</speed>
<temp>0.00</temp>
<bpm>0</bpm>
<rpm>0.00</rpm>
</extensions>
</trkpt>
<trkpt lat="31.037267685" lon="34.746898651">
<ele>307.359375</ele>
<time>2013-11-20T07:38:49Z</time>
<speed>5.220000</speed>
<extensions>
<speed>5.2</speed>
<temp>0.00</temp>
<bpm>0</bpm>
<rpm>0.00</rpm>
</extensions>
</trkpt>
<trkpt lat="31.037151337" lon="34.747158051">
<ele>307.015625</ele>
<time>2013-11-20T07:38:54Z</time>
<speed>5.800000</speed>
<extensions>
<speed>5.8</speed>
<temp>0.00</temp>
<bpm>0</bpm>
<rpm>0.00</rpm>
</extensions>
</trkpt>
<trkpt lat="31.037010193" lon="34.747428894">
<ele>306.546875</ele>
<time>2013-11-20T07:38:59Z</time>
<speed>6.430000</speed>
<extensions>
<speed>6.4</speed>
<temp>0.00</temp>
<bpm>0</bpm>
<rpm>0.00</rpm>
</extensions>
</trkpt>
<trkpt lat="31.036827087" lon="34.747726440">
<ele>304.820313</ele>
<time>2013-11-20T07:39:04Z</time>
<speed>6.950000</speed>
<extensions>
<speed>7.0</speed>
<temp>0.00</temp>
<bpm>0</bpm>
<rpm>0.00</rpm>
</extensions>
</trkpt>
<trkpt lat="31.036642075" lon="34.748027802">
<ele>304.578125</ele>
<time>2013-11-20T07:39:09Z</time>
<speed>6.780000</speed>
<extensions>
<speed>6.8</speed>
<temp>0.00</temp>
<bpm>0</bpm>
<rpm>0.00</rpm>
</extensions>
</trkpt>
<trkpt lat="31.036443710" lon="34.748283386">
<ele>304.195313</ele>
<time>2013-11-20T07:39:14Z</time>
<speed>6.470000</speed>
<extensions>
<speed>6.5</speed>
<temp>0.00</temp>
<bpm>0</bpm>
<rpm>0.00</rpm>
</extensions>
</trkpt>
<trkpt lat="31.036224365" lon="34.748504639">
<ele>304.929688</ele>
<time>2013-11-20T07:39:19Z</time>
<speed>5.840000</speed>
<extensions>
<speed>5.8</speed>
<temp>0.00</temp>
<bpm>0</bpm>
<rpm>0.00</rpm>
</extensions>
</trkpt>
<trkpt lat="31.036022186" lon="34.748687744">
<ele>305.648438</ele>
<time>2013-11-20T07:39:24Z</time>
<speed>5.510000</speed>
<extensions>
<speed>5.5</speed>
<temp>0.00</temp>
<bpm>0</bpm>
<rpm>0.00</rpm>
</extensions>
</trkpt>
<trkpt lat="31.035816193" lon="34.748847961">
<ele>306.679688</ele>
<time>2013-11-20T07:39:29Z</time>
<speed>5.390000</speed>
<extensions>
<speed>5.4</speed>
<temp>0.00</temp>
<bpm>0</bpm>
<rpm>0.00</rpm>
</extensions>
</trkpt>
<trkpt lat="31.035596848" lon="34.748985291">
<ele>307.820313</ele>
<time>2013-11-20T07:39:34Z</time>
<speed>5.300000</speed>
<extensions>
<speed>5.3</speed>
<temp>0.00</temp>
<bpm>0</bpm>
<rpm>0.00</rpm>
</extensions>
</trkpt>
<trkpt lat="31.035373688" lon="34.749092102">
<ele>307.960938</ele>
<time>2013-11-20T07:39:39Z</time>
<speed>5.330000</speed>
<extensions>
<speed>5.3</speed>
<temp>0.00</temp>
<bpm>0</bpm>
<rpm>0.00</rpm>
</extensions>
</trkpt>
<trkpt lat="31.035150528" lon="34.749187469">
<ele>308.046875</ele>
<time>2013-11-20T07:39:44Z</time>
<speed>5.260000</speed>
<extensions>
<speed>5.3</speed>
<temp>0.00</temp>
<bpm>0</bpm>
<rpm>0.00</rpm>
</extensions>
</trkpt>
<trkpt lat="31.034925461" lon="34.749271393">
<ele>308.968750</ele>
<time>2013-11-20T07:39:49Z</time>
<speed>5.200000</speed>
<extensions>
<speed>5.2</speed>
<temp>0.00</temp>
<bpm>0</bpm>
<rpm>0.00</rpm>
</extensions>
</trkpt>
<trkpt lat="31.034696579" lon="34.749336243">
<ele>309.343750</ele>
<time>2013-11-20T07:39:54Z</time>
<speed>5.250000</speed>
<extensions>
<speed>5.2</speed>
<temp>0.00</temp>
<bpm>0</bpm>
<rpm>0.00</rpm>
</extensions>
</trkpt>
<trkpt lat="31.034469604" lon="34.749374390">
<ele>310.429688</ele>
<time>2013-11-20T07:39:59Z</time>
<speed>5.070000</speed>
<extensions>
<speed>5.1</speed>
<temp>0.00</temp>
<bpm>0</bpm>
<rpm>0.00</rpm>
</extensions>
</trkpt>
<trkpt lat="31.034254074" lon="34.749404907">
<ele>310.539063</ele>
<time>2013-11-20T07:40:04Z</time>
<speed>4.990000</speed>
<extensions>
<speed>5.0</speed>
<temp>0.00</temp>
<bpm>0</bpm>
<rpm>0.00</rpm>
</extensions>
</trkpt>
<trkpt lat="31.034025192" lon="34.749439240">
<ele>310.656250</ele>
<time>2013-11-20T07:40:09Z</time>
<speed>5.130000</speed>
<extensions>
<speed>5.1</speed>
<temp>0.00</temp>
<bpm>0</bpm>
<rpm>0.00</rpm>
</extensions>
</trkpt>
<trkpt lat="31.033790588" lon="34.749473572">
<ele>310.953125</ele>
<time>2013-11-20T07:40:14Z</time>
<speed>5.290000</speed>
<extensions>
<speed>5.3</speed>
<temp>0.00</temp>
<bpm>0</bpm>
<rpm>0.00</rpm>
</extensions>
</trkpt>
<trkpt lat="31.033544540" lon="34.749504089">
<ele>310.820313</ele>
<time>2013-11-20T07:40:19Z</time>
<speed>5.220000</speed>
<extensions>
<speed>5.2</speed>
<temp>0.00</temp>
<bpm>0</bpm>
<rpm>0.00</rpm>
</extensions>
</trkpt>
<trkpt lat="31.033306122" lon="34.749542236">
<ele>311.218750</ele>
<time>2013-11-20T07:40:24Z</time>
<speed>5.310000</speed>
<extensions>
<speed>5.3</speed>
<temp>0.00</temp>
<bpm>0</bpm>
<rpm>0.00</rpm>
</extensions>
</trkpt>
<trkpt lat="31.033067703" lon="34.749568939">
<ele>310.960938</ele>
<time>2013-11-20T07:40:29Z</time>
<speed>5.370000</speed>
<extensions>
<speed>5.4</speed>
<temp>0.00</temp>
<bpm>0</bpm>
<rpm>0.00</rpm>
</extensions>
</trkpt>
<trkpt lat="31.032829285" lon="34.749603271">
<ele>311.226563</ele>
<time>2013-11-20T07:40:34Z</time>
<speed>5.270000</speed>
<extensions>
<speed>5.3</speed>
<temp>0.00</temp>
<bpm>0</bpm>
<rpm>0.00</rpm>
</extensions>
</trkpt>
<trkpt lat="31.032590866" lon="34.749641418">
<ele>311.445313</ele>
<time>2013-11-20T07:40:39Z</time>
<speed>5.290000</speed>
<extensions>
<speed>5.3</speed>
<temp>0.00</temp>
<bpm>0</bpm>
<rpm>0.00</rpm>
</extensions>
</trkpt>
<trkpt lat="31.032358170" lon="34.749671936">
<ele>311.414063</ele>
<time>2013-11-20T07:40:44Z</time>
<speed>5.310000</speed>
<extensions>
<speed>5.3</speed>
<temp>0.00</temp>
<bpm>0</bpm>
<rpm>0.00</rpm>
</extensions>
</trkpt>
<trkpt lat="31.032114029" lon="34.749698639">
<ele>311.375000</ele>
<time>2013-11-20T07:40:49Z</time>
<speed>5.530000</speed>
<extensions>
<speed>5.5</speed>
<temp>0.00</temp>
<bpm>0</bpm>
<rpm>0.00</rpm>
</extensions>
</trkpt>
<trkpt lat="31.031867981" lon="34.749740601">
<ele>311.632813</ele>
<time>2013-11-20T07:40:54Z</time>
<speed>5.470000</speed>
<extensions>
<speed>5.5</speed>
<temp>0.00</temp>
<bpm>0</bpm>
<rpm>0.00</rpm>
</extensions>
</trkpt>
<trkpt lat="31.031620026" lon="34.749778748">
<ele>311.656250</ele>
<time>2013-11-20T07:40:59Z</time>
<speed>5.570000</speed>
<extensions>
<speed>5.6</speed>
<temp>0.00</temp>
<bpm>0</bpm>
<rpm>0.00</rpm>
</extensions>
</trkpt>
<trkpt lat="31.031370163" lon="34.749813080">
<ele>311.773438</ele>
<time>2013-11-20T07:41:04Z</time>
<speed>5.730000</speed>
<extensions>
<speed>5.7</speed>
<temp>0.00</temp>
<bpm>0</bpm>
<rpm>0.00</rpm>
</extensions>
</trkpt>
<trkpt lat="31.031112671" lon="34.749851227">
<ele>311.804688</ele>
<time>2013-11-20T07:41:09Z</time>
<speed>5.680000</speed>
<extensions>
<speed>5.7</speed>
<temp>0.00</temp>
<bpm>0</bpm>
<rpm>0.00</rpm>
</extensions>
</trkpt>
<trkpt lat="31.030858994" lon="34.749889374">
<ele>311.906250</ele>
<time>2013-11-20T07:41:14Z</time>
<speed>5.670000</speed>
<extensions>
<speed>5.7</speed>
<temp>0.00</temp>
<bpm>0</bpm>
<rpm>0.00</rpm>
</extensions>
</trkpt>
<trkpt lat="31.030607224" lon="34.749931335">
<ele>312.390625</ele>
<time>2013-11-20T07:41:19Z</time>
<speed>5.590000</speed>
<extensions>
<speed>5.6</speed>
<temp>0.00</temp>
<bpm>0</bpm>
<rpm>0.00</rpm>
</extensions>
</trkpt>
<trkpt lat="31.030363083" lon="34.749965668">
<ele>312.882813</ele>
<time>2013-11-20T07:41:24Z</time>
<speed>5.480000</speed>
<extensions>
<speed>5.5</speed>
<temp>0.00</temp>
<bpm>0</bpm>
<rpm>0.00</rpm>
</extensions>
</trkpt>
<trkpt lat="31.030099869" lon="34.750003815">
<ele>313.257813</ele>
<time>2013-11-20T07:41:29Z</time>
<speed>5.690000</speed>
<extensions>
<speed>5.7</speed>
<temp>0.00</temp>
<bpm>0</bpm>
<rpm>0.00</rpm>
</extensions>
</trkpt>
<trkpt lat="31.029844284" lon="34.750034332">
<ele>313.015625</ele>
<time>2013-11-20T07:41:34Z</time>
<speed>5.640000</speed>
<extensions>
<speed>5.6</speed>
<temp>0.00</temp>
<bpm>0</bpm>
<rpm>0.00</rpm>
</extensions>
</trkpt>
<trkpt lat="31.029596329" lon="34.750076294">
<ele>313.101563</ele>
<time>2013-11-20T07:41:39Z</time>
<speed>5.740000</speed>
<extensions>
<speed>5.7</speed>
<temp>0.00</temp>
<bpm>0</bpm>
<rpm>0.00</rpm>
</extensions>
</trkpt>
<trkpt lat="31.029340744" lon="34.750114441">
<ele>313.140625</ele>
<time>2013-11-20T07:41:44Z</time>
<speed>5.490000</speed>
<extensions>
<speed>5.5</speed>
<temp>0.00</temp>
<bpm>0</bpm>
<rpm>0.00</rpm>
</extensions>
</trkpt>
<trkpt lat="31.029094696" lon="34.750133514">
<ele>312.992188</ele>
<time>2013-11-20T07:41:49Z</time>
<speed>5.450000</speed>
<extensions>
<speed>5.5</speed>
<temp>0.00</temp>
<bpm>0</bpm>
<rpm>0.00</rpm>
</extensions>
</trkpt>
<trkpt lat="31.028846741" lon="34.750171661">
<ele>313.046875</ele>
<time>2013-11-20T07:41:54Z</time>
<speed>5.550000</speed>
<extensions>
<speed>5.5</speed>
<temp>0.00</temp>
<bpm>0</bpm>
<rpm>0.00</rpm>
</extensions>
</trkpt>
<trkpt lat="31.028598785" lon="34.750205994">
<ele>313.179688</ele>
<time>2013-11-20T07:41:59Z</time>
<speed>5.580000</speed>
<extensions>
<speed>5.6</speed>
<temp>0.00</temp>
<bpm>0</bpm>
<rpm>0.00</rpm>
</extensions>
</trkpt>
<trkpt lat="31.028345108" lon="34.750244141">
<ele>313.289063</ele>
<time>2013-11-20T07:42:04Z</time>
<speed>5.660000</speed>
<extensions>
<speed>5.7</speed>
<temp>0.00</temp>
<bpm>0</bpm>
<rpm>0.00</rpm>
</extensions>
</trkpt>
<trkpt lat="31.028093338" lon="34.750282288">
<ele>313.132813</ele>
<time>2013-11-20T07:42:09Z</time>
<speed>5.660000</speed>
<extensions>
<speed>5.7</speed>
<temp>0.00</temp>
<bpm>0</bpm>
<rpm>0.00</rpm>
</extensions>
</trkpt>
<trkpt lat="31.027841568" lon="34.750312805">
<ele>312.929688</ele>
<time>2013-11-20T07:42:14Z</time>
<speed>5.650000</speed>
<extensions>
<speed>5.7</speed>
<temp>0.00</temp>
<bpm>0</bpm>
<rpm>0.00</rpm>
</extensions>
</trkpt>
<trkpt lat="31.027589798" lon="34.750350952">
<ele>312.562500</ele>
<time>2013-11-20T07:42:19Z</time>
<speed>5.800000</speed>
<extensions>
<speed>5.8</speed>
<temp>0.00</temp>
<bpm>0</bpm>
<rpm>0.00</rpm>
</extensions>
</trkpt>
<trkpt lat="31.027330399" lon="34.750392914">
<ele>312.234375</ele>
<time>2013-11-20T07:42:24Z</time>
<speed>5.960000</speed>
<extensions>
<speed>6.0</speed>
<temp>0.00</temp>
<bpm>0</bpm>
<rpm>0.00</rpm>
</extensions>
</trkpt>
<trkpt lat="31.027059555" lon="34.750446320">
<ele>311.632813</ele>
<time>2013-11-20T07:42:29Z</time>
<speed>6.060000</speed>
<extensions>
<speed>6.1</speed>
<temp>0.00</temp>
<bpm>0</bpm>
<rpm>0.00</rpm>
</extensions>
</trkpt>
<trkpt lat="31.026798248" lon="34.750526428">
<ele>310.812500</ele>
<time>2013-11-20T07:42:34Z</time>
<speed>6.030000</speed>
<extensions>
<speed>6.0</speed>
<temp>0.00</temp>
<bpm>0</bpm>
<rpm>0.00</rpm>
</extensions>
</trkpt>
<trkpt lat="31.026535034" lon="34.750644684">
<ele>310.039063</ele>
<time>2013-11-20T07:42:39Z</time>
<speed>6.380000</speed>
<extensions>
<speed>6.4</speed>
<temp>0.00</temp>
<bpm>0</bpm>
<rpm>0.00</rpm>
</extensions>
</trkpt>
<trkpt lat="31.026266098" lon="34.750801086">
<ele>309.304688</ele>
<time>2013-11-20T07:42:44Z</time>
<speed>6.770000</speed>
<extensions>
<speed>6.8</speed>
<temp>0.00</temp>
<bpm>0</bpm>
<rpm>0.00</rpm>
</extensions>
</trkpt>
<trkpt lat="31.026000977" lon="34.750988007">
<ele>308.437500</ele>
<time>2013-11-20T07:42:49Z</time>
<speed>7.250000</speed>
<extensions>
<speed>7.3</speed>
<temp>0.00</temp>
<bpm>0</bpm>
<rpm>0.00</rpm>
</extensions>
</trkpt>
<trkpt lat="31.025733948" lon="34.751197815">
<ele>308.562500</ele>
<time>2013-11-20T07:42:54Z</time>
<speed>6.900000</speed>
<extensions>
<speed>6.9</speed>
<temp>0.00</temp>
<bpm>0</bpm>
<rpm>0.00</rpm>
</extensions>
</trkpt>
<trkpt lat="31.025478363" lon="34.751399994">
<ele>309.007813</ele>
<time>2013-11-20T07:42:59Z</time>
<speed>6.310000</speed>
<extensions>
<speed>6.3</speed>
<temp>0.00</temp>
<bpm>0</bpm>
<rpm>0.00</rpm>
</extensions>
</trkpt>
<trkpt lat="31.025238037" lon="34.751564026">
<ele>309.195313</ele>
<time>2013-11-20T07:43:04Z</time>
<speed>6.080000</speed>
<extensions>
<speed>6.1</speed>
<temp>0.00</temp>
<bpm>0</bpm>
<rpm>0.00</rpm>
</extensions>
</trkpt>
<trkpt lat="31.025001526" lon="34.751735687">
<ele>309.750000</ele>
<time>2013-11-20T07:43:09Z</time>
<speed>6.280000</speed>
<extensions>
<speed>6.3</speed>
<temp>0.00</temp>
<bpm>0</bpm>
<rpm>0.00</rpm>
</extensions>
</trkpt>
<trkpt lat="31.024772644" lon="34.751914978">
<ele>309.867188</ele>
<time>2013-11-20T07:43:14Z</time>
<speed>6.120000</speed>
<extensions>
<speed>6.1</speed>
<temp>0.00</temp>
<bpm>0</bpm>
<rpm>0.00</rpm>
</extensions>
</trkpt>
<trkpt lat="31.024547577" lon="34.752101898">
<ele>310.609375</ele>
<time>2013-11-20T07:43:19Z</time>
<speed>6.130000</speed>
<extensions>
<speed>6.1</speed>
<temp>0.00</temp>
<bpm>0</bpm>
<rpm>0.00</rpm>
</extensions>
</trkpt>
<trkpt lat="31.024333954" lon="34.752292633">
<ele>310.406250</ele>
<time>2013-11-20T07:43:24Z</time>
<speed>5.980000</speed>
<extensions>
<speed>6.0</speed>
<temp>0.00</temp>
<bpm>0</bpm>
<rpm>0.00</rpm>
</extensions>
</trkpt>
<trkpt lat="31.024118423" lon="34.752475739">
<ele>310.250000</ele>
<time>2013-11-20T07:43:29Z</time>
<speed>6.060000</speed>
<extensions>
<speed>6.1</speed>
<temp>0.00</temp>
<bpm>0</bpm>
<rpm>0.00</rpm>
</extensions>
</trkpt>
<trkpt lat="31.023904800" lon="34.752662659">
<ele>310.210938</ele>
<time>2013-11-20T07:43:34Z</time>
<speed>5.850000</speed>
<extensions>
<speed>5.8</speed>
<temp>0.00</temp>
<bpm>0</bpm>
<rpm>0.00</rpm>
</extensions>
</trkpt>
<trkpt lat="31.023693085" lon="34.752849579">
<ele>310.664063</ele>
<time>2013-11-20T07:43:39Z</time>
<speed>5.750000</speed>
<extensions>
<speed>5.8</speed>
<temp>0.00</temp>
<bpm>0</bpm>
<rpm>0.00</rpm>
</extensions>
</trkpt>
<trkpt lat="31.023485184" lon="34.753032684">
<ele>310.632813</ele>
<time>2013-11-20T07:43:44Z</time>
<speed>5.770000</speed>
<extensions>
<speed>5.8</speed>
<temp>0.00</temp>
<bpm>0</bpm>
<rpm>0.00</rpm>
</extensions>
</trkpt>
<trkpt lat="31.023273468" lon="34.753219604">
<ele>311.375000</ele>
<time>2013-11-20T07:43:49Z</time>
<speed>5.900000</speed>
<extensions>
<speed>5.9</speed>
<temp>0.00</temp>
<bpm>0</bpm>
<rpm>0.00</rpm>
</extensions>
</trkpt>
<trkpt lat="31.023059845" lon="34.753379822">
<ele>310.859375</ele>
<time>2013-11-20T07:43:54Z</time>
<speed>5.680000</speed>
<extensions>
<speed>5.7</speed>
<temp>0.00</temp>
<bpm>0</bpm>
<rpm>0.00</rpm>
</extensions>
</trkpt>
<trkpt lat="31.022853851" lon="34.753551483">
<ele>311.070313</ele>
<time>2013-11-20T07:43:59Z</time>
<speed>5.670000</speed>
<extensions>
<speed>5.7</speed>
<temp>0.00</temp>
<bpm>0</bpm>
<rpm>0.00</rpm>
</extensions>
</trkpt>
<trkpt lat="31.022645950" lon="34.753726959">
<ele>312.070313</ele>
<time>2013-11-20T07:44:04Z</time>
<speed>5.550000</speed>
<extensions>
<speed>5.5</speed>
<temp>0.00</temp>
<bpm>0</bpm>
<rpm>0.00</rpm>
</extensions>
</trkpt>
<trkpt lat="31.022441864" lon="34.753902435">
<ele>312.679688</ele>
<time>2013-11-20T07:44:09Z</time>
<speed>5.540000</speed>
<extensions>
<speed>5.5</speed>
<temp>0.00</temp>
<bpm>0</bpm>
<rpm>0.00</rpm>
</extensions>
</trkpt>
<trkpt lat="31.022235870" lon="34.754077911">
<ele>313.265625</ele>
<time>2013-11-20T07:44:14Z</time>
<speed>5.520000</speed>
<extensions>
<speed>5.5</speed>
<temp>0.00</temp>
<bpm>0</bpm>
<rpm>0.00</rpm>
</extensions>
</trkpt>
<trkpt lat="31.022035599" lon="34.754261017">
<ele>313.570313</ele>
<time>2013-11-20T07:44:19Z</time>
<speed>5.700000</speed>
<extensions>
<speed>5.7</speed>
<temp>0.00</temp>
<bpm>0</bpm>
<rpm>0.00</rpm>
</extensions>
</trkpt>
<trkpt lat="31.021821976" lon="34.754432678">
<ele>313.812500</ele>
<time>2013-11-20T07:44:24Z</time>
<speed>5.740000</speed>
<extensions>
<speed>5.7</speed>
<temp>0.00</temp>
<bpm>0</bpm>
<rpm>0.00</rpm>
</extensions>
</trkpt>
<trkpt lat="31.021606445" lon="34.754600525">
<ele>314.156250</ele>
<time>2013-11-20T07:44:29Z</time>
<speed>5.780000</speed>
<extensions>
<speed>5.8</speed>
<temp>0.00</temp>
<bpm>0</bpm>
<rpm>0.00</rpm>
</extensions>
</trkpt>
<trkpt lat="31.021389008" lon="34.754760742">
<ele>314.000000</ele>
<time>2013-11-20T07:44:34Z</time>
<speed>5.630000</speed>
<extensions>
<speed>5.6</speed>
<temp>0.00</temp>
<bpm>0</bpm>
<rpm>0.00</rpm>
</extensions>
</trkpt>
<trkpt lat="31.021165848" lon="34.754920959">
<ele>314.210938</ele>
<time>2013-11-20T07:44:39Z</time>
<speed>5.770000</speed>
<extensions>
<speed>5.8</speed>
<temp>0.00</temp>
<bpm>0</bpm>
<rpm>0.00</rpm>
</extensions>
</trkpt>
<trkpt lat="31.020938873" lon="34.755073547">
<ele>314.250000</ele>
<time>2013-11-20T07:44:44Z</time>
<speed>5.880000</speed>
<extensions>
<speed>5.9</speed>
<temp>0.00</temp>
<bpm>0</bpm>
<rpm>0.00</rpm>
</extensions>
</trkpt>
<trkpt lat="31.020704269" lon="34.755218506">
<ele>314.085938</ele>
<time>2013-11-20T07:44:49Z</time>
<speed>5.840000</speed>
<extensions>
<speed>5.8</speed>
<temp>0.00</temp>
<bpm>0</bpm>
<rpm>0.00</rpm>
</extensions>
</trkpt>
<trkpt lat="31.020463943" lon="34.755348206">
<ele>314.125000</ele>
<time>2013-11-20T07:44:54Z</time>
<speed>5.830000</speed>
<extensions>
<speed>5.8</speed>
<temp>0.00</temp>
<bpm>0</bpm>
<rpm>0.00</rpm>
</extensions>
</trkpt>
<trkpt lat="31.020221710" lon="34.755462646">
<ele>314.234375</ele>
<time>2013-11-20T07:44:59Z</time>
<speed>5.860000</speed>
<extensions>
<speed>5.9</speed>
<temp>0.00</temp>
<bpm>0</bpm>
<rpm>0.00</rpm>
</extensions>
</trkpt>
<trkpt lat="31.019983292" lon="34.755577087">
<ele>313.937500</ele>
<time>2013-11-20T07:45:04Z</time>
<speed>5.710000</speed>
<extensions>
<speed>5.7</speed>
<temp>0.00</temp>
<bpm>0</bpm>
<rpm>0.00</rpm>
</extensions>
</trkpt>
<trkpt lat="31.019739151" lon="34.755695343">
<ele>313.687500</ele>
<time>2013-11-20T07:45:09Z</time>
<speed>5.910000</speed>
<extensions>
<speed>5.9</speed>
<temp>0.00</temp>
<bpm>0</bpm>
<rpm>0.00</rpm>
</extensions>
</trkpt>
<trkpt lat="31.019498825" lon="34.755805969">
<ele>313.515625</ele>
<time>2013-11-20T07:45:14Z</time>
<speed>5.940000</speed>
<extensions>
<speed>5.9</speed>
<temp>0.00</temp>
<bpm>0</bpm>
<rpm>0.00</rpm>
</extensions>
</trkpt>
<trkpt lat="31.019260406" lon="34.755928040">
<ele>313.281250</ele>
<time>2013-11-20T07:45:19Z</time>
<speed>5.700000</speed>
<extensions>
<speed>5.7</speed>
<temp>0.00</temp>
<bpm>0</bpm>
<rpm>0.00</rpm>
</extensions>
</trkpt>
<trkpt lat="31.019023895" lon="34.756042480">
<ele>313.593750</ele>
<time>2013-11-20T07:45:24Z</time>
<speed>5.680000</speed>
<extensions>
<speed>5.7</speed>
<temp>0.00</temp>
<bpm>0</bpm>
<rpm>0.00</rpm>
</extensions>
</trkpt>
<trkpt lat="31.018783569" lon="34.756168365">
<ele>313.351563</ele>
<time>2013-11-20T07:45:29Z</time>
<speed>5.850000</speed>
<extensions>
<speed>5.8</speed>
<temp>0.00</temp>
<bpm>0</bpm>
<rpm>0.00</rpm>
</extensions>
</trkpt>
<trkpt lat="31.018548965" lon="34.756298065">
<ele>313.648438</ele>
<time>2013-11-20T07:45:34Z</time>
<speed>5.710000</speed>
<extensions>
<speed>5.7</speed>
<temp>0.00</temp>
<bpm>0</bpm>
<rpm>0.00</rpm>
</extensions>
</trkpt>
<trkpt lat="31.018321991" lon="34.756439209">
<ele>313.789063</ele>
<time>2013-11-20T07:45:39Z</time>
<speed>5.590000</speed>
<extensions>
<speed>5.6</speed>
<temp>0.00</temp>
<bpm>0</bpm>
<rpm>0.00</rpm>
</extensions>
</trkpt>
<trkpt lat="31.018106461" lon="34.756595612">
<ele>313.117188</ele>
<time>2013-11-20T07:45:44Z</time>
<speed>5.950000</speed>
<extensions>
<speed>6.0</speed>
<temp>0.00</temp>
<bpm>0</bpm>
<rpm>0.00</rpm>
</extensions>
</trkpt>
<trkpt lat="31.017894745" lon="34.756778717">
<ele>312.593750</ele>
<time>2013-11-20T07:45:49Z</time>
<speed>5.840000</speed>
<extensions>
<speed>5.8</speed>
<temp>0.00</temp>
<bpm>0</bpm>
<rpm>0.00</rpm>
</extensions>
</trkpt>
<trkpt lat="31.017696381" lon="34.756984711">
<ele>312.632813</ele>
<time>2013-11-20T07:45:54Z</time>
<speed>6.000000</speed>
<extensions>
<speed>6.0</speed>
<temp>0.00</temp>
<bpm>0</bpm>
<rpm>0.00</rpm>
</extensions>
</trkpt>
<trkpt lat="31.017505646" lon="34.757213593">
<ele>313.242188</ele>
<time>2013-11-20T07:45:59Z</time>
<speed>5.910000</speed>
<extensions>
<speed>5.9</speed>
<temp>0.00</temp>
<bpm>0</bpm>
<rpm>0.00</rpm>
</extensions>
</trkpt>
<trkpt lat="31.017326355" lon="34.757461548">
<ele>313.664063</ele>
<time>2013-11-20T07:46:04Z</time>
<speed>5.930000</speed>
<extensions>
<speed>5.9</speed>
<temp>0.00</temp>
<bpm>0</bpm>
<rpm>0.00</rpm>
</extensions>
</trkpt>
<trkpt lat="31.017166138" lon="34.757717133">
<ele>315.164063</ele>
<time>2013-11-20T07:46:09Z</time>
<speed>6.020000</speed>
<extensions>
<speed>6.0</speed>
<temp>0.00</temp>
<bpm>0</bpm>
<rpm>0.00</rpm>
</extensions>
</trkpt>
<trkpt lat="31.017032623" lon="34.757976532">
<ele>315.960938</ele>
<time>2013-11-20T07:46:14Z</time>
<speed>5.660000</speed>
<extensions>
<speed>5.7</speed>
<temp>0.00</temp>
<bpm>0</bpm>
<rpm>0.00</rpm>
</extensions>
</trkpt>
<trkpt lat="31.016901016" lon="34.758235931">
<ele>314.992188</ele>
<time>2013-11-20T07:46:19Z</time>
<speed>5.920000</speed>
<extensions>
<speed>5.9</speed>
<temp>0.00</temp>
<bpm>0</bpm>
<rpm>0.00</rpm>
</extensions>
</trkpt>
<trkpt lat="31.016805649" lon="34.758522034">
<ele>316.585938</ele>
<time>2013-11-20T07:46:24Z</time>
<speed>6.040000</speed>
<extensions>
<speed>6.0</speed>
<temp>0.00</temp>
<bpm>0</bpm>
<rpm>0.00</rpm>
</extensions>
</trkpt>
<trkpt lat="31.016716003" lon="34.758815765">
<ele>317.968750</ele>
<time>2013-11-20T07:46:29Z</time>
<speed>6.070000</speed>
<extensions>
<speed>6.1</speed>
<temp>0.00</temp>
<bpm>0</bpm>
<rpm>0.00</rpm>
</extensions>
</trkpt>
<trkpt lat="31.016618729" lon="34.759117126">
<ele>317.476563</ele>
<time>2013-11-20T07:46:34Z</time>
<speed>6.060000</speed>
<extensions>
<speed>6.1</speed>
<temp>0.00</temp>
<bpm>0</bpm>
<rpm>0.00</rpm>
</extensions>
</trkpt>
<trkpt lat="31.016534805" lon="34.759414673">
<ele>317.671875</ele>
<time>2013-11-20T07:46:39Z</time>
<speed>5.920000</speed>
<extensions>
<speed>5.9</speed>
<temp>0.00</temp>
<bpm>0</bpm>
<rpm>0.00</rpm>
</extensions>
</trkpt>
<trkpt lat="31.016431808" lon="34.759712219">
<ele>317.109375</ele>
<time>2013-11-20T07:46:44Z</time>
<speed>5.780000</speed>
<extensions>
<speed>5.8</speed>
<temp>0.00</temp>
<bpm>0</bpm>
<rpm>0.00</rpm>
</extensions>
</trkpt>
<trkpt lat="31.016344070" lon="34.760002136">
<ele>316.765625</ele>
<time>2013-11-20T07:46:49Z</time>
<speed>5.790000</speed>
<extensions>
<speed>5.8</speed>
<temp>0.00</temp>
<bpm>0</bpm>
<rpm>0.00</rpm>
</extensions>
</trkpt>
<trkpt lat="31.016237259" lon="34.760269165">
<ele>315.640625</ele>
<time>2013-11-20T07:46:54Z</time>
<speed>5.630000</speed>
<extensions>
<speed>5.6</speed>
<temp>0.00</temp>
<bpm>0</bpm>
<rpm>0.00</rpm>
</extensions>
</trkpt>
<trkpt lat="31.016136169" lon="34.760547638">
<ele>316.476563</ele>
<time>2013-11-20T07:46:59Z</time>
<speed>5.450000</speed>
<extensions>
<speed>5.5</speed>
<temp>0.00</temp>
<bpm>0</bpm>
<rpm>0.00</rpm>
</extensions>
</trkpt>
<trkpt lat="31.015983582" lon="34.760753632">
<ele>318.195313</ele>
<time>2013-11-20T07:47:04Z</time>
<speed>5.050000</speed>
<extensions>
<speed>5.1</speed>
<temp>0.00</temp>
<bpm>0</bpm>
<rpm>0.00</rpm>
</extensions>
</trkpt>
<trkpt lat="31.015745163" lon="34.760620117">
<ele>318.382813</ele>
<time>2013-11-20T07:47:09Z</time>
<speed>5.530000</speed>
<extensions>
<speed>5.5</speed>
<temp>0.00</temp>
<bpm>0</bpm>
<rpm>0.00</rpm>
</extensions>
</trkpt>
<trkpt lat="31.015512466" lon="34.760433197">
<ele>317.984375</ele>
<time>2013-11-20T07:47:14Z</time>
<speed>5.890000</speed>
<extensions>
<speed>5.9</speed>
<temp>0.00</temp>
<bpm>0</bpm>
<rpm>0.00</rpm>
</extensions>
</trkpt>
<trkpt lat="31.015298843" lon="34.760246277">
<ele>320.585938</ele>
<time>2013-11-20T07:47:19Z</time>
<speed>5.600000</speed>
<extensions>
<speed>5.6</speed>
<temp>0.00</temp>
<bpm>0</bpm>
<rpm>0.00</rpm>
</extensions>
</trkpt>
<trkpt lat="31.015083313" lon="34.760078430">
<ele>321.539063</ele>
<time>2013-11-20T07:47:24Z</time>
<speed>5.290000</speed>
<extensions>
<speed>5.3</speed>
<temp>0.00</temp>
<bpm>0</bpm>
<rpm>0.00</rpm>
</extensions>
</trkpt>
<trkpt lat="31.014873505" lon="34.759918213">
<ele>322.882813</ele>
<time>2013-11-20T07:47:29Z</time>
<speed>5.170000</speed>
<extensions>
<speed>5.2</speed>
<temp>0.00</temp>
<bpm>0</bpm>
<rpm>0.00</rpm>
</extensions>
</trkpt>
<trkpt lat="31.014671326" lon="34.759803772">
<ele>321.273438</ele>
<time>2013-11-20T07:47:34Z</time>
<speed>4.970000</speed>
<extensions>
<speed>5.0</speed>
<temp>0.00</temp>
<bpm>0</bpm>
<rpm>0.00</rpm>
</extensions>
</trkpt>
<trkpt lat="31.014474869" lon="34.759689331">
<ele>320.023438</ele>
<time>2013-11-20T07:47:39Z</time>
<speed>5.040000</speed>
<extensions>
<speed>5.0</speed>
<temp>0.00</temp>
<bpm>0</bpm>
<rpm>0.00</rpm>
</extensions>
</trkpt>
<trkpt lat="31.014240265" lon="34.759628296">
<ele>318.976563</ele>
<time>2013-11-20T07:47:44Z</time>
<speed>5.400000</speed>
<extensions>
<speed>5.4</speed>
<temp>0.00</temp>
<bpm>0</bpm>
<rpm>0.00</rpm>
</extensions>
</trkpt>
<trkpt lat="31.013986588" lon="34.759613037">
<ele>318.171875</ele>
<time>2013-11-20T07:47:49Z</time>
<speed>5.490000</speed>
<extensions>
<speed>5.5</speed>
<temp>0.00</temp>
<bpm>0</bpm>
<rpm>0.00</rpm>
</extensions>
</trkpt>
<trkpt lat="31.013731003" lon="34.759582520">
<ele>318.531250</ele>
<time>2013-11-20T07:47:54Z</time>
<speed>5.680000</speed>
<extensions>
<speed>5.7</speed>
<temp>0.00</temp>
<bpm>0</bpm>
<rpm>0.00</rpm>
</extensions>
</trkpt>
<trkpt lat="31.013475418" lon="34.759574890">
<ele>317.734375</ele>
<time>2013-11-20T07:47:59Z</time>
<speed>5.550000</speed>
<extensions>
<speed>5.5</speed>
<temp>0.00</temp>
<bpm>0</bpm>
<rpm>0.00</rpm>
</extensions>
</trkpt>
<trkpt lat="31.013217926" lon="34.759559631">
<ele>318.117188</ele>
<time>2013-11-20T07:48:04Z</time>
<speed>5.720000</speed>
<extensions>
<speed>5.7</speed>
<temp>0.00</temp>
<bpm>0</bpm>
<rpm>0.00</rpm>
</extensions>
</trkpt>
<trkpt lat="31.012958527" lon="34.759559631">
<ele>318.601563</ele>
<time>2013-11-20T07:48:09Z</time>
<speed>5.470000</speed>
<extensions>
<speed>5.5</speed>
<temp>0.00</temp>
<bpm>0</bpm>
<rpm>0.00</rpm>
</extensions>
</trkpt>
<trkpt lat="31.012712479" lon="34.759548187">
<ele>319.531250</ele>
<time>2013-11-20T07:48:14Z</time>
<speed>5.250000</speed>
<extensions>
<speed>5.2</speed>
<temp>0.00</temp>
<bpm>0</bpm>
<rpm>0.00</rpm>
</extensions>
</trkpt>
<trkpt lat="31.012527466" lon="34.759525299">
<ele>320.140625</ele>
<time>2013-11-20T07:48:19Z</time>
<speed>4.220000</speed>
<extensions>
<speed>4.2</speed>
<temp>0.00</temp>
<bpm>0</bpm>
<rpm>0.00</rpm>
</extensions>
</trkpt>
<trkpt lat="31.012300491" lon="34.759510040">
<ele>319.523438</ele>
<time>2013-11-20T07:48:24Z</time>
<speed>5.820000</speed>
<extensions>
<speed>5.8</speed>
<temp>0.00</temp>
<bpm>0</bpm>
<rpm>0.00</rpm>
</extensions>
</trkpt>
<trkpt lat="31.012027740" lon="34.759506226">
<ele>319.382813</ele>
<time>2013-11-20T07:48:29Z</time>
<speed>5.820000</speed>
<extensions>
<speed>5.8</speed>
<temp>0.00</temp>
<bpm>0</bpm>
<rpm>0.00</rpm>
</extensions>
</trkpt>
<trkpt lat="31.011758804" lon="34.759506226">
<ele>320.437500</ele>
<time>2013-11-20T07:48:34Z</time>
<speed>5.720000</speed>
<extensions>
<speed>5.7</speed>
<temp>0.00</temp>
<bpm>0</bpm>
<rpm>0.00</rpm>
</extensions>
</trkpt>
<trkpt lat="31.011499405" lon="34.759498596">
<ele>319.320313</ele>
<time>2013-11-20T07:48:39Z</time>
<speed>5.600000</speed>
<extensions>
<speed>5.6</speed>
<temp>0.00</temp>
<bpm>0</bpm>
<rpm>0.00</rpm>
</extensions>
</trkpt>
<trkpt lat="31.011249542" lon="34.759498596">
<ele>319.648438</ele>
<time>2013-11-20T07:48:44Z</time>
<speed>5.790000</speed>
<extensions>
<speed>5.8</speed>
<temp>0.00</temp>
<bpm>0</bpm>
<rpm>0.00</rpm>
</extensions>
</trkpt>
<trkpt lat="31.010993958" lon="34.759498596">
<ele>318.945313</ele>
<time>2013-11-20T07:48:49Z</time>
<speed>5.530000</speed>
<extensions>
<speed>5.5</speed>
<temp>0.00</temp>
<bpm>0</bpm>
<rpm>0.00</rpm>
</extensions>
</trkpt>
<trkpt lat="31.010744095" lon="34.759487152">
<ele>318.648438</ele>
<time>2013-11-20T07:48:54Z</time>
<speed>5.600000</speed>
<extensions>
<speed>5.6</speed>
<temp>0.00</temp>
<bpm>0</bpm>
<rpm>0.00</rpm>
</extensions>
</trkpt>
<trkpt lat="31.010492325" lon="34.759483337">
<ele>319.101563</ele>
<time>2013-11-20T07:48:59Z</time>
<speed>5.550000</speed>
<extensions>
<speed>5.5</speed>
<temp>0.00</temp>
<bpm>0</bpm>
<rpm>0.00</rpm>
</extensions>
</trkpt>
<trkpt lat="31.010251999" lon="34.759452820">
<ele>319.507813</ele>
<time>2013-11-20T07:49:04Z</time>
<speed>5.660000</speed>
<extensions>
<speed>5.7</speed>
<temp>0.00</temp>
<bpm>0</bpm>
<rpm>0.00</rpm>
</extensions>
</trkpt>
<trkpt lat="31.010009766" lon="34.759399414">
<ele>319.601563</ele>
<time>2013-11-20T07:49:09Z</time>
<speed>5.520000</speed>
<extensions>
<speed>5.5</speed>
<temp>0.00</temp>
<bpm>0</bpm>
<rpm>0.00</rpm>
</extensions>
</trkpt>
<trkpt lat="31.009767532" lon="34.759349823">
<ele>320.523438</ele>
<time>2013-11-20T07:49:14Z</time>
<speed>5.490000</speed>
<extensions>
<speed>5.5</speed>
<temp>0.00</temp>
<bpm>0</bpm>
<rpm>0.00</rpm>
</extensions>
</trkpt>
<trkpt lat="31.009525299" lon="34.759296417">
<ele>320.875000</ele>
<time>2013-11-20T07:49:19Z</time>
<speed>5.410000</speed>
<extensions>
<speed>5.4</speed>
<temp>0.00</temp>
<bpm>0</bpm>
<rpm>0.00</rpm>
</extensions>
</trkpt>
<trkpt lat="31.009283066" lon="34.759243011">
<ele>320.796875</ele>
<time>2013-11-20T07:49:24Z</time>
<speed>5.520000</speed>
<extensions>
<speed>5.5</speed>
<temp>0.00</temp>
<bpm>0</bpm>
<rpm>0.00</rpm>
</extensions>
</trkpt>
<trkpt lat="31.009038925" lon="34.759181976">
<ele>321.039063</ele>
<time>2013-11-20T07:49:29Z</time>
<speed>5.440000</speed>
<extensions>
<speed>5.4</speed>
<temp>0.00</temp>
<bpm>0</bpm>
<rpm>0.00</rpm>
</extensions>
</trkpt>
<trkpt lat="31.008806229" lon="34.759124756">
<ele>321.031250</ele>
<time>2013-11-20T07:49:34Z</time>
<speed>5.220000</speed>
<extensions>
<speed>5.2</speed>
<temp>0.00</temp>
<bpm>0</bpm>
<rpm>0.00</rpm>
</extensions>
</trkpt>
<trkpt lat="31.008586884" lon="34.759063721">
<ele>320.960938</ele>
<time>2013-11-20T07:49:39Z</time>
<speed>5.150000</speed>
<extensions>
<speed>5.2</speed>
<temp>0.00</temp>
<bpm>0</bpm>
<rpm>0.00</rpm>
</extensions>
</trkpt>
<trkpt lat="31.008363724" lon="34.759010315">
<ele>322.250000</ele>
<time>2013-11-20T07:49:44Z</time>
<speed>5.000000</speed>
<extensions>
<speed>5.0</speed>
<temp>0.00</temp>
<bpm>0</bpm>
<rpm>0.00</rpm>
</extensions>
</trkpt>
<trkpt lat="31.008140564" lon="34.758956909">
<ele>323.023438</ele>
<time>2013-11-20T07:49:49Z</time>
<speed>5.170000</speed>
<extensions>
<speed>5.2</speed>
<temp>0.00</temp>
<bpm>0</bpm>
<rpm>0.00</rpm>
</extensions>
</trkpt>
<trkpt lat="31.007919312" lon="34.758903503">
<ele>323.531250</ele>
<time>2013-11-20T07:49:54Z</time>
<speed>4.950000</speed>
<extensions>
<speed>4.9</speed>
<temp>0.00</temp>
<bpm>0</bpm>
<rpm>0.00</rpm>
</extensions>
</trkpt>
<trkpt lat="31.007690430" lon="34.758850098">
<ele>324.304688</ele>
<time>2013-11-20T07:49:59Z</time>
<speed>5.060000</speed>
<extensions>
<speed>5.1</speed>
<temp>0.00</temp>
<bpm>0</bpm>
<rpm>0.00</rpm>
</extensions>
</trkpt>
<trkpt lat="31.007472992" lon="34.758796692">
<ele>324.570313</ele>
<time>2013-11-20T07:50:04Z</time>
<speed>5.160000</speed>
<extensions>
<speed>5.2</speed>
<temp>0.00</temp>
<bpm>0</bpm>
<rpm>0.00</rpm>
</extensions>
</trkpt>
<trkpt lat="31.007240295" lon="34.758743286">
<ele>324.617188</ele>
<time>2013-11-20T07:50:09Z</time>
<speed>5.020000</speed>
<extensions>
<speed>5.0</speed>
<temp>0.00</temp>
<bpm>0</bpm>
<rpm>0.00</rpm>
</extensions>
</trkpt>
<trkpt lat="31.007001877" lon="34.758693695">
<ele>323.820313</ele>
<time>2013-11-20T07:50:14Z</time>
<speed>5.140000</speed>
<extensions>
<speed>5.1</speed>
<temp>0.00</temp>
<bpm>0</bpm>
<rpm>0.00</rpm>
</extensions>
</trkpt>
<trkpt lat="31.006771088" lon="34.758651733">
<ele>323.804688</ele>
<time>2013-11-20T07:50:19Z</time>
<speed>5.150000</speed>
<extensions>
<speed>5.2</speed>
<temp>0.00</temp>
<bpm>0</bpm>
<rpm>0.00</rpm>
</extensions>
</trkpt>
<trkpt lat="31.006542206" lon="34.758598328">
<ele>324.476563</ele>
<time>2013-11-20T07:50:24Z</time>
<speed>4.960000</speed>
<extensions>
<speed>5.0</speed>
<temp>0.00</temp>
<bpm>0</bpm>
<rpm>0.00</rpm>
</extensions>
</trkpt>
<trkpt lat="31.006330490" lon="34.758537292">
<ele>325.859375</ele>
<time>2013-11-20T07:50:29Z</time>
<speed>4.580000</speed>
<extensions>
<speed>4.6</speed>
<temp>0.00</temp>
<bpm>0</bpm>
<rpm>0.00</rpm>
</extensions>
</trkpt>
<trkpt lat="31.006124496" lon="34.758499146">
<ele>325.648438</ele>
<time>2013-11-20T07:50:34Z</time>
<speed>4.750000</speed>
<extensions>
<speed>4.8</speed>
<temp>0.00</temp>
<bpm>0</bpm>
<rpm>0.00</rpm>
</extensions>
</trkpt>
<trkpt lat="31.005907059" lon="34.758453369">
<ele>327.492188</ele>
<time>2013-11-20T07:50:39Z</time>
<speed>4.860000</speed>
<extensions>
<speed>4.9</speed>
<temp>0.00</temp>
<bpm>0</bpm>
<rpm>0.00</rpm>
</extensions>
</trkpt>
<trkpt lat="31.005683899" lon="34.758403778">
<ele>327.429688</ele>
<time>2013-11-20T07:50:44Z</time>
<speed>5.150000</speed>
<extensions>
<speed>5.2</speed>
<temp>0.00</temp>
<bpm>0</bpm>
<rpm>0.00</rpm>
</extensions>
</trkpt>
<trkpt lat="31.005449295" lon="34.758350372">
<ele>327.742188</ele>
<time>2013-11-20T07:50:49Z</time>
<speed>5.170000</speed>
<extensions>
<speed>5.2</speed>
<temp>0.00</temp>
<bpm>0</bpm>
<rpm>0.00</rpm>
</extensions>
</trkpt>
<trkpt lat="31.005224228" lon="34.758300781">
<ele>327.367188</ele>
<time>2013-11-20T07:50:54Z</time>
<speed>5.220000</speed>
<extensions>
<speed>5.2</speed>
<temp>0.00</temp>
<bpm>0</bpm>
<rpm>0.00</rpm>
</extensions>
</trkpt>
<trkpt lat="31.005001068" lon="34.758243561">
<ele>326.625000</ele>
<time>2013-11-20T07:50:59Z</time>
<speed>5.260000</speed>
<extensions>
<speed>5.3</speed>
<temp>0.00</temp>
<bpm>0</bpm>
<rpm>0.00</rpm>
</extensions>
</trkpt>
<trkpt lat="31.004758835" lon="34.758190155">
<ele>326.085938</ele>
<time>2013-11-20T07:51:04Z</time>
<speed>5.550000</speed>
<extensions>
<speed>5.5</speed>
<temp>0.00</temp>
<bpm>0</bpm>
<rpm>0.00</rpm>
</extensions>
</trkpt>
<trkpt lat="31.004526138" lon="34.758129120">
<ele>325.898438</ele>
<time>2013-11-20T07:51:09Z</time>
<speed>5.090000</speed>
<extensions>
<speed>5.1</speed>
<temp>0.00</temp>
<bpm>0</bpm>
<rpm>0.00</rpm>
</extensions>
</trkpt>
<trkpt lat="31.004293442" lon="34.758060455">
<ele>326.054688</ele>
<time>2013-11-20T07:51:14Z</time>
<speed>4.960000</speed>
<extensions>
<speed>5.0</speed>
<temp>0.00</temp>
<bpm>0</bpm>
<rpm>0.00</rpm>
</extensions>
</trkpt>
<trkpt lat="31.004072189" lon="34.758003235">
<ele>326.328125</ele>
<time>2013-11-20T07:51:19Z</time>
<speed>4.880000</speed>
<extensions>
<speed>4.9</speed>
<temp>0.00</temp>
<bpm>0</bpm>
<rpm>0.00</rpm>
</extensions>
</trkpt>
<trkpt lat="31.003860474" lon="34.757953644">
<ele>327.000000</ele>
<time>2013-11-20T07:51:24Z</time>
<speed>4.800000</speed>
<extensions>
<speed>4.8</speed>
<temp>0.00</temp>
<bpm>0</bpm>
<rpm>0.00</rpm>
</extensions>
</trkpt>
<trkpt lat="31.003665924" lon="34.757888794">
<ele>327.078125</ele>
<time>2013-11-20T07:51:29Z</time>
<speed>4.730000</speed>
<extensions>
<speed>4.7</speed>
<temp>0.00</temp>
<bpm>0</bpm>
<rpm>0.00</rpm>
</extensions>
</trkpt>
<trkpt lat="31.003456116" lon="34.757823944">
<ele>326.781250</ele>
<time>2013-11-20T07:51:34Z</time>
<speed>4.860000</speed>
<extensions>
<speed>4.9</speed>
<temp>0.00</temp>
<bpm>0</bpm>
<rpm>0.00</rpm>
</extensions>
</trkpt>
<trkpt lat="31.003248215" lon="34.757762909">
<ele>326.914063</ele>
<time>2013-11-20T07:51:39Z</time>
<speed>4.660000</speed>
<extensions>
<speed>4.7</speed>
<temp>0.00</temp>
<bpm>0</bpm>
<rpm>0.00</rpm>
</extensions>
</trkpt>
<trkpt lat="31.003028870" lon="34.757717133">
<ele>327.820313</ele>
<time>2013-11-20T07:51:44Z</time>
<speed>4.630000</speed>
<extensions>
<speed>4.6</speed>
<temp>0.00</temp>
<bpm>0</bpm>
<rpm>0.00</rpm>
</extensions>
</trkpt>
<trkpt lat="31.002809525" lon="34.757736206">
<ele>329.054688</ele>
<time>2013-11-20T07:51:49Z</time>
<speed>5.150000</speed>
<extensions>
<speed>5.2</speed>
<temp>0.00</temp>
<bpm>0</bpm>
<rpm>0.00</rpm>
</extensions>
</trkpt>
<trkpt lat="31.002601624" lon="34.757843018">
<ele>329.976563</ele>
<time>2013-11-20T07:51:54Z</time>
<speed>4.920000</speed>
<extensions>
<speed>4.9</speed>
<temp>0.00</temp>
<bpm>0</bpm>
<rpm>0.00</rpm>
</extensions>
</trkpt>
<trkpt lat="31.002407074" lon="34.758018494">
<ele>329.812500</ele>
<time>2013-11-20T07:51:59Z</time>
<speed>5.900000</speed>
<extensions>
<speed>5.9</speed>
<temp>0.00</temp>
<bpm>0</bpm>
<rpm>0.00</rpm>
</extensions>
</trkpt>
<trkpt lat="31.002201080" lon="34.758197784">
<ele>329.890625</ele>
<time>2013-11-20T07:52:04Z</time>
<speed>5.290000</speed>
<extensions>
<speed>5.3</speed>
<temp>0.00</temp>
<bpm>0</bpm>
<rpm>0.00</rpm>
</extensions>
</trkpt>
<trkpt lat="31.002021790" lon="34.758354187">
<ele>330.101563</ele>
<time>2013-11-20T07:52:09Z</time>
<speed>5.130000</speed>
<extensions>
<speed>5.1</speed>
<temp>0.00</temp>
<bpm>0</bpm>
<rpm>0.00</rpm>
</extensions>
</trkpt>
<trkpt lat="31.001834869" lon="34.758514404">
<ele>330.187500</ele>
<time>2013-11-20T07:52:14Z</time>
<speed>4.970000</speed>
<extensions>
<speed>5.0</speed>
<temp>0.00</temp>
<bpm>0</bpm>
<rpm>0.00</rpm>
</extensions>
</trkpt>
<trkpt lat="31.001640320" lon="34.758644104">
<ele>331.015625</ele>
<time>2013-11-20T07:52:19Z</time>
<speed>4.900000</speed>
<extensions>
<speed>4.9</speed>
<temp>0.00</temp>
<bpm>0</bpm>
<rpm>0.00</rpm>
</extensions>
</trkpt>
<trkpt lat="31.001440048" lon="34.758743286">
<ele>331.453125</ele>
<time>2013-11-20T07:52:24Z</time>
<speed>4.890000</speed>
<extensions>
<speed>4.9</speed>
<temp>0.00</temp>
<bpm>0</bpm>
<rpm>0.00</rpm>
</extensions>
</trkpt>
<trkpt lat="31.001239777" lon="34.758831024">
<ele>331.812500</ele>
<time>2013-11-20T07:52:29Z</time>
<speed>4.790000</speed>
<extensions>
<speed>4.8</speed>
<temp>0.00</temp>
<bpm>0</bpm>
<rpm>0.00</rpm>
</extensions>
</trkpt>
<trkpt lat="31.001043320" lon="34.758911133">
<ele>332.312500</ele>
<time>2013-11-20T07:52:34Z</time>
<speed>4.610000</speed>
<extensions>
<speed>4.6</speed>
<temp>0.00</temp>
<bpm>0</bpm>
<rpm>0.00</rpm>
</extensions>
</trkpt>
<trkpt lat="31.000854492" lon="34.758995056">
<ele>332.890625</ele>
<time>2013-11-20T07:52:39Z</time>
<speed>4.520000</speed>
<extensions>
<speed>4.5</speed>
<temp>0.00</temp>
<bpm>0</bpm>
<rpm>0.00</rpm>
</extensions>
</trkpt>
<trkpt lat="31.000663757" lon="34.759071350">
<ele>333.609375</ele>
<time>2013-11-20T07:52:44Z</time>
<speed>4.500000</speed>
<extensions>
<speed>4.5</speed>
<temp>0.00</temp>
<bpm>0</bpm>
<rpm>0.00</rpm>
</extensions>
</trkpt>
<trkpt lat="31.000486374" lon="34.759136200">
<ele>334.781250</ele>
<time>2013-11-20T07:52:49Z</time>
<speed>3.870000</speed>
<extensions>
<speed>3.9</speed>
<temp>0.00</temp>
<bpm>0</bpm>
<rpm>0.00</rpm>
</extensions>
</trkpt>
<trkpt lat="31.000299454" lon="34.759223938">
<ele>335.617188</ele>
<time>2013-11-20T07:52:54Z</time>
<speed>4.560000</speed>
<extensions>
<speed>4.6</speed>
<temp>0.00</temp>
<bpm>0</bpm>
<rpm>0.00</rpm>
</extensions>
</trkpt>
<trkpt lat="31.000110626" lon="34.759304047">
<ele>336.085938</ele>
<time>2013-11-20T07:52:59Z</time>
<speed>4.550000</speed>
<extensions>
<speed>4.5</speed>
<temp>0.00</temp>
<bpm>0</bpm>
<rpm>0.00</rpm>
</extensions>
</trkpt>
<trkpt lat="30.999916077" lon="34.759387970">
<ele>336.132813</ele>
<time>2013-11-20T07:53:04Z</time>
<speed>4.670000</speed>
<extensions>
<speed>4.7</speed>
<temp>0.00</temp>
<bpm>0</bpm>
<rpm>0.00</rpm>
</extensions>
</trkpt>
<trkpt lat="30.999713898" lon="34.759464264">
<ele>336.210938</ele>
<time>2013-11-20T07:53:09Z</time>
<speed>4.710000</speed>
<extensions>
<speed>4.7</speed>
<temp>0.00</temp>
<bpm>0</bpm>
<rpm>0.00</rpm>
</extensions>
</trkpt>
<trkpt lat="30.999515533" lon="34.759555817">
<ele>336.796875</ele>
<time>2013-11-20T07:53:14Z</time>
<speed>4.680000</speed>
<extensions>
<speed>4.7</speed>
<temp>0.00</temp>
<bpm>0</bpm>
<rpm>0.00</rpm>
</extensions>
</trkpt>
<trkpt lat="30.999307632" lon="34.759639740">
<ele>337.453125</ele>
<time>2013-11-20T07:53:19Z</time>
<speed>4.730000</speed>
<extensions>
<speed>4.7</speed>
<temp>0.00</temp>
<bpm>0</bpm>
<rpm>0.00</rpm>
</extensions>
</trkpt>
<trkpt lat="30.999103546" lon="34.759731293">
<ele>337.671875</ele>
<time>2013-11-20T07:53:24Z</time>
<speed>4.820000</speed>
<extensions>
<speed>4.8</speed>
<temp>0.00</temp>
<bpm>0</bpm>
<rpm>0.00</rpm>
</extensions>
</trkpt>
<trkpt lat="30.998895645" lon="34.759819031">
<ele>338.507813</ele>
<time>2013-11-20T07:53:29Z</time>
<speed>4.850000</speed>
<extensions>
<speed>4.8</speed>
<temp>0.00</temp>
<bpm>0</bpm>
<rpm>0.00</rpm>
</extensions>
</trkpt>
<trkpt lat="30.998689651" lon="34.759906769">
<ele>338.945313</ele>
<time>2013-11-20T07:53:34Z</time>
<speed>4.930000</speed>
<extensions>
<speed>4.9</speed>
<temp>0.00</temp>
<bpm>0</bpm>
<rpm>0.00</rpm>
</extensions>
</trkpt>
<trkpt lat="30.998493195" lon="34.759998322">
<ele>339.093750</ele>
<time>2013-11-20T07:53:39Z</time>
<speed>4.950000</speed>
<extensions>
<speed>4.9</speed>
<temp>0.00</temp>
<bpm>0</bpm>
<rpm>0.00</rpm>
</extensions>
</trkpt>
<trkpt lat="30.998285294" lon="34.760086060">
<ele>339.625000</ele>
<time>2013-11-20T07:53:44Z</time>
<speed>4.860000</speed>
<extensions>
<speed>4.9</speed>
<temp>0.00</temp>
<bpm>0</bpm>
<rpm>0.00</rpm>
</extensions>
</trkpt>
<trkpt lat="30.998079300" lon="34.760177612">
<ele>339.875000</ele>
<time>2013-11-20T07:53:49Z</time>
<speed>4.740000</speed>
<extensions>
<speed>4.7</speed>
<temp>0.00</temp>
<bpm>0</bpm>
<rpm>0.00</rpm>
</extensions>
</trkpt>
<trkpt lat="30.997892380" lon="34.760261536">
<ele>339.992188</ele>
<time>2013-11-20T07:53:54Z</time>
<speed>4.140000</speed>
<extensions>
<speed>4.1</speed>
<temp>0.00</temp>
<bpm>0</bpm>
<rpm>0.00</rpm>
</extensions>
</trkpt>
<trkpt lat="30.997703552" lon="34.760349274">
<ele>340.640625</ele>
<time>2013-11-20T07:53:59Z</time>
<speed>4.580000</speed>
<extensions>
<speed>4.6</speed>
<temp>0.00</temp>
<bpm>0</bpm>
<rpm>0.00</rpm>
</extensions>
</trkpt>
<trkpt lat="30.997507095" lon="34.760433197">
<ele>340.718750</ele>
<time>2013-11-20T07:54:04Z</time>
<speed>4.710000</speed>
<extensions>
<speed>4.7</speed>
<temp>0.00</temp>
<bpm>0</bpm>
<rpm>0.00</rpm>
</extensions>
</trkpt>
<trkpt lat="30.997312546" lon="34.760524750">
<ele>341.085938</ele>
<time>2013-11-20T07:54:09Z</time>
<speed>4.710000</speed>
<extensions>
<speed>4.7</speed>
<temp>0.00</temp>
<bpm>0</bpm>
<rpm>0.00</rpm>
</extensions>
</trkpt>
<trkpt lat="30.997102737" lon="34.760608673">
<ele>341.562500</ele>
<time>2013-11-20T07:54:14Z</time>
<speed>4.750000</speed>
<extensions>
<speed>4.8</speed>
<temp>0.00</temp>
<bpm>0</bpm>
<rpm>0.00</rpm>
</extensions>
</trkpt>
<trkpt lat="30.996900558" lon="34.760692596">
<ele>342.710938</ele>
<time>2013-11-20T07:54:19Z</time>
<speed>4.780000</speed>
<extensions>
<speed>4.8</speed>
<temp>0.00</temp>
<bpm>0</bpm>
<rpm>0.00</rpm>
</extensions>
</trkpt>
<trkpt lat="30.996696472" lon="34.760780334">
<ele>343.640625</ele>
<time>2013-11-20T07:54:24Z</time>
<speed>4.690000</speed>
<extensions>
<speed>4.7</speed>
<temp>0.00</temp>
<bpm>0</bpm>
<rpm>0.00</rpm>
</extensions>
</trkpt>
<trkpt lat="30.996494293" lon="34.760864258">
<ele>344.109375</ele>
<time>2013-11-20T07:54:29Z</time>
<speed>4.920000</speed>
<extensions>
<speed>4.9</speed>
<temp>0.00</temp>
<bpm>0</bpm>
<rpm>0.00</rpm>
</extensions>
</trkpt>
<trkpt lat="30.996290207" lon="34.760951996">
<ele>344.335938</ele>
<time>2013-11-20T07:54:34Z</time>
<speed>4.960000</speed>
<extensions>
<speed>5.0</speed>
<temp>0.00</temp>
<bpm>0</bpm>
<rpm>0.00</rpm>
</extensions>
</trkpt>
<trkpt lat="30.996103287" lon="34.761032104">
<ele>344.562500</ele>
<time>2013-11-20T07:54:39Z</time>
<speed>4.640000</speed>
<extensions>
<speed>4.6</speed>
<temp>0.00</temp>
<bpm>0</bpm>
<rpm>0.00</rpm>
</extensions>
</trkpt>
<trkpt lat="30.995908737" lon="34.761119843">
<ele>344.539063</ele>
<time>2013-11-20T07:54:44Z</time>
<speed>4.910000</speed>
<extensions>
<speed>4.9</speed>
<temp>0.00</temp>
<bpm>0</bpm>
<rpm>0.00</rpm>
</extensions>
</trkpt>
<trkpt lat="30.995695114" lon="34.761211395">
<ele>345.015625</ele>
<time>2013-11-20T07:54:49Z</time>
<speed>4.860000</speed>
<extensions>
<speed>4.9</speed>
<temp>0.00</temp>
<bpm>0</bpm>
<rpm>0.00</rpm>
</extensions>
</trkpt>
<trkpt lat="30.995489120" lon="34.761299133">
<ele>345.148438</ele>
<time>2013-11-20T07:54:54Z</time>
<speed>4.820000</speed>
<extensions>
<speed>4.8</speed>
<temp>0.00</temp>
<bpm>0</bpm>
<rpm>0.00</rpm>
</extensions>
</trkpt>
<trkpt lat="30.995279312" lon="34.761394501">
<ele>345.242188</ele>
<time>2013-11-20T07:54:59Z</time>
<speed>4.960000</speed>
<extensions>
<speed>5.0</speed>
<temp>0.00</temp>
<bpm>0</bpm>
<rpm>0.00</rpm>
</extensions>
</trkpt>
<trkpt lat="30.995065689" lon="34.761482239">
<ele>345.265625</ele>
<time>2013-11-20T07:55:04Z</time>
<speed>4.930000</speed>
<extensions>
<speed>4.9</speed>
<temp>0.00</temp>
<bpm>0</bpm>
<rpm>0.00</rpm>
</extensions>
</trkpt>
<trkpt lat="30.994850159" lon="34.761573792">
<ele>345.453125</ele>
<time>2013-11-20T07:55:09Z</time>
<speed>5.180000</speed>
<extensions>
<speed>5.2</speed>
<temp>0.00</temp>
<bpm>0</bpm>
<rpm>0.00</rpm>
</extensions>
</trkpt>
<trkpt lat="30.994630814" lon="34.761672974">
<ele>345.562500</ele>
<time>2013-11-20T07:55:14Z</time>
<speed>5.230000</speed>
<extensions>
<speed>5.2</speed>
<temp>0.00</temp>
<bpm>0</bpm>
<rpm>0.00</rpm>
</extensions>
</trkpt>
<trkpt lat="30.994409561" lon="34.761772156">
<ele>345.648438</ele>
<time>2013-11-20T07:55:19Z</time>
<speed>5.040000</speed>
<extensions>
<speed>5.0</speed>
<temp>0.00</temp>
<bpm>0</bpm>
<rpm>0.00</rpm>
</extensions>
</trkpt>
<trkpt lat="30.994205475" lon="34.761863708">
<ele>346.281250</ele>
<time>2013-11-20T07:55:24Z</time>
<speed>4.960000</speed>
<extensions>
<speed>5.0</speed>
<temp>0.00</temp>
<bpm>0</bpm>
<rpm>0.00</rpm>
</extensions>
</trkpt>
<trkpt lat="30.993989944" lon="34.761959076">
<ele>346.335938</ele>
<time>2013-11-20T07:55:29Z</time>
<speed>5.050000</speed>
<extensions>
<speed>5.1</speed>
<temp>0.00</temp>
<bpm>0</bpm>
<rpm>0.00</rpm>
</extensions>
</trkpt>
<trkpt lat="30.993843079" lon="34.762012482">
<ele>346.078125</ele>
<time>2013-11-20T07:55:34Z</time>
<speed>2.710000</speed>
<extensions>
<speed>2.7</speed>
<temp>0.00</temp>
<bpm>0</bpm>
<rpm>0.00</rpm>
</extensions>
</trkpt>
<trkpt lat="30.993795395" lon="34.762016296">
<ele>346.476563</ele>
<time>2013-11-20T07:55:39Z</time>
<speed>0.020000</speed>
<extensions>
<speed>0.0</speed>
<temp>0.00</temp>
<bpm>0</bpm>
<rpm>0.00</rpm>
</extensions>
</trkpt>
<trkpt lat="30.993797302" lon="34.762016296">
<ele>346.281250</ele>
<time>2013-11-20T07:55:44Z</time>
<speed>0.080000</speed>
<extensions>
<speed>0.1</speed>
<temp>0.00</temp>
<bpm>0</bpm>
<rpm>0.00</rpm>
</extensions>
</trkpt>
<trkpt lat="30.993797302" lon="34.762016296">
<ele>346.257813</ele>
<time>2013-11-20T07:55:49Z</time>
<speed>0.030000</speed>
<extensions>
<speed>0.0</speed>
<temp>0.00</temp>
<bpm>0</bpm>
<rpm>0.00</rpm>
</extensions>
</trkpt>
<trkpt lat="30.993804932" lon="34.762008667">
<ele>346.351563</ele>
<time>2013-11-20T07:55:54Z</time>
<speed>0.080000</speed>
<extensions>
<speed>0.1</speed>
<temp>0.00</temp>
<bpm>0</bpm>
<rpm>0.00</rpm>
</extensions>
</trkpt>
<trkpt lat="30.993801117" lon="34.762008667">
<ele>346.312500</ele>
<time>2013-11-20T07:55:59Z</time>
<speed>0.190000</speed>
<extensions>
<speed>0.2</speed>
<temp>0.00</temp>
<bpm>0</bpm>
<rpm>0.00</rpm>
</extensions>
</trkpt>
<trkpt lat="30.993806839" lon="34.762012482">
<ele>346.367188</ele>
<time>2013-11-20T07:56:04Z</time>
<speed>0.010000</speed>
<extensions>
<speed>0.0</speed>
<temp>0.00</temp>
<bpm>0</bpm>
<rpm>0.00</rpm>
</extensions>
</trkpt>
<trkpt lat="30.993801117" lon="34.762008667">
<ele>346.937500</ele>
<time>2013-11-20T07:56:09Z</time>
<speed>0.050000</speed>
<extensions>
<speed>0.1</speed>
<temp>0.00</temp>
<bpm>0</bpm>
<rpm>0.00</rpm>
</extensions>
</trkpt>
<trkpt lat="30.993803024" lon="34.762004852">
<ele>347.062500</ele>
<time>2013-11-20T07:56:14Z</time>
<speed>0.040000</speed>
<extensions>
<speed>0.0</speed>
<temp>0.00</temp>
<bpm>0</bpm>
<rpm>0.00</rpm>
</extensions>
</trkpt>
<trkpt lat="30.993804932" lon="34.761997223">
<ele>347.328125</ele>
<time>2013-11-20T07:56:19Z</time>
<speed>0.010000</speed>
<extensions>
<speed>0.0</speed>
<temp>0.00</temp>
<bpm>0</bpm>
<rpm>0.00</rpm>
</extensions>
</trkpt>
<trkpt lat="30.993799210" lon="34.761997223">
<ele>347.828125</ele>
<time>2013-11-20T07:56:24Z</time>
<speed>0.010000</speed>
<extensions>
<speed>0.0</speed>
<temp>0.00</temp>
<bpm>0</bpm>
<rpm>0.00</rpm>
</extensions>
</trkpt>
<trkpt lat="30.993795395" lon="34.762008667">
<ele>348.062500</ele>
<time>2013-11-20T07:56:29Z</time>
<speed>0.040000</speed>
<extensions>
<speed>0.0</speed>
<temp>0.00</temp>
<bpm>0</bpm>
<rpm>0.00</rpm>
</extensions>
</trkpt>
<trkpt lat="30.993740082" lon="34.762035370">
<ele>348.015625</ele>
<time>2013-11-20T07:56:34Z</time>
<speed>2.390000</speed>
<extensions>
<speed>2.4</speed>
<temp>0.00</temp>
<bpm>0</bpm>
<rpm>0.00</rpm>
</extensions>
</trkpt>
<trkpt lat="30.993619919" lon="34.762104034">
<ele>348.500000</ele>
<time>2013-11-20T07:56:39Z</time>
<speed>3.350000</speed>
<extensions>
<speed>3.4</speed>
<temp>0.00</temp>
<bpm>0</bpm>
<rpm>0.00</rpm>
</extensions>
</trkpt>
<trkpt lat="30.993457794" lon="34.762172699">
<ele>349.328125</ele>
<time>2013-11-20T07:56:44Z</time>
<speed>4.160000</speed>
<extensions>
<speed>4.2</speed>
<temp>0.00</temp>
<bpm>0</bpm>
<rpm>0.00</rpm>
</extensions>
</trkpt>
<trkpt lat="30.993272781" lon="34.762252808">
<ele>350.203125</ele>
<time>2013-11-20T07:56:49Z</time>
<speed>4.440000</speed>
<extensions>
<speed>4.4</speed>
<temp>0.00</temp>
<bpm>0</bpm>
<rpm>0.00</rpm>
</extensions>
</trkpt>
<trkpt lat="30.993055344" lon="34.762336731">
<ele>351.351563</ele>
<time>2013-11-20T07:56:54Z</time>
<speed>5.160000</speed>
<extensions>
<speed>5.2</speed>
<temp>0.00</temp>
<bpm>0</bpm>
<rpm>0.00</rpm>
</extensions>
</trkpt>
<trkpt lat="30.992841721" lon="34.762428284">
<ele>351.789063</ele>
<time>2013-11-20T07:56:59Z</time>
<speed>5.130000</speed>
<extensions>
<speed>5.1</speed>
<temp>0.00</temp>
<bpm>0</bpm>
<rpm>0.00</rpm>
</extensions>
</trkpt>
<trkpt lat="30.992622375" lon="34.762527466">
<ele>351.804688</ele>
<time>2013-11-20T07:57:04Z</time>
<speed>5.200000</speed>
<extensions>
<speed>5.2</speed>
<temp>0.00</temp>
<bpm>0</bpm>
<rpm>0.00</rpm>
</extensions>
</trkpt>
<trkpt lat="30.992404938" lon="34.762615204">
<ele>352.953125</ele>
<time>2013-11-20T07:57:09Z</time>
<speed>5.100000</speed>
<extensions>
<speed>5.1</speed>
<temp>0.00</temp>
<bpm>0</bpm>
<rpm>0.00</rpm>
</extensions>
</trkpt>
<trkpt lat="30.992195129" lon="34.762687683">
<ele>353.546875</ele>
<time>2013-11-20T07:57:14Z</time>
<speed>4.530000</speed>
<extensions>
<speed>4.5</speed>
<temp>0.00</temp>
<bpm>0</bpm>
<rpm>0.00</rpm>
</extensions>
</trkpt>
<trkpt lat="30.991989136" lon="34.762702942">
<ele>353.664063</ele>
<time>2013-11-20T07:57:19Z</time>
<speed>4.570000</speed>
<extensions>
<speed>4.6</speed>
<temp>0.00</temp>
<bpm>0</bpm>
<rpm>0.00</rpm>
</extensions>
</trkpt>
<trkpt lat="30.991777420" lon="34.762615204">
<ele>354.000000</ele>
<time>2013-11-20T07:57:24Z</time>
<speed>5.130000</speed>
<extensions>
<speed>5.1</speed>
<temp>0.00</temp>
<bpm>0</bpm>
<rpm>0.00</rpm>
</extensions>
</trkpt>
<trkpt lat="30.991558075" lon="34.762485504">
<ele>353.960938</ele>
<time>2013-11-20T07:57:29Z</time>
<speed>5.200000</speed>
<extensions>
<speed>5.2</speed>
<temp>0.00</temp>
<bpm>0</bpm>
<rpm>0.00</rpm>
</extensions>
</trkpt>
<trkpt lat="30.991355896" lon="34.762332916">
<ele>354.671875</ele>
<time>2013-11-20T07:57:34Z</time>
<speed>5.500000</speed>
<extensions>
<speed>5.5</speed>
<temp>0.00</temp>
<bpm>0</bpm>
<rpm>0.00</rpm>
</extensions>
</trkpt>
<trkpt lat="30.991142273" lon="34.762184143">
<ele>355.171875</ele>
<time>2013-11-20T07:57:39Z</time>
<speed>5.320000</speed>
<extensions>
<speed>5.3</speed>
<temp>0.00</temp>
<bpm>0</bpm>
<rpm>0.00</rpm>
</extensions>
</trkpt>
<trkpt lat="30.990938187" lon="34.762039185">
<ele>358.234375</ele>
<time>2013-11-20T07:57:44Z</time>
<speed>5.050000</speed>
<extensions>
<speed>5.1</speed>
<temp>0.00</temp>
<bpm>0</bpm>
<rpm>0.00</rpm>
</extensions>
</trkpt>
<trkpt lat="30.990745544" lon="34.761917114">
<ele>358.242188</ele>
<time>2013-11-20T07:57:49Z</time>
<speed>4.470000</speed>
<extensions>
<speed>4.5</speed>
<temp>0.00</temp>
<bpm>0</bpm>
<rpm>0.00</rpm>
</extensions>
</trkpt>
<trkpt lat="30.990592957" lon="34.761920929">
<ele>359.750000</ele>
<time>2013-11-20T07:57:54Z</time>
<speed>3.480000</speed>
<extensions>
<speed>3.5</speed>
<temp>0.00</temp>
<bpm>0</bpm>
<rpm>0.00</rpm>
</extensions>
</trkpt>
<trkpt lat="30.990484238" lon="34.762100220">
<ele>354.773438</ele>
<time>2013-11-20T07:57:59Z</time>
<speed>3.640000</speed>
<extensions>
<speed>3.6</speed>
<temp>0.00</temp>
<bpm>0</bpm>
<rpm>0.00</rpm>
</extensions>
</trkpt>
<trkpt lat="30.990436554" lon="34.762283325">
<ele>353.070313</ele>
<time>2013-11-20T07:58:04Z</time>
<speed>2.040000</speed>
<extensions>
<speed>2.0</speed>
<temp>0.00</temp>
<bpm>0</bpm>
<rpm>0.00</rpm>
</extensions>
</trkpt>
<trkpt lat="30.990451813" lon="34.762355804">
<ele>353.375000</ele>
<time>2013-11-20T07:58:09Z</time>
<speed>0.910000</speed>
<extensions>
<speed>0.9</speed>
<temp>0.00</temp>
<bpm>0</bpm>
<rpm>0.00</rpm>
</extensions>
</trkpt>
<trkpt lat="30.990503311" lon="34.762409210">
<ele>354.789063</ele>
<time>2013-11-20T07:58:14Z</time>
<speed>2.410000</speed>
<extensions>
<speed>2.4</speed>
<temp>0.00</temp>
<bpm>0</bpm>
<rpm>0.00</rpm>
</extensions>
</trkpt>
<trkpt lat="30.990558624" lon="34.762531281">
<ele>353.976563</ele>
<time>2013-11-20T07:58:19Z</time>
<speed>2.840000</speed>
<extensions>
<speed>2.8</speed>
<temp>0.00</temp>
<bpm>0</bpm>
<rpm>0.00</rpm>
</extensions>
</trkpt>
<trkpt lat="30.990692139" lon="34.762672424">
<ele>353.179688</ele>
<time>2013-11-20T07:58:24Z</time>
<speed>4.590000</speed>
<extensions>
<speed>4.6</speed>
<temp>0.00</temp>
<bpm>0</bpm>
<rpm>0.00</rpm>
</extensions>
</trkpt>
<trkpt lat="30.990785599" lon="34.762897491">
<ele>351.273438</ele>
<time>2013-11-20T07:58:29Z</time>
<speed>4.840000</speed>
<extensions>
<speed>4.8</speed>
<temp>0.00</temp>
<bpm>0</bpm>
<rpm>0.00</rpm>
</extensions>
</trkpt>
<trkpt lat="30.990686417" lon="34.763145447">
<ele>350.757813</ele>
<time>2013-11-20T07:58:34Z</time>
<speed>4.940000</speed>
<extensions>
<speed>4.9</speed>
<temp>0.00</temp>
<bpm>0</bpm>
<rpm>0.00</rpm>
</extensions>
</trkpt>
<trkpt lat="30.990571976" lon="34.763359070">
<ele>350.101563</ele>
<time>2013-11-20T07:58:39Z</time>
<speed>4.600000</speed>
<extensions>
<speed>4.6</speed>
<temp>0.00</temp>
<bpm>0</bpm>
<rpm>0.00</rpm>
</extensions>
</trkpt>
<trkpt lat="30.990461349" lon="34.763561249">
<ele>350.250000</ele>
<time>2013-11-20T07:58:44Z</time>
<speed>4.770000</speed>
<extensions>
<speed>4.8</speed>
<temp>0.00</temp>
<bpm>0</bpm>
<rpm>0.00</rpm>
</extensions>
</trkpt>
<trkpt lat="30.990339279" lon="34.763744354">
<ele>352.023438</ele>
<time>2013-11-20T07:58:49Z</time>
<speed>4.620000</speed>
<extensions>
<speed>4.6</speed>
<temp>0.00</temp>
<bpm>0</bpm>
<rpm>0.00</rpm>
</extensions>
</trkpt>
<trkpt lat="30.990194321" lon="34.763919830">
<ele>353.179688</ele>
<time>2013-11-20T07:58:54Z</time>
<speed>4.280000</speed>
<extensions>
<speed>4.3</speed>
<temp>0.00</temp>
<bpm>0</bpm>
<rpm>0.00</rpm>
</extensions>
</trkpt>
<trkpt lat="30.990026474" lon="34.764076233">
<ele>355.015625</ele>
<time>2013-11-20T07:58:59Z</time>
<speed>4.550000</speed>
<extensions>
<speed>4.5</speed>
<temp>0.00</temp>
<bpm>0</bpm>
<rpm>0.00</rpm>
</extensions>
</trkpt>
<trkpt lat="30.989849091" lon="34.764213562">
<ele>356.937500</ele>
<time>2013-11-20T07:59:04Z</time>
<speed>4.610000</speed>
<extensions>
<speed>4.6</speed>
<temp>0.00</temp>
<bpm>0</bpm>
<rpm>0.00</rpm>
</extensions>
</trkpt>
<trkpt lat="30.989675522" lon="34.764339447">
<ele>358.000000</ele>
<time>2013-11-20T07:59:09Z</time>
<speed>4.380000</speed>
<extensions>
<speed>4.4</speed>
<temp>0.00</temp>
<bpm>0</bpm>
<rpm>0.00</rpm>
</extensions>
</trkpt>
<trkpt lat="30.989503860" lon="34.764469147">
<ele>359.695313</ele>
<time>2013-11-20T07:59:14Z</time>
<speed>4.450000</speed>
<extensions>
<speed>4.5</speed>
<temp>0.00</temp>
<bpm>0</bpm>
<rpm>0.00</rpm>
</extensions>
</trkpt>
<trkpt lat="30.989334106" lon="34.764595032">
<ele>360.187500</ele>
<time>2013-11-20T07:59:19Z</time>
<speed>4.090000</speed>
<extensions>
<speed>4.1</speed>
<temp>0.00</temp>
<bpm>0</bpm>
<rpm>0.00</rpm>
</extensions>
</trkpt>
<trkpt lat="30.989166260" lon="34.764739990">
<ele>358.765625</ele>
<time>2013-11-20T07:59:24Z</time>
<speed>4.470000</speed>
<extensions>
<speed>4.5</speed>
<temp>0.00</temp>
<bpm>0</bpm>
<rpm>0.00</rpm>
</extensions>
</trkpt>
<trkpt lat="30.988981247" lon="34.764881134">
<ele>357.671875</ele>
<time>2013-11-20T07:59:29Z</time>
<speed>4.650000</speed>
<extensions>
<speed>4.6</speed>
<temp>0.00</temp>
<bpm>0</bpm>
<rpm>0.00</rpm>
</extensions>
</trkpt>
<trkpt lat="30.988809586" lon="34.765022278">
<ele>358.406250</ele>
<time>2013-11-20T07:59:34Z</time>
<speed>4.420000</speed>
<extensions>
<speed>4.4</speed>
<temp>0.00</temp>
<bpm>0</bpm>
<rpm>0.00</rpm>
</extensions>
</trkpt>
<trkpt lat="30.988645554" lon="34.765144348">
<ele>358.859375</ele>
<time>2013-11-20T07:59:39Z</time>
<speed>4.630000</speed>
<extensions>
<speed>4.6</speed>
<temp>0.00</temp>
<bpm>0</bpm>
<rpm>0.00</rpm>
</extensions>
</trkpt>
<trkpt lat="30.988470078" lon="34.765270233">
<ele>360.125000</ele>
<time>2013-11-20T07:59:44Z</time>
<speed>4.500000</speed>
<extensions>
<speed>4.5</speed>
<temp>0.00</temp>
<bpm>0</bpm>
<rpm>0.00</rpm>
</extensions>
</trkpt>
<trkpt lat="30.988309860" lon="34.765396118">
<ele>360.281250</ele>
<time>2013-11-20T07:59:49Z</time>
<speed>4.560000</speed>
<extensions>
<speed>4.6</speed>
<temp>0.00</temp>
<bpm>0</bpm>
<rpm>0.00</rpm>
</extensions>
</trkpt>
<trkpt lat="30.988147736" lon="34.765529633">
<ele>360.437500</ele>
<time>2013-11-20T07:59:54Z</time>
<speed>4.290000</speed>
<extensions>
<speed>4.3</speed>
<temp>0.00</temp>
<bpm>0</bpm>
<rpm>0.00</rpm>
</extensions>
</trkpt>
<trkpt lat="30.987979889" lon="34.765678406">
<ele>361.453125</ele>
<time>2013-11-20T07:59:59Z</time>
<speed>4.320000</speed>
<extensions>
<speed>4.3</speed>
<temp>0.00</temp>
<bpm>0</bpm>
<rpm>0.00</rpm>
</extensions>
</trkpt>
<trkpt lat="30.987813950" lon="34.765834808">
<ele>362.632813</ele>
<time>2013-11-20T08:00:04Z</time>
<speed>4.760000</speed>
<extensions>
<speed>4.8</speed>
<temp>0.00</temp>
<bpm>0</bpm>
<rpm>0.00</rpm>
</extensions>
</trkpt>
<trkpt lat="30.987668991" lon="34.765998840">
<ele>363.742188</ele>
<time>2013-11-20T08:00:09Z</time>
<speed>5.000000</speed>
<extensions>
<speed>5.0</speed>
<temp>0.00</temp>
<bpm>0</bpm>
<rpm>0.00</rpm>
</extensions>
</trkpt>
<trkpt lat="30.987554550" lon="34.766178131">
<ele>364.179688</ele>
<time>2013-11-20T08:00:14Z</time>
<speed>4.590000</speed>
<extensions>
<speed>4.6</speed>
<temp>0.00</temp>
<bpm>0</bpm>
<rpm>0.00</rpm>
</extensions>
</trkpt>
<trkpt lat="30.987413406" lon="34.766368866">
<ele>363.937500</ele>
<time>2013-11-20T08:00:19Z</time>
<speed>4.850000</speed>
<extensions>
<speed>4.8</speed>
<temp>0.00</temp>
<bpm>0</bpm>
<rpm>0.00</rpm>
</extensions>
</trkpt>
<trkpt lat="30.987272263" lon="34.766559601">
<ele>363.453125</ele>
<time>2013-11-20T08:00:24Z</time>
<speed>4.840000</speed>
<extensions>
<speed>4.8</speed>
<temp>0.00</temp>
<bpm>0</bpm>
<rpm>0.00</rpm>
</extensions>
</trkpt>
<trkpt lat="30.987140656" lon="34.766754150">
<ele>363.093750</ele>
<time>2013-11-20T08:00:29Z</time>
<speed>4.970000</speed>
<extensions>
<speed>5.0</speed>
<temp>0.00</temp>
<bpm>0</bpm>
<rpm>0.00</rpm>
</extensions>
</trkpt>
<trkpt lat="30.986976624" lon="34.766937256">
<ele>364.773438</ele>
<time>2013-11-20T08:00:34Z</time>
<speed>4.660000</speed>
<extensions>
<speed>4.7</speed>
<temp>0.00</temp>
<bpm>0</bpm>
<rpm>0.00</rpm>
</extensions>
</trkpt>
<trkpt lat="30.986833572" lon="34.767105103">
<ele>363.523438</ele>
<time>2013-11-20T08:00:39Z</time>
<speed>4.830000</speed>
<extensions>
<speed>4.8</speed>
<temp>0.00</temp>
<bpm>0</bpm>
<rpm>0.00</rpm>
</extensions>
</trkpt>
<trkpt lat="30.986705780" lon="34.767284393">
<ele>365.765625</ele>
<time>2013-11-20T08:00:44Z</time>
<speed>4.440000</speed>
<extensions>
<speed>4.4</speed>
<temp>0.00</temp>
<bpm>0</bpm>
<rpm>0.00</rpm>
</extensions>
</trkpt>
<trkpt lat="30.986572266" lon="34.767467499">
<ele>365.515625</ele>
<time>2013-11-20T08:00:49Z</time>
<speed>4.260000</speed>
<extensions>
<speed>4.3</speed>
<temp>0.00</temp>
<bpm>0</bpm>
<rpm>0.00</rpm>
</extensions>
</trkpt>
<trkpt lat="30.986446381" lon="34.767646790">
<ele>366.164063</ele>
<time>2013-11-20T08:00:54Z</time>
<speed>4.460000</speed>
<extensions>
<speed>4.5</speed>
<temp>0.00</temp>
<bpm>0</bpm>
<rpm>0.00</rpm>
</extensions>
</trkpt>
<trkpt lat="30.986299515" lon="34.767826080">
<ele>367.804688</ele>
<time>2013-11-20T08:00:59Z</time>
<speed>4.610000</speed>
<extensions>
<speed>4.6</speed>
<temp>0.00</temp>
<bpm>0</bpm>
<rpm>0.00</rpm>
</extensions>
</trkpt>
<trkpt lat="30.986169815" lon="34.768020630">
<ele>366.867188</ele>
<time>2013-11-20T08:01:04Z</time>
<speed>4.760000</speed>
<extensions>
<speed>4.8</speed>
<temp>0.00</temp>
<bpm>0</bpm>
<rpm>0.00</rpm>
</extensions>
</trkpt>
<trkpt lat="30.986024857" lon="34.768207550">
<ele>366.656250</ele>
<time>2013-11-20T08:01:09Z</time>
<speed>5.000000</speed>
<extensions>
<speed>5.0</speed>
<temp>0.00</temp>
<bpm>0</bpm>
<rpm>0.00</rpm>
</extensions>
</trkpt>
<trkpt lat="30.985883713" lon="34.768402100">
<ele>366.554688</ele>
<time>2013-11-20T08:01:14Z</time>
<speed>4.850000</speed>
<extensions>
<speed>4.8</speed>
<temp>0.00</temp>
<bpm>0</bpm>
<rpm>0.00</rpm>
</extensions>
</trkpt>
<trkpt lat="30.985734940" lon="34.768589020">
<ele>367.007813</ele>
<time>2013-11-20T08:01:19Z</time>
<speed>4.790000</speed>
<extensions>
<speed>4.8</speed>
<temp>0.00</temp>
<bpm>0</bpm>
<rpm>0.00</rpm>
</extensions>
</trkpt>
<trkpt lat="30.985586166" lon="34.768783569">
<ele>368.625000</ele>
<time>2013-11-20T08:01:24Z</time>
<speed>4.750000</speed>
<extensions>
<speed>4.8</speed>
<temp>0.00</temp>
<bpm>0</bpm>
<rpm>0.00</rpm>
</extensions>
</trkpt>
<trkpt lat="30.985431671" lon="34.768966675">
<ele>369.585938</ele>
<time>2013-11-20T08:01:29Z</time>
<speed>4.700000</speed>
<extensions>
<speed>4.7</speed>
<temp>0.00</temp>
<bpm>0</bpm>
<rpm>0.00</rpm>
</extensions>
</trkpt>
<trkpt lat="30.985292435" lon="34.769149780">
<ele>368.765625</ele>
<time>2013-11-20T08:01:34Z</time>
<speed>4.550000</speed>
<extensions>
<speed>4.5</speed>
<temp>0.00</temp>
<bpm>0</bpm>
<rpm>0.00</rpm>
</extensions>
</trkpt>
<trkpt lat="30.985158920" lon="34.769321442">
<ele>368.796875</ele>
<time>2013-11-20T08:01:39Z</time>
<speed>4.420000</speed>
<extensions>
<speed>4.4</speed>
<temp>0.00</temp>
<bpm>0</bpm>
<rpm>0.00</rpm>
</extensions>
</trkpt>
<trkpt lat="30.985029221" lon="34.769489288">
<ele>367.007813</ele>
<time>2013-11-20T08:01:44Z</time>
<speed>4.320000</speed>
<extensions>
<speed>4.3</speed>
<temp>0.00</temp>
<bpm>0</bpm>
<rpm>0.00</rpm>
</extensions>
</trkpt>
<trkpt lat="30.984884262" lon="34.769641876">
<ele>367.593750</ele>
<time>2013-11-20T08:01:49Z</time>
<speed>4.150000</speed>
<extensions>
<speed>4.1</speed>
<temp>0.00</temp>
<bpm>0</bpm>
<rpm>0.00</rpm>
</extensions>
</trkpt>
<trkpt lat="30.984739304" lon="34.769794464">
<ele>369.257813</ele>
<time>2013-11-20T08:01:54Z</time>
<speed>4.280000</speed>
<extensions>
<speed>4.3</speed>
<temp>0.00</temp>
<bpm>0</bpm>
<rpm>0.00</rpm>
</extensions>
</trkpt>
<trkpt lat="30.984588623" lon="34.769939423">
<ele>370.687500</ele>
<time>2013-11-20T08:01:59Z</time>
<speed>4.290000</speed>
<extensions>
<speed>4.3</speed>
<temp>0.00</temp>
<bpm>0</bpm>
<rpm>0.00</rpm>
</extensions>
</trkpt>
<trkpt lat="30.984420776" lon="34.770080566">
<ele>371.500000</ele>
<time>2013-11-20T08:02:04Z</time>
<speed>4.370000</speed>
<extensions>
<speed>4.4</speed>
<temp>0.00</temp>
<bpm>0</bpm>
<rpm>0.00</rpm>
</extensions>
</trkpt>
<trkpt lat="30.984275818" lon="34.770221710">
<ele>371.585938</ele>
<time>2013-11-20T08:02:09Z</time>
<speed>3.900000</speed>
<extensions>
<speed>3.9</speed>
<temp>0.00</temp>
<bpm>0</bpm>
<rpm>0.00</rpm>
</extensions>
</trkpt>
<trkpt lat="30.984117508" lon="34.770351410">
<ele>373.523438</ele>
<time>2013-11-20T08:02:14Z</time>
<speed>4.210000</speed>
<extensions>
<speed>4.2</speed>
<temp>0.00</temp>
<bpm>0</bpm>
<rpm>0.00</rpm>
</extensions>
</trkpt>
<trkpt lat="30.983980179" lon="34.770477295">
<ele>374.195313</ele>
<time>2013-11-20T08:02:19Z</time>
<speed>3.760000</speed>
<extensions>
<speed>3.8</speed>
<temp>0.00</temp>
<bpm>0</bpm>
<rpm>0.00</rpm>
</extensions>
</trkpt>
<trkpt lat="30.983821869" lon="34.770606995">
<ele>376.101563</ele>
<time>2013-11-20T08:02:24Z</time>
<speed>4.210000</speed>
<extensions>
<speed>4.2</speed>
<temp>0.00</temp>
<bpm>0</bpm>
<rpm>0.00</rpm>
</extensions>
</trkpt>
<trkpt lat="30.983642578" lon="34.770721436">
<ele>377.343750</ele>
<time>2013-11-20T08:02:29Z</time>
<speed>4.550000</speed>
<extensions>
<speed>4.5</speed>
<temp>0.00</temp>
<bpm>0</bpm>
<rpm>0.00</rpm>
</extensions>
</trkpt>
<trkpt lat="30.983461380" lon="34.770835876">
<ele>378.015625</ele>
<time>2013-11-20T08:02:34Z</time>
<speed>4.350000</speed>
<extensions>
<speed>4.3</speed>
<temp>0.00</temp>
<bpm>0</bpm>
<rpm>0.00</rpm>
</extensions>
</trkpt>
<trkpt lat="30.983280182" lon="34.770950317">
<ele>380.039063</ele>
<time>2013-11-20T08:02:39Z</time>
<speed>4.690000</speed>
<extensions>
<speed>4.7</speed>
<temp>0.00</temp>
<bpm>0</bpm>
<rpm>0.00</rpm>
</extensions>
</trkpt>
<trkpt lat="30.983083725" lon="34.771072388">
<ele>380.031250</ele>
<time>2013-11-20T08:02:44Z</time>
<speed>4.760000</speed>
<extensions>
<speed>4.8</speed>
<temp>0.00</temp>
<bpm>0</bpm>
<rpm>0.00</rpm>
</extensions>
</trkpt>
<trkpt lat="30.982889175" lon="34.771186829">
<ele>380.695313</ele>
<time>2013-11-20T08:02:49Z</time>
<speed>5.100000</speed>
<extensions>
<speed>5.1</speed>
<temp>0.00</temp>
<bpm>0</bpm>
<rpm>0.00</rpm>
</extensions>
</trkpt>
<trkpt lat="30.982685089" lon="34.771308899">
<ele>382.101563</ele>
<time>2013-11-20T08:02:54Z</time>
<speed>5.180000</speed>
<extensions>
<speed>5.2</speed>
<temp>0.00</temp>
<bpm>0</bpm>
<rpm>0.00</rpm>
</extensions>
</trkpt>
<trkpt lat="30.982482910" lon="34.771427155">
<ele>383.164063</ele>
<time>2013-11-20T08:02:59Z</time>
<speed>5.130000</speed>
<extensions>
<speed>5.1</speed>
<temp>0.00</temp>
<bpm>0</bpm>
<rpm>0.00</rpm>
</extensions>
</trkpt>
<trkpt lat="30.982275009" lon="34.771541595">
<ele>383.679688</ele>
<time>2013-11-20T08:03:04Z</time>
<speed>5.100000</speed>
<extensions>
<speed>5.1</speed>
<temp>0.00</temp>
<bpm>0</bpm>
<rpm>0.00</rpm>
</extensions>
</trkpt>
<trkpt lat="30.982070923" lon="34.771644592">
<ele>385.312500</ele>
<time>2013-11-20T08:03:09Z</time>
<speed>5.210000</speed>
<extensions>
<speed>5.2</speed>
<temp>0.00</temp>
<bpm>0</bpm>
<rpm>0.00</rpm>
</extensions>
</trkpt>
<trkpt lat="30.981851578" lon="34.771759033">
<ele>384.421875</ele>
<time>2013-11-20T08:03:14Z</time>
<speed>5.100000</speed>
<extensions>
<speed>5.1</speed>
<temp>0.00</temp>
<bpm>0</bpm>
<rpm>0.00</rpm>
</extensions>
</trkpt>
<trkpt lat="30.981616974" lon="34.771858215">
<ele>383.132813</ele>
<time>2013-11-20T08:03:19Z</time>
<speed>5.190000</speed>
<extensions>
<speed>5.2</speed>
<temp>0.00</temp>
<bpm>0</bpm>
<rpm>0.00</rpm>
</extensions>
</trkpt>
<trkpt lat="30.981403351" lon="34.771938324">
<ele>385.937500</ele>
<time>2013-11-20T08:03:24Z</time>
<speed>5.060000</speed>
<extensions>
<speed>5.1</speed>
<temp>0.00</temp>
<bpm>0</bpm>
<rpm>0.00</rpm>
</extensions>
</trkpt>
<trkpt lat="30.981195450" lon="34.772014618">
<ele>390.757813</ele>
<time>2013-11-20T08:03:29Z</time>
<speed>4.980000</speed>
<extensions>
<speed>5.0</speed>
<temp>0.00</temp>
<bpm>0</bpm>
<rpm>0.00</rpm>
</extensions>
</trkpt>
<trkpt lat="30.980966568" lon="34.772083282">
<ele>391.437500</ele>
<time>2013-11-20T08:03:34Z</time>
<speed>4.910000</speed>
<extensions>
<speed>4.9</speed>
<temp>0.00</temp>
<bpm>0</bpm>
<rpm>0.00</rpm>
</extensions>
</trkpt>
<trkpt lat="30.980739594" lon="34.772148132">
<ele>393.187500</ele>
<time>2013-11-20T08:03:39Z</time>
<speed>5.060000</speed>
<extensions>
<speed>5.1</speed>
<temp>0.00</temp>
<bpm>0</bpm>
<rpm>0.00</rpm>
</extensions>
</trkpt>
<trkpt lat="30.980527878" lon="34.772212982">
<ele>393.531250</ele>
<time>2013-11-20T08:03:44Z</time>
<speed>4.980000</speed>
<extensions>
<speed>5.0</speed>
<temp>0.00</temp>
<bpm>0</bpm>
<rpm>0.00</rpm>
</extensions>
</trkpt>
<trkpt lat="30.980297089" lon="34.772270203">
<ele>391.765625</ele>
<time>2013-11-20T08:03:49Z</time>
<speed>4.720000</speed>
<extensions>
<speed>4.7</speed>
<temp>0.00</temp>
<bpm>0</bpm>
<rpm>0.00</rpm>
</extensions>
</trkpt>
<trkpt lat="30.980072021" lon="34.772323608">
<ele>392.195313</ele>
<time>2013-11-20T08:03:54Z</time>
<speed>5.080000</speed>
<extensions>
<speed>5.1</speed>
<temp>0.00</temp>
<bpm>0</bpm>
<rpm>0.00</rpm>
</extensions>
</trkpt>
<trkpt lat="30.979852676" lon="34.772361755">
<ele>391.132813</ele>
<time>2013-11-20T08:03:59Z</time>
<speed>5.040000</speed>
<extensions>
<speed>5.0</speed>
<temp>0.00</temp>
<bpm>0</bpm>
<rpm>0.00</rpm>
</extensions>
</trkpt>
<trkpt lat="30.979621887" lon="34.772396088">
<ele>390.304688</ele>
<time>2013-11-20T08:04:04Z</time>
<speed>5.020000</speed>
<extensions>
<speed>5.0</speed>
<temp>0.00</temp>
<bpm>0</bpm>
<rpm>0.00</rpm>
</extensions>
</trkpt>
<trkpt lat="30.979400635" lon="34.772426605">
<ele>390.718750</ele>
<time>2013-11-20T08:04:09Z</time>
<speed>4.950000</speed>
<extensions>
<speed>4.9</speed>
<temp>0.00</temp>
<bpm>0</bpm>
<rpm>0.00</rpm>
</extensions>
</trkpt>
<trkpt lat="30.979173660" lon="34.772457123">
<ele>388.812500</ele>
<time>2013-11-20T08:04:14Z</time>
<speed>4.840000</speed>
<extensions>
<speed>4.8</speed>
<temp>0.00</temp>
<bpm>0</bpm>
<rpm>0.00</rpm>
</extensions>
</trkpt>
<trkpt lat="30.978963852" lon="34.772476196">
<ele>387.515625</ele>
<time>2013-11-20T08:04:19Z</time>
<speed>4.890000</speed>
<extensions>
<speed>4.9</speed>
<temp>0.00</temp>
<bpm>0</bpm>
<rpm>0.00</rpm>
</extensions>
</trkpt>
<trkpt lat="30.978752136" lon="34.772468567">
<ele>389.000000</ele>
<time>2013-11-20T08:04:24Z</time>
<speed>4.810000</speed>
<extensions>
<speed>4.8</speed>
<temp>0.00</temp>
<bpm>0</bpm>
<rpm>0.00</rpm>
</extensions>
</trkpt>
<trkpt lat="30.978544235" lon="34.772468567">
<ele>391.187500</ele>
<time>2013-11-20T08:04:29Z</time>
<speed>4.650000</speed>
<extensions>
<speed>4.6</speed>
<temp>0.00</temp>
<bpm>0</bpm>
<rpm>0.00</rpm>
</extensions>
</trkpt>
<trkpt lat="30.978334427" lon="34.772460938">
<ele>393.312500</ele>
<time>2013-11-20T08:04:34Z</time>
<speed>4.490000</speed>
<extensions>
<speed>4.5</speed>
<temp>0.00</temp>
<bpm>0</bpm>
<rpm>0.00</rpm>
</extensions>
</trkpt>
<trkpt lat="30.978136063" lon="34.772453308">
<ele>394.578125</ele>
<time>2013-11-20T08:04:39Z</time>
<speed>4.260000</speed>
<extensions>
<speed>4.3</speed>
<temp>0.00</temp>
<bpm>0</bpm>
<rpm>0.00</rpm>
</extensions>
</trkpt>
<trkpt lat="30.977952957" lon="34.772441864">
<ele>395.835938</ele>
<time>2013-11-20T08:04:44Z</time>
<speed>4.220000</speed>
<extensions>
<speed>4.2</speed>
<temp>0.00</temp>
<bpm>0</bpm>
<rpm>0.00</rpm>
</extensions>
</trkpt>
<trkpt lat="30.977754593" lon="34.772434235">
<ele>397.250000</ele>
<time>2013-11-20T08:04:49Z</time>
<speed>4.440000</speed>
<extensions>
<speed>4.4</speed>
<temp>0.00</temp>
<bpm>0</bpm>
<rpm>0.00</rpm>
</extensions>
</trkpt>
<trkpt lat="30.977552414" lon="34.772430420">
<ele>395.828125</ele>
<time>2013-11-20T08:04:54Z</time>
<speed>4.510000</speed>
<extensions>
<speed>4.5</speed>
<temp>0.00</temp>
<bpm>0</bpm>
<rpm>0.00</rpm>
</extensions>
</trkpt>
<trkpt lat="30.977355957" lon="34.772438049">
<ele>393.867188</ele>
<time>2013-11-20T08:04:59Z</time>
<speed>4.400000</speed>
<extensions>
<speed>4.4</speed>
<temp>0.00</temp>
<bpm>0</bpm>
<rpm>0.00</rpm>
</extensions>
</trkpt>
<trkpt lat="30.977170944" lon="34.772438049">
<ele>393.992188</ele>
<time>2013-11-20T08:05:04Z</time>
<speed>3.990000</speed>
<extensions>
<speed>4.0</speed>
<temp>0.00</temp>
<bpm>0</bpm>
<rpm>0.00</rpm>
</extensions>
</trkpt>
<trkpt lat="30.976980209" lon="34.772426605">
<ele>393.273438</ele>
<time>2013-11-20T08:05:09Z</time>
<speed>4.210000</speed>
<extensions>
<speed>4.2</speed>
<temp>0.00</temp>
<bpm>0</bpm>
<rpm>0.00</rpm>
</extensions>
</trkpt>
<trkpt lat="30.976791382" lon="34.772422791">
<ele>395.328125</ele>
<time>2013-11-20T08:05:14Z</time>
<speed>4.240000</speed>
<extensions>
<speed>4.2</speed>
<temp>0.00</temp>
<bpm>0</bpm>
<rpm>0.00</rpm>
</extensions>
</trkpt>
<trkpt lat="30.976596832" lon="34.772415161">
<ele>398.273438</ele>
<time>2013-11-20T08:05:19Z</time>
<speed>4.060000</speed>
<extensions>
<speed>4.1</speed>
<temp>0.00</temp>
<bpm>0</bpm>
<rpm>0.00</rpm>
</extensions>
</trkpt>
<trkpt lat="30.976415634" lon="34.772407532">
<ele>400.054688</ele>
<time>2013-11-20T08:05:24Z</time>
<speed>4.130000</speed>
<extensions>
<speed>4.1</speed>
<temp>0.00</temp>
<bpm>0</bpm>
<rpm>0.00</rpm>
</extensions>
</trkpt>
<trkpt lat="30.976232529" lon="34.772399902">
<ele>401.390625</ele>
<time>2013-11-20T08:05:29Z</time>
<speed>4.070000</speed>
<extensions>
<speed>4.1</speed>
<temp>0.00</temp>
<bpm>0</bpm>
<rpm>0.00</rpm>
</extensions>
</trkpt>
<trkpt lat="30.976045609" lon="34.772415161">
<ele>401.656250</ele>
<time>2013-11-20T08:05:34Z</time>
<speed>4.130000</speed>
<extensions>
<speed>4.1</speed>
<temp>0.00</temp>
<bpm>0</bpm>
<rpm>0.00</rpm>
</extensions>
</trkpt>
<trkpt lat="30.975866318" lon="34.772407532">
<ele>402.617188</ele>
<time>2013-11-20T08:05:39Z</time>
<speed>4.220000</speed>
<extensions>
<speed>4.2</speed>
<temp>0.00</temp>
<bpm>0</bpm>
<rpm>0.00</rpm>
</extensions>
</trkpt>
<trkpt lat="30.975685120" lon="34.772399902">
<ele>403.140625</ele>
<time>2013-11-20T08:05:44Z</time>
<speed>4.350000</speed>
<extensions>
<speed>4.3</speed>
<temp>0.00</temp>
<bpm>0</bpm>
<rpm>0.00</rpm>
</extensions>
</trkpt>
<trkpt lat="30.975507736" lon="34.772392273">
<ele>404.273438</ele>
<time>2013-11-20T08:05:49Z</time>
<speed>4.240000</speed>
<extensions>
<speed>4.2</speed>
<temp>0.00</temp>
<bpm>0</bpm>
<rpm>0.00</rpm>
</extensions>
</trkpt>
<trkpt lat="30.975332260" lon="34.772392273">
<ele>402.687500</ele>
<time>2013-11-20T08:05:54Z</time>
<speed>4.030000</speed>
<extensions>
<speed>4.0</speed>
<temp>0.00</temp>
<bpm>0</bpm>
<rpm>0.00</rpm>
</extensions>
</trkpt>
<trkpt lat="30.975158691" lon="34.772396088">
<ele>401.500000</ele>
<time>2013-11-20T08:05:59Z</time>
<speed>3.990000</speed>
<extensions>
<speed>4.0</speed>
<temp>0.00</temp>
<bpm>0</bpm>
<rpm>0.00</rpm>
</extensions>
</trkpt>
<trkpt lat="30.974975586" lon="34.772392273">
<ele>401.390625</ele>
<time>2013-11-20T08:06:04Z</time>
<speed>3.970000</speed>
<extensions>
<speed>4.0</speed>
<temp>0.00</temp>
<bpm>0</bpm>
<rpm>0.00</rpm>
</extensions>
</trkpt>
<trkpt lat="30.974798203" lon="34.772399902">
<ele>400.640625</ele>
<time>2013-11-20T08:06:09Z</time>
<speed>4.140000</speed>
<extensions>
<speed>4.1</speed>
<temp>0.00</temp>
<bpm>0</bpm>
<rpm>0.00</rpm>
</extensions>
</trkpt>
<trkpt lat="30.974601746" lon="34.772373199">
<ele>399.437500</ele>
<time>2013-11-20T08:06:14Z</time>
<speed>4.300000</speed>
<extensions>
<speed>4.3</speed>
<temp>0.00</temp>
<bpm>0</bpm>
<rpm>0.00</rpm>
</extensions>
</trkpt>
<trkpt lat="30.974401474" lon="34.772369385">
<ele>400.640625</ele>
<time>2013-11-20T08:06:19Z</time>
<speed>4.280000</speed>
<extensions>
<speed>4.3</speed>
<temp>0.00</temp>
<bpm>0</bpm>
<rpm>0.00</rpm>
</extensions>
</trkpt>
<trkpt lat="30.974205017" lon="34.772365570">
<ele>401.250000</ele>
<time>2013-11-20T08:06:24Z</time>
<speed>4.120000</speed>
<extensions>
<speed>4.1</speed>
<temp>0.00</temp>
<bpm>0</bpm>
<rpm>0.00</rpm>
</extensions>
</trkpt>
<trkpt lat="30.974023819" lon="34.772365570">
<ele>403.507813</ele>
<time>2013-11-20T08:06:29Z</time>
<speed>4.060000</speed>
<extensions>
<speed>4.1</speed>
<temp>0.00</temp>
<bpm>0</bpm>
<rpm>0.00</rpm>
</extensions>
</trkpt>
<trkpt lat="30.973833084" lon="34.772357941">
<ele>405.468750</ele>
<time>2013-11-20T08:06:34Z</time>
<speed>4.220000</speed>
<extensions>
<speed>4.2</speed>
<temp>0.00</temp>
<bpm>0</bpm>
<rpm>0.00</rpm>
</extensions>
</trkpt>
<trkpt lat="30.973651886" lon="34.772350311">
<ele>406.078125</ele>
<time>2013-11-20T08:06:39Z</time>
<speed>4.090000</speed>
<extensions>
<speed>4.1</speed>
<temp>0.00</temp>
<bpm>0</bpm>
<rpm>0.00</rpm>
</extensions>
</trkpt>
<trkpt lat="30.973468781" lon="34.772342682">
<ele>408.164063</ele>
<time>2013-11-20T08:06:44Z</time>
<speed>4.010000</speed>
<extensions>
<speed>4.0</speed>
<temp>0.00</temp>
<bpm>0</bpm>
<rpm>0.00</rpm>
</extensions>
</trkpt>
<trkpt lat="30.973276138" lon="34.772354126">
<ele>410.070313</ele>
<time>2013-11-20T08:06:49Z</time>
<speed>4.590000</speed>
<extensions>
<speed>4.6</speed>
<temp>0.00</temp>
<bpm>0</bpm>
<rpm>0.00</rpm>
</extensions>
</trkpt>
<trkpt lat="30.973081589" lon="34.772369385">
<ele>412.859375</ele>
<time>2013-11-20T08:06:54Z</time>
<speed>4.630000</speed>
<extensions>
<speed>4.6</speed>
<temp>0.00</temp>
<bpm>0</bpm>
<rpm>0.00</rpm>
</extensions>
</trkpt>
<trkpt lat="30.972866058" lon="34.772407532">
<ele>409.890625</ele>
<time>2013-11-20T08:06:59Z</time>
<speed>4.670000</speed>
<extensions>
<speed>4.7</speed>
<temp>0.00</temp>
<bpm>0</bpm>
<rpm>0.00</rpm>
</extensions>
</trkpt>
<trkpt lat="30.972660065" lon="34.772445679">
<ele>409.234375</ele>
<time>2013-11-20T08:07:04Z</time>
<speed>4.680000</speed>
<extensions>
<speed>4.7</speed>
<temp>0.00</temp>
<bpm>0</bpm>
<rpm>0.00</rpm>
</extensions>
</trkpt>
<trkpt lat="30.972448349" lon="34.772480011">
<ele>407.546875</ele>
<time>2013-11-20T08:07:09Z</time>
<speed>4.740000</speed>
<extensions>
<speed>4.7</speed>
<temp>0.00</temp>
<bpm>0</bpm>
<rpm>0.00</rpm>
</extensions>
</trkpt>
<trkpt lat="30.972219467" lon="34.772541046">
<ele>408.890625</ele>
<time>2013-11-20T08:07:14Z</time>
<speed>5.000000</speed>
<extensions>
<speed>5.0</speed>
<temp>0.00</temp>
<bpm>0</bpm>
<rpm>0.00</rpm>
</extensions>
</trkpt>
<trkpt lat="30.972021103" lon="34.772605896">
<ele>411.070313</ele>
<time>2013-11-20T08:07:19Z</time>
<speed>4.880000</speed>
<extensions>
<speed>4.9</speed>
<temp>0.00</temp>
<bpm>0</bpm>
<rpm>0.00</rpm>
</extensions>
</trkpt>
<trkpt lat="30.971824646" lon="34.772697449">
<ele>413.351563</ele>
<time>2013-11-20T08:07:24Z</time>
<speed>5.040000</speed>
<extensions>
<speed>5.0</speed>
<temp>0.00</temp>
<bpm>0</bpm>
<rpm>0.00</rpm>
</extensions>
</trkpt>
<trkpt lat="30.971618652" lon="34.772800446">
<ele>410.500000</ele>
<time>2013-11-20T08:07:29Z</time>
<speed>5.150000</speed>
<extensions>
<speed>5.2</speed>
<temp>0.00</temp>
<bpm>0</bpm>
<rpm>0.00</rpm>
</extensions>
</trkpt>
<trkpt lat="30.971412659" lon="34.772918701">
<ele>410.007813</ele>
<time>2013-11-20T08:07:34Z</time>
<speed>5.040000</speed>
<extensions>
<speed>5.0</speed>
<temp>0.00</temp>
<bpm>0</bpm>
<rpm>0.00</rpm>
</extensions>
</trkpt>
<trkpt lat="30.971216202" lon="34.773067474">
<ele>411.062500</ele>
<time>2013-11-20T08:07:39Z</time>
<speed>4.980000</speed>
<extensions>
<speed>5.0</speed>
<temp>0.00</temp>
<bpm>0</bpm>
<rpm>0.00</rpm>
</extensions>
</trkpt>
<trkpt lat="30.971019745" lon="34.773208618">
<ele>409.851563</ele>
<time>2013-11-20T08:07:44Z</time>
<speed>5.030000</speed>
<extensions>
<speed>5.0</speed>
<temp>0.00</temp>
<bpm>0</bpm>
<rpm>0.00</rpm>
</extensions>
</trkpt>
<trkpt lat="30.970834732" lon="34.773361206">
<ele>406.898438</ele>
<time>2013-11-20T08:07:49Z</time>
<speed>5.260000</speed>
<extensions>
<speed>5.3</speed>
<temp>0.00</temp>
<bpm>0</bpm>
<rpm>0.00</rpm>
</extensions>
</trkpt>
<trkpt lat="30.970655441" lon="34.773513794">
<ele>407.851563</ele>
<time>2013-11-20T08:07:54Z</time>
<speed>5.010000</speed>
<extensions>
<speed>5.0</speed>
<temp>0.00</temp>
<bpm>0</bpm>
<rpm>0.00</rpm>
</extensions>
</trkpt>
<trkpt lat="30.970470428" lon="34.773689270">
<ele>407.406250</ele>
<time>2013-11-20T08:07:59Z</time>
<speed>5.140000</speed>
<extensions>
<speed>5.1</speed>
<temp>0.00</temp>
<bpm>0</bpm>
<rpm>0.00</rpm>
</extensions>
</trkpt>
<trkpt lat="30.970279694" lon="34.773857117">
<ele>408.421875</ele>
<time>2013-11-20T08:08:04Z</time>
<speed>4.950000</speed>
<extensions>
<speed>4.9</speed>
<temp>0.00</temp>
<bpm>0</bpm>
<rpm>0.00</rpm>
</extensions>
</trkpt>
<trkpt lat="30.970098495" lon="34.774021149">
<ele>408.734375</ele>
<time>2013-11-20T08:08:09Z</time>
<speed>5.000000</speed>
<extensions>
<speed>5.0</speed>
<temp>0.00</temp>
<bpm>0</bpm>
<rpm>0.00</rpm>
</extensions>
</trkpt>
<trkpt lat="30.969919205" lon="34.774181366">
<ele>409.414063</ele>
<time>2013-11-20T08:08:14Z</time>
<speed>4.730000</speed>
<extensions>
<speed>4.7</speed>
<temp>0.00</temp>
<bpm>0</bpm>
<rpm>0.00</rpm>
</extensions>
</trkpt>
<trkpt lat="30.969749451" lon="34.774341583">
<ele>409.710938</ele>
<time>2013-11-20T08:08:19Z</time>
<speed>4.820000</speed>
<extensions>
<speed>4.8</speed>
<temp>0.00</temp>
<bpm>0</bpm>
<rpm>0.00</rpm>
</extensions>
</trkpt>
<trkpt lat="30.969579697" lon="34.774497986">
<ele>410.195313</ele>
<time>2013-11-20T08:08:24Z</time>
<speed>4.870000</speed>
<extensions>
<speed>4.9</speed>
<temp>0.00</temp>
<bpm>0</bpm>
<rpm>0.00</rpm>
</extensions>
</trkpt>
<trkpt lat="30.969415665" lon="34.774642944">
<ele>412.007813</ele>
<time>2013-11-20T08:08:29Z</time>
<speed>4.640000</speed>
<extensions>
<speed>4.6</speed>
<temp>0.00</temp>
<bpm>0</bpm>
<rpm>0.00</rpm>
</extensions>
</trkpt>
<trkpt lat="30.969234467" lon="34.774780273">
<ele>413.929688</ele>
<time>2013-11-20T08:08:34Z</time>
<speed>4.780000</speed>
<extensions>
<speed>4.8</speed>
<temp>0.00</temp>
<bpm>0</bpm>
<rpm>0.00</rpm>
</extensions>
</trkpt>
<trkpt lat="30.969060898" lon="34.774921417">
<ele>416.898438</ele>
<time>2013-11-20T08:08:39Z</time>
<speed>4.420000</speed>
<extensions>
<speed>4.4</speed>
<temp>0.00</temp>
<bpm>0</bpm>
<rpm>0.00</rpm>
</extensions>
</trkpt>
<trkpt lat="30.968900681" lon="34.775054932">
<ele>420.117188</ele>
<time>2013-11-20T08:08:44Z</time>
<speed>4.710000</speed>
<extensions>
<speed>4.7</speed>
<temp>0.00</temp>
<bpm>0</bpm>
<rpm>0.00</rpm>
</extensions>
</trkpt>
<trkpt lat="30.968711853" lon="34.775188446">
<ele>419.687500</ele>
<time>2013-11-20T08:08:49Z</time>
<speed>4.810000</speed>
<extensions>
<speed>4.8</speed>
<temp>0.00</temp>
<bpm>0</bpm>
<rpm>0.00</rpm>
</extensions>
</trkpt>
<trkpt lat="30.968545914" lon="34.775352478">
<ele>419.828125</ele>
<time>2013-11-20T08:08:54Z</time>
<speed>4.510000</speed>
<extensions>
<speed>4.5</speed>
<temp>0.00</temp>
<bpm>0</bpm>
<rpm>0.00</rpm>
</extensions>
</trkpt>
<trkpt lat="30.968376160" lon="34.775508881">
<ele>417.539063</ele>
<time>2013-11-20T08:08:59Z</time>
<speed>4.340000</speed>
<extensions>
<speed>4.3</speed>
<temp>0.00</temp>
<bpm>0</bpm>
<rpm>0.00</rpm>
</extensions>
</trkpt>
<trkpt lat="30.968208313" lon="34.775646210">
<ele>416.164063</ele>
<time>2013-11-20T08:09:04Z</time>
<speed>4.100000</speed>
<extensions>
<speed>4.1</speed>
<temp>0.00</temp>
<bpm>0</bpm>
<rpm>0.00</rpm>
</extensions>
</trkpt>
<trkpt lat="30.968061447" lon="34.775779724">
<ele>416.164063</ele>
<time>2013-11-20T08:09:09Z</time>
<speed>3.920000</speed>
<extensions>
<speed>3.9</speed>
<temp>0.00</temp>
<bpm>0</bpm>
<rpm>0.00</rpm>
</extensions>
</trkpt>
<trkpt lat="30.967920303" lon="34.775901794">
<ele>416.984375</ele>
<time>2013-11-20T08:09:14Z</time>
<speed>3.850000</speed>
<extensions>
<speed>3.8</speed>
<temp>0.00</temp>
<bpm>0</bpm>
<rpm>0.00</rpm>
</extensions>
</trkpt>
<trkpt lat="30.967767715" lon="34.776031494">
<ele>418.210938</ele>
<time>2013-11-20T08:09:19Z</time>
<speed>4.160000</speed>
<extensions>
<speed>4.2</speed>
<temp>0.00</temp>
<bpm>0</bpm>
<rpm>0.00</rpm>
</extensions>
</trkpt>
<trkpt lat="30.967613220" lon="34.776157379">
<ele>416.664063</ele>
<time>2013-11-20T08:09:24Z</time>
<speed>4.100000</speed>
<extensions>
<speed>4.1</speed>
<temp>0.00</temp>
<bpm>0</bpm>
<rpm>0.00</rpm>
</extensions>
</trkpt>
<trkpt lat="30.967466354" lon="34.776264191">
<ele>417.062500</ele>
<time>2013-11-20T08:09:29Z</time>
<speed>3.910000</speed>
<extensions>
<speed>3.9</speed>
<temp>0.00</temp>
<bpm>0</bpm>
<rpm>0.00</rpm>
</extensions>
</trkpt>
<trkpt lat="30.967319489" lon="34.776374817">
<ele>419.093750</ele>
<time>2013-11-20T08:09:34Z</time>
<speed>3.850000</speed>
<extensions>
<speed>3.8</speed>
<temp>0.00</temp>
<bpm>0</bpm>
<rpm>0.00</rpm>
</extensions>
</trkpt>
<trkpt lat="30.967193604" lon="34.776477814">
<ele>420.015625</ele>
<time>2013-11-20T08:09:39Z</time>
<speed>3.000000</speed>
<extensions>
<speed>3.0</speed>
<temp>0.00</temp>
<bpm>0</bpm>
<rpm>0.00</rpm>
</extensions>
</trkpt>
<trkpt lat="30.967075348" lon="34.776576996">
<ele>420.492188</ele>
<time>2013-11-20T08:09:44Z</time>
<speed>3.230000</speed>
<extensions>
<speed>3.2</speed>
<temp>0.00</temp>
<bpm>0</bpm>
<rpm>0.00</rpm>
</extensions>
</trkpt>
<trkpt lat="30.966953278" lon="34.776691437">
<ele>422.523438</ele>
<time>2013-11-20T08:09:49Z</time>
<speed>3.330000</speed>
<extensions>
<speed>3.3</speed>
<temp>0.00</temp>
<bpm>0</bpm>
<rpm>0.00</rpm>
</extensions>
</trkpt>
<trkpt lat="30.966833115" lon="34.776794434">
<ele>426.804688</ele>
<time>2013-11-20T08:09:54Z</time>
<speed>3.040000</speed>
<extensions>
<speed>3.0</speed>
<temp>0.00</temp>
<bpm>0</bpm>
<rpm>0.00</rpm>
</extensions>
</trkpt>
<trkpt lat="30.966722488" lon="34.776908875">
<ele>429.343750</ele>
<time>2013-11-20T08:09:59Z</time>
<speed>3.350000</speed>
<extensions>
<speed>3.4</speed>
<temp>0.00</temp>
<bpm>0</bpm>
<rpm>0.00</rpm>
</extensions>
</trkpt>
<trkpt lat="30.966600418" lon="34.777015686">
<ele>432.343750</ele>
<time>2013-11-20T08:10:04Z</time>
<speed>3.460000</speed>
<extensions>
<speed>3.5</speed>
<temp>0.00</temp>
<bpm>0</bpm>
<rpm>0.00</rpm>
</extensions>
</trkpt>
<trkpt lat="30.966472626" lon="34.777126312">
<ele>432.734375</ele>
<time>2013-11-20T08:10:09Z</time>
<speed>3.230000</speed>
<extensions>
<speed>3.2</speed>
<temp>0.00</temp>
<bpm>0</bpm>
<rpm>0.00</rpm>
</extensions>
</trkpt>
<trkpt lat="30.966373444" lon="34.777248383">
<ele>434.687500</ele>
<time>2013-11-20T08:10:14Z</time>
<speed>3.400000</speed>
<extensions>
<speed>3.4</speed>
<temp>0.00</temp>
<bpm>0</bpm>
<rpm>0.00</rpm>
</extensions>
</trkpt>
<trkpt lat="30.966247559" lon="34.777359009">
<ele>434.210938</ele>
<time>2013-11-20T08:10:19Z</time>
<speed>3.500000</speed>
<extensions>
<speed>3.5</speed>
<temp>0.00</temp>
<bpm>0</bpm>
<rpm>0.00</rpm>
</extensions>
</trkpt>
<trkpt lat="30.966115952" lon="34.777469635">
<ele>436.687500</ele>
<time>2013-11-20T08:10:24Z</time>
<speed>3.680000</speed>
<extensions>
<speed>3.7</speed>
<temp>0.00</temp>
<bpm>0</bpm>
<rpm>0.00</rpm>
</extensions>
</trkpt>
<trkpt lat="30.965993881" lon="34.777572632">
<ele>434.140625</ele>
<time>2013-11-20T08:10:29Z</time>
<speed>3.480000</speed>
<extensions>
<speed>3.5</speed>
<temp>0.00</temp>
<bpm>0</bpm>
<rpm>0.00</rpm>
</extensions>
</trkpt>
<trkpt lat="30.965873718" lon="34.777683258">
<ele>433.757813</ele>
<time>2013-11-20T08:10:34Z</time>
<speed>3.270000</speed>
<extensions>
<speed>3.3</speed>
<temp>0.00</temp>
<bpm>0</bpm>
<rpm>0.00</rpm>
</extensions>
</trkpt>
<trkpt lat="30.965747833" lon="34.777809143">
<ele>433.156250</ele>
<time>2013-11-20T08:10:39Z</time>
<speed>3.670000</speed>
<extensions>
<speed>3.7</speed>
<temp>0.00</temp>
<bpm>0</bpm>
<rpm>0.00</rpm>
</extensions>
</trkpt>
<trkpt lat="30.965614319" lon="34.777935028">
<ele>434.296875</ele>
<time>2013-11-20T08:10:44Z</time>
<speed>3.830000</speed>
<extensions>
<speed>3.8</speed>
<temp>0.00</temp>
<bpm>0</bpm>
<rpm>0.00</rpm>
</extensions>
</trkpt>
<trkpt lat="30.965476990" lon="34.778060913">
<ele>433.601563</ele>
<time>2013-11-20T08:10:49Z</time>
<speed>3.830000</speed>
<extensions>
<speed>3.8</speed>
<temp>0.00</temp>
<bpm>0</bpm>
<rpm>0.00</rpm>
</extensions>
</trkpt>
<trkpt lat="30.965343475" lon="34.778182983">
<ele>432.734375</ele>
<time>2013-11-20T08:10:54Z</time>
<speed>3.990000</speed>
<extensions>
<speed>4.0</speed>
<temp>0.00</temp>
<bpm>0</bpm>
<rpm>0.00</rpm>
</extensions>
</trkpt>
<trkpt lat="30.965206146" lon="34.778320313">
<ele>433.953125</ele>
<time>2013-11-20T08:10:59Z</time>
<speed>4.200000</speed>
<extensions>
<speed>4.2</speed>
<temp>0.00</temp>
<bpm>0</bpm>
<rpm>0.00</rpm>
</extensions>
</trkpt>
<trkpt lat="30.965034485" lon="34.778419495">
<ele>436.054688</ele>
<time>2013-11-20T08:11:04Z</time>
<speed>4.320000</speed>
<extensions>
<speed>4.3</speed>
<temp>0.00</temp>
<bpm>0</bpm>
<rpm>0.00</rpm>
</extensions>
</trkpt>
<trkpt lat="30.964883804" lon="34.778568268">
<ele>435.148438</ele>
<time>2013-11-20T08:11:09Z</time>
<speed>4.100000</speed>
<extensions>
<speed>4.1</speed>
<temp>0.00</temp>
<bpm>0</bpm>
<rpm>0.00</rpm>
</extensions>
</trkpt>
<trkpt lat="30.964735031" lon="34.778732300">
<ele>433.398438</ele>
<time>2013-11-20T08:11:14Z</time>
<speed>4.470000</speed>
<extensions>
<speed>4.5</speed>
<temp>0.00</temp>
<bpm>0</bpm>
<rpm>0.00</rpm>
</extensions>
</trkpt>
<trkpt lat="30.964576721" lon="34.778903961">
<ele>433.843750</ele>
<time>2013-11-20T08:11:19Z</time>
<speed>4.870000</speed>
<extensions>
<speed>4.9</speed>
<temp>0.00</temp>
<bpm>0</bpm>
<rpm>0.00</rpm>
</extensions>
</trkpt>
<trkpt lat="30.964391708" lon="34.779079437">
<ele>433.656250</ele>
<time>2013-11-20T08:11:24Z</time>
<speed>5.200000</speed>
<extensions>
<speed>5.2</speed>
<temp>0.00</temp>
<bpm>0</bpm>
<rpm>0.00</rpm>
</extensions>
</trkpt>
<trkpt lat="30.964216232" lon="34.779258728">
<ele>433.843750</ele>
<time>2013-11-20T08:11:29Z</time>
<speed>5.000000</speed>
<extensions>
<speed>5.0</speed>
<temp>0.00</temp>
<bpm>0</bpm>
<rpm>0.00</rpm>
</extensions>
</trkpt>
<trkpt lat="30.964027405" lon="34.779472351">
<ele>433.132813</ele>
<time>2013-11-20T08:11:34Z</time>
<speed>5.950000</speed>
<extensions>
<speed>6.0</speed>
<temp>0.00</temp>
<bpm>0</bpm>
<rpm>0.00</rpm>
</extensions>
</trkpt>
<trkpt lat="30.963848114" lon="34.779708862">
<ele>433.414063</ele>
<time>2013-11-20T08:11:39Z</time>
<speed>6.100000</speed>
<extensions>
<speed>6.1</speed>
<temp>0.00</temp>
<bpm>0</bpm>
<rpm>0.00</rpm>
</extensions>
</trkpt>
<trkpt lat="30.963657379" lon="34.779953003">
<ele>433.000000</ele>
<time>2013-11-20T08:11:44Z</time>
<speed>6.440000</speed>
<extensions>
<speed>6.4</speed>
<temp>0.00</temp>
<bpm>0</bpm>
<rpm>0.00</rpm>
</extensions>
</trkpt>
<trkpt lat="30.963457108" lon="34.780223846">
<ele>432.781250</ele>
<time>2013-11-20T08:11:49Z</time>
<speed>7.080000</speed>
<extensions>
<speed>7.1</speed>
<temp>0.00</temp>
<bpm>0</bpm>
<rpm>0.00</rpm>
</extensions>
</trkpt>
<trkpt lat="30.963298798" lon="34.780525208">
<ele>431.109375</ele>
<time>2013-11-20T08:11:54Z</time>
<speed>6.700000</speed>
<extensions>
<speed>6.7</speed>
<temp>0.00</temp>
<bpm>0</bpm>
<rpm>0.00</rpm>
</extensions>
</trkpt>
<trkpt lat="30.963125229" lon="34.780788422">
<ele>431.062500</ele>
<time>2013-11-20T08:11:59Z</time>
<speed>6.040000</speed>
<extensions>
<speed>6.0</speed>
<temp>0.00</temp>
<bpm>0</bpm>
<rpm>0.00</rpm>
</extensions>
</trkpt>
<trkpt lat="30.962987900" lon="34.781024933">
<ele>431.062500</ele>
<time>2013-11-20T08:12:04Z</time>
<speed>4.960000</speed>
<extensions>
<speed>5.0</speed>
<temp>0.00</temp>
<bpm>0</bpm>
<rpm>0.00</rpm>
</extensions>
</trkpt>
<trkpt lat="30.962848663" lon="34.781234741">
<ele>430.296875</ele>
<time>2013-11-20T08:12:09Z</time>
<speed>4.980000</speed>
<extensions>
<speed>5.0</speed>
<temp>0.00</temp>
<bpm>0</bpm>
<rpm>0.00</rpm>
</extensions>
</trkpt>
<trkpt lat="30.962684631" lon="34.781429291">
<ele>431.265625</ele>
<time>2013-11-20T08:12:14Z</time>
<speed>4.920000</speed>
<extensions>
<speed>4.9</speed>
<temp>0.00</temp>
<bpm>0</bpm>
<rpm>0.00</rpm>
</extensions>
</trkpt>
<trkpt lat="30.962556839" lon="34.781570435">
<ele>430.335938</ele>
<time>2013-11-20T08:12:19Z</time>
<speed>3.030000</speed>
<extensions>
<speed>3.0</speed>
<temp>0.00</temp>
<bpm>0</bpm>
<rpm>0.00</rpm>
</extensions>
</trkpt>
<trkpt lat="30.962455750" lon="34.781681061">
<ele>432.789063</ele>
<time>2013-11-20T08:12:24Z</time>
<speed>3.180000</speed>
<extensions>
<speed>3.2</speed>
<temp>0.00</temp>
<bpm>0</bpm>
<rpm>0.00</rpm>
</extensions>
</trkpt>
<trkpt lat="30.962350845" lon="34.781772614">
<ele>436.750000</ele>
<time>2013-11-20T08:12:29Z</time>
<speed>3.300000</speed>
<extensions>
<speed>3.3</speed>
<temp>0.00</temp>
<bpm>0</bpm>
<rpm>0.00</rpm>
</extensions>
</trkpt>
<trkpt lat="30.962266922" lon="34.781909943">
<ele>437.703125</ele>
<time>2013-11-20T08:12:34Z</time>
<speed>2.580000</speed>
<extensions>
<speed>2.6</speed>
<temp>0.00</temp>
<bpm>0</bpm>
<rpm>0.00</rpm>
</extensions>
</trkpt>
<trkpt lat="30.962245941" lon="34.782062531">
<ele>438.257813</ele>
<time>2013-11-20T08:12:39Z</time>
<speed>2.780000</speed>
<extensions>
<speed>2.8</speed>
<temp>0.00</temp>
<bpm>0</bpm>
<rpm>0.00</rpm>
</extensions>
</trkpt>
<trkpt lat="30.962215424" lon="34.782157898">
<ele>439.703125</ele>
<time>2013-11-20T08:12:44Z</time>
<speed>1.600000</speed>
<extensions>
<speed>1.6</speed>
<temp>0.00</temp>
<bpm>0</bpm>
<rpm>0.00</rpm>
</extensions>
</trkpt>
<trkpt lat="30.962182999" lon="34.782226563">
<ele>440.054688</ele>
<time>2013-11-20T08:12:49Z</time>
<speed>1.780000</speed>
<extensions>
<speed>1.8</speed>
<temp>0.00</temp>
<bpm>0</bpm>
<rpm>0.00</rpm>
</extensions>
</trkpt>
<trkpt lat="30.962142944" lon="34.782302856">
<ele>441.625000</ele>
<time>2013-11-20T08:12:54Z</time>
<speed>1.780000</speed>
<extensions>
<speed>1.8</speed>
<temp>0.00</temp>
<bpm>0</bpm>
<rpm>0.00</rpm>
</extensions>
</trkpt>
<trkpt lat="30.962106705" lon="34.782390594">
<ele>441.992188</ele>
<time>2013-11-20T08:12:59Z</time>
<speed>1.730000</speed>
<extensions>
<speed>1.7</speed>
<temp>0.00</temp>
<bpm>0</bpm>
<rpm>0.00</rpm>
</extensions>
</trkpt>
<trkpt lat="30.962072372" lon="34.782459259">
<ele>442.093750</ele>
<time>2013-11-20T08:13:04Z</time>
<speed>1.570000</speed>
<extensions>
<speed>1.6</speed>
<temp>0.00</temp>
<bpm>0</bpm>
<rpm>0.00</rpm>
</extensions>
</trkpt>
<trkpt lat="30.962007523" lon="34.782520294">
<ele>442.546875</ele>
<time>2013-11-20T08:13:09Z</time>
<speed>1.640000</speed>
<extensions>
<speed>1.6</speed>
<temp>0.00</temp>
<bpm>0</bpm>
<rpm>0.00</rpm>
</extensions>
</trkpt>
<trkpt lat="30.961938858" lon="34.782592773">
<ele>442.687500</ele>
<time>2013-11-20T08:13:14Z</time>
<speed>2.000000</speed>
<extensions>
<speed>2.0</speed>
<temp>0.00</temp>
<bpm>0</bpm>
<rpm>0.00</rpm>
</extensions>
</trkpt>
<trkpt lat="30.961900711" lon="34.782630920">
<ele>443.867188</ele>
<time>2013-11-20T08:13:19Z</time>
<speed>0.210000</speed>
<extensions>
<speed>0.2</speed>
<temp>0.00</temp>
<bpm>0</bpm>
<rpm>0.00</rpm>
</extensions>
</trkpt>
<trkpt lat="30.961900711" lon="34.782634735">
<ele>443.929688</ele>
<time>2013-11-20T08:13:24Z</time>
<speed>0.030000</speed>
<extensions>
<speed>0.0</speed>
<temp>0.00</temp>
<bpm>0</bpm>
<rpm>0.00</rpm>
</extensions>
</trkpt>
<trkpt lat="30.961900711" lon="34.782634735">
<ele>443.945313</ele>
<time>2013-11-20T08:13:29Z</time>
<extensions>
<speed>0.0</speed>
<temp>0.00</temp>
<bpm>0</bpm>
<rpm>0.00</rpm>
</extensions>
</trkpt>
<trkpt lat="30.961900711" lon="34.782634735">
<ele>443.953125</ele>
<time>2013-11-20T08:13:34Z</time>
<speed>0.030000</speed>
<extensions>
<speed>0.0</speed>
<temp>0.00</temp>
<bpm>0</bpm>
<rpm>0.00</rpm>
</extensions>
</trkpt>
<trkpt lat="30.961898804" lon="34.782638550">
<ele>443.992188</ele>
<time>2013-11-20T08:13:39Z</time>
<speed>0.170000</speed>
<extensions>
<speed>0.2</speed>
<temp>0.00</temp>
<bpm>0</bpm>
<rpm>0.00</rpm>
</extensions>
</trkpt>
<trkpt lat="30.961893082" lon="34.782642365">
<ele>444.031250</ele>
<time>2013-11-20T08:13:44Z</time>
<speed>0.030000</speed>
<extensions>
<speed>0.0</speed>
<temp>0.00</temp>
<bpm>0</bpm>
<rpm>0.00</rpm>
</extensions>
</trkpt>
<trkpt lat="30.961894989" lon="34.782642365">
<ele>444.007813</ele>
<time>2013-11-20T08:13:49Z</time>
<speed>0.030000</speed>
<extensions>
<speed>0.0</speed>
<temp>0.00</temp>
<bpm>0</bpm>
<rpm>0.00</rpm>
</extensions>
</trkpt>
<trkpt lat="30.961896896" lon="34.782638550">
<ele>444.039063</ele>
<time>2013-11-20T08:13:54Z</time>
<speed>0.250000</speed>
<extensions>
<speed>0.2</speed>
<temp>0.00</temp>
<bpm>0</bpm>
<rpm>0.00</rpm>
</extensions>
</trkpt>
<trkpt lat="30.961898804" lon="34.782634735">
<ele>444.062500</ele>
<time>2013-11-20T08:13:59Z</time>
<speed>0.020000</speed>
<extensions>
<speed>0.0</speed>
<temp>0.00</temp>
<bpm>0</bpm>
<rpm>0.00</rpm>
</extensions>
</trkpt>
<trkpt lat="30.961898804" lon="34.782630920">
<ele>444.062500</ele>
<time>2013-11-20T08:14:04Z</time>
<speed>0.030000</speed>
<extensions>
<speed>0.0</speed>
<temp>0.00</temp>
<bpm>0</bpm>
<rpm>0.00</rpm>
</extensions>
</trkpt>
<trkpt lat="30.961898804" lon="34.782630920">
<ele>444.000000</ele>
<time>2013-11-20T08:14:09Z</time>
<speed>0.040000</speed>
<extensions>
<speed>0.0</speed>
<temp>0.00</temp>
<bpm>0</bpm>
<rpm>0.00</rpm>
</extensions>
</trkpt>
<trkpt lat="30.961898804" lon="34.782630920">
<ele>443.984375</ele>
<time>2013-11-20T08:14:14Z</time>
<speed>0.010000</speed>
<extensions>
<speed>0.0</speed>
<temp>0.00</temp>
<bpm>0</bpm>
<rpm>0.00</rpm>
</extensions>
</trkpt>
<trkpt lat="30.961898804" lon="34.782630920">
<ele>443.984375</ele>
<time>2013-11-20T08:14:19Z</time>
<speed>0.020000</speed>
<extensions>
<speed>0.0</speed>
<temp>0.00</temp>
<bpm>0</bpm>
<rpm>0.00</rpm>
</extensions>
</trkpt>
<trkpt lat="30.961887360" lon="34.782642365">
<ele>444.046875</ele>
<time>2013-11-20T08:14:24Z</time>
<speed>0.500000</speed>
<extensions>
<speed>0.5</speed>
<temp>0.00</temp>
<bpm>0</bpm>
<rpm>0.00</rpm>
</extensions>
</trkpt>
<trkpt lat="30.961877823" lon="34.782653809">
<ele>444.148438</ele>
<time>2013-11-20T08:14:29Z</time>
<speed>0.120000</speed>
<extensions>
<speed>0.1</speed>
<temp>0.00</temp>
<bpm>0</bpm>
<rpm>0.00</rpm>
</extensions>
</trkpt>
<trkpt lat="30.961875916" lon="34.782653809">
<ele>444.281250</ele>
<time>2013-11-20T08:14:34Z</time>
<speed>0.070000</speed>
<extensions>
<speed>0.1</speed>
<temp>0.00</temp>
<bpm>0</bpm>
<rpm>0.00</rpm>
</extensions>
</trkpt>
<trkpt lat="30.961881638" lon="34.782672882">
<ele>444.398438</ele>
<time>2013-11-20T08:14:39Z</time>
<speed>0.630000</speed>
<extensions>
<speed>0.6</speed>
<temp>0.00</temp>
<bpm>0</bpm>
<rpm>0.00</rpm>
</extensions>
</trkpt>
<trkpt lat="30.961893082" lon="34.782676697">
<ele>444.281250</ele>
<time>2013-11-20T08:14:44Z</time>
<speed>0.060000</speed>
<extensions>
<speed>0.1</speed>
<temp>0.00</temp>
<bpm>0</bpm>
<rpm>0.00</rpm>
</extensions>
</trkpt>
<trkpt lat="30.961883545" lon="34.782695770">
<ele>445.039063</ele>
<time>2013-11-20T08:14:49Z</time>
<speed>0.920000</speed>
<extensions>
<speed>0.9</speed>
<temp>0.00</temp>
<bpm>0</bpm>
<rpm>0.00</rpm>
</extensions>
</trkpt>
<trkpt lat="30.961894989" lon="34.782749176">
<ele>445.359375</ele>
<time>2013-11-20T08:14:54Z</time>
<speed>1.210000</speed>
<extensions>
<speed>1.2</speed>
<temp>0.00</temp>
<bpm>0</bpm>
<rpm>0.00</rpm>
</extensions>
</trkpt>
<trkpt lat="30.961896896" lon="34.782814026">
<ele>444.601563</ele>
<time>2013-11-20T08:14:59Z</time>
<speed>1.100000</speed>
<extensions>
<speed>1.1</speed>
<temp>0.00</temp>
<bpm>0</bpm>
<rpm>0.00</rpm>
</extensions>
</trkpt>
<trkpt lat="30.961866379" lon="34.782894135">
<ele>444.859375</ele>
<time>2013-11-20T08:15:04Z</time>
<speed>1.360000</speed>
<extensions>
<speed>1.4</speed>
<temp>0.00</temp>
<bpm>0</bpm>
<rpm>0.00</rpm>
</extensions>
</trkpt>
<trkpt lat="30.961832047" lon="34.782943726">
<ele>444.148438</ele>
<time>2013-11-20T08:15:09Z</time>
<speed>1.300000</speed>
<extensions>
<speed>1.3</speed>
<temp>0.00</temp>
<bpm>0</bpm>
<rpm>0.00</rpm>
</extensions>
</trkpt>
<trkpt lat="30.961811066" lon="34.783012390">
<ele>443.968750</ele>
<time>2013-11-20T08:15:14Z</time>
<speed>1.370000</speed>
<extensions>
<speed>1.4</speed>
<temp>0.00</temp>
<bpm>0</bpm>
<rpm>0.00</rpm>
</extensions>
</trkpt>
<trkpt lat="30.961791992" lon="34.783088684">
<ele>442.859375</ele>
<time>2013-11-20T08:15:19Z</time>
<speed>1.350000</speed>
<extensions>
<speed>1.4</speed>
<temp>0.00</temp>
<bpm>0</bpm>
<rpm>0.00</rpm>
</extensions>
</trkpt>
<trkpt lat="30.961744308" lon="34.783142090">
<ele>441.968750</ele>
<time>2013-11-20T08:15:24Z</time>
<speed>1.740000</speed>
<extensions>
<speed>1.7</speed>
<temp>0.00</temp>
<bpm>0</bpm>
<rpm>0.00</rpm>
</extensions>
</trkpt>
<trkpt lat="30.961677551" lon="34.783161163">
<ele>441.375000</ele>
<time>2013-11-20T08:15:29Z</time>
<speed>1.310000</speed>
<extensions>
<speed>1.3</speed>
<temp>0.00</temp>
<bpm>0</bpm>
<rpm>0.00</rpm>
</extensions>
</trkpt>
<trkpt lat="30.961610794" lon="34.783161163">
<ele>441.117188</ele>
<time>2013-11-20T08:15:34Z</time>
<speed>1.590000</speed>
<extensions>
<speed>1.6</speed>
<temp>0.00</temp>
<bpm>0</bpm>
<rpm>0.00</rpm>
</extensions>
</trkpt>
<trkpt lat="30.961566925" lon="34.783168793">
<ele>442.210938</ele>
<time>2013-11-20T08:15:39Z</time>
<speed>0.070000</speed>
<extensions>
<speed>0.1</speed>
<temp>0.00</temp>
<bpm>0</bpm>
<rpm>0.00</rpm>
</extensions>
</trkpt>
<trkpt lat="30.961572647" lon="34.783145905">
<ele>443.765625</ele>
<time>2013-11-20T08:15:44Z</time>
<speed>0.540000</speed>
<extensions>
<speed>0.5</speed>
<temp>0.00</temp>
<bpm>0</bpm>
<rpm>0.00</rpm>
</extensions>
</trkpt>
<trkpt lat="30.961578369" lon="34.783145905">
<ele>444.437500</ele>
<time>2013-11-20T08:15:49Z</time>
<speed>0.120000</speed>
<extensions>
<speed>0.1</speed>
<temp>0.00</temp>
<bpm>0</bpm>
<rpm>0.00</rpm>
</extensions>
</trkpt>
<trkpt lat="30.961565018" lon="34.783134460">
<ele>444.484375</ele>
<time>2013-11-20T08:15:54Z</time>
<speed>0.040000</speed>
<extensions>
<speed>0.0</speed>
<temp>0.00</temp>
<bpm>0</bpm>
<rpm>0.00</rpm>
</extensions>
</trkpt>
<trkpt lat="30.961566925" lon="34.783134460">
<ele>444.460938</ele>
<time>2013-11-20T08:15:59Z</time>
<speed>0.070000</speed>
<extensions>
<speed>0.1</speed>
<temp>0.00</temp>
<bpm>0</bpm>
<rpm>0.00</rpm>
</extensions>
</trkpt>
<trkpt lat="30.961566925" lon="34.783138275">
<ele>444.437500</ele>
<time>2013-11-20T08:16:04Z</time>
<speed>0.030000</speed>
<extensions>
<speed>0.0</speed>
<temp>0.00</temp>
<bpm>0</bpm>
<rpm>0.00</rpm>
</extensions>
</trkpt>
<trkpt lat="30.961568832" lon="34.783138275">
<ele>444.429688</ele>
<time>2013-11-20T08:16:09Z</time>
<speed>0.010000</speed>
<extensions>
<speed>0.0</speed>
<temp>0.00</temp>
<bpm>0</bpm>
<rpm>0.00</rpm>
</extensions>
</trkpt>
<trkpt lat="30.961568832" lon="34.783138275">
<ele>444.460938</ele>
<time>2013-11-20T08:16:14Z</time>
<speed>0.010000</speed>
<extensions>
<speed>0.0</speed>
<temp>0.00</temp>
<bpm>0</bpm>
<rpm>0.00</rpm>
</extensions>
</trkpt>
<trkpt lat="30.961568832" lon="34.783138275">
<ele>444.492188</ele>
<time>2013-11-20T08:16:19Z</time>
<speed>0.020000</speed>
<extensions>
<speed>0.0</speed>
<temp>0.00</temp>
<bpm>0</bpm>
<rpm>0.00</rpm>
</extensions>
</trkpt>
<trkpt lat="30.961570740" lon="34.783138275">
<ele>444.523438</ele>
<time>2013-11-20T08:16:24Z</time>
<extensions>
<speed>0.0</speed>
<temp>0.00</temp>
<bpm>0</bpm>
<rpm>0.00</rpm>
</extensions>
</trkpt>
<trkpt lat="30.961570740" lon="34.783138275">
<ele>444.554688</ele>
<time>2013-11-20T08:16:29Z</time>
<extensions>
<speed>0.0</speed>
<temp>0.00</temp>
<bpm>0</bpm>
<rpm>0.00</rpm>
</extensions>
</trkpt>
<trkpt lat="30.961570740" lon="34.783138275">
<ele>444.585938</ele>
<time>2013-11-20T08:16:34Z</time>
<speed>0.010000</speed>
<extensions>
<speed>0.0</speed>
<temp>0.00</temp>
<bpm>0</bpm>
<rpm>0.00</rpm>
</extensions>
</trkpt>
<trkpt lat="30.961570740" lon="34.783138275">
<ele>444.585938</ele>
<time>2013-11-20T08:16:39Z</time>
<speed>0.010000</speed>
<extensions>
<speed>0.0</speed>
<temp>0.00</temp>
<bpm>0</bpm>
<rpm>0.00</rpm>
</extensions>
</trkpt>
<trkpt lat="30.961570740" lon="34.783138275">
<ele>444.601563</ele>
<time>2013-11-20T08:16:44Z</time>
<extensions>
<speed>0.0</speed>
<temp>0.00</temp>
<bpm>0</bpm>
<rpm>0.00</rpm>
</extensions>
</trkpt>
<trkpt lat="30.961570740" lon="34.783138275">
<ele>444.593750</ele>
<time>2013-11-20T08:16:49Z</time>
<extensions>
<speed>0.0</speed>
<temp>0.00</temp>
<bpm>0</bpm>
<rpm>0.00</rpm>
</extensions>
</trkpt>
<trkpt lat="30.961570740" lon="34.783138275">
<ele>444.601563</ele>
<time>2013-11-20T08:16:54Z</time>
<speed>0.010000</speed>
<extensions>
<speed>0.0</speed>
<temp>0.00</temp>
<bpm>0</bpm>
<rpm>0.00</rpm>
</extensions>
</trkpt>
<trkpt lat="30.961570740" lon="34.783138275">
<ele>444.585938</ele>
<time>2013-11-20T08:16:59Z</time>
<extensions>
<speed>0.0</speed>
<temp>0.00</temp>
<bpm>0</bpm>
<rpm>0.00</rpm>
</extensions>
</trkpt>
<trkpt lat="30.961570740" lon="34.783138275">
<ele>444.593750</ele>
<time>2013-11-20T08:17:04Z</time>
<extensions>
<speed>0.0</speed>
<temp>0.00</temp>
<bpm>0</bpm>
<rpm>0.00</rpm>
</extensions>
</trkpt>
<trkpt lat="30.961570740" lon="34.783138275">
<ele>444.585938</ele>
<time>2013-11-20T08:17:09Z</time>
<extensions>
<speed>0.0</speed>
<temp>0.00</temp>
<bpm>0</bpm>
<rpm>0.00</rpm>
</extensions>
</trkpt>
<trkpt lat="30.961570740" lon="34.783138275">
<ele>444.585938</ele>
<time>2013-11-20T08:17:14Z</time>
<extensions>
<speed>0.0</speed>
<temp>0.00</temp>
<bpm>0</bpm>
<rpm>0.00</rpm>
</extensions>
</trkpt>
<trkpt lat="30.961570740" lon="34.783138275">
<ele>444.601563</ele>
<time>2013-11-20T08:17:19Z</time>
<extensions>
<speed>0.0</speed>
<temp>0.00</temp>
<bpm>0</bpm>
<rpm>0.00</rpm>
</extensions>
</trkpt>
<trkpt lat="30.961570740" lon="34.783138275">
<ele>444.609375</ele>
<time>2013-11-20T08:17:24Z</time>
<extensions>
<speed>0.0</speed>
<temp>0.00</temp>
<bpm>0</bpm>
<rpm>0.00</rpm>
</extensions>
</trkpt>
<trkpt lat="30.961570740" lon="34.783138275">
<ele>444.625000</ele>
<time>2013-11-20T08:17:29Z</time>
<speed>0.010000</speed>
<extensions>
<speed>0.0</speed>
<temp>0.00</temp>
<bpm>0</bpm>
<rpm>0.00</rpm>
</extensions>
</trkpt>
<trkpt lat="30.961570740" lon="34.783138275">
<ele>444.632813</ele>
<time>2013-11-20T08:17:34Z</time>
<extensions>
<speed>0.0</speed>
<temp>0.00</temp>
<bpm>0</bpm>
<rpm>0.00</rpm>
</extensions>
</trkpt>
<trkpt lat="30.961570740" lon="34.783138275">
<ele>444.648438</ele>
<time>2013-11-20T08:17:39Z</time>
<extensions>
<speed>0.0</speed>
<temp>0.00</temp>
<bpm>0</bpm>
<rpm>0.00</rpm>
</extensions>
</trkpt>
<trkpt lat="30.961570740" lon="34.783138275">
<ele>444.656250</ele>
<time>2013-11-20T08:17:44Z</time>
<extensions>
<speed>0.0</speed>
<temp>0.00</temp>
<bpm>0</bpm>
<rpm>0.00</rpm>
</extensions>
</trkpt>
<trkpt lat="30.961570740" lon="34.783138275">
<ele>444.664063</ele>
<time>2013-11-20T08:17:49Z</time>
<speed>0.010000</speed>
<extensions>
<speed>0.0</speed>
<temp>0.00</temp>
<bpm>0</bpm>
<rpm>0.00</rpm>
</extensions>
</trkpt>
<trkpt lat="30.961570740" lon="34.783138275">
<ele>444.671875</ele>
<time>2013-11-20T08:17:54Z</time>
<speed>0.020000</speed>
<extensions>
<speed>0.0</speed>
<temp>0.00</temp>
<bpm>0</bpm>
<rpm>0.00</rpm>
</extensions>
</trkpt>
<trkpt lat="30.961570740" lon="34.783138275">
<ele>444.679688</ele>
<time>2013-11-20T08:17:59Z</time>
<speed>0.010000</speed>
<extensions>
<speed>0.0</speed>
<temp>0.00</temp>
<bpm>0</bpm>
<rpm>0.00</rpm>
</extensions>
</trkpt>
<trkpt lat="30.961570740" lon="34.783138275">
<ele>444.679688</ele>
<time>2013-11-20T08:18:04Z</time>
<extensions>
<speed>0.0</speed>
<temp>0.00</temp>
<bpm>0</bpm>
<rpm>0.00</rpm>
</extensions>
</trkpt>
<trkpt lat="30.961570740" lon="34.783138275">
<ele>444.695313</ele>
<time>2013-11-20T08:18:09Z</time>
<extensions>
<speed>0.0</speed>
<temp>0.00</temp>
<bpm>0</bpm>
<rpm>0.00</rpm>
</extensions>
</trkpt>
<trkpt lat="30.961570740" lon="34.783138275">
<ele>444.695313</ele>
<time>2013-11-20T08:18:14Z</time>
<extensions>
<speed>0.0</speed>
<temp>0.00</temp>
<bpm>0</bpm>
<rpm>0.00</rpm>
</extensions>
</trkpt>
<trkpt lat="30.961570740" lon="34.783138275">
<ele>444.695313</ele>
<time>2013-11-20T08:18:19Z</time>
<speed>0.010000</speed>
<extensions>
<speed>0.0</speed>
<temp>0.00</temp>
<bpm>0</bpm>
<rpm>0.00</rpm>
</extensions>
</trkpt>
<trkpt lat="30.961570740" lon="34.783138275">
<ele>444.695313</ele>
<time>2013-11-20T08:18:24Z</time>
<extensions>
<speed>0.0</speed>
<temp>0.00</temp>
<bpm>0</bpm>
<rpm>0.00</rpm>
</extensions>
</trkpt>
<trkpt lat="30.961570740" lon="34.783138275">
<ele>444.695313</ele>
<time>2013-11-20T08:18:29Z</time>
<extensions>
<speed>0.0</speed>
<temp>0.00</temp>
<bpm>0</bpm>
<rpm>0.00</rpm>
</extensions>
</trkpt>
<trkpt lat="30.961570740" lon="34.783138275">
<ele>444.687500</ele>
<time>2013-11-20T08:18:34Z</time>
<extensions>
<speed>0.0</speed>
<temp>0.00</temp>
<bpm>0</bpm>
<rpm>0.00</rpm>
</extensions>
</trkpt>
<trkpt lat="30.961570740" lon="34.783138275">
<ele>444.687500</ele>
<time>2013-11-20T08:18:39Z</time>
<extensions>
<speed>0.0</speed>
<temp>0.00</temp>
<bpm>0</bpm>
<rpm>0.00</rpm>
</extensions>
</trkpt>
<trkpt lat="30.961570740" lon="34.783138275">
<ele>444.679688</ele>
<time>2013-11-20T08:18:44Z</time>
<speed>0.010000</speed>
<extensions>
<speed>0.0</speed>
<temp>0.00</temp>
<bpm>0</bpm>
<rpm>0.00</rpm>
</extensions>
</trkpt>
<trkpt lat="30.961570740" lon="34.783138275">
<ele>444.671875</ele>
<time>2013-11-20T08:18:49Z</time>
<extensions>
<speed>0.0</speed>
<temp>0.00</temp>
<bpm>0</bpm>
<rpm>0.00</rpm>
</extensions>
</trkpt>
<trkpt lat="30.961570740" lon="34.783138275">
<ele>444.664063</ele>
<time>2013-11-20T08:18:54Z</time>
<extensions>
<speed>0.0</speed>
<temp>0.00</temp>
<bpm>0</bpm>
<rpm>0.00</rpm>
</extensions>
</trkpt>
<trkpt lat="30.961570740" lon="34.783138275">
<ele>444.648438</ele>
<time>2013-11-20T08:18:59Z</time>
<extensions>
<speed>0.0</speed>
<temp>0.00</temp>
<bpm>0</bpm>
<rpm>0.00</rpm>
</extensions>
</trkpt>
<trkpt lat="30.961570740" lon="34.783138275">
<ele>444.632813</ele>
<time>2013-11-20T08:19:04Z</time>
<extensions>
<speed>0.0</speed>
<temp>0.00</temp>
<bpm>0</bpm>
<rpm>0.00</rpm>
</extensions>
</trkpt>
<trkpt lat="30.961570740" lon="34.783138275">
<ele>444.617188</ele>
<time>2013-11-20T08:19:09Z</time>
<extensions>
<speed>0.0</speed>
<temp>0.00</temp>
<bpm>0</bpm>
<rpm>0.00</rpm>
</extensions>
</trkpt>
<trkpt lat="30.961570740" lon="34.783134460">
<ele>444.601563</ele>
<time>2013-11-20T08:19:14Z</time>
<speed>0.010000</speed>
<extensions>
<speed>0.0</speed>
<temp>0.00</temp>
<bpm>0</bpm>
<rpm>0.00</rpm>
</extensions>
</trkpt>
<trkpt lat="30.961570740" lon="34.783134460">
<ele>444.585938</ele>
<time>2013-11-20T08:19:19Z</time>
<extensions>
<speed>0.0</speed>
<temp>0.00</temp>
<bpm>0</bpm>
<rpm>0.00</rpm>
</extensions>
</trkpt>
<trkpt lat="30.961570740" lon="34.783134460">
<ele>444.562500</ele>
<time>2013-11-20T08:19:24Z</time>
<extensions>
<speed>0.0</speed>
<temp>0.00</temp>
<bpm>0</bpm>
<rpm>0.00</rpm>
</extensions>
</trkpt>
<trkpt lat="30.961570740" lon="34.783134460">
<ele>444.523438</ele>
<time>2013-11-20T08:19:29Z</time>
<extensions>
<speed>0.0</speed>
<temp>0.00</temp>
<bpm>0</bpm>
<rpm>0.00</rpm>
</extensions>
</trkpt>
<trkpt lat="30.961570740" lon="34.783134460">
<ele>444.476563</ele>
<time>2013-11-20T08:19:34Z</time>
<extensions>
<speed>0.0</speed>
<temp>0.00</temp>
<bpm>0</bpm>
<rpm>0.00</rpm>
</extensions>
</trkpt>
<trkpt lat="30.961570740" lon="34.783134460">
<ele>444.437500</ele>
<time>2013-11-20T08:19:39Z</time>
<speed>0.010000</speed>
<extensions>
<speed>0.0</speed>
<temp>0.00</temp>
<bpm>0</bpm>
<rpm>0.00</rpm>
</extensions>
</trkpt>
<trkpt lat="30.961570740" lon="34.783134460">
<ele>444.398438</ele>
<time>2013-11-20T08:19:44Z</time>
<speed>0.010000</speed>
<extensions>
<speed>0.0</speed>
<temp>0.00</temp>
<bpm>0</bpm>
<rpm>0.00</rpm>
</extensions>
</trkpt>
<trkpt lat="30.961570740" lon="34.783134460">
<ele>444.351563</ele>
<time>2013-11-20T08:19:49Z</time>
<extensions>
<speed>0.0</speed>
<temp>0.00</temp>
<bpm>0</bpm>
<rpm>0.00</rpm>
</extensions>
</trkpt>
<trkpt lat="30.961570740" lon="34.783134460">
<ele>444.335938</ele>
<time>2013-11-20T08:19:54Z</time>
<speed>0.010000</speed>
<extensions>
<speed>0.0</speed>
<temp>0.00</temp>
<bpm>0</bpm>
<rpm>0.00</rpm>
</extensions>
</trkpt>
<trkpt lat="30.961570740" lon="34.783134460">
<ele>444.312500</ele>
<time>2013-11-20T08:19:59Z</time>
<extensions>
<speed>0.0</speed>
<temp>0.00</temp>
<bpm>0</bpm>
<rpm>0.00</rpm>
</extensions>
</trkpt>
<trkpt lat="30.961570740" lon="34.783134460">
<ele>444.289063</ele>
<time>2013-11-20T08:20:04Z</time>
<extensions>
<speed>0.0</speed>
<temp>0.00</temp>
<bpm>0</bpm>
<rpm>0.00</rpm>
</extensions>
</trkpt>
<trkpt lat="30.961570740" lon="34.783134460">
<ele>444.273438</ele>
<time>2013-11-20T08:20:09Z</time>
<extensions>
<speed>0.0</speed>
<temp>0.00</temp>
<bpm>0</bpm>
<rpm>0.00</rpm>
</extensions>
</trkpt>
<trkpt lat="30.961570740" lon="34.783134460">
<ele>444.257813</ele>
<time>2013-11-20T08:20:14Z</time>
<speed>0.010000</speed>
<extensions>
<speed>0.0</speed>
<temp>0.00</temp>
<bpm>0</bpm>
<rpm>0.00</rpm>
</extensions>
</trkpt>
<trkpt lat="30.961570740" lon="34.783134460">
<ele>444.234375</ele>
<time>2013-11-20T08:20:19Z</time>
<extensions>
<speed>0.0</speed>
<temp>0.00</temp>
<bpm>0</bpm>
<rpm>0.00</rpm>
</extensions>
</trkpt>
<trkpt lat="30.961570740" lon="34.783134460">
<ele>444.203125</ele>
<time>2013-11-20T08:20:24Z</time>
<extensions>
<speed>0.0</speed>
<temp>0.00</temp>
<bpm>0</bpm>
<rpm>0.00</rpm>
</extensions>
</trkpt>
<trkpt lat="30.961570740" lon="34.783134460">
<ele>444.164063</ele>
<time>2013-11-20T08:20:29Z</time>
<extensions>
<speed>0.0</speed>
<temp>0.00</temp>
<bpm>0</bpm>
<rpm>0.00</rpm>
</extensions>
</trkpt>
<trkpt lat="30.961570740" lon="34.783134460">
<ele>444.148438</ele>
<time>2013-11-20T08:20:34Z</time>
<speed>0.010000</speed>
<extensions>
<speed>0.0</speed>
<temp>0.00</temp>
<bpm>0</bpm>
<rpm>0.00</rpm>
</extensions>
</trkpt>
<trkpt lat="30.961572647" lon="34.783134460">
<ele>444.117188</ele>
<time>2013-11-20T08:20:39Z</time>
<extensions>
<speed>0.0</speed>
<temp>0.00</temp>
<bpm>0</bpm>
<rpm>0.00</rpm>
</extensions>
</trkpt>
<trkpt lat="30.961570740" lon="34.783134460">
<ele>444.117188</ele>
<time>2013-11-20T08:20:44Z</time>
<extensions>
<speed>0.0</speed>
<temp>0.00</temp>
<bpm>0</bpm>
<rpm>0.00</rpm>
</extensions>
</trkpt>
<trkpt lat="30.961572647" lon="34.783134460">
<ele>444.101563</ele>
<time>2013-11-20T08:20:49Z</time>
<extensions>
<speed>0.0</speed>
<temp>0.00</temp>
<bpm>0</bpm>
<rpm>0.00</rpm>
</extensions>
</trkpt>
<trkpt lat="30.961572647" lon="34.783134460">
<ele>444.093750</ele>
<time>2013-11-20T08:20:54Z</time>
<extensions>
<speed>0.0</speed>
<temp>0.00</temp>
<bpm>0</bpm>
<rpm>0.00</rpm>
</extensions>
</trkpt>
<trkpt lat="30.961572647" lon="34.783130646">
<ele>444.085938</ele>
<time>2013-11-20T08:20:59Z</time>
<extensions>
<speed>0.0</speed>
<temp>0.00</temp>
<bpm>0</bpm>
<rpm>0.00</rpm>
</extensions>
</trkpt>
<trkpt lat="30.961572647" lon="34.783130646">
<ele>444.078125</ele>
<time>2013-11-20T08:21:04Z</time>
<extensions>
<speed>0.0</speed>
<temp>0.00</temp>
<bpm>0</bpm>
<rpm>0.00</rpm>
</extensions>
</trkpt>
<trkpt lat="30.961572647" lon="34.783130646">
<ele>444.070313</ele>
<time>2013-11-20T08:21:09Z</time>
<extensions>
<speed>0.0</speed>
<temp>0.00</temp>
<bpm>0</bpm>
<rpm>0.00</rpm>
</extensions>
</trkpt>
<trkpt lat="30.961572647" lon="34.783130646">
<ele>444.062500</ele>
<time>2013-11-20T08:21:14Z</time>
<extensions>
<speed>0.0</speed>
<temp>0.00</temp>
<bpm>0</bpm>
<rpm>0.00</rpm>
</extensions>
</trkpt>
<trkpt lat="30.961572647" lon="34.783130646">
<ele>444.046875</ele>
<time>2013-11-20T08:21:19Z</time>
<extensions>
<speed>0.0</speed>
<temp>0.00</temp>
<bpm>0</bpm>
<rpm>0.00</rpm>
</extensions>
</trkpt>
<trkpt lat="30.961572647" lon="34.783130646">
<ele>444.031250</ele>
<time>2013-11-20T08:21:24Z</time>
<extensions>
<speed>0.0</speed>
<temp>0.00</temp>
<bpm>0</bpm>
<rpm>0.00</rpm>
</extensions>
</trkpt>
<trkpt lat="30.961572647" lon="34.783130646">
<ele>444.015625</ele>
<time>2013-11-20T08:21:29Z</time>
<speed>0.010000</speed>
<extensions>
<speed>0.0</speed>
<temp>0.00</temp>
<bpm>0</bpm>
<rpm>0.00</rpm>
</extensions>
</trkpt>
<trkpt lat="30.961572647" lon="34.783130646">
<ele>444.000000</ele>
<time>2013-11-20T08:21:34Z</time>
<extensions>
<speed>0.0</speed>
<temp>0.00</temp>
<bpm>0</bpm>
<rpm>0.00</rpm>
</extensions>
</trkpt>
<trkpt lat="30.961572647" lon="34.783130646">
<ele>443.976563</ele>
<time>2013-11-20T08:21:39Z</time>
<extensions>
<speed>0.0</speed>
<temp>0.00</temp>
<bpm>0</bpm>
<rpm>0.00</rpm>
</extensions>
</trkpt>
<trkpt lat="30.961572647" lon="34.783130646">
<ele>443.953125</ele>
<time>2013-11-20T08:21:44Z</time>
<extensions>
<speed>0.0</speed>
<temp>0.00</temp>
<bpm>0</bpm>
<rpm>0.00</rpm>
</extensions>
</trkpt>
<trkpt lat="30.961572647" lon="34.783130646">
<ele>443.929688</ele>
<time>2013-11-20T08:21:49Z</time>
<speed>0.020000</speed>
<extensions>
<speed>0.0</speed>
<temp>0.00</temp>
<bpm>0</bpm>
<rpm>0.00</rpm>
</extensions>
</trkpt>
<trkpt lat="30.961572647" lon="34.783130646">
<ele>443.906250</ele>
<time>2013-11-20T08:21:54Z</time>
<speed>0.010000</speed>
<extensions>
<speed>0.0</speed>
<temp>0.00</temp>
<bpm>0</bpm>
<rpm>0.00</rpm>
</extensions>
</trkpt>
<trkpt lat="30.961572647" lon="34.783130646">
<ele>443.882813</ele>
<time>2013-11-20T08:21:59Z</time>
<extensions>
<speed>0.0</speed>
<temp>0.00</temp>
<bpm>0</bpm>
<rpm>0.00</rpm>
</extensions>
</trkpt>
<trkpt lat="30.961572647" lon="34.783130646">
<ele>443.859375</ele>
<time>2013-11-20T08:22:04Z</time>
<speed>0.010000</speed>
<extensions>
<speed>0.0</speed>
<temp>0.00</temp>
<bpm>0</bpm>
<rpm>0.00</rpm>
</extensions>
</trkpt>
<trkpt lat="30.961572647" lon="34.783130646">
<ele>443.843750</ele>
<time>2013-11-20T08:22:09Z</time>
<speed>0.010000</speed>
<extensions>
<speed>0.0</speed>
<temp>0.00</temp>
<bpm>0</bpm>
<rpm>0.00</rpm>
</extensions>
</trkpt>
<trkpt lat="30.961572647" lon="34.783130646">
<ele>443.820313</ele>
<time>2013-11-20T08:22:14Z</time>
<extensions>
<speed>0.0</speed>
<temp>0.00</temp>
<bpm>0</bpm>
<rpm>0.00</rpm>
</extensions>
</trkpt>
<trkpt lat="30.961572647" lon="34.783130646">
<ele>443.781250</ele>
<time>2013-11-20T08:22:19Z</time>
<extensions>
<speed>0.0</speed>
<temp>0.00</temp>
<bpm>0</bpm>
<rpm>0.00</rpm>
</extensions>
</trkpt>
<trkpt lat="30.961572647" lon="34.783130646">
<ele>443.765625</ele>
<time>2013-11-20T08:22:24Z</time>
<extensions>
<speed>0.0</speed>
<temp>0.00</temp>
<bpm>0</bpm>
<rpm>0.00</rpm>
</extensions>
</trkpt>
<trkpt lat="30.961572647" lon="34.783130646">
<ele>443.750000</ele>
<time>2013-11-20T08:22:29Z</time>
<speed>0.010000</speed>
<extensions>
<speed>0.0</speed>
<temp>0.00</temp>
<bpm>0</bpm>
<rpm>0.00</rpm>
</extensions>
</trkpt>
<trkpt lat="30.961572647" lon="34.783130646">
<ele>443.718750</ele>
<time>2013-11-20T08:22:34Z</time>
<speed>0.020000</speed>
<extensions>
<speed>0.0</speed>
<temp>0.00</temp>
<bpm>0</bpm>
<rpm>0.00</rpm>
</extensions>
</trkpt>
<trkpt lat="30.961572647" lon="34.783130646">
<ele>443.703125</ele>
<time>2013-11-20T08:22:39Z</time>
<extensions>
<speed>0.0</speed>
<temp>0.00</temp>
<bpm>0</bpm>
<rpm>0.00</rpm>
</extensions>
</trkpt>
<trkpt lat="30.961572647" lon="34.783130646">
<ele>443.687500</ele>
<time>2013-11-20T08:22:44Z</time>
<extensions>
<speed>0.0</speed>
<temp>0.00</temp>
<bpm>0</bpm>
<rpm>0.00</rpm>
</extensions>
</trkpt>
<trkpt lat="30.961572647" lon="34.783130646">
<ele>443.671875</ele>
<time>2013-11-20T08:22:49Z</time>
<extensions>
<speed>0.0</speed>
<temp>0.00</temp>
<bpm>0</bpm>
<rpm>0.00</rpm>
</extensions>
</trkpt>
<trkpt lat="30.961572647" lon="34.783126831">
<ele>443.656250</ele>
<time>2013-11-20T08:22:54Z</time>
<extensions>
<speed>0.0</speed>
<temp>0.00</temp>
<bpm>0</bpm>
<rpm>0.00</rpm>
</extensions>
</trkpt>
<trkpt lat="30.961572647" lon="34.783126831">
<ele>443.640625</ele>
<time>2013-11-20T08:22:59Z</time>
<extensions>
<speed>0.0</speed>
<temp>0.00</temp>
<bpm>0</bpm>
<rpm>0.00</rpm>
</extensions>
</trkpt>
<trkpt lat="30.961572647" lon="34.783126831">
<ele>443.617188</ele>
<time>2013-11-20T08:23:04Z</time>
<speed>0.010000</speed>
<extensions>
<speed>0.0</speed>
<temp>0.00</temp>
<bpm>0</bpm>
<rpm>0.00</rpm>
</extensions>
</trkpt>
<trkpt lat="30.961572647" lon="34.783126831">
<ele>443.593750</ele>
<time>2013-11-20T08:23:09Z</time>
<extensions>
<speed>0.0</speed>
<temp>0.00</temp>
<bpm>0</bpm>
<rpm>0.00</rpm>
</extensions>
</trkpt>
<trkpt lat="30.961572647" lon="34.783126831">
<ele>443.570313</ele>
<time>2013-11-20T08:23:14Z</time>
<extensions>
<speed>0.0</speed>
<temp>0.00</temp>
<bpm>0</bpm>
<rpm>0.00</rpm>
</extensions>
</trkpt>
<trkpt lat="30.961572647" lon="34.783126831">
<ele>443.539063</ele>
<time>2013-11-20T08:23:19Z</time>
<extensions>
<speed>0.0</speed>
<temp>0.00</temp>
<bpm>0</bpm>
<rpm>0.00</rpm>
</extensions>
</trkpt>
<trkpt lat="30.961572647" lon="34.783126831">
<ele>443.531250</ele>
<time>2013-11-20T08:23:24Z</time>
<extensions>
<speed>0.0</speed>
<temp>0.00</temp>
<bpm>0</bpm>
<rpm>0.00</rpm>
</extensions>
</trkpt>
<trkpt lat="30.961572647" lon="34.783126831">
<ele>443.507813</ele>
<time>2013-11-20T08:23:29Z</time>
<extensions>
<speed>0.0</speed>
<temp>0.00</temp>
<bpm>0</bpm>
<rpm>0.00</rpm>
</extensions>
</trkpt>
<trkpt lat="30.961572647" lon="34.783126831">
<ele>443.500000</ele>
<time>2013-11-20T08:23:34Z</time>
<extensions>
<speed>0.0</speed>
<temp>0.00</temp>
<bpm>0</bpm>
<rpm>0.00</rpm>
</extensions>
</trkpt>
<trkpt lat="30.961572647" lon="34.783126831">
<ele>443.476563</ele>
<time>2013-11-20T08:23:39Z</time>
<speed>0.010000</speed>
<extensions>
<speed>0.0</speed>
<temp>0.00</temp>
<bpm>0</bpm>
<rpm>0.00</rpm>
</extensions>
</trkpt>
<trkpt lat="30.961572647" lon="34.783126831">
<ele>443.460938</ele>
<time>2013-11-20T08:23:44Z</time>
<extensions>
<speed>0.0</speed>
<temp>0.00</temp>
<bpm>0</bpm>
<rpm>0.00</rpm>
</extensions>
</trkpt>
<trkpt lat="30.961572647" lon="34.783126831">
<ele>443.445313</ele>
<time>2013-11-20T08:23:49Z</time>
<extensions>
<speed>0.0</speed>
<temp>0.00</temp>
<bpm>0</bpm>
<rpm>0.00</rpm>
</extensions>
</trkpt>
<trkpt lat="30.961572647" lon="34.783126831">
<ele>443.429688</ele>
<time>2013-11-20T08:23:54Z</time>
<extensions>
<speed>0.0</speed>
<temp>0.00</temp>
<bpm>0</bpm>
<rpm>0.00</rpm>
</extensions>
</trkpt>
<trkpt lat="30.961572647" lon="34.783126831">
<ele>443.398438</ele>
<time>2013-11-20T08:23:59Z</time>
<speed>0.010000</speed>
<extensions>
<speed>0.0</speed>
<temp>0.00</temp>
<bpm>0</bpm>
<rpm>0.00</rpm>
</extensions>
</trkpt>
<trkpt lat="30.961572647" lon="34.783126831">
<ele>443.375000</ele>
<time>2013-11-20T08:24:04Z</time>
<extensions>
<speed>0.0</speed>
<temp>0.00</temp>
<bpm>0</bpm>
<rpm>0.00</rpm>
</extensions>
</trkpt>
<trkpt lat="30.961572647" lon="34.783126831">
<ele>443.351563</ele>
<time>2013-11-20T08:24:09Z</time>
<extensions>
<speed>0.0</speed>
<temp>0.00</temp>
<bpm>0</bpm>
<rpm>0.00</rpm>
</extensions>
</trkpt>
<trkpt lat="30.961572647" lon="34.783126831">
<ele>443.328125</ele>
<time>2013-11-20T08:24:14Z</time>
<speed>0.010000</speed>
<extensions>
<speed>0.0</speed>
<temp>0.00</temp>
<bpm>0</bpm>
<rpm>0.00</rpm>
</extensions>
</trkpt>
<trkpt lat="30.961572647" lon="34.783126831">
<ele>443.304688</ele>
<time>2013-11-20T08:24:19Z</time>
<speed>0.010000</speed>
<extensions>
<speed>0.0</speed>
<temp>0.00</temp>
<bpm>0</bpm>
<rpm>0.00</rpm>
</extensions>
</trkpt>
<trkpt lat="30.961572647" lon="34.783123016">
<ele>443.296875</ele>
<time>2013-11-20T08:24:24Z</time>
<speed>0.020000</speed>
<extensions>
<speed>0.0</speed>
<temp>0.00</temp>
<bpm>0</bpm>
<rpm>0.00</rpm>
</extensions>
</trkpt>
<trkpt lat="30.961572647" lon="34.783123016">
<ele>443.296875</ele>
<time>2013-11-20T08:24:29Z</time>
<extensions>
<speed>0.0</speed>
<temp>0.00</temp>
<bpm>0</bpm>
<rpm>0.00</rpm>
</extensions>
</trkpt>
<trkpt lat="30.961572647" lon="34.783123016">
<ele>443.289063</ele>
<time>2013-11-20T08:24:34Z</time>
<extensions>
<speed>0.0</speed>
<temp>0.00</temp>
<bpm>0</bpm>
<rpm>0.00</rpm>
</extensions>
</trkpt>
<trkpt lat="30.961572647" lon="34.783123016">
<ele>443.281250</ele>
<time>2013-11-20T08:24:39Z</time>
<speed>0.010000</speed>
<extensions>
<speed>0.0</speed>
<temp>0.00</temp>
<bpm>0</bpm>
<rpm>0.00</rpm>
</extensions>
</trkpt>
<trkpt lat="30.961572647" lon="34.783123016">
<ele>443.265625</ele>
<time>2013-11-20T08:24:44Z</time>
<speed>0.010000</speed>
<extensions>
<speed>0.0</speed>
<temp>0.00</temp>
<bpm>0</bpm>
<rpm>0.00</rpm>
</extensions>
</trkpt>
<trkpt lat="30.961572647" lon="34.783123016">
<ele>443.250000</ele>
<time>2013-11-20T08:24:49Z</time>
<extensions>
<speed>0.0</speed>
<temp>0.00</temp>
<bpm>0</bpm>
<rpm>0.00</rpm>
</extensions>
</trkpt>
<trkpt lat="30.961572647" lon="34.783123016">
<ele>443.242188</ele>
<time>2013-11-20T08:24:54Z</time>
<speed>0.010000</speed>
<extensions>
<speed>0.0</speed>
<temp>0.00</temp>
<bpm>0</bpm>
<rpm>0.00</rpm>
</extensions>
</trkpt>
<trkpt lat="30.961572647" lon="34.783123016">
<ele>443.226563</ele>
<time>2013-11-20T08:24:59Z</time>
<extensions>
<speed>0.0</speed>
<temp>0.00</temp>
<bpm>0</bpm>
<rpm>0.00</rpm>
</extensions>
</trkpt>
<trkpt lat="30.961572647" lon="34.783123016">
<ele>443.226563</ele>
<time>2013-11-20T08:25:04Z</time>
<extensions>
<speed>0.0</speed>
<temp>0.00</temp>
<bpm>0</bpm>
<rpm>0.00</rpm>
</extensions>
</trkpt>
<trkpt lat="30.961572647" lon="34.783123016">
<ele>443.218750</ele>
<time>2013-11-20T08:25:09Z</time>
<speed>0.020000</speed>
<extensions>
<speed>0.0</speed>
<temp>0.00</temp>
<bpm>0</bpm>
<rpm>0.00</rpm>
</extensions>
</trkpt>
<trkpt lat="30.961572647" lon="34.783123016">
<ele>443.203125</ele>
<time>2013-11-20T08:25:14Z</time>
<speed>0.010000</speed>
<extensions>
<speed>0.0</speed>
<temp>0.00</temp>
<bpm>0</bpm>
<rpm>0.00</rpm>
</extensions>
</trkpt>
<trkpt lat="30.961572647" lon="34.783123016">
<ele>443.203125</ele>
<time>2013-11-20T08:25:19Z</time>
<extensions>
<speed>0.0</speed>
<temp>0.00</temp>
<bpm>0</bpm>
<rpm>0.00</rpm>
</extensions>
</trkpt>
<trkpt lat="30.961572647" lon="34.783123016">
<ele>443.203125</ele>
<time>2013-11-20T08:25:24Z</time>
<speed>0.010000</speed>
<extensions>
<speed>0.0</speed>
<temp>0.00</temp>
<bpm>0</bpm>
<rpm>0.00</rpm>
</extensions>
</trkpt>
<trkpt lat="30.961572647" lon="34.783123016">
<ele>443.171875</ele>
<time>2013-11-20T08:25:29Z</time>
<speed>0.010000</speed>
<extensions>
<speed>0.0</speed>
<temp>0.00</temp>
<bpm>0</bpm>
<rpm>0.00</rpm>
</extensions>
</trkpt>
<trkpt lat="30.961572647" lon="34.783123016">
<ele>443.156250</ele>
<time>2013-11-20T08:25:34Z</time>
<speed>0.010000</speed>
<extensions>
<speed>0.0</speed>
<temp>0.00</temp>
<bpm>0</bpm>
<rpm>0.00</rpm>
</extensions>
</trkpt>
<trkpt lat="30.961572647" lon="34.783123016">
<ele>443.132813</ele>
<time>2013-11-20T08:25:39Z</time>
<extensions>
<speed>0.0</speed>
<temp>0.00</temp>
<bpm>0</bpm>
<rpm>0.00</rpm>
</extensions>
</trkpt>
<trkpt lat="30.961572647" lon="34.783123016">
<ele>443.117188</ele>
<time>2013-11-20T08:25:44Z</time>
<extensions>
<speed>0.0</speed>
<temp>0.00</temp>
<bpm>0</bpm>
<rpm>0.00</rpm>
</extensions>
</trkpt>
<trkpt lat="30.961572647" lon="34.783123016">
<ele>443.117188</ele>
<time>2013-11-20T08:25:49Z</time>
<extensions>
<speed>0.0</speed>
<temp>0.00</temp>
<bpm>0</bpm>
<rpm>0.00</rpm>
</extensions>
</trkpt>
<trkpt lat="30.961572647" lon="34.783123016">
<ele>443.109375</ele>
<time>2013-11-20T08:25:54Z</time>
<speed>0.020000</speed>
<extensions>
<speed>0.0</speed>
<temp>0.00</temp>
<bpm>0</bpm>
<rpm>0.00</rpm>
</extensions>
</trkpt>
<trkpt lat="30.961572647" lon="34.783123016">
<ele>443.109375</ele>
<time>2013-11-20T08:25:59Z</time>
<speed>0.010000</speed>
<extensions>
<speed>0.0</speed>
<temp>0.00</temp>
<bpm>0</bpm>
<rpm>0.00</rpm>
</extensions>
</trkpt>
<trkpt lat="30.961572647" lon="34.783123016">
<ele>443.093750</ele>
<time>2013-11-20T08:26:04Z</time>
<speed>0.010000</speed>
<extensions>
<speed>0.0</speed>
<temp>0.00</temp>
<bpm>0</bpm>
<rpm>0.00</rpm>
</extensions>
</trkpt>
<trkpt lat="30.961572647" lon="34.783123016">
<ele>443.085938</ele>
<time>2013-11-20T08:26:09Z</time>
<extensions>
<speed>0.0</speed>
<temp>0.00</temp>
<bpm>0</bpm>
<rpm>0.00</rpm>
</extensions>
</trkpt>
<trkpt lat="30.961572647" lon="34.783123016">
<ele>443.070313</ele>
<time>2013-11-20T08:26:14Z</time>
<extensions>
<speed>0.0</speed>
<temp>0.00</temp>
<bpm>0</bpm>
<rpm>0.00</rpm>
</extensions>
</trkpt>
<trkpt lat="30.961572647" lon="34.783123016">
<ele>443.046875</ele>
<time>2013-11-20T08:26:19Z</time>
<extensions>
<speed>0.0</speed>
<temp>0.00</temp>
<bpm>0</bpm>
<rpm>0.00</rpm>
</extensions>
</trkpt>
<trkpt lat="30.961572647" lon="34.783123016">
<ele>443.039063</ele>
<time>2013-11-20T08:26:24Z</time>
<extensions>
<speed>0.0</speed>
<temp>0.00</temp>
<bpm>0</bpm>
<rpm>0.00</rpm>
</extensions>
</trkpt>
<trkpt lat="30.961572647" lon="34.783123016">
<ele>443.015625</ele>
<time>2013-11-20T08:26:29Z</time>
<extensions>
<speed>0.0</speed>
<temp>0.00</temp>
<bpm>0</bpm>
<rpm>0.00</rpm>
</extensions>
</trkpt>
<trkpt lat="30.961572647" lon="34.783119202">
<ele>443.007813</ele>
<time>2013-11-20T08:26:34Z</time>
<extensions>
<speed>0.0</speed>
<temp>0.00</temp>
<bpm>0</bpm>
<rpm>0.00</rpm>
</extensions>
</trkpt>
<trkpt lat="30.961572647" lon="34.783119202">
<ele>443.000000</ele>
<time>2013-11-20T08:26:39Z</time>
<extensions>
<speed>0.0</speed>
<temp>0.00</temp>
<bpm>0</bpm>
<rpm>0.00</rpm>
</extensions>
</trkpt>
<trkpt lat="30.961572647" lon="34.783119202">
<ele>442.992188</ele>
<time>2013-11-20T08:26:44Z</time>
<extensions>
<speed>0.0</speed>
<temp>0.00</temp>
<bpm>0</bpm>
<rpm>0.00</rpm>
</extensions>
</trkpt>
<trkpt lat="30.961572647" lon="34.783119202">
<ele>442.968750</ele>
<time>2013-11-20T08:26:49Z</time>
<extensions>
<speed>0.0</speed>
<temp>0.00</temp>
<bpm>0</bpm>
<rpm>0.00</rpm>
</extensions>
</trkpt>
<trkpt lat="30.961572647" lon="34.783119202">
<ele>442.945313</ele>
<time>2013-11-20T08:26:54Z</time>
<extensions>
<speed>0.0</speed>
<temp>0.00</temp>
<bpm>0</bpm>
<rpm>0.00</rpm>
</extensions>
</trkpt>
<trkpt lat="30.961572647" lon="34.783119202">
<ele>442.929688</ele>
<time>2013-11-20T08:26:59Z</time>
<speed>0.010000</speed>
<extensions>
<speed>0.0</speed>
<temp>0.00</temp>
<bpm>0</bpm>
<rpm>0.00</rpm>
</extensions>
</trkpt>
<trkpt lat="30.961572647" lon="34.783119202">
<ele>442.906250</ele>
<time>2013-11-20T08:27:04Z</time>
<extensions>
<speed>0.0</speed>
<temp>0.00</temp>
<bpm>0</bpm>
<rpm>0.00</rpm>
</extensions>
</trkpt>
<trkpt lat="30.961572647" lon="34.783119202">
<ele>442.890625</ele>
<time>2013-11-20T08:27:09Z</time>
<extensions>
<speed>0.0</speed>
<temp>0.00</temp>
<bpm>0</bpm>
<rpm>0.00</rpm>
</extensions>
</trkpt>
<trkpt lat="30.961572647" lon="34.783119202">
<ele>442.890625</ele>
<time>2013-11-20T08:27:14Z</time>
<speed>0.010000</speed>
<extensions>
<speed>0.0</speed>
<temp>0.00</temp>
<bpm>0</bpm>
<rpm>0.00</rpm>
</extensions>
</trkpt>
<trkpt lat="30.961572647" lon="34.783119202">
<ele>442.890625</ele>
<time>2013-11-20T08:27:19Z</time>
<extensions>
<speed>0.0</speed>
<temp>0.00</temp>
<bpm>0</bpm>
<rpm>0.00</rpm>
</extensions>
</trkpt>
<trkpt lat="30.961572647" lon="34.783119202">
<ele>442.890625</ele>
<time>2013-11-20T08:27:24Z</time>
<extensions>
<speed>0.0</speed>
<temp>0.00</temp>
<bpm>0</bpm>
<rpm>0.00</rpm>
</extensions>
</trkpt>
<trkpt lat="30.961572647" lon="34.783119202">
<ele>442.882813</ele>
<time>2013-11-20T08:27:29Z</time>
<speed>0.010000</speed>
<extensions>
<speed>0.0</speed>
<temp>0.00</temp>
<bpm>0</bpm>
<rpm>0.00</rpm>
</extensions>
</trkpt>
<trkpt lat="30.961572647" lon="34.783119202">
<ele>442.882813</ele>
<time>2013-11-20T08:27:34Z</time>
<extensions>
<speed>0.0</speed>
<temp>0.00</temp>
<bpm>0</bpm>
<rpm>0.00</rpm>
</extensions>
</trkpt>
<trkpt lat="30.961572647" lon="34.783119202">
<ele>442.867188</ele>
<time>2013-11-20T08:27:39Z</time>
<extensions>
<speed>0.0</speed>
<temp>0.00</temp>
<bpm>0</bpm>
<rpm>0.00</rpm>
</extensions>
</trkpt>
<trkpt lat="30.961572647" lon="34.783119202">
<ele>442.851563</ele>
<time>2013-11-20T08:27:44Z</time>
<speed>0.010000</speed>
<extensions>
<speed>0.0</speed>
<temp>0.00</temp>
<bpm>0</bpm>
<rpm>0.00</rpm>
</extensions>
</trkpt>
<trkpt lat="30.961570740" lon="34.783119202">
<ele>442.835938</ele>
<time>2013-11-20T08:27:49Z</time>
<extensions>
<speed>0.0</speed>
<temp>0.00</temp>
<bpm>0</bpm>
<rpm>0.00</rpm>
</extensions>
</trkpt>
<trkpt lat="30.961570740" lon="34.783119202">
<ele>442.820313</ele>
<time>2013-11-20T08:27:54Z</time>
<extensions>
<speed>0.0</speed>
<temp>0.00</temp>
<bpm>0</bpm>
<rpm>0.00</rpm>
</extensions>
</trkpt>
<trkpt lat="30.961570740" lon="34.783119202">
<ele>442.804688</ele>
<time>2013-11-20T08:27:59Z</time>
<extensions>
<speed>0.0</speed>
<temp>0.00</temp>
<bpm>0</bpm>
<rpm>0.00</rpm>
</extensions>
</trkpt>
<trkpt lat="30.961570740" lon="34.783119202">
<ele>442.781250</ele>
<time>2013-11-20T08:28:04Z</time>
<extensions>
<speed>0.0</speed>
<temp>0.00</temp>
<bpm>0</bpm>
<rpm>0.00</rpm>
</extensions>
</trkpt>
<trkpt lat="30.961570740" lon="34.783119202">
<ele>442.773438</ele>
<time>2013-11-20T08:28:09Z</time>
<extensions>
<speed>0.0</speed>
<temp>0.00</temp>
<bpm>0</bpm>
<rpm>0.00</rpm>
</extensions>
</trkpt>
<trkpt lat="30.961570740" lon="34.783119202">
<ele>442.773438</ele>
<time>2013-11-20T08:28:14Z</time>
<speed>0.010000</speed>
<extensions>
<speed>0.0</speed>
<temp>0.00</temp>
<bpm>0</bpm>
<rpm>0.00</rpm>
</extensions>
</trkpt>
<trkpt lat="30.961570740" lon="34.783119202">
<ele>442.773438</ele>
<time>2013-11-20T08:28:19Z</time>
<extensions>
<speed>0.0</speed>
<temp>0.00</temp>
<bpm>0</bpm>
<rpm>0.00</rpm>
</extensions>
</trkpt>
<trkpt lat="30.961570740" lon="34.783119202">
<ele>442.773438</ele>
<time>2013-11-20T08:28:24Z</time>
<speed>0.010000</speed>
<extensions>
<speed>0.0</speed>
<temp>0.00</temp>
<bpm>0</bpm>
<rpm>0.00</rpm>
</extensions>
</trkpt>
<trkpt lat="30.961572647" lon="34.783119202">
<ele>442.757813</ele>
<time>2013-11-20T08:28:29Z</time>
<speed>0.010000</speed>
<extensions>
<speed>0.0</speed>
<temp>0.00</temp>
<bpm>0</bpm>
<rpm>0.00</rpm>
</extensions>
</trkpt>
<trkpt lat="30.961572647" lon="34.783119202">
<ele>442.742188</ele>
<time>2013-11-20T08:28:34Z</time>
<speed>0.010000</speed>
<extensions>
<speed>0.0</speed>
<temp>0.00</temp>
<bpm>0</bpm>
<rpm>0.00</rpm>
</extensions>
</trkpt>
<trkpt lat="30.961572647" lon="34.783119202">
<ele>442.742188</ele>
<time>2013-11-20T08:28:39Z</time>
<speed>0.020000</speed>
<extensions>
<speed>0.0</speed>
<temp>0.00</temp>
<bpm>0</bpm>
<rpm>0.00</rpm>
</extensions>
</trkpt>
<trkpt lat="30.961572647" lon="34.783119202">
<ele>442.734375</ele>
<time>2013-11-20T08:28:44Z</time>
<extensions>
<speed>0.0</speed>
<temp>0.00</temp>
<bpm>0</bpm>
<rpm>0.00</rpm>
</extensions>
</trkpt>
<trkpt lat="30.961572647" lon="34.783119202">
<ele>442.734375</ele>
<time>2013-11-20T08:28:49Z</time>
<extensions>
<speed>0.0</speed>
<temp>0.00</temp>
<bpm>0</bpm>
<rpm>0.00</rpm>
</extensions>
</trkpt>
<trkpt lat="30.961572647" lon="34.783119202">
<ele>442.726563</ele>
<time>2013-11-20T08:28:54Z</time>
<extensions>
<speed>0.0</speed>
<temp>0.00</temp>
<bpm>0</bpm>
<rpm>0.00</rpm>
</extensions>
</trkpt>
<trkpt lat="30.961572647" lon="34.783119202">
<ele>442.726563</ele>
<time>2013-11-20T08:28:59Z</time>
<extensions>
<speed>0.0</speed>
<temp>0.00</temp>
<bpm>0</bpm>
<rpm>0.00</rpm>
</extensions>
</trkpt>
<trkpt lat="30.961572647" lon="34.783119202">
<ele>442.718750</ele>
<time>2013-11-20T08:29:04Z</time>
<extensions>
<speed>0.0</speed>
<temp>0.00</temp>
<bpm>0</bpm>
<rpm>0.00</rpm>
</extensions>
</trkpt>
<trkpt lat="30.961572647" lon="34.783119202">
<ele>442.718750</ele>
<time>2013-11-20T08:29:09Z</time>
<speed>0.010000</speed>
<extensions>
<speed>0.0</speed>
<temp>0.00</temp>
<bpm>0</bpm>
<rpm>0.00</rpm>
</extensions>
</trkpt>
<trkpt lat="30.961572647" lon="34.783119202">
<ele>442.718750</ele>
<time>2013-11-20T08:29:14Z</time>
<extensions>
<speed>0.0</speed>
<temp>0.00</temp>
<bpm>0</bpm>
<rpm>0.00</rpm>
</extensions>
</trkpt>
<trkpt lat="30.961572647" lon="34.783119202">
<ele>442.718750</ele>
<time>2013-11-20T08:29:19Z</time>
<speed>0.050000</speed>
<extensions>
<speed>0.1</speed>
<temp>0.00</temp>
<bpm>0</bpm>
<rpm>0.00</rpm>
</extensions>
</trkpt>
<trkpt lat="30.961572647" lon="34.783119202">
<ele>442.695313</ele>
<time>2013-11-20T08:29:24Z</time>
<speed>0.010000</speed>
<extensions>
<speed>0.0</speed>
<temp>0.00</temp>
<bpm>0</bpm>
<rpm>0.00</rpm>
</extensions>
</trkpt>
<trkpt lat="30.961572647" lon="34.783119202">
<ele>442.679688</ele>
<time>2013-11-20T08:29:29Z</time>
<speed>0.010000</speed>
<extensions>
<speed>0.0</speed>
<temp>0.00</temp>
<bpm>0</bpm>
<rpm>0.00</rpm>
</extensions>
</trkpt>
<trkpt lat="30.961572647" lon="34.783119202">
<ele>442.671875</ele>
<time>2013-11-20T08:29:34Z</time>
<extensions>
<speed>0.0</speed>
<temp>0.00</temp>
<bpm>0</bpm>
<rpm>0.00</rpm>
</extensions>
</trkpt>
<trkpt lat="30.961572647" lon="34.783119202">
<ele>442.656250</ele>
<time>2013-11-20T08:29:39Z</time>
<extensions>
<speed>0.0</speed>
<temp>0.00</temp>
<bpm>0</bpm>
<rpm>0.00</rpm>
</extensions>
</trkpt>
<trkpt lat="30.961572647" lon="34.783119202">
<ele>442.640625</ele>
<time>2013-11-20T08:29:44Z</time>
<extensions>
<speed>0.0</speed>
<temp>0.00</temp>
<bpm>0</bpm>
<rpm>0.00</rpm>
</extensions>
</trkpt>
<trkpt lat="30.961572647" lon="34.783119202">
<ele>442.617188</ele>
<time>2013-11-20T08:29:49Z</time>
<speed>0.010000</speed>
<extensions>
<speed>0.0</speed>
<temp>0.00</temp>
<bpm>0</bpm>
<rpm>0.00</rpm>
</extensions>
</trkpt>
<trkpt lat="30.961572647" lon="34.783119202">
<ele>442.593750</ele>
<time>2013-11-20T08:29:54Z</time>
<speed>0.120000</speed>
<extensions>
<speed>0.1</speed>
<temp>0.00</temp>
<bpm>0</bpm>
<rpm>0.00</rpm>
</extensions>
</trkpt>
<trkpt lat="30.961572647" lon="34.783119202">
<ele>442.585938</ele>
<time>2013-11-20T08:29:59Z</time>
<extensions>
<speed>0.0</speed>
<temp>0.00</temp>
<bpm>0</bpm>
<rpm>0.00</rpm>
</extensions>
</trkpt>
<trkpt lat="30.961572647" lon="34.783119202">
<ele>442.585938</ele>
<time>2013-11-20T08:30:04Z</time>
<speed>0.010000</speed>
<extensions>
<speed>0.0</speed>
<temp>0.00</temp>
<bpm>0</bpm>
<rpm>0.00</rpm>
</extensions>
</trkpt>
<trkpt lat="30.961574554" lon="34.783119202">
<ele>442.578125</ele>
<time>2013-11-20T08:30:09Z</time>
<speed>0.010000</speed>
<extensions>
<speed>0.0</speed>
<temp>0.00</temp>
<bpm>0</bpm>
<rpm>0.00</rpm>
</extensions>
</trkpt>
<trkpt lat="30.961574554" lon="34.783123016">
<ele>442.414063</ele>
<time>2013-11-20T08:30:14Z</time>
<speed>0.120000</speed>
<extensions>
<speed>0.1</speed>
<temp>0.00</temp>
<bpm>0</bpm>
<rpm>0.00</rpm>
</extensions>
</trkpt>
<trkpt lat="30.961561203" lon="34.783149719">
<ele>442.109375</ele>
<time>2013-11-20T08:30:19Z</time>
<speed>0.260000</speed>
<extensions>
<speed>0.3</speed>
<temp>0.00</temp>
<bpm>0</bpm>
<rpm>0.00</rpm>
</extensions>
</trkpt>
<trkpt lat="30.961563110" lon="34.783161163">
<ele>441.992188</ele>
<time>2013-11-20T08:30:24Z</time>
<speed>0.020000</speed>
<extensions>
<speed>0.0</speed>
<temp>0.00</temp>
<bpm>0</bpm>
<rpm>0.00</rpm>
</extensions>
</trkpt>
<trkpt lat="30.961563110" lon="34.783161163">
<ele>441.953125</ele>
<time>2013-11-20T08:30:29Z</time>
<speed>0.090000</speed>
<extensions>
<speed>0.1</speed>
<temp>0.00</temp>
<bpm>0</bpm>
<rpm>0.00</rpm>
</extensions>
</trkpt>
<trkpt lat="30.961563110" lon="34.783161163">
<ele>441.976563</ele>
<time>2013-11-20T08:30:34Z</time>
<speed>0.050000</speed>
<extensions>
<speed>0.1</speed>
<temp>0.00</temp>
<bpm>0</bpm>
<rpm>0.00</rpm>
</extensions>
</trkpt>
<trkpt lat="30.961565018" lon="34.783161163">
<ele>441.976563</ele>
<time>2013-11-20T08:30:39Z</time>
<extensions>
<speed>0.0</speed>
<temp>0.00</temp>
<bpm>0</bpm>
<rpm>0.00</rpm>
</extensions>
</trkpt>
<trkpt lat="30.961565018" lon="34.783161163">
<ele>441.984375</ele>
<time>2013-11-20T08:30:44Z</time>
<speed>0.010000</speed>
<extensions>
<speed>0.0</speed>
<temp>0.00</temp>
<bpm>0</bpm>
<rpm>0.00</rpm>
</extensions>
</trkpt>
<trkpt lat="30.961557388" lon="34.783164978">
<ele>442.156250</ele>
<time>2013-11-20T08:30:49Z</time>
<speed>0.860000</speed>
<extensions>
<speed>0.9</speed>
<temp>0.00</temp>
<bpm>0</bpm>
<rpm>0.00</rpm>
</extensions>
</trkpt>
<trkpt lat="30.961536407" lon="34.783168793">
<ele>442.210938</ele>
<time>2013-11-20T08:30:54Z</time>
<speed>0.160000</speed>
<extensions>
<speed>0.2</speed>
<temp>0.00</temp>
<bpm>0</bpm>
<rpm>0.00</rpm>
</extensions>
</trkpt>
<trkpt lat="30.961521149" lon="34.783176422">
<ele>442.414063</ele>
<time>2013-11-20T08:30:59Z</time>
<speed>0.050000</speed>
<extensions>
<speed>0.1</speed>
<temp>0.00</temp>
<bpm>0</bpm>
<rpm>0.00</rpm>
</extensions>
</trkpt>
<trkpt lat="30.961483002" lon="34.783191681">
<ele>441.906250</ele>
<time>2013-11-20T08:31:04Z</time>
<speed>1.240000</speed>
<extensions>
<speed>1.2</speed>
<temp>0.00</temp>
<bpm>0</bpm>
<rpm>0.00</rpm>
</extensions>
</trkpt>
<trkpt lat="30.961416245" lon="34.783195496">
<ele>441.867188</ele>
<time>2013-11-20T08:31:09Z</time>
<speed>1.720000</speed>
<extensions>
<speed>1.7</speed>
<temp>0.00</temp>
<bpm>0</bpm>
<rpm>0.00</rpm>
</extensions>
</trkpt>
<trkpt lat="30.961345673" lon="34.783191681">
<ele>442.375000</ele>
<time>2013-11-20T08:31:14Z</time>
<speed>1.260000</speed>
<extensions>
<speed>1.3</speed>
<temp>0.00</temp>
<bpm>0</bpm>
<rpm>0.00</rpm>
</extensions>
</trkpt>
<trkpt lat="30.961290359" lon="34.783195496">
<ele>443.109375</ele>
<time>2013-11-20T08:31:19Z</time>
<speed>1.650000</speed>
<extensions>
<speed>1.7</speed>
<temp>0.00</temp>
<bpm>0</bpm>
<rpm>0.00</rpm>
</extensions>
</trkpt>
<trkpt lat="30.961219788" lon="34.783214569">
<ele>443.632813</ele>
<time>2013-11-20T08:31:24Z</time>
<speed>1.740000</speed>
<extensions>
<speed>1.7</speed>
<temp>0.00</temp>
<bpm>0</bpm>
<rpm>0.00</rpm>
</extensions>
</trkpt>
<trkpt lat="30.961133957" lon="34.783218384">
<ele>445.148438</ele>
<time>2013-11-20T08:31:29Z</time>
<speed>1.770000</speed>
<extensions>
<speed>1.8</speed>
<temp>0.00</temp>
<bpm>0</bpm>
<rpm>0.00</rpm>
</extensions>
</trkpt>
<trkpt lat="30.961040497" lon="34.783226013">
<ele>446.335938</ele>
<time>2013-11-20T08:31:34Z</time>
<speed>2.000000</speed>
<extensions>
<speed>2.0</speed>
<temp>0.00</temp>
<bpm>0</bpm>
<rpm>0.00</rpm>
</extensions>
</trkpt>
<trkpt lat="30.960975647" lon="34.783271790">
<ele>446.609375</ele>
<time>2013-11-20T08:31:39Z</time>
<speed>1.780000</speed>
<extensions>
<speed>1.8</speed>
<temp>0.00</temp>
<bpm>0</bpm>
<rpm>0.00</rpm>
</extensions>
</trkpt>
<trkpt lat="30.960943222" lon="34.783329010">
<ele>446.976563</ele>
<time>2013-11-20T08:31:44Z</time>
<speed>0.330000</speed>
<extensions>
<speed>0.3</speed>
<temp>0.00</temp>
<bpm>0</bpm>
<rpm>0.00</rpm>
</extensions>
</trkpt>
<trkpt lat="30.960937500" lon="34.783367157">
<ele>445.695313</ele>
<time>2013-11-20T08:31:49Z</time>
<speed>0.420000</speed>
<extensions>
<speed>0.4</speed>
<temp>0.00</temp>
<bpm>0</bpm>
<rpm>0.00</rpm>
</extensions>
</trkpt>
<trkpt lat="30.960908890" lon="34.783401489">
<ele>445.773438</ele>
<time>2013-11-20T08:31:54Z</time>
<speed>1.990000</speed>
<extensions>
<speed>2.0</speed>
<temp>0.00</temp>
<bpm>0</bpm>
<rpm>0.00</rpm>
</extensions>
</trkpt>
<trkpt lat="30.960830688" lon="34.783458710">
<ele>446.296875</ele>
<time>2013-11-20T08:31:59Z</time>
<speed>2.160000</speed>
<extensions>
<speed>2.2</speed>
<temp>0.00</temp>
<bpm>0</bpm>
<rpm>0.00</rpm>
</extensions>
</trkpt>
<trkpt lat="30.960680008" lon="34.783454895">
<ele>447.460938</ele>
<time>2013-11-20T08:32:04Z</time>
<speed>3.480000</speed>
<extensions>
<speed>3.5</speed>
<temp>0.00</temp>
<bpm>0</bpm>
<rpm>0.00</rpm>
</extensions>
</trkpt>
<trkpt lat="30.960517883" lon="34.783447266">
<ele>447.359375</ele>
<time>2013-11-20T08:32:09Z</time>
<speed>3.880000</speed>
<extensions>
<speed>3.9</speed>
<temp>0.00</temp>
<bpm>0</bpm>
<rpm>0.00</rpm>
</extensions>
</trkpt>
<trkpt lat="30.960359573" lon="34.783435822">
<ele>450.539063</ele>
<time>2013-11-20T08:32:14Z</time>
<speed>2.560000</speed>
<extensions>
<speed>2.6</speed>
<temp>0.00</temp>
<bpm>0</bpm>
<rpm>0.00</rpm>
</extensions>
</trkpt>
<trkpt lat="30.960235596" lon="34.783435822">
<ele>453.367188</ele>
<time>2013-11-20T08:32:19Z</time>
<speed>3.050000</speed>
<extensions>
<speed>3.0</speed>
<temp>0.00</temp>
<bpm>0</bpm>
<rpm>0.00</rpm>
</extensions>
</trkpt>
<trkpt lat="30.960107803" lon="34.783435822">
<ele>454.195313</ele>
<time>2013-11-20T08:32:24Z</time>
<speed>2.830000</speed>
<extensions>
<speed>2.8</speed>
<temp>0.00</temp>
<bpm>0</bpm>
<rpm>0.00</rpm>
</extensions>
</trkpt>
<trkpt lat="30.959976196" lon="34.783439636">
<ele>454.414063</ele>
<time>2013-11-20T08:32:29Z</time>
<speed>2.470000</speed>
<extensions>
<speed>2.5</speed>
<temp>0.00</temp>
<bpm>0</bpm>
<rpm>0.00</rpm>
</extensions>
</trkpt>
<trkpt lat="30.959865570" lon="34.783454895">
<ele>454.765625</ele>
<time>2013-11-20T08:32:34Z</time>
<speed>2.580000</speed>
<extensions>
<speed>2.6</speed>
<temp>0.00</temp>
<bpm>0</bpm>
<rpm>0.00</rpm>
</extensions>
</trkpt>
<trkpt lat="30.959753036" lon="34.783454895">
<ele>455.500000</ele>
<time>2013-11-20T08:32:39Z</time>
<speed>2.640000</speed>
<extensions>
<speed>2.6</speed>
<temp>0.00</temp>
<bpm>0</bpm>
<rpm>0.00</rpm>
</extensions>
</trkpt>
<trkpt lat="30.959627151" lon="34.783447266">
<ele>456.375000</ele>
<time>2013-11-20T08:32:44Z</time>
<speed>3.050000</speed>
<extensions>
<speed>3.0</speed>
<temp>0.00</temp>
<bpm>0</bpm>
<rpm>0.00</rpm>
</extensions>
</trkpt>
<trkpt lat="30.959478378" lon="34.783481598">
<ele>456.554688</ele>
<time>2013-11-20T08:32:49Z</time>
<speed>3.120000</speed>
<extensions>
<speed>3.1</speed>
<temp>0.00</temp>
<bpm>0</bpm>
<rpm>0.00</rpm>
</extensions>
</trkpt>
<trkpt lat="30.959379196" lon="34.783588409">
<ele>457.132813</ele>
<time>2013-11-20T08:32:54Z</time>
<speed>2.980000</speed>
<extensions>
<speed>3.0</speed>
<temp>0.00</temp>
<bpm>0</bpm>
<rpm>0.00</rpm>
</extensions>
</trkpt>
<trkpt lat="30.959306717" lon="34.783748627">
<ele>454.593750</ele>
<time>2013-11-20T08:32:59Z</time>
<speed>3.560000</speed>
<extensions>
<speed>3.6</speed>
<temp>0.00</temp>
<bpm>0</bpm>
<rpm>0.00</rpm>
</extensions>
</trkpt>
<trkpt lat="30.959241867" lon="34.783935547">
<ele>452.570313</ele>
<time>2013-11-20T08:33:04Z</time>
<speed>3.870000</speed>
<extensions>
<speed>3.9</speed>
<temp>0.00</temp>
<bpm>0</bpm>
<rpm>0.00</rpm>
</extensions>
</trkpt>
<trkpt lat="30.959117889" lon="34.784027100">
<ele>451.601563</ele>
<time>2013-11-20T08:33:09Z</time>
<speed>2.920000</speed>
<extensions>
<speed>2.9</speed>
<temp>0.00</temp>
<bpm>0</bpm>
<rpm>0.00</rpm>
</extensions>
</trkpt>
<trkpt lat="30.958986282" lon="34.783954620">
<ele>451.031250</ele>
<time>2013-11-20T08:33:14Z</time>
<speed>3.060000</speed>
<extensions>
<speed>3.1</speed>
<temp>0.00</temp>
<bpm>0</bpm>
<rpm>0.00</rpm>
</extensions>
</trkpt>
<trkpt lat="30.958826065" lon="34.783885956">
<ele>449.414063</ele>
<time>2013-11-20T08:33:19Z</time>
<speed>2.500000</speed>
<extensions>
<speed>2.5</speed>
<temp>0.00</temp>
<bpm>0</bpm>
<rpm>0.00</rpm>
</extensions>
</trkpt>
<trkpt lat="30.958703995" lon="34.783912659">
<ele>448.820313</ele>
<time>2013-11-20T08:33:24Z</time>
<speed>2.960000</speed>
<extensions>
<speed>3.0</speed>
<temp>0.00</temp>
<bpm>0</bpm>
<rpm>0.00</rpm>
</extensions>
</trkpt>
<trkpt lat="30.958580017" lon="34.784015656">
<ele>451.812500</ele>
<time>2013-11-20T08:33:29Z</time>
<speed>3.490000</speed>
<extensions>
<speed>3.5</speed>
<temp>0.00</temp>
<bpm>0</bpm>
<rpm>0.00</rpm>
</extensions>
</trkpt>
<trkpt lat="30.958438873" lon="34.784103394">
<ele>452.039063</ele>
<time>2013-11-20T08:33:34Z</time>
<speed>3.840000</speed>
<extensions>
<speed>3.8</speed>
<temp>0.00</temp>
<bpm>0</bpm>
<rpm>0.00</rpm>
</extensions>
</trkpt>
<trkpt lat="30.958290100" lon="34.784217834">
<ele>450.906250</ele>
<time>2013-11-20T08:33:39Z</time>
<speed>4.040000</speed>
<extensions>
<speed>4.0</speed>
<temp>0.00</temp>
<bpm>0</bpm>
<rpm>0.00</rpm>
</extensions>
</trkpt>
<trkpt lat="30.958124161" lon="34.784343719">
<ele>453.062500</ele>
<time>2013-11-20T08:33:44Z</time>
<speed>4.500000</speed>
<extensions>
<speed>4.5</speed>
<temp>0.00</temp>
<bpm>0</bpm>
<rpm>0.00</rpm>
</extensions>
</trkpt>
<trkpt lat="30.957942963" lon="34.784484863">
<ele>452.867188</ele>
<time>2013-11-20T08:33:49Z</time>
<speed>4.900000</speed>
<extensions>
<speed>4.9</speed>
<temp>0.00</temp>
<bpm>0</bpm>
<rpm>0.00</rpm>
</extensions>
</trkpt>
<trkpt lat="30.957756042" lon="34.784622192">
<ele>450.585938</ele>
<time>2013-11-20T08:33:54Z</time>
<speed>5.120000</speed>
<extensions>
<speed>5.1</speed>
<temp>0.00</temp>
<bpm>0</bpm>
<rpm>0.00</rpm>
</extensions>
</trkpt>
<trkpt lat="30.957561493" lon="34.784774780">
<ele>450.750000</ele>
<time>2013-11-20T08:33:59Z</time>
<speed>4.860000</speed>
<extensions>
<speed>4.9</speed>
<temp>0.00</temp>
<bpm>0</bpm>
<rpm>0.00</rpm>
</extensions>
</trkpt>
<trkpt lat="30.957422256" lon="34.784877777">
<ele>450.953125</ele>
<time>2013-11-20T08:34:04Z</time>
<speed>3.250000</speed>
<extensions>
<speed>3.2</speed>
<temp>0.00</temp>
<bpm>0</bpm>
<rpm>0.00</rpm>
</extensions>
</trkpt>
<trkpt lat="30.957275391" lon="34.784969330">
<ele>450.976563</ele>
<time>2013-11-20T08:34:09Z</time>
<speed>3.940000</speed>
<extensions>
<speed>3.9</speed>
<temp>0.00</temp>
<bpm>0</bpm>
<rpm>0.00</rpm>
</extensions>
</trkpt>
<trkpt lat="30.957118988" lon="34.785076141">
<ele>453.445313</ele>
<time>2013-11-20T08:34:14Z</time>
<speed>4.260000</speed>
<extensions>
<speed>4.3</speed>
<temp>0.00</temp>
<bpm>0</bpm>
<rpm>0.00</rpm>
</extensions>
</trkpt>
<trkpt lat="30.956979752" lon="34.785198212">
<ele>453.671875</ele>
<time>2013-11-20T08:34:19Z</time>
<speed>4.050000</speed>
<extensions>
<speed>4.0</speed>
<temp>0.00</temp>
<bpm>0</bpm>
<rpm>0.00</rpm>
</extensions>
</trkpt>
<trkpt lat="30.956789017" lon="34.785327911">
<ele>448.757813</ele>
<time>2013-11-20T08:34:24Z</time>
<speed>6.630000</speed>
<extensions>
<speed>6.6</speed>
<temp>0.00</temp>
<bpm>0</bpm>
<rpm>0.00</rpm>
</extensions>
</trkpt>
<trkpt lat="30.956605911" lon="34.785457611">
<ele>447.773438</ele>
<time>2013-11-20T08:34:29Z</time>
<speed>3.010000</speed>
<extensions>
<speed>3.0</speed>
<temp>0.00</temp>
<bpm>0</bpm>
<rpm>0.00</rpm>
</extensions>
</trkpt>
<trkpt lat="30.956499100" lon="34.785514832">
<ele>454.250000</ele>
<time>2013-11-20T08:34:34Z</time>
<speed>2.240000</speed>
<extensions>
<speed>2.2</speed>
<temp>0.00</temp>
<bpm>0</bpm>
<rpm>0.00</rpm>
</extensions>
</trkpt>
<trkpt lat="30.956384659" lon="34.785579681">
<ele>455.570313</ele>
<time>2013-11-20T08:34:39Z</time>
<speed>3.010000</speed>
<extensions>
<speed>3.0</speed>
<temp>0.00</temp>
<bpm>0</bpm>
<rpm>0.00</rpm>
</extensions>
</trkpt>
<trkpt lat="30.956287384" lon="34.785659790">
<ele>455.632813</ele>
<time>2013-11-20T08:34:44Z</time>
<speed>2.690000</speed>
<extensions>
<speed>2.7</speed>
<temp>0.00</temp>
<bpm>0</bpm>
<rpm>0.00</rpm>
</extensions>
</trkpt>
<trkpt lat="30.956165314" lon="34.785766602">
<ele>454.539063</ele>
<time>2013-11-20T08:34:49Z</time>
<speed>3.660000</speed>
<extensions>
<speed>3.7</speed>
<temp>0.00</temp>
<bpm>0</bpm>
<rpm>0.00</rpm>
</extensions>
</trkpt>
<trkpt lat="30.956027985" lon="34.785854340">
<ele>456.289063</ele>
<time>2013-11-20T08:34:54Z</time>
<speed>3.250000</speed>
<extensions>
<speed>3.2</speed>
<temp>0.00</temp>
<bpm>0</bpm>
<rpm>0.00</rpm>
</extensions>
</trkpt>
<trkpt lat="30.955881119" lon="34.785926819">
<ele>456.507813</ele>
<time>2013-11-20T08:34:59Z</time>
<speed>3.940000</speed>
<extensions>
<speed>3.9</speed>
<temp>0.00</temp>
<bpm>0</bpm>
<rpm>0.00</rpm>
</extensions>
</trkpt>
<trkpt lat="30.955724716" lon="34.786018372">
<ele>456.742188</ele>
<time>2013-11-20T08:35:04Z</time>
<speed>3.840000</speed>
<extensions>
<speed>3.8</speed>
<temp>0.00</temp>
<bpm>0</bpm>
<rpm>0.00</rpm>
</extensions>
</trkpt>
<trkpt lat="30.955574036" lon="34.786136627">
<ele>456.257813</ele>
<time>2013-11-20T08:35:09Z</time>
<speed>3.750000</speed>
<extensions>
<speed>3.8</speed>
<temp>0.00</temp>
<bpm>0</bpm>
<rpm>0.00</rpm>
</extensions>
</trkpt>
<trkpt lat="30.955415726" lon="34.786254883">
<ele>457.140625</ele>
<time>2013-11-20T08:35:14Z</time>
<speed>4.090000</speed>
<extensions>
<speed>4.1</speed>
<temp>0.00</temp>
<bpm>0</bpm>
<rpm>0.00</rpm>
</extensions>
</trkpt>
<trkpt lat="30.955263138" lon="34.786384583">
<ele>457.140625</ele>
<time>2013-11-20T08:35:19Z</time>
<speed>4.160000</speed>
<extensions>
<speed>4.2</speed>
<temp>0.00</temp>
<bpm>0</bpm>
<rpm>0.00</rpm>
</extensions>
</trkpt>
<trkpt lat="30.955095291" lon="34.786483765">
<ele>456.554688</ele>
<time>2013-11-20T08:35:24Z</time>
<speed>4.120000</speed>
<extensions>
<speed>4.1</speed>
<temp>0.00</temp>
<bpm>0</bpm>
<rpm>0.00</rpm>
</extensions>
</trkpt>
<trkpt lat="30.954923630" lon="34.786605835">
<ele>454.890625</ele>
<time>2013-11-20T08:35:29Z</time>
<speed>4.790000</speed>
<extensions>
<speed>4.8</speed>
<temp>0.00</temp>
<bpm>0</bpm>
<rpm>0.00</rpm>
</extensions>
</trkpt>
<trkpt lat="30.954744339" lon="34.786788940">
<ele>453.414063</ele>
<time>2013-11-20T08:35:34Z</time>
<speed>5.210000</speed>
<extensions>
<speed>5.2</speed>
<temp>0.00</temp>
<bpm>0</bpm>
<rpm>0.00</rpm>
</extensions>
</trkpt>
<trkpt lat="30.954568863" lon="34.786979675">
<ele>454.312500</ele>
<time>2013-11-20T08:35:39Z</time>
<speed>4.780000</speed>
<extensions>
<speed>4.8</speed>
<temp>0.00</temp>
<bpm>0</bpm>
<rpm>0.00</rpm>
</extensions>
</trkpt>
<trkpt lat="30.954381943" lon="34.787105560">
<ele>454.085938</ele>
<time>2013-11-20T08:35:44Z</time>
<speed>4.140000</speed>
<extensions>
<speed>4.1</speed>
<temp>0.00</temp>
<bpm>0</bpm>
<rpm>0.00</rpm>
</extensions>
</trkpt>
<trkpt lat="30.954223633" lon="34.787200928">
<ele>452.789063</ele>
<time>2013-11-20T08:35:49Z</time>
<speed>3.500000</speed>
<extensions>
<speed>3.5</speed>
<temp>0.00</temp>
<bpm>0</bpm>
<rpm>0.00</rpm>
</extensions>
</trkpt>
<trkpt lat="30.954088211" lon="34.787322998">
<ele>451.109375</ele>
<time>2013-11-20T08:35:54Z</time>
<speed>2.940000</speed>
<extensions>
<speed>2.9</speed>
<temp>0.00</temp>
<bpm>0</bpm>
<rpm>0.00</rpm>
</extensions>
</trkpt>
<trkpt lat="30.953969955" lon="34.787399292">
<ele>451.367188</ele>
<time>2013-11-20T08:35:59Z</time>
<speed>3.100000</speed>
<extensions>
<speed>3.1</speed>
<temp>0.00</temp>
<bpm>0</bpm>
<rpm>0.00</rpm>
</extensions>
</trkpt>
<trkpt lat="30.953851700" lon="34.787460327">
<ele>449.093750</ele>
<time>2013-11-20T08:36:04Z</time>
<speed>2.490000</speed>
<extensions>
<speed>2.5</speed>
<temp>0.00</temp>
<bpm>0</bpm>
<rpm>0.00</rpm>
</extensions>
</trkpt>
<trkpt lat="30.953756332" lon="34.787532806">
<ele>450.398438</ele>
<time>2013-11-20T08:36:09Z</time>
<speed>2.800000</speed>
<extensions>
<speed>2.8</speed>
<temp>0.00</temp>
<bpm>0</bpm>
<rpm>0.00</rpm>
</extensions>
</trkpt>
<trkpt lat="30.953666687" lon="34.787593842">
<ele>459.265625</ele>
<time>2013-11-20T08:36:14Z</time>
<speed>2.080000</speed>
<extensions>
<speed>2.1</speed>
<temp>0.00</temp>
<bpm>0</bpm>
<rpm>0.00</rpm>
</extensions>
</trkpt>
<trkpt lat="30.953582764" lon="34.787654877">
<ele>463.664063</ele>
<time>2013-11-20T08:36:19Z</time>
<speed>2.450000</speed>
<extensions>
<speed>2.4</speed>
<temp>0.00</temp>
<bpm>0</bpm>
<rpm>0.00</rpm>
</extensions>
</trkpt>
<trkpt lat="30.953485489" lon="34.787719727">
<ele>467.250000</ele>
<time>2013-11-20T08:36:24Z</time>
<speed>2.640000</speed>
<extensions>
<speed>2.6</speed>
<temp>0.00</temp>
<bpm>0</bpm>
<rpm>0.00</rpm>
</extensions>
</trkpt>
<trkpt lat="30.953374863" lon="34.787784576">
<ele>469.859375</ele>
<time>2013-11-20T08:36:29Z</time>
<speed>2.740000</speed>
<extensions>
<speed>2.7</speed>
<temp>0.00</temp>
<bpm>0</bpm>
<rpm>0.00</rpm>
</extensions>
</trkpt>
<trkpt lat="30.953258514" lon="34.787853241">
<ele>469.156250</ele>
<time>2013-11-20T08:36:34Z</time>
<speed>3.190000</speed>
<extensions>
<speed>3.2</speed>
<temp>0.00</temp>
<bpm>0</bpm>
<rpm>0.00</rpm>
</extensions>
</trkpt>
<trkpt lat="30.953113556" lon="34.787940979">
<ele>466.312500</ele>
<time>2013-11-20T08:36:39Z</time>
<speed>3.890000</speed>
<extensions>
<speed>3.9</speed>
<temp>0.00</temp>
<bpm>0</bpm>
<rpm>0.00</rpm>
</extensions>
</trkpt>
<trkpt lat="30.952960968" lon="34.788040161">
<ele>462.726563</ele>
<time>2013-11-20T08:36:44Z</time>
<speed>4.150000</speed>
<extensions>
<speed>4.1</speed>
<temp>0.00</temp>
<bpm>0</bpm>
<rpm>0.00</rpm>
</extensions>
</trkpt>
<trkpt lat="30.952791214" lon="34.788074493">
<ele>460.898438</ele>
<time>2013-11-20T08:36:49Z</time>
<speed>3.710000</speed>
<extensions>
<speed>3.7</speed>
<temp>0.00</temp>
<bpm>0</bpm>
<rpm>0.00</rpm>
</extensions>
</trkpt>
<trkpt lat="30.952672958" lon="34.788013458">
<ele>460.671875</ele>
<time>2013-11-20T08:36:54Z</time>
<speed>2.870000</speed>
<extensions>
<speed>2.9</speed>
<temp>0.00</temp>
<bpm>0</bpm>
<rpm>0.00</rpm>
</extensions>
</trkpt>
<trkpt lat="30.952529907" lon="34.788005829">
<ele>460.718750</ele>
<time>2013-11-20T08:36:59Z</time>
<speed>3.390000</speed>
<extensions>
<speed>3.4</speed>
<temp>0.00</temp>
<bpm>0</bpm>
<rpm>0.00</rpm>
</extensions>
</trkpt>
<trkpt lat="30.952388763" lon="34.788074493">
<ele>460.312500</ele>
<time>2013-11-20T08:37:04Z</time>
<speed>3.660000</speed>
<extensions>
<speed>3.7</speed>
<temp>0.00</temp>
<bpm>0</bpm>
<rpm>0.00</rpm>
</extensions>
</trkpt>
<trkpt lat="30.952301025" lon="34.788101196">
<ele>461.195313</ele>
<time>2013-11-20T08:37:09Z</time>
<speed>0.970000</speed>
<extensions>
<speed>1.0</speed>
<temp>0.00</temp>
<bpm>0</bpm>
<rpm>0.00</rpm>
</extensions>
</trkpt>
<trkpt lat="30.952278137" lon="34.788108826">
<ele>460.984375</ele>
<time>2013-11-20T08:37:14Z</time>
<speed>0.390000</speed>
<extensions>
<speed>0.4</speed>
<temp>0.00</temp>
<bpm>0</bpm>
<rpm>0.00</rpm>
</extensions>
</trkpt>
<trkpt lat="30.952253342" lon="34.788124084">
<ele>461.171875</ele>
<time>2013-11-20T08:37:19Z</time>
<speed>1.030000</speed>
<extensions>
<speed>1.0</speed>
<temp>0.00</temp>
<bpm>0</bpm>
<rpm>0.00</rpm>
</extensions>
</trkpt>
<trkpt lat="30.952226639" lon="34.788173676">
<ele>461.906250</ele>
<time>2013-11-20T08:37:24Z</time>
<speed>1.200000</speed>
<extensions>
<speed>1.2</speed>
<temp>0.00</temp>
<bpm>0</bpm>
<rpm>0.00</rpm>
</extensions>
</trkpt>
<trkpt lat="30.952182770" lon="34.788196564">
<ele>462.546875</ele>
<time>2013-11-20T08:37:29Z</time>
<speed>1.230000</speed>
<extensions>
<speed>1.2</speed>
<temp>0.00</temp>
<bpm>0</bpm>
<rpm>0.00</rpm>
</extensions>
</trkpt>
<trkpt lat="30.952144623" lon="34.788230896">
<ele>463.250000</ele>
<time>2013-11-20T08:37:34Z</time>
<speed>1.400000</speed>
<extensions>
<speed>1.4</speed>
<temp>0.00</temp>
<bpm>0</bpm>
<rpm>0.00</rpm>
</extensions>
</trkpt>
<trkpt lat="30.952100754" lon="34.788269043">
<ele>463.234375</ele>
<time>2013-11-20T08:37:39Z</time>
<speed>1.150000</speed>
<extensions>
<speed>1.1</speed>
<temp>0.00</temp>
<bpm>0</bpm>
<rpm>0.00</rpm>
</extensions>
</trkpt>
<trkpt lat="30.952085495" lon="34.788288116">
<ele>462.890625</ele>
<time>2013-11-20T08:37:44Z</time>
<speed>0.410000</speed>
<extensions>
<speed>0.4</speed>
<temp>0.00</temp>
<bpm>0</bpm>
<rpm>0.00</rpm>
</extensions>
</trkpt>
<trkpt lat="30.952028275" lon="34.788326263">
<ele>463.070313</ele>
<time>2013-11-20T08:37:49Z</time>
<speed>2.180000</speed>
<extensions>
<speed>2.2</speed>
<temp>0.00</temp>
<bpm>0</bpm>
<rpm>0.00</rpm>
</extensions>
</trkpt>
<trkpt lat="30.951934814" lon="34.788364410">
<ele>463.898438</ele>
<time>2013-11-20T08:37:54Z</time>
<speed>2.520000</speed>
<extensions>
<speed>2.5</speed>
<temp>0.00</temp>
<bpm>0</bpm>
<rpm>0.00</rpm>
</extensions>
</trkpt>
<trkpt lat="30.951820374" lon="34.788414001">
<ele>464.835938</ele>
<time>2013-11-20T08:37:59Z</time>
<speed>2.880000</speed>
<extensions>
<speed>2.9</speed>
<temp>0.00</temp>
<bpm>0</bpm>
<rpm>0.00</rpm>
</extensions>
</trkpt>
<trkpt lat="30.951707840" lon="34.788486481">
<ele>465.070313</ele>
<time>2013-11-20T08:38:04Z</time>
<speed>2.370000</speed>
<extensions>
<speed>2.4</speed>
<temp>0.00</temp>
<bpm>0</bpm>
<rpm>0.00</rpm>
</extensions>
</trkpt>
<trkpt lat="30.951593399" lon="34.788539886">
<ele>465.789063</ele>
<time>2013-11-20T08:38:09Z</time>
<speed>2.550000</speed>
<extensions>
<speed>2.6</speed>
<temp>0.00</temp>
<bpm>0</bpm>
<rpm>0.00</rpm>
</extensions>
</trkpt>
<trkpt lat="30.951475143" lon="34.788589478">
<ele>465.445313</ele>
<time>2013-11-20T08:38:14Z</time>
<speed>3.780000</speed>
<extensions>
<speed>3.8</speed>
<temp>0.00</temp>
<bpm>0</bpm>
<rpm>0.00</rpm>
</extensions>
</trkpt>
<trkpt lat="30.951286316" lon="34.788688660">
<ele>464.156250</ele>
<time>2013-11-20T08:38:19Z</time>
<speed>5.310000</speed>
<extensions>
<speed>5.3</speed>
<temp>0.00</temp>
<bpm>0</bpm>
<rpm>0.00</rpm>
</extensions>
</trkpt>
<trkpt lat="30.951078415" lon="34.788822174">
<ele>464.609375</ele>
<time>2013-11-20T08:38:24Z</time>
<speed>4.960000</speed>
<extensions>
<speed>5.0</speed>
<temp>0.00</temp>
<bpm>0</bpm>
<rpm>0.00</rpm>
</extensions>
</trkpt>
<trkpt lat="30.950872421" lon="34.788925171">
<ele>465.265625</ele>
<time>2013-11-20T08:38:29Z</time>
<speed>4.630000</speed>
<extensions>
<speed>4.6</speed>
<temp>0.00</temp>
<bpm>0</bpm>
<rpm>0.00</rpm>
</extensions>
</trkpt>
<trkpt lat="30.950731277" lon="34.789039612">
<ele>465.429688</ele>
<time>2013-11-20T08:38:34Z</time>
<speed>3.210000</speed>
<extensions>
<speed>3.2</speed>
<temp>0.00</temp>
<bpm>0</bpm>
<rpm>0.00</rpm>
</extensions>
</trkpt>
<trkpt lat="30.950620651" lon="34.789169312">
<ele>463.617188</ele>
<time>2013-11-20T08:38:39Z</time>
<speed>3.260000</speed>
<extensions>
<speed>3.3</speed>
<temp>0.00</temp>
<bpm>0</bpm>
<rpm>0.00</rpm>
</extensions>
</trkpt>
<trkpt lat="30.950546265" lon="34.789329529">
<ele>463.046875</ele>
<time>2013-11-20T08:38:44Z</time>
<speed>3.410000</speed>
<extensions>
<speed>3.4</speed>
<temp>0.00</temp>
<bpm>0</bpm>
<rpm>0.00</rpm>
</extensions>
</trkpt>
<trkpt lat="30.950521469" lon="34.789497375">
<ele>462.578125</ele>
<time>2013-11-20T08:38:49Z</time>
<speed>2.510000</speed>
<extensions>
<speed>2.5</speed>
<temp>0.00</temp>
<bpm>0</bpm>
<rpm>0.00</rpm>
</extensions>
</trkpt>
<trkpt lat="30.950500488" lon="34.789615631">
<ele>464.515625</ele>
<time>2013-11-20T08:38:54Z</time>
<speed>1.980000</speed>
<extensions>
<speed>2.0</speed>
<temp>0.00</temp>
<bpm>0</bpm>
<rpm>0.00</rpm>
</extensions>
</trkpt>
<trkpt lat="30.950466156" lon="34.789718628">
<ele>465.718750</ele>
<time>2013-11-20T08:38:59Z</time>
<speed>2.390000</speed>
<extensions>
<speed>2.4</speed>
<temp>0.00</temp>
<bpm>0</bpm>
<rpm>0.00</rpm>
</extensions>
</trkpt>
<trkpt lat="30.950389862" lon="34.789798737">
<ele>467.617188</ele>
<time>2013-11-20T08:39:04Z</time>
<speed>2.470000</speed>
<extensions>
<speed>2.5</speed>
<temp>0.00</temp>
<bpm>0</bpm>
<rpm>0.00</rpm>
</extensions>
</trkpt>
<trkpt lat="30.950300217" lon="34.789855957">
<ele>473.781250</ele>
<time>2013-11-20T08:39:09Z</time>
<speed>2.000000</speed>
<extensions>
<speed>2.0</speed>
<temp>0.00</temp>
<bpm>0</bpm>
<rpm>0.00</rpm>
</extensions>
</trkpt>
<trkpt lat="30.950197220" lon="34.789886475">
<ele>474.914063</ele>
<time>2013-11-20T08:39:14Z</time>
<speed>2.320000</speed>
<extensions>
<speed>2.3</speed>
<temp>0.00</temp>
<bpm>0</bpm>
<rpm>0.00</rpm>
</extensions>
</trkpt>
<trkpt lat="30.950082779" lon="34.789909363">
<ele>476.125000</ele>
<time>2013-11-20T08:39:19Z</time>
<speed>3.180000</speed>
<extensions>
<speed>3.2</speed>
<temp>0.00</temp>
<bpm>0</bpm>
<rpm>0.00</rpm>
</extensions>
</trkpt>
<trkpt lat="30.949949265" lon="34.789897919">
<ele>476.726563</ele>
<time>2013-11-20T08:39:24Z</time>
<speed>2.970000</speed>
<extensions>
<speed>3.0</speed>
<temp>0.00</temp>
<bpm>0</bpm>
<rpm>0.00</rpm>
</extensions>
</trkpt>
<trkpt lat="30.949796677" lon="34.789859772">
<ele>478.953125</ele>
<time>2013-11-20T08:39:29Z</time>
<speed>3.350000</speed>
<extensions>
<speed>3.4</speed>
<temp>0.00</temp>
<bpm>0</bpm>
<rpm>0.00</rpm>
</extensions>
</trkpt>
<trkpt lat="30.949636459" lon="34.789821625">
<ele>480.539063</ele>
<time>2013-11-20T08:39:34Z</time>
<speed>3.410000</speed>
<extensions>
<speed>3.4</speed>
<temp>0.00</temp>
<bpm>0</bpm>
<rpm>0.00</rpm>
</extensions>
</trkpt>
<trkpt lat="30.949466705" lon="34.789779663">
<ele>481.031250</ele>
<time>2013-11-20T08:39:39Z</time>
<speed>3.920000</speed>
<extensions>
<speed>3.9</speed>
<temp>0.00</temp>
<bpm>0</bpm>
<rpm>0.00</rpm>
</extensions>
</trkpt>
<trkpt lat="30.949275970" lon="34.789745331">
<ele>480.320313</ele>
<time>2013-11-20T08:39:44Z</time>
<speed>4.570000</speed>
<extensions>
<speed>4.6</speed>
<temp>0.00</temp>
<bpm>0</bpm>
<rpm>0.00</rpm>
</extensions>
</trkpt>
<trkpt lat="30.949073792" lon="34.789688110">
<ele>480.718750</ele>
<time>2013-11-20T08:39:49Z</time>
<speed>4.170000</speed>
<extensions>
<speed>4.2</speed>
<temp>0.00</temp>
<bpm>0</bpm>
<rpm>0.00</rpm>
</extensions>
</trkpt>
<trkpt lat="30.948904037" lon="34.789646149">
<ele>482.148438</ele>
<time>2013-11-20T08:39:54Z</time>
<speed>3.510000</speed>
<extensions>
<speed>3.5</speed>
<temp>0.00</temp>
<bpm>0</bpm>
<rpm>0.00</rpm>
</extensions>
</trkpt>
<trkpt lat="30.948734283" lon="34.789611816">
<ele>484.429688</ele>
<time>2013-11-20T08:39:59Z</time>
<speed>4.140000</speed>
<extensions>
<speed>4.1</speed>
<temp>0.00</temp>
<bpm>0</bpm>
<rpm>0.00</rpm>
</extensions>
</trkpt>
<trkpt lat="30.948572159" lon="34.789558411">
<ele>483.710938</ele>
<time>2013-11-20T08:40:04Z</time>
<speed>3.710000</speed>
<extensions>
<speed>3.7</speed>
<temp>0.00</temp>
<bpm>0</bpm>
<rpm>0.00</rpm>
</extensions>
</trkpt>
<trkpt lat="30.948413849" lon="34.789527893">
<ele>483.242188</ele>
<time>2013-11-20T08:40:09Z</time>
<speed>3.750000</speed>
<extensions>
<speed>3.8</speed>
<temp>0.00</temp>
<bpm>0</bpm>
<rpm>0.00</rpm>
</extensions>
</trkpt>
<trkpt lat="30.948282242" lon="34.789474487">
<ele>483.937500</ele>
<time>2013-11-20T08:40:14Z</time>
<speed>2.310000</speed>
<extensions>
<speed>2.3</speed>
<temp>0.00</temp>
<bpm>0</bpm>
<rpm>0.00</rpm>
</extensions>
</trkpt>
<trkpt lat="30.948181152" lon="34.789455414">
<ele>484.390625</ele>
<time>2013-11-20T08:40:19Z</time>
<speed>2.130000</speed>
<extensions>
<speed>2.1</speed>
<temp>0.00</temp>
<bpm>0</bpm>
<rpm>0.00</rpm>
</extensions>
</trkpt>
<trkpt lat="30.948097229" lon="34.789436340">
<ele>484.562500</ele>
<time>2013-11-20T08:40:24Z</time>
<speed>2.070000</speed>
<extensions>
<speed>2.1</speed>
<temp>0.00</temp>
<bpm>0</bpm>
<rpm>0.00</rpm>
</extensions>
</trkpt>
<trkpt lat="30.948013306" lon="34.789390564">
<ele>485.132813</ele>
<time>2013-11-20T08:40:29Z</time>
<speed>1.800000</speed>
<extensions>
<speed>1.8</speed>
<temp>0.00</temp>
<bpm>0</bpm>
<rpm>0.00</rpm>
</extensions>
</trkpt>
<trkpt lat="30.947942734" lon="34.789382935">
<ele>486.531250</ele>
<time>2013-11-20T08:40:34Z</time>
<speed>1.880000</speed>
<extensions>
<speed>1.9</speed>
<temp>0.00</temp>
<bpm>0</bpm>
<rpm>0.00</rpm>
</extensions>
</trkpt>
<trkpt lat="30.947860718" lon="34.789379120">
<ele>489.257813</ele>
<time>2013-11-20T08:40:39Z</time>
<speed>1.870000</speed>
<extensions>
<speed>1.9</speed>
<temp>0.00</temp>
<bpm>0</bpm>
<rpm>0.00</rpm>
</extensions>
</trkpt>
<trkpt lat="30.947780609" lon="34.789356232">
<ele>489.726563</ele>
<time>2013-11-20T08:40:44Z</time>
<speed>1.830000</speed>
<extensions>
<speed>1.8</speed>
<temp>0.00</temp>
<bpm>0</bpm>
<rpm>0.00</rpm>
</extensions>
</trkpt>
<trkpt lat="30.947685242" lon="34.789329529">
<ele>489.718750</ele>
<time>2013-11-20T08:40:49Z</time>
<speed>1.870000</speed>
<extensions>
<speed>1.9</speed>
<temp>0.00</temp>
<bpm>0</bpm>
<rpm>0.00</rpm>
</extensions>
</trkpt>
<trkpt lat="30.947603226" lon="34.789295197">
<ele>490.718750</ele>
<time>2013-11-20T08:40:54Z</time>
<speed>1.470000</speed>
<extensions>
<speed>1.5</speed>
<temp>0.00</temp>
<bpm>0</bpm>
<rpm>0.00</rpm>
</extensions>
</trkpt>
<trkpt lat="30.947525024" lon="34.789283752">
<ele>489.960938</ele>
<time>2013-11-20T08:40:59Z</time>
<speed>2.160000</speed>
<extensions>
<speed>2.2</speed>
<temp>0.00</temp>
<bpm>0</bpm>
<rpm>0.00</rpm>
</extensions>
</trkpt>
<trkpt lat="30.947444916" lon="34.789260864">
<ele>489.585938</ele>
<time>2013-11-20T08:41:04Z</time>
<speed>1.800000</speed>
<extensions>
<speed>1.8</speed>
<temp>0.00</temp>
<bpm>0</bpm>
<rpm>0.00</rpm>
</extensions>
</trkpt>
<trkpt lat="30.947359085" lon="34.789249420">
<ele>489.812500</ele>
<time>2013-11-20T08:41:09Z</time>
<speed>1.770000</speed>
<extensions>
<speed>1.8</speed>
<temp>0.00</temp>
<bpm>0</bpm>
<rpm>0.00</rpm>
</extensions>
</trkpt>
<trkpt lat="30.947286606" lon="34.789234161">
<ele>491.257813</ele>
<time>2013-11-20T08:41:14Z</time>
<speed>1.760000</speed>
<extensions>
<speed>1.8</speed>
<temp>0.00</temp>
<bpm>0</bpm>
<rpm>0.00</rpm>
</extensions>
</trkpt>
<trkpt lat="30.947208405" lon="34.789234161">
<ele>493.304688</ele>
<time>2013-11-20T08:41:19Z</time>
<speed>1.860000</speed>
<extensions>
<speed>1.9</speed>
<temp>0.00</temp>
<bpm>0</bpm>
<rpm>0.00</rpm>
</extensions>
</trkpt>
<trkpt lat="30.947134018" lon="34.789234161">
<ele>494.773438</ele>
<time>2013-11-20T08:41:24Z</time>
<speed>1.940000</speed>
<extensions>
<speed>1.9</speed>
<temp>0.00</temp>
<bpm>0</bpm>
<rpm>0.00</rpm>
</extensions>
</trkpt>
<trkpt lat="30.946994781" lon="34.789211273">
<ele>492.710938</ele>
<time>2013-11-20T08:41:29Z</time>
<speed>4.040000</speed>
<extensions>
<speed>4.0</speed>
<temp>0.00</temp>
<bpm>0</bpm>
<rpm>0.00</rpm>
</extensions>
</trkpt>
<trkpt lat="30.946731567" lon="34.789169312">
<ele>492.296875</ele>
<time>2013-11-20T08:41:34Z</time>
<speed>6.360000</speed>
<extensions>
<speed>6.4</speed>
<temp>0.00</temp>
<bpm>0</bpm>
<rpm>0.00</rpm>
</extensions>
</trkpt>
<trkpt lat="30.946542740" lon="34.789142609">
<ele>492.554688</ele>
<time>2013-11-20T08:41:39Z</time>
<speed>2.420000</speed>
<extensions>
<speed>2.4</speed>
<temp>0.00</temp>
<bpm>0</bpm>
<rpm>0.00</rpm>
</extensions>
</trkpt>
<trkpt lat="30.946455002" lon="34.789123535">
<ele>493.085938</ele>
<time>2013-11-20T08:41:44Z</time>
<speed>2.020000</speed>
<extensions>
<speed>2.0</speed>
<temp>0.00</temp>
<bpm>0</bpm>
<rpm>0.00</rpm>
</extensions>
</trkpt>
<trkpt lat="30.946407318" lon="34.789127350">
<ele>493.789063</ele>
<time>2013-11-20T08:41:49Z</time>
<speed>0.130000</speed>
<extensions>
<speed>0.1</speed>
<temp>0.00</temp>
<bpm>0</bpm>
<rpm>0.00</rpm>
</extensions>
</trkpt>
<trkpt lat="30.946409225" lon="34.789123535">
<ele>493.945313</ele>
<time>2013-11-20T08:41:54Z</time>
<speed>0.080000</speed>
<extensions>
<speed>0.1</speed>
<temp>0.00</temp>
<bpm>0</bpm>
<rpm>0.00</rpm>
</extensions>
</trkpt>
<trkpt lat="30.946407318" lon="34.789119720">
<ele>493.953125</ele>
<time>2013-11-20T08:41:59Z</time>
<speed>0.250000</speed>
<extensions>
<speed>0.2</speed>
<temp>0.00</temp>
<bpm>0</bpm>
<rpm>0.00</rpm>
</extensions>
</trkpt>
<trkpt lat="30.946411133" lon="34.789112091">
<ele>494.007813</ele>
<time>2013-11-20T08:42:04Z</time>
<speed>0.100000</speed>
<extensions>
<speed>0.1</speed>
<temp>0.00</temp>
<bpm>0</bpm>
<rpm>0.00</rpm>
</extensions>
</trkpt>
<trkpt lat="30.946405411" lon="34.789157867">
<ele>494.414063</ele>
<time>2013-11-20T08:42:09Z</time>
<speed>1.030000</speed>
<extensions>
<speed>1.0</speed>
<temp>0.00</temp>
<bpm>0</bpm>
<rpm>0.00</rpm>
</extensions>
</trkpt>
<trkpt lat="30.946393967" lon="34.789161682">
<ele>494.187500</ele>
<time>2013-11-20T08:42:14Z</time>
<extensions>
<speed>0.0</speed>
<temp>0.00</temp>
<bpm>0</bpm>
<rpm>0.00</rpm>
</extensions>
</trkpt>
<trkpt lat="30.946393967" lon="34.789161682">
<ele>494.156250</ele>
<time>2013-11-20T08:42:19Z</time>
<speed>0.260000</speed>
<extensions>
<speed>0.3</speed>
<temp>0.00</temp>
<bpm>0</bpm>
<rpm>0.00</rpm>
</extensions>
</trkpt>
<trkpt lat="30.946392059" lon="34.789161682">
<ele>494.093750</ele>
<time>2013-11-20T08:42:24Z</time>
<speed>0.010000</speed>
<extensions>
<speed>0.0</speed>
<temp>0.00</temp>
<bpm>0</bpm>
<rpm>0.00</rpm>
</extensions>
</trkpt>
<trkpt lat="30.946392059" lon="34.789161682">
<ele>494.093750</ele>
<time>2013-11-20T08:42:29Z</time>
<speed>0.010000</speed>
<extensions>
<speed>0.0</speed>
<temp>0.00</temp>
<bpm>0</bpm>
<rpm>0.00</rpm>
</extensions>
</trkpt>
<trkpt lat="30.946392059" lon="34.789161682">
<ele>494.101563</ele>
<time>2013-11-20T08:42:34Z</time>
<speed>0.010000</speed>
<extensions>
<speed>0.0</speed>
<temp>0.00</temp>
<bpm>0</bpm>
<rpm>0.00</rpm>
</extensions>
</trkpt>
<trkpt lat="30.946392059" lon="34.789161682">
<ele>494.101563</ele>
<time>2013-11-20T08:42:39Z</time>
<extensions>
<speed>0.0</speed>
<temp>0.00</temp>
<bpm>0</bpm>
<rpm>0.00</rpm>
</extensions>
</trkpt>
<trkpt lat="30.946392059" lon="34.789161682">
<ele>494.109375</ele>
<time>2013-11-20T08:42:44Z</time>
<extensions>
<speed>0.0</speed>
<temp>0.00</temp>
<bpm>0</bpm>
<rpm>0.00</rpm>
</extensions>
</trkpt>
<trkpt lat="30.946392059" lon="34.789161682">
<ele>494.109375</ele>
<time>2013-11-20T08:42:49Z</time>
<extensions>
<speed>0.0</speed>
<temp>0.00</temp>
<bpm>0</bpm>
<rpm>0.00</rpm>
</extensions>
</trkpt>
<trkpt lat="30.946392059" lon="34.789161682">
<ele>494.109375</ele>
<time>2013-11-20T08:42:54Z</time>
<extensions>
<speed>0.0</speed>
<temp>0.00</temp>
<bpm>0</bpm>
<rpm>0.00</rpm>
</extensions>
</trkpt>
<trkpt lat="30.946392059" lon="34.789161682">
<ele>494.109375</ele>
<time>2013-11-20T08:42:59Z</time>
<extensions>
<speed>0.0</speed>
<temp>0.00</temp>
<bpm>0</bpm>
<rpm>0.00</rpm>
</extensions>
</trkpt>
<trkpt lat="30.946392059" lon="34.789165497">
<ele>494.117188</ele>
<time>2013-11-20T08:43:04Z</time>
<extensions>
<speed>0.0</speed>
<temp>0.00</temp>
<bpm>0</bpm>
<rpm>0.00</rpm>
</extensions>
</trkpt>
<trkpt lat="30.946392059" lon="34.789165497">
<ele>494.125000</ele>
<time>2013-11-20T08:43:09Z</time>
<speed>0.010000</speed>
<extensions>
<speed>0.0</speed>
<temp>0.00</temp>
<bpm>0</bpm>
<rpm>0.00</rpm>
</extensions>
</trkpt>
<trkpt lat="30.946392059" lon="34.789165497">
<ele>494.132813</ele>
<time>2013-11-20T08:43:14Z</time>
<extensions>
<speed>0.0</speed>
<temp>0.00</temp>
<bpm>0</bpm>
<rpm>0.00</rpm>
</extensions>
</trkpt>
<trkpt lat="30.946392059" lon="34.789165497">
<ele>494.148438</ele>
<time>2013-11-20T08:43:19Z</time>
<extensions>
<speed>0.0</speed>
<temp>0.00</temp>
<bpm>0</bpm>
<rpm>0.00</rpm>
</extensions>
</trkpt>
<trkpt lat="30.946392059" lon="34.789165497">
<ele>494.164063</ele>
<time>2013-11-20T08:43:24Z</time>
<speed>0.040000</speed>
<extensions>
<speed>0.0</speed>
<temp>0.00</temp>
<bpm>0</bpm>
<rpm>0.00</rpm>
</extensions>
</trkpt>
<trkpt lat="30.946392059" lon="34.789165497">
<ele>494.156250</ele>
<time>2013-11-20T08:43:29Z</time>
<extensions>
<speed>0.0</speed>
<temp>0.00</temp>
<bpm>0</bpm>
<rpm>0.00</rpm>
</extensions>
</trkpt>
<trkpt lat="30.946393967" lon="34.789161682">
<ele>494.226563</ele>
<time>2013-11-20T08:43:34Z</time>
<speed>0.060000</speed>
<extensions>
<speed>0.1</speed>
<temp>0.00</temp>
<bpm>0</bpm>
<rpm>0.00</rpm>
</extensions>
</trkpt>
<trkpt lat="30.946393967" lon="34.789165497">
<ele>494.257813</ele>
<time>2013-11-20T08:43:39Z</time>
<extensions>
<speed>0.0</speed>
<temp>0.00</temp>
<bpm>0</bpm>
<rpm>0.00</rpm>
</extensions>
</trkpt>
<trkpt lat="30.946393967" lon="34.789165497">
<ele>494.257813</ele>
<time>2013-11-20T08:43:44Z</time>
<extensions>
<speed>0.0</speed>
<temp>0.00</temp>
<bpm>0</bpm>
<rpm>0.00</rpm>
</extensions>
</trkpt>
<trkpt lat="30.946395874" lon="34.789165497">
<ele>494.281250</ele>
<time>2013-11-20T08:43:49Z</time>
<extensions>
<speed>0.0</speed>
<temp>0.00</temp>
<bpm>0</bpm>
<rpm>0.00</rpm>
</extensions>
</trkpt>
<trkpt lat="30.946395874" lon="34.789165497">
<ele>494.296875</ele>
<time>2013-11-20T08:43:54Z</time>
<extensions>
<speed>0.0</speed>
<temp>0.00</temp>
<bpm>0</bpm>
<rpm>0.00</rpm>
</extensions>
</trkpt>
<trkpt lat="30.946395874" lon="34.789165497">
<ele>494.320313</ele>
<time>2013-11-20T08:43:59Z</time>
<speed>0.010000</speed>
<extensions>
<speed>0.0</speed>
<temp>0.00</temp>
<bpm>0</bpm>
<rpm>0.00</rpm>
</extensions>
</trkpt>
<trkpt lat="30.946395874" lon="34.789165497">
<ele>494.335938</ele>
<time>2013-11-20T08:44:04Z</time>
<extensions>
<speed>0.0</speed>
<temp>0.00</temp>
<bpm>0</bpm>
<rpm>0.00</rpm>
</extensions>
</trkpt>
<trkpt lat="30.946395874" lon="34.789165497">
<ele>494.359375</ele>
<time>2013-11-20T08:44:09Z</time>
<speed>0.010000</speed>
<extensions>
<speed>0.0</speed>
<temp>0.00</temp>
<bpm>0</bpm>
<rpm>0.00</rpm>
</extensions>
</trkpt>
<trkpt lat="30.946395874" lon="34.789165497">
<ele>494.367188</ele>
<time>2013-11-20T08:44:14Z</time>
<extensions>
<speed>0.0</speed>
<temp>0.00</temp>
<bpm>0</bpm>
<rpm>0.00</rpm>
</extensions>
</trkpt>
<trkpt lat="30.946395874" lon="34.789165497">
<ele>494.375000</ele>
<time>2013-11-20T08:44:19Z</time>
<speed>0.010000</speed>
<extensions>
<speed>0.0</speed>
<temp>0.00</temp>
<bpm>0</bpm>
<rpm>0.00</rpm>
</extensions>
</trkpt>
<trkpt lat="30.946395874" lon="34.789165497">
<ele>494.382813</ele>
<time>2013-11-20T08:44:24Z</time>
<speed>0.010000</speed>
<extensions>
<speed>0.0</speed>
<temp>0.00</temp>
<bpm>0</bpm>
<rpm>0.00</rpm>
</extensions>
</trkpt>
<trkpt lat="30.946395874" lon="34.789165497">
<ele>494.382813</ele>
<time>2013-11-20T08:44:29Z</time>
<speed>0.020000</speed>
<extensions>
<speed>0.0</speed>
<temp>0.00</temp>
<bpm>0</bpm>
<rpm>0.00</rpm>
</extensions>
</trkpt>
<trkpt lat="30.946395874" lon="34.789165497">
<ele>494.398438</ele>
<time>2013-11-20T08:44:34Z</time>
<speed>0.010000</speed>
<extensions>
<speed>0.0</speed>
<temp>0.00</temp>
<bpm>0</bpm>
<rpm>0.00</rpm>
</extensions>
</trkpt>
<trkpt lat="30.946395874" lon="34.789165497">
<ele>494.406250</ele>
<time>2013-11-20T08:44:39Z</time>
<speed>0.010000</speed>
<extensions>
<speed>0.0</speed>
<temp>0.00</temp>
<bpm>0</bpm>
<rpm>0.00</rpm>
</extensions>
</trkpt>
<trkpt lat="30.946397781" lon="34.789165497">
<ele>494.406250</ele>
<time>2013-11-20T08:44:44Z</time>
<speed>0.010000</speed>
<extensions>
<speed>0.0</speed>
<temp>0.00</temp>
<bpm>0</bpm>
<rpm>0.00</rpm>
</extensions>
</trkpt>
<trkpt lat="30.946397781" lon="34.789165497">
<ele>494.390625</ele>
<time>2013-11-20T08:44:49Z</time>
<speed>0.080000</speed>
<extensions>
<speed>0.1</speed>
<temp>0.00</temp>
<bpm>0</bpm>
<rpm>0.00</rpm>
</extensions>
</trkpt>
<trkpt lat="30.946397781" lon="34.789169312">
<ele>494.390625</ele>
<time>2013-11-20T08:44:54Z</time>
<speed>0.010000</speed>
<extensions>
<speed>0.0</speed>
<temp>0.00</temp>
<bpm>0</bpm>
<rpm>0.00</rpm>
</extensions>
</trkpt>
<trkpt lat="30.946397781" lon="34.789169312">
<ele>494.398438</ele>
<time>2013-11-20T08:44:59Z</time>
<speed>0.010000</speed>
<extensions>
<speed>0.0</speed>
<temp>0.00</temp>
<bpm>0</bpm>
<rpm>0.00</rpm>
</extensions>
</trkpt>
<trkpt lat="30.946397781" lon="34.789169312">
<ele>494.390625</ele>
<time>2013-11-20T08:45:04Z</time>
<speed>0.010000</speed>
<extensions>
<speed>0.0</speed>
<temp>0.00</temp>
<bpm>0</bpm>
<rpm>0.00</rpm>
</extensions>
</trkpt>
<trkpt lat="30.946397781" lon="34.789169312">
<ele>494.382813</ele>
<time>2013-11-20T08:45:09Z</time>
<extensions>
<speed>0.0</speed>
<temp>0.00</temp>
<bpm>0</bpm>
<rpm>0.00</rpm>
</extensions>
</trkpt>
<trkpt lat="30.946397781" lon="34.789169312">
<ele>494.367188</ele>
<time>2013-11-20T08:45:14Z</time>
<extensions>
<speed>0.0</speed>
<temp>0.00</temp>
<bpm>0</bpm>
<rpm>0.00</rpm>
</extensions>
</trkpt>
<trkpt lat="30.946397781" lon="34.789169312">
<ele>494.382813</ele>
<time>2013-11-20T08:45:19Z</time>
<extensions>
<speed>0.0</speed>
<temp>0.00</temp>
<bpm>0</bpm>
<rpm>0.00</rpm>
</extensions>
</trkpt>
<trkpt lat="30.946397781" lon="34.789169312">
<ele>494.390625</ele>
<time>2013-11-20T08:45:24Z</time>
<extensions>
<speed>0.0</speed>
<temp>0.00</temp>
<bpm>0</bpm>
<rpm>0.00</rpm>
</extensions>
</trkpt>
<trkpt lat="30.946397781" lon="34.789169312">
<ele>494.375000</ele>
<time>2013-11-20T08:45:29Z</time>
<extensions>
<speed>0.0</speed>
<temp>0.00</temp>
<bpm>0</bpm>
<rpm>0.00</rpm>
</extensions>
</trkpt>
<trkpt lat="30.946397781" lon="34.789169312">
<ele>494.382813</ele>
<time>2013-11-20T08:45:34Z</time>
<extensions>
<speed>0.0</speed>
<temp>0.00</temp>
<bpm>0</bpm>
<rpm>0.00</rpm>
</extensions>
</trkpt>
<trkpt lat="30.946397781" lon="34.789169312">
<ele>494.375000</ele>
<time>2013-11-20T08:45:39Z</time>
<speed>0.020000</speed>
<extensions>
<speed>0.0</speed>
<temp>0.00</temp>
<bpm>0</bpm>
<rpm>0.00</rpm>
</extensions>
</trkpt>
<trkpt lat="30.946397781" lon="34.789169312">
<ele>494.351563</ele>
<time>2013-11-20T08:45:44Z</time>
<speed>0.010000</speed>
<extensions>
<speed>0.0</speed>
<temp>0.00</temp>
<bpm>0</bpm>
<rpm>0.00</rpm>
</extensions>
</trkpt>
<trkpt lat="30.946397781" lon="34.789169312">
<ele>494.312500</ele>
<time>2013-11-20T08:45:49Z</time>
<extensions>
<speed>0.0</speed>
<temp>0.00</temp>
<bpm>0</bpm>
<rpm>0.00</rpm>
</extensions>
</trkpt>
<trkpt lat="30.946397781" lon="34.789169312">
<ele>494.281250</ele>
<time>2013-11-20T08:45:54Z</time>
<extensions>
<speed>0.0</speed>
<temp>0.00</temp>
<bpm>0</bpm>
<rpm>0.00</rpm>
</extensions>
</trkpt>
<trkpt lat="30.946397781" lon="34.789169312">
<ele>494.234375</ele>
<time>2013-11-20T08:45:59Z</time>
<extensions>
<speed>0.0</speed>
<temp>0.00</temp>
<bpm>0</bpm>
<rpm>0.00</rpm>
</extensions>
</trkpt>
<trkpt lat="30.946397781" lon="34.789169312">
<ele>494.203125</ele>
<time>2013-11-20T08:46:04Z</time>
<extensions>
<speed>0.0</speed>
<temp>0.00</temp>
<bpm>0</bpm>
<rpm>0.00</rpm>
</extensions>
</trkpt>
<trkpt lat="30.946397781" lon="34.789169312">
<ele>494.171875</ele>
<time>2013-11-20T08:46:09Z</time>
<speed>0.010000</speed>
<extensions>
<speed>0.0</speed>
<temp>0.00</temp>
<bpm>0</bpm>
<rpm>0.00</rpm>
</extensions>
</trkpt>
<trkpt lat="30.946397781" lon="34.789169312">
<ele>494.132813</ele>
<time>2013-11-20T08:46:14Z</time>
<extensions>
<speed>0.0</speed>
<temp>0.00</temp>
<bpm>0</bpm>
<rpm>0.00</rpm>
</extensions>
</trkpt>
<trkpt lat="30.946397781" lon="34.789169312">
<ele>494.093750</ele>
<time>2013-11-20T08:46:19Z</time>
<extensions>
<speed>0.0</speed>
<temp>0.00</temp>
<bpm>0</bpm>
<rpm>0.00</rpm>
</extensions>
</trkpt>
<trkpt lat="30.946397781" lon="34.789169312">
<ele>494.062500</ele>
<time>2013-11-20T08:46:24Z</time>
<extensions>
<speed>0.0</speed>
<temp>0.00</temp>
<bpm>0</bpm>
<rpm>0.00</rpm>
</extensions>
</trkpt>
<trkpt lat="30.946397781" lon="34.789169312">
<ele>494.015625</ele>
<time>2013-11-20T08:46:29Z</time>
<extensions>
<speed>0.0</speed>
<temp>0.00</temp>
<bpm>0</bpm>
<rpm>0.00</rpm>
</extensions>
</trkpt>
<trkpt lat="30.946397781" lon="34.789169312">
<ele>493.992188</ele>
<time>2013-11-20T08:46:34Z</time>
<extensions>
<speed>0.0</speed>
<temp>0.00</temp>
<bpm>0</bpm>
<rpm>0.00</rpm>
</extensions>
</trkpt>
<trkpt lat="30.946397781" lon="34.789169312">
<ele>493.953125</ele>
<time>2013-11-20T08:46:39Z</time>
<extensions>
<speed>0.0</speed>
<temp>0.00</temp>
<bpm>0</bpm>
<rpm>0.00</rpm>
</extensions>
</trkpt>
<trkpt lat="30.946397781" lon="34.789169312">
<ele>493.906250</ele>
<time>2013-11-20T08:46:44Z</time>
<speed>0.010000</speed>
<extensions>
<speed>0.0</speed>
<temp>0.00</temp>
<bpm>0</bpm>
<rpm>0.00</rpm>
</extensions>
</trkpt>
<trkpt lat="30.946397781" lon="34.789169312">
<ele>493.890625</ele>
<time>2013-11-20T08:46:49Z</time>
<extensions>
<speed>0.0</speed>
<temp>0.00</temp>
<bpm>0</bpm>
<rpm>0.00</rpm>
</extensions>
</trkpt>
<trkpt lat="30.946397781" lon="34.789169312">
<ele>493.851563</ele>
<time>2013-11-20T08:46:54Z</time>
<extensions>
<speed>0.0</speed>
<temp>0.00</temp>
<bpm>0</bpm>
<rpm>0.00</rpm>
</extensions>
</trkpt>
<trkpt lat="30.946397781" lon="34.789169312">
<ele>493.828125</ele>
<time>2013-11-20T08:46:59Z</time>
<extensions>
<speed>0.0</speed>
<temp>0.00</temp>
<bpm>0</bpm>
<rpm>0.00</rpm>
</extensions>
</trkpt>
<trkpt lat="30.946397781" lon="34.789169312">
<ele>493.773438</ele>
<time>2013-11-20T08:47:04Z</time>
<extensions>
<speed>0.0</speed>
<temp>0.00</temp>
<bpm>0</bpm>
<rpm>0.00</rpm>
</extensions>
</trkpt>
<trkpt lat="30.946397781" lon="34.789169312">
<ele>493.750000</ele>
<time>2013-11-20T08:47:09Z</time>
<speed>0.010000</speed>
<extensions>
<speed>0.0</speed>
<temp>0.00</temp>
<bpm>0</bpm>
<rpm>0.00</rpm>
</extensions>
</trkpt>
<trkpt lat="30.946397781" lon="34.789169312">
<ele>493.710938</ele>
<time>2013-11-20T08:47:14Z</time>
<extensions>
<speed>0.0</speed>
<temp>0.00</temp>
<bpm>0</bpm>
<rpm>0.00</rpm>
</extensions>
</trkpt>
<trkpt lat="30.946397781" lon="34.789169312">
<ele>493.679688</ele>
<time>2013-11-20T08:47:19Z</time>
<speed>0.010000</speed>
<extensions>
<speed>0.0</speed>
<temp>0.00</temp>
<bpm>0</bpm>
<rpm>0.00</rpm>
</extensions>
</trkpt>
<trkpt lat="30.946395874" lon="34.789169312">
<ele>493.648438</ele>
<time>2013-11-20T08:47:24Z</time>
<extensions>
<speed>0.0</speed>
<temp>0.00</temp>
<bpm>0</bpm>
<rpm>0.00</rpm>
</extensions>
</trkpt>
<trkpt lat="30.946395874" lon="34.789169312">
<ele>493.617188</ele>
<time>2013-11-20T08:47:29Z</time>
<extensions>
<speed>0.0</speed>
<temp>0.00</temp>
<bpm>0</bpm>
<rpm>0.00</rpm>
</extensions>
</trkpt>
<trkpt lat="30.946395874" lon="34.789169312">
<ele>493.570313</ele>
<time>2013-11-20T08:47:34Z</time>
<extensions>
<speed>0.0</speed>
<temp>0.00</temp>
<bpm>0</bpm>
<rpm>0.00</rpm>
</extensions>
</trkpt>
<trkpt lat="30.946395874" lon="34.789169312">
<ele>493.531250</ele>
<time>2013-11-20T08:47:39Z</time>
<extensions>
<speed>0.0</speed>
<temp>0.00</temp>
<bpm>0</bpm>
<rpm>0.00</rpm>
</extensions>
</trkpt>
<trkpt lat="30.946395874" lon="34.789169312">
<ele>493.484375</ele>
<time>2013-11-20T08:47:44Z</time>
<extensions>
<speed>0.0</speed>
<temp>0.00</temp>
<bpm>0</bpm>
<rpm>0.00</rpm>
</extensions>
</trkpt>
<trkpt lat="30.946395874" lon="34.789169312">
<ele>493.437500</ele>
<time>2013-11-20T08:47:49Z</time>
<extensions>
<speed>0.0</speed>
<temp>0.00</temp>
<bpm>0</bpm>
<rpm>0.00</rpm>
</extensions>
</trkpt>
<trkpt lat="30.946395874" lon="34.789169312">
<ele>493.390625</ele>
<time>2013-11-20T08:47:54Z</time>
<extensions>
<speed>0.0</speed>
<temp>0.00</temp>
<bpm>0</bpm>
<rpm>0.00</rpm>
</extensions>
</trkpt>
<trkpt lat="30.946395874" lon="34.789169312">
<ele>493.351563</ele>
<time>2013-11-20T08:47:59Z</time>
<speed>0.010000</speed>
<extensions>
<speed>0.0</speed>
<temp>0.00</temp>
<bpm>0</bpm>
<rpm>0.00</rpm>
</extensions>
</trkpt>
<trkpt lat="30.946395874" lon="34.789169312">
<ele>493.296875</ele>
<time>2013-11-20T08:48:04Z</time>
<extensions>
<speed>0.0</speed>
<temp>0.00</temp>
<bpm>0</bpm>
<rpm>0.00</rpm>
</extensions>
</trkpt>
<trkpt lat="30.946395874" lon="34.789169312">
<ele>493.257813</ele>
<time>2013-11-20T08:48:09Z</time>
<extensions>
<speed>0.0</speed>
<temp>0.00</temp>
<bpm>0</bpm>
<rpm>0.00</rpm>
</extensions>
</trkpt>
<trkpt lat="30.946395874" lon="34.789169312">
<ele>493.195313</ele>
<time>2013-11-20T08:48:14Z</time>
<speed>0.010000</speed>
<extensions>
<speed>0.0</speed>
<temp>0.00</temp>
<bpm>0</bpm>
<rpm>0.00</rpm>
</extensions>
</trkpt>
<trkpt lat="30.946395874" lon="34.789169312">
<ele>493.148438</ele>
<time>2013-11-20T08:48:19Z</time>
<speed>0.010000</speed>
<extensions>
<speed>0.0</speed>
<temp>0.00</temp>
<bpm>0</bpm>
<rpm>0.00</rpm>
</extensions>
</trkpt>
<trkpt lat="30.946395874" lon="34.789169312">
<ele>493.109375</ele>
<time>2013-11-20T08:48:24Z</time>
<extensions>
<speed>0.0</speed>
<temp>0.00</temp>
<bpm>0</bpm>
<rpm>0.00</rpm>
</extensions>
</trkpt>
<trkpt lat="30.946395874" lon="34.789169312">
<ele>493.054688</ele>
<time>2013-11-20T08:48:29Z</time>
<extensions>
<speed>0.0</speed>
<temp>0.00</temp>
<bpm>0</bpm>
<rpm>0.00</rpm>
</extensions>
</trkpt>
<trkpt lat="30.946395874" lon="34.789169312">
<ele>493.015625</ele>
<time>2013-11-20T08:48:34Z</time>
<speed>0.010000</speed>
<extensions>
<speed>0.0</speed>
<temp>0.00</temp>
<bpm>0</bpm>
<rpm>0.00</rpm>
</extensions>
</trkpt>
<trkpt lat="30.946395874" lon="34.789169312">
<ele>492.960938</ele>
<time>2013-11-20T08:48:39Z</time>
<extensions>
<speed>0.0</speed>
<temp>0.00</temp>
<bpm>0</bpm>
<rpm>0.00</rpm>
</extensions>
</trkpt>
<trkpt lat="30.946395874" lon="34.789169312">
<ele>492.921875</ele>
<time>2013-11-20T08:48:44Z</time>
<extensions>
<speed>0.0</speed>
<temp>0.00</temp>
<bpm>0</bpm>
<rpm>0.00</rpm>
</extensions>
</trkpt>
<trkpt lat="30.946393967" lon="34.789169312">
<ele>492.875000</ele>
<time>2013-11-20T08:48:49Z</time>
<extensions>
<speed>0.0</speed>
<temp>0.00</temp>
<bpm>0</bpm>
<rpm>0.00</rpm>
</extensions>
</trkpt>
<trkpt lat="30.946393967" lon="34.789169312">
<ele>492.828125</ele>
<time>2013-11-20T08:48:54Z</time>
<extensions>
<speed>0.0</speed>
<temp>0.00</temp>
<bpm>0</bpm>
<rpm>0.00</rpm>
</extensions>
</trkpt>
<trkpt lat="30.946393967" lon="34.789165497">
<ele>492.796875</ele>
<time>2013-11-20T08:48:59Z</time>
<extensions>
<speed>0.0</speed>
<temp>0.00</temp>
<bpm>0</bpm>
<rpm>0.00</rpm>
</extensions>
</trkpt>
<trkpt lat="30.946393967" lon="34.789165497">
<ele>492.750000</ele>
<time>2013-11-20T08:49:04Z</time>
<speed>0.010000</speed>
<extensions>
<speed>0.0</speed>
<temp>0.00</temp>
<bpm>0</bpm>
<rpm>0.00</rpm>
</extensions>
</trkpt>
<trkpt lat="30.946393967" lon="34.789165497">
<ele>492.695313</ele>
<time>2013-11-20T08:49:09Z</time>
<extensions>
<speed>0.0</speed>
<temp>0.00</temp>
<bpm>0</bpm>
<rpm>0.00</rpm>
</extensions>
</trkpt>
<trkpt lat="30.946393967" lon="34.789165497">
<ele>492.648438</ele>
<time>2013-11-20T08:49:14Z</time>
<extensions>
<speed>0.0</speed>
<temp>0.00</temp>
<bpm>0</bpm>
<rpm>0.00</rpm>
</extensions>
</trkpt>
<trkpt lat="30.946393967" lon="34.789165497">
<ele>492.570313</ele>
<time>2013-11-20T08:49:19Z</time>
<extensions>
<speed>0.0</speed>
<temp>0.00</temp>
<bpm>0</bpm>
<rpm>0.00</rpm>
</extensions>
</trkpt>
<trkpt lat="30.946393967" lon="34.789165497">
<ele>492.546875</ele>
<time>2013-11-20T08:49:24Z</time>
<extensions>
<speed>0.0</speed>
<temp>0.00</temp>
<bpm>0</bpm>
<rpm>0.00</rpm>
</extensions>
</trkpt>
<trkpt lat="30.946393967" lon="34.789165497">
<ele>492.507813</ele>
<time>2013-11-20T08:49:29Z</time>
<extensions>
<speed>0.0</speed>
<temp>0.00</temp>
<bpm>0</bpm>
<rpm>0.00</rpm>
</extensions>
</trkpt>
<trkpt lat="30.946393967" lon="34.789165497">
<ele>492.476563</ele>
<time>2013-11-20T08:49:34Z</time>
<extensions>
<speed>0.0</speed>
<temp>0.00</temp>
<bpm>0</bpm>
<rpm>0.00</rpm>
</extensions>
</trkpt>
<trkpt lat="30.946393967" lon="34.789165497">
<ele>492.421875</ele>
<time>2013-11-20T08:49:39Z</time>
<extensions>
<speed>0.0</speed>
<temp>0.00</temp>
<bpm>0</bpm>
<rpm>0.00</rpm>
</extensions>
</trkpt>
<trkpt lat="30.946393967" lon="34.789165497">
<ele>492.382813</ele>
<time>2013-11-20T08:49:44Z</time>
<extensions>
<speed>0.0</speed>
<temp>0.00</temp>
<bpm>0</bpm>
<rpm>0.00</rpm>
</extensions>
</trkpt>
<trkpt lat="30.946393967" lon="34.789165497">
<ele>492.335938</ele>
<time>2013-11-20T08:49:49Z</time>
<extensions>
<speed>0.0</speed>
<temp>0.00</temp>
<bpm>0</bpm>
<rpm>0.00</rpm>
</extensions>
</trkpt>
<trkpt lat="30.946393967" lon="34.789165497">
<ele>492.281250</ele>
<time>2013-11-20T08:49:54Z</time>
<speed>0.010000</speed>
<extensions>
<speed>0.0</speed>
<temp>0.00</temp>
<bpm>0</bpm>
<rpm>0.00</rpm>
</extensions>
</trkpt>
<trkpt lat="30.946393967" lon="34.789165497">
<ele>492.242188</ele>
<time>2013-11-20T08:49:59Z</time>
<extensions>
<speed>0.0</speed>
<temp>0.00</temp>
<bpm>0</bpm>
<rpm>0.00</rpm>
</extensions>
</trkpt>
<trkpt lat="30.946393967" lon="34.789165497">
<ele>492.195313</ele>
<time>2013-11-20T08:50:04Z</time>
<extensions>
<speed>0.0</speed>
<temp>0.00</temp>
<bpm>0</bpm>
<rpm>0.00</rpm>
</extensions>
</trkpt>
<trkpt lat="30.946393967" lon="34.789165497">
<ele>492.164063</ele>
<time>2013-11-20T08:50:09Z</time>
<speed>0.140000</speed>
<extensions>
<speed>0.1</speed>
<temp>0.00</temp>
<bpm>0</bpm>
<rpm>0.00</rpm>
</extensions>
</trkpt>
<trkpt lat="30.946393967" lon="34.789165497">
<ele>492.109375</ele>
<time>2013-11-20T08:50:14Z</time>
<extensions>
<speed>0.0</speed>
<temp>0.00</temp>
<bpm>0</bpm>
<rpm>0.00</rpm>
</extensions>
</trkpt>
<trkpt lat="30.946393967" lon="34.789165497">
<ele>492.085938</ele>
<time>2013-11-20T08:50:19Z</time>
<speed>0.020000</speed>
<extensions>
<speed>0.0</speed>
<temp>0.00</temp>
<bpm>0</bpm>
<rpm>0.00</rpm>
</extensions>
</trkpt>
<trkpt lat="30.946393967" lon="34.789165497">
<ele>492.046875</ele>
<time>2013-11-20T08:50:24Z</time>
<speed>0.030000</speed>
<extensions>
<speed>0.0</speed>
<temp>0.00</temp>
<bpm>0</bpm>
<rpm>0.00</rpm>
</extensions>
</trkpt>
<trkpt lat="30.946392059" lon="34.789165497">
<ele>492.023438</ele>
<time>2013-11-20T08:50:29Z</time>
<extensions>
<speed>0.0</speed>
<temp>0.00</temp>
<bpm>0</bpm>
<rpm>0.00</rpm>
</extensions>
</trkpt>
<trkpt lat="30.946392059" lon="34.789165497">
<ele>491.976563</ele>
<time>2013-11-20T08:50:34Z</time>
<extensions>
<speed>0.0</speed>
<temp>0.00</temp>
<bpm>0</bpm>
<rpm>0.00</rpm>
</extensions>
</trkpt>
<trkpt lat="30.946392059" lon="34.789165497">
<ele>491.921875</ele>
<time>2013-11-20T08:50:39Z</time>
<extensions>
<speed>0.0</speed>
<temp>0.00</temp>
<bpm>0</bpm>
<rpm>0.00</rpm>
</extensions>
</trkpt>
<trkpt lat="30.946392059" lon="34.789165497">
<ele>491.835938</ele>
<time>2013-11-20T08:50:44Z</time>
<speed>0.060000</speed>
<extensions>
<speed>0.1</speed>
<temp>0.00</temp>
<bpm>0</bpm>
<rpm>0.00</rpm>
</extensions>
</trkpt>
<trkpt lat="30.946384430" lon="34.789146423">
<ele>491.039063</ele>
<time>2013-11-20T08:50:49Z</time>
<speed>0.260000</speed>
<extensions>
<speed>0.3</speed>
<temp>0.00</temp>
<bpm>0</bpm>
<rpm>0.00</rpm>
</extensions>
</trkpt>
<trkpt lat="30.946346283" lon="34.789115906">
<ele>489.898438</ele>
<time>2013-11-20T08:50:54Z</time>
<speed>2.250000</speed>
<extensions>
<speed>2.3</speed>
<temp>0.00</temp>
<bpm>0</bpm>
<rpm>0.00</rpm>
</extensions>
</trkpt>
<trkpt lat="30.946220398" lon="34.789089203">
<ele>488.414063</ele>
<time>2013-11-20T08:50:59Z</time>
<speed>3.370000</speed>
<extensions>
<speed>3.4</speed>
<temp>0.00</temp>
<bpm>0</bpm>
<rpm>0.00</rpm>
</extensions>
</trkpt>
<trkpt lat="30.946014404" lon="34.789035797">
<ele>483.617188</ele>
<time>2013-11-20T08:51:04Z</time>
<speed>5.950000</speed>
<extensions>
<speed>6.0</speed>
<temp>0.00</temp>
<bpm>0</bpm>
<rpm>0.00</rpm>
</extensions>
</trkpt>
<trkpt lat="30.945682526" lon="34.788967133">
<ele>479.218750</ele>
<time>2013-11-20T08:51:09Z</time>
<speed>8.480000</speed>
<extensions>
<speed>8.5</speed>
<temp>0.00</temp>
<bpm>0</bpm>
<rpm>0.00</rpm>
</extensions>
</trkpt>
<trkpt lat="30.945247650" lon="34.788879395">
<ele>479.593750</ele>
<time>2013-11-20T08:51:14Z</time>
<speed>9.020000</speed>
<extensions>
<speed>9.0</speed>
<temp>0.00</temp>
<bpm>0</bpm>
<rpm>0.00</rpm>
</extensions>
</trkpt>
<trkpt lat="30.944931030" lon="34.788784027">
<ele>479.132813</ele>
<time>2013-11-20T08:51:19Z</time>
<speed>5.520000</speed>
<extensions>
<speed>5.5</speed>
<temp>0.00</temp>
<bpm>0</bpm>
<rpm>0.00</rpm>
</extensions>
</trkpt>
<trkpt lat="30.944713593" lon="34.788707733">
<ele>478.062500</ele>
<time>2013-11-20T08:51:24Z</time>
<speed>4.230000</speed>
<extensions>
<speed>4.2</speed>
<temp>0.00</temp>
<bpm>0</bpm>
<rpm>0.00</rpm>
</extensions>
</trkpt>
<trkpt lat="30.944499969" lon="34.788684845">
<ele>474.828125</ele>
<time>2013-11-20T08:51:29Z</time>
<speed>4.830000</speed>
<extensions>
<speed>4.8</speed>
<temp>0.00</temp>
<bpm>0</bpm>
<rpm>0.00</rpm>
</extensions>
</trkpt>
<trkpt lat="30.944303513" lon="34.788719177">
<ele>471.648438</ele>
<time>2013-11-20T08:51:34Z</time>
<speed>3.920000</speed>
<extensions>
<speed>3.9</speed>
<temp>0.00</temp>
<bpm>0</bpm>
<rpm>0.00</rpm>
</extensions>
</trkpt>
<trkpt lat="30.944089890" lon="34.788707733">
<ele>469.328125</ele>
<time>2013-11-20T08:51:39Z</time>
<speed>4.390000</speed>
<extensions>
<speed>4.4</speed>
<temp>0.00</temp>
<bpm>0</bpm>
<rpm>0.00</rpm>
</extensions>
</trkpt>
<trkpt lat="30.943923950" lon="34.788665771">
<ele>468.914063</ele>
<time>2013-11-20T08:51:44Z</time>
<speed>3.000000</speed>
<extensions>
<speed>3.0</speed>
<temp>0.00</temp>
<bpm>0</bpm>
<rpm>0.00</rpm>
</extensions>
</trkpt>
<trkpt lat="30.943832397" lon="34.788654327">
<ele>468.148438</ele>
<time>2013-11-20T08:51:49Z</time>
<speed>2.220000</speed>
<extensions>
<speed>2.2</speed>
<temp>0.00</temp>
<bpm>0</bpm>
<rpm>0.00</rpm>
</extensions>
</trkpt>
<trkpt lat="30.943721771" lon="34.788631439">
<ele>469.937500</ele>
<time>2013-11-20T08:51:54Z</time>
<speed>2.200000</speed>
<extensions>
<speed>2.2</speed>
<temp>0.00</temp>
<bpm>0</bpm>
<rpm>0.00</rpm>
</extensions>
</trkpt>
<trkpt lat="30.943628311" lon="34.788604736">
<ele>468.187500</ele>
<time>2013-11-20T08:51:59Z</time>
<speed>1.620000</speed>
<extensions>
<speed>1.6</speed>
<temp>0.00</temp>
<bpm>0</bpm>
<rpm>0.00</rpm>
</extensions>
</trkpt>
<trkpt lat="30.943542480" lon="34.788589478">
<ele>470.890625</ele>
<time>2013-11-20T08:52:04Z</time>
<speed>1.800000</speed>
<extensions>
<speed>1.8</speed>
<temp>0.00</temp>
<bpm>0</bpm>
<rpm>0.00</rpm>
</extensions>
</trkpt>
<trkpt lat="30.943439484" lon="34.788566589">
<ele>471.445313</ele>
<time>2013-11-20T08:52:09Z</time>
<speed>2.300000</speed>
<extensions>
<speed>2.3</speed>
<temp>0.00</temp>
<bpm>0</bpm>
<rpm>0.00</rpm>
</extensions>
</trkpt>
<trkpt lat="30.943347931" lon="34.788551331">
<ele>473.265625</ele>
<time>2013-11-20T08:52:14Z</time>
<speed>2.510000</speed>
<extensions>
<speed>2.5</speed>
<temp>0.00</temp>
<bpm>0</bpm>
<rpm>0.00</rpm>
</extensions>
</trkpt>
<trkpt lat="30.943225861" lon="34.788536072">
<ele>474.812500</ele>
<time>2013-11-20T08:52:19Z</time>
<speed>3.020000</speed>
<extensions>
<speed>3.0</speed>
<temp>0.00</temp>
<bpm>0</bpm>
<rpm>0.00</rpm>
</extensions>
</trkpt>
<trkpt lat="30.943096161" lon="34.788516998">
<ele>476.171875</ele>
<time>2013-11-20T08:52:24Z</time>
<speed>3.150000</speed>
<extensions>
<speed>3.2</speed>
<temp>0.00</temp>
<bpm>0</bpm>
<rpm>0.00</rpm>
</extensions>
</trkpt>
<trkpt lat="30.942956924" lon="34.788490295">
<ele>478.046875</ele>
<time>2013-11-20T08:52:29Z</time>
<speed>3.120000</speed>
<extensions>
<speed>3.1</speed>
<temp>0.00</temp>
<bpm>0</bpm>
<rpm>0.00</rpm>
</extensions>
</trkpt>
<trkpt lat="30.942829132" lon="34.788455963">
<ele>479.195313</ele>
<time>2013-11-20T08:52:34Z</time>
<speed>2.700000</speed>
<extensions>
<speed>2.7</speed>
<temp>0.00</temp>
<bpm>0</bpm>
<rpm>0.00</rpm>
</extensions>
</trkpt>
<trkpt lat="30.942678452" lon="34.788425446">
<ele>478.164063</ele>
<time>2013-11-20T08:52:39Z</time>
<speed>3.060000</speed>
<extensions>
<speed>3.1</speed>
<temp>0.00</temp>
<bpm>0</bpm>
<rpm>0.00</rpm>
</extensions>
</trkpt>
<trkpt lat="30.942544937" lon="34.788398743">
<ele>478.046875</ele>
<time>2013-11-20T08:52:44Z</time>
<speed>3.110000</speed>
<extensions>
<speed>3.1</speed>
<temp>0.00</temp>
<bpm>0</bpm>
<rpm>0.00</rpm>
</extensions>
</trkpt>
<trkpt lat="30.942417145" lon="34.788379669">
<ele>478.718750</ele>
<time>2013-11-20T08:52:49Z</time>
<speed>3.430000</speed>
<extensions>
<speed>3.4</speed>
<temp>0.00</temp>
<bpm>0</bpm>
<rpm>0.00</rpm>
</extensions>
</trkpt>
<trkpt lat="30.942237854" lon="34.788345337">
<ele>476.585938</ele>
<time>2013-11-20T08:52:54Z</time>
<speed>4.120000</speed>
<extensions>
<speed>4.1</speed>
<temp>0.00</temp>
<bpm>0</bpm>
<rpm>0.00</rpm>
</extensions>
</trkpt>
<trkpt lat="30.942060471" lon="34.788322449">
<ele>477.945313</ele>
<time>2013-11-20T08:52:59Z</time>
<speed>3.890000</speed>
<extensions>
<speed>3.9</speed>
<temp>0.00</temp>
<bpm>0</bpm>
<rpm>0.00</rpm>
</extensions>
</trkpt>
<trkpt lat="30.941860199" lon="34.788288116">
<ele>477.234375</ele>
<time>2013-11-20T08:53:04Z</time>
<speed>4.690000</speed>
<extensions>
<speed>4.7</speed>
<temp>0.00</temp>
<bpm>0</bpm>
<rpm>0.00</rpm>
</extensions>
</trkpt>
<trkpt lat="30.941629410" lon="34.788234711">
<ele>476.140625</ele>
<time>2013-11-20T08:53:09Z</time>
<speed>5.200000</speed>
<extensions>
<speed>5.2</speed>
<temp>0.00</temp>
<bpm>0</bpm>
<rpm>0.00</rpm>
</extensions>
</trkpt>
<trkpt lat="30.941461563" lon="34.788188934">
<ele>477.992188</ele>
<time>2013-11-20T08:53:14Z</time>
<speed>2.830000</speed>
<extensions>
<speed>2.8</speed>
<temp>0.00</temp>
<bpm>0</bpm>
<rpm>0.00</rpm>
</extensions>
</trkpt>
<trkpt lat="30.941333771" lon="34.788135529">
<ele>477.062500</ele>
<time>2013-11-20T08:53:19Z</time>
<speed>3.430000</speed>
<extensions>
<speed>3.4</speed>
<temp>0.00</temp>
<bpm>0</bpm>
<rpm>0.00</rpm>
</extensions>
</trkpt>
<trkpt lat="30.941127777" lon="34.788002014">
<ele>473.171875</ele>
<time>2013-11-20T08:53:24Z</time>
<speed>6.400000</speed>
<extensions>
<speed>6.4</speed>
<temp>0.00</temp>
<bpm>0</bpm>
<rpm>0.00</rpm>
</extensions>
</trkpt>
<trkpt lat="30.940900803" lon="34.787834167">
<ele>472.953125</ele>
<time>2013-11-20T08:53:29Z</time>
<speed>5.590000</speed>
<extensions>
<speed>5.6</speed>
<temp>0.00</temp>
<bpm>0</bpm>
<rpm>0.00</rpm>
</extensions>
</trkpt>
<trkpt lat="30.940746307" lon="34.787727356">
<ele>474.968750</ele>
<time>2013-11-20T08:53:34Z</time>
<speed>2.740000</speed>
<extensions>
<speed>2.7</speed>
<temp>0.00</temp>
<bpm>0</bpm>
<rpm>0.00</rpm>
</extensions>
</trkpt>
<trkpt lat="30.940654755" lon="34.787681580">
<ele>476.054688</ele>
<time>2013-11-20T08:53:39Z</time>
<speed>2.070000</speed>
<extensions>
<speed>2.1</speed>
<temp>0.00</temp>
<bpm>0</bpm>
<rpm>0.00</rpm>
</extensions>
</trkpt>
<trkpt lat="30.940578461" lon="34.787635803">
<ele>478.687500</ele>
<time>2013-11-20T08:53:44Z</time>
<speed>1.860000</speed>
<extensions>
<speed>1.9</speed>
<temp>0.00</temp>
<bpm>0</bpm>
<rpm>0.00</rpm>
</extensions>
</trkpt>
<trkpt lat="30.940504074" lon="34.787590027">
<ele>480.703125</ele>
<time>2013-11-20T08:53:49Z</time>
<speed>1.940000</speed>
<extensions>
<speed>1.9</speed>
<temp>0.00</temp>
<bpm>0</bpm>
<rpm>0.00</rpm>
</extensions>
</trkpt>
<trkpt lat="30.940429688" lon="34.787540436">
<ele>483.679688</ele>
<time>2013-11-20T08:53:54Z</time>
<speed>2.230000</speed>
<extensions>
<speed>2.2</speed>
<temp>0.00</temp>
<bpm>0</bpm>
<rpm>0.00</rpm>
</extensions>
</trkpt>
<trkpt lat="30.940351486" lon="34.787487030">
<ele>486.304688</ele>
<time>2013-11-20T08:53:59Z</time>
<speed>2.110000</speed>
<extensions>
<speed>2.1</speed>
<temp>0.00</temp>
<bpm>0</bpm>
<rpm>0.00</rpm>
</extensions>
</trkpt>
<trkpt lat="30.940279007" lon="34.787433624">
<ele>486.554688</ele>
<time>2013-11-20T08:54:04Z</time>
<speed>2.440000</speed>
<extensions>
<speed>2.4</speed>
<temp>0.00</temp>
<bpm>0</bpm>
<rpm>0.00</rpm>
</extensions>
</trkpt>
<trkpt lat="30.940166473" lon="34.787342072">
<ele>486.273438</ele>
<time>2013-11-20T08:54:09Z</time>
<speed>2.780000</speed>
<extensions>
<speed>2.8</speed>
<temp>0.00</temp>
<bpm>0</bpm>
<rpm>0.00</rpm>
</extensions>
</trkpt>
<trkpt lat="30.940065384" lon="34.787273407">
<ele>486.390625</ele>
<time>2013-11-20T08:54:14Z</time>
<speed>2.550000</speed>
<extensions>
<speed>2.6</speed>
<temp>0.00</temp>
<bpm>0</bpm>
<rpm>0.00</rpm>
</extensions>
</trkpt>
<trkpt lat="30.939949036" lon="34.787193298">
<ele>485.070313</ele>
<time>2013-11-20T08:54:19Z</time>
<speed>3.590000</speed>
<extensions>
<speed>3.6</speed>
<temp>0.00</temp>
<bpm>0</bpm>
<rpm>0.00</rpm>
</extensions>
</trkpt>
<trkpt lat="30.939710617" lon="34.787048340">
<ele>481.335938</ele>
<time>2013-11-20T08:54:24Z</time>
<speed>7.860000</speed>
<extensions>
<speed>7.9</speed>
<temp>0.00</temp>
<bpm>0</bpm>
<rpm>0.00</rpm>
</extensions>
</trkpt>
<trkpt lat="30.939428329" lon="34.786857605">
<ele>480.898438</ele>
<time>2013-11-20T08:54:29Z</time>
<speed>5.700000</speed>
<extensions>
<speed>5.7</speed>
<temp>0.00</temp>
<bpm>0</bpm>
<rpm>0.00</rpm>
</extensions>
</trkpt>
<trkpt lat="30.939214706" lon="34.786712646">
<ele>478.437500</ele>
<time>2013-11-20T08:54:34Z</time>
<speed>5.630000</speed>
<extensions>
<speed>5.6</speed>
<temp>0.00</temp>
<bpm>0</bpm>
<rpm>0.00</rpm>
</extensions>
</trkpt>
<trkpt lat="30.939012527" lon="34.786594391">
<ele>479.406250</ele>
<time>2013-11-20T08:54:39Z</time>
<speed>4.560000</speed>
<extensions>
<speed>4.6</speed>
<temp>0.00</temp>
<bpm>0</bpm>
<rpm>0.00</rpm>
</extensions>
</trkpt>
<trkpt lat="30.938850403" lon="34.786506653">
<ele>480.609375</ele>
<time>2013-11-20T08:54:44Z</time>
<speed>3.540000</speed>
<extensions>
<speed>3.5</speed>
<temp>0.00</temp>
<bpm>0</bpm>
<rpm>0.00</rpm>
</extensions>
</trkpt>
<trkpt lat="30.938724518" lon="34.786430359">
<ele>482.296875</ele>
<time>2013-11-20T08:54:49Z</time>
<speed>3.120000</speed>
<extensions>
<speed>3.1</speed>
<temp>0.00</temp>
<bpm>0</bpm>
<rpm>0.00</rpm>
</extensions>
</trkpt>
<trkpt lat="30.938608170" lon="34.786350250">
<ele>482.875000</ele>
<time>2013-11-20T08:54:54Z</time>
<speed>2.810000</speed>
<extensions>
<speed>2.8</speed>
<temp>0.00</temp>
<bpm>0</bpm>
<rpm>0.00</rpm>
</extensions>
</trkpt>
<trkpt lat="30.938524246" lon="34.786285400">
<ele>486.093750</ele>
<time>2013-11-20T08:54:59Z</time>
<speed>2.260000</speed>
<extensions>
<speed>2.3</speed>
<temp>0.00</temp>
<bpm>0</bpm>
<rpm>0.00</rpm>
</extensions>
</trkpt>
<trkpt lat="30.938430786" lon="34.786220551">
<ele>487.140625</ele>
<time>2013-11-20T08:55:04Z</time>
<speed>2.230000</speed>
<extensions>
<speed>2.2</speed>
<temp>0.00</temp>
<bpm>0</bpm>
<rpm>0.00</rpm>
</extensions>
</trkpt>
<trkpt lat="30.938369751" lon="34.786170959">
<ele>488.515625</ele>
<time>2013-11-20T08:55:09Z</time>
<speed>2.000000</speed>
<extensions>
<speed>2.0</speed>
<temp>0.00</temp>
<bpm>0</bpm>
<rpm>0.00</rpm>
</extensions>
</trkpt>
<trkpt lat="30.938291550" lon="34.786113739">
<ele>488.273438</ele>
<time>2013-11-20T08:55:14Z</time>
<speed>1.940000</speed>
<extensions>
<speed>1.9</speed>
<temp>0.00</temp>
<bpm>0</bpm>
<rpm>0.00</rpm>
</extensions>
</trkpt>
<trkpt lat="30.938217163" lon="34.786071777">
<ele>488.250000</ele>
<time>2013-11-20T08:55:19Z</time>
<speed>1.720000</speed>
<extensions>
<speed>1.7</speed>
<temp>0.00</temp>
<bpm>0</bpm>
<rpm>0.00</rpm>
</extensions>
</trkpt>
<trkpt lat="30.938140869" lon="34.786018372">
<ele>490.234375</ele>
<time>2013-11-20T08:55:24Z</time>
<speed>2.150000</speed>
<extensions>
<speed>2.1</speed>
<temp>0.00</temp>
<bpm>0</bpm>
<rpm>0.00</rpm>
</extensions>
</trkpt>
<trkpt lat="30.938060760" lon="34.785961151">
<ele>490.945313</ele>
<time>2013-11-20T08:55:29Z</time>
<speed>2.270000</speed>
<extensions>
<speed>2.3</speed>
<temp>0.00</temp>
<bpm>0</bpm>
<rpm>0.00</rpm>
</extensions>
</trkpt>
<trkpt lat="30.937967300" lon="34.785896301">
<ele>490.656250</ele>
<time>2013-11-20T08:55:34Z</time>
<speed>2.260000</speed>
<extensions>
<speed>2.3</speed>
<temp>0.00</temp>
<bpm>0</bpm>
<rpm>0.00</rpm>
</extensions>
</trkpt>
<trkpt lat="30.937879562" lon="34.785839081">
<ele>493.695313</ele>
<time>2013-11-20T08:55:39Z</time>
<speed>2.390000</speed>
<extensions>
<speed>2.4</speed>
<temp>0.00</temp>
<bpm>0</bpm>
<rpm>0.00</rpm>
</extensions>
</trkpt>
<trkpt lat="30.937795639" lon="34.785778046">
<ele>496.843750</ele>
<time>2013-11-20T08:55:44Z</time>
<speed>2.390000</speed>
<extensions>
<speed>2.4</speed>
<temp>0.00</temp>
<bpm>0</bpm>
<rpm>0.00</rpm>
</extensions>
</trkpt>
<trkpt lat="30.937700272" lon="34.785724640">
<ele>500.718750</ele>
<time>2013-11-20T08:55:49Z</time>
<speed>3.200000</speed>
<extensions>
<speed>3.2</speed>
<temp>0.00</temp>
<bpm>0</bpm>
<rpm>0.00</rpm>
</extensions>
</trkpt>
<trkpt lat="30.937578201" lon="34.785663605">
<ele>499.500000</ele>
<time>2013-11-20T08:55:54Z</time>
<speed>3.010000</speed>
<extensions>
<speed>3.0</speed>
<temp>0.00</temp>
<bpm>0</bpm>
<rpm>0.00</rpm>
</extensions>
</trkpt>
<trkpt lat="30.937425613" lon="34.785591125">
<ele>498.101563</ele>
<time>2013-11-20T08:55:59Z</time>
<speed>4.180000</speed>
<extensions>
<speed>4.2</speed>
<temp>0.00</temp>
<bpm>0</bpm>
<rpm>0.00</rpm>
</extensions>
</trkpt>
<trkpt lat="30.937217712" lon="34.785491943">
<ele>498.890625</ele>
<time>2013-11-20T08:56:04Z</time>
<speed>4.390000</speed>
<extensions>
<speed>4.4</speed>
<temp>0.00</temp>
<bpm>0</bpm>
<rpm>0.00</rpm>
</extensions>
</trkpt>
<trkpt lat="30.937067032" lon="34.785434723">
<ele>500.320313</ele>
<time>2013-11-20T08:56:09Z</time>
<speed>3.100000</speed>
<extensions>
<speed>3.1</speed>
<temp>0.00</temp>
<bpm>0</bpm>
<rpm>0.00</rpm>
</extensions>
</trkpt>
<trkpt lat="30.936908722" lon="34.785377502">
<ele>497.640625</ele>
<time>2013-11-20T08:56:14Z</time>
<speed>3.660000</speed>
<extensions>
<speed>3.7</speed>
<temp>0.00</temp>
<bpm>0</bpm>
<rpm>0.00</rpm>
</extensions>
</trkpt>
<trkpt lat="30.936750412" lon="34.785316467">
<ele>498.882813</ele>
<time>2013-11-20T08:56:19Z</time>
<speed>4.090000</speed>
<extensions>
<speed>4.1</speed>
<temp>0.00</temp>
<bpm>0</bpm>
<rpm>0.00</rpm>
</extensions>
</trkpt>
<trkpt lat="30.936571121" lon="34.785240173">
<ele>497.375000</ele>
<time>2013-11-20T08:56:24Z</time>
<speed>4.000000</speed>
<extensions>
<speed>4.0</speed>
<temp>0.00</temp>
<bpm>0</bpm>
<rpm>0.00</rpm>
</extensions>
</trkpt>
<trkpt lat="30.936407089" lon="34.785160065">
<ele>494.101563</ele>
<time>2013-11-20T08:56:29Z</time>
<speed>4.060000</speed>
<extensions>
<speed>4.1</speed>
<temp>0.00</temp>
<bpm>0</bpm>
<rpm>0.00</rpm>
</extensions>
</trkpt>
<trkpt lat="30.936243057" lon="34.785064697">
<ele>493.210938</ele>
<time>2013-11-20T08:56:34Z</time>
<speed>4.220000</speed>
<extensions>
<speed>4.2</speed>
<temp>0.00</temp>
<bpm>0</bpm>
<rpm>0.00</rpm>
</extensions>
</trkpt>
<trkpt lat="30.936088562" lon="34.784984589">
<ele>495.953125</ele>
<time>2013-11-20T08:56:39Z</time>
<speed>3.800000</speed>
<extensions>
<speed>3.8</speed>
<temp>0.00</temp>
<bpm>0</bpm>
<rpm>0.00</rpm>
</extensions>
</trkpt>
<trkpt lat="30.935945511" lon="34.784912109">
<ele>497.437500</ele>
<time>2013-11-20T08:56:44Z</time>
<speed>3.320000</speed>
<extensions>
<speed>3.3</speed>
<temp>0.00</temp>
<bpm>0</bpm>
<rpm>0.00</rpm>
</extensions>
</trkpt>
<trkpt lat="30.935817719" lon="34.784851074">
<ele>501.085938</ele>
<time>2013-11-20T08:56:49Z</time>
<speed>3.030000</speed>
<extensions>
<speed>3.0</speed>
<temp>0.00</temp>
<bpm>0</bpm>
<rpm>0.00</rpm>
</extensions>
</trkpt>
<trkpt lat="30.935691833" lon="34.784797668">
<ele>501.804688</ele>
<time>2013-11-20T08:56:54Z</time>
<speed>2.850000</speed>
<extensions>
<speed>2.9</speed>
<temp>0.00</temp>
<bpm>0</bpm>
<rpm>0.00</rpm>
</extensions>
</trkpt>
<trkpt lat="30.935560226" lon="34.784744263">
<ele>501.218750</ele>
<time>2013-11-20T08:56:59Z</time>
<speed>2.840000</speed>
<extensions>
<speed>2.8</speed>
<temp>0.00</temp>
<bpm>0</bpm>
<rpm>0.00</rpm>
</extensions>
</trkpt>
<trkpt lat="30.935441971" lon="34.784687042">
<ele>500.906250</ele>
<time>2013-11-20T08:57:04Z</time>
<speed>3.010000</speed>
<extensions>
<speed>3.0</speed>
<temp>0.00</temp>
<bpm>0</bpm>
<rpm>0.00</rpm>
</extensions>
</trkpt>
<trkpt lat="30.935317993" lon="34.784633636">
<ele>500.609375</ele>
<time>2013-11-20T08:57:09Z</time>
<speed>3.090000</speed>
<extensions>
<speed>3.1</speed>
<temp>0.00</temp>
<bpm>0</bpm>
<rpm>0.00</rpm>
</extensions>
</trkpt>
<trkpt lat="30.935190201" lon="34.784580231">
<ele>501.492188</ele>
<time>2013-11-20T08:57:14Z</time>
<speed>3.310000</speed>
<extensions>
<speed>3.3</speed>
<temp>0.00</temp>
<bpm>0</bpm>
<rpm>0.00</rpm>
</extensions>
</trkpt>
<trkpt lat="30.935049057" lon="34.784500122">
<ele>500.171875</ele>
<time>2013-11-20T08:57:19Z</time>
<speed>3.390000</speed>
<extensions>
<speed>3.4</speed>
<temp>0.00</temp>
<bpm>0</bpm>
<rpm>0.00</rpm>
</extensions>
</trkpt>
<trkpt lat="30.934967041" lon="34.784473419">
<ele>507.968750</ele>
<time>2013-11-20T08:57:24Z</time>
<speed>1.760000</speed>
<extensions>
<speed>1.8</speed>
<temp>0.00</temp>
<bpm>0</bpm>
<rpm>0.00</rpm>
</extensions>
</trkpt>
<trkpt lat="30.934904099" lon="34.784446716">
<ele>512.312500</ele>
<time>2013-11-20T08:57:29Z</time>
<speed>1.690000</speed>
<extensions>
<speed>1.7</speed>
<temp>0.00</temp>
<bpm>0</bpm>
<rpm>0.00</rpm>
</extensions>
</trkpt>
<trkpt lat="30.934833527" lon="34.784420013">
<ele>514.656250</ele>
<time>2013-11-20T08:57:34Z</time>
<speed>1.790000</speed>
<extensions>
<speed>1.8</speed>
<temp>0.00</temp>
<bpm>0</bpm>
<rpm>0.00</rpm>
</extensions>
</trkpt>
<trkpt lat="30.934766769" lon="34.784374237">
<ele>515.437500</ele>
<time>2013-11-20T08:57:39Z</time>
<speed>1.580000</speed>
<extensions>
<speed>1.6</speed>
<temp>0.00</temp>
<bpm>0</bpm>
<rpm>0.00</rpm>
</extensions>
</trkpt>
<trkpt lat="30.934688568" lon="34.784324646">
<ele>516.203125</ele>
<time>2013-11-20T08:57:44Z</time>
<speed>2.300000</speed>
<extensions>
<speed>2.3</speed>
<temp>0.00</temp>
<bpm>0</bpm>
<rpm>0.00</rpm>
</extensions>
</trkpt>
<trkpt lat="30.934574127" lon="34.784278870">
<ele>515.609375</ele>
<time>2013-11-20T08:57:49Z</time>
<speed>2.510000</speed>
<extensions>
<speed>2.5</speed>
<temp>0.00</temp>
<bpm>0</bpm>
<rpm>0.00</rpm>
</extensions>
</trkpt>
<trkpt lat="30.934459686" lon="34.784233093">
<ele>516.375000</ele>
<time>2013-11-20T08:57:54Z</time>
<speed>2.530000</speed>
<extensions>
<speed>2.5</speed>
<temp>0.00</temp>
<bpm>0</bpm>
<rpm>0.00</rpm>
</extensions>
</trkpt>
<trkpt lat="30.934331894" lon="34.784164429">
<ele>513.312500</ele>
<time>2013-11-20T08:57:59Z</time>
<speed>3.040000</speed>
<extensions>
<speed>3.0</speed>
<temp>0.00</temp>
<bpm>0</bpm>
<rpm>0.00</rpm>
</extensions>
</trkpt>
<trkpt lat="30.934188843" lon="34.784076691">
<ele>510.054688</ele>
<time>2013-11-20T08:58:04Z</time>
<speed>4.220000</speed>
<extensions>
<speed>4.2</speed>
<temp>0.00</temp>
<bpm>0</bpm>
<rpm>0.00</rpm>
</extensions>
</trkpt>
<trkpt lat="30.934005737" lon="34.783977509">
<ele>507.390625</ele>
<time>2013-11-20T08:58:09Z</time>
<speed>4.230000</speed>
<extensions>
<speed>4.2</speed>
<temp>0.00</temp>
<bpm>0</bpm>
<rpm>0.00</rpm>
</extensions>
</trkpt>
<trkpt lat="30.933845520" lon="34.783943176">
<ele>509.226563</ele>
<time>2013-11-20T08:58:14Z</time>
<speed>2.950000</speed>
<extensions>
<speed>2.9</speed>
<temp>0.00</temp>
<bpm>0</bpm>
<rpm>0.00</rpm>
</extensions>
</trkpt>
<trkpt lat="30.933723450" lon="34.783908844">
<ele>509.203125</ele>
<time>2013-11-20T08:58:19Z</time>
<speed>2.520000</speed>
<extensions>
<speed>2.5</speed>
<temp>0.00</temp>
<bpm>0</bpm>
<rpm>0.00</rpm>
</extensions>
</trkpt>
<trkpt lat="30.933641434" lon="34.783882141">
<ele>513.718750</ele>
<time>2013-11-20T08:58:24Z</time>
<speed>2.210000</speed>
<extensions>
<speed>2.2</speed>
<temp>0.00</temp>
<bpm>0</bpm>
<rpm>0.00</rpm>
</extensions>
</trkpt>
<trkpt lat="30.933561325" lon="34.783840179">
<ele>513.171875</ele>
<time>2013-11-20T08:58:29Z</time>
<speed>1.690000</speed>
<extensions>
<speed>1.7</speed>
<temp>0.00</temp>
<bpm>0</bpm>
<rpm>0.00</rpm>
</extensions>
</trkpt>
<trkpt lat="30.933471680" lon="34.783802032">
<ele>512.031250</ele>
<time>2013-11-20T08:58:34Z</time>
<speed>1.980000</speed>
<extensions>
<speed>2.0</speed>
<temp>0.00</temp>
<bpm>0</bpm>
<rpm>0.00</rpm>
</extensions>
</trkpt>
<trkpt lat="30.933383942" lon="34.783763885">
<ele>512.218750</ele>
<time>2013-11-20T08:58:39Z</time>
<speed>2.110000</speed>
<extensions>
<speed>2.1</speed>
<temp>0.00</temp>
<bpm>0</bpm>
<rpm>0.00</rpm>
</extensions>
</trkpt>
<trkpt lat="30.933296204" lon="34.783721924">
<ele>511.960938</ele>
<time>2013-11-20T08:58:44Z</time>
<speed>1.840000</speed>
<extensions>
<speed>1.8</speed>
<temp>0.00</temp>
<bpm>0</bpm>
<rpm>0.00</rpm>
</extensions>
</trkpt>
<trkpt lat="30.933219910" lon="34.783683777">
<ele>514.109375</ele>
<time>2013-11-20T08:58:49Z</time>
<speed>1.920000</speed>
<extensions>
<speed>1.9</speed>
<temp>0.00</temp>
<bpm>0</bpm>
<rpm>0.00</rpm>
</extensions>
</trkpt>
<trkpt lat="30.933141708" lon="34.783641815">
<ele>515.093750</ele>
<time>2013-11-20T08:58:54Z</time>
<speed>1.630000</speed>
<extensions>
<speed>1.6</speed>
<temp>0.00</temp>
<bpm>0</bpm>
<rpm>0.00</rpm>
</extensions>
</trkpt>
<trkpt lat="30.933092117" lon="34.783599854">
<ele>517.843750</ele>
<time>2013-11-20T08:58:59Z</time>
<speed>1.570000</speed>
<extensions>
<speed>1.6</speed>
<temp>0.00</temp>
<bpm>0</bpm>
<rpm>0.00</rpm>
</extensions>
</trkpt>
<trkpt lat="30.933052063" lon="34.783573151">
<ele>518.421875</ele>
<time>2013-11-20T08:59:04Z</time>
<speed>0.190000</speed>
<extensions>
<speed>0.2</speed>
<temp>0.00</temp>
<bpm>0</bpm>
<rpm>0.00</rpm>
</extensions>
</trkpt>
<trkpt lat="30.933048248" lon="34.783573151">
<ele>517.812500</ele>
<time>2013-11-20T08:59:09Z</time>
<speed>0.030000</speed>
<extensions>
<speed>0.0</speed>
<temp>0.00</temp>
<bpm>0</bpm>
<rpm>0.00</rpm>
</extensions>
</trkpt>
<trkpt lat="30.933053970" lon="34.783569336">
<ele>517.812500</ele>
<time>2013-11-20T08:59:14Z</time>
<speed>0.060000</speed>
<extensions>
<speed>0.1</speed>
<temp>0.00</temp>
<bpm>0</bpm>
<rpm>0.00</rpm>
</extensions>
</trkpt>
<trkpt lat="30.933053970" lon="34.783569336">
<ele>517.781250</ele>
<time>2013-11-20T08:59:19Z</time>
<speed>0.060000</speed>
<extensions>
<speed>0.1</speed>
<temp>0.00</temp>
<bpm>0</bpm>
<rpm>0.00</rpm>
</extensions>
</trkpt>
<trkpt lat="30.933055878" lon="34.783569336">
<ele>517.781250</ele>
<time>2013-11-20T08:59:24Z</time>
<speed>0.100000</speed>
<extensions>
<speed>0.1</speed>
<temp>0.00</temp>
<bpm>0</bpm>
<rpm>0.00</rpm>
</extensions>
</trkpt>
<trkpt lat="30.933059692" lon="34.783565521">
<ele>518.140625</ele>
<time>2013-11-20T08:59:29Z</time>
<speed>0.070000</speed>
<extensions>
<speed>0.1</speed>
<temp>0.00</temp>
<bpm>0</bpm>
<rpm>0.00</rpm>
</extensions>
</trkpt>
<trkpt lat="30.933059692" lon="34.783565521">
<ele>518.421875</ele>
<time>2013-11-20T08:59:34Z</time>
<speed>0.120000</speed>
<extensions>
<speed>0.1</speed>
<temp>0.00</temp>
<bpm>0</bpm>
<rpm>0.00</rpm>
</extensions>
</trkpt>
<trkpt lat="30.933061600" lon="34.783565521">
<ele>518.500000</ele>
<time>2013-11-20T08:59:39Z</time>
<speed>0.020000</speed>
<extensions>
<speed>0.0</speed>
<temp>0.00</temp>
<bpm>0</bpm>
<rpm>0.00</rpm>
</extensions>
</trkpt>
<trkpt lat="30.933061600" lon="34.783565521">
<ele>518.562500</ele>
<time>2013-11-20T08:59:44Z</time>
<speed>0.020000</speed>
<extensions>
<speed>0.0</speed>
<temp>0.00</temp>
<bpm>0</bpm>
<rpm>0.00</rpm>
</extensions>
</trkpt>
<trkpt lat="30.933061600" lon="34.783565521">
<ele>518.593750</ele>
<time>2013-11-20T08:59:49Z</time>
<extensions>
<speed>0.0</speed>
<temp>0.00</temp>
<bpm>0</bpm>
<rpm>0.00</rpm>
</extensions>
</trkpt>
<trkpt lat="30.933061600" lon="34.783565521">
<ele>518.593750</ele>
<time>2013-11-20T08:59:54Z</time>
<speed>0.010000</speed>
<extensions>
<speed>0.0</speed>
<temp>0.00</temp>
<bpm>0</bpm>
<rpm>0.00</rpm>
</extensions>
</trkpt>
<trkpt lat="30.933061600" lon="34.783565521">
<ele>518.578125</ele>
<time>2013-11-20T08:59:59Z</time>
<speed>0.010000</speed>
<extensions>
<speed>0.0</speed>
<temp>0.00</temp>
<bpm>0</bpm>
<rpm>0.00</rpm>
</extensions>
</trkpt>
<trkpt lat="30.933061600" lon="34.783565521">
<ele>518.578125</ele>
<time>2013-11-20T09:00:04Z</time>
<speed>0.010000</speed>
<extensions>
<speed>0.0</speed>
<temp>0.00</temp>
<bpm>0</bpm>
<rpm>0.00</rpm>
</extensions>
</trkpt>
<trkpt lat="30.933061600" lon="34.783565521">
<ele>518.578125</ele>
<time>2013-11-20T09:00:09Z</time>
<extensions>
<speed>0.0</speed>
<temp>0.00</temp>
<bpm>0</bpm>
<rpm>0.00</rpm>
</extensions>
</trkpt>
<trkpt lat="30.933061600" lon="34.783565521">
<ele>518.578125</ele>
<time>2013-11-20T09:00:14Z</time>
<speed>0.010000</speed>
<extensions>
<speed>0.0</speed>
<temp>0.00</temp>
<bpm>0</bpm>
<rpm>0.00</rpm>
</extensions>
</trkpt>
<trkpt lat="30.933061600" lon="34.783565521">
<ele>518.562500</ele>
<time>2013-11-20T09:00:19Z</time>
<speed>0.040000</speed>
<extensions>
<speed>0.0</speed>
<temp>0.00</temp>
<bpm>0</bpm>
<rpm>0.00</rpm>
</extensions>
</trkpt>
<trkpt lat="30.933040619" lon="34.783561707">
<ele>518.468750</ele>
<time>2013-11-20T09:00:24Z</time>
<speed>2.080000</speed>
<extensions>
<speed>2.1</speed>
<temp>0.00</temp>
<bpm>0</bpm>
<rpm>0.00</rpm>
</extensions>
</trkpt>
<trkpt lat="30.932918549" lon="34.783504486">
<ele>518.156250</ele>
<time>2013-11-20T09:00:29Z</time>
<speed>3.320000</speed>
<extensions>
<speed>3.3</speed>
<temp>0.00</temp>
<bpm>0</bpm>
<rpm>0.00</rpm>
</extensions>
</trkpt>
<trkpt lat="30.932716370" lon="34.783412933">
<ele>517.546875</ele>
<time>2013-11-20T09:00:34Z</time>
<speed>6.080000</speed>
<extensions>
<speed>6.1</speed>
<temp>0.00</temp>
<bpm>0</bpm>
<rpm>0.00</rpm>
</extensions>
</trkpt>
<trkpt lat="30.932401657" lon="34.783279419">
<ele>513.765625</ele>
<time>2013-11-20T09:00:39Z</time>
<speed>7.390000</speed>
<extensions>
<speed>7.4</speed>
<temp>0.00</temp>
<bpm>0</bpm>
<rpm>0.00</rpm>
</extensions>
</trkpt>
<trkpt lat="30.932088852" lon="34.783142090">
<ele>513.375000</ele>
<time>2013-11-20T09:00:44Z</time>
<speed>6.870000</speed>
<extensions>
<speed>6.9</speed>
<temp>0.00</temp>
<bpm>0</bpm>
<rpm>0.00</rpm>
</extensions>
</trkpt>
<trkpt lat="30.931795120" lon="34.783004761">
<ele>512.656250</ele>
<time>2013-11-20T09:00:49Z</time>
<speed>6.790000</speed>
<extensions>
<speed>6.8</speed>
<temp>0.00</temp>
<bpm>0</bpm>
<rpm>0.00</rpm>
</extensions>
</trkpt>
<trkpt lat="30.931524277" lon="34.782882690">
<ele>511.765625</ele>
<time>2013-11-20T09:00:54Z</time>
<speed>6.110000</speed>
<extensions>
<speed>6.1</speed>
<temp>0.00</temp>
<bpm>0</bpm>
<rpm>0.00</rpm>
</extensions>
</trkpt>
<trkpt lat="30.931253433" lon="34.782772064">
<ele>510.242188</ele>
<time>2013-11-20T09:00:59Z</time>
<speed>6.570000</speed>
<extensions>
<speed>6.6</speed>
<temp>0.00</temp>
<bpm>0</bpm>
<rpm>0.00</rpm>
</extensions>
</trkpt>
<trkpt lat="30.930873871" lon="34.782600403">
<ele>504.765625</ele>
<time>2013-11-20T09:01:04Z</time>
<speed>10.350000</speed>
<extensions>
<speed>10.3</speed>
<temp>0.00</temp>
<bpm>0</bpm>
<rpm>0.00</rpm>
</extensions>
</trkpt>
<trkpt lat="30.930530548" lon="34.782455444">
<ele>505.976563</ele>
<time>2013-11-20T09:01:09Z</time>
<speed>6.220000</speed>
<extensions>
<speed>6.2</speed>
<temp>0.00</temp>
<bpm>0</bpm>
<rpm>0.00</rpm>
</extensions>
</trkpt>
<trkpt lat="30.930229187" lon="34.782318115">
<ele>502.171875</ele>
<time>2013-11-20T09:01:14Z</time>
<speed>8.760000</speed>
<extensions>
<speed>8.8</speed>
<temp>0.00</temp>
<bpm>0</bpm>
<rpm>0.00</rpm>
</extensions>
</trkpt>
<trkpt lat="30.929809570" lon="34.782138824">
<ele>498.351563</ele>
<time>2013-11-20T09:01:19Z</time>
<speed>10.170000</speed>
<extensions>
<speed>10.2</speed>
<temp>0.00</temp>
<bpm>0</bpm>
<rpm>0.00</rpm>
</extensions>
</trkpt>
<trkpt lat="30.929378510" lon="34.781959534">
<ele>496.726563</ele>
<time>2013-11-20T09:01:24Z</time>
<speed>10.370000</speed>
<extensions>
<speed>10.4</speed>
<temp>0.00</temp>
<bpm>0</bpm>
<rpm>0.00</rpm>
</extensions>
</trkpt>
<trkpt lat="30.928937912" lon="34.781764984">
<ele>496.281250</ele>
<time>2013-11-20T09:01:29Z</time>
<speed>10.150000</speed>
<extensions>
<speed>10.2</speed>
<temp>0.00</temp>
<bpm>0</bpm>
<rpm>0.00</rpm>
</extensions>
</trkpt>
<trkpt lat="30.928508759" lon="34.781585693">
<ele>494.984375</ele>
<time>2013-11-20T09:01:34Z</time>
<speed>10.210000</speed>
<extensions>
<speed>10.2</speed>
<temp>0.00</temp>
<bpm>0</bpm>
<rpm>0.00</rpm>
</extensions>
</trkpt>
<trkpt lat="30.928089142" lon="34.781406403">
<ele>494.507813</ele>
<time>2013-11-20T09:01:39Z</time>
<speed>9.730000</speed>
<extensions>
<speed>9.7</speed>
<temp>0.00</temp>
<bpm>0</bpm>
<rpm>0.00</rpm>
</extensions>
</trkpt>
<trkpt lat="30.927696228" lon="34.781208038">
<ele>493.679688</ele>
<time>2013-11-20T09:01:44Z</time>
<speed>9.530000</speed>
<extensions>
<speed>9.5</speed>
<temp>0.00</temp>
<bpm>0</bpm>
<rpm>0.00</rpm>
</extensions>
</trkpt>
<trkpt lat="30.927295685" lon="34.781032562">
<ele>494.007813</ele>
<time>2013-11-20T09:01:49Z</time>
<speed>9.460000</speed>
<extensions>
<speed>9.5</speed>
<temp>0.00</temp>
<bpm>0</bpm>
<rpm>0.00</rpm>
</extensions>
</trkpt>
<trkpt lat="30.926946640" lon="34.780914307">
<ele>496.617188</ele>
<time>2013-11-20T09:01:54Z</time>
<speed>6.800000</speed>
<extensions>
<speed>6.8</speed>
<temp>0.00</temp>
<bpm>0</bpm>
<rpm>0.00</rpm>
</extensions>
</trkpt>
<trkpt lat="30.926670074" lon="34.780799866">
<ele>497.898438</ele>
<time>2013-11-20T09:01:59Z</time>
<speed>5.820000</speed>
<extensions>
<speed>5.8</speed>
<temp>0.00</temp>
<bpm>0</bpm>
<rpm>0.00</rpm>
</extensions>
</trkpt>
<trkpt lat="30.926422119" lon="34.780708313">
<ele>497.273438</ele>
<time>2013-11-20T09:02:04Z</time>
<speed>6.530000</speed>
<extensions>
<speed>6.5</speed>
<temp>0.00</temp>
<bpm>0</bpm>
<rpm>0.00</rpm>
</extensions>
</trkpt>
<trkpt lat="30.926061630" lon="34.780555725">
<ele>490.507813</ele>
<time>2013-11-20T09:02:09Z</time>
<speed>10.370000</speed>
<extensions>
<speed>10.4</speed>
<temp>0.00</temp>
<bpm>0</bpm>
<rpm>0.00</rpm>
</extensions>
</trkpt>
<trkpt lat="30.925725937" lon="34.780422211">
<ele>493.476563</ele>
<time>2013-11-20T09:02:14Z</time>
<speed>6.150000</speed>
<extensions>
<speed>6.1</speed>
<temp>0.00</temp>
<bpm>0</bpm>
<rpm>0.00</rpm>
</extensions>
</trkpt>
<trkpt lat="30.925464630" lon="34.780315399">
<ele>492.351563</ele>
<time>2013-11-20T09:02:19Z</time>
<speed>6.640000</speed>
<extensions>
<speed>6.6</speed>
<temp>0.00</temp>
<bpm>0</bpm>
<rpm>0.00</rpm>
</extensions>
</trkpt>
<trkpt lat="30.925144196" lon="34.780166626">
<ele>491.460938</ele>
<time>2013-11-20T09:02:24Z</time>
<speed>6.310000</speed>
<extensions>
<speed>6.3</speed>
<temp>0.00</temp>
<bpm>0</bpm>
<rpm>0.00</rpm>
</extensions>
</trkpt>
<trkpt lat="30.924926758" lon="34.780067444">
<ele>495.109375</ele>
<time>2013-11-20T09:02:29Z</time>
<speed>3.720000</speed>
<extensions>
<speed>3.7</speed>
<temp>0.00</temp>
<bpm>0</bpm>
<rpm>0.00</rpm>
</extensions>
</trkpt>
<trkpt lat="30.924777985" lon="34.780021667">
<ele>496.820313</ele>
<time>2013-11-20T09:02:34Z</time>
<speed>3.030000</speed>
<extensions>
<speed>3.0</speed>
<temp>0.00</temp>
<bpm>0</bpm>
<rpm>0.00</rpm>
</extensions>
</trkpt>
<trkpt lat="30.924657822" lon="34.779994965">
<ele>496.679688</ele>
<time>2013-11-20T09:02:39Z</time>
<speed>2.390000</speed>
<extensions>
<speed>2.4</speed>
<temp>0.00</temp>
<bpm>0</bpm>
<rpm>0.00</rpm>
</extensions>
</trkpt>
<trkpt lat="30.924524307" lon="34.779956818">
<ele>496.750000</ele>
<time>2013-11-20T09:02:44Z</time>
<speed>3.370000</speed>
<extensions>
<speed>3.4</speed>
<temp>0.00</temp>
<bpm>0</bpm>
<rpm>0.00</rpm>
</extensions>
</trkpt>
<trkpt lat="30.924295425" lon="34.779945374">
<ele>496.046875</ele>
<time>2013-11-20T09:02:49Z</time>
<speed>6.930000</speed>
<extensions>
<speed>6.9</speed>
<temp>0.00</temp>
<bpm>0</bpm>
<rpm>0.00</rpm>
</extensions>
</trkpt>
<trkpt lat="30.923912048" lon="34.779953003">
<ele>493.492188</ele>
<time>2013-11-20T09:02:54Z</time>
<speed>8.590000</speed>
<extensions>
<speed>8.6</speed>
<temp>0.00</temp>
<bpm>0</bpm>
<rpm>0.00</rpm>
</extensions>
</trkpt>
<trkpt lat="30.923591614" lon="34.779979706">
<ele>496.640625</ele>
<time>2013-11-20T09:02:59Z</time>
<speed>5.110000</speed>
<extensions>
<speed>5.1</speed>
<temp>0.00</temp>
<bpm>0</bpm>
<rpm>0.00</rpm>
</extensions>
</trkpt>
<trkpt lat="30.923355103" lon="34.779991150">
<ele>497.695313</ele>
<time>2013-11-20T09:03:04Z</time>
<speed>5.990000</speed>
<extensions>
<speed>6.0</speed>
<temp>0.00</temp>
<bpm>0</bpm>
<rpm>0.00</rpm>
</extensions>
</trkpt>
<trkpt lat="30.923006058" lon="34.779979706">
<ele>492.703125</ele>
<time>2013-11-20T09:03:09Z</time>
<speed>8.560000</speed>
<extensions>
<speed>8.6</speed>
<temp>0.00</temp>
<bpm>0</bpm>
<rpm>0.00</rpm>
</extensions>
</trkpt>
<trkpt lat="30.922594070" lon="34.779979706">
<ele>489.734375</ele>
<time>2013-11-20T09:03:14Z</time>
<speed>8.620000</speed>
<extensions>
<speed>8.6</speed>
<temp>0.00</temp>
<bpm>0</bpm>
<rpm>0.00</rpm>
</extensions>
</trkpt>
<trkpt lat="30.922248840" lon="34.779991150">
<ele>486.812500</ele>
<time>2013-11-20T09:03:19Z</time>
<speed>6.830000</speed>
<extensions>
<speed>6.8</speed>
<temp>0.00</temp>
<bpm>0</bpm>
<rpm>0.00</rpm>
</extensions>
</trkpt>
<trkpt lat="30.921859741" lon="34.780002594">
<ele>480.734375</ele>
<time>2013-11-20T09:03:24Z</time>
<speed>10.250000</speed>
<extensions>
<speed>10.3</speed>
<temp>0.00</temp>
<bpm>0</bpm>
<rpm>0.00</rpm>
</extensions>
</trkpt>
<trkpt lat="30.921350479" lon="34.779998779">
<ele>474.296875</ele>
<time>2013-11-20T09:03:29Z</time>
<speed>10.990000</speed>
<extensions>
<speed>11.0</speed>
<temp>0.00</temp>
<bpm>0</bpm>
<rpm>0.00</rpm>
</extensions>
</trkpt>
<trkpt lat="30.920936584" lon="34.779983521">
<ele>473.890625</ele>
<time>2013-11-20T09:03:34Z</time>
<speed>7.520000</speed>
<extensions>
<speed>7.5</speed>
<temp>0.00</temp>
<bpm>0</bpm>
<rpm>0.00</rpm>
</extensions>
</trkpt>
<trkpt lat="30.920732498" lon="34.779983521">
<ele>476.523438</ele>
<time>2013-11-20T09:03:39Z</time>
<speed>1.540000</speed>
<extensions>
<speed>1.5</speed>
<temp>0.00</temp>
<bpm>0</bpm>
<rpm>0.00</rpm>
</extensions>
</trkpt>
<trkpt lat="30.920656204" lon="34.779987335">
<ele>476.335938</ele>
<time>2013-11-20T09:03:44Z</time>
<speed>1.940000</speed>
<extensions>
<speed>1.9</speed>
<temp>0.00</temp>
<bpm>0</bpm>
<rpm>0.00</rpm>
</extensions>
</trkpt>
<trkpt lat="30.920576096" lon="34.779991150">
<ele>478.429688</ele>
<time>2013-11-20T09:03:49Z</time>
<speed>1.900000</speed>
<extensions>
<speed>1.9</speed>
<temp>0.00</temp>
<bpm>0</bpm>
<rpm>0.00</rpm>
</extensions>
</trkpt>
<trkpt lat="30.920488358" lon="34.779991150">
<ele>480.507813</ele>
<time>2013-11-20T09:03:54Z</time>
<speed>1.840000</speed>
<extensions>
<speed>1.8</speed>
<temp>0.00</temp>
<bpm>0</bpm>
<rpm>0.00</rpm>
</extensions>
</trkpt>
<trkpt lat="30.920421600" lon="34.779987335">
<ele>481.539063</ele>
<time>2013-11-20T09:03:59Z</time>
<speed>1.720000</speed>
<extensions>
<speed>1.7</speed>
<temp>0.00</temp>
<bpm>0</bpm>
<rpm>0.00</rpm>
</extensions>
</trkpt>
<trkpt lat="30.920328140" lon="34.779987335">
<ele>482.812500</ele>
<time>2013-11-20T09:04:04Z</time>
<speed>1.580000</speed>
<extensions>
<speed>1.6</speed>
<temp>0.00</temp>
<bpm>0</bpm>
<rpm>0.00</rpm>
</extensions>
</trkpt>
<trkpt lat="30.920228958" lon="34.779983521">
<ele>484.320313</ele>
<time>2013-11-20T09:04:09Z</time>
<speed>2.170000</speed>
<extensions>
<speed>2.2</speed>
<temp>0.00</temp>
<bpm>0</bpm>
<rpm>0.00</rpm>
</extensions>
</trkpt>
<trkpt lat="30.920171738" lon="34.779987335">
<ele>485.718750</ele>
<time>2013-11-20T09:04:14Z</time>
<speed>0.960000</speed>
<extensions>
<speed>1.0</speed>
<temp>0.00</temp>
<bpm>0</bpm>
<rpm>0.00</rpm>
</extensions>
</trkpt>
<trkpt lat="30.920104980" lon="34.779994965">
<ele>485.140625</ele>
<time>2013-11-20T09:04:19Z</time>
<speed>2.010000</speed>
<extensions>
<speed>2.0</speed>
<temp>0.00</temp>
<bpm>0</bpm>
<rpm>0.00</rpm>
</extensions>
</trkpt>
<trkpt lat="30.920047760" lon="34.780025482">
<ele>485.156250</ele>
<time>2013-11-20T09:04:24Z</time>
<speed>0.270000</speed>
<extensions>
<speed>0.3</speed>
<temp>0.00</temp>
<bpm>0</bpm>
<rpm>0.00</rpm>
</extensions>
</trkpt>
<trkpt lat="30.920013428" lon="34.780036926">
<ele>485.000000</ele>
<time>2013-11-20T09:04:29Z</time>
<speed>1.730000</speed>
<extensions>
<speed>1.7</speed>
<temp>0.00</temp>
<bpm>0</bpm>
<rpm>0.00</rpm>
</extensions>
</trkpt>
<trkpt lat="30.919755936" lon="34.780040741">
<ele>481.359375</ele>
<time>2013-11-20T09:04:34Z</time>
<speed>7.830000</speed>
<extensions>
<speed>7.8</speed>
<temp>0.00</temp>
<bpm>0</bpm>
<rpm>0.00</rpm>
</extensions>
</trkpt>
<trkpt lat="30.919336319" lon="34.780075073">
<ele>476.351563</ele>
<time>2013-11-20T09:04:39Z</time>
<speed>7.440000</speed>
<extensions>
<speed>7.4</speed>
<temp>0.00</temp>
<bpm>0</bpm>
<rpm>0.00</rpm>
</extensions>
</trkpt>
<trkpt lat="30.918884277" lon="34.780132294">
<ele>471.070313</ele>
<time>2013-11-20T09:04:44Z</time>
<speed>12.220000</speed>
<extensions>
<speed>12.2</speed>
<temp>0.00</temp>
<bpm>0</bpm>
<rpm>0.00</rpm>
</extensions>
</trkpt>
<trkpt lat="30.918302536" lon="34.780181885">
<ele>467.000000</ele>
<time>2013-11-20T09:04:49Z</time>
<speed>12.410000</speed>
<extensions>
<speed>12.4</speed>
<temp>0.00</temp>
<bpm>0</bpm>
<rpm>0.00</rpm>
</extensions>
</trkpt>
<trkpt lat="30.917739868" lon="34.780197144">
<ele>462.625000</ele>
<time>2013-11-20T09:04:54Z</time>
<speed>12.070000</speed>
<extensions>
<speed>12.1</speed>
<temp>0.00</temp>
<bpm>0</bpm>
<rpm>0.00</rpm>
</extensions>
</trkpt>
<trkpt lat="30.917181015" lon="34.780200958">
<ele>454.750000</ele>
<time>2013-11-20T09:04:59Z</time>
<speed>11.990000</speed>
<extensions>
<speed>12.0</speed>
<temp>0.00</temp>
<bpm>0</bpm>
<rpm>0.00</rpm>
</extensions>
</trkpt>
<trkpt lat="30.916652679" lon="34.780292511">
<ele>449.414063</ele>
<time>2013-11-20T09:05:04Z</time>
<speed>11.590000</speed>
<extensions>
<speed>11.6</speed>
<temp>0.00</temp>
<bpm>0</bpm>
<rpm>0.00</rpm>
</extensions>
</trkpt>
<trkpt lat="30.916189194" lon="34.780368805">
<ele>444.125000</ele>
<time>2013-11-20T09:05:09Z</time>
<speed>9.110000</speed>
<extensions>
<speed>9.1</speed>
<temp>0.00</temp>
<bpm>0</bpm>
<rpm>0.00</rpm>
</extensions>
</trkpt>
<trkpt lat="30.915868759" lon="34.780384064">
<ele>444.914063</ele>
<time>2013-11-20T09:05:14Z</time>
<speed>4.460000</speed>
<extensions>
<speed>4.5</speed>
<temp>0.00</temp>
<bpm>0</bpm>
<rpm>0.00</rpm>
</extensions>
</trkpt>
<trkpt lat="30.915712357" lon="34.780380249">
<ele>445.281250</ele>
<time>2013-11-20T09:05:19Z</time>
<speed>3.310000</speed>
<extensions>
<speed>3.3</speed>
<temp>0.00</temp>
<bpm>0</bpm>
<rpm>0.00</rpm>
</extensions>
</trkpt>
<trkpt lat="30.915555954" lon="34.780391693">
<ele>447.492188</ele>
<time>2013-11-20T09:05:24Z</time>
<speed>4.030000</speed>
<extensions>
<speed>4.0</speed>
<temp>0.00</temp>
<bpm>0</bpm>
<rpm>0.00</rpm>
</extensions>
</trkpt>
<trkpt lat="30.915346146" lon="34.780441284">
<ele>446.851563</ele>
<time>2013-11-20T09:05:29Z</time>
<speed>5.750000</speed>
<extensions>
<speed>5.8</speed>
<temp>0.00</temp>
<bpm>0</bpm>
<rpm>0.00</rpm>
</extensions>
</trkpt>
<trkpt lat="30.915170670" lon="34.780456543">
<ele>450.406250</ele>
<time>2013-11-20T09:05:34Z</time>
<speed>3.520000</speed>
<extensions>
<speed>3.5</speed>
<temp>0.00</temp>
<bpm>0</bpm>
<rpm>0.00</rpm>
</extensions>
</trkpt>
<trkpt lat="30.915000916" lon="34.780483246">
<ele>451.429688</ele>
<time>2013-11-20T09:05:39Z</time>
<speed>4.020000</speed>
<extensions>
<speed>4.0</speed>
<temp>0.00</temp>
<bpm>0</bpm>
<rpm>0.00</rpm>
</extensions>
</trkpt>
<trkpt lat="30.914808273" lon="34.780513763">
<ele>452.359375</ele>
<time>2013-11-20T09:05:44Z</time>
<speed>4.600000</speed>
<extensions>
<speed>4.6</speed>
<temp>0.00</temp>
<bpm>0</bpm>
<rpm>0.00</rpm>
</extensions>
</trkpt>
<trkpt lat="30.914600372" lon="34.780532837">
<ele>453.257813</ele>
<time>2013-11-20T09:05:49Z</time>
<speed>4.740000</speed>
<extensions>
<speed>4.7</speed>
<temp>0.00</temp>
<bpm>0</bpm>
<rpm>0.00</rpm>
</extensions>
</trkpt>
<trkpt lat="30.914409637" lon="34.780555725">
<ele>455.421875</ele>
<time>2013-11-20T09:05:54Z</time>
<speed>3.660000</speed>
<extensions>
<speed>3.7</speed>
<temp>0.00</temp>
<bpm>0</bpm>
<rpm>0.00</rpm>
</extensions>
</trkpt>
<trkpt lat="30.914260864" lon="34.780578613">
<ele>457.460938</ele>
<time>2013-11-20T09:05:59Z</time>
<speed>3.730000</speed>
<extensions>
<speed>3.7</speed>
<temp>0.00</temp>
<bpm>0</bpm>
<rpm>0.00</rpm>
</extensions>
</trkpt>
<trkpt lat="30.914091110" lon="34.780590057">
<ele>457.554688</ele>
<time>2013-11-20T09:06:04Z</time>
<speed>4.030000</speed>
<extensions>
<speed>4.0</speed>
<temp>0.00</temp>
<bpm>0</bpm>
<rpm>0.00</rpm>
</extensions>
</trkpt>
<trkpt lat="30.913908005" lon="34.780593872">
<ele>458.203125</ele>
<time>2013-11-20T09:06:09Z</time>
<speed>4.070000</speed>
<extensions>
<speed>4.1</speed>
<temp>0.00</temp>
<bpm>0</bpm>
<rpm>0.00</rpm>
</extensions>
</trkpt>
<trkpt lat="30.913759232" lon="34.780616760">
<ele>464.679688</ele>
<time>2013-11-20T09:06:14Z</time>
<speed>3.570000</speed>
<extensions>
<speed>3.6</speed>
<temp>0.00</temp>
<bpm>0</bpm>
<rpm>0.00</rpm>
</extensions>
</trkpt>
<trkpt lat="30.913635254" lon="34.780643463">
<ele>466.695313</ele>
<time>2013-11-20T09:06:19Z</time>
<speed>3.040000</speed>
<extensions>
<speed>3.0</speed>
<temp>0.00</temp>
<bpm>0</bpm>
<rpm>0.00</rpm>
</extensions>
</trkpt>
<trkpt lat="30.913520813" lon="34.780673981">
<ele>472.492188</ele>
<time>2013-11-20T09:06:24Z</time>
<speed>3.280000</speed>
<extensions>
<speed>3.3</speed>
<temp>0.00</temp>
<bpm>0</bpm>
<rpm>0.00</rpm>
</extensions>
</trkpt>
<trkpt lat="30.913375854" lon="34.780689240">
<ele>474.960938</ele>
<time>2013-11-20T09:06:29Z</time>
<speed>3.780000</speed>
<extensions>
<speed>3.8</speed>
<temp>0.00</temp>
<bpm>0</bpm>
<rpm>0.00</rpm>
</extensions>
</trkpt>
<trkpt lat="30.913166046" lon="34.780689240">
<ele>474.437500</ele>
<time>2013-11-20T09:06:34Z</time>
<speed>5.800000</speed>
<extensions>
<speed>5.8</speed>
<temp>0.00</temp>
<bpm>0</bpm>
<rpm>0.00</rpm>
</extensions>
</trkpt>
<trkpt lat="30.912874222" lon="34.780704498">
<ele>472.656250</ele>
<time>2013-11-20T09:06:39Z</time>
<speed>6.590000</speed>
<extensions>
<speed>6.6</speed>
<temp>0.00</temp>
<bpm>0</bpm>
<rpm>0.00</rpm>
</extensions>
</trkpt>
<trkpt lat="30.912605286" lon="34.780715942">
<ele>473.171875</ele>
<time>2013-11-20T09:06:44Z</time>
<speed>4.960000</speed>
<extensions>
<speed>5.0</speed>
<temp>0.00</temp>
<bpm>0</bpm>
<rpm>0.00</rpm>
</extensions>
</trkpt>
<trkpt lat="30.912405014" lon="34.780715942">
<ele>473.937500</ele>
<time>2013-11-20T09:06:49Z</time>
<speed>4.410000</speed>
<extensions>
<speed>4.4</speed>
<temp>0.00</temp>
<bpm>0</bpm>
<rpm>0.00</rpm>
</extensions>
</trkpt>
<trkpt lat="30.912221909" lon="34.780715942">
<ele>475.710938</ele>
<time>2013-11-20T09:06:54Z</time>
<speed>3.950000</speed>
<extensions>
<speed>4.0</speed>
<temp>0.00</temp>
<bpm>0</bpm>
<rpm>0.00</rpm>
</extensions>
</trkpt>
<trkpt lat="30.912071228" lon="34.780727386">
<ele>477.750000</ele>
<time>2013-11-20T09:06:59Z</time>
<speed>2.880000</speed>
<extensions>
<speed>2.9</speed>
<temp>0.00</temp>
<bpm>0</bpm>
<rpm>0.00</rpm>
</extensions>
</trkpt>
<trkpt lat="30.911958694" lon="34.780735016">
<ele>480.218750</ele>
<time>2013-11-20T09:07:04Z</time>
<speed>2.630000</speed>
<extensions>
<speed>2.6</speed>
<temp>0.00</temp>
<bpm>0</bpm>
<rpm>0.00</rpm>
</extensions>
</trkpt>
<trkpt lat="30.911855698" lon="34.780757904">
<ele>482.406250</ele>
<time>2013-11-20T09:07:09Z</time>
<speed>2.290000</speed>
<extensions>
<speed>2.3</speed>
<temp>0.00</temp>
<bpm>0</bpm>
<rpm>0.00</rpm>
</extensions>
</trkpt>
<trkpt lat="30.911745071" lon="34.780761719">
<ele>483.226563</ele>
<time>2013-11-20T09:07:14Z</time>
<speed>2.750000</speed>
<extensions>
<speed>2.7</speed>
<temp>0.00</temp>
<bpm>0</bpm>
<rpm>0.00</rpm>
</extensions>
</trkpt>
<trkpt lat="30.911605835" lon="34.780776978">
<ele>482.859375</ele>
<time>2013-11-20T09:07:19Z</time>
<speed>3.600000</speed>
<extensions>
<speed>3.6</speed>
<temp>0.00</temp>
<bpm>0</bpm>
<rpm>0.00</rpm>
</extensions>
</trkpt>
<trkpt lat="30.911376953" lon="34.780784607">
<ele>480.929688</ele>
<time>2013-11-20T09:07:24Z</time>
<speed>5.890000</speed>
<extensions>
<speed>5.9</speed>
<temp>0.00</temp>
<bpm>0</bpm>
<rpm>0.00</rpm>
</extensions>
</trkpt>
<trkpt lat="30.911127090" lon="34.780799866">
<ele>481.960938</ele>
<time>2013-11-20T09:07:29Z</time>
<speed>4.910000</speed>
<extensions>
<speed>4.9</speed>
<temp>0.00</temp>
<bpm>0</bpm>
<rpm>0.00</rpm>
</extensions>
</trkpt>
<trkpt lat="30.910909653" lon="34.780822754">
<ele>481.117188</ele>
<time>2013-11-20T09:07:34Z</time>
<speed>5.010000</speed>
<extensions>
<speed>5.0</speed>
<temp>0.00</temp>
<bpm>0</bpm>
<rpm>0.00</rpm>
</extensions>
</trkpt>
<trkpt lat="30.910659790" lon="34.780860901">
<ele>479.687500</ele>
<time>2013-11-20T09:07:39Z</time>
<speed>5.890000</speed>
<extensions>
<speed>5.9</speed>
<temp>0.00</temp>
<bpm>0</bpm>
<rpm>0.00</rpm>
</extensions>
</trkpt>
<trkpt lat="30.910499573" lon="34.780876160">
<ele>478.632813</ele>
<time>2013-11-20T09:07:44Z</time>
<speed>2.670000</speed>
<extensions>
<speed>2.7</speed>
<temp>0.00</temp>
<bpm>0</bpm>
<rpm>0.00</rpm>
</extensions>
</trkpt>
<trkpt lat="30.910392761" lon="34.780838013">
<ele>480.859375</ele>
<time>2013-11-20T09:07:49Z</time>
<speed>2.780000</speed>
<extensions>
<speed>2.8</speed>
<temp>0.00</temp>
<bpm>0</bpm>
<rpm>0.00</rpm>
</extensions>
</trkpt>
<trkpt lat="30.910251617" lon="34.780845642">
<ele>483.171875</ele>
<time>2013-11-20T09:07:54Z</time>
<speed>3.010000</speed>
<extensions>
<speed>3.0</speed>
<temp>0.00</temp>
<bpm>0</bpm>
<rpm>0.00</rpm>
</extensions>
</trkpt>
<trkpt lat="30.910108566" lon="34.780773163">
<ele>482.406250</ele>
<time>2013-11-20T09:07:59Z</time>
<speed>4.460000</speed>
<extensions>
<speed>4.5</speed>
<temp>0.00</temp>
<bpm>0</bpm>
<rpm>0.00</rpm>
</extensions>
</trkpt>
<trkpt lat="30.909912109" lon="34.780643463">
<ele>479.820313</ele>
<time>2013-11-20T09:08:04Z</time>
<speed>4.850000</speed>
<extensions>
<speed>4.8</speed>
<temp>0.00</temp>
<bpm>0</bpm>
<rpm>0.00</rpm>
</extensions>
</trkpt>
<trkpt lat="30.909730911" lon="34.780483246">
<ele>477.742188</ele>
<time>2013-11-20T09:08:09Z</time>
<speed>4.560000</speed>
<extensions>
<speed>4.6</speed>
<temp>0.00</temp>
<bpm>0</bpm>
<rpm>0.00</rpm>
</extensions>
</trkpt>
<trkpt lat="30.909574509" lon="34.780380249">
<ele>475.406250</ele>
<time>2013-11-20T09:08:14Z</time>
<speed>4.120000</speed>
<extensions>
<speed>4.1</speed>
<temp>0.00</temp>
<bpm>0</bpm>
<rpm>0.00</rpm>
</extensions>
</trkpt>
<trkpt lat="30.909429550" lon="34.780269623">
<ele>475.804688</ele>
<time>2013-11-20T09:08:19Z</time>
<speed>3.690000</speed>
<extensions>
<speed>3.7</speed>
<temp>0.00</temp>
<bpm>0</bpm>
<rpm>0.00</rpm>
</extensions>
</trkpt>
<trkpt lat="30.909280777" lon="34.780170441">
<ele>475.875000</ele>
<time>2013-11-20T09:08:24Z</time>
<speed>3.480000</speed>
<extensions>
<speed>3.5</speed>
<temp>0.00</temp>
<bpm>0</bpm>
<rpm>0.00</rpm>
</extensions>
</trkpt>
<trkpt lat="30.909231186" lon="34.780014038">
<ele>475.578125</ele>
<time>2013-11-20T09:08:29Z</time>
<speed>3.470000</speed>
<extensions>
<speed>3.5</speed>
<temp>0.00</temp>
<bpm>0</bpm>
<rpm>0.00</rpm>
</extensions>
</trkpt>
<trkpt lat="30.909257889" lon="34.779838562">
<ele>475.867188</ele>
<time>2013-11-20T09:08:34Z</time>
<speed>3.690000</speed>
<extensions>
<speed>3.7</speed>
<temp>0.00</temp>
<bpm>0</bpm>
<rpm>0.00</rpm>
</extensions>
</trkpt>
<trkpt lat="30.909317017" lon="34.779628754">
<ele>473.078125</ele>
<time>2013-11-20T09:08:39Z</time>
<speed>5.120000</speed>
<extensions>
<speed>5.1</speed>
<temp>0.00</temp>
<bpm>0</bpm>
<rpm>0.00</rpm>
</extensions>
</trkpt>
<trkpt lat="30.909414291" lon="34.779357910">
<ele>471.695313</ele>
<time>2013-11-20T09:08:44Z</time>
<speed>5.290000</speed>
<extensions>
<speed>5.3</speed>
<temp>0.00</temp>
<bpm>0</bpm>
<rpm>0.00</rpm>
</extensions>
</trkpt>
<trkpt lat="30.909530640" lon="34.779090881">
<ele>471.062500</ele>
<time>2013-11-20T09:08:49Z</time>
<speed>6.090000</speed>
<extensions>
<speed>6.1</speed>
<temp>0.00</temp>
<bpm>0</bpm>
<rpm>0.00</rpm>
</extensions>
</trkpt>
<trkpt lat="30.909633636" lon="34.778827667">
<ele>470.742188</ele>
<time>2013-11-20T09:08:54Z</time>
<speed>4.970000</speed>
<extensions>
<speed>5.0</speed>
<temp>0.00</temp>
<bpm>0</bpm>
<rpm>0.00</rpm>
</extensions>
</trkpt>
<trkpt lat="30.909727097" lon="34.778583527">
<ele>469.515625</ele>
<time>2013-11-20T09:08:59Z</time>
<speed>4.680000</speed>
<extensions>
<speed>4.7</speed>
<temp>0.00</temp>
<bpm>0</bpm>
<rpm>0.00</rpm>
</extensions>
</trkpt>
<trkpt lat="30.909811020" lon="34.778404236">
<ele>469.515625</ele>
<time>2013-11-20T09:09:04Z</time>
<speed>3.080000</speed>
<extensions>
<speed>3.1</speed>
<temp>0.00</temp>
<bpm>0</bpm>
<rpm>0.00</rpm>
</extensions>
</trkpt>
<trkpt lat="30.909799576" lon="34.778247833">
<ele>469.179688</ele>
<time>2013-11-20T09:09:09Z</time>
<speed>2.860000</speed>
<extensions>
<speed>2.9</speed>
<temp>0.00</temp>
<bpm>0</bpm>
<rpm>0.00</rpm>
</extensions>
</trkpt>
<trkpt lat="30.909828186" lon="34.778129578">
<ele>469.703125</ele>
<time>2013-11-20T09:09:14Z</time>
<speed>1.410000</speed>
<extensions>
<speed>1.4</speed>
<temp>0.00</temp>
<bpm>0</bpm>
<rpm>0.00</rpm>
</extensions>
</trkpt>
<trkpt lat="30.909814835" lon="34.778072357">
<ele>469.085938</ele>
<time>2013-11-20T09:09:19Z</time>
<speed>1.880000</speed>
<extensions>
<speed>1.9</speed>
<temp>0.00</temp>
<bpm>0</bpm>
<rpm>0.00</rpm>
</extensions>
</trkpt>
<trkpt lat="30.909751892" lon="34.777996063">
<ele>468.125000</ele>
<time>2013-11-20T09:09:24Z</time>
<speed>2.540000</speed>
<extensions>
<speed>2.5</speed>
<temp>0.00</temp>
<bpm>0</bpm>
<rpm>0.00</rpm>
</extensions>
</trkpt>
<trkpt lat="30.909639359" lon="34.777999878">
<ele>468.507813</ele>
<time>2013-11-20T09:09:29Z</time>
<speed>2.110000</speed>
<extensions>
<speed>2.1</speed>
<temp>0.00</temp>
<bpm>0</bpm>
<rpm>0.00</rpm>
</extensions>
</trkpt>
<trkpt lat="30.909505844" lon="34.778018951">
<ele>468.429688</ele>
<time>2013-11-20T09:09:34Z</time>
<speed>3.290000</speed>
<extensions>
<speed>3.3</speed>
<temp>0.00</temp>
<bpm>0</bpm>
<rpm>0.00</rpm>
</extensions>
</trkpt>
<trkpt lat="30.909328461" lon="34.778041840">
<ele>468.695313</ele>
<time>2013-11-20T09:09:39Z</time>
<speed>4.180000</speed>
<extensions>
<speed>4.2</speed>
<temp>0.00</temp>
<bpm>0</bpm>
<rpm>0.00</rpm>
</extensions>
</trkpt>
<trkpt lat="30.909132004" lon="34.778064728">
<ele>468.351563</ele>
<time>2013-11-20T09:09:44Z</time>
<speed>4.120000</speed>
<extensions>
<speed>4.1</speed>
<temp>0.00</temp>
<bpm>0</bpm>
<rpm>0.00</rpm>
</extensions>
</trkpt>
<trkpt lat="30.908916473" lon="34.778018951">
<ele>469.140625</ele>
<time>2013-11-20T09:09:49Z</time>
<speed>5.180000</speed>
<extensions>
<speed>5.2</speed>
<temp>0.00</temp>
<bpm>0</bpm>
<rpm>0.00</rpm>
</extensions>
</trkpt>
<trkpt lat="30.908697128" lon="34.777893066">
<ele>472.265625</ele>
<time>2013-11-20T09:09:54Z</time>
<speed>5.230000</speed>
<extensions>
<speed>5.2</speed>
<temp>0.00</temp>
<bpm>0</bpm>
<rpm>0.00</rpm>
</extensions>
</trkpt>
<trkpt lat="30.908544540" lon="34.777694702">
<ele>472.953125</ele>
<time>2013-11-20T09:09:59Z</time>
<speed>4.710000</speed>
<extensions>
<speed>4.7</speed>
<temp>0.00</temp>
<bpm>0</bpm>
<rpm>0.00</rpm>
</extensions>
</trkpt>
<trkpt lat="30.908470154" lon="34.777439117">
<ele>472.625000</ele>
<time>2013-11-20T09:10:04Z</time>
<speed>5.160000</speed>
<extensions>
<speed>5.2</speed>
<temp>0.00</temp>
<bpm>0</bpm>
<rpm>0.00</rpm>
</extensions>
</trkpt>
<trkpt lat="30.908355713" lon="34.777206421">
<ele>472.789063</ele>
<time>2013-11-20T09:10:09Z</time>
<speed>5.310000</speed>
<extensions>
<speed>5.3</speed>
<temp>0.00</temp>
<bpm>0</bpm>
<rpm>0.00</rpm>
</extensions>
</trkpt>
<trkpt lat="30.908214569" lon="34.777000427">
<ele>474.640625</ele>
<time>2013-11-20T09:10:14Z</time>
<speed>4.970000</speed>
<extensions>
<speed>5.0</speed>
<temp>0.00</temp>
<bpm>0</bpm>
<rpm>0.00</rpm>
</extensions>
</trkpt>
<trkpt lat="30.908088684" lon="34.776824951">
<ele>474.906250</ele>
<time>2013-11-20T09:10:19Z</time>
<speed>3.800000</speed>
<extensions>
<speed>3.8</speed>
<temp>0.00</temp>
<bpm>0</bpm>
<rpm>0.00</rpm>
</extensions>
</trkpt>
<trkpt lat="30.907976151" lon="34.776657104">
<ele>475.070313</ele>
<time>2013-11-20T09:10:24Z</time>
<speed>4.530000</speed>
<extensions>
<speed>4.5</speed>
<temp>0.00</temp>
<bpm>0</bpm>
<rpm>0.00</rpm>
</extensions>
</trkpt>
<trkpt lat="30.907833099" lon="34.776443481">
<ele>475.750000</ele>
<time>2013-11-20T09:10:29Z</time>
<speed>4.890000</speed>
<extensions>
<speed>4.9</speed>
<temp>0.00</temp>
<bpm>0</bpm>
<rpm>0.00</rpm>
</extensions>
</trkpt>
<trkpt lat="30.907711029" lon="34.776275635">
<ele>477.390625</ele>
<time>2013-11-20T09:10:34Z</time>
<speed>4.210000</speed>
<extensions>
<speed>4.2</speed>
<temp>0.00</temp>
<bpm>0</bpm>
<rpm>0.00</rpm>
</extensions>
</trkpt>
<trkpt lat="30.907573700" lon="34.776069641">
<ele>478.890625</ele>
<time>2013-11-20T09:10:39Z</time>
<speed>4.480000</speed>
<extensions>
<speed>4.5</speed>
<temp>0.00</temp>
<bpm>0</bpm>
<rpm>0.00</rpm>
</extensions>
</trkpt>
<trkpt lat="30.907501221" lon="34.775856018">
<ele>476.132813</ele>
<time>2013-11-20T09:10:44Z</time>
<speed>4.590000</speed>
<extensions>
<speed>4.6</speed>
<temp>0.00</temp>
<bpm>0</bpm>
<rpm>0.00</rpm>
</extensions>
</trkpt>
<trkpt lat="30.907491684" lon="34.775623322">
<ele>477.257813</ele>
<time>2013-11-20T09:10:49Z</time>
<speed>4.750000</speed>
<extensions>
<speed>4.8</speed>
<temp>0.00</temp>
<bpm>0</bpm>
<rpm>0.00</rpm>
</extensions>
</trkpt>
<trkpt lat="30.907426834" lon="34.775341034">
<ele>473.843750</ele>
<time>2013-11-20T09:10:54Z</time>
<speed>5.450000</speed>
<extensions>
<speed>5.5</speed>
<temp>0.00</temp>
<bpm>0</bpm>
<rpm>0.00</rpm>
</extensions>
</trkpt>
<trkpt lat="30.907327652" lon="34.775077820">
<ele>472.835938</ele>
<time>2013-11-20T09:10:59Z</time>
<speed>5.480000</speed>
<extensions>
<speed>5.5</speed>
<temp>0.00</temp>
<bpm>0</bpm>
<rpm>0.00</rpm>
</extensions>
</trkpt>
<trkpt lat="30.907173157" lon="34.774826050">
<ele>471.843750</ele>
<time>2013-11-20T09:11:04Z</time>
<speed>6.090000</speed>
<extensions>
<speed>6.1</speed>
<temp>0.00</temp>
<bpm>0</bpm>
<rpm>0.00</rpm>
</extensions>
</trkpt>
<trkpt lat="30.907011032" lon="34.774589539">
<ele>471.000000</ele>
<time>2013-11-20T09:11:09Z</time>
<speed>5.420000</speed>
<extensions>
<speed>5.4</speed>
<temp>0.00</temp>
<bpm>0</bpm>
<rpm>0.00</rpm>
</extensions>
</trkpt>
<trkpt lat="30.906879425" lon="34.774349213">
<ele>470.445313</ele>
<time>2013-11-20T09:11:14Z</time>
<speed>5.230000</speed>
<extensions>
<speed>5.2</speed>
<temp>0.00</temp>
<bpm>0</bpm>
<rpm>0.00</rpm>
</extensions>
</trkpt>
<trkpt lat="30.906785965" lon="34.774070740">
<ele>466.328125</ele>
<time>2013-11-20T09:11:19Z</time>
<speed>6.260000</speed>
<extensions>
<speed>6.3</speed>
<temp>0.00</temp>
<bpm>0</bpm>
<rpm>0.00</rpm>
</extensions>
</trkpt>
<trkpt lat="30.906635284" lon="34.773792267">
<ele>464.265625</ele>
<time>2013-11-20T09:11:24Z</time>
<speed>6.400000</speed>
<extensions>
<speed>6.4</speed>
<temp>0.00</temp>
<bpm>0</bpm>
<rpm>0.00</rpm>
</extensions>
</trkpt>
<trkpt lat="30.906440735" lon="34.773574829">
<ele>464.593750</ele>
<time>2013-11-20T09:11:29Z</time>
<speed>5.700000</speed>
<extensions>
<speed>5.7</speed>
<temp>0.00</temp>
<bpm>0</bpm>
<rpm>0.00</rpm>
</extensions>
</trkpt>
<trkpt lat="30.906282425" lon="34.773376465">
<ele>465.273438</ele>
<time>2013-11-20T09:11:34Z</time>
<speed>4.820000</speed>
<extensions>
<speed>4.8</speed>
<temp>0.00</temp>
<bpm>0</bpm>
<rpm>0.00</rpm>
</extensions>
</trkpt>
<trkpt lat="30.906167984" lon="34.773170471">
<ele>465.343750</ele>
<time>2013-11-20T09:11:39Z</time>
<speed>4.090000</speed>
<extensions>
<speed>4.1</speed>
<temp>0.00</temp>
<bpm>0</bpm>
<rpm>0.00</rpm>
</extensions>
</trkpt>
<trkpt lat="30.906169891" lon="34.772956848">
<ele>460.867188</ele>
<time>2013-11-20T09:11:44Z</time>
<speed>4.060000</speed>
<extensions>
<speed>4.1</speed>
<temp>0.00</temp>
<bpm>0</bpm>
<rpm>0.00</rpm>
</extensions>
</trkpt>
<trkpt lat="30.906187057" lon="34.772716522">
<ele>456.421875</ele>
<time>2013-11-20T09:11:49Z</time>
<speed>5.010000</speed>
<extensions>
<speed>5.0</speed>
<temp>0.00</temp>
<bpm>0</bpm>
<rpm>0.00</rpm>
</extensions>
</trkpt>
<trkpt lat="30.906238556" lon="34.772464752">
<ele>456.179688</ele>
<time>2013-11-20T09:11:54Z</time>
<speed>4.280000</speed>
<extensions>
<speed>4.3</speed>
<temp>0.00</temp>
<bpm>0</bpm>
<rpm>0.00</rpm>
</extensions>
</trkpt>
<trkpt lat="30.906187057" lon="34.772285461">
<ele>457.031250</ele>
<time>2013-11-20T09:11:59Z</time>
<speed>4.760000</speed>
<extensions>
<speed>4.8</speed>
<temp>0.00</temp>
<bpm>0</bpm>
<rpm>0.00</rpm>
</extensions>
</trkpt>
<trkpt lat="30.905988693" lon="34.772216797">
<ele>458.656250</ele>
<time>2013-11-20T09:12:04Z</time>
<speed>4.940000</speed>
<extensions>
<speed>4.9</speed>
<temp>0.00</temp>
<bpm>0</bpm>
<rpm>0.00</rpm>
</extensions>
</trkpt>
<trkpt lat="30.905811310" lon="34.772140503">
<ele>460.632813</ele>
<time>2013-11-20T09:12:09Z</time>
<speed>3.910000</speed>
<extensions>
<speed>3.9</speed>
<temp>0.00</temp>
<bpm>0</bpm>
<rpm>0.00</rpm>
</extensions>
</trkpt>
<trkpt lat="30.905641556" lon="34.772075653">
<ele>462.453125</ele>
<time>2013-11-20T09:12:14Z</time>
<speed>4.080000</speed>
<extensions>
<speed>4.1</speed>
<temp>0.00</temp>
<bpm>0</bpm>
<rpm>0.00</rpm>
</extensions>
</trkpt>
<trkpt lat="30.905458450" lon="34.772018433">
<ele>463.304688</ele>
<time>2013-11-20T09:12:19Z</time>
<speed>3.960000</speed>
<extensions>
<speed>4.0</speed>
<temp>0.00</temp>
<bpm>0</bpm>
<rpm>0.00</rpm>
</extensions>
</trkpt>
<trkpt lat="30.905275345" lon="34.771961212">
<ele>464.460938</ele>
<time>2013-11-20T09:12:24Z</time>
<speed>3.930000</speed>
<extensions>
<speed>3.9</speed>
<temp>0.00</temp>
<bpm>0</bpm>
<rpm>0.00</rpm>
</extensions>
</trkpt>
<trkpt lat="30.905101776" lon="34.771919250">
<ele>465.625000</ele>
<time>2013-11-20T09:12:29Z</time>
<speed>3.640000</speed>
<extensions>
<speed>3.6</speed>
<temp>0.00</temp>
<bpm>0</bpm>
<rpm>0.00</rpm>
</extensions>
</trkpt>
<trkpt lat="30.904933929" lon="34.771877289">
<ele>466.515625</ele>
<time>2013-11-20T09:12:34Z</time>
<speed>4.040000</speed>
<extensions>
<speed>4.0</speed>
<temp>0.00</temp>
<bpm>0</bpm>
<rpm>0.00</rpm>
</extensions>
</trkpt>
<trkpt lat="30.904735565" lon="34.771781921">
<ele>464.437500</ele>
<time>2013-11-20T09:12:39Z</time>
<speed>5.360000</speed>
<extensions>
<speed>5.4</speed>
<temp>0.00</temp>
<bpm>0</bpm>
<rpm>0.00</rpm>
</extensions>
</trkpt>
<trkpt lat="30.904506683" lon="34.771675110">
<ele>464.054688</ele>
<time>2013-11-20T09:12:44Z</time>
<speed>5.830000</speed>
<extensions>
<speed>5.8</speed>
<temp>0.00</temp>
<bpm>0</bpm>
<rpm>0.00</rpm>
</extensions>
</trkpt>
<trkpt lat="30.904289246" lon="34.771541595">
<ele>465.421875</ele>
<time>2013-11-20T09:12:49Z</time>
<speed>5.170000</speed>
<extensions>
<speed>5.2</speed>
<temp>0.00</temp>
<bpm>0</bpm>
<rpm>0.00</rpm>
</extensions>
</trkpt>
<trkpt lat="30.904073715" lon="34.771465302">
<ele>467.937500</ele>
<time>2013-11-20T09:12:54Z</time>
<speed>4.430000</speed>
<extensions>
<speed>4.4</speed>
<temp>0.00</temp>
<bpm>0</bpm>
<rpm>0.00</rpm>
</extensions>
</trkpt>
<trkpt lat="30.903892517" lon="34.771392822">
<ele>467.765625</ele>
<time>2013-11-20T09:12:59Z</time>
<speed>4.230000</speed>
<extensions>
<speed>4.2</speed>
<temp>0.00</temp>
<bpm>0</bpm>
<rpm>0.00</rpm>
</extensions>
</trkpt>
<trkpt lat="30.903709412" lon="34.771320343">
<ele>468.875000</ele>
<time>2013-11-20T09:13:04Z</time>
<speed>4.160000</speed>
<extensions>
<speed>4.2</speed>
<temp>0.00</temp>
<bpm>0</bpm>
<rpm>0.00</rpm>
</extensions>
</trkpt>
<trkpt lat="30.903543472" lon="34.771270752">
<ele>469.648438</ele>
<time>2013-11-20T09:13:09Z</time>
<speed>4.130000</speed>
<extensions>
<speed>4.1</speed>
<temp>0.00</temp>
<bpm>0</bpm>
<rpm>0.00</rpm>
</extensions>
</trkpt>
<trkpt lat="30.903335571" lon="34.771205902">
<ele>467.773438</ele>
<time>2013-11-20T09:13:14Z</time>
<speed>5.440000</speed>
<extensions>
<speed>5.4</speed>
<temp>0.00</temp>
<bpm>0</bpm>
<rpm>0.00</rpm>
</extensions>
</trkpt>
<trkpt lat="30.903108597" lon="34.771171570">
<ele>466.664063</ele>
<time>2013-11-20T09:13:19Z</time>
<speed>5.750000</speed>
<extensions>
<speed>5.8</speed>
<temp>0.00</temp>
<bpm>0</bpm>
<rpm>0.00</rpm>
</extensions>
</trkpt>
<trkpt lat="30.902917862" lon="34.771068573">
<ele>467.250000</ele>
<time>2013-11-20T09:13:24Z</time>
<speed>4.270000</speed>
<extensions>
<speed>4.3</speed>
<temp>0.00</temp>
<bpm>0</bpm>
<rpm>0.00</rpm>
</extensions>
</trkpt>
<trkpt lat="30.902740479" lon="34.770999908">
<ele>466.601563</ele>
<time>2013-11-20T09:13:29Z</time>
<speed>5.050000</speed>
<extensions>
<speed>5.1</speed>
<temp>0.00</temp>
<bpm>0</bpm>
<rpm>0.00</rpm>
</extensions>
</trkpt>
<trkpt lat="30.902490616" lon="34.770908356">
<ele>464.539063</ele>
<time>2013-11-20T09:13:34Z</time>
<speed>5.940000</speed>
<extensions>
<speed>5.9</speed>
<temp>0.00</temp>
<bpm>0</bpm>
<rpm>0.00</rpm>
</extensions>
</trkpt>
<trkpt lat="30.902273178" lon="34.770828247">
<ele>461.781250</ele>
<time>2013-11-20T09:13:39Z</time>
<speed>4.310000</speed>
<extensions>
<speed>4.3</speed>
<temp>0.00</temp>
<bpm>0</bpm>
<rpm>0.00</rpm>
</extensions>
</trkpt>
<trkpt lat="30.902154922" lon="34.770809174">
<ele>461.210938</ele>
<time>2013-11-20T09:13:44Z</time>
<speed>0.360000</speed>
<extensions>
<speed>0.4</speed>
<temp>0.00</temp>
<bpm>0</bpm>
<rpm>0.00</rpm>
</extensions>
</trkpt>
<trkpt lat="30.902160645" lon="34.770797729">
<ele>460.953125</ele>
<time>2013-11-20T09:13:49Z</time>
<speed>0.080000</speed>
<extensions>
<speed>0.1</speed>
<temp>0.00</temp>
<bpm>0</bpm>
<rpm>0.00</rpm>
</extensions>
</trkpt>
<trkpt lat="30.902162552" lon="34.770797729">
<ele>460.921875</ele>
<time>2013-11-20T09:13:54Z</time>
<speed>0.060000</speed>
<extensions>
<speed>0.1</speed>
<temp>0.00</temp>
<bpm>0</bpm>
<rpm>0.00</rpm>
</extensions>
</trkpt>
<trkpt lat="30.902162552" lon="34.770790100">
<ele>460.945313</ele>
<time>2013-11-20T09:13:59Z</time>
<speed>0.160000</speed>
<extensions>
<speed>0.2</speed>
<temp>0.00</temp>
<bpm>0</bpm>
<rpm>0.00</rpm>
</extensions>
</trkpt>
<trkpt lat="30.902135849" lon="34.770790100">
<ele>460.843750</ele>
<time>2013-11-20T09:14:04Z</time>
<speed>1.320000</speed>
<extensions>
<speed>1.3</speed>
<temp>0.00</temp>
<bpm>0</bpm>
<rpm>0.00</rpm>
</extensions>
</trkpt>
<trkpt lat="30.902101517" lon="34.770767212">
<ele>460.335938</ele>
<time>2013-11-20T09:14:09Z</time>
<speed>0.030000</speed>
<extensions>
<speed>0.0</speed>
<temp>0.00</temp>
<bpm>0</bpm>
<rpm>0.00</rpm>
</extensions>
</trkpt>
<trkpt lat="30.902099609" lon="34.770763397">
<ele>460.328125</ele>
<time>2013-11-20T09:14:14Z</time>
<speed>0.010000</speed>
<extensions>
<speed>0.0</speed>
<temp>0.00</temp>
<bpm>0</bpm>
<rpm>0.00</rpm>
</extensions>
</trkpt>
<trkpt lat="30.902021408" lon="34.770755768">
<ele>460.695313</ele>
<time>2013-11-20T09:14:19Z</time>
<speed>2.560000</speed>
<extensions>
<speed>2.6</speed>
<temp>0.00</temp>
<bpm>0</bpm>
<rpm>0.00</rpm>
</extensions>
</trkpt>
<trkpt lat="30.901865005" lon="34.770793915">
<ele>461.234375</ele>
<time>2013-11-20T09:14:24Z</time>
<speed>3.470000</speed>
<extensions>
<speed>3.5</speed>
<temp>0.00</temp>
<bpm>0</bpm>
<rpm>0.00</rpm>
</extensions>
</trkpt>
<trkpt lat="30.901679993" lon="34.770858765">
<ele>460.460938</ele>
<time>2013-11-20T09:14:29Z</time>
<speed>4.550000</speed>
<extensions>
<speed>4.5</speed>
<temp>0.00</temp>
<bpm>0</bpm>
<rpm>0.00</rpm>
</extensions>
</trkpt>
<trkpt lat="30.901464462" lon="34.770938873">
<ele>459.414063</ele>
<time>2013-11-20T09:14:34Z</time>
<speed>5.330000</speed>
<extensions>
<speed>5.3</speed>
<temp>0.00</temp>
<bpm>0</bpm>
<rpm>0.00</rpm>
</extensions>
</trkpt>
<trkpt lat="30.901222229" lon="34.771045685">
<ele>457.468750</ele>
<time>2013-11-20T09:14:39Z</time>
<speed>6.260000</speed>
<extensions>
<speed>6.3</speed>
<temp>0.00</temp>
<bpm>0</bpm>
<rpm>0.00</rpm>
</extensions>
</trkpt>
<trkpt lat="30.900976181" lon="34.771156311">
<ele>458.234375</ele>
<time>2013-11-20T09:14:44Z</time>
<speed>5.310000</speed>
<extensions>
<speed>5.3</speed>
<temp>0.00</temp>
<bpm>0</bpm>
<rpm>0.00</rpm>
</extensions>
</trkpt>
<trkpt lat="30.900745392" lon="34.771244049">
<ele>458.304688</ele>
<time>2013-11-20T09:14:49Z</time>
<speed>5.480000</speed>
<extensions>
<speed>5.5</speed>
<temp>0.00</temp>
<bpm>0</bpm>
<rpm>0.00</rpm>
</extensions>
</trkpt>
<trkpt lat="30.900512695" lon="34.771324158">
<ele>458.125000</ele>
<time>2013-11-20T09:14:54Z</time>
<speed>5.180000</speed>
<extensions>
<speed>5.2</speed>
<temp>0.00</temp>
<bpm>0</bpm>
<rpm>0.00</rpm>
</extensions>
</trkpt>
<trkpt lat="30.900278091" lon="34.771404266">
<ele>458.140625</ele>
<time>2013-11-20T09:14:59Z</time>
<speed>5.240000</speed>
<extensions>
<speed>5.2</speed>
<temp>0.00</temp>
<bpm>0</bpm>
<rpm>0.00</rpm>
</extensions>
</trkpt>
<trkpt lat="30.900062561" lon="34.771476746">
<ele>457.757813</ele>
<time>2013-11-20T09:15:04Z</time>
<speed>5.020000</speed>
<extensions>
<speed>5.0</speed>
<temp>0.00</temp>
<bpm>0</bpm>
<rpm>0.00</rpm>
</extensions>
</trkpt>
<trkpt lat="30.899837494" lon="34.771533966">
<ele>457.906250</ele>
<time>2013-11-20T09:15:09Z</time>
<speed>4.970000</speed>
<extensions>
<speed>5.0</speed>
<temp>0.00</temp>
<bpm>0</bpm>
<rpm>0.00</rpm>
</extensions>
</trkpt>
<trkpt lat="30.899606705" lon="34.771602631">
<ele>458.062500</ele>
<time>2013-11-20T09:15:14Z</time>
<speed>5.070000</speed>
<extensions>
<speed>5.1</speed>
<temp>0.00</temp>
<bpm>0</bpm>
<rpm>0.00</rpm>
</extensions>
</trkpt>
<trkpt lat="30.899387360" lon="34.771663666">
<ele>457.984375</ele>
<time>2013-11-20T09:15:19Z</time>
<speed>5.320000</speed>
<extensions>
<speed>5.3</speed>
<temp>0.00</temp>
<bpm>0</bpm>
<rpm>0.00</rpm>
</extensions>
</trkpt>
<trkpt lat="30.899169922" lon="34.771743774">
<ele>458.421875</ele>
<time>2013-11-20T09:15:24Z</time>
<speed>4.830000</speed>
<extensions>
<speed>4.8</speed>
<temp>0.00</temp>
<bpm>0</bpm>
<rpm>0.00</rpm>
</extensions>
</trkpt>
<trkpt lat="30.898967743" lon="34.771823883">
<ele>459.046875</ele>
<time>2013-11-20T09:15:29Z</time>
<speed>4.810000</speed>
<extensions>
<speed>4.8</speed>
<temp>0.00</temp>
<bpm>0</bpm>
<rpm>0.00</rpm>
</extensions>
</trkpt>
<trkpt lat="30.898748398" lon="34.771900177">
<ele>458.445313</ele>
<time>2013-11-20T09:15:34Z</time>
<speed>5.330000</speed>
<extensions>
<speed>5.3</speed>
<temp>0.00</temp>
<bpm>0</bpm>
<rpm>0.00</rpm>
</extensions>
</trkpt>
<trkpt lat="30.898525238" lon="34.771980286">
<ele>458.203125</ele>
<time>2013-11-20T09:15:39Z</time>
<speed>5.040000</speed>
<extensions>
<speed>5.0</speed>
<temp>0.00</temp>
<bpm>0</bpm>
<rpm>0.00</rpm>
</extensions>
</trkpt>
<trkpt lat="30.898307800" lon="34.772048950">
<ele>457.742188</ele>
<time>2013-11-20T09:15:44Z</time>
<speed>5.450000</speed>
<extensions>
<speed>5.5</speed>
<temp>0.00</temp>
<bpm>0</bpm>
<rpm>0.00</rpm>
</extensions>
</trkpt>
<trkpt lat="30.898073196" lon="34.772132874">
<ele>457.085938</ele>
<time>2013-11-20T09:15:49Z</time>
<speed>5.030000</speed>
<extensions>
<speed>5.0</speed>
<temp>0.00</temp>
<bpm>0</bpm>
<rpm>0.00</rpm>
</extensions>
</trkpt>
<trkpt lat="30.897863388" lon="34.772197723">
<ele>457.195313</ele>
<time>2013-11-20T09:15:54Z</time>
<speed>5.100000</speed>
<extensions>
<speed>5.1</speed>
<temp>0.00</temp>
<bpm>0</bpm>
<rpm>0.00</rpm>
</extensions>
</trkpt>
<trkpt lat="30.897638321" lon="34.772285461">
<ele>456.578125</ele>
<time>2013-11-20T09:15:59Z</time>
<speed>5.180000</speed>
<extensions>
<speed>5.2</speed>
<temp>0.00</temp>
<bpm>0</bpm>
<rpm>0.00</rpm>
</extensions>
</trkpt>
<trkpt lat="30.897434235" lon="34.772369385">
<ele>457.148438</ele>
<time>2013-11-20T09:16:04Z</time>
<speed>4.700000</speed>
<extensions>
<speed>4.7</speed>
<temp>0.00</temp>
<bpm>0</bpm>
<rpm>0.00</rpm>
</extensions>
</trkpt>
<trkpt lat="30.897216797" lon="34.772483826">
<ele>456.515625</ele>
<time>2013-11-20T09:16:09Z</time>
<speed>5.810000</speed>
<extensions>
<speed>5.8</speed>
<temp>0.00</temp>
<bpm>0</bpm>
<rpm>0.00</rpm>
</extensions>
</trkpt>
<trkpt lat="30.896953583" lon="34.772502899">
<ele>455.375000</ele>
<time>2013-11-20T09:16:14Z</time>
<speed>6.100000</speed>
<extensions>
<speed>6.1</speed>
<temp>0.00</temp>
<bpm>0</bpm>
<rpm>0.00</rpm>
</extensions>
</trkpt>
<trkpt lat="30.896715164" lon="34.772544861">
<ele>455.773438</ele>
<time>2013-11-20T09:16:19Z</time>
<speed>4.820000</speed>
<extensions>
<speed>4.8</speed>
<temp>0.00</temp>
<bpm>0</bpm>
<rpm>0.00</rpm>
</extensions>
</trkpt>
<trkpt lat="30.896488190" lon="34.772617340">
<ele>456.031250</ele>
<time>2013-11-20T09:16:24Z</time>
<speed>5.090000</speed>
<extensions>
<speed>5.1</speed>
<temp>0.00</temp>
<bpm>0</bpm>
<rpm>0.00</rpm>
</extensions>
</trkpt>
<trkpt lat="30.896282196" lon="34.772727966">
<ele>455.484375</ele>
<time>2013-11-20T09:16:29Z</time>
<speed>5.010000</speed>
<extensions>
<speed>5.0</speed>
<temp>0.00</temp>
<bpm>0</bpm>
<rpm>0.00</rpm>
</extensions>
</trkpt>
<trkpt lat="30.896099091" lon="34.772819519">
<ele>455.882813</ele>
<time>2013-11-20T09:16:34Z</time>
<speed>4.640000</speed>
<extensions>
<speed>4.6</speed>
<temp>0.00</temp>
<bpm>0</bpm>
<rpm>0.00</rpm>
</extensions>
</trkpt>
<trkpt lat="30.895887375" lon="34.772891998">
<ele>456.937500</ele>
<time>2013-11-20T09:16:39Z</time>
<speed>4.660000</speed>
<extensions>
<speed>4.7</speed>
<temp>0.00</temp>
<bpm>0</bpm>
<rpm>0.00</rpm>
</extensions>
</trkpt>
<trkpt lat="30.895685196" lon="34.772964478">
<ele>457.750000</ele>
<time>2013-11-20T09:16:44Z</time>
<speed>4.740000</speed>
<extensions>
<speed>4.7</speed>
<temp>0.00</temp>
<bpm>0</bpm>
<rpm>0.00</rpm>
</extensions>
</trkpt>
<trkpt lat="30.895492554" lon="34.773063660">
<ele>457.460938</ele>
<time>2013-11-20T09:16:49Z</time>
<speed>4.890000</speed>
<extensions>
<speed>4.9</speed>
<temp>0.00</temp>
<bpm>0</bpm>
<rpm>0.00</rpm>
</extensions>
</trkpt>
<trkpt lat="30.895292282" lon="34.773128510">
<ele>458.257813</ele>
<time>2013-11-20T09:16:54Z</time>
<speed>4.510000</speed>
<extensions>
<speed>4.5</speed>
<temp>0.00</temp>
<bpm>0</bpm>
<rpm>0.00</rpm>
</extensions>
</trkpt>
<trkpt lat="30.895101547" lon="34.773197174">
<ele>459.031250</ele>
<time>2013-11-20T09:16:59Z</time>
<speed>4.230000</speed>
<extensions>
<speed>4.2</speed>
<temp>0.00</temp>
<bpm>0</bpm>
<rpm>0.00</rpm>
</extensions>
</trkpt>
<trkpt lat="30.894903183" lon="34.773265839">
<ele>458.226563</ele>
<time>2013-11-20T09:17:04Z</time>
<speed>4.670000</speed>
<extensions>
<speed>4.7</speed>
<temp>0.00</temp>
<bpm>0</bpm>
<rpm>0.00</rpm>
</extensions>
</trkpt>
<trkpt lat="30.894720078" lon="34.773330688">
<ele>458.601563</ele>
<time>2013-11-20T09:17:09Z</time>
<speed>4.390000</speed>
<extensions>
<speed>4.4</speed>
<temp>0.00</temp>
<bpm>0</bpm>
<rpm>0.00</rpm>
</extensions>
</trkpt>
<trkpt lat="30.894525528" lon="34.773391724">
<ele>458.546875</ele>
<time>2013-11-20T09:17:14Z</time>
<speed>4.400000</speed>
<extensions>
<speed>4.4</speed>
<temp>0.00</temp>
<bpm>0</bpm>
<rpm>0.00</rpm>
</extensions>
</trkpt>
<trkpt lat="30.894340515" lon="34.773460388">
<ele>459.648438</ele>
<time>2013-11-20T09:17:19Z</time>
<speed>4.530000</speed>
<extensions>
<speed>4.5</speed>
<temp>0.00</temp>
<bpm>0</bpm>
<rpm>0.00</rpm>
</extensions>
</trkpt>
<trkpt lat="30.894142151" lon="34.773529053">
<ele>459.867188</ele>
<time>2013-11-20T09:17:24Z</time>
<speed>4.650000</speed>
<extensions>
<speed>4.6</speed>
<temp>0.00</temp>
<bpm>0</bpm>
<rpm>0.00</rpm>
</extensions>
</trkpt>
<trkpt lat="30.893945694" lon="34.773609161">
<ele>460.171875</ele>
<time>2013-11-20T09:17:29Z</time>
<speed>4.670000</speed>
<extensions>
<speed>4.7</speed>
<temp>0.00</temp>
<bpm>0</bpm>
<rpm>0.00</rpm>
</extensions>
</trkpt>
<trkpt lat="30.893733978" lon="34.773689270">
<ele>459.726563</ele>
<time>2013-11-20T09:17:34Z</time>
<speed>4.970000</speed>
<extensions>
<speed>5.0</speed>
<temp>0.00</temp>
<bpm>0</bpm>
<rpm>0.00</rpm>
</extensions>
</trkpt>
<trkpt lat="30.893508911" lon="34.773757935">
<ele>459.726563</ele>
<time>2013-11-20T09:17:39Z</time>
<speed>5.480000</speed>
<extensions>
<speed>5.5</speed>
<temp>0.00</temp>
<bpm>0</bpm>
<rpm>0.00</rpm>
</extensions>
</trkpt>
<trkpt lat="30.893283844" lon="34.773830414">
<ele>459.617188</ele>
<time>2013-11-20T09:17:44Z</time>
<speed>5.140000</speed>
<extensions>
<speed>5.1</speed>
<temp>0.00</temp>
<bpm>0</bpm>
<rpm>0.00</rpm>
</extensions>
</trkpt>
<trkpt lat="30.893074036" lon="34.773899078">
<ele>460.359375</ele>
<time>2013-11-20T09:17:49Z</time>
<speed>4.560000</speed>
<extensions>
<speed>4.6</speed>
<temp>0.00</temp>
<bpm>0</bpm>
<rpm>0.00</rpm>
</extensions>
</trkpt>
<trkpt lat="30.892869949" lon="34.773979187">
<ele>460.937500</ele>
<time>2013-11-20T09:17:54Z</time>
<speed>5.130000</speed>
<extensions>
<speed>5.1</speed>
<temp>0.00</temp>
<bpm>0</bpm>
<rpm>0.00</rpm>
</extensions>
</trkpt>
<trkpt lat="30.892663956" lon="34.774059296">
<ele>461.648438</ele>
<time>2013-11-20T09:17:59Z</time>
<speed>4.550000</speed>
<extensions>
<speed>4.5</speed>
<temp>0.00</temp>
<bpm>0</bpm>
<rpm>0.00</rpm>
</extensions>
</trkpt>
<trkpt lat="30.892459869" lon="34.774127960">
<ele>462.210938</ele>
<time>2013-11-20T09:18:04Z</time>
<speed>4.220000</speed>
<extensions>
<speed>4.2</speed>
<temp>0.00</temp>
<bpm>0</bpm>
<rpm>0.00</rpm>
</extensions>
</trkpt>
<trkpt lat="30.892251968" lon="34.774204254">
<ele>461.601563</ele>
<time>2013-11-20T09:18:09Z</time>
<speed>4.620000</speed>
<extensions>
<speed>4.6</speed>
<temp>0.00</temp>
<bpm>0</bpm>
<rpm>0.00</rpm>
</extensions>
</trkpt>
<trkpt lat="30.892036438" lon="34.774250031">
<ele>461.687500</ele>
<time>2013-11-20T09:18:14Z</time>
<speed>4.940000</speed>
<extensions>
<speed>4.9</speed>
<temp>0.00</temp>
<bpm>0</bpm>
<rpm>0.00</rpm>
</extensions>
</trkpt>
<trkpt lat="30.891830444" lon="34.774326324">
<ele>461.835938</ele>
<time>2013-11-20T09:18:19Z</time>
<speed>5.000000</speed>
<extensions>
<speed>5.0</speed>
<temp>0.00</temp>
<bpm>0</bpm>
<rpm>0.00</rpm>
</extensions>
</trkpt>
<trkpt lat="30.891605377" lon="34.774398804">
<ele>461.250000</ele>
<time>2013-11-20T09:18:24Z</time>
<speed>5.450000</speed>
<extensions>
<speed>5.5</speed>
<temp>0.00</temp>
<bpm>0</bpm>
<rpm>0.00</rpm>
</extensions>
</trkpt>
<trkpt lat="30.891384125" lon="34.774490356">
<ele>461.125000</ele>
<time>2013-11-20T09:18:29Z</time>
<speed>4.640000</speed>
<extensions>
<speed>4.6</speed>
<temp>0.00</temp>
<bpm>0</bpm>
<rpm>0.00</rpm>
</extensions>
</trkpt>
<trkpt lat="30.891172409" lon="34.774570465">
<ele>461.125000</ele>
<time>2013-11-20T09:18:34Z</time>
<speed>5.070000</speed>
<extensions>
<speed>5.1</speed>
<temp>0.00</temp>
<bpm>0</bpm>
<rpm>0.00</rpm>
</extensions>
</trkpt>
<trkpt lat="30.890951157" lon="34.774654388">
<ele>460.718750</ele>
<time>2013-11-20T09:18:39Z</time>
<speed>4.980000</speed>
<extensions>
<speed>5.0</speed>
<temp>0.00</temp>
<bpm>0</bpm>
<rpm>0.00</rpm>
</extensions>
</trkpt>
<trkpt lat="30.890729904" lon="34.774715424">
<ele>461.101563</ele>
<time>2013-11-20T09:18:44Z</time>
<speed>5.150000</speed>
<extensions>
<speed>5.2</speed>
<temp>0.00</temp>
<bpm>0</bpm>
<rpm>0.00</rpm>
</extensions>
</trkpt>
<trkpt lat="30.890501022" lon="34.774776459">
<ele>461.031250</ele>
<time>2013-11-20T09:18:49Z</time>
<speed>5.250000</speed>
<extensions>
<speed>5.2</speed>
<temp>0.00</temp>
<bpm>0</bpm>
<rpm>0.00</rpm>
</extensions>
</trkpt>
<trkpt lat="30.890293121" lon="34.774833679">
<ele>460.929688</ele>
<time>2013-11-20T09:18:54Z</time>
<speed>4.600000</speed>
<extensions>
<speed>4.6</speed>
<temp>0.00</temp>
<bpm>0</bpm>
<rpm>0.00</rpm>
</extensions>
</trkpt>
<trkpt lat="30.890060425" lon="34.774848938">
<ele>459.992188</ele>
<time>2013-11-20T09:18:59Z</time>
<speed>4.920000</speed>
<extensions>
<speed>4.9</speed>
<temp>0.00</temp>
<bpm>0</bpm>
<rpm>0.00</rpm>
</extensions>
</trkpt>
<trkpt lat="30.889848709" lon="34.774860382">
<ele>459.328125</ele>
<time>2013-11-20T09:19:04Z</time>
<speed>4.730000</speed>
<extensions>
<speed>4.7</speed>
<temp>0.00</temp>
<bpm>0</bpm>
<rpm>0.00</rpm>
</extensions>
</trkpt>
<trkpt lat="30.889638901" lon="34.774875641">
<ele>459.281250</ele>
<time>2013-11-20T09:19:09Z</time>
<speed>4.940000</speed>
<extensions>
<speed>4.9</speed>
<temp>0.00</temp>
<bpm>0</bpm>
<rpm>0.00</rpm>
</extensions>
</trkpt>
<trkpt lat="30.889411926" lon="34.774906158">
<ele>459.445313</ele>
<time>2013-11-20T09:19:14Z</time>
<speed>4.910000</speed>
<extensions>
<speed>4.9</speed>
<temp>0.00</temp>
<bpm>0</bpm>
<rpm>0.00</rpm>
</extensions>
</trkpt>
<trkpt lat="30.889190674" lon="34.774929047">
<ele>460.132813</ele>
<time>2013-11-20T09:19:19Z</time>
<speed>4.920000</speed>
<extensions>
<speed>4.9</speed>
<temp>0.00</temp>
<bpm>0</bpm>
<rpm>0.00</rpm>
</extensions>
</trkpt>
<trkpt lat="30.888965607" lon="34.774974823">
<ele>460.468750</ele>
<time>2013-11-20T09:19:24Z</time>
<speed>5.170000</speed>
<extensions>
<speed>5.2</speed>
<temp>0.00</temp>
<bpm>0</bpm>
<rpm>0.00</rpm>
</extensions>
</trkpt>
<trkpt lat="30.888746262" lon="34.775016785">
<ele>460.625000</ele>
<time>2013-11-20T09:19:29Z</time>
<speed>4.810000</speed>
<extensions>
<speed>4.8</speed>
<temp>0.00</temp>
<bpm>0</bpm>
<rpm>0.00</rpm>
</extensions>
</trkpt>
<trkpt lat="30.888536453" lon="34.775051117">
<ele>461.031250</ele>
<time>2013-11-20T09:19:34Z</time>
<speed>4.690000</speed>
<extensions>
<speed>4.7</speed>
<temp>0.00</temp>
<bpm>0</bpm>
<rpm>0.00</rpm>
</extensions>
</trkpt>
<trkpt lat="30.888322830" lon="34.775081635">
<ele>461.031250</ele>
<time>2013-11-20T09:19:39Z</time>
<speed>5.030000</speed>
<extensions>
<speed>5.0</speed>
<temp>0.00</temp>
<bpm>0</bpm>
<rpm>0.00</rpm>
</extensions>
</trkpt>
<trkpt lat="30.888092041" lon="34.775096893">
<ele>461.500000</ele>
<time>2013-11-20T09:19:44Z</time>
<speed>4.990000</speed>
<extensions>
<speed>5.0</speed>
<temp>0.00</temp>
<bpm>0</bpm>
<rpm>0.00</rpm>
</extensions>
</trkpt>
<trkpt lat="30.887865067" lon="34.775108337">
<ele>461.765625</ele>
<time>2013-11-20T09:19:49Z</time>
<speed>5.020000</speed>
<extensions>
<speed>5.0</speed>
<temp>0.00</temp>
<bpm>0</bpm>
<rpm>0.00</rpm>
</extensions>
</trkpt>
<trkpt lat="30.887639999" lon="34.775127411">
<ele>461.710938</ele>
<time>2013-11-20T09:19:54Z</time>
<speed>4.880000</speed>
<extensions>
<speed>4.9</speed>
<temp>0.00</temp>
<bpm>0</bpm>
<rpm>0.00</rpm>
</extensions>
</trkpt>
<trkpt lat="30.887413025" lon="34.775150299">
<ele>462.429688</ele>
<time>2013-11-20T09:19:59Z</time>
<speed>5.060000</speed>
<extensions>
<speed>5.1</speed>
<temp>0.00</temp>
<bpm>0</bpm>
<rpm>0.00</rpm>
</extensions>
</trkpt>
<trkpt lat="30.887186050" lon="34.775150299">
<ele>462.570313</ele>
<time>2013-11-20T09:20:04Z</time>
<speed>4.870000</speed>
<extensions>
<speed>4.9</speed>
<temp>0.00</temp>
<bpm>0</bpm>
<rpm>0.00</rpm>
</extensions>
</trkpt>
<trkpt lat="30.886964798" lon="34.775161743">
<ele>463.648438</ele>
<time>2013-11-20T09:20:09Z</time>
<speed>4.890000</speed>
<extensions>
<speed>4.9</speed>
<temp>0.00</temp>
<bpm>0</bpm>
<rpm>0.00</rpm>
</extensions>
</trkpt>
<trkpt lat="30.886770248" lon="34.775215149">
<ele>464.859375</ele>
<time>2013-11-20T09:20:14Z</time>
<speed>4.010000</speed>
<extensions>
<speed>4.0</speed>
<temp>0.00</temp>
<bpm>0</bpm>
<rpm>0.00</rpm>
</extensions>
</trkpt>
<trkpt lat="30.886600494" lon="34.775234222">
<ele>464.578125</ele>
<time>2013-11-20T09:20:19Z</time>
<speed>4.260000</speed>
<extensions>
<speed>4.3</speed>
<temp>0.00</temp>
<bpm>0</bpm>
<rpm>0.00</rpm>
</extensions>
</trkpt>
<trkpt lat="30.886522293" lon="34.775222778">
<ele>464.039063</ele>
<time>2013-11-20T09:20:24Z</time>
<speed>0.250000</speed>
<extensions>
<speed>0.2</speed>
<temp>0.00</temp>
<bpm>0</bpm>
<rpm>0.00</rpm>
</extensions>
</trkpt>
<trkpt lat="30.886535645" lon="34.775260925">
<ele>464.031250</ele>
<time>2013-11-20T09:20:29Z</time>
<speed>1.600000</speed>
<extensions>
<speed>1.6</speed>
<temp>0.00</temp>
<bpm>0</bpm>
<rpm>0.00</rpm>
</extensions>
</trkpt>
<trkpt lat="30.886621475" lon="34.775295258">
<ele>463.914063</ele>
<time>2013-11-20T09:20:34Z</time>
<speed>1.950000</speed>
<extensions>
<speed>1.9</speed>
<temp>0.00</temp>
<bpm>0</bpm>
<rpm>0.00</rpm>
</extensions>
</trkpt>
<trkpt lat="30.886642456" lon="34.775295258">
<ele>463.406250</ele>
<time>2013-11-20T09:20:39Z</time>
<speed>0.020000</speed>
<extensions>
<speed>0.0</speed>
<temp>0.00</temp>
<bpm>0</bpm>
<rpm>0.00</rpm>
</extensions>
</trkpt>
<trkpt lat="30.886642456" lon="34.775295258">
<ele>463.445313</ele>
<time>2013-11-20T09:20:44Z</time>
<speed>0.060000</speed>
<extensions>
<speed>0.1</speed>
<temp>0.00</temp>
<bpm>0</bpm>
<rpm>0.00</rpm>
</extensions>
</trkpt>
<trkpt lat="30.886642456" lon="34.775295258">
<ele>463.390625</ele>
<time>2013-11-20T09:20:49Z</time>
<speed>0.070000</speed>
<extensions>
<speed>0.1</speed>
<temp>0.00</temp>
<bpm>0</bpm>
<rpm>0.00</rpm>
</extensions>
</trkpt>
<trkpt lat="30.886642456" lon="34.775295258">
<ele>463.382813</ele>
<time>2013-11-20T09:20:54Z</time>
<speed>0.030000</speed>
<extensions>
<speed>0.0</speed>
<temp>0.00</temp>
<bpm>0</bpm>
<rpm>0.00</rpm>
</extensions>
</trkpt>
<trkpt lat="30.886646271" lon="34.775283813">
<ele>463.156250</ele>
<time>2013-11-20T09:20:59Z</time>
<speed>0.750000</speed>
<extensions>
<speed>0.8</speed>
<temp>0.00</temp>
<bpm>0</bpm>
<rpm>0.00</rpm>
</extensions>
</trkpt>
<trkpt lat="30.886663437" lon="34.775260925">
<ele>461.976563</ele>
<time>2013-11-20T09:21:04Z</time>
<speed>0.020000</speed>
<extensions>
<speed>0.0</speed>
<temp>0.00</temp>
<bpm>0</bpm>
<rpm>0.00</rpm>
</extensions>
</trkpt>
<trkpt lat="30.886665344" lon="34.775260925">
<ele>461.671875</ele>
<time>2013-11-20T09:21:09Z</time>
<speed>0.030000</speed>
<extensions>
<speed>0.0</speed>
<temp>0.00</temp>
<bpm>0</bpm>
<rpm>0.00</rpm>
</extensions>
</trkpt>
<trkpt lat="30.886665344" lon="34.775260925">
<ele>461.687500</ele>
<time>2013-11-20T09:21:14Z</time>
<speed>0.010000</speed>
<extensions>
<speed>0.0</speed>
<temp>0.00</temp>
<bpm>0</bpm>
<rpm>0.00</rpm>
</extensions>
</trkpt>
<trkpt lat="30.886665344" lon="34.775260925">
<ele>461.671875</ele>
<time>2013-11-20T09:21:19Z</time>
<extensions>
<speed>0.0</speed>
<temp>0.00</temp>
<bpm>0</bpm>
<rpm>0.00</rpm>
</extensions>
</trkpt>
<trkpt lat="30.886665344" lon="34.775260925">
<ele>461.656250</ele>
<time>2013-11-20T09:21:24Z</time>
<speed>0.050000</speed>
<extensions>
<speed>0.1</speed>
<temp>0.00</temp>
<bpm>0</bpm>
<rpm>0.00</rpm>
</extensions>
</trkpt>
<trkpt lat="30.886665344" lon="34.775260925">
<ele>461.640625</ele>
<time>2013-11-20T09:21:29Z</time>
<speed>0.070000</speed>
<extensions>
<speed>0.1</speed>
<temp>0.00</temp>
<bpm>0</bpm>
<rpm>0.00</rpm>
</extensions>
</trkpt>
<trkpt lat="30.886665344" lon="34.775260925">
<ele>461.640625</ele>
<time>2013-11-20T09:21:34Z</time>
<speed>0.010000</speed>
<extensions>
<speed>0.0</speed>
<temp>0.00</temp>
<bpm>0</bpm>
<rpm>0.00</rpm>
</extensions>
</trkpt>
<trkpt lat="30.886665344" lon="34.775260925">
<ele>461.640625</ele>
<time>2013-11-20T09:21:39Z</time>
<speed>0.030000</speed>
<extensions>
<speed>0.0</speed>
<temp>0.00</temp>
<bpm>0</bpm>
<rpm>0.00</rpm>
</extensions>
</trkpt>
<trkpt lat="30.886665344" lon="34.775260925">
<ele>461.632813</ele>
<time>2013-11-20T09:21:44Z</time>
<speed>0.020000</speed>
<extensions>
<speed>0.0</speed>
<temp>0.00</temp>
<bpm>0</bpm>
<rpm>0.00</rpm>
</extensions>
</trkpt>
<trkpt lat="30.886661530" lon="34.775260925">
<ele>461.632813</ele>
<time>2013-11-20T09:21:49Z</time>
<speed>1.260000</speed>
<extensions>
<speed>1.3</speed>
<temp>0.00</temp>
<bpm>0</bpm>
<rpm>0.00</rpm>
</extensions>
</trkpt>
<trkpt lat="30.886543274" lon="34.775264740">
<ele>461.625000</ele>
<time>2013-11-20T09:21:54Z</time>
<speed>3.130000</speed>
<extensions>
<speed>3.1</speed>
<temp>0.00</temp>
<bpm>0</bpm>
<rpm>0.00</rpm>
</extensions>
</trkpt>
<trkpt lat="30.886375427" lon="34.775264740">
<ele>461.648438</ele>
<time>2013-11-20T09:21:59Z</time>
<speed>3.870000</speed>
<extensions>
<speed>3.9</speed>
<temp>0.00</temp>
<bpm>0</bpm>
<rpm>0.00</rpm>
</extensions>
</trkpt>
<trkpt lat="30.886186600" lon="34.775268555">
<ele>460.976563</ele>
<time>2013-11-20T09:22:04Z</time>
<speed>4.240000</speed>
<extensions>
<speed>4.2</speed>
<temp>0.00</temp>
<bpm>0</bpm>
<rpm>0.00</rpm>
</extensions>
</trkpt>
<trkpt lat="30.885997772" lon="34.775283813">
<ele>460.031250</ele>
<time>2013-11-20T09:22:09Z</time>
<speed>3.990000</speed>
<extensions>
<speed>4.0</speed>
<temp>0.00</temp>
<bpm>0</bpm>
<rpm>0.00</rpm>
</extensions>
</trkpt>
<trkpt lat="30.885795593" lon="34.775276184">
<ele>459.968750</ele>
<time>2013-11-20T09:22:14Z</time>
<speed>4.360000</speed>
<extensions>
<speed>4.4</speed>
<temp>0.00</temp>
<bpm>0</bpm>
<rpm>0.00</rpm>
</extensions>
</trkpt>
<trkpt lat="30.885587692" lon="34.775260925">
<ele>459.906250</ele>
<time>2013-11-20T09:22:19Z</time>
<speed>4.400000</speed>
<extensions>
<speed>4.4</speed>
<temp>0.00</temp>
<bpm>0</bpm>
<rpm>0.00</rpm>
</extensions>
</trkpt>
<trkpt lat="30.885375977" lon="34.775291443">
<ele>460.015625</ele>
<time>2013-11-20T09:22:24Z</time>
<speed>4.710000</speed>
<extensions>
<speed>4.7</speed>
<temp>0.00</temp>
<bpm>0</bpm>
<rpm>0.00</rpm>
</extensions>
</trkpt>
<trkpt lat="30.885162354" lon="34.775325775">
<ele>458.976563</ele>
<time>2013-11-20T09:22:29Z</time>
<speed>4.880000</speed>
<extensions>
<speed>4.9</speed>
<temp>0.00</temp>
<bpm>0</bpm>
<rpm>0.00</rpm>
</extensions>
</trkpt>
<trkpt lat="30.884956360" lon="34.775337219">
<ele>458.398438</ele>
<time>2013-11-20T09:22:34Z</time>
<speed>3.890000</speed>
<extensions>
<speed>3.9</speed>
<temp>0.00</temp>
<bpm>0</bpm>
<rpm>0.00</rpm>
</extensions>
</trkpt>
<trkpt lat="30.884777069" lon="34.775352478">
<ele>457.960938</ele>
<time>2013-11-20T09:22:39Z</time>
<speed>4.030000</speed>
<extensions>
<speed>4.0</speed>
<temp>0.00</temp>
<bpm>0</bpm>
<rpm>0.00</rpm>
</extensions>
</trkpt>
<trkpt lat="30.884609222" lon="34.775386810">
<ele>458.250000</ele>
<time>2013-11-20T09:22:44Z</time>
<speed>3.860000</speed>
<extensions>
<speed>3.9</speed>
<temp>0.00</temp>
<bpm>0</bpm>
<rpm>0.00</rpm>
</extensions>
</trkpt>
<trkpt lat="30.884435654" lon="34.775386810">
<ele>455.375000</ele>
<time>2013-11-20T09:22:49Z</time>
<speed>4.400000</speed>
<extensions>
<speed>4.4</speed>
<temp>0.00</temp>
<bpm>0</bpm>
<rpm>0.00</rpm>
</extensions>
</trkpt>
<trkpt lat="30.884220123" lon="34.775409698">
<ele>458.203125</ele>
<time>2013-11-20T09:22:54Z</time>
<speed>4.860000</speed>
<extensions>
<speed>4.9</speed>
<temp>0.00</temp>
<bpm>0</bpm>
<rpm>0.00</rpm>
</extensions>
</trkpt>
<trkpt lat="30.883995056" lon="34.775440216">
<ele>457.203125</ele>
<time>2013-11-20T09:22:59Z</time>
<speed>4.770000</speed>
<extensions>
<speed>4.8</speed>
<temp>0.00</temp>
<bpm>0</bpm>
<rpm>0.00</rpm>
</extensions>
</trkpt>
<trkpt lat="30.883792877" lon="34.775535583">
<ele>456.593750</ele>
<time>2013-11-20T09:23:04Z</time>
<speed>4.890000</speed>
<extensions>
<speed>4.9</speed>
<temp>0.00</temp>
<bpm>0</bpm>
<rpm>0.00</rpm>
</extensions>
</trkpt>
<trkpt lat="30.883586884" lon="34.775558472">
<ele>456.226563</ele>
<time>2013-11-20T09:23:09Z</time>
<speed>4.580000</speed>
<extensions>
<speed>4.6</speed>
<temp>0.00</temp>
<bpm>0</bpm>
<rpm>0.00</rpm>
</extensions>
</trkpt>
<trkpt lat="30.883386612" lon="34.775577545">
<ele>455.703125</ele>
<time>2013-11-20T09:23:14Z</time>
<speed>4.830000</speed>
<extensions>
<speed>4.8</speed>
<temp>0.00</temp>
<bpm>0</bpm>
<rpm>0.00</rpm>
</extensions>
</trkpt>
<trkpt lat="30.883157730" lon="34.775611877">
<ele>455.234375</ele>
<time>2013-11-20T09:23:19Z</time>
<speed>5.200000</speed>
<extensions>
<speed>5.2</speed>
<temp>0.00</temp>
<bpm>0</bpm>
<rpm>0.00</rpm>
</extensions>
</trkpt>
<trkpt lat="30.882951736" lon="34.775745392">
<ele>455.187500</ele>
<time>2013-11-20T09:23:24Z</time>
<speed>5.040000</speed>
<extensions>
<speed>5.0</speed>
<temp>0.00</temp>
<bpm>0</bpm>
<rpm>0.00</rpm>
</extensions>
</trkpt>
<trkpt lat="30.882764816" lon="34.775871277">
<ele>455.273438</ele>
<time>2013-11-20T09:23:29Z</time>
<speed>4.880000</speed>
<extensions>
<speed>4.9</speed>
<temp>0.00</temp>
<bpm>0</bpm>
<rpm>0.00</rpm>
</extensions>
</trkpt>
<trkpt lat="30.882585526" lon="34.776035309">
<ele>455.781250</ele>
<time>2013-11-20T09:23:34Z</time>
<speed>5.180000</speed>
<extensions>
<speed>5.2</speed>
<temp>0.00</temp>
<bpm>0</bpm>
<rpm>0.00</rpm>
</extensions>
</trkpt>
<trkpt lat="30.882427216" lon="34.776180267">
<ele>456.429688</ele>
<time>2013-11-20T09:23:39Z</time>
<speed>4.310000</speed>
<extensions>
<speed>4.3</speed>
<temp>0.00</temp>
<bpm>0</bpm>
<rpm>0.00</rpm>
</extensions>
</trkpt>
<trkpt lat="30.882272720" lon="34.776371002">
<ele>458.703125</ele>
<time>2013-11-20T09:23:44Z</time>
<speed>4.640000</speed>
<extensions>
<speed>4.6</speed>
<temp>0.00</temp>
<bpm>0</bpm>
<rpm>0.00</rpm>
</extensions>
</trkpt>
<trkpt lat="30.882114410" lon="34.776535034">
<ele>459.953125</ele>
<time>2013-11-20T09:23:49Z</time>
<speed>4.870000</speed>
<extensions>
<speed>4.9</speed>
<temp>0.00</temp>
<bpm>0</bpm>
<rpm>0.00</rpm>
</extensions>
</trkpt>
<trkpt lat="30.881975174" lon="34.776741028">
<ele>461.398438</ele>
<time>2013-11-20T09:23:54Z</time>
<speed>5.360000</speed>
<extensions>
<speed>5.4</speed>
<temp>0.00</temp>
<bpm>0</bpm>
<rpm>0.00</rpm>
</extensions>
</trkpt>
<trkpt lat="30.881860733" lon="34.776947021">
<ele>461.476563</ele>
<time>2013-11-20T09:23:59Z</time>
<speed>4.820000</speed>
<extensions>
<speed>4.8</speed>
<temp>0.00</temp>
<bpm>0</bpm>
<rpm>0.00</rpm>
</extensions>
</trkpt>
<trkpt lat="30.881742477" lon="34.777160645">
<ele>462.500000</ele>
<time>2013-11-20T09:24:04Z</time>
<speed>4.590000</speed>
<extensions>
<speed>4.6</speed>
<temp>0.00</temp>
<bpm>0</bpm>
<rpm>0.00</rpm>
</extensions>
</trkpt>
<trkpt lat="30.881614685" lon="34.777343750">
<ele>463.625000</ele>
<time>2013-11-20T09:24:09Z</time>
<speed>4.440000</speed>
<extensions>
<speed>4.4</speed>
<temp>0.00</temp>
<bpm>0</bpm>
<rpm>0.00</rpm>
</extensions>
</trkpt>
<trkpt lat="30.881486893" lon="34.777538300">
<ele>465.406250</ele>
<time>2013-11-20T09:24:14Z</time>
<speed>4.900000</speed>
<extensions>
<speed>4.9</speed>
<temp>0.00</temp>
<bpm>0</bpm>
<rpm>0.00</rpm>
</extensions>
</trkpt>
<trkpt lat="30.881368637" lon="34.777748108">
<ele>466.031250</ele>
<time>2013-11-20T09:24:19Z</time>
<speed>4.700000</speed>
<extensions>
<speed>4.7</speed>
<temp>0.00</temp>
<bpm>0</bpm>
<rpm>0.00</rpm>
</extensions>
</trkpt>
<trkpt lat="30.881248474" lon="34.777965546">
<ele>466.414063</ele>
<time>2013-11-20T09:24:24Z</time>
<speed>5.010000</speed>
<extensions>
<speed>5.0</speed>
<temp>0.00</temp>
<bpm>0</bpm>
<rpm>0.00</rpm>
</extensions>
</trkpt>
<trkpt lat="30.881166458" lon="34.778217316">
<ele>468.906250</ele>
<time>2013-11-20T09:24:29Z</time>
<speed>4.990000</speed>
<extensions>
<speed>5.0</speed>
<temp>0.00</temp>
<bpm>0</bpm>
<rpm>0.00</rpm>
</extensions>
</trkpt>
<trkpt lat="30.881101608" lon="34.778465271">
<ele>469.859375</ele>
<time>2013-11-20T09:24:34Z</time>
<speed>4.990000</speed>
<extensions>
<speed>5.0</speed>
<temp>0.00</temp>
<bpm>0</bpm>
<rpm>0.00</rpm>
</extensions>
</trkpt>
<trkpt lat="30.881011963" lon="34.778678894">
<ele>468.875000</ele>
<time>2013-11-20T09:24:39Z</time>
<speed>5.370000</speed>
<extensions>
<speed>5.4</speed>
<temp>0.00</temp>
<bpm>0</bpm>
<rpm>0.00</rpm>
</extensions>
</trkpt>
<trkpt lat="30.880874634" lon="34.778888702">
<ele>467.796875</ele>
<time>2013-11-20T09:24:44Z</time>
<speed>4.540000</speed>
<extensions>
<speed>4.5</speed>
<temp>0.00</temp>
<bpm>0</bpm>
<rpm>0.00</rpm>
</extensions>
</trkpt>
<trkpt lat="30.880756378" lon="34.779090881">
<ele>466.179688</ele>
<time>2013-11-20T09:24:49Z</time>
<speed>4.550000</speed>
<extensions>
<speed>4.5</speed>
<temp>0.00</temp>
<bpm>0</bpm>
<rpm>0.00</rpm>
</extensions>
</trkpt>
<trkpt lat="30.880624771" lon="34.779273987">
<ele>465.429688</ele>
<time>2013-11-20T09:24:54Z</time>
<speed>4.690000</speed>
<extensions>
<speed>4.7</speed>
<temp>0.00</temp>
<bpm>0</bpm>
<rpm>0.00</rpm>
</extensions>
</trkpt>
<trkpt lat="30.880510330" lon="34.779499054">
<ele>466.414063</ele>
<time>2013-11-20T09:24:59Z</time>
<speed>4.650000</speed>
<extensions>
<speed>4.6</speed>
<temp>0.00</temp>
<bpm>0</bpm>
<rpm>0.00</rpm>
</extensions>
</trkpt>
<trkpt lat="30.880414963" lon="34.779697418">
<ele>469.171875</ele>
<time>2013-11-20T09:25:04Z</time>
<speed>4.760000</speed>
<extensions>
<speed>4.8</speed>
<temp>0.00</temp>
<bpm>0</bpm>
<rpm>0.00</rpm>
</extensions>
</trkpt>
<trkpt lat="30.880308151" lon="34.779914856">
<ele>470.734375</ele>
<time>2013-11-20T09:25:09Z</time>
<speed>4.520000</speed>
<extensions>
<speed>4.5</speed>
<temp>0.00</temp>
<bpm>0</bpm>
<rpm>0.00</rpm>
</extensions>
</trkpt>
<trkpt lat="30.880189896" lon="34.780094147">
<ele>472.312500</ele>
<time>2013-11-20T09:25:14Z</time>
<speed>4.630000</speed>
<extensions>
<speed>4.6</speed>
<temp>0.00</temp>
<bpm>0</bpm>
<rpm>0.00</rpm>
</extensions>
</trkpt>
<trkpt lat="30.880067825" lon="34.780288696">
<ele>473.414063</ele>
<time>2013-11-20T09:25:19Z</time>
<speed>4.550000</speed>
<extensions>
<speed>4.5</speed>
<temp>0.00</temp>
<bpm>0</bpm>
<rpm>0.00</rpm>
</extensions>
</trkpt>
<trkpt lat="30.879955292" lon="34.780498505">
<ele>474.406250</ele>
<time>2013-11-20T09:25:24Z</time>
<speed>4.640000</speed>
<extensions>
<speed>4.6</speed>
<temp>0.00</temp>
<bpm>0</bpm>
<rpm>0.00</rpm>
</extensions>
</trkpt>
<trkpt lat="30.879852295" lon="34.780715942">
<ele>475.031250</ele>
<time>2013-11-20T09:25:29Z</time>
<speed>4.710000</speed>
<extensions>
<speed>4.7</speed>
<temp>0.00</temp>
<bpm>0</bpm>
<rpm>0.00</rpm>
</extensions>
</trkpt>
<trkpt lat="30.879753113" lon="34.780918121">
<ele>474.007813</ele>
<time>2013-11-20T09:25:34Z</time>
<speed>4.940000</speed>
<extensions>
<speed>4.9</speed>
<temp>0.00</temp>
<bpm>0</bpm>
<rpm>0.00</rpm>
</extensions>
</trkpt>
<trkpt lat="30.879640579" lon="34.781143188">
<ele>474.523438</ele>
<time>2013-11-20T09:25:39Z</time>
<speed>4.710000</speed>
<extensions>
<speed>4.7</speed>
<temp>0.00</temp>
<bpm>0</bpm>
<rpm>0.00</rpm>
</extensions>
</trkpt>
<trkpt lat="30.879516602" lon="34.781333923">
<ele>472.687500</ele>
<time>2013-11-20T09:25:44Z</time>
<speed>4.800000</speed>
<extensions>
<speed>4.8</speed>
<temp>0.00</temp>
<bpm>0</bpm>
<rpm>0.00</rpm>
</extensions>
</trkpt>
<trkpt lat="30.879409790" lon="34.781528473">
<ele>472.125000</ele>
<time>2013-11-20T09:25:49Z</time>
<speed>4.350000</speed>
<extensions>
<speed>4.3</speed>
<temp>0.00</temp>
<bpm>0</bpm>
<rpm>0.00</rpm>
</extensions>
</trkpt>
<trkpt lat="30.879312515" lon="34.781719208">
<ele>473.562500</ele>
<time>2013-11-20T09:25:54Z</time>
<speed>3.820000</speed>
<extensions>
<speed>3.8</speed>
<temp>0.00</temp>
<bpm>0</bpm>
<rpm>0.00</rpm>
</extensions>
</trkpt>
<trkpt lat="30.879215240" lon="34.781894684">
<ele>472.601563</ele>
<time>2013-11-20T09:25:59Z</time>
<speed>3.820000</speed>
<extensions>
<speed>3.8</speed>
<temp>0.00</temp>
<bpm>0</bpm>
<rpm>0.00</rpm>
</extensions>
</trkpt>
<trkpt lat="30.879119873" lon="34.782085419">
<ele>473.250000</ele>
<time>2013-11-20T09:26:04Z</time>
<speed>4.340000</speed>
<extensions>
<speed>4.3</speed>
<temp>0.00</temp>
<bpm>0</bpm>
<rpm>0.00</rpm>
</extensions>
</trkpt>
<trkpt lat="30.879018784" lon="34.782287598">
<ele>471.781250</ele>
<time>2013-11-20T09:26:09Z</time>
<speed>4.490000</speed>
<extensions>
<speed>4.5</speed>
<temp>0.00</temp>
<bpm>0</bpm>
<rpm>0.00</rpm>
</extensions>
</trkpt>
<trkpt lat="30.878902435" lon="34.782447815">
<ele>468.359375</ele>
<time>2013-11-20T09:26:14Z</time>
<speed>3.750000</speed>
<extensions>
<speed>3.8</speed>
<temp>0.00</temp>
<bpm>0</bpm>
<rpm>0.00</rpm>
</extensions>
</trkpt>
<trkpt lat="30.878793716" lon="34.782627106">
<ele>470.031250</ele>
<time>2013-11-20T09:26:19Z</time>
<speed>4.280000</speed>
<extensions>
<speed>4.3</speed>
<temp>0.00</temp>
<bpm>0</bpm>
<rpm>0.00</rpm>
</extensions>
</trkpt>
<trkpt lat="30.878721237" lon="34.782810211">
<ele>468.757813</ele>
<time>2013-11-20T09:26:24Z</time>
<speed>3.720000</speed>
<extensions>
<speed>3.7</speed>
<temp>0.00</temp>
<bpm>0</bpm>
<rpm>0.00</rpm>
</extensions>
</trkpt>
<trkpt lat="30.878631592" lon="34.782989502">
<ele>467.632813</ele>
<time>2013-11-20T09:26:29Z</time>
<speed>4.050000</speed>
<extensions>
<speed>4.0</speed>
<temp>0.00</temp>
<bpm>0</bpm>
<rpm>0.00</rpm>
</extensions>
</trkpt>
<trkpt lat="30.878532410" lon="34.783180237">
<ele>468.062500</ele>
<time>2013-11-20T09:26:34Z</time>
<speed>4.290000</speed>
<extensions>
<speed>4.3</speed>
<temp>0.00</temp>
<bpm>0</bpm>
<rpm>0.00</rpm>
</extensions>
</trkpt>
<trkpt lat="30.878419876" lon="34.783351898">
<ele>468.109375</ele>
<time>2013-11-20T09:26:39Z</time>
<speed>3.820000</speed>
<extensions>
<speed>3.8</speed>
<temp>0.00</temp>
<bpm>0</bpm>
<rpm>0.00</rpm>
</extensions>
</trkpt>
<trkpt lat="30.878335953" lon="34.783500671">
<ele>468.226563</ele>
<time>2013-11-20T09:26:44Z</time>
<speed>3.790000</speed>
<extensions>
<speed>3.8</speed>
<temp>0.00</temp>
<bpm>0</bpm>
<rpm>0.00</rpm>
</extensions>
</trkpt>
<trkpt lat="30.878238678" lon="34.783702850">
<ele>468.273438</ele>
<time>2013-11-20T09:26:49Z</time>
<speed>4.640000</speed>
<extensions>
<speed>4.6</speed>
<temp>0.00</temp>
<bpm>0</bpm>
<rpm>0.00</rpm>
</extensions>
</trkpt>
<trkpt lat="30.878133774" lon="34.783870697">
<ele>467.859375</ele>
<time>2013-11-20T09:26:54Z</time>
<speed>3.740000</speed>
<extensions>
<speed>3.7</speed>
<temp>0.00</temp>
<bpm>0</bpm>
<rpm>0.00</rpm>
</extensions>
</trkpt>
<trkpt lat="30.878019333" lon="34.784023285">
<ele>468.531250</ele>
<time>2013-11-20T09:26:59Z</time>
<speed>3.720000</speed>
<extensions>
<speed>3.7</speed>
<temp>0.00</temp>
<bpm>0</bpm>
<rpm>0.00</rpm>
</extensions>
</trkpt>
<trkpt lat="30.877880096" lon="34.784137726">
<ele>470.000000</ele>
<time>2013-11-20T09:27:04Z</time>
<speed>3.990000</speed>
<extensions>
<speed>4.0</speed>
<temp>0.00</temp>
<bpm>0</bpm>
<rpm>0.00</rpm>
</extensions>
</trkpt>
<trkpt lat="30.877740860" lon="34.784259796">
<ele>470.351563</ele>
<time>2013-11-20T09:27:09Z</time>
<speed>4.290000</speed>
<extensions>
<speed>4.3</speed>
<temp>0.00</temp>
<bpm>0</bpm>
<rpm>0.00</rpm>
</extensions>
</trkpt>
<trkpt lat="30.877614975" lon="34.784393311">
<ele>469.367188</ele>
<time>2013-11-20T09:27:14Z</time>
<speed>3.490000</speed>
<extensions>
<speed>3.5</speed>
<temp>0.00</temp>
<bpm>0</bpm>
<rpm>0.00</rpm>
</extensions>
</trkpt>
<trkpt lat="30.877470016" lon="34.784477234">
<ele>471.046875</ele>
<time>2013-11-20T09:27:19Z</time>
<speed>4.150000</speed>
<extensions>
<speed>4.1</speed>
<temp>0.00</temp>
<bpm>0</bpm>
<rpm>0.00</rpm>
</extensions>
</trkpt>
<trkpt lat="30.877326965" lon="34.784614563">
<ele>472.101563</ele>
<time>2013-11-20T09:27:24Z</time>
<speed>4.080000</speed>
<extensions>
<speed>4.1</speed>
<temp>0.00</temp>
<bpm>0</bpm>
<rpm>0.00</rpm>
</extensions>
</trkpt>
<trkpt lat="30.877231598" lon="34.784782410">
<ele>471.804688</ele>
<time>2013-11-20T09:27:29Z</time>
<speed>4.160000</speed>
<extensions>
<speed>4.2</speed>
<temp>0.00</temp>
<bpm>0</bpm>
<rpm>0.00</rpm>
</extensions>
</trkpt>
<trkpt lat="30.877084732" lon="34.784950256">
<ele>473.039063</ele>
<time>2013-11-20T09:27:34Z</time>
<speed>3.980000</speed>
<extensions>
<speed>4.0</speed>
<temp>0.00</temp>
<bpm>0</bpm>
<rpm>0.00</rpm>
</extensions>
</trkpt>
<trkpt lat="30.876947403" lon="34.785087585">
<ele>473.906250</ele>
<time>2013-11-20T09:27:39Z</time>
<speed>3.500000</speed>
<extensions>
<speed>3.5</speed>
<temp>0.00</temp>
<bpm>0</bpm>
<rpm>0.00</rpm>
</extensions>
</trkpt>
<trkpt lat="30.876825333" lon="34.785209656">
<ele>472.929688</ele>
<time>2013-11-20T09:27:44Z</time>
<speed>3.530000</speed>
<extensions>
<speed>3.5</speed>
<temp>0.00</temp>
<bpm>0</bpm>
<rpm>0.00</rpm>
</extensions>
</trkpt>
<trkpt lat="30.876689911" lon="34.785358429">
<ele>472.953125</ele>
<time>2013-11-20T09:27:49Z</time>
<speed>3.480000</speed>
<extensions>
<speed>3.5</speed>
<temp>0.00</temp>
<bpm>0</bpm>
<rpm>0.00</rpm>
</extensions>
</trkpt>
<trkpt lat="30.876585007" lon="34.785507202">
<ele>470.476563</ele>
<time>2013-11-20T09:27:54Z</time>
<speed>3.050000</speed>
<extensions>
<speed>3.0</speed>
<temp>0.00</temp>
<bpm>0</bpm>
<rpm>0.00</rpm>
</extensions>
</trkpt>
<trkpt lat="30.876424789" lon="34.785655975">
<ele>469.648438</ele>
<time>2013-11-20T09:27:59Z</time>
<speed>3.810000</speed>
<extensions>
<speed>3.8</speed>
<temp>0.00</temp>
<bpm>0</bpm>
<rpm>0.00</rpm>
</extensions>
</trkpt>
<trkpt lat="30.876243591" lon="34.785793304">
<ele>470.101563</ele>
<time>2013-11-20T09:28:04Z</time>
<speed>3.530000</speed>
<extensions>
<speed>3.5</speed>
<temp>0.00</temp>
<bpm>0</bpm>
<rpm>0.00</rpm>
</extensions>
</trkpt>
<trkpt lat="30.876091003" lon="34.785919189">
<ele>469.570313</ele>
<time>2013-11-20T09:28:09Z</time>
<speed>4.330000</speed>
<extensions>
<speed>4.3</speed>
<temp>0.00</temp>
<bpm>0</bpm>
<rpm>0.00</rpm>
</extensions>
</trkpt>
<trkpt lat="30.875921249" lon="34.786140442">
<ele>466.742188</ele>
<time>2013-11-20T09:28:14Z</time>
<speed>5.780000</speed>
<extensions>
<speed>5.8</speed>
<temp>0.00</temp>
<bpm>0</bpm>
<rpm>0.00</rpm>
</extensions>
</trkpt>
<trkpt lat="30.875757217" lon="34.786323547">
<ele>462.960938</ele>
<time>2013-11-20T09:28:19Z</time>
<speed>4.650000</speed>
<extensions>
<speed>4.6</speed>
<temp>0.00</temp>
<bpm>0</bpm>
<rpm>0.00</rpm>
</extensions>
</trkpt>
<trkpt lat="30.875574112" lon="34.786449432">
<ele>462.484375</ele>
<time>2013-11-20T09:28:24Z</time>
<speed>4.430000</speed>
<extensions>
<speed>4.4</speed>
<temp>0.00</temp>
<bpm>0</bpm>
<rpm>0.00</rpm>
</extensions>
</trkpt>
<trkpt lat="30.875402451" lon="34.786563873">
<ele>467.406250</ele>
<time>2013-11-20T09:28:29Z</time>
<speed>3.200000</speed>
<extensions>
<speed>3.2</speed>
<temp>0.00</temp>
<bpm>0</bpm>
<rpm>0.00</rpm>
</extensions>
</trkpt>
<trkpt lat="30.875297546" lon="34.786582947">
<ele>471.968750</ele>
<time>2013-11-20T09:28:34Z</time>
<speed>1.170000</speed>
<extensions>
<speed>1.2</speed>
<temp>0.00</temp>
<bpm>0</bpm>
<rpm>0.00</rpm>
</extensions>
</trkpt>
<trkpt lat="30.875268936" lon="34.786491394">
<ele>472.937500</ele>
<time>2013-11-20T09:28:39Z</time>
<speed>2.760000</speed>
<extensions>
<speed>2.8</speed>
<temp>0.00</temp>
<bpm>0</bpm>
<rpm>0.00</rpm>
</extensions>
</trkpt>
<trkpt lat="30.875198364" lon="34.786354065">
<ele>475.140625</ele>
<time>2013-11-20T09:28:44Z</time>
<speed>3.080000</speed>
<extensions>
<speed>3.1</speed>
<temp>0.00</temp>
<bpm>0</bpm>
<rpm>0.00</rpm>
</extensions>
</trkpt>
<trkpt lat="30.875101089" lon="34.786224365">
<ele>476.843750</ele>
<time>2013-11-20T09:28:49Z</time>
<speed>2.900000</speed>
<extensions>
<speed>2.9</speed>
<temp>0.00</temp>
<bpm>0</bpm>
<rpm>0.00</rpm>
</extensions>
</trkpt>
<trkpt lat="30.874975204" lon="34.786067963">
<ele>471.445313</ele>
<time>2013-11-20T09:28:54Z</time>
<speed>3.870000</speed>
<extensions>
<speed>3.9</speed>
<temp>0.00</temp>
<bpm>0</bpm>
<rpm>0.00</rpm>
</extensions>
</trkpt>
<trkpt lat="30.874862671" lon="34.785919189">
<ele>468.578125</ele>
<time>2013-11-20T09:28:59Z</time>
<speed>3.300000</speed>
<extensions>
<speed>3.3</speed>
<temp>0.00</temp>
<bpm>0</bpm>
<rpm>0.00</rpm>
</extensions>
</trkpt>
<trkpt lat="30.874776840" lon="34.785804749">
<ele>468.476563</ele>
<time>2013-11-20T09:29:04Z</time>
<speed>2.660000</speed>
<extensions>
<speed>2.7</speed>
<temp>0.00</temp>
<bpm>0</bpm>
<rpm>0.00</rpm>
</extensions>
</trkpt>
<trkpt lat="30.874706268" lon="34.785717010">
<ele>468.164063</ele>
<time>2013-11-20T09:29:09Z</time>
<speed>2.000000</speed>
<extensions>
<speed>2.0</speed>
<temp>0.00</temp>
<bpm>0</bpm>
<rpm>0.00</rpm>
</extensions>
</trkpt>
<trkpt lat="30.874650955" lon="34.785640717">
<ele>468.554688</ele>
<time>2013-11-20T09:29:14Z</time>
<speed>1.990000</speed>
<extensions>
<speed>2.0</speed>
<temp>0.00</temp>
<bpm>0</bpm>
<rpm>0.00</rpm>
</extensions>
</trkpt>
<trkpt lat="30.874660492" lon="34.785545349">
<ele>466.007813</ele>
<time>2013-11-20T09:29:19Z</time>
<speed>2.910000</speed>
<extensions>
<speed>2.9</speed>
<temp>0.00</temp>
<bpm>0</bpm>
<rpm>0.00</rpm>
</extensions>
</trkpt>
<trkpt lat="30.874626160" lon="34.785465240">
<ele>465.953125</ele>
<time>2013-11-20T09:29:24Z</time>
<speed>1.900000</speed>
<extensions>
<speed>1.9</speed>
<temp>0.00</temp>
<bpm>0</bpm>
<rpm>0.00</rpm>
</extensions>
</trkpt>
<trkpt lat="30.874511719" lon="34.785358429">
<ele>465.851563</ele>
<time>2013-11-20T09:29:29Z</time>
<speed>3.500000</speed>
<extensions>
<speed>3.5</speed>
<temp>0.00</temp>
<bpm>0</bpm>
<rpm>0.00</rpm>
</extensions>
</trkpt>
<trkpt lat="30.874385834" lon="34.785221100">
<ele>465.718750</ele>
<time>2013-11-20T09:29:34Z</time>
<speed>3.180000</speed>
<extensions>
<speed>3.2</speed>
<temp>0.00</temp>
<bpm>0</bpm>
<rpm>0.00</rpm>
</extensions>
</trkpt>
<trkpt lat="30.874292374" lon="34.785156250">
<ele>468.281250</ele>
<time>2013-11-20T09:29:39Z</time>
<speed>2.680000</speed>
<extensions>
<speed>2.7</speed>
<temp>0.00</temp>
<bpm>0</bpm>
<rpm>0.00</rpm>
</extensions>
</trkpt>
<trkpt lat="30.874198914" lon="34.785049438">
<ele>469.601563</ele>
<time>2013-11-20T09:29:44Z</time>
<speed>1.480000</speed>
<extensions>
<speed>1.5</speed>
<temp>0.00</temp>
<bpm>0</bpm>
<rpm>0.00</rpm>
</extensions>
</trkpt>
<trkpt lat="30.874135971" lon="34.784950256">
<ele>470.281250</ele>
<time>2013-11-20T09:29:49Z</time>
<speed>2.040000</speed>
<extensions>
<speed>2.0</speed>
<temp>0.00</temp>
<bpm>0</bpm>
<rpm>0.00</rpm>
</extensions>
</trkpt>
<trkpt lat="30.874094009" lon="34.784851074">
<ele>470.914063</ele>
<time>2013-11-20T09:29:54Z</time>
<speed>1.750000</speed>
<extensions>
<speed>1.8</speed>
<temp>0.00</temp>
<bpm>0</bpm>
<rpm>0.00</rpm>
</extensions>
</trkpt>
<trkpt lat="30.874046326" lon="34.784751892">
<ele>470.468750</ele>
<time>2013-11-20T09:29:59Z</time>
<speed>1.540000</speed>
<extensions>
<speed>1.5</speed>
<temp>0.00</temp>
<bpm>0</bpm>
<rpm>0.00</rpm>
</extensions>
</trkpt>
<trkpt lat="30.873987198" lon="34.784694672">
<ele>468.593750</ele>
<time>2013-11-20T09:30:04Z</time>
<speed>1.420000</speed>
<extensions>
<speed>1.4</speed>
<temp>0.00</temp>
<bpm>0</bpm>
<rpm>0.00</rpm>
</extensions>
</trkpt>
<trkpt lat="30.873922348" lon="34.784652710">
<ele>470.203125</ele>
<time>2013-11-20T09:30:09Z</time>
<speed>1.870000</speed>
<extensions>
<speed>1.9</speed>
<temp>0.00</temp>
<bpm>0</bpm>
<rpm>0.00</rpm>
</extensions>
</trkpt>
<trkpt lat="30.873849869" lon="34.784595490">
<ele>471.828125</ele>
<time>2013-11-20T09:30:14Z</time>
<speed>1.610000</speed>
<extensions>
<speed>1.6</speed>
<temp>0.00</temp>
<bpm>0</bpm>
<rpm>0.00</rpm>
</extensions>
</trkpt>
<trkpt lat="30.873754501" lon="34.784511566">
<ele>472.601563</ele>
<time>2013-11-20T09:30:19Z</time>
<speed>3.030000</speed>
<extensions>
<speed>3.0</speed>
<temp>0.00</temp>
<bpm>0</bpm>
<rpm>0.00</rpm>
</extensions>
</trkpt>
<trkpt lat="30.873659134" lon="34.784420013">
<ele>475.937500</ele>
<time>2013-11-20T09:30:24Z</time>
<speed>3.410000</speed>
<extensions>
<speed>3.4</speed>
<temp>0.00</temp>
<bpm>0</bpm>
<rpm>0.00</rpm>
</extensions>
</trkpt>
<trkpt lat="30.873571396" lon="34.784309387">
<ele>476.062500</ele>
<time>2013-11-20T09:30:29Z</time>
<speed>3.440000</speed>
<extensions>
<speed>3.4</speed>
<temp>0.00</temp>
<bpm>0</bpm>
<rpm>0.00</rpm>
</extensions>
</trkpt>
<trkpt lat="30.873447418" lon="34.784183502">
<ele>476.968750</ele>
<time>2013-11-20T09:30:34Z</time>
<speed>3.380000</speed>
<extensions>
<speed>3.4</speed>
<temp>0.00</temp>
<bpm>0</bpm>
<rpm>0.00</rpm>
</extensions>
</trkpt>
<trkpt lat="30.873325348" lon="34.784061432">
<ele>479.054688</ele>
<time>2013-11-20T09:30:39Z</time>
<speed>3.210000</speed>
<extensions>
<speed>3.2</speed>
<temp>0.00</temp>
<bpm>0</bpm>
<rpm>0.00</rpm>
</extensions>
</trkpt>
<trkpt lat="30.873174667" lon="34.783908844">
<ele>480.406250</ele>
<time>2013-11-20T09:30:44Z</time>
<speed>3.740000</speed>
<extensions>
<speed>3.7</speed>
<temp>0.00</temp>
<bpm>0</bpm>
<rpm>0.00</rpm>
</extensions>
</trkpt>
<trkpt lat="30.873048782" lon="34.783779144">
<ele>479.695313</ele>
<time>2013-11-20T09:30:49Z</time>
<speed>3.070000</speed>
<extensions>
<speed>3.1</speed>
<temp>0.00</temp>
<bpm>0</bpm>
<rpm>0.00</rpm>
</extensions>
</trkpt>
<trkpt lat="30.872932434" lon="34.783672333">
<ele>480.500000</ele>
<time>2013-11-20T09:30:54Z</time>
<speed>3.520000</speed>
<extensions>
<speed>3.5</speed>
<temp>0.00</temp>
<bpm>0</bpm>
<rpm>0.00</rpm>
</extensions>
</trkpt>
<trkpt lat="30.872852325" lon="34.783588409">
<ele>482.195313</ele>
<time>2013-11-20T09:30:59Z</time>
<speed>2.320000</speed>
<extensions>
<speed>2.3</speed>
<temp>0.00</temp>
<bpm>0</bpm>
<rpm>0.00</rpm>
</extensions>
</trkpt>
<trkpt lat="30.872728348" lon="34.783527374">
<ele>483.273438</ele>
<time>2013-11-20T09:31:04Z</time>
<speed>3.540000</speed>
<extensions>
<speed>3.5</speed>
<temp>0.00</temp>
<bpm>0</bpm>
<rpm>0.00</rpm>
</extensions>
</trkpt>
<trkpt lat="30.872608185" lon="34.783409119">
<ele>481.585938</ele>
<time>2013-11-20T09:31:09Z</time>
<speed>2.750000</speed>
<extensions>
<speed>2.7</speed>
<temp>0.00</temp>
<bpm>0</bpm>
<rpm>0.00</rpm>
</extensions>
</trkpt>
<trkpt lat="30.872514725" lon="34.783267975">
<ele>479.515625</ele>
<time>2013-11-20T09:31:14Z</time>
<speed>3.110000</speed>
<extensions>
<speed>3.1</speed>
<temp>0.00</temp>
<bpm>0</bpm>
<rpm>0.00</rpm>
</extensions>
</trkpt>
<trkpt lat="30.872375488" lon="34.783130646">
<ele>478.765625</ele>
<time>2013-11-20T09:31:19Z</time>
<speed>3.840000</speed>
<extensions>
<speed>3.8</speed>
<temp>0.00</temp>
<bpm>0</bpm>
<rpm>0.00</rpm>
</extensions>
</trkpt>
<trkpt lat="30.872249603" lon="34.782989502">
<ele>478.382813</ele>
<time>2013-11-20T09:31:24Z</time>
<speed>4.510000</speed>
<extensions>
<speed>4.5</speed>
<temp>0.00</temp>
<bpm>0</bpm>
<rpm>0.00</rpm>
</extensions>
</trkpt>
<trkpt lat="30.872133255" lon="34.782836914">
<ele>477.750000</ele>
<time>2013-11-20T09:31:29Z</time>
<speed>3.600000</speed>
<extensions>
<speed>3.6</speed>
<temp>0.00</temp>
<bpm>0</bpm>
<rpm>0.00</rpm>
</extensions>
</trkpt>
<trkpt lat="30.872053146" lon="34.782737732">
<ele>475.335938</ele>
<time>2013-11-20T09:31:34Z</time>
<speed>1.800000</speed>
<extensions>
<speed>1.8</speed>
<temp>0.00</temp>
<bpm>0</bpm>
<rpm>0.00</rpm>
</extensions>
</trkpt>
<trkpt lat="30.871959686" lon="34.782688141">
<ele>473.132813</ele>
<time>2013-11-20T09:31:39Z</time>
<speed>2.600000</speed>
<extensions>
<speed>2.6</speed>
<temp>0.00</temp>
<bpm>0</bpm>
<rpm>0.00</rpm>
</extensions>
</trkpt>
<trkpt lat="30.871835709" lon="34.782596588">
<ele>473.781250</ele>
<time>2013-11-20T09:31:44Z</time>
<speed>3.140000</speed>
<extensions>
<speed>3.1</speed>
<temp>0.00</temp>
<bpm>0</bpm>
<rpm>0.00</rpm>
</extensions>
</trkpt>
<trkpt lat="30.871755600" lon="34.782417297">
<ele>473.437500</ele>
<time>2013-11-20T09:31:49Z</time>
<speed>4.240000</speed>
<extensions>
<speed>4.2</speed>
<temp>0.00</temp>
<bpm>0</bpm>
<rpm>0.00</rpm>
</extensions>
</trkpt>
<trkpt lat="30.871654510" lon="34.782257080">
<ele>473.343750</ele>
<time>2013-11-20T09:31:54Z</time>
<speed>3.740000</speed>
<extensions>
<speed>3.7</speed>
<temp>0.00</temp>
<bpm>0</bpm>
<rpm>0.00</rpm>
</extensions>
</trkpt>
<trkpt lat="30.871578217" lon="34.782104492">
<ele>473.859375</ele>
<time>2013-11-20T09:31:59Z</time>
<speed>3.540000</speed>
<extensions>
<speed>3.5</speed>
<temp>0.00</temp>
<bpm>0</bpm>
<rpm>0.00</rpm>
</extensions>
</trkpt>
<trkpt lat="30.871488571" lon="34.781944275">
<ele>473.593750</ele>
<time>2013-11-20T09:32:04Z</time>
<speed>3.790000</speed>
<extensions>
<speed>3.8</speed>
<temp>0.00</temp>
<bpm>0</bpm>
<rpm>0.00</rpm>
</extensions>
</trkpt>
<trkpt lat="30.871404648" lon="34.781776428">
<ele>473.789063</ele>
<time>2013-11-20T09:32:09Z</time>
<speed>3.540000</speed>
<extensions>
<speed>3.5</speed>
<temp>0.00</temp>
<bpm>0</bpm>
<rpm>0.00</rpm>
</extensions>
</trkpt>
<trkpt lat="30.871307373" lon="34.781612396">
<ele>473.718750</ele>
<time>2013-11-20T09:32:14Z</time>
<speed>3.590000</speed>
<extensions>
<speed>3.6</speed>
<temp>0.00</temp>
<bpm>0</bpm>
<rpm>0.00</rpm>
</extensions>
</trkpt>
<trkpt lat="30.871150970" lon="34.781421661">
<ele>474.093750</ele>
<time>2013-11-20T09:32:19Z</time>
<speed>3.710000</speed>
<extensions>
<speed>3.7</speed>
<temp>0.00</temp>
<bpm>0</bpm>
<rpm>0.00</rpm>
</extensions>
</trkpt>
<trkpt lat="30.870985031" lon="34.781257629">
<ele>474.585938</ele>
<time>2013-11-20T09:32:24Z</time>
<speed>4.360000</speed>
<extensions>
<speed>4.4</speed>
<temp>0.00</temp>
<bpm>0</bpm>
<rpm>0.00</rpm>
</extensions>
</trkpt>
<trkpt lat="30.870826721" lon="34.781139374">
<ele>475.156250</ele>
<time>2013-11-20T09:32:29Z</time>
<speed>4.770000</speed>
<extensions>
<speed>4.8</speed>
<temp>0.00</temp>
<bpm>0</bpm>
<rpm>0.00</rpm>
</extensions>
</trkpt>
<trkpt lat="30.870653152" lon="34.781021118">
<ele>475.523438</ele>
<time>2013-11-20T09:32:34Z</time>
<speed>3.900000</speed>
<extensions>
<speed>3.9</speed>
<temp>0.00</temp>
<bpm>0</bpm>
<rpm>0.00</rpm>
</extensions>
</trkpt>
<trkpt lat="30.870492935" lon="34.780914307">
<ele>475.625000</ele>
<time>2013-11-20T09:32:39Z</time>
<speed>3.900000</speed>
<extensions>
<speed>3.9</speed>
<temp>0.00</temp>
<bpm>0</bpm>
<rpm>0.00</rpm>
</extensions>
</trkpt>
<trkpt lat="30.870338440" lon="34.780830383">
<ele>478.210938</ele>
<time>2013-11-20T09:32:44Z</time>
<speed>3.860000</speed>
<extensions>
<speed>3.9</speed>
<temp>0.00</temp>
<bpm>0</bpm>
<rpm>0.00</rpm>
</extensions>
</trkpt>
<trkpt lat="30.870185852" lon="34.780738831">
<ele>478.835938</ele>
<time>2013-11-20T09:32:49Z</time>
<speed>4.090000</speed>
<extensions>
<speed>4.1</speed>
<temp>0.00</temp>
<bpm>0</bpm>
<rpm>0.00</rpm>
</extensions>
</trkpt>
<trkpt lat="30.870000839" lon="34.780643463">
<ele>479.343750</ele>
<time>2013-11-20T09:32:54Z</time>
<speed>5.160000</speed>
<extensions>
<speed>5.2</speed>
<temp>0.00</temp>
<bpm>0</bpm>
<rpm>0.00</rpm>
</extensions>
</trkpt>
<trkpt lat="30.869808197" lon="34.780536652">
<ele>480.054688</ele>
<time>2013-11-20T09:32:59Z</time>
<speed>4.320000</speed>
<extensions>
<speed>4.3</speed>
<temp>0.00</temp>
<bpm>0</bpm>
<rpm>0.00</rpm>
</extensions>
</trkpt>
<trkpt lat="30.869640350" lon="34.780471802">
<ele>480.992188</ele>
<time>2013-11-20T09:33:04Z</time>
<speed>4.610000</speed>
<extensions>
<speed>4.6</speed>
<temp>0.00</temp>
<bpm>0</bpm>
<rpm>0.00</rpm>
</extensions>
</trkpt>
<trkpt lat="30.869468689" lon="34.780384064">
<ele>480.125000</ele>
<time>2013-11-20T09:33:09Z</time>
<speed>3.140000</speed>
<extensions>
<speed>3.1</speed>
<temp>0.00</temp>
<bpm>0</bpm>
<rpm>0.00</rpm>
</extensions>
</trkpt>
<trkpt lat="30.869329453" lon="34.780303955">
<ele>480.171875</ele>
<time>2013-11-20T09:33:14Z</time>
<speed>3.690000</speed>
<extensions>
<speed>3.7</speed>
<temp>0.00</temp>
<bpm>0</bpm>
<rpm>0.00</rpm>
</extensions>
</trkpt>
<trkpt lat="30.869148254" lon="34.780212402">
<ele>479.828125</ele>
<time>2013-11-20T09:33:19Z</time>
<speed>5.010000</speed>
<extensions>
<speed>5.0</speed>
<temp>0.00</temp>
<bpm>0</bpm>
<rpm>0.00</rpm>
</extensions>
</trkpt>
<trkpt lat="30.868932724" lon="34.780094147">
<ele>479.023438</ele>
<time>2013-11-20T09:33:24Z</time>
<speed>5.660000</speed>
<extensions>
<speed>5.7</speed>
<temp>0.00</temp>
<bpm>0</bpm>
<rpm>0.00</rpm>
</extensions>
</trkpt>
<trkpt lat="30.868680954" lon="34.779953003">
<ele>479.921875</ele>
<time>2013-11-20T09:33:29Z</time>
<speed>6.030000</speed>
<extensions>
<speed>6.0</speed>
<temp>0.00</temp>
<bpm>0</bpm>
<rpm>0.00</rpm>
</extensions>
</trkpt>
<trkpt lat="30.868463516" lon="34.779811859">
<ele>477.195313</ele>
<time>2013-11-20T09:33:34Z</time>
<speed>5.480000</speed>
<extensions>
<speed>5.5</speed>
<temp>0.00</temp>
<bpm>0</bpm>
<rpm>0.00</rpm>
</extensions>
</trkpt>
<trkpt lat="30.868267059" lon="34.779727936">
<ele>476.617188</ele>
<time>2013-11-20T09:33:39Z</time>
<speed>4.660000</speed>
<extensions>
<speed>4.7</speed>
<temp>0.00</temp>
<bpm>0</bpm>
<rpm>0.00</rpm>
</extensions>
</trkpt>
<trkpt lat="30.868070602" lon="34.779609680">
<ele>476.007813</ele>
<time>2013-11-20T09:33:44Z</time>
<speed>4.950000</speed>
<extensions>
<speed>4.9</speed>
<temp>0.00</temp>
<bpm>0</bpm>
<rpm>0.00</rpm>
</extensions>
</trkpt>
<trkpt lat="30.867877960" lon="34.779495239">
<ele>475.937500</ele>
<time>2013-11-20T09:33:49Z</time>
<speed>4.720000</speed>
<extensions>
<speed>4.7</speed>
<temp>0.00</temp>
<bpm>0</bpm>
<rpm>0.00</rpm>
</extensions>
</trkpt>
<trkpt lat="30.867675781" lon="34.779376984">
<ele>476.226563</ele>
<time>2013-11-20T09:33:54Z</time>
<speed>4.500000</speed>
<extensions>
<speed>4.5</speed>
<temp>0.00</temp>
<bpm>0</bpm>
<rpm>0.00</rpm>
</extensions>
</trkpt>
<trkpt lat="30.867485046" lon="34.779262543">
<ele>478.757813</ele>
<time>2013-11-20T09:33:59Z</time>
<speed>4.940000</speed>
<extensions>
<speed>4.9</speed>
<temp>0.00</temp>
<bpm>0</bpm>
<rpm>0.00</rpm>
</extensions>
</trkpt>
<trkpt lat="30.867290497" lon="34.779140472">
<ele>479.351563</ele>
<time>2013-11-20T09:34:04Z</time>
<speed>5.040000</speed>
<extensions>
<speed>5.0</speed>
<temp>0.00</temp>
<bpm>0</bpm>
<rpm>0.00</rpm>
</extensions>
</trkpt>
<trkpt lat="30.867095947" lon="34.779010773">
<ele>479.304688</ele>
<time>2013-11-20T09:34:09Z</time>
<speed>4.920000</speed>
<extensions>
<speed>4.9</speed>
<temp>0.00</temp>
<bpm>0</bpm>
<rpm>0.00</rpm>
</extensions>
</trkpt>
<trkpt lat="30.866905212" lon="34.778896332">
<ele>479.500000</ele>
<time>2013-11-20T09:34:14Z</time>
<speed>4.740000</speed>
<extensions>
<speed>4.7</speed>
<temp>0.00</temp>
<bpm>0</bpm>
<rpm>0.00</rpm>
</extensions>
</trkpt>
<trkpt lat="30.866699219" lon="34.778778076">
<ele>480.054688</ele>
<time>2013-11-20T09:34:19Z</time>
<speed>5.040000</speed>
<extensions>
<speed>5.0</speed>
<temp>0.00</temp>
<bpm>0</bpm>
<rpm>0.00</rpm>
</extensions>
</trkpt>
<trkpt lat="30.866489410" lon="34.778633118">
<ele>478.125000</ele>
<time>2013-11-20T09:34:24Z</time>
<speed>4.980000</speed>
<extensions>
<speed>5.0</speed>
<temp>0.00</temp>
<bpm>0</bpm>
<rpm>0.00</rpm>
</extensions>
</trkpt>
<trkpt lat="30.866281509" lon="34.778495789">
<ele>478.179688</ele>
<time>2013-11-20T09:34:29Z</time>
<speed>5.110000</speed>
<extensions>
<speed>5.1</speed>
<temp>0.00</temp>
<bpm>0</bpm>
<rpm>0.00</rpm>
</extensions>
</trkpt>
<trkpt lat="30.866086960" lon="34.778373718">
<ele>478.531250</ele>
<time>2013-11-20T09:34:34Z</time>
<speed>5.280000</speed>
<extensions>
<speed>5.3</speed>
<temp>0.00</temp>
<bpm>0</bpm>
<rpm>0.00</rpm>
</extensions>
</trkpt>
<trkpt lat="30.865884781" lon="34.778236389">
<ele>479.625000</ele>
<time>2013-11-20T09:34:39Z</time>
<speed>4.840000</speed>
<extensions>
<speed>4.8</speed>
<temp>0.00</temp>
<bpm>0</bpm>
<rpm>0.00</rpm>
</extensions>
</trkpt>
<trkpt lat="30.865699768" lon="34.778118134">
<ele>480.210938</ele>
<time>2013-11-20T09:34:44Z</time>
<speed>4.480000</speed>
<extensions>
<speed>4.5</speed>
<temp>0.00</temp>
<bpm>0</bpm>
<rpm>0.00</rpm>
</extensions>
</trkpt>
<trkpt lat="30.865560532" lon="34.777912140">
<ele>480.953125</ele>
<time>2013-11-20T09:34:49Z</time>
<speed>4.930000</speed>
<extensions>
<speed>4.9</speed>
<temp>0.00</temp>
<bpm>0</bpm>
<rpm>0.00</rpm>
</extensions>
</trkpt>
<trkpt lat="30.865392685" lon="34.777751923">
<ele>480.710938</ele>
<time>2013-11-20T09:34:54Z</time>
<speed>4.960000</speed>
<extensions>
<speed>5.0</speed>
<temp>0.00</temp>
<bpm>0</bpm>
<rpm>0.00</rpm>
</extensions>
</trkpt>
<trkpt lat="30.865217209" lon="34.777656555">
<ele>481.679688</ele>
<time>2013-11-20T09:34:59Z</time>
<speed>4.230000</speed>
<extensions>
<speed>4.2</speed>
<temp>0.00</temp>
<bpm>0</bpm>
<rpm>0.00</rpm>
</extensions>
</trkpt>
<trkpt lat="30.865018845" lon="34.777545929">
<ele>480.140625</ele>
<time>2013-11-20T09:35:04Z</time>
<speed>5.020000</speed>
<extensions>
<speed>5.0</speed>
<temp>0.00</temp>
<bpm>0</bpm>
<rpm>0.00</rpm>
</extensions>
</trkpt>
<trkpt lat="30.864818573" lon="34.777446747">
<ele>480.078125</ele>
<time>2013-11-20T09:35:09Z</time>
<speed>4.620000</speed>
<extensions>
<speed>4.6</speed>
<temp>0.00</temp>
<bpm>0</bpm>
<rpm>0.00</rpm>
</extensions>
</trkpt>
<trkpt lat="30.864627838" lon="34.777351379">
<ele>481.945313</ele>
<time>2013-11-20T09:35:14Z</time>
<speed>4.740000</speed>
<extensions>
<speed>4.7</speed>
<temp>0.00</temp>
<bpm>0</bpm>
<rpm>0.00</rpm>
</extensions>
</trkpt>
<trkpt lat="30.864440918" lon="34.777240753">
<ele>481.476563</ele>
<time>2013-11-20T09:35:19Z</time>
<speed>3.630000</speed>
<extensions>
<speed>3.6</speed>
<temp>0.00</temp>
<bpm>0</bpm>
<rpm>0.00</rpm>
</extensions>
</trkpt>
<trkpt lat="30.864292145" lon="34.777145386">
<ele>482.687500</ele>
<time>2013-11-20T09:35:24Z</time>
<speed>4.510000</speed>
<extensions>
<speed>4.5</speed>
<temp>0.00</temp>
<bpm>0</bpm>
<rpm>0.00</rpm>
</extensions>
</trkpt>
<trkpt lat="30.864114761" lon="34.777011871">
<ele>481.687500</ele>
<time>2013-11-20T09:35:29Z</time>
<speed>4.380000</speed>
<extensions>
<speed>4.4</speed>
<temp>0.00</temp>
<bpm>0</bpm>
<rpm>0.00</rpm>
</extensions>
</trkpt>
<trkpt lat="30.863939285" lon="34.776893616">
<ele>480.812500</ele>
<time>2013-11-20T09:35:34Z</time>
<speed>4.470000</speed>
<extensions>
<speed>4.5</speed>
<temp>0.00</temp>
<bpm>0</bpm>
<rpm>0.00</rpm>
</extensions>
</trkpt>
<trkpt lat="30.863756180" lon="34.776760101">
<ele>482.703125</ele>
<time>2013-11-20T09:35:39Z</time>
<speed>4.600000</speed>
<extensions>
<speed>4.6</speed>
<temp>0.00</temp>
<bpm>0</bpm>
<rpm>0.00</rpm>
</extensions>
</trkpt>
<trkpt lat="30.863609314" lon="34.776641846">
<ele>482.609375</ele>
<time>2013-11-20T09:35:44Z</time>
<speed>3.860000</speed>
<extensions>
<speed>3.9</speed>
<temp>0.00</temp>
<bpm>0</bpm>
<rpm>0.00</rpm>
</extensions>
</trkpt>
<trkpt lat="30.863485336" lon="34.776496887">
<ele>482.484375</ele>
<time>2013-11-20T09:35:49Z</time>
<speed>4.220000</speed>
<extensions>
<speed>4.2</speed>
<temp>0.00</temp>
<bpm>0</bpm>
<rpm>0.00</rpm>
</extensions>
</trkpt>
<trkpt lat="30.863315582" lon="34.776378632">
<ele>482.367188</ele>
<time>2013-11-20T09:35:54Z</time>
<speed>4.650000</speed>
<extensions>
<speed>4.6</speed>
<temp>0.00</temp>
<bpm>0</bpm>
<rpm>0.00</rpm>
</extensions>
</trkpt>
<trkpt lat="30.863143921" lon="34.776256561">
<ele>482.570313</ele>
<time>2013-11-20T09:35:59Z</time>
<speed>4.190000</speed>
<extensions>
<speed>4.2</speed>
<temp>0.00</temp>
<bpm>0</bpm>
<rpm>0.00</rpm>
</extensions>
</trkpt>
<trkpt lat="30.863006592" lon="34.776111603">
<ele>482.468750</ele>
<time>2013-11-20T09:36:04Z</time>
<speed>4.170000</speed>
<extensions>
<speed>4.2</speed>
<temp>0.00</temp>
<bpm>0</bpm>
<rpm>0.00</rpm>
</extensions>
</trkpt>
<trkpt lat="30.862823486" lon="34.776000977">
<ele>483.906250</ele>
<time>2013-11-20T09:36:09Z</time>
<speed>4.390000</speed>
<extensions>
<speed>4.4</speed>
<temp>0.00</temp>
<bpm>0</bpm>
<rpm>0.00</rpm>
</extensions>
</trkpt>
<trkpt lat="30.862649918" lon="34.775894165">
<ele>484.054688</ele>
<time>2013-11-20T09:36:14Z</time>
<speed>4.180000</speed>
<extensions>
<speed>4.2</speed>
<temp>0.00</temp>
<bpm>0</bpm>
<rpm>0.00</rpm>
</extensions>
</trkpt>
<trkpt lat="30.862491608" lon="34.775783539">
<ele>483.375000</ele>
<time>2013-11-20T09:36:19Z</time>
<speed>4.510000</speed>
<extensions>
<speed>4.5</speed>
<temp>0.00</temp>
<bpm>0</bpm>
<rpm>0.00</rpm>
</extensions>
</trkpt>
<trkpt lat="30.862316132" lon="34.775672913">
<ele>482.500000</ele>
<time>2013-11-20T09:36:24Z</time>
<speed>4.290000</speed>
<extensions>
<speed>4.3</speed>
<temp>0.00</temp>
<bpm>0</bpm>
<rpm>0.00</rpm>
</extensions>
</trkpt>
<trkpt lat="30.862136841" lon="34.775550842">
<ele>483.101563</ele>
<time>2013-11-20T09:36:29Z</time>
<speed>4.300000</speed>
<extensions>
<speed>4.3</speed>
<temp>0.00</temp>
<bpm>0</bpm>
<rpm>0.00</rpm>
</extensions>
</trkpt>
<trkpt lat="30.861959457" lon="34.775444031">
<ele>483.328125</ele>
<time>2013-11-20T09:36:34Z</time>
<speed>4.150000</speed>
<extensions>
<speed>4.1</speed>
<temp>0.00</temp>
<bpm>0</bpm>
<rpm>0.00</rpm>
</extensions>
</trkpt>
<trkpt lat="30.861795425" lon="34.775333405">
<ele>483.695313</ele>
<time>2013-11-20T09:36:39Z</time>
<speed>4.080000</speed>
<extensions>
<speed>4.1</speed>
<temp>0.00</temp>
<bpm>0</bpm>
<rpm>0.00</rpm>
</extensions>
</trkpt>
<trkpt lat="30.861633301" lon="34.775253296">
<ele>481.953125</ele>
<time>2013-11-20T09:36:44Z</time>
<speed>4.180000</speed>
<extensions>
<speed>4.2</speed>
<temp>0.00</temp>
<bpm>0</bpm>
<rpm>0.00</rpm>
</extensions>
</trkpt>
<trkpt lat="30.861446381" lon="34.775154114">
<ele>482.210938</ele>
<time>2013-11-20T09:36:49Z</time>
<speed>4.390000</speed>
<extensions>
<speed>4.4</speed>
<temp>0.00</temp>
<bpm>0</bpm>
<rpm>0.00</rpm>
</extensions>
</trkpt>
<trkpt lat="30.861278534" lon="34.775054932">
<ele>482.734375</ele>
<time>2013-11-20T09:36:54Z</time>
<speed>4.200000</speed>
<extensions>
<speed>4.2</speed>
<temp>0.00</temp>
<bpm>0</bpm>
<rpm>0.00</rpm>
</extensions>
</trkpt>
<trkpt lat="30.861131668" lon="34.774963379">
<ele>483.640625</ele>
<time>2013-11-20T09:36:59Z</time>
<speed>3.880000</speed>
<extensions>
<speed>3.9</speed>
<temp>0.00</temp>
<bpm>0</bpm>
<rpm>0.00</rpm>
</extensions>
</trkpt>
<trkpt lat="30.860996246" lon="34.774887085">
<ele>483.382813</ele>
<time>2013-11-20T09:37:04Z</time>
<speed>3.370000</speed>
<extensions>
<speed>3.4</speed>
<temp>0.00</temp>
<bpm>0</bpm>
<rpm>0.00</rpm>
</extensions>
</trkpt>
<trkpt lat="30.860845566" lon="34.774787903">
<ele>482.289063</ele>
<time>2013-11-20T09:37:09Z</time>
<speed>3.770000</speed>
<extensions>
<speed>3.8</speed>
<temp>0.00</temp>
<bpm>0</bpm>
<rpm>0.00</rpm>
</extensions>
</trkpt>
<trkpt lat="30.860681534" lon="34.774692535">
<ele>482.843750</ele>
<time>2013-11-20T09:37:14Z</time>
<speed>4.260000</speed>
<extensions>
<speed>4.3</speed>
<temp>0.00</temp>
<bpm>0</bpm>
<rpm>0.00</rpm>
</extensions>
</trkpt>
<trkpt lat="30.860517502" lon="34.774581909">
<ele>483.437500</ele>
<time>2013-11-20T09:37:19Z</time>
<speed>3.860000</speed>
<extensions>
<speed>3.9</speed>
<temp>0.00</temp>
<bpm>0</bpm>
<rpm>0.00</rpm>
</extensions>
</trkpt>
<trkpt lat="30.860383987" lon="34.774486542">
<ele>482.062500</ele>
<time>2013-11-20T09:37:24Z</time>
<speed>3.740000</speed>
<extensions>
<speed>3.7</speed>
<temp>0.00</temp>
<bpm>0</bpm>
<rpm>0.00</rpm>
</extensions>
</trkpt>
<trkpt lat="30.860277176" lon="34.774482727">
<ele>483.976563</ele>
<time>2013-11-20T09:37:29Z</time>
<speed>1.630000</speed>
<extensions>
<speed>1.6</speed>
<temp>0.00</temp>
<bpm>0</bpm>
<rpm>0.00</rpm>
</extensions>
</trkpt>
<trkpt lat="30.860254288" lon="34.774517059">
<ele>483.546875</ele>
<time>2013-11-20T09:37:34Z</time>
<speed>0.070000</speed>
<extensions>
<speed>0.1</speed>
<temp>0.00</temp>
<bpm>0</bpm>
<rpm>0.00</rpm>
</extensions>
</trkpt>
<trkpt lat="30.860239029" lon="34.774532318">
<ele>483.578125</ele>
<time>2013-11-20T09:37:39Z</time>
<speed>1.860000</speed>
<extensions>
<speed>1.9</speed>
<temp>0.00</temp>
<bpm>0</bpm>
<rpm>0.00</rpm>
</extensions>
</trkpt>
<trkpt lat="30.860130310" lon="34.774578094">
<ele>483.773438</ele>
<time>2013-11-20T09:37:44Z</time>
<speed>3.270000</speed>
<extensions>
<speed>3.3</speed>
<temp>0.00</temp>
<bpm>0</bpm>
<rpm>0.00</rpm>
</extensions>
</trkpt>
<trkpt lat="30.859926224" lon="34.774639130">
<ele>481.328125</ele>
<time>2013-11-20T09:37:49Z</time>
<speed>5.400000</speed>
<extensions>
<speed>5.4</speed>
<temp>0.00</temp>
<bpm>0</bpm>
<rpm>0.00</rpm>
</extensions>
</trkpt>
<trkpt lat="30.859790802" lon="34.774543762">
<ele>480.804688</ele>
<time>2013-11-20T09:37:54Z</time>
<speed>3.780000</speed>
<extensions>
<speed>3.8</speed>
<temp>0.00</temp>
<bpm>0</bpm>
<rpm>0.00</rpm>
</extensions>
</trkpt>
<trkpt lat="30.859611511" lon="34.774456024">
<ele>481.882813</ele>
<time>2013-11-20T09:37:59Z</time>
<speed>4.430000</speed>
<extensions>
<speed>4.4</speed>
<temp>0.00</temp>
<bpm>0</bpm>
<rpm>0.00</rpm>
</extensions>
</trkpt>
<trkpt lat="30.859434128" lon="34.774345398">
<ele>483.078125</ele>
<time>2013-11-20T09:38:04Z</time>
<speed>4.290000</speed>
<extensions>
<speed>4.3</speed>
<temp>0.00</temp>
<bpm>0</bpm>
<rpm>0.00</rpm>
</extensions>
</trkpt>
<trkpt lat="30.859258652" lon="34.774223328">
<ele>483.335938</ele>
<time>2013-11-20T09:38:09Z</time>
<speed>4.100000</speed>
<extensions>
<speed>4.1</speed>
<temp>0.00</temp>
<bpm>0</bpm>
<rpm>0.00</rpm>
</extensions>
</trkpt>
<trkpt lat="30.859138489" lon="34.774127960">
<ele>484.242188</ele>
<time>2013-11-20T09:38:14Z</time>
<speed>3.500000</speed>
<extensions>
<speed>3.5</speed>
<temp>0.00</temp>
<bpm>0</bpm>
<rpm>0.00</rpm>
</extensions>
</trkpt>
<trkpt lat="30.859006882" lon="34.774013519">
<ele>484.945313</ele>
<time>2013-11-20T09:38:19Z</time>
<speed>3.240000</speed>
<extensions>
<speed>3.2</speed>
<temp>0.00</temp>
<bpm>0</bpm>
<rpm>0.00</rpm>
</extensions>
</trkpt>
<trkpt lat="30.858856201" lon="34.773956299">
<ele>484.406250</ele>
<time>2013-11-20T09:38:24Z</time>
<speed>4.010000</speed>
<extensions>
<speed>4.0</speed>
<temp>0.00</temp>
<bpm>0</bpm>
<rpm>0.00</rpm>
</extensions>
</trkpt>
<trkpt lat="30.858671188" lon="34.773853302">
<ele>482.734375</ele>
<time>2013-11-20T09:38:29Z</time>
<speed>3.810000</speed>
<extensions>
<speed>3.8</speed>
<temp>0.00</temp>
<bpm>0</bpm>
<rpm>0.00</rpm>
</extensions>
</trkpt>
<trkpt lat="30.858516693" lon="34.773742676">
<ele>482.695313</ele>
<time>2013-11-20T09:38:34Z</time>
<speed>4.160000</speed>
<extensions>
<speed>4.2</speed>
<temp>0.00</temp>
<bpm>0</bpm>
<rpm>0.00</rpm>
</extensions>
</trkpt>
<trkpt lat="30.858348846" lon="34.773639679">
<ele>483.398438</ele>
<time>2013-11-20T09:38:39Z</time>
<speed>4.240000</speed>
<extensions>
<speed>4.2</speed>
<temp>0.00</temp>
<bpm>0</bpm>
<rpm>0.00</rpm>
</extensions>
</trkpt>
<trkpt lat="30.858182907" lon="34.773517609">
<ele>484.273438</ele>
<time>2013-11-20T09:38:44Z</time>
<speed>4.370000</speed>
<extensions>
<speed>4.4</speed>
<temp>0.00</temp>
<bpm>0</bpm>
<rpm>0.00</rpm>
</extensions>
</trkpt>
<trkpt lat="30.858026505" lon="34.773395538">
<ele>485.085938</ele>
<time>2013-11-20T09:38:49Z</time>
<speed>4.300000</speed>
<extensions>
<speed>4.3</speed>
<temp>0.00</temp>
<bpm>0</bpm>
<rpm>0.00</rpm>
</extensions>
</trkpt>
<trkpt lat="30.857881546" lon="34.773307800">
<ele>485.414063</ele>
<time>2013-11-20T09:38:54Z</time>
<speed>4.170000</speed>
<extensions>
<speed>4.2</speed>
<temp>0.00</temp>
<bpm>0</bpm>
<rpm>0.00</rpm>
</extensions>
</trkpt>
<trkpt lat="30.857709885" lon="34.773200989">
<ele>488.531250</ele>
<time>2013-11-20T09:38:59Z</time>
<speed>4.130000</speed>
<extensions>
<speed>4.1</speed>
<temp>0.00</temp>
<bpm>0</bpm>
<rpm>0.00</rpm>
</extensions>
</trkpt>
<trkpt lat="30.857545853" lon="34.773094177">
<ele>489.164063</ele>
<time>2013-11-20T09:39:04Z</time>
<speed>4.150000</speed>
<extensions>
<speed>4.1</speed>
<temp>0.00</temp>
<bpm>0</bpm>
<rpm>0.00</rpm>
</extensions>
</trkpt>
<trkpt lat="30.857395172" lon="34.772994995">
<ele>487.804688</ele>
<time>2013-11-20T09:39:09Z</time>
<speed>4.000000</speed>
<extensions>
<speed>4.0</speed>
<temp>0.00</temp>
<bpm>0</bpm>
<rpm>0.00</rpm>
</extensions>
</trkpt>
<trkpt lat="30.857233047" lon="34.772907257">
<ele>486.867188</ele>
<time>2013-11-20T09:39:14Z</time>
<speed>2.880000</speed>
<extensions>
<speed>2.9</speed>
<temp>0.00</temp>
<bpm>0</bpm>
<rpm>0.00</rpm>
</extensions>
</trkpt>
<trkpt lat="30.857063293" lon="34.772815704">
<ele>487.187500</ele>
<time>2013-11-20T09:39:19Z</time>
<speed>3.730000</speed>
<extensions>
<speed>3.7</speed>
<temp>0.00</temp>
<bpm>0</bpm>
<rpm>0.00</rpm>
</extensions>
</trkpt>
<trkpt lat="30.856899261" lon="34.772697449">
<ele>487.007813</ele>
<time>2013-11-20T09:39:24Z</time>
<speed>4.280000</speed>
<extensions>
<speed>4.3</speed>
<temp>0.00</temp>
<bpm>0</bpm>
<rpm>0.00</rpm>
</extensions>
</trkpt>
<trkpt lat="30.856719971" lon="34.772541046">
<ele>486.515625</ele>
<time>2013-11-20T09:39:29Z</time>
<speed>4.280000</speed>
<extensions>
<speed>4.3</speed>
<temp>0.00</temp>
<bpm>0</bpm>
<rpm>0.00</rpm>
</extensions>
</trkpt>
<trkpt lat="30.856573105" lon="34.772388458">
<ele>488.085938</ele>
<time>2013-11-20T09:39:34Z</time>
<speed>4.970000</speed>
<extensions>
<speed>5.0</speed>
<temp>0.00</temp>
<bpm>0</bpm>
<rpm>0.00</rpm>
</extensions>
</trkpt>
<trkpt lat="30.856407166" lon="34.772266388">
<ele>488.398438</ele>
<time>2013-11-20T09:39:39Z</time>
<speed>3.760000</speed>
<extensions>
<speed>3.8</speed>
<temp>0.00</temp>
<bpm>0</bpm>
<rpm>0.00</rpm>
</extensions>
</trkpt>
<trkpt lat="30.856260300" lon="34.772174835">
<ele>487.226563</ele>
<time>2013-11-20T09:39:44Z</time>
<speed>4.260000</speed>
<extensions>
<speed>4.3</speed>
<temp>0.00</temp>
<bpm>0</bpm>
<rpm>0.00</rpm>
</extensions>
</trkpt>
<trkpt lat="30.856067657" lon="34.772106171">
<ele>488.210938</ele>
<time>2013-11-20T09:39:49Z</time>
<speed>4.190000</speed>
<extensions>
<speed>4.2</speed>
<temp>0.00</temp>
<bpm>0</bpm>
<rpm>0.00</rpm>
</extensions>
</trkpt>
<trkpt lat="30.855894089" lon="34.771999359">
<ele>488.937500</ele>
<time>2013-11-20T09:39:54Z</time>
<speed>4.320000</speed>
<extensions>
<speed>4.3</speed>
<temp>0.00</temp>
<bpm>0</bpm>
<rpm>0.00</rpm>
</extensions>
</trkpt>
<trkpt lat="30.855737686" lon="34.771884918">
<ele>488.820313</ele>
<time>2013-11-20T09:39:59Z</time>
<speed>4.350000</speed>
<extensions>
<speed>4.3</speed>
<temp>0.00</temp>
<bpm>0</bpm>
<rpm>0.00</rpm>
</extensions>
</trkpt>
<trkpt lat="30.855583191" lon="34.771762848">
<ele>489.507813</ele>
<time>2013-11-20T09:40:04Z</time>
<speed>3.750000</speed>
<extensions>
<speed>3.8</speed>
<temp>0.00</temp>
<bpm>0</bpm>
<rpm>0.00</rpm>
</extensions>
</trkpt>
<trkpt lat="30.855424881" lon="34.771671295">
<ele>488.828125</ele>
<time>2013-11-20T09:40:09Z</time>
<speed>3.890000</speed>
<extensions>
<speed>3.9</speed>
<temp>0.00</temp>
<bpm>0</bpm>
<rpm>0.00</rpm>
</extensions>
</trkpt>
<trkpt lat="30.855272293" lon="34.771514893">
<ele>487.656250</ele>
<time>2013-11-20T09:40:14Z</time>
<speed>4.870000</speed>
<extensions>
<speed>4.9</speed>
<temp>0.00</temp>
<bpm>0</bpm>
<rpm>0.00</rpm>
</extensions>
</trkpt>
<trkpt lat="30.855094910" lon="34.771385193">
<ele>487.046875</ele>
<time>2013-11-20T09:40:19Z</time>
<speed>4.170000</speed>
<extensions>
<speed>4.2</speed>
<temp>0.00</temp>
<bpm>0</bpm>
<rpm>0.00</rpm>
</extensions>
</trkpt>
<trkpt lat="30.854915619" lon="34.771240234">
<ele>487.281250</ele>
<time>2013-11-20T09:40:24Z</time>
<speed>5.230000</speed>
<extensions>
<speed>5.2</speed>
<temp>0.00</temp>
<bpm>0</bpm>
<rpm>0.00</rpm>
</extensions>
</trkpt>
<trkpt lat="30.854728699" lon="34.771106720">
<ele>487.625000</ele>
<time>2013-11-20T09:40:29Z</time>
<speed>4.160000</speed>
<extensions>
<speed>4.2</speed>
<temp>0.00</temp>
<bpm>0</bpm>
<rpm>0.00</rpm>
</extensions>
</trkpt>
<trkpt lat="30.854574203" lon="34.770977020">
<ele>489.125000</ele>
<time>2013-11-20T09:40:34Z</time>
<speed>3.890000</speed>
<extensions>
<speed>3.9</speed>
<temp>0.00</temp>
<bpm>0</bpm>
<rpm>0.00</rpm>
</extensions>
</trkpt>
<trkpt lat="30.854402542" lon="34.770900726">
<ele>490.781250</ele>
<time>2013-11-20T09:40:39Z</time>
<speed>3.930000</speed>
<extensions>
<speed>3.9</speed>
<temp>0.00</temp>
<bpm>0</bpm>
<rpm>0.00</rpm>
</extensions>
</trkpt>
<trkpt lat="30.854242325" lon="34.770889282">
<ele>490.382813</ele>
<time>2013-11-20T09:40:44Z</time>
<speed>3.430000</speed>
<extensions>
<speed>3.4</speed>
<temp>0.00</temp>
<bpm>0</bpm>
<rpm>0.00</rpm>
</extensions>
</trkpt>
<trkpt lat="30.854148865" lon="34.770984650">
<ele>490.148438</ele>
<time>2013-11-20T09:40:49Z</time>
<speed>3.680000</speed>
<extensions>
<speed>3.7</speed>
<temp>0.00</temp>
<bpm>0</bpm>
<rpm>0.00</rpm>
</extensions>
</trkpt>
<trkpt lat="30.854089737" lon="34.771118164">
<ele>489.500000</ele>
<time>2013-11-20T09:40:54Z</time>
<speed>2.680000</speed>
<extensions>
<speed>2.7</speed>
<temp>0.00</temp>
<bpm>0</bpm>
<rpm>0.00</rpm>
</extensions>
</trkpt>
<trkpt lat="30.854030609" lon="34.771324158">
<ele>488.921875</ele>
<time>2013-11-20T09:40:59Z</time>
<speed>4.910000</speed>
<extensions>
<speed>4.9</speed>
<temp>0.00</temp>
<bpm>0</bpm>
<rpm>0.00</rpm>
</extensions>
</trkpt>
<trkpt lat="30.853948593" lon="34.771587372">
<ele>487.367188</ele>
<time>2013-11-20T09:41:04Z</time>
<speed>5.030000</speed>
<extensions>
<speed>5.0</speed>
<temp>0.00</temp>
<bpm>0</bpm>
<rpm>0.00</rpm>
</extensions>
</trkpt>
<trkpt lat="30.853878021" lon="34.771869659">
<ele>487.539063</ele>
<time>2013-11-20T09:41:09Z</time>
<speed>5.260000</speed>
<extensions>
<speed>5.3</speed>
<temp>0.00</temp>
<bpm>0</bpm>
<rpm>0.00</rpm>
</extensions>
</trkpt>
<trkpt lat="30.853813171" lon="34.772155762">
<ele>486.976563</ele>
<time>2013-11-20T09:41:14Z</time>
<speed>6.030000</speed>
<extensions>
<speed>6.0</speed>
<temp>0.00</temp>
<bpm>0</bpm>
<rpm>0.00</rpm>
</extensions>
</trkpt>
<trkpt lat="30.853736877" lon="34.772483826">
<ele>487.882813</ele>
<time>2013-11-20T09:41:19Z</time>
<speed>6.580000</speed>
<extensions>
<speed>6.6</speed>
<temp>0.00</temp>
<bpm>0</bpm>
<rpm>0.00</rpm>
</extensions>
</trkpt>
<trkpt lat="30.853645325" lon="34.772808075">
<ele>488.132813</ele>
<time>2013-11-20T09:41:24Z</time>
<speed>6.580000</speed>
<extensions>
<speed>6.6</speed>
<temp>0.00</temp>
<bpm>0</bpm>
<rpm>0.00</rpm>
</extensions>
</trkpt>
<trkpt lat="30.853565216" lon="34.773136139">
<ele>488.171875</ele>
<time>2013-11-20T09:41:29Z</time>
<speed>6.380000</speed>
<extensions>
<speed>6.4</speed>
<temp>0.00</temp>
<bpm>0</bpm>
<rpm>0.00</rpm>
</extensions>
</trkpt>
<trkpt lat="30.853487015" lon="34.773464203">
<ele>486.968750</ele>
<time>2013-11-20T09:41:34Z</time>
<speed>6.640000</speed>
<extensions>
<speed>6.6</speed>
<temp>0.00</temp>
<bpm>0</bpm>
<rpm>0.00</rpm>
</extensions>
</trkpt>
<trkpt lat="30.853416443" lon="34.773803711">
<ele>484.093750</ele>
<time>2013-11-20T09:41:39Z</time>
<speed>6.940000</speed>
<extensions>
<speed>6.9</speed>
<temp>0.00</temp>
<bpm>0</bpm>
<rpm>0.00</rpm>
</extensions>
</trkpt>
<trkpt lat="30.853324890" lon="34.774166107">
<ele>482.656250</ele>
<time>2013-11-20T09:41:44Z</time>
<speed>7.430000</speed>
<extensions>
<speed>7.4</speed>
<temp>0.00</temp>
<bpm>0</bpm>
<rpm>0.00</rpm>
</extensions>
</trkpt>
<trkpt lat="30.853210449" lon="34.774524689">
<ele>483.546875</ele>
<time>2013-11-20T09:41:49Z</time>
<speed>7.090000</speed>
<extensions>
<speed>7.1</speed>
<temp>0.00</temp>
<bpm>0</bpm>
<rpm>0.00</rpm>
</extensions>
</trkpt>
<trkpt lat="30.853065491" lon="34.774841309">
<ele>482.984375</ele>
<time>2013-11-20T09:41:54Z</time>
<speed>7.270000</speed>
<extensions>
<speed>7.3</speed>
<temp>0.00</temp>
<bpm>0</bpm>
<rpm>0.00</rpm>
</extensions>
</trkpt>
<trkpt lat="30.852897644" lon="34.775138855">
<ele>481.718750</ele>
<time>2013-11-20T09:41:59Z</time>
<speed>6.640000</speed>
<extensions>
<speed>6.6</speed>
<temp>0.00</temp>
<bpm>0</bpm>
<rpm>0.00</rpm>
</extensions>
</trkpt>
<trkpt lat="30.852735519" lon="34.775424957">
<ele>482.343750</ele>
<time>2013-11-20T09:42:04Z</time>
<speed>6.740000</speed>
<extensions>
<speed>6.7</speed>
<temp>0.00</temp>
<bpm>0</bpm>
<rpm>0.00</rpm>
</extensions>
</trkpt>
<trkpt lat="30.852550507" lon="34.775707245">
<ele>481.554688</ele>
<time>2013-11-20T09:42:09Z</time>
<speed>6.850000</speed>
<extensions>
<speed>6.8</speed>
<temp>0.00</temp>
<bpm>0</bpm>
<rpm>0.00</rpm>
</extensions>
</trkpt>
<trkpt lat="30.852361679" lon="34.775981903">
<ele>480.968750</ele>
<time>2013-11-20T09:42:14Z</time>
<speed>6.660000</speed>
<extensions>
<speed>6.7</speed>
<temp>0.00</temp>
<bpm>0</bpm>
<rpm>0.00</rpm>
</extensions>
</trkpt>
<trkpt lat="30.852172852" lon="34.776252747">
<ele>480.734375</ele>
<time>2013-11-20T09:42:19Z</time>
<speed>6.440000</speed>
<extensions>
<speed>6.4</speed>
<temp>0.00</temp>
<bpm>0</bpm>
<rpm>0.00</rpm>
</extensions>
</trkpt>
<trkpt lat="30.852014542" lon="34.776512146">
<ele>481.546875</ele>
<time>2013-11-20T09:42:24Z</time>
<speed>5.870000</speed>
<extensions>
<speed>5.9</speed>
<temp>0.00</temp>
<bpm>0</bpm>
<rpm>0.00</rpm>
</extensions>
</trkpt>
<trkpt lat="30.851856232" lon="34.776756287">
<ele>481.000000</ele>
<time>2013-11-20T09:42:29Z</time>
<speed>6.050000</speed>
<extensions>
<speed>6.1</speed>
<temp>0.00</temp>
<bpm>0</bpm>
<rpm>0.00</rpm>
</extensions>
</trkpt>
<trkpt lat="30.851673126" lon="34.777004242">
<ele>479.437500</ele>
<time>2013-11-20T09:42:34Z</time>
<speed>6.250000</speed>
<extensions>
<speed>6.3</speed>
<temp>0.00</temp>
<bpm>0</bpm>
<rpm>0.00</rpm>
</extensions>
</trkpt>
<trkpt lat="30.851509094" lon="34.777248383">
<ele>478.796875</ele>
<time>2013-11-20T09:42:39Z</time>
<speed>5.900000</speed>
<extensions>
<speed>5.9</speed>
<temp>0.00</temp>
<bpm>0</bpm>
<rpm>0.00</rpm>
</extensions>
</trkpt>
<trkpt lat="30.851335526" lon="34.777492523">
<ele>476.851563</ele>
<time>2013-11-20T09:42:44Z</time>
<speed>5.970000</speed>
<extensions>
<speed>6.0</speed>
<temp>0.00</temp>
<bpm>0</bpm>
<rpm>0.00</rpm>
</extensions>
</trkpt>
<trkpt lat="30.851161957" lon="34.777736664">
<ele>477.812500</ele>
<time>2013-11-20T09:42:49Z</time>
<speed>5.920000</speed>
<extensions>
<speed>5.9</speed>
<temp>0.00</temp>
<bpm>0</bpm>
<rpm>0.00</rpm>
</extensions>
</trkpt>
<trkpt lat="30.850997925" lon="34.777973175">
<ele>478.398438</ele>
<time>2013-11-20T09:42:54Z</time>
<speed>5.770000</speed>
<extensions>
<speed>5.8</speed>
<temp>0.00</temp>
<bpm>0</bpm>
<rpm>0.00</rpm>
</extensions>
</trkpt>
<trkpt lat="30.850833893" lon="34.778209686">
<ele>480.867188</ele>
<time>2013-11-20T09:42:59Z</time>
<speed>5.920000</speed>
<extensions>
<speed>5.9</speed>
<temp>0.00</temp>
<bpm>0</bpm>
<rpm>0.00</rpm>
</extensions>
</trkpt>
<trkpt lat="30.850664139" lon="34.778442383">
<ele>481.843750</ele>
<time>2013-11-20T09:43:04Z</time>
<speed>5.830000</speed>
<extensions>
<speed>5.8</speed>
<temp>0.00</temp>
<bpm>0</bpm>
<rpm>0.00</rpm>
</extensions>
</trkpt>
<trkpt lat="30.850515366" lon="34.778648376">
<ele>481.507813</ele>
<time>2013-11-20T09:43:09Z</time>
<speed>4.260000</speed>
<extensions>
<speed>4.3</speed>
<temp>0.00</temp>
<bpm>0</bpm>
<rpm>0.00</rpm>
</extensions>
</trkpt>
<trkpt lat="30.850425720" lon="34.778797150">
<ele>480.476563</ele>
<time>2013-11-20T09:43:14Z</time>
<speed>3.200000</speed>
<extensions>
<speed>3.2</speed>
<temp>0.00</temp>
<bpm>0</bpm>
<rpm>0.00</rpm>
</extensions>
</trkpt>
<trkpt lat="30.850418091" lon="34.778915405">
<ele>482.273438</ele>
<time>2013-11-20T09:43:19Z</time>
<speed>1.800000</speed>
<extensions>
<speed>1.8</speed>
<temp>0.00</temp>
<bpm>0</bpm>
<rpm>0.00</rpm>
</extensions>
</trkpt>
<trkpt lat="30.850446701" lon="34.778953552">
<ele>482.843750</ele>
<time>2013-11-20T09:43:24Z</time>
<speed>0.110000</speed>
<extensions>
<speed>0.1</speed>
<temp>0.00</temp>
<bpm>0</bpm>
<rpm>0.00</rpm>
</extensions>
</trkpt>
<trkpt lat="30.850446701" lon="34.778953552">
<ele>482.828125</ele>
<time>2013-11-20T09:43:29Z</time>
<speed>0.030000</speed>
<extensions>
<speed>0.0</speed>
<temp>0.00</temp>
<bpm>0</bpm>
<rpm>0.00</rpm>
</extensions>
</trkpt>
<trkpt lat="30.850446701" lon="34.778953552">
<ele>482.781250</ele>
<time>2013-11-20T09:43:34Z</time>
<speed>0.010000</speed>
<extensions>
<speed>0.0</speed>
<temp>0.00</temp>
<bpm>0</bpm>
<rpm>0.00</rpm>
</extensions>
</trkpt>
<trkpt lat="30.850446701" lon="34.778953552">
<ele>482.726563</ele>
<time>2013-11-20T09:43:39Z</time>
<speed>0.020000</speed>
<extensions>
<speed>0.0</speed>
<temp>0.00</temp>
<bpm>0</bpm>
<rpm>0.00</rpm>
</extensions>
</trkpt>
<trkpt lat="30.850446701" lon="34.778953552">
<ele>482.726563</ele>
<time>2013-11-20T09:43:44Z</time>
<speed>0.010000</speed>
<extensions>
<speed>0.0</speed>
<temp>0.00</temp>
<bpm>0</bpm>
<rpm>0.00</rpm>
</extensions>
</trkpt>
<trkpt lat="30.850446701" lon="34.778953552">
<ele>482.695313</ele>
<time>2013-11-20T09:43:49Z</time>
<speed>0.010000</speed>
<extensions>
<speed>0.0</speed>
<temp>0.00</temp>
<bpm>0</bpm>
<rpm>0.00</rpm>
</extensions>
</trkpt>
<trkpt lat="30.850446701" lon="34.778957367">
<ele>482.757813</ele>
<time>2013-11-20T09:43:54Z</time>
<speed>0.040000</speed>
<extensions>
<speed>0.0</speed>
<temp>0.00</temp>
<bpm>0</bpm>
<rpm>0.00</rpm>
</extensions>
</trkpt>
<trkpt lat="30.850446701" lon="34.778957367">
<ele>482.781250</ele>
<time>2013-11-20T09:43:59Z</time>
<speed>0.010000</speed>
<extensions>
<speed>0.0</speed>
<temp>0.00</temp>
<bpm>0</bpm>
<rpm>0.00</rpm>
</extensions>
</trkpt>
<trkpt lat="30.850446701" lon="34.778957367">
<ele>482.781250</ele>
<time>2013-11-20T09:44:04Z</time>
<speed>0.010000</speed>
<extensions>
<speed>0.0</speed>
<temp>0.00</temp>
<bpm>0</bpm>
<rpm>0.00</rpm>
</extensions>
</trkpt>
<trkpt lat="30.850446701" lon="34.778957367">
<ele>482.789063</ele>
<time>2013-11-20T09:44:09Z</time>
<extensions>
<speed>0.0</speed>
<temp>0.00</temp>
<bpm>0</bpm>
<rpm>0.00</rpm>
</extensions>
</trkpt>
<trkpt lat="30.850446701" lon="34.778957367">
<ele>482.781250</ele>
<time>2013-11-20T09:44:14Z</time>
<speed>0.020000</speed>
<extensions>
<speed>0.0</speed>
<temp>0.00</temp>
<bpm>0</bpm>
<rpm>0.00</rpm>
</extensions>
</trkpt>
<trkpt lat="30.850446701" lon="34.778957367">
<ele>482.804688</ele>
<time>2013-11-20T09:44:19Z</time>
<extensions>
<speed>0.0</speed>
<temp>0.00</temp>
<bpm>0</bpm>
<rpm>0.00</rpm>
</extensions>
</trkpt>
<trkpt lat="30.850446701" lon="34.778957367">
<ele>482.812500</ele>
<time>2013-11-20T09:44:24Z</time>
<extensions>
<speed>0.0</speed>
<temp>0.00</temp>
<bpm>0</bpm>
<rpm>0.00</rpm>
</extensions>
</trkpt>
<trkpt lat="30.850446701" lon="34.778957367">
<ele>482.820313</ele>
<time>2013-11-20T09:44:29Z</time>
<speed>0.010000</speed>
<extensions>
<speed>0.0</speed>
<temp>0.00</temp>
<bpm>0</bpm>
<rpm>0.00</rpm>
</extensions>
</trkpt>
<trkpt lat="30.850446701" lon="34.778957367">
<ele>482.828125</ele>
<time>2013-11-20T09:44:34Z</time>
<extensions>
<speed>0.0</speed>
<temp>0.00</temp>
<bpm>0</bpm>
<rpm>0.00</rpm>
</extensions>
</trkpt>
<trkpt lat="30.850446701" lon="34.778957367">
<ele>482.835938</ele>
<time>2013-11-20T09:44:39Z</time>
<extensions>
<speed>0.0</speed>
<temp>0.00</temp>
<bpm>0</bpm>
<rpm>0.00</rpm>
</extensions>
</trkpt>
<trkpt lat="30.850444794" lon="34.778957367">
<ele>482.828125</ele>
<time>2013-11-20T09:44:44Z</time>
<extensions>
<speed>0.0</speed>
<temp>0.00</temp>
<bpm>0</bpm>
<rpm>0.00</rpm>
</extensions>
</trkpt>
<trkpt lat="30.850444794" lon="34.778957367">
<ele>482.828125</ele>
<time>2013-11-20T09:44:49Z</time>
<speed>0.010000</speed>
<extensions>
<speed>0.0</speed>
<temp>0.00</temp>
<bpm>0</bpm>
<rpm>0.00</rpm>
</extensions>
</trkpt>
<trkpt lat="30.850444794" lon="34.778957367">
<ele>482.828125</ele>
<time>2013-11-20T09:44:54Z</time>
<speed>0.010000</speed>
<extensions>
<speed>0.0</speed>
<temp>0.00</temp>
<bpm>0</bpm>
<rpm>0.00</rpm>
</extensions>
</trkpt>
<trkpt lat="30.850444794" lon="34.778957367">
<ele>482.812500</ele>
<time>2013-11-20T09:44:59Z</time>
<extensions>
<speed>0.0</speed>
<temp>0.00</temp>
<bpm>0</bpm>
<rpm>0.00</rpm>
</extensions>
</trkpt>
<trkpt lat="30.850444794" lon="34.778957367">
<ele>482.812500</ele>
<time>2013-11-20T09:45:04Z</time>
<speed>0.010000</speed>
<extensions>
<speed>0.0</speed>
<temp>0.00</temp>
<bpm>0</bpm>
<rpm>0.00</rpm>
</extensions>
</trkpt>
<trkpt lat="30.850444794" lon="34.778957367">
<ele>482.812500</ele>
<time>2013-11-20T09:45:09Z</time>
<speed>0.010000</speed>
<extensions>
<speed>0.0</speed>
<temp>0.00</temp>
<bpm>0</bpm>
<rpm>0.00</rpm>
</extensions>
</trkpt>
<trkpt lat="30.850446701" lon="34.778957367">
<ele>482.812500</ele>
<time>2013-11-20T09:45:14Z</time>
<extensions>
<speed>0.0</speed>
<temp>0.00</temp>
<bpm>0</bpm>
<rpm>0.00</rpm>
</extensions>
</trkpt>
<trkpt lat="30.850446701" lon="34.778961182">
<ele>482.820313</ele>
<time>2013-11-20T09:45:19Z</time>
<extensions>
<speed>0.0</speed>
<temp>0.00</temp>
<bpm>0</bpm>
<rpm>0.00</rpm>
</extensions>
</trkpt>
<trkpt lat="30.850446701" lon="34.778961182">
<ele>482.820313</ele>
<time>2013-11-20T09:45:24Z</time>
<speed>0.010000</speed>
<extensions>
<speed>0.0</speed>
<temp>0.00</temp>
<bpm>0</bpm>
<rpm>0.00</rpm>
</extensions>
</trkpt>
<trkpt lat="30.850444794" lon="34.778961182">
<ele>482.835938</ele>
<time>2013-11-20T09:45:29Z</time>
<speed>0.010000</speed>
<extensions>
<speed>0.0</speed>
<temp>0.00</temp>
<bpm>0</bpm>
<rpm>0.00</rpm>
</extensions>
</trkpt>
<trkpt lat="30.850446701" lon="34.778961182">
<ele>482.796875</ele>
<time>2013-11-20T09:45:34Z</time>
<extensions>
<speed>0.0</speed>
<temp>0.00</temp>
<bpm>0</bpm>
<rpm>0.00</rpm>
</extensions>
</trkpt>
<trkpt lat="30.850446701" lon="34.778957367">
<ele>482.750000</ele>
<time>2013-11-20T09:45:39Z</time>
<speed>0.010000</speed>
<extensions>
<speed>0.0</speed>
<temp>0.00</temp>
<bpm>0</bpm>
<rpm>0.00</rpm>
</extensions>
</trkpt>
<trkpt lat="30.850446701" lon="34.778961182">
<ele>482.726563</ele>
<time>2013-11-20T09:45:44Z</time>
<speed>0.010000</speed>
<extensions>
<speed>0.0</speed>
<temp>0.00</temp>
<bpm>0</bpm>
<rpm>0.00</rpm>
</extensions>
</trkpt>
<trkpt lat="30.850446701" lon="34.778961182">
<ele>482.718750</ele>
<time>2013-11-20T09:45:49Z</time>
<speed>0.030000</speed>
<extensions>
<speed>0.0</speed>
<temp>0.00</temp>
<bpm>0</bpm>
<rpm>0.00</rpm>
</extensions>
</trkpt>
<trkpt lat="30.850446701" lon="34.778961182">
<ele>482.710938</ele>
<time>2013-11-20T09:45:54Z</time>
<extensions>
<speed>0.0</speed>
<temp>0.00</temp>
<bpm>0</bpm>
<rpm>0.00</rpm>
</extensions>
</trkpt>
<trkpt lat="30.850446701" lon="34.778961182">
<ele>482.695313</ele>
<time>2013-11-20T09:45:59Z</time>
<extensions>
<speed>0.0</speed>
<temp>0.00</temp>
<bpm>0</bpm>
<rpm>0.00</rpm>
</extensions>
</trkpt>
<trkpt lat="30.850446701" lon="34.778957367">
<ele>482.695313</ele>
<time>2013-11-20T09:46:04Z</time>
<extensions>
<speed>0.0</speed>
<temp>0.00</temp>
<bpm>0</bpm>
<rpm>0.00</rpm>
</extensions>
</trkpt>
<trkpt lat="30.850446701" lon="34.778961182">
<ele>482.710938</ele>
<time>2013-11-20T09:46:09Z</time>
<speed>0.010000</speed>
<extensions>
<speed>0.0</speed>
<temp>0.00</temp>
<bpm>0</bpm>
<rpm>0.00</rpm>
</extensions>
</trkpt>
<trkpt lat="30.850446701" lon="34.778961182">
<ele>482.718750</ele>
<time>2013-11-20T09:46:14Z</time>
<speed>0.010000</speed>
<extensions>
<speed>0.0</speed>
<temp>0.00</temp>
<bpm>0</bpm>
<rpm>0.00</rpm>
</extensions>
</trkpt>
<trkpt lat="30.850446701" lon="34.778961182">
<ele>482.734375</ele>
<time>2013-11-20T09:46:19Z</time>
<extensions>
<speed>0.0</speed>
<temp>0.00</temp>
<bpm>0</bpm>
<rpm>0.00</rpm>
</extensions>
</trkpt>
<trkpt lat="30.850446701" lon="34.778961182">
<ele>482.734375</ele>
<time>2013-11-20T09:46:24Z</time>
<extensions>
<speed>0.0</speed>
<temp>0.00</temp>
<bpm>0</bpm>
<rpm>0.00</rpm>
</extensions>
</trkpt>
<trkpt lat="30.850446701" lon="34.778957367">
<ele>482.742188</ele>
<time>2013-11-20T09:46:29Z</time>
<speed>0.010000</speed>
<extensions>
<speed>0.0</speed>
<temp>0.00</temp>
<bpm>0</bpm>
<rpm>0.00</rpm>
</extensions>
</trkpt>
<trkpt lat="30.850446701" lon="34.778957367">
<ele>482.757813</ele>
<time>2013-11-20T09:46:34Z</time>
<extensions>
<speed>0.0</speed>
<temp>0.00</temp>
<bpm>0</bpm>
<rpm>0.00</rpm>
</extensions>
</trkpt>
<trkpt lat="30.850446701" lon="34.778957367">
<ele>482.750000</ele>
<time>2013-11-20T09:46:39Z</time>
<extensions>
<speed>0.0</speed>
<temp>0.00</temp>
<bpm>0</bpm>
<rpm>0.00</rpm>
</extensions>
</trkpt>
<trkpt lat="30.850446701" lon="34.778957367">
<ele>482.726563</ele>
<time>2013-11-20T09:46:44Z</time>
<extensions>
<speed>0.0</speed>
<temp>0.00</temp>
<bpm>0</bpm>
<rpm>0.00</rpm>
</extensions>
</trkpt>
<trkpt lat="30.850446701" lon="34.778957367">
<ele>482.695313</ele>
<time>2013-11-20T09:46:49Z</time>
<speed>0.010000</speed>
<extensions>
<speed>0.0</speed>
<temp>0.00</temp>
<bpm>0</bpm>
<rpm>0.00</rpm>
</extensions>
</trkpt>
<trkpt lat="30.850446701" lon="34.778957367">
<ele>482.679688</ele>
<time>2013-11-20T09:46:54Z</time>
<extensions>
<speed>0.0</speed>
<temp>0.00</temp>
<bpm>0</bpm>
<rpm>0.00</rpm>
</extensions>
</trkpt>
<trkpt lat="30.850446701" lon="34.778957367">
<ele>482.671875</ele>
<time>2013-11-20T09:46:59Z</time>
<extensions>
<speed>0.0</speed>
<temp>0.00</temp>
<bpm>0</bpm>
<rpm>0.00</rpm>
</extensions>
</trkpt>
<trkpt lat="30.850446701" lon="34.778957367">
<ele>482.656250</ele>
<time>2013-11-20T09:47:04Z</time>
<speed>0.010000</speed>
<extensions>
<speed>0.0</speed>
<temp>0.00</temp>
<bpm>0</bpm>
<rpm>0.00</rpm>
</extensions>
</trkpt>
<trkpt lat="30.850446701" lon="34.778957367">
<ele>482.656250</ele>
<time>2013-11-20T09:47:09Z</time>
<extensions>
<speed>0.0</speed>
<temp>0.00</temp>
<bpm>0</bpm>
<rpm>0.00</rpm>
</extensions>
</trkpt>
<trkpt lat="30.850446701" lon="34.778957367">
<ele>482.640625</ele>
<time>2013-11-20T09:47:14Z</time>
<extensions>
<speed>0.0</speed>
<temp>0.00</temp>
<bpm>0</bpm>
<rpm>0.00</rpm>
</extensions>
</trkpt>
<trkpt lat="30.850446701" lon="34.778957367">
<ele>482.625000</ele>
<time>2013-11-20T09:47:19Z</time>
<extensions>
<speed>0.0</speed>
<temp>0.00</temp>
<bpm>0</bpm>
<rpm>0.00</rpm>
</extensions>
</trkpt>
<trkpt lat="30.850446701" lon="34.778957367">
<ele>482.609375</ele>
<time>2013-11-20T09:47:24Z</time>
<extensions>
<speed>0.0</speed>
<temp>0.00</temp>
<bpm>0</bpm>
<rpm>0.00</rpm>
</extensions>
</trkpt>
<trkpt lat="30.850446701" lon="34.778957367">
<ele>482.601563</ele>
<time>2013-11-20T09:47:29Z</time>
<extensions>
<speed>0.0</speed>
<temp>0.00</temp>
<bpm>0</bpm>
<rpm>0.00</rpm>
</extensions>
</trkpt>
<trkpt lat="30.850448608" lon="34.778957367">
<ele>482.593750</ele>
<time>2013-11-20T09:47:34Z</time>
<speed>0.010000</speed>
<extensions>
<speed>0.0</speed>
<temp>0.00</temp>
<bpm>0</bpm>
<rpm>0.00</rpm>
</extensions>
</trkpt>
<trkpt lat="30.850446701" lon="34.778957367">
<ele>482.593750</ele>
<time>2013-11-20T09:47:39Z</time>
<extensions>
<speed>0.0</speed>
<temp>0.00</temp>
<bpm>0</bpm>
<rpm>0.00</rpm>
</extensions>
</trkpt>
<trkpt lat="30.850446701" lon="34.778957367">
<ele>482.585938</ele>
<time>2013-11-20T09:47:44Z</time>
<speed>0.010000</speed>
<extensions>
<speed>0.0</speed>
<temp>0.00</temp>
<bpm>0</bpm>
<rpm>0.00</rpm>
</extensions>
</trkpt>
<trkpt lat="30.850446701" lon="34.778957367">
<ele>482.570313</ele>
<time>2013-11-20T09:47:49Z</time>
<extensions>
<speed>0.0</speed>
<temp>0.00</temp>
<bpm>0</bpm>
<rpm>0.00</rpm>
</extensions>
</trkpt>
<trkpt lat="30.850446701" lon="34.778961182">
<ele>482.562500</ele>
<time>2013-11-20T09:47:54Z</time>
<speed>0.030000</speed>
<extensions>
<speed>0.0</speed>
<temp>0.00</temp>
<bpm>0</bpm>
<rpm>0.00</rpm>
</extensions>
</trkpt>
<trkpt lat="30.850446701" lon="34.778961182">
<ele>482.546875</ele>
<time>2013-11-20T09:47:59Z</time>
<speed>0.020000</speed>
<extensions>
<speed>0.0</speed>
<temp>0.00</temp>
<bpm>0</bpm>
<rpm>0.00</rpm>
</extensions>
</trkpt>
<trkpt lat="30.850446701" lon="34.778961182">
<ele>482.539063</ele>
<time>2013-11-20T09:48:04Z</time>
<speed>0.550000</speed>
<extensions>
<speed>0.6</speed>
<temp>0.00</temp>
<bpm>0</bpm>
<rpm>0.00</rpm>
</extensions>
</trkpt>
<trkpt lat="30.850418091" lon="34.779037476">
<ele>482.687500</ele>
<time>2013-11-20T09:48:09Z</time>
<speed>2.090000</speed>
<extensions>
<speed>2.1</speed>
<temp>0.00</temp>
<bpm>0</bpm>
<rpm>0.00</rpm>
</extensions>
</trkpt>
<trkpt lat="30.850355148" lon="34.779182434">
<ele>482.382813</ele>
<time>2013-11-20T09:48:14Z</time>
<speed>3.600000</speed>
<extensions>
<speed>3.6</speed>
<temp>0.00</temp>
<bpm>0</bpm>
<rpm>0.00</rpm>
</extensions>
</trkpt>
<trkpt lat="30.850196838" lon="34.779281616">
<ele>482.687500</ele>
<time>2013-11-20T09:48:19Z</time>
<speed>4.040000</speed>
<extensions>
<speed>4.0</speed>
<temp>0.00</temp>
<bpm>0</bpm>
<rpm>0.00</rpm>
</extensions>
</trkpt>
<trkpt lat="30.850042343" lon="34.779438019">
<ele>482.203125</ele>
<time>2013-11-20T09:48:24Z</time>
<speed>4.630000</speed>
<extensions>
<speed>4.6</speed>
<temp>0.00</temp>
<bpm>0</bpm>
<rpm>0.00</rpm>
</extensions>
</trkpt>
<trkpt lat="30.849946976" lon="34.779655457">
<ele>481.546875</ele>
<time>2013-11-20T09:48:29Z</time>
<speed>3.710000</speed>
<extensions>
<speed>3.7</speed>
<temp>0.00</temp>
<bpm>0</bpm>
<rpm>0.00</rpm>
</extensions>
</trkpt>
<trkpt lat="30.849908829" lon="34.779823303">
<ele>481.671875</ele>
<time>2013-11-20T09:48:34Z</time>
<speed>2.940000</speed>
<extensions>
<speed>2.9</speed>
<temp>0.00</temp>
<bpm>0</bpm>
<rpm>0.00</rpm>
</extensions>
</trkpt>
<trkpt lat="30.849912643" lon="34.780025482">
<ele>482.953125</ele>
<time>2013-11-20T09:48:39Z</time>
<speed>3.320000</speed>
<extensions>
<speed>3.3</speed>
<temp>0.00</temp>
<bpm>0</bpm>
<rpm>0.00</rpm>
</extensions>
</trkpt>
<trkpt lat="30.849929810" lon="34.780246735">
<ele>483.132813</ele>
<time>2013-11-20T09:48:44Z</time>
<speed>4.180000</speed>
<extensions>
<speed>4.2</speed>
<temp>0.00</temp>
<bpm>0</bpm>
<rpm>0.00</rpm>
</extensions>
</trkpt>
<trkpt lat="30.849979401" lon="34.780513763">
<ele>484.218750</ele>
<time>2013-11-20T09:48:49Z</time>
<speed>4.760000</speed>
<extensions>
<speed>4.8</speed>
<temp>0.00</temp>
<bpm>0</bpm>
<rpm>0.00</rpm>
</extensions>
</trkpt>
<trkpt lat="30.850034714" lon="34.780780792">
<ele>484.445313</ele>
<time>2013-11-20T09:48:54Z</time>
<speed>5.050000</speed>
<extensions>
<speed>5.1</speed>
<temp>0.00</temp>
<bpm>0</bpm>
<rpm>0.00</rpm>
</extensions>
</trkpt>
<trkpt lat="30.850084305" lon="34.781059265">
<ele>484.695313</ele>
<time>2013-11-20T09:48:59Z</time>
<speed>5.200000</speed>
<extensions>
<speed>5.2</speed>
<temp>0.00</temp>
<bpm>0</bpm>
<rpm>0.00</rpm>
</extensions>
</trkpt>
<trkpt lat="30.850122452" lon="34.781341553">
<ele>484.046875</ele>
<time>2013-11-20T09:49:04Z</time>
<speed>5.680000</speed>
<extensions>
<speed>5.7</speed>
<temp>0.00</temp>
<bpm>0</bpm>
<rpm>0.00</rpm>
</extensions>
</trkpt>
<trkpt lat="30.850172043" lon="34.781639099">
<ele>483.320313</ele>
<time>2013-11-20T09:49:09Z</time>
<speed>5.890000</speed>
<extensions>
<speed>5.9</speed>
<temp>0.00</temp>
<bpm>0</bpm>
<rpm>0.00</rpm>
</extensions>
</trkpt>
<trkpt lat="30.850223541" lon="34.781921387">
<ele>481.960938</ele>
<time>2013-11-20T09:49:14Z</time>
<speed>5.750000</speed>
<extensions>
<speed>5.8</speed>
<temp>0.00</temp>
<bpm>0</bpm>
<rpm>0.00</rpm>
</extensions>
</trkpt>
<trkpt lat="30.850271225" lon="34.782199860">
<ele>481.820313</ele>
<time>2013-11-20T09:49:19Z</time>
<speed>5.540000</speed>
<extensions>
<speed>5.5</speed>
<temp>0.00</temp>
<bpm>0</bpm>
<rpm>0.00</rpm>
</extensions>
</trkpt>
<trkpt lat="30.850330353" lon="34.782451630">
<ele>482.851563</ele>
<time>2013-11-20T09:49:24Z</time>
<speed>4.700000</speed>
<extensions>
<speed>4.7</speed>
<temp>0.00</temp>
<bpm>0</bpm>
<rpm>0.00</rpm>
</extensions>
</trkpt>
<trkpt lat="30.850399017" lon="34.782653809">
<ele>483.640625</ele>
<time>2013-11-20T09:49:29Z</time>
<speed>3.710000</speed>
<extensions>
<speed>3.7</speed>
<temp>0.00</temp>
<bpm>0</bpm>
<rpm>0.00</rpm>
</extensions>
</trkpt>
<trkpt lat="30.850419998" lon="34.782722473">
<ele>485.156250</ele>
<time>2013-11-20T09:49:34Z</time>
<speed>1.620000</speed>
<extensions>
<speed>1.6</speed>
<temp>0.00</temp>
<bpm>0</bpm>
<rpm>0.00</rpm>
</extensions>
</trkpt>
<trkpt lat="30.850416183" lon="34.782871246">
<ele>484.601563</ele>
<time>2013-11-20T09:49:39Z</time>
<speed>4.110000</speed>
<extensions>
<speed>4.1</speed>
<temp>0.00</temp>
<bpm>0</bpm>
<rpm>0.00</rpm>
</extensions>
</trkpt>
<trkpt lat="30.850452423" lon="34.783123016">
<ele>485.984375</ele>
<time>2013-11-20T09:49:44Z</time>
<speed>3.620000</speed>
<extensions>
<speed>3.6</speed>
<temp>0.00</temp>
<bpm>0</bpm>
<rpm>0.00</rpm>
</extensions>
</trkpt>
<trkpt lat="30.850515366" lon="34.783279419">
<ele>488.023438</ele>
<time>2013-11-20T09:49:49Z</time>
<speed>2.810000</speed>
<extensions>
<speed>2.8</speed>
<temp>0.00</temp>
<bpm>0</bpm>
<rpm>0.00</rpm>
</extensions>
</trkpt>
<trkpt lat="30.850587845" lon="34.783325195">
<ele>489.093750</ele>
<time>2013-11-20T09:49:54Z</time>
<speed>1.040000</speed>
<extensions>
<speed>1.0</speed>
<temp>0.00</temp>
<bpm>0</bpm>
<rpm>0.00</rpm>
</extensions>
</trkpt>
<trkpt lat="30.850660324" lon="34.783397675">
<ele>488.742188</ele>
<time>2013-11-20T09:49:59Z</time>
<speed>0.400000</speed>
<extensions>
<speed>0.4</speed>
<temp>0.00</temp>
<bpm>0</bpm>
<rpm>0.00</rpm>
</extensions>
</trkpt>
<trkpt lat="30.850677490" lon="34.783416748">
<ele>487.460938</ele>
<time>2013-11-20T09:50:04Z</time>
<speed>0.120000</speed>
<extensions>
<speed>0.1</speed>
<temp>0.00</temp>
<bpm>0</bpm>
<rpm>0.00</rpm>
</extensions>
</trkpt>
<trkpt lat="30.850679398" lon="34.783416748">
<ele>487.515625</ele>
<time>2013-11-20T09:50:09Z</time>
<speed>0.010000</speed>
<extensions>
<speed>0.0</speed>
<temp>0.00</temp>
<bpm>0</bpm>
<rpm>0.00</rpm>
</extensions>
</trkpt>
<trkpt lat="30.850679398" lon="34.783416748">
<ele>487.500000</ele>
<time>2013-11-20T09:50:14Z</time>
<speed>0.020000</speed>
<extensions>
<speed>0.0</speed>
<temp>0.00</temp>
<bpm>0</bpm>
<rpm>0.00</rpm>
</extensions>
</trkpt>
<trkpt lat="30.850679398" lon="34.783412933">
<ele>487.539063</ele>
<time>2013-11-20T09:50:19Z</time>
<speed>0.220000</speed>
<extensions>
<speed>0.2</speed>
<temp>0.00</temp>
<bpm>0</bpm>
<rpm>0.00</rpm>
</extensions>
</trkpt>
<trkpt lat="30.850683212" lon="34.783424377">
<ele>487.554688</ele>
<time>2013-11-20T09:50:24Z</time>
<speed>0.140000</speed>
<extensions>
<speed>0.1</speed>
<temp>0.00</temp>
<bpm>0</bpm>
<rpm>0.00</rpm>
</extensions>
</trkpt>
<trkpt lat="30.850685120" lon="34.783424377">
<ele>487.484375</ele>
<time>2013-11-20T09:50:29Z</time>
<extensions>
<speed>0.0</speed>
<temp>0.00</temp>
<bpm>0</bpm>
<rpm>0.00</rpm>
</extensions>
</trkpt>
<trkpt lat="30.850685120" lon="34.783424377">
<ele>487.445313</ele>
<time>2013-11-20T09:50:34Z</time>
<speed>0.020000</speed>
<extensions>
<speed>0.0</speed>
<temp>0.00</temp>
<bpm>0</bpm>
<rpm>0.00</rpm>
</extensions>
</trkpt>
<trkpt lat="30.850685120" lon="34.783424377">
<ele>487.406250</ele>
<time>2013-11-20T09:50:39Z</time>
<speed>0.020000</speed>
<extensions>
<speed>0.0</speed>
<temp>0.00</temp>
<bpm>0</bpm>
<rpm>0.00</rpm>
</extensions>
</trkpt>
<trkpt lat="30.850687027" lon="34.783424377">
<ele>487.375000</ele>
<time>2013-11-20T09:50:44Z</time>
<speed>0.010000</speed>
<extensions>
<speed>0.0</speed>
<temp>0.00</temp>
<bpm>0</bpm>
<rpm>0.00</rpm>
</extensions>
</trkpt>
<trkpt lat="30.850687027" lon="34.783424377">
<ele>487.328125</ele>
<time>2013-11-20T09:50:49Z</time>
<speed>0.020000</speed>
<extensions>
<speed>0.0</speed>
<temp>0.00</temp>
<bpm>0</bpm>
<rpm>0.00</rpm>
</extensions>
</trkpt>
<trkpt lat="30.850687027" lon="34.783424377">
<ele>487.296875</ele>
<time>2013-11-20T09:50:54Z</time>
<extensions>
<speed>0.0</speed>
<temp>0.00</temp>
<bpm>0</bpm>
<rpm>0.00</rpm>
</extensions>
</trkpt>
<trkpt lat="30.850687027" lon="34.783424377">
<ele>487.257813</ele>
<time>2013-11-20T09:50:59Z</time>
<speed>0.010000</speed>
<extensions>
<speed>0.0</speed>
<temp>0.00</temp>
<bpm>0</bpm>
<rpm>0.00</rpm>
</extensions>
</trkpt>
<trkpt lat="30.850687027" lon="34.783424377">
<ele>487.242188</ele>
<time>2013-11-20T09:51:04Z</time>
<speed>0.010000</speed>
<extensions>
<speed>0.0</speed>
<temp>0.00</temp>
<bpm>0</bpm>
<rpm>0.00</rpm>
</extensions>
</trkpt>
<trkpt lat="30.850687027" lon="34.783424377">
<ele>487.218750</ele>
<time>2013-11-20T09:51:09Z</time>
<extensions>
<speed>0.0</speed>
<temp>0.00</temp>
<bpm>0</bpm>
<rpm>0.00</rpm>
</extensions>
</trkpt>
<trkpt lat="30.850687027" lon="34.783424377">
<ele>487.195313</ele>
<time>2013-11-20T09:51:14Z</time>
<extensions>
<speed>0.0</speed>
<temp>0.00</temp>
<bpm>0</bpm>
<rpm>0.00</rpm>
</extensions>
</trkpt>
<trkpt lat="30.850687027" lon="34.783424377">
<ele>487.164063</ele>
<time>2013-11-20T09:51:19Z</time>
<speed>0.010000</speed>
<extensions>
<speed>0.0</speed>
<temp>0.00</temp>
<bpm>0</bpm>
<rpm>0.00</rpm>
</extensions>
</trkpt>
<trkpt lat="30.850687027" lon="34.783424377">
<ele>487.148438</ele>
<time>2013-11-20T09:51:24Z</time>
<extensions>
<speed>0.0</speed>
<temp>0.00</temp>
<bpm>0</bpm>
<rpm>0.00</rpm>
</extensions>
</trkpt>
<trkpt lat="30.850687027" lon="34.783424377">
<ele>487.117188</ele>
<time>2013-11-20T09:51:29Z</time>
<speed>0.010000</speed>
<extensions>
<speed>0.0</speed>
<temp>0.00</temp>
<bpm>0</bpm>
<rpm>0.00</rpm>
</extensions>
</trkpt>
<trkpt lat="30.850688934" lon="34.783424377">
<ele>487.093750</ele>
<time>2013-11-20T09:51:34Z</time>
<speed>0.010000</speed>
<extensions>
<speed>0.0</speed>
<temp>0.00</temp>
<bpm>0</bpm>
<rpm>0.00</rpm>
</extensions>
</trkpt>
<trkpt lat="30.850688934" lon="34.783424377">
<ele>487.078125</ele>
<time>2013-11-20T09:51:39Z</time>
<speed>0.010000</speed>
<extensions>
<speed>0.0</speed>
<temp>0.00</temp>
<bpm>0</bpm>
<rpm>0.00</rpm>
</extensions>
</trkpt>
<trkpt lat="30.850688934" lon="34.783424377">
<ele>487.062500</ele>
<time>2013-11-20T09:51:44Z</time>
<extensions>
<speed>0.0</speed>
<temp>0.00</temp>
<bpm>0</bpm>
<rpm>0.00</rpm>
</extensions>
</trkpt>
<trkpt lat="30.850688934" lon="34.783424377">
<ele>487.054688</ele>
<time>2013-11-20T09:51:49Z</time>
<speed>0.010000</speed>
<extensions>
<speed>0.0</speed>
<temp>0.00</temp>
<bpm>0</bpm>
<rpm>0.00</rpm>
</extensions>
</trkpt>
<trkpt lat="30.850688934" lon="34.783424377">
<ele>487.046875</ele>
<time>2013-11-20T09:51:54Z</time>
<speed>0.010000</speed>
<extensions>
<speed>0.0</speed>
<temp>0.00</temp>
<bpm>0</bpm>
<rpm>0.00</rpm>
</extensions>
</trkpt>
<trkpt lat="30.850688934" lon="34.783428192">
<ele>487.039063</ele>
<time>2013-11-20T09:51:59Z</time>
<speed>0.010000</speed>
<extensions>
<speed>0.0</speed>
<temp>0.00</temp>
<bpm>0</bpm>
<rpm>0.00</rpm>
</extensions>
</trkpt>
<trkpt lat="30.850688934" lon="34.783428192">
<ele>487.023438</ele>
<time>2013-11-20T09:52:04Z</time>
<extensions>
<speed>0.0</speed>
<temp>0.00</temp>
<bpm>0</bpm>
<rpm>0.00</rpm>
</extensions>
</trkpt>
<trkpt lat="30.850688934" lon="34.783428192">
<ele>487.007813</ele>
<time>2013-11-20T09:52:09Z</time>
<extensions>
<speed>0.0</speed>
<temp>0.00</temp>
<bpm>0</bpm>
<rpm>0.00</rpm>
</extensions>
</trkpt>
<trkpt lat="30.850688934" lon="34.783428192">
<ele>486.984375</ele>
<time>2013-11-20T09:52:14Z</time>
<extensions>
<speed>0.0</speed>
<temp>0.00</temp>
<bpm>0</bpm>
<rpm>0.00</rpm>
</extensions>
</trkpt>
<trkpt lat="30.850688934" lon="34.783428192">
<ele>486.960938</ele>
<time>2013-11-20T09:52:19Z</time>
<extensions>
<speed>0.0</speed>
<temp>0.00</temp>
<bpm>0</bpm>
<rpm>0.00</rpm>
</extensions>
</trkpt>
<trkpt lat="30.850688934" lon="34.783428192">
<ele>486.953125</ele>
<time>2013-11-20T09:52:24Z</time>
<extensions>
<speed>0.0</speed>
<temp>0.00</temp>
<bpm>0</bpm>
<rpm>0.00</rpm>
</extensions>
</trkpt>
<trkpt lat="30.850688934" lon="34.783428192">
<ele>486.929688</ele>
<time>2013-11-20T09:52:29Z</time>
<extensions>
<speed>0.0</speed>
<temp>0.00</temp>
<bpm>0</bpm>
<rpm>0.00</rpm>
</extensions>
</trkpt>
<trkpt lat="30.850688934" lon="34.783428192">
<ele>486.914063</ele>
<time>2013-11-20T09:52:34Z</time>
<extensions>
<speed>0.0</speed>
<temp>0.00</temp>
<bpm>0</bpm>
<rpm>0.00</rpm>
</extensions>
</trkpt>
<trkpt lat="30.850688934" lon="34.783428192">
<ele>486.898438</ele>
<time>2013-11-20T09:52:39Z</time>
<extensions>
<speed>0.0</speed>
<temp>0.00</temp>
<bpm>0</bpm>
<rpm>0.00</rpm>
</extensions>
</trkpt>
<trkpt lat="30.850688934" lon="34.783428192">
<ele>486.882813</ele>
<time>2013-11-20T09:52:44Z</time>
<extensions>
<speed>0.0</speed>
<temp>0.00</temp>
<bpm>0</bpm>
<rpm>0.00</rpm>
</extensions>
</trkpt>
<trkpt lat="30.850688934" lon="34.783428192">
<ele>486.867188</ele>
<time>2013-11-20T09:52:49Z</time>
<extensions>
<speed>0.0</speed>
<temp>0.00</temp>
<bpm>0</bpm>
<rpm>0.00</rpm>
</extensions>
</trkpt>
<trkpt lat="30.850688934" lon="34.783428192">
<ele>486.843750</ele>
<time>2013-11-20T09:52:54Z</time>
<speed>0.010000</speed>
<extensions>
<speed>0.0</speed>
<temp>0.00</temp>
<bpm>0</bpm>
<rpm>0.00</rpm>
</extensions>
</trkpt>
<trkpt lat="30.850688934" lon="34.783428192">
<ele>486.828125</ele>
<time>2013-11-20T09:52:59Z</time>
<speed>0.010000</speed>
<extensions>
<speed>0.0</speed>
<temp>0.00</temp>
<bpm>0</bpm>
<rpm>0.00</rpm>
</extensions>
</trkpt>
<trkpt lat="30.850688934" lon="34.783428192">
<ele>486.804688</ele>
<time>2013-11-20T09:53:04Z</time>
<speed>0.010000</speed>
<extensions>
<speed>0.0</speed>
<temp>0.00</temp>
<bpm>0</bpm>
<rpm>0.00</rpm>
</extensions>
</trkpt>
<trkpt lat="30.850688934" lon="34.783428192">
<ele>486.765625</ele>
<time>2013-11-20T09:53:09Z</time>
<extensions>
<speed>0.0</speed>
<temp>0.00</temp>
<bpm>0</bpm>
<rpm>0.00</rpm>
</extensions>
</trkpt>
<trkpt lat="30.850688934" lon="34.783424377">
<ele>486.734375</ele>
<time>2013-11-20T09:53:14Z</time>
<extensions>
<speed>0.0</speed>
<temp>0.00</temp>
<bpm>0</bpm>
<rpm>0.00</rpm>
</extensions>
</trkpt>
<trkpt lat="30.850688934" lon="34.783424377">
<ele>486.695313</ele>
<time>2013-11-20T09:53:19Z</time>
<speed>0.010000</speed>
<extensions>
<speed>0.0</speed>
<temp>0.00</temp>
<bpm>0</bpm>
<rpm>0.00</rpm>
</extensions>
</trkpt>
<trkpt lat="30.850688934" lon="34.783424377">
<ele>486.664063</ele>
<time>2013-11-20T09:53:24Z</time>
<extensions>
<speed>0.0</speed>
<temp>0.00</temp>
<bpm>0</bpm>
<rpm>0.00</rpm>
</extensions>
</trkpt>
<trkpt lat="30.850688934" lon="34.783424377">
<ele>486.648438</ele>
<time>2013-11-20T09:53:29Z</time>
<extensions>
<speed>0.0</speed>
<temp>0.00</temp>
<bpm>0</bpm>
<rpm>0.00</rpm>
</extensions>
</trkpt>
<trkpt lat="30.850688934" lon="34.783424377">
<ele>486.625000</ele>
<time>2013-11-20T09:53:34Z</time>
<speed>0.010000</speed>
<extensions>
<speed>0.0</speed>
<temp>0.00</temp>
<bpm>0</bpm>
<rpm>0.00</rpm>
</extensions>
</trkpt>
<trkpt lat="30.850688934" lon="34.783424377">
<ele>486.609375</ele>
<time>2013-11-20T09:53:39Z</time>
<extensions>
<speed>0.0</speed>
<temp>0.00</temp>
<bpm>0</bpm>
<rpm>0.00</rpm>
</extensions>
</trkpt>
<trkpt lat="30.850688934" lon="34.783424377">
<ele>486.593750</ele>
<time>2013-11-20T09:53:44Z</time>
<extensions>
<speed>0.0</speed>
<temp>0.00</temp>
<bpm>0</bpm>
<rpm>0.00</rpm>
</extensions>
</trkpt>
<trkpt lat="30.850688934" lon="34.783424377">
<ele>486.578125</ele>
<time>2013-11-20T09:53:49Z</time>
<speed>0.010000</speed>
<extensions>
<speed>0.0</speed>
<temp>0.00</temp>
<bpm>0</bpm>
<rpm>0.00</rpm>
</extensions>
</trkpt>
<trkpt lat="30.850688934" lon="34.783424377">
<ele>486.570313</ele>
<time>2013-11-20T09:53:54Z</time>
<extensions>
<speed>0.0</speed>
<temp>0.00</temp>
<bpm>0</bpm>
<rpm>0.00</rpm>
</extensions>
</trkpt>
<trkpt lat="30.850688934" lon="34.783424377">
<ele>486.578125</ele>
<time>2013-11-20T09:53:59Z</time>
<speed>0.020000</speed>
<extensions>
<speed>0.0</speed>
<temp>0.00</temp>
<bpm>0</bpm>
<rpm>0.00</rpm>
</extensions>
</trkpt>
<trkpt lat="30.850688934" lon="34.783424377">
<ele>486.578125</ele>
<time>2013-11-20T09:54:04Z</time>
<extensions>
<speed>0.0</speed>
<temp>0.00</temp>
<bpm>0</bpm>
<rpm>0.00</rpm>
</extensions>
</trkpt>
<trkpt lat="30.850688934" lon="34.783424377">
<ele>486.578125</ele>
<time>2013-11-20T09:54:09Z</time>
<extensions>
<speed>0.0</speed>
<temp>0.00</temp>
<bpm>0</bpm>
<rpm>0.00</rpm>
</extensions>
</trkpt>
<trkpt lat="30.850688934" lon="34.783424377">
<ele>486.601563</ele>
<time>2013-11-20T09:54:14Z</time>
<extensions>
<speed>0.0</speed>
<temp>0.00</temp>
<bpm>0</bpm>
<rpm>0.00</rpm>
</extensions>
</trkpt>
<trkpt lat="30.850688934" lon="34.783424377">
<ele>486.617188</ele>
<time>2013-11-20T09:54:19Z</time>
<extensions>
<speed>0.0</speed>
<temp>0.00</temp>
<bpm>0</bpm>
<rpm>0.00</rpm>
</extensions>
</trkpt>
<trkpt lat="30.850688934" lon="34.783424377">
<ele>486.632813</ele>
<time>2013-11-20T09:54:24Z</time>
<extensions>
<speed>0.0</speed>
<temp>0.00</temp>
<bpm>0</bpm>
<rpm>0.00</rpm>
</extensions>
</trkpt>
<trkpt lat="30.850688934" lon="34.783424377">
<ele>486.648438</ele>
<time>2013-11-20T09:54:29Z</time>
<speed>0.010000</speed>
<extensions>
<speed>0.0</speed>
<temp>0.00</temp>
<bpm>0</bpm>
<rpm>0.00</rpm>
</extensions>
</trkpt>
<trkpt lat="30.850688934" lon="34.783424377">
<ele>486.664063</ele>
<time>2013-11-20T09:54:34Z</time>
<extensions>
<speed>0.0</speed>
<temp>0.00</temp>
<bpm>0</bpm>
<rpm>0.00</rpm>
</extensions>
</trkpt>
<trkpt lat="30.850688934" lon="34.783424377">
<ele>486.664063</ele>
<time>2013-11-20T09:54:39Z</time>
<extensions>
<speed>0.0</speed>
<temp>0.00</temp>
<bpm>0</bpm>
<rpm>0.00</rpm>
</extensions>
</trkpt>
<trkpt lat="30.850688934" lon="34.783424377">
<ele>486.687500</ele>
<time>2013-11-20T09:54:44Z</time>
<extensions>
<speed>0.0</speed>
<temp>0.00</temp>
<bpm>0</bpm>
<rpm>0.00</rpm>
</extensions>
</trkpt>
<trkpt lat="30.850688934" lon="34.783424377">
<ele>486.703125</ele>
<time>2013-11-20T09:54:49Z</time>
<speed>0.010000</speed>
<extensions>
<speed>0.0</speed>
<temp>0.00</temp>
<bpm>0</bpm>
<rpm>0.00</rpm>
</extensions>
</trkpt>
<trkpt lat="30.850688934" lon="34.783424377">
<ele>486.726563</ele>
<time>2013-11-20T09:54:54Z</time>
<extensions>
<speed>0.0</speed>
<temp>0.00</temp>
<bpm>0</bpm>
<rpm>0.00</rpm>
</extensions>
</trkpt>
<trkpt lat="30.850688934" lon="34.783424377">
<ele>486.750000</ele>
<time>2013-11-20T09:54:59Z</time>
<extensions>
<speed>0.0</speed>
<temp>0.00</temp>
<bpm>0</bpm>
<rpm>0.00</rpm>
</extensions>
</trkpt>
<trkpt lat="30.850688934" lon="34.783424377">
<ele>486.765625</ele>
<time>2013-11-20T09:55:04Z</time>
<extensions>
<speed>0.0</speed>
<temp>0.00</temp>
<bpm>0</bpm>
<rpm>0.00</rpm>
</extensions>
</trkpt>
<trkpt lat="30.850688934" lon="34.783424377">
<ele>486.781250</ele>
<time>2013-11-20T09:55:09Z</time>
<speed>0.010000</speed>
<extensions>
<speed>0.0</speed>
<temp>0.00</temp>
<bpm>0</bpm>
<rpm>0.00</rpm>
</extensions>
</trkpt>
<trkpt lat="30.850688934" lon="34.783424377">
<ele>486.796875</ele>
<time>2013-11-20T09:55:14Z</time>
<extensions>
<speed>0.0</speed>
<temp>0.00</temp>
<bpm>0</bpm>
<rpm>0.00</rpm>
</extensions>
</trkpt>
<trkpt lat="30.850688934" lon="34.783424377">
<ele>486.804688</ele>
<time>2013-11-20T09:55:19Z</time>
<extensions>
<speed>0.0</speed>
<temp>0.00</temp>
<bpm>0</bpm>
<rpm>0.00</rpm>
</extensions>
</trkpt>
<trkpt lat="30.850688934" lon="34.783424377">
<ele>486.812500</ele>
<time>2013-11-20T09:55:24Z</time>
<extensions>
<speed>0.0</speed>
<temp>0.00</temp>
<bpm>0</bpm>
<rpm>0.00</rpm>
</extensions>
</trkpt>
<trkpt lat="30.850688934" lon="34.783424377">
<ele>486.820313</ele>
<time>2013-11-20T09:55:29Z</time>
<extensions>
<speed>0.0</speed>
<temp>0.00</temp>
<bpm>0</bpm>
<rpm>0.00</rpm>
</extensions>
</trkpt>
<trkpt lat="30.850688934" lon="34.783424377">
<ele>486.835938</ele>
<time>2013-11-20T09:55:34Z</time>
<extensions>
<speed>0.0</speed>
<temp>0.00</temp>
<bpm>0</bpm>
<rpm>0.00</rpm>
</extensions>
</trkpt>
<trkpt lat="30.850688934" lon="34.783424377">
<ele>486.851563</ele>
<time>2013-11-20T09:55:39Z</time>
<extensions>
<speed>0.0</speed>
<temp>0.00</temp>
<bpm>0</bpm>
<rpm>0.00</rpm>
</extensions>
</trkpt>
<trkpt lat="30.850688934" lon="34.783424377">
<ele>486.859375</ele>
<time>2013-11-20T09:55:44Z</time>
<extensions>
<speed>0.0</speed>
<temp>0.00</temp>
<bpm>0</bpm>
<rpm>0.00</rpm>
</extensions>
</trkpt>
<trkpt lat="30.850688934" lon="34.783424377">
<ele>486.875000</ele>
<time>2013-11-20T09:55:49Z</time>
<extensions>
<speed>0.0</speed>
<temp>0.00</temp>
<bpm>0</bpm>
<rpm>0.00</rpm>
</extensions>
</trkpt>
<trkpt lat="30.850688934" lon="34.783424377">
<ele>486.882813</ele>
<time>2013-11-20T09:55:54Z</time>
<extensions>
<speed>0.0</speed>
<temp>0.00</temp>
<bpm>0</bpm>
<rpm>0.00</rpm>
</extensions>
</trkpt>
<trkpt lat="30.850688934" lon="34.783424377">
<ele>486.898438</ele>
<time>2013-11-20T09:55:59Z</time>
<extensions>
<speed>0.0</speed>
<temp>0.00</temp>
<bpm>0</bpm>
<rpm>0.00</rpm>
</extensions>
</trkpt>
<trkpt lat="30.850688934" lon="34.783424377">
<ele>486.914063</ele>
<time>2013-11-20T09:56:04Z</time>
<extensions>
<speed>0.0</speed>
<temp>0.00</temp>
<bpm>0</bpm>
<rpm>0.00</rpm>
</extensions>
</trkpt>
<trkpt lat="30.850688934" lon="34.783424377">
<ele>486.937500</ele>
<time>2013-11-20T09:56:09Z</time>
<extensions>
<speed>0.0</speed>
<temp>0.00</temp>
<bpm>0</bpm>
<rpm>0.00</rpm>
</extensions>
</trkpt>
<trkpt lat="30.850688934" lon="34.783424377">
<ele>486.945313</ele>
<time>2013-11-20T09:56:14Z</time>
<extensions>
<speed>0.0</speed>
<temp>0.00</temp>
<bpm>0</bpm>
<rpm>0.00</rpm>
</extensions>
</trkpt>
<trkpt lat="30.850688934" lon="34.783424377">
<ele>486.960938</ele>
<time>2013-11-20T09:56:19Z</time>
<extensions>
<speed>0.0</speed>
<temp>0.00</temp>
<bpm>0</bpm>
<rpm>0.00</rpm>
</extensions>
</trkpt>
<trkpt lat="30.850688934" lon="34.783424377">
<ele>486.976563</ele>
<time>2013-11-20T09:56:24Z</time>
<extensions>
<speed>0.0</speed>
<temp>0.00</temp>
<bpm>0</bpm>
<rpm>0.00</rpm>
</extensions>
</trkpt>
<trkpt lat="30.850688934" lon="34.783424377">
<ele>487.000000</ele>
<time>2013-11-20T09:56:29Z</time>
<extensions>
<speed>0.0</speed>
<temp>0.00</temp>
<bpm>0</bpm>
<rpm>0.00</rpm>
</extensions>
</trkpt>
<trkpt lat="30.850688934" lon="34.783424377">
<ele>487.007813</ele>
<time>2013-11-20T09:56:34Z</time>
<speed>0.010000</speed>
<extensions>
<speed>0.0</speed>
<temp>0.00</temp>
<bpm>0</bpm>
<rpm>0.00</rpm>
</extensions>
</trkpt>
<trkpt lat="30.850688934" lon="34.783424377">
<ele>487.023438</ele>
<time>2013-11-20T09:56:39Z</time>
<speed>0.010000</speed>
<extensions>
<speed>0.0</speed>
<temp>0.00</temp>
<bpm>0</bpm>
<rpm>0.00</rpm>
</extensions>
</trkpt>
<trkpt lat="30.850688934" lon="34.783424377">
<ele>487.031250</ele>
<time>2013-11-20T09:56:44Z</time>
<extensions>
<speed>0.0</speed>
<temp>0.00</temp>
<bpm>0</bpm>
<rpm>0.00</rpm>
</extensions>
</trkpt>
<trkpt lat="30.850688934" lon="34.783424377">
<ele>487.023438</ele>
<time>2013-11-20T09:56:49Z</time>
<extensions>
<speed>0.0</speed>
<temp>0.00</temp>
<bpm>0</bpm>
<rpm>0.00</rpm>
</extensions>
</trkpt>
<trkpt lat="30.850688934" lon="34.783424377">
<ele>487.015625</ele>
<time>2013-11-20T09:56:54Z</time>
<extensions>
<speed>0.0</speed>
<temp>0.00</temp>
<bpm>0</bpm>
<rpm>0.00</rpm>
</extensions>
</trkpt>
<trkpt lat="30.850688934" lon="34.783424377">
<ele>487.007813</ele>
<time>2013-11-20T09:56:59Z</time>
<extensions>
<speed>0.0</speed>
<temp>0.00</temp>
<bpm>0</bpm>
<rpm>0.00</rpm>
</extensions>
</trkpt>
<trkpt lat="30.850687027" lon="34.783428192">
<ele>486.984375</ele>
<time>2013-11-20T09:57:04Z</time>
<extensions>
<speed>0.0</speed>
<temp>0.00</temp>
<bpm>0</bpm>
<rpm>0.00</rpm>
</extensions>
</trkpt>
<trkpt lat="30.850687027" lon="34.783428192">
<ele>486.968750</ele>
<time>2013-11-20T09:57:09Z</time>
<extensions>
<speed>0.0</speed>
<temp>0.00</temp>
<bpm>0</bpm>
<rpm>0.00</rpm>
</extensions>
</trkpt>
<trkpt lat="30.850687027" lon="34.783428192">
<ele>486.937500</ele>
<time>2013-11-20T09:57:14Z</time>
<extensions>
<speed>0.0</speed>
<temp>0.00</temp>
<bpm>0</bpm>
<rpm>0.00</rpm>
</extensions>
</trkpt>
<trkpt lat="30.850687027" lon="34.783428192">
<ele>486.898438</ele>
<time>2013-11-20T09:57:19Z</time>
<extensions>
<speed>0.0</speed>
<temp>0.00</temp>
<bpm>0</bpm>
<rpm>0.00</rpm>
</extensions>
</trkpt>
<trkpt lat="30.850687027" lon="34.783428192">
<ele>486.859375</ele>
<time>2013-11-20T09:57:24Z</time>
<extensions>
<speed>0.0</speed>
<temp>0.00</temp>
<bpm>0</bpm>
<rpm>0.00</rpm>
</extensions>
</trkpt>
<trkpt lat="30.850685120" lon="34.783428192">
<ele>486.835938</ele>
<time>2013-11-20T09:57:29Z</time>
<extensions>
<speed>0.0</speed>
<temp>0.00</temp>
<bpm>0</bpm>
<rpm>0.00</rpm>
</extensions>
</trkpt>
<trkpt lat="30.850685120" lon="34.783428192">
<ele>486.820313</ele>
<time>2013-11-20T09:57:34Z</time>
<speed>0.010000</speed>
<extensions>
<speed>0.0</speed>
<temp>0.00</temp>
<bpm>0</bpm>
<rpm>0.00</rpm>
</extensions>
</trkpt>
<trkpt lat="30.850685120" lon="34.783428192">
<ele>486.804688</ele>
<time>2013-11-20T09:57:39Z</time>
<extensions>
<speed>0.0</speed>
<temp>0.00</temp>
<bpm>0</bpm>
<rpm>0.00</rpm>
</extensions>
</trkpt>
<trkpt lat="30.850685120" lon="34.783428192">
<ele>486.796875</ele>
<time>2013-11-20T09:57:44Z</time>
<extensions>
<speed>0.0</speed>
<temp>0.00</temp>
<bpm>0</bpm>
<rpm>0.00</rpm>
</extensions>
</trkpt>
<trkpt lat="30.850685120" lon="34.783428192">
<ele>486.789063</ele>
<time>2013-11-20T09:57:49Z</time>
<extensions>
<speed>0.0</speed>
<temp>0.00</temp>
<bpm>0</bpm>
<rpm>0.00</rpm>
</extensions>
</trkpt>
<trkpt lat="30.850685120" lon="34.783428192">
<ele>486.781250</ele>
<time>2013-11-20T09:57:54Z</time>
<extensions>
<speed>0.0</speed>
<temp>0.00</temp>
<bpm>0</bpm>
<rpm>0.00</rpm>
</extensions>
</trkpt>
<trkpt lat="30.850685120" lon="34.783428192">
<ele>486.781250</ele>
<time>2013-11-20T09:57:59Z</time>
<speed>0.010000</speed>
<extensions>
<speed>0.0</speed>
<temp>0.00</temp>
<bpm>0</bpm>
<rpm>0.00</rpm>
</extensions>
</trkpt>
<trkpt lat="30.850685120" lon="34.783428192">
<ele>486.765625</ele>
<time>2013-11-20T09:58:04Z</time>
<extensions>
<speed>0.0</speed>
<temp>0.00</temp>
<bpm>0</bpm>
<rpm>0.00</rpm>
</extensions>
</trkpt>
<trkpt lat="30.850685120" lon="34.783428192">
<ele>486.742188</ele>
<time>2013-11-20T09:58:09Z</time>
<extensions>
<speed>0.0</speed>
<temp>0.00</temp>
<bpm>0</bpm>
<rpm>0.00</rpm>
</extensions>
</trkpt>
<trkpt lat="30.850683212" lon="34.783428192">
<ele>486.718750</ele>
<time>2013-11-20T09:58:14Z</time>
<extensions>
<speed>0.0</speed>
<temp>0.00</temp>
<bpm>0</bpm>
<rpm>0.00</rpm>
</extensions>
</trkpt>
<trkpt lat="30.850683212" lon="34.783428192">
<ele>486.703125</ele>
<time>2013-11-20T09:58:19Z</time>
<extensions>
<speed>0.0</speed>
<temp>0.00</temp>
<bpm>0</bpm>
<rpm>0.00</rpm>
</extensions>
</trkpt>
<trkpt lat="30.850683212" lon="34.783428192">
<ele>486.695313</ele>
<time>2013-11-20T09:58:24Z</time>
<extensions>
<speed>0.0</speed>
<temp>0.00</temp>
<bpm>0</bpm>
<rpm>0.00</rpm>
</extensions>
</trkpt>
<trkpt lat="30.850683212" lon="34.783428192">
<ele>486.679688</ele>
<time>2013-11-20T09:58:29Z</time>
<extensions>
<speed>0.0</speed>
<temp>0.00</temp>
<bpm>0</bpm>
<rpm>0.00</rpm>
</extensions>
</trkpt>
<trkpt lat="30.850683212" lon="34.783428192">
<ele>486.648438</ele>
<time>2013-11-20T09:58:34Z</time>
<extensions>
<speed>0.0</speed>
<temp>0.00</temp>
<bpm>0</bpm>
<rpm>0.00</rpm>
</extensions>
</trkpt>
<trkpt lat="30.850681305" lon="34.783428192">
<ele>486.625000</ele>
<time>2013-11-20T09:58:39Z</time>
<extensions>
<speed>0.0</speed>
<temp>0.00</temp>
<bpm>0</bpm>
<rpm>0.00</rpm>
</extensions>
</trkpt>
<trkpt lat="30.850681305" lon="34.783428192">
<ele>486.593750</ele>
<time>2013-11-20T09:58:44Z</time>
<extensions>
<speed>0.0</speed>
<temp>0.00</temp>
<bpm>0</bpm>
<rpm>0.00</rpm>
</extensions>
</trkpt>
<trkpt lat="30.850681305" lon="34.783428192">
<ele>486.570313</ele>
<time>2013-11-20T09:58:49Z</time>
<extensions>
<speed>0.0</speed>
<temp>0.00</temp>
<bpm>0</bpm>
<rpm>0.00</rpm>
</extensions>
</trkpt>
<trkpt lat="30.850681305" lon="34.783428192">
<ele>486.546875</ele>
<time>2013-11-20T09:58:54Z</time>
<extensions>
<speed>0.0</speed>
<temp>0.00</temp>
<bpm>0</bpm>
<rpm>0.00</rpm>
</extensions>
</trkpt>
<trkpt lat="30.850681305" lon="34.783428192">
<ele>486.531250</ele>
<time>2013-11-20T09:58:59Z</time>
<extensions>
<speed>0.0</speed>
<temp>0.00</temp>
<bpm>0</bpm>
<rpm>0.00</rpm>
</extensions>
</trkpt>
<trkpt lat="30.850681305" lon="34.783428192">
<ele>486.531250</ele>
<time>2013-11-20T09:59:04Z</time>
<extensions>
<speed>0.0</speed>
<temp>0.00</temp>
<bpm>0</bpm>
<rpm>0.00</rpm>
</extensions>
</trkpt>
<trkpt lat="30.850679398" lon="34.783428192">
<ele>486.523438</ele>
<time>2013-11-20T09:59:09Z</time>
<extensions>
<speed>0.0</speed>
<temp>0.00</temp>
<bpm>0</bpm>
<rpm>0.00</rpm>
</extensions>
</trkpt>
<trkpt lat="30.850679398" lon="34.783428192">
<ele>486.507813</ele>
<time>2013-11-20T09:59:14Z</time>
<extensions>
<speed>0.0</speed>
<temp>0.00</temp>
<bpm>0</bpm>
<rpm>0.00</rpm>
</extensions>
</trkpt>
<trkpt lat="30.850679398" lon="34.783428192">
<ele>486.484375</ele>
<time>2013-11-20T09:59:19Z</time>
<extensions>
<speed>0.0</speed>
<temp>0.00</temp>
<bpm>0</bpm>
<rpm>0.00</rpm>
</extensions>
</trkpt>
<trkpt lat="30.850679398" lon="34.783428192">
<ele>486.468750</ele>
<time>2013-11-20T09:59:24Z</time>
<speed>0.010000</speed>
<extensions>
<speed>0.0</speed>
<temp>0.00</temp>
<bpm>0</bpm>
<rpm>0.00</rpm>
</extensions>
</trkpt>
<trkpt lat="30.850679398" lon="34.783428192">
<ele>486.453125</ele>
<time>2013-11-20T09:59:29Z</time>
<extensions>
<speed>0.0</speed>
<temp>0.00</temp>
<bpm>0</bpm>
<rpm>0.00</rpm>
</extensions>
</trkpt>
<trkpt lat="30.850679398" lon="34.783428192">
<ele>486.421875</ele>
<time>2013-11-20T09:59:34Z</time>
<extensions>
<speed>0.0</speed>
<temp>0.00</temp>
<bpm>0</bpm>
<rpm>0.00</rpm>
</extensions>
</trkpt>
<trkpt lat="30.850679398" lon="34.783428192">
<ele>486.398438</ele>
<time>2013-11-20T09:59:39Z</time>
<extensions>
<speed>0.0</speed>
<temp>0.00</temp>
<bpm>0</bpm>
<rpm>0.00</rpm>
</extensions>
</trkpt>
<trkpt lat="30.850679398" lon="34.783428192">
<ele>486.382813</ele>
<time>2013-11-20T09:59:44Z</time>
<speed>0.010000</speed>
<extensions>
<speed>0.0</speed>
<temp>0.00</temp>
<bpm>0</bpm>
<rpm>0.00</rpm>
</extensions>
</trkpt>
<trkpt lat="30.850679398" lon="34.783428192">
<ele>486.359375</ele>
<time>2013-11-20T09:59:49Z</time>
<extensions>
<speed>0.0</speed>
<temp>0.00</temp>
<bpm>0</bpm>
<rpm>0.00</rpm>
</extensions>
</trkpt>
<trkpt lat="30.850679398" lon="34.783428192">
<ele>486.343750</ele>
<time>2013-11-20T09:59:54Z</time>
<extensions>
<speed>0.0</speed>
<temp>0.00</temp>
<bpm>0</bpm>
<rpm>0.00</rpm>
</extensions>
</trkpt>
<trkpt lat="30.850679398" lon="34.783428192">
<ele>486.328125</ele>
<time>2013-11-20T09:59:59Z</time>
<extensions>
<speed>0.0</speed>
<temp>0.00</temp>
<bpm>0</bpm>
<rpm>0.00</rpm>
</extensions>
</trkpt>
<trkpt lat="30.850679398" lon="34.783428192">
<ele>486.320313</ele>
<time>2013-11-20T10:00:04Z</time>
<extensions>
<speed>0.0</speed>
<temp>0.00</temp>
<bpm>0</bpm>
<rpm>0.00</rpm>
</extensions>
</trkpt>
<trkpt lat="30.850681305" lon="34.783428192">
<ele>486.312500</ele>
<time>2013-11-20T10:00:09Z</time>
<extensions>
<speed>0.0</speed>
<temp>0.00</temp>
<bpm>0</bpm>
<rpm>0.00</rpm>
</extensions>
</trkpt>
<trkpt lat="30.850681305" lon="34.783428192">
<ele>486.296875</ele>
<time>2013-11-20T10:00:14Z</time>
<extensions>
<speed>0.0</speed>
<temp>0.00</temp>
<bpm>0</bpm>
<rpm>0.00</rpm>
</extensions>
</trkpt>
<trkpt lat="30.850681305" lon="34.783428192">
<ele>486.296875</ele>
<time>2013-11-20T10:00:19Z</time>
<extensions>
<speed>0.0</speed>
<temp>0.00</temp>
<bpm>0</bpm>
<rpm>0.00</rpm>
</extensions>
</trkpt>
<trkpt lat="30.850681305" lon="34.783428192">
<ele>486.289063</ele>
<time>2013-11-20T10:00:24Z</time>
<extensions>
<speed>0.0</speed>
<temp>0.00</temp>
<bpm>0</bpm>
<rpm>0.00</rpm>
</extensions>
</trkpt>
<trkpt lat="30.850681305" lon="34.783428192">
<ele>486.273438</ele>
<time>2013-11-20T10:00:29Z</time>
<extensions>
<speed>0.0</speed>
<temp>0.00</temp>
<bpm>0</bpm>
<rpm>0.00</rpm>
</extensions>
</trkpt>
<trkpt lat="30.850681305" lon="34.783428192">
<ele>486.273438</ele>
<time>2013-11-20T10:00:34Z</time>
<extensions>
<speed>0.0</speed>
<temp>0.00</temp>
<bpm>0</bpm>
<rpm>0.00</rpm>
</extensions>
</trkpt>
<trkpt lat="30.850681305" lon="34.783428192">
<ele>486.273438</ele>
<time>2013-11-20T10:00:39Z</time>
<extensions>
<speed>0.0</speed>
<temp>0.00</temp>
<bpm>0</bpm>
<rpm>0.00</rpm>
</extensions>
</trkpt>
<trkpt lat="30.850679398" lon="34.783428192">
<ele>486.257813</ele>
<time>2013-11-20T10:00:44Z</time>
<extensions>
<speed>0.0</speed>
<temp>0.00</temp>
<bpm>0</bpm>
<rpm>0.00</rpm>
</extensions>
</trkpt>
<trkpt lat="30.850679398" lon="34.783428192">
<ele>486.242188</ele>
<time>2013-11-20T10:00:49Z</time>
<extensions>
<speed>0.0</speed>
<temp>0.00</temp>
<bpm>0</bpm>
<rpm>0.00</rpm>
</extensions>
</trkpt>
<trkpt lat="30.850679398" lon="34.783428192">
<ele>486.234375</ele>
<time>2013-11-20T10:00:54Z</time>
<extensions>
<speed>0.0</speed>
<temp>0.00</temp>
<bpm>0</bpm>
<rpm>0.00</rpm>
</extensions>
</trkpt>
<trkpt lat="30.850679398" lon="34.783428192">
<ele>486.226563</ele>
<time>2013-11-20T10:00:59Z</time>
<extensions>
<speed>0.0</speed>
<temp>0.00</temp>
<bpm>0</bpm>
<rpm>0.00</rpm>
</extensions>
</trkpt>
<trkpt lat="30.850679398" lon="34.783428192">
<ele>486.218750</ele>
<time>2013-11-20T10:01:04Z</time>
<extensions>
<speed>0.0</speed>
<temp>0.00</temp>
<bpm>0</bpm>
<rpm>0.00</rpm>
</extensions>
</trkpt>
<trkpt lat="30.850679398" lon="34.783428192">
<ele>486.203125</ele>
<time>2013-11-20T10:01:09Z</time>
<extensions>
<speed>0.0</speed>
<temp>0.00</temp>
<bpm>0</bpm>
<rpm>0.00</rpm>
</extensions>
</trkpt>
<trkpt lat="30.850679398" lon="34.783428192">
<ele>486.195313</ele>
<time>2013-11-20T10:01:14Z</time>
<speed>0.010000</speed>
<extensions>
<speed>0.0</speed>
<temp>0.00</temp>
<bpm>0</bpm>
<rpm>0.00</rpm>
</extensions>
</trkpt>
<trkpt lat="30.850679398" lon="34.783428192">
<ele>486.179688</ele>
<time>2013-11-20T10:01:19Z</time>
<speed>0.010000</speed>
<extensions>
<speed>0.0</speed>
<temp>0.00</temp>
<bpm>0</bpm>
<rpm>0.00</rpm>
</extensions>
</trkpt>
<trkpt lat="30.850679398" lon="34.783428192">
<ele>486.164063</ele>
<time>2013-11-20T10:01:24Z</time>
<extensions>
<speed>0.0</speed>
<temp>0.00</temp>
<bpm>0</bpm>
<rpm>0.00</rpm>
</extensions>
</trkpt>
<trkpt lat="30.850679398" lon="34.783428192">
<ele>486.148438</ele>
<time>2013-11-20T10:01:29Z</time>
<extensions>
<speed>0.0</speed>
<temp>0.00</temp>
<bpm>0</bpm>
<rpm>0.00</rpm>
</extensions>
</trkpt>
<trkpt lat="30.850679398" lon="34.783428192">
<ele>486.132813</ele>
<time>2013-11-20T10:01:34Z</time>
<extensions>
<speed>0.0</speed>
<temp>0.00</temp>
<bpm>0</bpm>
<rpm>0.00</rpm>
</extensions>
</trkpt>
<trkpt lat="30.850681305" lon="34.783428192">
<ele>486.125000</ele>
<time>2013-11-20T10:01:39Z</time>
<extensions>
<speed>0.0</speed>
<temp>0.00</temp>
<bpm>0</bpm>
<rpm>0.00</rpm>
</extensions>
</trkpt>
<trkpt lat="30.850681305" lon="34.783428192">
<ele>486.132813</ele>
<time>2013-11-20T10:01:44Z</time>
<speed>0.010000</speed>
<extensions>
<speed>0.0</speed>
<temp>0.00</temp>
<bpm>0</bpm>
<rpm>0.00</rpm>
</extensions>
</trkpt>
<trkpt lat="30.850681305" lon="34.783432007">
<ele>486.156250</ele>
<time>2013-11-20T10:01:49Z</time>
<speed>0.020000</speed>
<extensions>
<speed>0.0</speed>
<temp>0.00</temp>
<bpm>0</bpm>
<rpm>0.00</rpm>
</extensions>
</trkpt>
<trkpt lat="30.850683212" lon="34.783432007">
<ele>486.179688</ele>
<time>2013-11-20T10:01:54Z</time>
<speed>0.030000</speed>
<extensions>
<speed>0.0</speed>
<temp>0.00</temp>
<bpm>0</bpm>
<rpm>0.00</rpm>
</extensions>
</trkpt>
<trkpt lat="30.850683212" lon="34.783428192">
<ele>486.187500</ele>
<time>2013-11-20T10:01:59Z</time>
<speed>0.030000</speed>
<extensions>
<speed>0.0</speed>
<temp>0.00</temp>
<bpm>0</bpm>
<rpm>0.00</rpm>
</extensions>
</trkpt>
<trkpt lat="30.850683212" lon="34.783428192">
<ele>486.195313</ele>
<time>2013-11-20T10:02:04Z</time>
<extensions>
<speed>0.0</speed>
<temp>0.00</temp>
<bpm>0</bpm>
<rpm>0.00</rpm>
</extensions>
</trkpt>
<trkpt lat="30.850683212" lon="34.783428192">
<ele>486.171875</ele>
<time>2013-11-20T10:02:09Z</time>
<extensions>
<speed>0.0</speed>
<temp>0.00</temp>
<bpm>0</bpm>
<rpm>0.00</rpm>
</extensions>
</trkpt>
<trkpt lat="30.850683212" lon="34.783428192">
<ele>486.164063</ele>
<time>2013-11-20T10:02:14Z</time>
<speed>0.010000</speed>
<extensions>
<speed>0.0</speed>
<temp>0.00</temp>
<bpm>0</bpm>
<rpm>0.00</rpm>
</extensions>
</trkpt>
<trkpt lat="30.850685120" lon="34.783428192">
<ele>486.164063</ele>
<time>2013-11-20T10:02:19Z</time>
<extensions>
<speed>0.0</speed>
<temp>0.00</temp>
<bpm>0</bpm>
<rpm>0.00</rpm>
</extensions>
</trkpt>
<trkpt lat="30.850685120" lon="34.783428192">
<ele>486.179688</ele>
<time>2013-11-20T10:02:24Z</time>
<extensions>
<speed>0.0</speed>
<temp>0.00</temp>
<bpm>0</bpm>
<rpm>0.00</rpm>
</extensions>
</trkpt>
<trkpt lat="30.850685120" lon="34.783428192">
<ele>486.179688</ele>
<time>2013-11-20T10:02:29Z</time>
<extensions>
<speed>0.0</speed>
<temp>0.00</temp>
<bpm>0</bpm>
<rpm>0.00</rpm>
</extensions>
</trkpt>
<trkpt lat="30.850685120" lon="34.783428192">
<ele>486.171875</ele>
<time>2013-11-20T10:02:34Z</time>
<speed>0.020000</speed>
<extensions>
<speed>0.0</speed>
<temp>0.00</temp>
<bpm>0</bpm>
<rpm>0.00</rpm>
</extensions>
</trkpt>
<trkpt lat="30.850685120" lon="34.783428192">
<ele>486.164063</ele>
<time>2013-11-20T10:02:39Z</time>
<extensions>
<speed>0.0</speed>
<temp>0.00</temp>
<bpm>0</bpm>
<rpm>0.00</rpm>
</extensions>
</trkpt>
<trkpt lat="30.850685120" lon="34.783428192">
<ele>486.148438</ele>
<time>2013-11-20T10:02:44Z</time>
<extensions>
<speed>0.0</speed>
<temp>0.00</temp>
<bpm>0</bpm>
<rpm>0.00</rpm>
</extensions>
</trkpt>
<trkpt lat="30.850685120" lon="34.783428192">
<ele>486.140625</ele>
<time>2013-11-20T10:02:49Z</time>
<extensions>
<speed>0.0</speed>
<temp>0.00</temp>
<bpm>0</bpm>
<rpm>0.00</rpm>
</extensions>
</trkpt>
<trkpt lat="30.850685120" lon="34.783428192">
<ele>486.125000</ele>
<time>2013-11-20T10:02:54Z</time>
<extensions>
<speed>0.0</speed>
<temp>0.00</temp>
<bpm>0</bpm>
<rpm>0.00</rpm>
</extensions>
</trkpt>
<trkpt lat="30.850685120" lon="34.783428192">
<ele>486.101563</ele>
<time>2013-11-20T10:02:59Z</time>
<speed>0.010000</speed>
<extensions>
<speed>0.0</speed>
<temp>0.00</temp>
<bpm>0</bpm>
<rpm>0.00</rpm>
</extensions>
</trkpt>
<trkpt lat="30.850685120" lon="34.783428192">
<ele>486.070313</ele>
<time>2013-11-20T10:03:04Z</time>
<speed>0.010000</speed>
<extensions>
<speed>0.0</speed>
<temp>0.00</temp>
<bpm>0</bpm>
<rpm>0.00</rpm>
</extensions>
</trkpt>
<trkpt lat="30.850685120" lon="34.783428192">
<ele>486.046875</ele>
<time>2013-11-20T10:03:09Z</time>
<speed>0.010000</speed>
<extensions>
<speed>0.0</speed>
<temp>0.00</temp>
<bpm>0</bpm>
<rpm>0.00</rpm>
</extensions>
</trkpt>
<trkpt lat="30.850685120" lon="34.783428192">
<ele>486.039063</ele>
<time>2013-11-20T10:03:14Z</time>
<extensions>
<speed>0.0</speed>
<temp>0.00</temp>
<bpm>0</bpm>
<rpm>0.00</rpm>
</extensions>
</trkpt>
<trkpt lat="30.850683212" lon="34.783428192">
<ele>486.031250</ele>
<time>2013-11-20T10:03:19Z</time>
<extensions>
<speed>0.0</speed>
<temp>0.00</temp>
<bpm>0</bpm>
<rpm>0.00</rpm>
</extensions>
</trkpt>
<trkpt lat="30.850683212" lon="34.783428192">
<ele>486.031250</ele>
<time>2013-11-20T10:03:24Z</time>
<extensions>
<speed>0.0</speed>
<temp>0.00</temp>
<bpm>0</bpm>
<rpm>0.00</rpm>
</extensions>
</trkpt>
<trkpt lat="30.850683212" lon="34.783428192">
<ele>486.015625</ele>
<time>2013-11-20T10:03:29Z</time>
<extensions>
<speed>0.0</speed>
<temp>0.00</temp>
<bpm>0</bpm>
<rpm>0.00</rpm>
</extensions>
</trkpt>
<trkpt lat="30.850683212" lon="34.783428192">
<ele>486.000000</ele>
<time>2013-11-20T10:03:34Z</time>
<extensions>
<speed>0.0</speed>
<temp>0.00</temp>
<bpm>0</bpm>
<rpm>0.00</rpm>
</extensions>
</trkpt>
<trkpt lat="30.850683212" lon="34.783428192">
<ele>485.976563</ele>
<time>2013-11-20T10:03:39Z</time>
<extensions>
<speed>0.0</speed>
<temp>0.00</temp>
<bpm>0</bpm>
<rpm>0.00</rpm>
</extensions>
</trkpt>
<trkpt lat="30.850683212" lon="34.783428192">
<ele>485.953125</ele>
<time>2013-11-20T10:03:44Z</time>
<extensions>
<speed>0.0</speed>
<temp>0.00</temp>
<bpm>0</bpm>
<rpm>0.00</rpm>
</extensions>
</trkpt>
<trkpt lat="30.850683212" lon="34.783432007">
<ele>485.937500</ele>
<time>2013-11-20T10:03:49Z</time>
<extensions>
<speed>0.0</speed>
<temp>0.00</temp>
<bpm>0</bpm>
<rpm>0.00</rpm>
</extensions>
</trkpt>
<trkpt lat="30.850683212" lon="34.783432007">
<ele>485.929688</ele>
<time>2013-11-20T10:03:54Z</time>
<extensions>
<speed>0.0</speed>
<temp>0.00</temp>
<bpm>0</bpm>
<rpm>0.00</rpm>
</extensions>
</trkpt>
<trkpt lat="30.850683212" lon="34.783432007">
<ele>485.929688</ele>
<time>2013-11-20T10:03:59Z</time>
<extensions>
<speed>0.0</speed>
<temp>0.00</temp>
<bpm>0</bpm>
<rpm>0.00</rpm>
</extensions>
</trkpt>
<trkpt lat="30.850683212" lon="34.783432007">
<ele>485.929688</ele>
<time>2013-11-20T10:04:04Z</time>
<extensions>
<speed>0.0</speed>
<temp>0.00</temp>
<bpm>0</bpm>
<rpm>0.00</rpm>
</extensions>
</trkpt>
<trkpt lat="30.850683212" lon="34.783432007">
<ele>485.929688</ele>
<time>2013-11-20T10:04:09Z</time>
<extensions>
<speed>0.0</speed>
<temp>0.00</temp>
<bpm>0</bpm>
<rpm>0.00</rpm>
</extensions>
</trkpt>
<trkpt lat="30.850683212" lon="34.783432007">
<ele>485.929688</ele>
<time>2013-11-20T10:04:14Z</time>
<extensions>
<speed>0.0</speed>
<temp>0.00</temp>
<bpm>0</bpm>
<rpm>0.00</rpm>
</extensions>
</trkpt>
<trkpt lat="30.850683212" lon="34.783432007">
<ele>485.937500</ele>
<time>2013-11-20T10:04:19Z</time>
<extensions>
<speed>0.0</speed>
<temp>0.00</temp>
<bpm>0</bpm>
<rpm>0.00</rpm>
</extensions>
</trkpt>
<trkpt lat="30.850683212" lon="34.783432007">
<ele>485.921875</ele>
<time>2013-11-20T10:04:24Z</time>
<extensions>
<speed>0.0</speed>
<temp>0.00</temp>
<bpm>0</bpm>
<rpm>0.00</rpm>
</extensions>
</trkpt>
<trkpt lat="30.850683212" lon="34.783432007">
<ele>485.906250</ele>
<time>2013-11-20T10:04:29Z</time>
<extensions>
<speed>0.0</speed>
<temp>0.00</temp>
<bpm>0</bpm>
<rpm>0.00</rpm>
</extensions>
</trkpt>
<trkpt lat="30.850683212" lon="34.783432007">
<ele>485.890625</ele>
<time>2013-11-20T10:04:34Z</time>
<extensions>
<speed>0.0</speed>
<temp>0.00</temp>
<bpm>0</bpm>
<rpm>0.00</rpm>
</extensions>
</trkpt>
<trkpt lat="30.850683212" lon="34.783432007">
<ele>485.875000</ele>
<time>2013-11-20T10:04:39Z</time>
<extensions>
<speed>0.0</speed>
<temp>0.00</temp>
<bpm>0</bpm>
<rpm>0.00</rpm>
</extensions>
</trkpt>
<trkpt lat="30.850683212" lon="34.783432007">
<ele>485.851563</ele>
<time>2013-11-20T10:04:44Z</time>
<extensions>
<speed>0.0</speed>
<temp>0.00</temp>
<bpm>0</bpm>
<rpm>0.00</rpm>
</extensions>
</trkpt>
<trkpt lat="30.850683212" lon="34.783432007">
<ele>485.828125</ele>
<time>2013-11-20T10:04:49Z</time>
<extensions>
<speed>0.0</speed>
<temp>0.00</temp>
<bpm>0</bpm>
<rpm>0.00</rpm>
</extensions>
</trkpt>
<trkpt lat="30.850683212" lon="34.783432007">
<ele>485.812500</ele>
<time>2013-11-20T10:04:54Z</time>
<extensions>
<speed>0.0</speed>
<temp>0.00</temp>
<bpm>0</bpm>
<rpm>0.00</rpm>
</extensions>
</trkpt>
<trkpt lat="30.850683212" lon="34.783432007">
<ele>485.804688</ele>
<time>2013-11-20T10:04:59Z</time>
<extensions>
<speed>0.0</speed>
<temp>0.00</temp>
<bpm>0</bpm>
<rpm>0.00</rpm>
</extensions>
</trkpt>
<trkpt lat="30.850683212" lon="34.783432007">
<ele>485.789063</ele>
<time>2013-11-20T10:05:04Z</time>
<speed>0.010000</speed>
<extensions>
<speed>0.0</speed>
<temp>0.00</temp>
<bpm>0</bpm>
<rpm>0.00</rpm>
</extensions>
</trkpt>
<trkpt lat="30.850683212" lon="34.783432007">
<ele>485.773438</ele>
<time>2013-11-20T10:05:09Z</time>
<extensions>
<speed>0.0</speed>
<temp>0.00</temp>
<bpm>0</bpm>
<rpm>0.00</rpm>
</extensions>
</trkpt>
<trkpt lat="30.850683212" lon="34.783432007">
<ele>485.765625</ele>
<time>2013-11-20T10:05:14Z</time>
<extensions>
<speed>0.0</speed>
<temp>0.00</temp>
<bpm>0</bpm>
<rpm>0.00</rpm>
</extensions>
</trkpt>
<trkpt lat="30.850683212" lon="34.783432007">
<ele>485.757813</ele>
<time>2013-11-20T10:05:19Z</time>
<extensions>
<speed>0.0</speed>
<temp>0.00</temp>
<bpm>0</bpm>
<rpm>0.00</rpm>
</extensions>
</trkpt>
<trkpt lat="30.850683212" lon="34.783432007">
<ele>485.757813</ele>
<time>2013-11-20T10:05:24Z</time>
<speed>0.010000</speed>
<extensions>
<speed>0.0</speed>
<temp>0.00</temp>
<bpm>0</bpm>
<rpm>0.00</rpm>
</extensions>
</trkpt>
<trkpt lat="30.850683212" lon="34.783432007">
<ele>485.750000</ele>
<time>2013-11-20T10:05:29Z</time>
<extensions>
<speed>0.0</speed>
<temp>0.00</temp>
<bpm>0</bpm>
<rpm>0.00</rpm>
</extensions>
</trkpt>
<trkpt lat="30.850683212" lon="34.783432007">
<ele>485.734375</ele>
<time>2013-11-20T10:05:34Z</time>
<extensions>
<speed>0.0</speed>
<temp>0.00</temp>
<bpm>0</bpm>
<rpm>0.00</rpm>
</extensions>
</trkpt>
<trkpt lat="30.850685120" lon="34.783432007">
<ele>485.726563</ele>
<time>2013-11-20T10:05:39Z</time>
<extensions>
<speed>0.0</speed>
<temp>0.00</temp>
<bpm>0</bpm>
<rpm>0.00</rpm>
</extensions>
</trkpt>
<trkpt lat="30.850685120" lon="34.783432007">
<ele>485.718750</ele>
<time>2013-11-20T10:05:44Z</time>
<extensions>
<speed>0.0</speed>
<temp>0.00</temp>
<bpm>0</bpm>
<rpm>0.00</rpm>
</extensions>
</trkpt>
<trkpt lat="30.850685120" lon="34.783432007">
<ele>485.718750</ele>
<time>2013-11-20T10:05:49Z</time>
<extensions>
<speed>0.0</speed>
<temp>0.00</temp>
<bpm>0</bpm>
<rpm>0.00</rpm>
</extensions>
</trkpt>
<trkpt lat="30.850685120" lon="34.783432007">
<ele>485.710938</ele>
<time>2013-11-20T10:05:54Z</time>
<speed>0.010000</speed>
<extensions>
<speed>0.0</speed>
<temp>0.00</temp>
<bpm>0</bpm>
<rpm>0.00</rpm>
</extensions>
</trkpt>
<trkpt lat="30.850685120" lon="34.783432007">
<ele>485.710938</ele>
<time>2013-11-20T10:05:59Z</time>
<extensions>
<speed>0.0</speed>
<temp>0.00</temp>
<bpm>0</bpm>
<rpm>0.00</rpm>
</extensions>
</trkpt>
<trkpt lat="30.850685120" lon="34.783432007">
<ele>485.710938</ele>
<time>2013-11-20T10:06:04Z</time>
<extensions>
<speed>0.0</speed>
<temp>0.00</temp>
<bpm>0</bpm>
<rpm>0.00</rpm>
</extensions>
</trkpt>
<trkpt lat="30.850685120" lon="34.783432007">
<ele>485.726563</ele>
<time>2013-11-20T10:06:09Z</time>
<extensions>
<speed>0.0</speed>
<temp>0.00</temp>
<bpm>0</bpm>
<rpm>0.00</rpm>
</extensions>
</trkpt>
<trkpt lat="30.850685120" lon="34.783432007">
<ele>485.726563</ele>
<time>2013-11-20T10:06:14Z</time>
<extensions>
<speed>0.0</speed>
<temp>0.00</temp>
<bpm>0</bpm>
<rpm>0.00</rpm>
</extensions>
</trkpt>
<trkpt lat="30.850685120" lon="34.783432007">
<ele>485.726563</ele>
<time>2013-11-20T10:06:19Z</time>
<extensions>
<speed>0.0</speed>
<temp>0.00</temp>
<bpm>0</bpm>
<rpm>0.00</rpm>
</extensions>
</trkpt>
<trkpt lat="30.850685120" lon="34.783432007">
<ele>485.726563</ele>
<time>2013-11-20T10:06:24Z</time>
<extensions>
<speed>0.0</speed>
<temp>0.00</temp>
<bpm>0</bpm>
<rpm>0.00</rpm>
</extensions>
</trkpt>
<trkpt lat="30.850685120" lon="34.783432007">
<ele>485.726563</ele>
<time>2013-11-20T10:06:29Z</time>
<speed>0.010000</speed>
<extensions>
<speed>0.0</speed>
<temp>0.00</temp>
<bpm>0</bpm>
<rpm>0.00</rpm>
</extensions>
</trkpt>
<trkpt lat="30.850687027" lon="34.783432007">
<ele>485.726563</ele>
<time>2013-11-20T10:06:34Z</time>
<extensions>
<speed>0.0</speed>
<temp>0.00</temp>
<bpm>0</bpm>
<rpm>0.00</rpm>
</extensions>
</trkpt>
<trkpt lat="30.850687027" lon="34.783432007">
<ele>485.734375</ele>
<time>2013-11-20T10:06:39Z</time>
<extensions>
<speed>0.0</speed>
<temp>0.00</temp>
<bpm>0</bpm>
<rpm>0.00</rpm>
</extensions>
</trkpt>
<trkpt lat="30.850687027" lon="34.783435822">
<ele>485.742188</ele>
<time>2013-11-20T10:06:44Z</time>
<extensions>
<speed>0.0</speed>
<temp>0.00</temp>
<bpm>0</bpm>
<rpm>0.00</rpm>
</extensions>
</trkpt>
<trkpt lat="30.850687027" lon="34.783435822">
<ele>485.742188</ele>
<time>2013-11-20T10:06:49Z</time>
<extensions>
<speed>0.0</speed>
<temp>0.00</temp>
<bpm>0</bpm>
<rpm>0.00</rpm>
</extensions>
</trkpt>
<trkpt lat="30.850687027" lon="34.783435822">
<ele>485.742188</ele>
<time>2013-11-20T10:06:54Z</time>
<extensions>
<speed>0.0</speed>
<temp>0.00</temp>
<bpm>0</bpm>
<rpm>0.00</rpm>
</extensions>
</trkpt>
<trkpt lat="30.850687027" lon="34.783435822">
<ele>485.742188</ele>
<time>2013-11-20T10:06:59Z</time>
<extensions>
<speed>0.0</speed>
<temp>0.00</temp>
<bpm>0</bpm>
<rpm>0.00</rpm>
</extensions>
</trkpt>
<trkpt lat="30.850687027" lon="34.783435822">
<ele>485.734375</ele>
<time>2013-11-20T10:07:04Z</time>
<extensions>
<speed>0.0</speed>
<temp>0.00</temp>
<bpm>0</bpm>
<rpm>0.00</rpm>
</extensions>
</trkpt>
<trkpt lat="30.850687027" lon="34.783435822">
<ele>485.726563</ele>
<time>2013-11-20T10:07:09Z</time>
<extensions>
<speed>0.0</speed>
<temp>0.00</temp>
<bpm>0</bpm>
<rpm>0.00</rpm>
</extensions>
</trkpt>
<trkpt lat="30.850687027" lon="34.783435822">
<ele>485.718750</ele>
<time>2013-11-20T10:07:14Z</time>
<speed>0.010000</speed>
<extensions>
<speed>0.0</speed>
<temp>0.00</temp>
<bpm>0</bpm>
<rpm>0.00</rpm>
</extensions>
</trkpt>
<trkpt lat="30.850687027" lon="34.783435822">
<ele>485.710938</ele>
<time>2013-11-20T10:07:19Z</time>
<extensions>
<speed>0.0</speed>
<temp>0.00</temp>
<bpm>0</bpm>
<rpm>0.00</rpm>
</extensions>
</trkpt>
<trkpt lat="30.850688934" lon="34.783435822">
<ele>485.695313</ele>
<time>2013-11-20T10:07:24Z</time>
<extensions>
<speed>0.0</speed>
<temp>0.00</temp>
<bpm>0</bpm>
<rpm>0.00</rpm>
</extensions>
</trkpt>
<trkpt lat="30.850688934" lon="34.783435822">
<ele>485.687500</ele>
<time>2013-11-20T10:07:29Z</time>
<extensions>
<speed>0.0</speed>
<temp>0.00</temp>
<bpm>0</bpm>
<rpm>0.00</rpm>
</extensions>
</trkpt>
<trkpt lat="30.850688934" lon="34.783435822">
<ele>485.687500</ele>
<time>2013-11-20T10:07:34Z</time>
<extensions>
<speed>0.0</speed>
<temp>0.00</temp>
<bpm>0</bpm>
<rpm>0.00</rpm>
</extensions>
</trkpt>
<trkpt lat="30.850688934" lon="34.783435822">
<ele>485.679688</ele>
<time>2013-11-20T10:07:39Z</time>
<extensions>
<speed>0.0</speed>
<temp>0.00</temp>
<bpm>0</bpm>
<rpm>0.00</rpm>
</extensions>
</trkpt>
<trkpt lat="30.850690842" lon="34.783435822">
<ele>485.671875</ele>
<time>2013-11-20T10:07:44Z</time>
<extensions>
<speed>0.0</speed>
<temp>0.00</temp>
<bpm>0</bpm>
<rpm>0.00</rpm>
</extensions>
</trkpt>
<trkpt lat="30.850690842" lon="34.783435822">
<ele>485.671875</ele>
<time>2013-11-20T10:07:49Z</time>
<extensions>
<speed>0.0</speed>
<temp>0.00</temp>
<bpm>0</bpm>
<rpm>0.00</rpm>
</extensions>
</trkpt>
<trkpt lat="30.850690842" lon="34.783435822">
<ele>485.679688</ele>
<time>2013-11-20T10:07:54Z</time>
<extensions>
<speed>0.0</speed>
<temp>0.00</temp>
<bpm>0</bpm>
<rpm>0.00</rpm>
</extensions>
</trkpt>
<trkpt lat="30.850692749" lon="34.783435822">
<ele>485.664063</ele>
<time>2013-11-20T10:07:59Z</time>
<extensions>
<speed>0.0</speed>
<temp>0.00</temp>
<bpm>0</bpm>
<rpm>0.00</rpm>
</extensions>
</trkpt>
<trkpt lat="30.850692749" lon="34.783435822">
<ele>485.656250</ele>
<time>2013-11-20T10:08:04Z</time>
<extensions>
<speed>0.0</speed>
<temp>0.00</temp>
<bpm>0</bpm>
<rpm>0.00</rpm>
</extensions>
</trkpt>
<trkpt lat="30.850692749" lon="34.783435822">
<ele>485.656250</ele>
<time>2013-11-20T10:08:09Z</time>
<extensions>
<speed>0.0</speed>
<temp>0.00</temp>
<bpm>0</bpm>
<rpm>0.00</rpm>
</extensions>
</trkpt>
<trkpt lat="30.850692749" lon="34.783435822">
<ele>485.656250</ele>
<time>2013-11-20T10:08:14Z</time>
<extensions>
<speed>0.0</speed>
<temp>0.00</temp>
<bpm>0</bpm>
<rpm>0.00</rpm>
</extensions>
</trkpt>
<trkpt lat="30.850694656" lon="34.783435822">
<ele>485.648438</ele>
<time>2013-11-20T10:08:19Z</time>
<extensions>
<speed>0.0</speed>
<temp>0.00</temp>
<bpm>0</bpm>
<rpm>0.00</rpm>
</extensions>
</trkpt>
<trkpt lat="30.850694656" lon="34.783432007">
<ele>485.656250</ele>
<time>2013-11-20T10:08:24Z</time>
<speed>0.010000</speed>
<extensions>
<speed>0.0</speed>
<temp>0.00</temp>
<bpm>0</bpm>
<rpm>0.00</rpm>
</extensions>
</trkpt>
<trkpt lat="30.850694656" lon="34.783432007">
<ele>485.656250</ele>
<time>2013-11-20T10:08:29Z</time>
<speed>0.010000</speed>
<extensions>
<speed>0.0</speed>
<temp>0.00</temp>
<bpm>0</bpm>
<rpm>0.00</rpm>
</extensions>
</trkpt>
<trkpt lat="30.850694656" lon="34.783432007">
<ele>485.648438</ele>
<time>2013-11-20T10:08:34Z</time>
<extensions>
<speed>0.0</speed>
<temp>0.00</temp>
<bpm>0</bpm>
<rpm>0.00</rpm>
</extensions>
</trkpt>
<trkpt lat="30.850696564" lon="34.783432007">
<ele>485.648438</ele>
<time>2013-11-20T10:08:39Z</time>
<extensions>
<speed>0.0</speed>
<temp>0.00</temp>
<bpm>0</bpm>
<rpm>0.00</rpm>
</extensions>
</trkpt>
<trkpt lat="30.850696564" lon="34.783432007">
<ele>485.640625</ele>
<time>2013-11-20T10:08:44Z</time>
<extensions>
<speed>0.0</speed>
<temp>0.00</temp>
<bpm>0</bpm>
<rpm>0.00</rpm>
</extensions>
</trkpt>
<trkpt lat="30.850696564" lon="34.783432007">
<ele>485.625000</ele>
<time>2013-11-20T10:08:49Z</time>
<extensions>
<speed>0.0</speed>
<temp>0.00</temp>
<bpm>0</bpm>
<rpm>0.00</rpm>
</extensions>
</trkpt>
<trkpt lat="30.850696564" lon="34.783432007">
<ele>485.609375</ele>
<time>2013-11-20T10:08:54Z</time>
<extensions>
<speed>0.0</speed>
<temp>0.00</temp>
<bpm>0</bpm>
<rpm>0.00</rpm>
</extensions>
</trkpt>
<trkpt lat="30.850696564" lon="34.783432007">
<ele>485.593750</ele>
<time>2013-11-20T10:08:59Z</time>
<speed>0.010000</speed>
<extensions>
<speed>0.0</speed>
<temp>0.00</temp>
<bpm>0</bpm>
<rpm>0.00</rpm>
</extensions>
</trkpt>
<trkpt lat="30.850696564" lon="34.783432007">
<ele>485.570313</ele>
<time>2013-11-20T10:09:04Z</time>
<extensions>
<speed>0.0</speed>
<temp>0.00</temp>
<bpm>0</bpm>
<rpm>0.00</rpm>
</extensions>
</trkpt>
<trkpt lat="30.850696564" lon="34.783432007">
<ele>485.554688</ele>
<time>2013-11-20T10:09:09Z</time>
<extensions>
<speed>0.0</speed>
<temp>0.00</temp>
<bpm>0</bpm>
<rpm>0.00</rpm>
</extensions>
</trkpt>
<trkpt lat="30.850696564" lon="34.783432007">
<ele>485.539063</ele>
<time>2013-11-20T10:09:14Z</time>
<extensions>
<speed>0.0</speed>
<temp>0.00</temp>
<bpm>0</bpm>
<rpm>0.00</rpm>
</extensions>
</trkpt>
<trkpt lat="30.850698471" lon="34.783432007">
<ele>485.515625</ele>
<time>2013-11-20T10:09:19Z</time>
<speed>0.010000</speed>
<extensions>
<speed>0.0</speed>
<temp>0.00</temp>
<bpm>0</bpm>
<rpm>0.00</rpm>
</extensions>
</trkpt>
<trkpt lat="30.850698471" lon="34.783432007">
<ele>485.500000</ele>
<time>2013-11-20T10:09:24Z</time>
<extensions>
<speed>0.0</speed>
<temp>0.00</temp>
<bpm>0</bpm>
<rpm>0.00</rpm>
</extensions>
</trkpt>
<trkpt lat="30.850698471" lon="34.783432007">
<ele>485.484375</ele>
<time>2013-11-20T10:09:29Z</time>
<extensions>
<speed>0.0</speed>
<temp>0.00</temp>
<bpm>0</bpm>
<rpm>0.00</rpm>
</extensions>
</trkpt>
<trkpt lat="30.850698471" lon="34.783432007">
<ele>485.476563</ele>
<time>2013-11-20T10:09:34Z</time>
<extensions>
<speed>0.0</speed>
<temp>0.00</temp>
<bpm>0</bpm>
<rpm>0.00</rpm>
</extensions>
</trkpt>
<trkpt lat="30.850698471" lon="34.783432007">
<ele>485.460938</ele>
<time>2013-11-20T10:09:39Z</time>
<extensions>
<speed>0.0</speed>
<temp>0.00</temp>
<bpm>0</bpm>
<rpm>0.00</rpm>
</extensions>
</trkpt>
<trkpt lat="30.850698471" lon="34.783432007">
<ele>485.437500</ele>
<time>2013-11-20T10:09:44Z</time>
<extensions>
<speed>0.0</speed>
<temp>0.00</temp>
<bpm>0</bpm>
<rpm>0.00</rpm>
</extensions>
</trkpt>
<trkpt lat="30.850698471" lon="34.783432007">
<ele>485.437500</ele>
<time>2013-11-20T10:09:49Z</time>
<extensions>
<speed>0.0</speed>
<temp>0.00</temp>
<bpm>0</bpm>
<rpm>0.00</rpm>
</extensions>
</trkpt>
<trkpt lat="30.850698471" lon="34.783432007">
<ele>485.421875</ele>
<time>2013-11-20T10:09:54Z</time>
<speed>0.010000</speed>
<extensions>
<speed>0.0</speed>
<temp>0.00</temp>
<bpm>0</bpm>
<rpm>0.00</rpm>
</extensions>
</trkpt>
<trkpt lat="30.850698471" lon="34.783432007">
<ele>485.414063</ele>
<time>2013-11-20T10:09:59Z</time>
<extensions>
<speed>0.0</speed>
<temp>0.00</temp>
<bpm>0</bpm>
<rpm>0.00</rpm>
</extensions>
</trkpt>
<trkpt lat="30.850700378" lon="34.783432007">
<ele>485.398438</ele>
<time>2013-11-20T10:10:04Z</time>
<extensions>
<speed>0.0</speed>
<temp>0.00</temp>
<bpm>0</bpm>
<rpm>0.00</rpm>
</extensions>
</trkpt>
<trkpt lat="30.850700378" lon="34.783432007">
<ele>485.390625</ele>
<time>2013-11-20T10:10:09Z</time>
<extensions>
<speed>0.0</speed>
<temp>0.00</temp>
<bpm>0</bpm>
<rpm>0.00</rpm>
</extensions>
</trkpt>
<trkpt lat="30.850700378" lon="34.783432007">
<ele>485.359375</ele>
<time>2013-11-20T10:10:14Z</time>
<extensions>
<speed>0.0</speed>
<temp>0.00</temp>
<bpm>0</bpm>
<rpm>0.00</rpm>
</extensions>
</trkpt>
<trkpt lat="30.850700378" lon="34.783432007">
<ele>485.343750</ele>
<time>2013-11-20T10:10:19Z</time>
<extensions>
<speed>0.0</speed>
<temp>0.00</temp>
<bpm>0</bpm>
<rpm>0.00</rpm>
</extensions>
</trkpt>
<trkpt lat="30.850700378" lon="34.783432007">
<ele>485.328125</ele>
<time>2013-11-20T10:10:24Z</time>
<extensions>
<speed>0.0</speed>
<temp>0.00</temp>
<bpm>0</bpm>
<rpm>0.00</rpm>
</extensions>
</trkpt>
<trkpt lat="30.850700378" lon="34.783432007">
<ele>485.312500</ele>
<time>2013-11-20T10:10:29Z</time>
<extensions>
<speed>0.0</speed>
<temp>0.00</temp>
<bpm>0</bpm>
<rpm>0.00</rpm>
</extensions>
</trkpt>
<trkpt lat="30.850700378" lon="34.783432007">
<ele>485.304688</ele>
<time>2013-11-20T10:10:34Z</time>
<extensions>
<speed>0.0</speed>
<temp>0.00</temp>
<bpm>0</bpm>
<rpm>0.00</rpm>
</extensions>
</trkpt>
<trkpt lat="30.850702286" lon="34.783432007">
<ele>485.304688</ele>
<time>2013-11-20T10:10:39Z</time>
<extensions>
<speed>0.0</speed>
<temp>0.00</temp>
<bpm>0</bpm>
<rpm>0.00</rpm>
</extensions>
</trkpt>
<trkpt lat="30.850702286" lon="34.783432007">
<ele>485.296875</ele>
<time>2013-11-20T10:10:44Z</time>
<extensions>
<speed>0.0</speed>
<temp>0.00</temp>
<bpm>0</bpm>
<rpm>0.00</rpm>
</extensions>
</trkpt>
<trkpt lat="30.850702286" lon="34.783432007">
<ele>485.304688</ele>
<time>2013-11-20T10:10:49Z</time>
<extensions>
<speed>0.0</speed>
<temp>0.00</temp>
<bpm>0</bpm>
<rpm>0.00</rpm>
</extensions>
</trkpt>
<trkpt lat="30.850702286" lon="34.783432007">
<ele>485.320313</ele>
<time>2013-11-20T10:10:54Z</time>
<extensions>
<speed>0.0</speed>
<temp>0.00</temp>
<bpm>0</bpm>
<rpm>0.00</rpm>
</extensions>
</trkpt>
<trkpt lat="30.850702286" lon="34.783432007">
<ele>485.328125</ele>
<time>2013-11-20T10:10:59Z</time>
<extensions>
<speed>0.0</speed>
<temp>0.00</temp>
<bpm>0</bpm>
<rpm>0.00</rpm>
</extensions>
</trkpt>
<trkpt lat="30.850702286" lon="34.783432007">
<ele>485.328125</ele>
<time>2013-11-20T10:11:04Z</time>
<extensions>
<speed>0.0</speed>
<temp>0.00</temp>
<bpm>0</bpm>
<rpm>0.00</rpm>
</extensions>
</trkpt>
<trkpt lat="30.850704193" lon="34.783432007">
<ele>485.335938</ele>
<time>2013-11-20T10:11:09Z</time>
<speed>0.010000</speed>
<extensions>
<speed>0.0</speed>
<temp>0.00</temp>
<bpm>0</bpm>
<rpm>0.00</rpm>
</extensions>
</trkpt>
<trkpt lat="30.850704193" lon="34.783432007">
<ele>485.343750</ele>
<time>2013-11-20T10:11:14Z</time>
<extensions>
<speed>0.0</speed>
<temp>0.00</temp>
<bpm>0</bpm>
<rpm>0.00</rpm>
</extensions>
</trkpt>
<trkpt lat="30.850704193" lon="34.783432007">
<ele>485.359375</ele>
<time>2013-11-20T10:11:19Z</time>
<extensions>
<speed>0.0</speed>
<temp>0.00</temp>
<bpm>0</bpm>
<rpm>0.00</rpm>
</extensions>
</trkpt>
<trkpt lat="30.850704193" lon="34.783435822">
<ele>485.367188</ele>
<time>2013-11-20T10:11:24Z</time>
<extensions>
<speed>0.0</speed>
<temp>0.00</temp>
<bpm>0</bpm>
<rpm>0.00</rpm>
</extensions>
</trkpt>
<trkpt lat="30.850704193" lon="34.783435822">
<ele>485.382813</ele>
<time>2013-11-20T10:11:29Z</time>
<extensions>
<speed>0.0</speed>
<temp>0.00</temp>
<bpm>0</bpm>
<rpm>0.00</rpm>
</extensions>
</trkpt>
<trkpt lat="30.850704193" lon="34.783435822">
<ele>485.398438</ele>
<time>2013-11-20T10:11:34Z</time>
<extensions>
<speed>0.0</speed>
<temp>0.00</temp>
<bpm>0</bpm>
<rpm>0.00</rpm>
</extensions>
</trkpt>
<trkpt lat="30.850704193" lon="34.783435822">
<ele>485.406250</ele>
<time>2013-11-20T10:11:39Z</time>
<extensions>
<speed>0.0</speed>
<temp>0.00</temp>
<bpm>0</bpm>
<rpm>0.00</rpm>
</extensions>
</trkpt>
<trkpt lat="30.850704193" lon="34.783435822">
<ele>485.406250</ele>
<time>2013-11-20T10:11:44Z</time>
<speed>0.010000</speed>
<extensions>
<speed>0.0</speed>
<temp>0.00</temp>
<bpm>0</bpm>
<rpm>0.00</rpm>
</extensions>
</trkpt>
<trkpt lat="30.850704193" lon="34.783435822">
<ele>485.421875</ele>
<time>2013-11-20T10:11:49Z</time>
<extensions>
<speed>0.0</speed>
<temp>0.00</temp>
<bpm>0</bpm>
<rpm>0.00</rpm>
</extensions>
</trkpt>
<trkpt lat="30.850704193" lon="34.783435822">
<ele>485.429688</ele>
<time>2013-11-20T10:11:54Z</time>
<extensions>
<speed>0.0</speed>
<temp>0.00</temp>
<bpm>0</bpm>
<rpm>0.00</rpm>
</extensions>
</trkpt>
<trkpt lat="30.850704193" lon="34.783435822">
<ele>485.437500</ele>
<time>2013-11-20T10:11:59Z</time>
<speed>0.010000</speed>
<extensions>
<speed>0.0</speed>
<temp>0.00</temp>
<bpm>0</bpm>
<rpm>0.00</rpm>
</extensions>
</trkpt>
<trkpt lat="30.850704193" lon="34.783435822">
<ele>485.437500</ele>
<time>2013-11-20T10:12:04Z</time>
<extensions>
<speed>0.0</speed>
<temp>0.00</temp>
<bpm>0</bpm>
<rpm>0.00</rpm>
</extensions>
</trkpt>
<trkpt lat="30.850704193" lon="34.783435822">
<ele>485.437500</ele>
<time>2013-11-20T10:12:09Z</time>
<extensions>
<speed>0.0</speed>
<temp>0.00</temp>
<bpm>0</bpm>
<rpm>0.00</rpm>
</extensions>
</trkpt>
<trkpt lat="30.850704193" lon="34.783435822">
<ele>485.429688</ele>
<time>2013-11-20T10:12:14Z</time>
<extensions>
<speed>0.0</speed>
<temp>0.00</temp>
<bpm>0</bpm>
<rpm>0.00</rpm>
</extensions>
</trkpt>
<trkpt lat="30.850704193" lon="34.783435822">
<ele>485.421875</ele>
<time>2013-11-20T10:12:19Z</time>
<extensions>
<speed>0.0</speed>
<temp>0.00</temp>
<bpm>0</bpm>
<rpm>0.00</rpm>
</extensions>
</trkpt>
<trkpt lat="30.850704193" lon="34.783435822">
<ele>485.414063</ele>
<time>2013-11-20T10:12:24Z</time>
<speed>0.010000</speed>
<extensions>
<speed>0.0</speed>
<temp>0.00</temp>
<bpm>0</bpm>
<rpm>0.00</rpm>
</extensions>
</trkpt>
<trkpt lat="30.850704193" lon="34.783435822">
<ele>485.406250</ele>
<time>2013-11-20T10:12:29Z</time>
<extensions>
<speed>0.0</speed>
<temp>0.00</temp>
<bpm>0</bpm>
<rpm>0.00</rpm>
</extensions>
</trkpt>
<trkpt lat="30.850704193" lon="34.783435822">
<ele>485.406250</ele>
<time>2013-11-20T10:12:34Z</time>
<speed>0.010000</speed>
<extensions>
<speed>0.0</speed>
<temp>0.00</temp>
<bpm>0</bpm>
<rpm>0.00</rpm>
</extensions>
</trkpt>
<trkpt lat="30.850704193" lon="34.783435822">
<ele>485.398438</ele>
<time>2013-11-20T10:12:39Z</time>
<extensions>
<speed>0.0</speed>
<temp>0.00</temp>
<bpm>0</bpm>
<rpm>0.00</rpm>
</extensions>
</trkpt>
<trkpt lat="30.850704193" lon="34.783435822">
<ele>485.382813</ele>
<time>2013-11-20T10:12:44Z</time>
<speed>0.010000</speed>
<extensions>
<speed>0.0</speed>
<temp>0.00</temp>
<bpm>0</bpm>
<rpm>0.00</rpm>
</extensions>
</trkpt>
<trkpt lat="30.850706100" lon="34.783435822">
<ele>485.359375</ele>
<time>2013-11-20T10:12:49Z</time>
<speed>0.010000</speed>
<extensions>
<speed>0.0</speed>
<temp>0.00</temp>
<bpm>0</bpm>
<rpm>0.00</rpm>
</extensions>
</trkpt>
<trkpt lat="30.850706100" lon="34.783435822">
<ele>485.343750</ele>
<time>2013-11-20T10:12:54Z</time>
<speed>0.020000</speed>
<extensions>
<speed>0.0</speed>
<temp>0.00</temp>
<bpm>0</bpm>
<rpm>0.00</rpm>
</extensions>
</trkpt>
<trkpt lat="30.850706100" lon="34.783435822">
<ele>485.320313</ele>
<time>2013-11-20T10:12:59Z</time>
<speed>0.010000</speed>
<extensions>
<speed>0.0</speed>
<temp>0.00</temp>
<bpm>0</bpm>
<rpm>0.00</rpm>
</extensions>
</trkpt>
<trkpt lat="30.850706100" lon="34.783435822">
<ele>485.296875</ele>
<time>2013-11-20T10:13:04Z</time>
<extensions>
<speed>0.0</speed>
<temp>0.00</temp>
<bpm>0</bpm>
<rpm>0.00</rpm>
</extensions>
</trkpt>
<trkpt lat="30.850706100" lon="34.783435822">
<ele>485.281250</ele>
<time>2013-11-20T10:13:09Z</time>
<extensions>
<speed>0.0</speed>
<temp>0.00</temp>
<bpm>0</bpm>
<rpm>0.00</rpm>
</extensions>
</trkpt>
<trkpt lat="30.850706100" lon="34.783435822">
<ele>485.257813</ele>
<time>2013-11-20T10:13:14Z</time>
<speed>0.010000</speed>
<extensions>
<speed>0.0</speed>
<temp>0.00</temp>
<bpm>0</bpm>
<rpm>0.00</rpm>
</extensions>
</trkpt>
<trkpt lat="30.850708008" lon="34.783435822">
<ele>485.234375</ele>
<time>2013-11-20T10:13:19Z</time>
<extensions>
<speed>0.0</speed>
<temp>0.00</temp>
<bpm>0</bpm>
<rpm>0.00</rpm>
</extensions>
</trkpt>
<trkpt lat="30.850708008" lon="34.783435822">
<ele>485.203125</ele>
<time>2013-11-20T10:13:24Z</time>
<speed>0.010000</speed>
<extensions>
<speed>0.0</speed>
<temp>0.00</temp>
<bpm>0</bpm>
<rpm>0.00</rpm>
</extensions>
</trkpt>
<trkpt lat="30.850708008" lon="34.783435822">
<ele>485.164063</ele>
<time>2013-11-20T10:13:29Z</time>
<extensions>
<speed>0.0</speed>
<temp>0.00</temp>
<bpm>0</bpm>
<rpm>0.00</rpm>
</extensions>
</trkpt>
<trkpt lat="30.850708008" lon="34.783435822">
<ele>485.132813</ele>
<time>2013-11-20T10:13:34Z</time>
<extensions>
<speed>0.0</speed>
<temp>0.00</temp>
<bpm>0</bpm>
<rpm>0.00</rpm>
</extensions>
</trkpt>
<trkpt lat="30.850708008" lon="34.783432007">
<ele>485.109375</ele>
<time>2013-11-20T10:13:39Z</time>
<extensions>
<speed>0.0</speed>
<temp>0.00</temp>
<bpm>0</bpm>
<rpm>0.00</rpm>
</extensions>
</trkpt>
<trkpt lat="30.850708008" lon="34.783432007">
<ele>485.070313</ele>
<time>2013-11-20T10:13:44Z</time>
<extensions>
<speed>0.0</speed>
<temp>0.00</temp>
<bpm>0</bpm>
<rpm>0.00</rpm>
</extensions>
</trkpt>
<trkpt lat="30.850708008" lon="34.783432007">
<ele>485.031250</ele>
<time>2013-11-20T10:13:49Z</time>
<extensions>
<speed>0.0</speed>
<temp>0.00</temp>
<bpm>0</bpm>
<rpm>0.00</rpm>
</extensions>
</trkpt>
<trkpt lat="30.850708008" lon="34.783432007">
<ele>484.984375</ele>
<time>2013-11-20T10:13:54Z</time>
<extensions>
<speed>0.0</speed>
<temp>0.00</temp>
<bpm>0</bpm>
<rpm>0.00</rpm>
</extensions>
</trkpt>
<trkpt lat="30.850708008" lon="34.783432007">
<ele>484.953125</ele>
<time>2013-11-20T10:13:59Z</time>
<extensions>
<speed>0.0</speed>
<temp>0.00</temp>
<bpm>0</bpm>
<rpm>0.00</rpm>
</extensions>
</trkpt>
<trkpt lat="30.850708008" lon="34.783432007">
<ele>484.914063</ele>
<time>2013-11-20T10:14:04Z</time>
<extensions>
<speed>0.0</speed>
<temp>0.00</temp>
<bpm>0</bpm>
<rpm>0.00</rpm>
</extensions>
</trkpt>
<trkpt lat="30.850708008" lon="34.783432007">
<ele>484.875000</ele>
<time>2013-11-20T10:14:09Z</time>
<extensions>
<speed>0.0</speed>
<temp>0.00</temp>
<bpm>0</bpm>
<rpm>0.00</rpm>
</extensions>
</trkpt>
<trkpt lat="30.850708008" lon="34.783432007">
<ele>484.835938</ele>
<time>2013-11-20T10:14:14Z</time>
<extensions>
<speed>0.0</speed>
<temp>0.00</temp>
<bpm>0</bpm>
<rpm>0.00</rpm>
</extensions>
</trkpt>
<trkpt lat="30.850708008" lon="34.783432007">
<ele>484.789063</ele>
<time>2013-11-20T10:14:19Z</time>
<extensions>
<speed>0.0</speed>
<temp>0.00</temp>
<bpm>0</bpm>
<rpm>0.00</rpm>
</extensions>
</trkpt>
<trkpt lat="30.850708008" lon="34.783432007">
<ele>484.757813</ele>
<time>2013-11-20T10:14:24Z</time>
<extensions>
<speed>0.0</speed>
<temp>0.00</temp>
<bpm>0</bpm>
<rpm>0.00</rpm>
</extensions>
</trkpt>
<trkpt lat="30.850708008" lon="34.783432007">
<ele>484.718750</ele>
<time>2013-11-20T10:14:29Z</time>
<extensions>
<speed>0.0</speed>
<temp>0.00</temp>
<bpm>0</bpm>
<rpm>0.00</rpm>
</extensions>
</trkpt>
<trkpt lat="30.850709915" lon="34.783432007">
<ele>484.664063</ele>
<time>2013-11-20T10:14:34Z</time>
<extensions>
<speed>0.0</speed>
<temp>0.00</temp>
<bpm>0</bpm>
<rpm>0.00</rpm>
</extensions>
</trkpt>
<trkpt lat="30.850709915" lon="34.783432007">
<ele>484.609375</ele>
<time>2013-11-20T10:14:39Z</time>
<extensions>
<speed>0.0</speed>
<temp>0.00</temp>
<bpm>0</bpm>
<rpm>0.00</rpm>
</extensions>
</trkpt>
<trkpt lat="30.850709915" lon="34.783432007">
<ele>484.562500</ele>
<time>2013-11-20T10:14:44Z</time>
<extensions>
<speed>0.0</speed>
<temp>0.00</temp>
<bpm>0</bpm>
<rpm>0.00</rpm>
</extensions>
</trkpt>
<trkpt lat="30.850709915" lon="34.783432007">
<ele>484.500000</ele>
<time>2013-11-20T10:14:49Z</time>
<extensions>
<speed>0.0</speed>
<temp>0.00</temp>
<bpm>0</bpm>
<rpm>0.00</rpm>
</extensions>
</trkpt>
<trkpt lat="30.850709915" lon="34.783428192">
<ele>484.437500</ele>
<time>2013-11-20T10:14:54Z</time>
<extensions>
<speed>0.0</speed>
<temp>0.00</temp>
<bpm>0</bpm>
<rpm>0.00</rpm>
</extensions>
</trkpt>
<trkpt lat="30.850709915" lon="34.783428192">
<ele>484.382813</ele>
<time>2013-11-20T10:14:59Z</time>
<extensions>
<speed>0.0</speed>
<temp>0.00</temp>
<bpm>0</bpm>
<rpm>0.00</rpm>
</extensions>
</trkpt>
<trkpt lat="30.850709915" lon="34.783428192">
<ele>484.320313</ele>
<time>2013-11-20T10:15:04Z</time>
<extensions>
<speed>0.0</speed>
<temp>0.00</temp>
<bpm>0</bpm>
<rpm>0.00</rpm>
</extensions>
</trkpt>
<trkpt lat="30.850709915" lon="34.783428192">
<ele>484.257813</ele>
<time>2013-11-20T10:15:09Z</time>
<extensions>
<speed>0.0</speed>
<temp>0.00</temp>
<bpm>0</bpm>
<rpm>0.00</rpm>
</extensions>
</trkpt>
<trkpt lat="30.850709915" lon="34.783428192">
<ele>484.210938</ele>
<time>2013-11-20T10:15:14Z</time>
<extensions>
<speed>0.0</speed>
<temp>0.00</temp>
<bpm>0</bpm>
<rpm>0.00</rpm>
</extensions>
</trkpt>
<trkpt lat="30.850709915" lon="34.783428192">
<ele>484.171875</ele>
<time>2013-11-20T10:15:19Z</time>
<extensions>
<speed>0.0</speed>
<temp>0.00</temp>
<bpm>0</bpm>
<rpm>0.00</rpm>
</extensions>
</trkpt>
<trkpt lat="30.850709915" lon="34.783428192">
<ele>484.125000</ele>
<time>2013-11-20T10:15:24Z</time>
<extensions>
<speed>0.0</speed>
<temp>0.00</temp>
<bpm>0</bpm>
<rpm>0.00</rpm>
</extensions>
</trkpt>
<trkpt lat="30.850709915" lon="34.783428192">
<ele>484.070313</ele>
<time>2013-11-20T10:15:29Z</time>
<extensions>
<speed>0.0</speed>
<temp>0.00</temp>
<bpm>0</bpm>
<rpm>0.00</rpm>
</extensions>
</trkpt>
<trkpt lat="30.850709915" lon="34.783428192">
<ele>484.015625</ele>
<time>2013-11-20T10:15:34Z</time>
<extensions>
<speed>0.0</speed>
<temp>0.00</temp>
<bpm>0</bpm>
<rpm>0.00</rpm>
</extensions>
</trkpt>
<trkpt lat="30.850709915" lon="34.783428192">
<ele>483.968750</ele>
<time>2013-11-20T10:15:39Z</time>
<extensions>
<speed>0.0</speed>
<temp>0.00</temp>
<bpm>0</bpm>
<rpm>0.00</rpm>
</extensions>
</trkpt>
<trkpt lat="30.850709915" lon="34.783428192">
<ele>483.945313</ele>
<time>2013-11-20T10:15:44Z</time>
<extensions>
<speed>0.0</speed>
<temp>0.00</temp>
<bpm>0</bpm>
<rpm>0.00</rpm>
</extensions>
</trkpt>
<trkpt lat="30.850709915" lon="34.783428192">
<ele>483.921875</ele>
<time>2013-11-20T10:15:49Z</time>
<extensions>
<speed>0.0</speed>
<temp>0.00</temp>
<bpm>0</bpm>
<rpm>0.00</rpm>
</extensions>
</trkpt>
<trkpt lat="30.850709915" lon="34.783428192">
<ele>483.906250</ele>
<time>2013-11-20T10:15:54Z</time>
<extensions>
<speed>0.0</speed>
<temp>0.00</temp>
<bpm>0</bpm>
<rpm>0.00</rpm>
</extensions>
</trkpt>
<trkpt lat="30.850709915" lon="34.783428192">
<ele>483.882813</ele>
<time>2013-11-20T10:15:59Z</time>
<extensions>
<speed>0.0</speed>
<temp>0.00</temp>
<bpm>0</bpm>
<rpm>0.00</rpm>
</extensions>
</trkpt>
<trkpt lat="30.850708008" lon="34.783428192">
<ele>483.843750</ele>
<time>2013-11-20T10:16:04Z</time>
<extensions>
<speed>0.0</speed>
<temp>0.00</temp>
<bpm>0</bpm>
<rpm>0.00</rpm>
</extensions>
</trkpt>
<trkpt lat="30.850708008" lon="34.783428192">
<ele>483.781250</ele>
<time>2013-11-20T10:16:09Z</time>
<extensions>
<speed>0.0</speed>
<temp>0.00</temp>
<bpm>0</bpm>
<rpm>0.00</rpm>
</extensions>
</trkpt>
<trkpt lat="30.850708008" lon="34.783424377">
<ele>483.703125</ele>
<time>2013-11-20T10:16:14Z</time>
<extensions>
<speed>0.0</speed>
<temp>0.00</temp>
<bpm>0</bpm>
<rpm>0.00</rpm>
</extensions>
</trkpt>
<trkpt lat="30.850708008" lon="34.783424377">
<ele>483.609375</ele>
<time>2013-11-20T10:16:19Z</time>
<extensions>
<speed>0.0</speed>
<temp>0.00</temp>
<bpm>0</bpm>
<rpm>0.00</rpm>
</extensions>
</trkpt>
<trkpt lat="30.850708008" lon="34.783424377">
<ele>483.554688</ele>
<time>2013-11-20T10:16:24Z</time>
<extensions>
<speed>0.0</speed>
<temp>0.00</temp>
<bpm>0</bpm>
<rpm>0.00</rpm>
</extensions>
</trkpt>
<trkpt lat="30.850708008" lon="34.783424377">
<ele>483.523438</ele>
<time>2013-11-20T10:16:29Z</time>
<extensions>
<speed>0.0</speed>
<temp>0.00</temp>
<bpm>0</bpm>
<rpm>0.00</rpm>
</extensions>
</trkpt>
<trkpt lat="30.850708008" lon="34.783424377">
<ele>483.500000</ele>
<time>2013-11-20T10:16:34Z</time>
<extensions>
<speed>0.0</speed>
<temp>0.00</temp>
<bpm>0</bpm>
<rpm>0.00</rpm>
</extensions>
</trkpt>
<trkpt lat="30.850706100" lon="34.783424377">
<ele>483.437500</ele>
<time>2013-11-20T10:16:39Z</time>
<extensions>
<speed>0.0</speed>
<temp>0.00</temp>
<bpm>0</bpm>
<rpm>0.00</rpm>
</extensions>
</trkpt>
<trkpt lat="30.850706100" lon="34.783424377">
<ele>483.367188</ele>
<time>2013-11-20T10:16:44Z</time>
<speed>0.020000</speed>
<extensions>
<speed>0.0</speed>
<temp>0.00</temp>
<bpm>0</bpm>
<rpm>0.00</rpm>
</extensions>
</trkpt>
<trkpt lat="30.850706100" lon="34.783424377">
<ele>483.234375</ele>
<time>2013-11-20T10:16:49Z</time>
<extensions>
<speed>0.0</speed>
<temp>0.00</temp>
<bpm>0</bpm>
<rpm>0.00</rpm>
</extensions>
</trkpt>
<trkpt lat="30.850706100" lon="34.783424377">
<ele>483.132813</ele>
<time>2013-11-20T10:16:54Z</time>
<extensions>
<speed>0.0</speed>
<temp>0.00</temp>
<bpm>0</bpm>
<rpm>0.00</rpm>
</extensions>
</trkpt>
<trkpt lat="30.850706100" lon="34.783420563">
<ele>483.031250</ele>
<time>2013-11-20T10:16:59Z</time>
<extensions>
<speed>0.0</speed>
<temp>0.00</temp>
<bpm>0</bpm>
<rpm>0.00</rpm>
</extensions>
</trkpt>
<trkpt lat="30.850706100" lon="34.783420563">
<ele>482.968750</ele>
<time>2013-11-20T10:17:04Z</time>
<extensions>
<speed>0.0</speed>
<temp>0.00</temp>
<bpm>0</bpm>
<rpm>0.00</rpm>
</extensions>
</trkpt>
<trkpt lat="30.850706100" lon="34.783420563">
<ele>482.906250</ele>
<time>2013-11-20T10:17:09Z</time>
<extensions>
<speed>0.0</speed>
<temp>0.00</temp>
<bpm>0</bpm>
<rpm>0.00</rpm>
</extensions>
</trkpt>
<trkpt lat="30.850706100" lon="34.783420563">
<ele>482.867188</ele>
<time>2013-11-20T10:17:14Z</time>
<extensions>
<speed>0.0</speed>
<temp>0.00</temp>
<bpm>0</bpm>
<rpm>0.00</rpm>
</extensions>
</trkpt>
<trkpt lat="30.850704193" lon="34.783420563">
<ele>482.820313</ele>
<time>2013-11-20T10:17:19Z</time>
<extensions>
<speed>0.0</speed>
<temp>0.00</temp>
<bpm>0</bpm>
<rpm>0.00</rpm>
</extensions>
</trkpt>
<trkpt lat="30.850704193" lon="34.783420563">
<ele>482.773438</ele>
<time>2013-11-20T10:17:24Z</time>
<extensions>
<speed>0.0</speed>
<temp>0.00</temp>
<bpm>0</bpm>
<rpm>0.00</rpm>
</extensions>
</trkpt>
<trkpt lat="30.850704193" lon="34.783420563">
<ele>482.710938</ele>
<time>2013-11-20T10:17:29Z</time>
<extensions>
<speed>0.0</speed>
<temp>0.00</temp>
<bpm>0</bpm>
<rpm>0.00</rpm>
</extensions>
</trkpt>
<trkpt lat="30.850704193" lon="34.783420563">
<ele>482.648438</ele>
<time>2013-11-20T10:17:34Z</time>
<extensions>
<speed>0.0</speed>
<temp>0.00</temp>
<bpm>0</bpm>
<rpm>0.00</rpm>
</extensions>
</trkpt>
<trkpt lat="30.850704193" lon="34.783420563">
<ele>482.625000</ele>
<time>2013-11-20T10:17:39Z</time>
<extensions>
<speed>0.0</speed>
<temp>0.00</temp>
<bpm>0</bpm>
<rpm>0.00</rpm>
</extensions>
</trkpt>
<trkpt lat="30.850704193" lon="34.783420563">
<ele>482.609375</ele>
<time>2013-11-20T10:17:44Z</time>
<extensions>
<speed>0.0</speed>
<temp>0.00</temp>
<bpm>0</bpm>
<rpm>0.00</rpm>
</extensions>
</trkpt>
<trkpt lat="30.850704193" lon="34.783420563">
<ele>482.601563</ele>
<time>2013-11-20T10:17:49Z</time>
<extensions>
<speed>0.0</speed>
<temp>0.00</temp>
<bpm>0</bpm>
<rpm>0.00</rpm>
</extensions>
</trkpt>
<trkpt lat="30.850704193" lon="34.783420563">
<ele>482.593750</ele>
<time>2013-11-20T10:17:54Z</time>
<extensions>
<speed>0.0</speed>
<temp>0.00</temp>
<bpm>0</bpm>
<rpm>0.00</rpm>
</extensions>
</trkpt>
<trkpt lat="30.850704193" lon="34.783416748">
<ele>482.593750</ele>
<time>2013-11-20T10:17:59Z</time>
<extensions>
<speed>0.0</speed>
<temp>0.00</temp>
<bpm>0</bpm>
<rpm>0.00</rpm>
</extensions>
</trkpt>
<trkpt lat="30.850704193" lon="34.783416748">
<ele>482.585938</ele>
<time>2013-11-20T10:18:04Z</time>
<extensions>
<speed>0.0</speed>
<temp>0.00</temp>
<bpm>0</bpm>
<rpm>0.00</rpm>
</extensions>
</trkpt>
<trkpt lat="30.850704193" lon="34.783416748">
<ele>482.570313</ele>
<time>2013-11-20T10:18:09Z</time>
<extensions>
<speed>0.0</speed>
<temp>0.00</temp>
<bpm>0</bpm>
<rpm>0.00</rpm>
</extensions>
</trkpt>
<trkpt lat="30.850704193" lon="34.783416748">
<ele>482.539063</ele>
<time>2013-11-20T10:18:14Z</time>
<extensions>
<speed>0.0</speed>
<temp>0.00</temp>
<bpm>0</bpm>
<rpm>0.00</rpm>
</extensions>
</trkpt>
<trkpt lat="30.850704193" lon="34.783416748">
<ele>482.515625</ele>
<time>2013-11-20T10:18:19Z</time>
<extensions>
<speed>0.0</speed>
<temp>0.00</temp>
<bpm>0</bpm>
<rpm>0.00</rpm>
</extensions>
</trkpt>
<trkpt lat="30.850704193" lon="34.783416748">
<ele>482.500000</ele>
<time>2013-11-20T10:18:24Z</time>
<extensions>
<speed>0.0</speed>
<temp>0.00</temp>
<bpm>0</bpm>
<rpm>0.00</rpm>
</extensions>
</trkpt>
<trkpt lat="30.850704193" lon="34.783416748">
<ele>482.492188</ele>
<time>2013-11-20T10:18:29Z</time>
<extensions>
<speed>0.0</speed>
<temp>0.00</temp>
<bpm>0</bpm>
<rpm>0.00</rpm>
</extensions>
</trkpt>
<trkpt lat="30.850704193" lon="34.783416748">
<ele>482.492188</ele>
<time>2013-11-20T10:18:34Z</time>
<extensions>
<speed>0.0</speed>
<temp>0.00</temp>
<bpm>0</bpm>
<rpm>0.00</rpm>
</extensions>
</trkpt>
<trkpt lat="30.850704193" lon="34.783416748">
<ele>482.492188</ele>
<time>2013-11-20T10:18:39Z</time>
<extensions>
<speed>0.0</speed>
<temp>0.00</temp>
<bpm>0</bpm>
<rpm>0.00</rpm>
</extensions>
</trkpt>
<trkpt lat="30.850704193" lon="34.783416748">
<ele>482.492188</ele>
<time>2013-11-20T10:18:44Z</time>
<extensions>
<speed>0.0</speed>
<temp>0.00</temp>
<bpm>0</bpm>
<rpm>0.00</rpm>
</extensions>
</trkpt>
<trkpt lat="30.850704193" lon="34.783416748">
<ele>482.484375</ele>
<time>2013-11-20T10:18:49Z</time>
<extensions>
<speed>0.0</speed>
<temp>0.00</temp>
<bpm>0</bpm>
<rpm>0.00</rpm>
</extensions>
</trkpt>
<trkpt lat="30.850704193" lon="34.783416748">
<ele>482.500000</ele>
<time>2013-11-20T10:18:54Z</time>
<extensions>
<speed>0.0</speed>
<temp>0.00</temp>
<bpm>0</bpm>
<rpm>0.00</rpm>
</extensions>
</trkpt>
<trkpt lat="30.850704193" lon="34.783412933">
<ele>482.539063</ele>
<time>2013-11-20T10:18:59Z</time>
<extensions>
<speed>0.0</speed>
<temp>0.00</temp>
<bpm>0</bpm>
<rpm>0.00</rpm>
</extensions>
</trkpt>
<trkpt lat="30.850704193" lon="34.783412933">
<ele>482.585938</ele>
<time>2013-11-20T10:19:04Z</time>
<extensions>
<speed>0.0</speed>
<temp>0.00</temp>
<bpm>0</bpm>
<rpm>0.00</rpm>
</extensions>
</trkpt>
<trkpt lat="30.850704193" lon="34.783412933">
<ele>482.601563</ele>
<time>2013-11-20T10:19:09Z</time>
<speed>0.010000</speed>
<extensions>
<speed>0.0</speed>
<temp>0.00</temp>
<bpm>0</bpm>
<rpm>0.00</rpm>
</extensions>
</trkpt>
<trkpt lat="30.850704193" lon="34.783412933">
<ele>482.625000</ele>
<time>2013-11-20T10:19:14Z</time>
<extensions>
<speed>0.0</speed>
<temp>0.00</temp>
<bpm>0</bpm>
<rpm>0.00</rpm>
</extensions>
</trkpt>
<trkpt lat="30.850704193" lon="34.783412933">
<ele>482.671875</ele>
<time>2013-11-20T10:19:19Z</time>
<extensions>
<speed>0.0</speed>
<temp>0.00</temp>
<bpm>0</bpm>
<rpm>0.00</rpm>
</extensions>
</trkpt>
<trkpt lat="30.850704193" lon="34.783412933">
<ele>482.703125</ele>
<time>2013-11-20T10:19:24Z</time>
<speed>0.010000</speed>
<extensions>
<speed>0.0</speed>
<temp>0.00</temp>
<bpm>0</bpm>
<rpm>0.00</rpm>
</extensions>
</trkpt>
<trkpt lat="30.850704193" lon="34.783412933">
<ele>482.710938</ele>
<time>2013-11-20T10:19:29Z</time>
<speed>0.010000</speed>
<extensions>
<speed>0.0</speed>
<temp>0.00</temp>
<bpm>0</bpm>
<rpm>0.00</rpm>
</extensions>
</trkpt>
<trkpt lat="30.850704193" lon="34.783412933">
<ele>482.757813</ele>
<time>2013-11-20T10:19:34Z</time>
<extensions>
<speed>0.0</speed>
<temp>0.00</temp>
<bpm>0</bpm>
<rpm>0.00</rpm>
</extensions>
</trkpt>
<trkpt lat="30.850702286" lon="34.783412933">
<ele>482.796875</ele>
<time>2013-11-20T10:19:39Z</time>
<speed>0.010000</speed>
<extensions>
<speed>0.0</speed>
<temp>0.00</temp>
<bpm>0</bpm>
<rpm>0.00</rpm>
</extensions>
</trkpt>
<trkpt lat="30.850702286" lon="34.783409119">
<ele>482.835938</ele>
<time>2013-11-20T10:19:44Z</time>
<extensions>
<speed>0.0</speed>
<temp>0.00</temp>
<bpm>0</bpm>
<rpm>0.00</rpm>
</extensions>
</trkpt>
<trkpt lat="30.850702286" lon="34.783409119">
<ele>482.867188</ele>
<time>2013-11-20T10:19:49Z</time>
<extensions>
<speed>0.0</speed>
<temp>0.00</temp>
<bpm>0</bpm>
<rpm>0.00</rpm>
</extensions>
</trkpt>
<trkpt lat="30.850702286" lon="34.783409119">
<ele>482.890625</ele>
<time>2013-11-20T10:19:54Z</time>
<speed>0.010000</speed>
<extensions>
<speed>0.0</speed>
<temp>0.00</temp>
<bpm>0</bpm>
<rpm>0.00</rpm>
</extensions>
</trkpt>
<trkpt lat="30.850702286" lon="34.783409119">
<ele>482.882813</ele>
<time>2013-11-20T10:19:59Z</time>
<speed>0.010000</speed>
<extensions>
<speed>0.0</speed>
<temp>0.00</temp>
<bpm>0</bpm>
<rpm>0.00</rpm>
</extensions>
</trkpt>
<trkpt lat="30.850702286" lon="34.783409119">
<ele>482.890625</ele>
<time>2013-11-20T10:20:04Z</time>
<speed>0.010000</speed>
<extensions>
<speed>0.0</speed>
<temp>0.00</temp>
<bpm>0</bpm>
<rpm>0.00</rpm>
</extensions>
</trkpt>
<trkpt lat="30.850702286" lon="34.783409119">
<ele>482.882813</ele>
<time>2013-11-20T10:20:09Z</time>
<speed>0.010000</speed>
<extensions>
<speed>0.0</speed>
<temp>0.00</temp>
<bpm>0</bpm>
<rpm>0.00</rpm>
</extensions>
</trkpt>
<trkpt lat="30.850702286" lon="34.783409119">
<ele>482.875000</ele>
<time>2013-11-20T10:20:14Z</time>
<extensions>
<speed>0.0</speed>
<temp>0.00</temp>
<bpm>0</bpm>
<rpm>0.00</rpm>
</extensions>
</trkpt>
<trkpt lat="30.850702286" lon="34.783405304">
<ele>482.867188</ele>
<time>2013-11-20T10:20:19Z</time>
<speed>0.010000</speed>
<extensions>
<speed>0.0</speed>
<temp>0.00</temp>
<bpm>0</bpm>
<rpm>0.00</rpm>
</extensions>
</trkpt>
<trkpt lat="30.850702286" lon="34.783405304">
<ele>482.867188</ele>
<time>2013-11-20T10:20:24Z</time>
<extensions>
<speed>0.0</speed>
<temp>0.00</temp>
<bpm>0</bpm>
<rpm>0.00</rpm>
</extensions>
</trkpt>
<trkpt lat="30.850702286" lon="34.783405304">
<ele>482.867188</ele>
<time>2013-11-20T10:20:29Z</time>
<extensions>
<speed>0.0</speed>
<temp>0.00</temp>
<bpm>0</bpm>
<rpm>0.00</rpm>
</extensions>
</trkpt>
<trkpt lat="30.850702286" lon="34.783405304">
<ele>482.867188</ele>
<time>2013-11-20T10:20:34Z</time>
<extensions>
<speed>0.0</speed>
<temp>0.00</temp>
<bpm>0</bpm>
<rpm>0.00</rpm>
</extensions>
</trkpt>
<trkpt lat="30.850702286" lon="34.783405304">
<ele>482.851563</ele>
<time>2013-11-20T10:20:39Z</time>
<extensions>
<speed>0.0</speed>
<temp>0.00</temp>
<bpm>0</bpm>
<rpm>0.00</rpm>
</extensions>
</trkpt>
<trkpt lat="30.850702286" lon="34.783405304">
<ele>482.835938</ele>
<time>2013-11-20T10:20:44Z</time>
<speed>0.010000</speed>
<extensions>
<speed>0.0</speed>
<temp>0.00</temp>
<bpm>0</bpm>
<rpm>0.00</rpm>
</extensions>
</trkpt>
<trkpt lat="30.850702286" lon="34.783405304">
<ele>482.804688</ele>
<time>2013-11-20T10:20:49Z</time>
<extensions>
<speed>0.0</speed>
<temp>0.00</temp>
<bpm>0</bpm>
<rpm>0.00</rpm>
</extensions>
</trkpt>
<trkpt lat="30.850702286" lon="34.783405304">
<ele>482.765625</ele>
<time>2013-11-20T10:20:54Z</time>
<extensions>
<speed>0.0</speed>
<temp>0.00</temp>
<bpm>0</bpm>
<rpm>0.00</rpm>
</extensions>
</trkpt>
<trkpt lat="30.850702286" lon="34.783405304">
<ele>482.718750</ele>
<time>2013-11-20T10:20:59Z</time>
<extensions>
<speed>0.0</speed>
<temp>0.00</temp>
<bpm>0</bpm>
<rpm>0.00</rpm>
</extensions>
</trkpt>
<trkpt lat="30.850704193" lon="34.783405304">
<ele>482.687500</ele>
<time>2013-11-20T10:21:04Z</time>
<speed>0.010000</speed>
<extensions>
<speed>0.0</speed>
<temp>0.00</temp>
<bpm>0</bpm>
<rpm>0.00</rpm>
</extensions>
</trkpt>
<trkpt lat="30.850704193" lon="34.783401489">
<ele>482.648438</ele>
<time>2013-11-20T10:21:09Z</time>
<extensions>
<speed>0.0</speed>
<temp>0.00</temp>
<bpm>0</bpm>
<rpm>0.00</rpm>
</extensions>
</trkpt>
<trkpt lat="30.850704193" lon="34.783401489">
<ele>482.609375</ele>
<time>2013-11-20T10:21:14Z</time>
<extensions>
<speed>0.0</speed>
<temp>0.00</temp>
<bpm>0</bpm>
<rpm>0.00</rpm>
</extensions>
</trkpt>
<trkpt lat="30.850704193" lon="34.783401489">
<ele>482.546875</ele>
<time>2013-11-20T10:21:19Z</time>
<speed>0.020000</speed>
<extensions>
<speed>0.0</speed>
<temp>0.00</temp>
<bpm>0</bpm>
<rpm>0.00</rpm>
</extensions>
</trkpt>
<trkpt lat="30.850704193" lon="34.783401489">
<ele>482.507813</ele>
<time>2013-11-20T10:21:24Z</time>
<extensions>
<speed>0.0</speed>
<temp>0.00</temp>
<bpm>0</bpm>
<rpm>0.00</rpm>
</extensions>
</trkpt>
<trkpt lat="30.850704193" lon="34.783401489">
<ele>482.476563</ele>
<time>2013-11-20T10:21:29Z</time>
<extensions>
<speed>0.0</speed>
<temp>0.00</temp>
<bpm>0</bpm>
<rpm>0.00</rpm>
</extensions>
</trkpt>
<trkpt lat="30.850704193" lon="34.783401489">
<ele>482.445313</ele>
<time>2013-11-20T10:21:34Z</time>
<speed>0.010000</speed>
<extensions>
<speed>0.0</speed>
<temp>0.00</temp>
<bpm>0</bpm>
<rpm>0.00</rpm>
</extensions>
</trkpt>
<trkpt lat="30.850704193" lon="34.783401489">
<ele>482.390625</ele>
<time>2013-11-20T10:21:39Z</time>
<extensions>
<speed>0.0</speed>
<temp>0.00</temp>
<bpm>0</bpm>
<rpm>0.00</rpm>
</extensions>
</trkpt>
<trkpt lat="30.850704193" lon="34.783401489">
<ele>482.335938</ele>
<time>2013-11-20T10:21:44Z</time>
<extensions>
<speed>0.0</speed>
<temp>0.00</temp>
<bpm>0</bpm>
<rpm>0.00</rpm>
</extensions>
</trkpt>
<trkpt lat="30.850704193" lon="34.783401489">
<ele>482.281250</ele>
<time>2013-11-20T10:21:49Z</time>
<extensions>
<speed>0.0</speed>
<temp>0.00</temp>
<bpm>0</bpm>
<rpm>0.00</rpm>
</extensions>
</trkpt>
<trkpt lat="30.850704193" lon="34.783397675">
<ele>482.242188</ele>
<time>2013-11-20T10:21:54Z</time>
<extensions>
<speed>0.0</speed>
<temp>0.00</temp>
<bpm>0</bpm>
<rpm>0.00</rpm>
</extensions>
</trkpt>
<trkpt lat="30.850704193" lon="34.783397675">
<ele>482.187500</ele>
<time>2013-11-20T10:21:59Z</time>
<extensions>
<speed>0.0</speed>
<temp>0.00</temp>
<bpm>0</bpm>
<rpm>0.00</rpm>
</extensions>
</trkpt>
<trkpt lat="30.850704193" lon="34.783397675">
<ele>482.148438</ele>
<time>2013-11-20T10:22:04Z</time>
<speed>0.020000</speed>
<extensions>
<speed>0.0</speed>
<temp>0.00</temp>
<bpm>0</bpm>
<rpm>0.00</rpm>
</extensions>
</trkpt>
<trkpt lat="30.850704193" lon="34.783397675">
<ele>482.132813</ele>
<time>2013-11-20T10:22:09Z</time>
<speed>0.010000</speed>
<extensions>
<speed>0.0</speed>
<temp>0.00</temp>
<bpm>0</bpm>
<rpm>0.00</rpm>
</extensions>
</trkpt>
<trkpt lat="30.850704193" lon="34.783397675">
<ele>482.101563</ele>
<time>2013-11-20T10:22:14Z</time>
<speed>0.010000</speed>
<extensions>
<speed>0.0</speed>
<temp>0.00</temp>
<bpm>0</bpm>
<rpm>0.00</rpm>
</extensions>
</trkpt>
<trkpt lat="30.850704193" lon="34.783397675">
<ele>482.054688</ele>
<time>2013-11-20T10:22:19Z</time>
<extensions>
<speed>0.0</speed>
<temp>0.00</temp>
<bpm>0</bpm>
<rpm>0.00</rpm>
</extensions>
</trkpt>
<trkpt lat="30.850704193" lon="34.783397675">
<ele>482.015625</ele>
<time>2013-11-20T10:22:24Z</time>
<extensions>
<speed>0.0</speed>
<temp>0.00</temp>
<bpm>0</bpm>
<rpm>0.00</rpm>
</extensions>
</trkpt>
<trkpt lat="30.850704193" lon="34.783397675">
<ele>481.976563</ele>
<time>2013-11-20T10:22:29Z</time>
<extensions>
<speed>0.0</speed>
<temp>0.00</temp>
<bpm>0</bpm>
<rpm>0.00</rpm>
</extensions>
</trkpt>
<trkpt lat="30.850704193" lon="34.783397675">
<ele>481.929688</ele>
<time>2013-11-20T10:22:34Z</time>
<extensions>
<speed>0.0</speed>
<temp>0.00</temp>
<bpm>0</bpm>
<rpm>0.00</rpm>
</extensions>
</trkpt>
<trkpt lat="30.850704193" lon="34.783397675">
<ele>481.898438</ele>
<time>2013-11-20T10:22:39Z</time>
<extensions>
<speed>0.0</speed>
<temp>0.00</temp>
<bpm>0</bpm>
<rpm>0.00</rpm>
</extensions>
</trkpt>
<trkpt lat="30.850704193" lon="34.783397675">
<ele>481.867188</ele>
<time>2013-11-20T10:22:44Z</time>
<extensions>
<speed>0.0</speed>
<temp>0.00</temp>
<bpm>0</bpm>
<rpm>0.00</rpm>
</extensions>
</trkpt>
<trkpt lat="30.850704193" lon="34.783397675">
<ele>481.843750</ele>
<time>2013-11-20T10:22:49Z</time>
<extensions>
<speed>0.0</speed>
<temp>0.00</temp>
<bpm>0</bpm>
<rpm>0.00</rpm>
</extensions>
</trkpt>
<trkpt lat="30.850704193" lon="34.783397675">
<ele>481.820313</ele>
<time>2013-11-20T10:22:54Z</time>
<extensions>
<speed>0.0</speed>
<temp>0.00</temp>
<bpm>0</bpm>
<rpm>0.00</rpm>
</extensions>
</trkpt>
<trkpt lat="30.850704193" lon="34.783397675">
<ele>481.796875</ele>
<time>2013-11-20T10:22:59Z</time>
<extensions>
<speed>0.0</speed>
<temp>0.00</temp>
<bpm>0</bpm>
<rpm>0.00</rpm>
</extensions>
</trkpt>
<trkpt lat="30.850704193" lon="34.783397675">
<ele>481.773438</ele>
<time>2013-11-20T10:23:04Z</time>
<extensions>
<speed>0.0</speed>
<temp>0.00</temp>
<bpm>0</bpm>
<rpm>0.00</rpm>
</extensions>
</trkpt>
<trkpt lat="30.850704193" lon="34.783397675">
<ele>481.734375</ele>
<time>2013-11-20T10:23:09Z</time>
<speed>0.010000</speed>
<extensions>
<speed>0.0</speed>
<temp>0.00</temp>
<bpm>0</bpm>
<rpm>0.00</rpm>
</extensions>
</trkpt>
<trkpt lat="30.850704193" lon="34.783393860">
<ele>481.703125</ele>
<time>2013-11-20T10:23:14Z</time>
<extensions>
<speed>0.0</speed>
<temp>0.00</temp>
<bpm>0</bpm>
<rpm>0.00</rpm>
</extensions>
</trkpt>
<trkpt lat="30.850704193" lon="34.783393860">
<ele>481.679688</ele>
<time>2013-11-20T10:23:19Z</time>
<extensions>
<speed>0.0</speed>
<temp>0.00</temp>
<bpm>0</bpm>
<rpm>0.00</rpm>
</extensions>
</trkpt>
<trkpt lat="30.850704193" lon="34.783393860">
<ele>481.656250</ele>
<time>2013-11-20T10:23:24Z</time>
<extensions>
<speed>0.0</speed>
<temp>0.00</temp>
<bpm>0</bpm>
<rpm>0.00</rpm>
</extensions>
</trkpt>
<trkpt lat="30.850704193" lon="34.783393860">
<ele>481.632813</ele>
<time>2013-11-20T10:23:29Z</time>
<extensions>
<speed>0.0</speed>
<temp>0.00</temp>
<bpm>0</bpm>
<rpm>0.00</rpm>
</extensions>
</trkpt>
<trkpt lat="30.850704193" lon="34.783393860">
<ele>481.601563</ele>
<time>2013-11-20T10:23:34Z</time>
<extensions>
<speed>0.0</speed>
<temp>0.00</temp>
<bpm>0</bpm>
<rpm>0.00</rpm>
</extensions>
</trkpt>
<trkpt lat="30.850704193" lon="34.783393860">
<ele>481.578125</ele>
<time>2013-11-20T10:23:39Z</time>
<extensions>
<speed>0.0</speed>
<temp>0.00</temp>
<bpm>0</bpm>
<rpm>0.00</rpm>
</extensions>
</trkpt>
<trkpt lat="30.850702286" lon="34.783397675">
<ele>481.570313</ele>
<time>2013-11-20T10:23:44Z</time>
<extensions>
<speed>0.0</speed>
<temp>0.00</temp>
<bpm>0</bpm>
<rpm>0.00</rpm>
</extensions>
</trkpt>
<trkpt lat="30.850702286" lon="34.783397675">
<ele>481.554688</ele>
<time>2013-11-20T10:23:49Z</time>
<extensions>
<speed>0.0</speed>
<temp>0.00</temp>
<bpm>0</bpm>
<rpm>0.00</rpm>
</extensions>
</trkpt>
<trkpt lat="30.850702286" lon="34.783397675">
<ele>481.539063</ele>
<time>2013-11-20T10:23:54Z</time>
<speed>0.010000</speed>
<extensions>
<speed>0.0</speed>
<temp>0.00</temp>
<bpm>0</bpm>
<rpm>0.00</rpm>
</extensions>
</trkpt>
<trkpt lat="30.850702286" lon="34.783397675">
<ele>481.539063</ele>
<time>2013-11-20T10:23:59Z</time>
<extensions>
<speed>0.0</speed>
<temp>0.00</temp>
<bpm>0</bpm>
<rpm>0.00</rpm>
</extensions>
</trkpt>
<trkpt lat="30.850702286" lon="34.783397675">
<ele>481.546875</ele>
<time>2013-11-20T10:24:04Z</time>
<extensions>
<speed>0.0</speed>
<temp>0.00</temp>
<bpm>0</bpm>
<rpm>0.00</rpm>
</extensions>
</trkpt>
<trkpt lat="30.850702286" lon="34.783397675">
<ele>481.531250</ele>
<time>2013-11-20T10:24:09Z</time>
<extensions>
<speed>0.0</speed>
<temp>0.00</temp>
<bpm>0</bpm>
<rpm>0.00</rpm>
</extensions>
</trkpt>
<trkpt lat="30.850702286" lon="34.783397675">
<ele>481.523438</ele>
<time>2013-11-20T10:24:14Z</time>
<extensions>
<speed>0.0</speed>
<temp>0.00</temp>
<bpm>0</bpm>
<rpm>0.00</rpm>
</extensions>
</trkpt>
<trkpt lat="30.850702286" lon="34.783397675">
<ele>481.500000</ele>
<time>2013-11-20T10:24:19Z</time>
<extensions>
<speed>0.0</speed>
<temp>0.00</temp>
<bpm>0</bpm>
<rpm>0.00</rpm>
</extensions>
</trkpt>
<trkpt lat="30.850702286" lon="34.783397675">
<ele>481.468750</ele>
<time>2013-11-20T10:24:24Z</time>
<extensions>
<speed>0.0</speed>
<temp>0.00</temp>
<bpm>0</bpm>
<rpm>0.00</rpm>
</extensions>
</trkpt>
<trkpt lat="30.850702286" lon="34.783397675">
<ele>481.429688</ele>
<time>2013-11-20T10:24:29Z</time>
<extensions>
<speed>0.0</speed>
<temp>0.00</temp>
<bpm>0</bpm>
<rpm>0.00</rpm>
</extensions>
</trkpt>
<trkpt lat="30.850702286" lon="34.783397675">
<ele>481.390625</ele>
<time>2013-11-20T10:24:34Z</time>
<extensions>
<speed>0.0</speed>
<temp>0.00</temp>
<bpm>0</bpm>
<rpm>0.00</rpm>
</extensions>
</trkpt>
<trkpt lat="30.850702286" lon="34.783397675">
<ele>481.351563</ele>
<time>2013-11-20T10:24:39Z</time>
<extensions>
<speed>0.0</speed>
<temp>0.00</temp>
<bpm>0</bpm>
<rpm>0.00</rpm>
</extensions>
</trkpt>
<trkpt lat="30.850702286" lon="34.783397675">
<ele>481.328125</ele>
<time>2013-11-20T10:24:44Z</time>
<extensions>
<speed>0.0</speed>
<temp>0.00</temp>
<bpm>0</bpm>
<rpm>0.00</rpm>
</extensions>
</trkpt>
<trkpt lat="30.850704193" lon="34.783397675">
<ele>481.289063</ele>
<time>2013-11-20T10:24:49Z</time>
<extensions>
<speed>0.0</speed>
<temp>0.00</temp>
<bpm>0</bpm>
<rpm>0.00</rpm>
</extensions>
</trkpt>
<trkpt lat="30.850704193" lon="34.783397675">
<ele>481.257813</ele>
<time>2013-11-20T10:24:54Z</time>
<extensions>
<speed>0.0</speed>
<temp>0.00</temp>
<bpm>0</bpm>
<rpm>0.00</rpm>
</extensions>
</trkpt>
<trkpt lat="30.850704193" lon="34.783397675">
<ele>481.203125</ele>
<time>2013-11-20T10:24:59Z</time>
<extensions>
<speed>0.0</speed>
<temp>0.00</temp>
<bpm>0</bpm>
<rpm>0.00</rpm>
</extensions>
</trkpt>
<trkpt lat="30.850704193" lon="34.783397675">
<ele>481.140625</ele>
<time>2013-11-20T10:25:04Z</time>
<extensions>
<speed>0.0</speed>
<temp>0.00</temp>
<bpm>0</bpm>
<rpm>0.00</rpm>
</extensions>
</trkpt>
<trkpt lat="30.850704193" lon="34.783397675">
<ele>481.078125</ele>
<time>2013-11-20T10:25:09Z</time>
<extensions>
<speed>0.0</speed>
<temp>0.00</temp>
<bpm>0</bpm>
<rpm>0.00</rpm>
</extensions>
</trkpt>
<trkpt lat="30.850704193" lon="34.783397675">
<ele>481.023438</ele>
<time>2013-11-20T10:25:14Z</time>
<extensions>
<speed>0.0</speed>
<temp>0.00</temp>
<bpm>0</bpm>
<rpm>0.00</rpm>
</extensions>
</trkpt>
<trkpt lat="30.850704193" lon="34.783397675">
<ele>480.984375</ele>
<time>2013-11-20T10:25:19Z</time>
<extensions>
<speed>0.0</speed>
<temp>0.00</temp>
<bpm>0</bpm>
<rpm>0.00</rpm>
</extensions>
</trkpt>
<trkpt lat="30.850704193" lon="34.783397675">
<ele>480.953125</ele>
<time>2013-11-20T10:25:24Z</time>
<extensions>
<speed>0.0</speed>
<temp>0.00</temp>
<bpm>0</bpm>
<rpm>0.00</rpm>
</extensions>
</trkpt>
<trkpt lat="30.850704193" lon="34.783397675">
<ele>480.921875</ele>
<time>2013-11-20T10:25:29Z</time>
<extensions>
<speed>0.0</speed>
<temp>0.00</temp>
<bpm>0</bpm>
<rpm>0.00</rpm>
</extensions>
</trkpt>
<trkpt lat="30.850704193" lon="34.783397675">
<ele>480.906250</ele>
<time>2013-11-20T10:25:34Z</time>
<extensions>
<speed>0.0</speed>
<temp>0.00</temp>
<bpm>0</bpm>
<rpm>0.00</rpm>
</extensions>
</trkpt>
<trkpt lat="30.850704193" lon="34.783397675">
<ele>480.890625</ele>
<time>2013-11-20T10:25:39Z</time>
<extensions>
<speed>0.0</speed>
<temp>0.00</temp>
<bpm>0</bpm>
<rpm>0.00</rpm>
</extensions>
</trkpt>
<trkpt lat="30.850704193" lon="34.783397675">
<ele>480.875000</ele>
<time>2013-11-20T10:25:44Z</time>
<extensions>
<speed>0.0</speed>
<temp>0.00</temp>
<bpm>0</bpm>
<rpm>0.00</rpm>
</extensions>
</trkpt>
<trkpt lat="30.850704193" lon="34.783397675">
<ele>480.867188</ele>
<time>2013-11-20T10:25:49Z</time>
<extensions>
<speed>0.0</speed>
<temp>0.00</temp>
<bpm>0</bpm>
<rpm>0.00</rpm>
</extensions>
</trkpt>
<trkpt lat="30.850704193" lon="34.783397675">
<ele>480.875000</ele>
<time>2013-11-20T10:25:54Z</time>
<extensions>
<speed>0.0</speed>
<temp>0.00</temp>
<bpm>0</bpm>
<rpm>0.00</rpm>
</extensions>
</trkpt>
<trkpt lat="30.850704193" lon="34.783397675">
<ele>480.867188</ele>
<time>2013-11-20T10:25:59Z</time>
<extensions>
<speed>0.0</speed>
<temp>0.00</temp>
<bpm>0</bpm>
<rpm>0.00</rpm>
</extensions>
</trkpt>
<trkpt lat="30.850704193" lon="34.783397675">
<ele>480.851563</ele>
<time>2013-11-20T10:26:04Z</time>
<extensions>
<speed>0.0</speed>
<temp>0.00</temp>
<bpm>0</bpm>
<rpm>0.00</rpm>
</extensions>
</trkpt>
<trkpt lat="30.850704193" lon="34.783397675">
<ele>480.851563</ele>
<time>2013-11-20T10:26:09Z</time>
<extensions>
<speed>0.0</speed>
<temp>0.00</temp>
<bpm>0</bpm>
<rpm>0.00</rpm>
</extensions>
</trkpt>
<trkpt lat="30.850704193" lon="34.783397675">
<ele>480.843750</ele>
<time>2013-11-20T10:26:14Z</time>
<extensions>
<speed>0.0</speed>
<temp>0.00</temp>
<bpm>0</bpm>
<rpm>0.00</rpm>
</extensions>
</trkpt>
<trkpt lat="30.850704193" lon="34.783397675">
<ele>480.843750</ele>
<time>2013-11-20T10:26:19Z</time>
<extensions>
<speed>0.0</speed>
<temp>0.00</temp>
<bpm>0</bpm>
<rpm>0.00</rpm>
</extensions>
</trkpt>
<trkpt lat="30.850704193" lon="34.783397675">
<ele>480.843750</ele>
<time>2013-11-20T10:26:24Z</time>
<extensions>
<speed>0.0</speed>
<temp>0.00</temp>
<bpm>0</bpm>
<rpm>0.00</rpm>
</extensions>
</trkpt>
<trkpt lat="30.850704193" lon="34.783397675">
<ele>480.851563</ele>
<time>2013-11-20T10:26:29Z</time>
<extensions>
<speed>0.0</speed>
<temp>0.00</temp>
<bpm>0</bpm>
<rpm>0.00</rpm>
</extensions>
</trkpt>
<trkpt lat="30.850704193" lon="34.783397675">
<ele>480.851563</ele>
<time>2013-11-20T10:26:34Z</time>
<extensions>
<speed>0.0</speed>
<temp>0.00</temp>
<bpm>0</bpm>
<rpm>0.00</rpm>
</extensions>
</trkpt>
<trkpt lat="30.850704193" lon="34.783397675">
<ele>480.859375</ele>
<time>2013-11-20T10:26:39Z</time>
<extensions>
<speed>0.0</speed>
<temp>0.00</temp>
<bpm>0</bpm>
<rpm>0.00</rpm>
</extensions>
</trkpt>
<trkpt lat="30.850704193" lon="34.783397675">
<ele>480.867188</ele>
<time>2013-11-20T10:26:44Z</time>
<extensions>
<speed>0.0</speed>
<temp>0.00</temp>
<bpm>0</bpm>
<rpm>0.00</rpm>
</extensions>
</trkpt>
<trkpt lat="30.850704193" lon="34.783397675">
<ele>480.867188</ele>
<time>2013-11-20T10:26:49Z</time>
<extensions>
<speed>0.0</speed>
<temp>0.00</temp>
<bpm>0</bpm>
<rpm>0.00</rpm>
</extensions>
</trkpt>
<trkpt lat="30.850704193" lon="34.783397675">
<ele>480.875000</ele>
<time>2013-11-20T10:26:54Z</time>
<extensions>
<speed>0.0</speed>
<temp>0.00</temp>
<bpm>0</bpm>
<rpm>0.00</rpm>
</extensions>
</trkpt>
<trkpt lat="30.850704193" lon="34.783397675">
<ele>480.898438</ele>
<time>2013-11-20T10:26:59Z</time>
<extensions>
<speed>0.0</speed>
<temp>0.00</temp>
<bpm>0</bpm>
<rpm>0.00</rpm>
</extensions>
</trkpt>
<trkpt lat="30.850704193" lon="34.783397675">
<ele>480.921875</ele>
<time>2013-11-20T10:27:04Z</time>
<extensions>
<speed>0.0</speed>
<temp>0.00</temp>
<bpm>0</bpm>
<rpm>0.00</rpm>
</extensions>
</trkpt>
<trkpt lat="30.850704193" lon="34.783397675">
<ele>480.937500</ele>
<time>2013-11-20T10:27:09Z</time>
<extensions>
<speed>0.0</speed>
<temp>0.00</temp>
<bpm>0</bpm>
<rpm>0.00</rpm>
</extensions>
</trkpt>
<trkpt lat="30.850704193" lon="34.783397675">
<ele>480.937500</ele>
<time>2013-11-20T10:27:14Z</time>
<extensions>
<speed>0.0</speed>
<temp>0.00</temp>
<bpm>0</bpm>
<rpm>0.00</rpm>
</extensions>
</trkpt>
<trkpt lat="30.850704193" lon="34.783397675">
<ele>480.945313</ele>
<time>2013-11-20T10:27:19Z</time>
<extensions>
<speed>0.0</speed>
<temp>0.00</temp>
<bpm>0</bpm>
<rpm>0.00</rpm>
</extensions>
</trkpt>
<trkpt lat="30.850702286" lon="34.783397675">
<ele>480.953125</ele>
<time>2013-11-20T10:27:24Z</time>
<extensions>
<speed>0.0</speed>
<temp>0.00</temp>
<bpm>0</bpm>
<rpm>0.00</rpm>
</extensions>
</trkpt>
<trkpt lat="30.850702286" lon="34.783397675">
<ele>480.976563</ele>
<time>2013-11-20T10:27:29Z</time>
<extensions>
<speed>0.0</speed>
<temp>0.00</temp>
<bpm>0</bpm>
<rpm>0.00</rpm>
</extensions>
</trkpt>
<trkpt lat="30.850702286" lon="34.783397675">
<ele>480.984375</ele>
<time>2013-11-20T10:27:34Z</time>
<extensions>
<speed>0.0</speed>
<temp>0.00</temp>
<bpm>0</bpm>
<rpm>0.00</rpm>
</extensions>
</trkpt>
<trkpt lat="30.850702286" lon="34.783397675">
<ele>481.000000</ele>
<time>2013-11-20T10:27:39Z</time>
<extensions>
<speed>0.0</speed>
<temp>0.00</temp>
<bpm>0</bpm>
<rpm>0.00</rpm>
</extensions>
</trkpt>
<trkpt lat="30.850704193" lon="34.783397675">
<ele>481.015625</ele>
<time>2013-11-20T10:27:44Z</time>
<extensions>
<speed>0.0</speed>
<temp>0.00</temp>
<bpm>0</bpm>
<rpm>0.00</rpm>
</extensions>
</trkpt>
<trkpt lat="30.850702286" lon="34.783397675">
<ele>481.062500</ele>
<time>2013-11-20T10:27:49Z</time>
<extensions>
<speed>0.0</speed>
<temp>0.00</temp>
<bpm>0</bpm>
<rpm>0.00</rpm>
</extensions>
</trkpt>
<trkpt lat="30.850704193" lon="34.783397675">
<ele>481.109375</ele>
<time>2013-11-20T10:27:54Z</time>
<extensions>
<speed>0.0</speed>
<temp>0.00</temp>
<bpm>0</bpm>
<rpm>0.00</rpm>
</extensions>
</trkpt>
<trkpt lat="30.850704193" lon="34.783397675">
<ele>481.148438</ele>
<time>2013-11-20T10:27:59Z</time>
<extensions>
<speed>0.0</speed>
<temp>0.00</temp>
<bpm>0</bpm>
<rpm>0.00</rpm>
</extensions>
</trkpt>
<trkpt lat="30.850704193" lon="34.783397675">
<ele>481.203125</ele>
<time>2013-11-20T10:28:04Z</time>
<extensions>
<speed>0.0</speed>
<temp>0.00</temp>
<bpm>0</bpm>
<rpm>0.00</rpm>
</extensions>
</trkpt>
<trkpt lat="30.850704193" lon="34.783397675">
<ele>481.242188</ele>
<time>2013-11-20T10:28:09Z</time>
<extensions>
<speed>0.0</speed>
<temp>0.00</temp>
<bpm>0</bpm>
<rpm>0.00</rpm>
</extensions>
</trkpt>
<trkpt lat="30.850704193" lon="34.783397675">
<ele>481.289063</ele>
<time>2013-11-20T10:28:14Z</time>
<extensions>
<speed>0.0</speed>
<temp>0.00</temp>
<bpm>0</bpm>
<rpm>0.00</rpm>
</extensions>
</trkpt>
<trkpt lat="30.850704193" lon="34.783397675">
<ele>481.328125</ele>
<time>2013-11-20T10:28:19Z</time>
<extensions>
<speed>0.0</speed>
<temp>0.00</temp>
<bpm>0</bpm>
<rpm>0.00</rpm>
</extensions>
</trkpt>
<trkpt lat="30.850704193" lon="34.783393860">
<ele>481.359375</ele>
<time>2013-11-20T10:28:24Z</time>
<extensions>
<speed>0.0</speed>
<temp>0.00</temp>
<bpm>0</bpm>
<rpm>0.00</rpm>
</extensions>
</trkpt>
<trkpt lat="30.850704193" lon="34.783393860">
<ele>481.390625</ele>
<time>2013-11-20T10:28:29Z</time>
<extensions>
<speed>0.0</speed>
<temp>0.00</temp>
<bpm>0</bpm>
<rpm>0.00</rpm>
</extensions>
</trkpt>
<trkpt lat="30.850704193" lon="34.783393860">
<ele>481.406250</ele>
<time>2013-11-20T10:28:34Z</time>
<speed>0.010000</speed>
<extensions>
<speed>0.0</speed>
<temp>0.00</temp>
<bpm>0</bpm>
<rpm>0.00</rpm>
</extensions>
</trkpt>
<trkpt lat="30.850704193" lon="34.783393860">
<ele>481.421875</ele>
<time>2013-11-20T10:28:39Z</time>
<extensions>
<speed>0.0</speed>
<temp>0.00</temp>
<bpm>0</bpm>
<rpm>0.00</rpm>
</extensions>
</trkpt>
<trkpt lat="30.850704193" lon="34.783393860">
<ele>481.421875</ele>
<time>2013-11-20T10:28:44Z</time>
<extensions>
<speed>0.0</speed>
<temp>0.00</temp>
<bpm>0</bpm>
<rpm>0.00</rpm>
</extensions>
</trkpt>
<trkpt lat="30.850704193" lon="34.783393860">
<ele>481.429688</ele>
<time>2013-11-20T10:28:49Z</time>
<extensions>
<speed>0.0</speed>
<temp>0.00</temp>
<bpm>0</bpm>
<rpm>0.00</rpm>
</extensions>
</trkpt>
<trkpt lat="30.850704193" lon="34.783393860">
<ele>481.429688</ele>
<time>2013-11-20T10:28:54Z</time>
<extensions>
<speed>0.0</speed>
<temp>0.00</temp>
<bpm>0</bpm>
<rpm>0.00</rpm>
</extensions>
</trkpt>
<trkpt lat="30.850704193" lon="34.783393860">
<ele>481.437500</ele>
<time>2013-11-20T10:28:59Z</time>
<extensions>
<speed>0.0</speed>
<temp>0.00</temp>
<bpm>0</bpm>
<rpm>0.00</rpm>
</extensions>
</trkpt>
<trkpt lat="30.850704193" lon="34.783393860">
<ele>481.445313</ele>
<time>2013-11-20T10:29:04Z</time>
<extensions>
<speed>0.0</speed>
<temp>0.00</temp>
<bpm>0</bpm>
<rpm>0.00</rpm>
</extensions>
</trkpt>
<trkpt lat="30.850704193" lon="34.783393860">
<ele>481.484375</ele>
<time>2013-11-20T10:29:09Z</time>
<speed>0.010000</speed>
<extensions>
<speed>0.0</speed>
<temp>0.00</temp>
<bpm>0</bpm>
<rpm>0.00</rpm>
</extensions>
</trkpt>
<trkpt lat="30.850704193" lon="34.783393860">
<ele>481.515625</ele>
<time>2013-11-20T10:29:14Z</time>
<speed>0.010000</speed>
<extensions>
<speed>0.0</speed>
<temp>0.00</temp>
<bpm>0</bpm>
<rpm>0.00</rpm>
</extensions>
</trkpt>
<trkpt lat="30.850704193" lon="34.783393860">
<ele>481.546875</ele>
<time>2013-11-20T10:29:19Z</time>
<speed>0.010000</speed>
<extensions>
<speed>0.0</speed>
<temp>0.00</temp>
<bpm>0</bpm>
<rpm>0.00</rpm>
</extensions>
</trkpt>
<trkpt lat="30.850702286" lon="34.783393860">
<ele>481.585938</ele>
<time>2013-11-20T10:29:24Z</time>
<speed>0.040000</speed>
<extensions>
<speed>0.0</speed>
<temp>0.00</temp>
<bpm>0</bpm>
<rpm>0.00</rpm>
</extensions>
</trkpt>
<trkpt lat="30.850702286" lon="34.783397675">
<ele>481.625000</ele>
<time>2013-11-20T10:29:29Z</time>
<extensions>
<speed>0.0</speed>
<temp>0.00</temp>
<bpm>0</bpm>
<rpm>0.00</rpm>
</extensions>
</trkpt>
<trkpt lat="30.850702286" lon="34.783397675">
<ele>481.656250</ele>
<time>2013-11-20T10:29:34Z</time>
<extensions>
<speed>0.0</speed>
<temp>0.00</temp>
<bpm>0</bpm>
<rpm>0.00</rpm>
</extensions>
</trkpt>
<trkpt lat="30.850702286" lon="34.783397675">
<ele>481.671875</ele>
<time>2013-11-20T10:29:39Z</time>
<extensions>
<speed>0.0</speed>
<temp>0.00</temp>
<bpm>0</bpm>
<rpm>0.00</rpm>
</extensions>
</trkpt>
<trkpt lat="30.850702286" lon="34.783393860">
<ele>481.679688</ele>
<time>2013-11-20T10:29:44Z</time>
<speed>0.010000</speed>
<extensions>
<speed>0.0</speed>
<temp>0.00</temp>
<bpm>0</bpm>
<rpm>0.00</rpm>
</extensions>
</trkpt>
<trkpt lat="30.850702286" lon="34.783393860">
<ele>481.703125</ele>
<time>2013-11-20T10:29:49Z</time>
<extensions>
<speed>0.0</speed>
<temp>0.00</temp>
<bpm>0</bpm>
<rpm>0.00</rpm>
</extensions>
</trkpt>
<trkpt lat="30.850702286" lon="34.783393860">
<ele>481.757813</ele>
<time>2013-11-20T10:29:54Z</time>
<extensions>
<speed>0.0</speed>
<temp>0.00</temp>
<bpm>0</bpm>
<rpm>0.00</rpm>
</extensions>
</trkpt>
<trkpt lat="30.850702286" lon="34.783397675">
<ele>481.804688</ele>
<time>2013-11-20T10:29:59Z</time>
<speed>0.010000</speed>
<extensions>
<speed>0.0</speed>
<temp>0.00</temp>
<bpm>0</bpm>
<rpm>0.00</rpm>
</extensions>
</trkpt>
<trkpt lat="30.850702286" lon="34.783397675">
<ele>481.898438</ele>
<time>2013-11-20T10:30:04Z</time>
<extensions>
<speed>0.0</speed>
<temp>0.00</temp>
<bpm>0</bpm>
<rpm>0.00</rpm>
</extensions>
</trkpt>
<trkpt lat="30.850702286" lon="34.783397675">
<ele>481.968750</ele>
<time>2013-11-20T10:30:09Z</time>
<extensions>
<speed>0.0</speed>
<temp>0.00</temp>
<bpm>0</bpm>
<rpm>0.00</rpm>
</extensions>
</trkpt>
<trkpt lat="30.850702286" lon="34.783397675">
<ele>482.007813</ele>
<time>2013-11-20T10:30:14Z</time>
<extensions>
<speed>0.0</speed>
<temp>0.00</temp>
<bpm>0</bpm>
<rpm>0.00</rpm>
</extensions>
</trkpt>
<trkpt lat="30.850704193" lon="34.783397675">
<ele>482.054688</ele>
<time>2013-11-20T10:30:19Z</time>
<speed>0.010000</speed>
<extensions>
<speed>0.0</speed>
<temp>0.00</temp>
<bpm>0</bpm>
<rpm>0.00</rpm>
</extensions>
</trkpt>
<trkpt lat="30.850704193" lon="34.783397675">
<ele>482.085938</ele>
<time>2013-11-20T10:30:24Z</time>
<extensions>
<speed>0.0</speed>
<temp>0.00</temp>
<bpm>0</bpm>
<rpm>0.00</rpm>
</extensions>
</trkpt>
<trkpt lat="30.850704193" lon="34.783393860">
<ele>482.078125</ele>
<time>2013-11-20T10:30:29Z</time>
<extensions>
<speed>0.0</speed>
<temp>0.00</temp>
<bpm>0</bpm>
<rpm>0.00</rpm>
</extensions>
</trkpt>
<trkpt lat="30.850706100" lon="34.783393860">
<ele>482.070313</ele>
<time>2013-11-20T10:30:34Z</time>
<extensions>
<speed>0.0</speed>
<temp>0.00</temp>
<bpm>0</bpm>
<rpm>0.00</rpm>
</extensions>
</trkpt>
<trkpt lat="30.850706100" lon="34.783393860">
<ele>482.062500</ele>
<time>2013-11-20T10:30:39Z</time>
<extensions>
<speed>0.0</speed>
<temp>0.00</temp>
<bpm>0</bpm>
<rpm>0.00</rpm>
</extensions>
</trkpt>
<trkpt lat="30.850706100" lon="34.783393860">
<ele>482.031250</ele>
<time>2013-11-20T10:30:44Z</time>
<speed>0.010000</speed>
<extensions>
<speed>0.0</speed>
<temp>0.00</temp>
<bpm>0</bpm>
<rpm>0.00</rpm>
</extensions>
</trkpt>
<trkpt lat="30.850706100" lon="34.783393860">
<ele>481.992188</ele>
<time>2013-11-20T10:30:49Z</time>
<speed>0.010000</speed>
<extensions>
<speed>0.0</speed>
<temp>0.00</temp>
<bpm>0</bpm>
<rpm>0.00</rpm>
</extensions>
</trkpt>
<trkpt lat="30.850706100" lon="34.783393860">
<ele>481.953125</ele>
<time>2013-11-20T10:30:54Z</time>
<speed>0.010000</speed>
<extensions>
<speed>0.0</speed>
<temp>0.00</temp>
<bpm>0</bpm>
<rpm>0.00</rpm>
</extensions>
</trkpt>
<trkpt lat="30.850708008" lon="34.783393860">
<ele>481.921875</ele>
<time>2013-11-20T10:30:59Z</time>
<extensions>
<speed>0.0</speed>
<temp>0.00</temp>
<bpm>0</bpm>
<rpm>0.00</rpm>
</extensions>
</trkpt>
<trkpt lat="30.850708008" lon="34.783393860">
<ele>481.882813</ele>
<time>2013-11-20T10:31:04Z</time>
<speed>0.010000</speed>
<extensions>
<speed>0.0</speed>
<temp>0.00</temp>
<bpm>0</bpm>
<rpm>0.00</rpm>
</extensions>
</trkpt>
<trkpt lat="30.850708008" lon="34.783390045">
<ele>481.820313</ele>
<time>2013-11-20T10:31:09Z</time>
<extensions>
<speed>0.0</speed>
<temp>0.00</temp>
<bpm>0</bpm>
<rpm>0.00</rpm>
</extensions>
</trkpt>
<trkpt lat="30.850708008" lon="34.783390045">
<ele>481.773438</ele>
<time>2013-11-20T10:31:14Z</time>
<extensions>
<speed>0.0</speed>
<temp>0.00</temp>
<bpm>0</bpm>
<rpm>0.00</rpm>
</extensions>
</trkpt>
<trkpt lat="30.850708008" lon="34.783390045">
<ele>481.742188</ele>
<time>2013-11-20T10:31:19Z</time>
<speed>0.010000</speed>
<extensions>
<speed>0.0</speed>
<temp>0.00</temp>
<bpm>0</bpm>
<rpm>0.00</rpm>
</extensions>
</trkpt>
<trkpt lat="30.850708008" lon="34.783390045">
<ele>481.687500</ele>
<time>2013-11-20T10:31:24Z</time>
<speed>0.010000</speed>
<extensions>
<speed>0.0</speed>
<temp>0.00</temp>
<bpm>0</bpm>
<rpm>0.00</rpm>
</extensions>
</trkpt>
<trkpt lat="30.850706100" lon="34.783390045">
<ele>481.664063</ele>
<time>2013-11-20T10:31:29Z</time>
<extensions>
<speed>0.0</speed>
<temp>0.00</temp>
<bpm>0</bpm>
<rpm>0.00</rpm>
</extensions>
</trkpt>
<trkpt lat="30.850706100" lon="34.783390045">
<ele>481.625000</ele>
<time>2013-11-20T10:31:34Z</time>
<extensions>
<speed>0.0</speed>
<temp>0.00</temp>
<bpm>0</bpm>
<rpm>0.00</rpm>
</extensions>
</trkpt>
<trkpt lat="30.850706100" lon="34.783390045">
<ele>481.609375</ele>
<time>2013-11-20T10:31:39Z</time>
<extensions>
<speed>0.0</speed>
<temp>0.00</temp>
<bpm>0</bpm>
<rpm>0.00</rpm>
</extensions>
</trkpt>
<trkpt lat="30.850706100" lon="34.783386230">
<ele>481.570313</ele>
<time>2013-11-20T10:31:44Z</time>
<extensions>
<speed>0.0</speed>
<temp>0.00</temp>
<bpm>0</bpm>
<rpm>0.00</rpm>
</extensions>
</trkpt>
<trkpt lat="30.850706100" lon="34.783386230">
<ele>481.554688</ele>
<time>2013-11-20T10:31:49Z</time>
<extensions>
<speed>0.0</speed>
<temp>0.00</temp>
<bpm>0</bpm>
<rpm>0.00</rpm>
</extensions>
</trkpt>
<trkpt lat="30.850706100" lon="34.783386230">
<ele>481.515625</ele>
<time>2013-11-20T10:31:54Z</time>
<speed>0.020000</speed>
<extensions>
<speed>0.0</speed>
<temp>0.00</temp>
<bpm>0</bpm>
<rpm>0.00</rpm>
</extensions>
</trkpt>
<trkpt lat="30.850706100" lon="34.783386230">
<ele>481.500000</ele>
<time>2013-11-20T10:31:59Z</time>
<extensions>
<speed>0.0</speed>
<temp>0.00</temp>
<bpm>0</bpm>
<rpm>0.00</rpm>
</extensions>
</trkpt>
<trkpt lat="30.850706100" lon="34.783386230">
<ele>481.507813</ele>
<time>2013-11-20T10:32:04Z</time>
<extensions>
<speed>0.0</speed>
<temp>0.00</temp>
<bpm>0</bpm>
<rpm>0.00</rpm>
</extensions>
</trkpt>
<trkpt lat="30.850706100" lon="34.783386230">
<ele>481.492188</ele>
<time>2013-11-20T10:32:09Z</time>
<extensions>
<speed>0.0</speed>
<temp>0.00</temp>
<bpm>0</bpm>
<rpm>0.00</rpm>
</extensions>
</trkpt>
<trkpt lat="30.850706100" lon="34.783386230">
<ele>481.460938</ele>
<time>2013-11-20T10:32:14Z</time>
<extensions>
<speed>0.0</speed>
<temp>0.00</temp>
<bpm>0</bpm>
<rpm>0.00</rpm>
</extensions>
</trkpt>
<trkpt lat="30.850706100" lon="34.783386230">
<ele>481.429688</ele>
<time>2013-11-20T10:32:19Z</time>
<extensions>
<speed>0.0</speed>
<temp>0.00</temp>
<bpm>0</bpm>
<rpm>0.00</rpm>
</extensions>
</trkpt>
<trkpt lat="30.850706100" lon="34.783386230">
<ele>481.421875</ele>
<time>2013-11-20T10:32:24Z</time>
<extensions>
<speed>0.0</speed>
<temp>0.00</temp>
<bpm>0</bpm>
<rpm>0.00</rpm>
</extensions>
</trkpt>
<trkpt lat="30.850708008" lon="34.783386230">
<ele>481.414063</ele>
<time>2013-11-20T10:32:29Z</time>
<extensions>
<speed>0.0</speed>
<temp>0.00</temp>
<bpm>0</bpm>
<rpm>0.00</rpm>
</extensions>
</trkpt>
<trkpt lat="30.850708008" lon="34.783382416">
<ele>481.406250</ele>
<time>2013-11-20T10:32:34Z</time>
<extensions>
<speed>0.0</speed>
<temp>0.00</temp>
<bpm>0</bpm>
<rpm>0.00</rpm>
</extensions>
</trkpt>
<trkpt lat="30.850708008" lon="34.783382416">
<ele>481.398438</ele>
<time>2013-11-20T10:32:39Z</time>
<extensions>
<speed>0.0</speed>
<temp>0.00</temp>
<bpm>0</bpm>
<rpm>0.00</rpm>
</extensions>
</trkpt>
<trkpt lat="30.850708008" lon="34.783382416">
<ele>481.390625</ele>
<time>2013-11-20T10:32:44Z</time>
<speed>0.010000</speed>
<extensions>
<speed>0.0</speed>
<temp>0.00</temp>
<bpm>0</bpm>
<rpm>0.00</rpm>
</extensions>
</trkpt>
<trkpt lat="30.850708008" lon="34.783382416">
<ele>481.382813</ele>
<time>2013-11-20T10:32:49Z</time>
<speed>0.020000</speed>
<extensions>
<speed>0.0</speed>
<temp>0.00</temp>
<bpm>0</bpm>
<rpm>0.00</rpm>
</extensions>
</trkpt>
<trkpt lat="30.850708008" lon="34.783382416">
<ele>481.390625</ele>
<time>2013-11-20T10:32:54Z</time>
<extensions>
<speed>0.0</speed>
<temp>0.00</temp>
<bpm>0</bpm>
<rpm>0.00</rpm>
</extensions>
</trkpt>
<trkpt lat="30.850708008" lon="34.783382416">
<ele>481.382813</ele>
<time>2013-11-20T10:32:59Z</time>
<extensions>
<speed>0.0</speed>
<temp>0.00</temp>
<bpm>0</bpm>
<rpm>0.00</rpm>
</extensions>
</trkpt>
<trkpt lat="30.850708008" lon="34.783382416">
<ele>481.375000</ele>
<time>2013-11-20T10:33:04Z</time>
<extensions>
<speed>0.0</speed>
<temp>0.00</temp>
<bpm>0</bpm>
<rpm>0.00</rpm>
</extensions>
</trkpt>
<trkpt lat="30.850708008" lon="34.783382416">
<ele>481.375000</ele>
<time>2013-11-20T10:33:09Z</time>
<extensions>
<speed>0.0</speed>
<temp>0.00</temp>
<bpm>0</bpm>
<rpm>0.00</rpm>
</extensions>
</trkpt>
<trkpt lat="30.850708008" lon="34.783382416">
<ele>481.367188</ele>
<time>2013-11-20T10:33:14Z</time>
<extensions>
<speed>0.0</speed>
<temp>0.00</temp>
<bpm>0</bpm>
<rpm>0.00</rpm>
</extensions>
</trkpt>
<trkpt lat="30.850708008" lon="34.783382416">
<ele>481.335938</ele>
<time>2013-11-20T10:33:19Z</time>
<extensions>
<speed>0.0</speed>
<temp>0.00</temp>
<bpm>0</bpm>
<rpm>0.00</rpm>
</extensions>
</trkpt>
<trkpt lat="30.850708008" lon="34.783382416">
<ele>481.312500</ele>
<time>2013-11-20T10:33:24Z</time>
<extensions>
<speed>0.0</speed>
<temp>0.00</temp>
<bpm>0</bpm>
<rpm>0.00</rpm>
</extensions>
</trkpt>
<trkpt lat="30.850709915" lon="34.783378601">
<ele>481.296875</ele>
<time>2013-11-20T10:33:29Z</time>
<speed>0.010000</speed>
<extensions>
<speed>0.0</speed>
<temp>0.00</temp>
<bpm>0</bpm>
<rpm>0.00</rpm>
</extensions>
</trkpt>
<trkpt lat="30.850709915" lon="34.783378601">
<ele>481.289063</ele>
<time>2013-11-20T10:33:34Z</time>
<extensions>
<speed>0.0</speed>
<temp>0.00</temp>
<bpm>0</bpm>
<rpm>0.00</rpm>
</extensions>
</trkpt>
<trkpt lat="30.850709915" lon="34.783378601">
<ele>481.257813</ele>
<time>2013-11-20T10:33:39Z</time>
<extensions>
<speed>0.0</speed>
<temp>0.00</temp>
<bpm>0</bpm>
<rpm>0.00</rpm>
</extensions>
</trkpt>
<trkpt lat="30.850709915" lon="34.783378601">
<ele>481.234375</ele>
<time>2013-11-20T10:33:44Z</time>
<speed>0.010000</speed>
<extensions>
<speed>0.0</speed>
<temp>0.00</temp>
<bpm>0</bpm>
<rpm>0.00</rpm>
</extensions>
</trkpt>
<trkpt lat="30.850709915" lon="34.783378601">
<ele>481.195313</ele>
<time>2013-11-20T10:33:49Z</time>
<extensions>
<speed>0.0</speed>
<temp>0.00</temp>
<bpm>0</bpm>
<rpm>0.00</rpm>
</extensions>
</trkpt>
<trkpt lat="30.850709915" lon="34.783378601">
<ele>481.164063</ele>
<time>2013-11-20T10:33:54Z</time>
<extensions>
<speed>0.0</speed>
<temp>0.00</temp>
<bpm>0</bpm>
<rpm>0.00</rpm>
</extensions>
</trkpt>
<trkpt lat="30.850709915" lon="34.783378601">
<ele>481.117188</ele>
<time>2013-11-20T10:33:59Z</time>
<extensions>
<speed>0.0</speed>
<temp>0.00</temp>
<bpm>0</bpm>
<rpm>0.00</rpm>
</extensions>
</trkpt>
<trkpt lat="30.850709915" lon="34.783374786">
<ele>481.070313</ele>
<time>2013-11-20T10:34:04Z</time>
<extensions>
<speed>0.0</speed>
<temp>0.00</temp>
<bpm>0</bpm>
<rpm>0.00</rpm>
</extensions>
</trkpt>
<trkpt lat="30.850709915" lon="34.783374786">
<ele>481.023438</ele>
<time>2013-11-20T10:34:09Z</time>
<extensions>
<speed>0.0</speed>
<temp>0.00</temp>
<bpm>0</bpm>
<rpm>0.00</rpm>
</extensions>
</trkpt>
<trkpt lat="30.850709915" lon="34.783374786">
<ele>480.984375</ele>
<time>2013-11-20T10:34:14Z</time>
<speed>0.010000</speed>
<extensions>
<speed>0.0</speed>
<temp>0.00</temp>
<bpm>0</bpm>
<rpm>0.00</rpm>
</extensions>
</trkpt>
<trkpt lat="30.850709915" lon="34.783374786">
<ele>480.937500</ele>
<time>2013-11-20T10:34:19Z</time>
<speed>0.010000</speed>
<extensions>
<speed>0.0</speed>
<temp>0.00</temp>
<bpm>0</bpm>
<rpm>0.00</rpm>
</extensions>
</trkpt>
<trkpt lat="30.850709915" lon="34.783374786">
<ele>480.914063</ele>
<time>2013-11-20T10:34:24Z</time>
<extensions>
<speed>0.0</speed>
<temp>0.00</temp>
<bpm>0</bpm>
<rpm>0.00</rpm>
</extensions>
</trkpt>
<trkpt lat="30.850709915" lon="34.783374786">
<ele>480.890625</ele>
<time>2013-11-20T10:34:29Z</time>
<extensions>
<speed>0.0</speed>
<temp>0.00</temp>
<bpm>0</bpm>
<rpm>0.00</rpm>
</extensions>
</trkpt>
<trkpt lat="30.850709915" lon="34.783374786">
<ele>480.882813</ele>
<time>2013-11-20T10:34:34Z</time>
<extensions>
<speed>0.0</speed>
<temp>0.00</temp>
<bpm>0</bpm>
<rpm>0.00</rpm>
</extensions>
</trkpt>
<trkpt lat="30.850709915" lon="34.783374786">
<ele>480.875000</ele>
<time>2013-11-20T10:34:39Z</time>
<speed>0.010000</speed>
<extensions>
<speed>0.0</speed>
<temp>0.00</temp>
<bpm>0</bpm>
<rpm>0.00</rpm>
</extensions>
</trkpt>
<trkpt lat="30.850709915" lon="34.783374786">
<ele>480.882813</ele>
<time>2013-11-20T10:34:44Z</time>
<speed>0.010000</speed>
<extensions>
<speed>0.0</speed>
<temp>0.00</temp>
<bpm>0</bpm>
<rpm>0.00</rpm>
</extensions>
</trkpt>
<trkpt lat="30.850711823" lon="34.783374786">
<ele>480.898438</ele>
<time>2013-11-20T10:34:49Z</time>
<speed>0.020000</speed>
<extensions>
<speed>0.0</speed>
<temp>0.00</temp>
<bpm>0</bpm>
<rpm>0.00</rpm>
</extensions>
</trkpt>
<trkpt lat="30.850711823" lon="34.783374786">
<ele>480.953125</ele>
<time>2013-11-20T10:34:54Z</time>
<speed>0.010000</speed>
<extensions>
<speed>0.0</speed>
<temp>0.00</temp>
<bpm>0</bpm>
<rpm>0.00</rpm>
</extensions>
</trkpt>
<trkpt lat="30.850711823" lon="34.783370972">
<ele>480.984375</ele>
<time>2013-11-20T10:34:59Z</time>
<speed>0.020000</speed>
<extensions>
<speed>0.0</speed>
<temp>0.00</temp>
<bpm>0</bpm>
<rpm>0.00</rpm>
</extensions>
</trkpt>
<trkpt lat="30.850711823" lon="34.783370972">
<ele>481.031250</ele>
<time>2013-11-20T10:35:04Z</time>
<speed>0.010000</speed>
<extensions>
<speed>0.0</speed>
<temp>0.00</temp>
<bpm>0</bpm>
<rpm>0.00</rpm>
</extensions>
</trkpt>
<trkpt lat="30.850713730" lon="34.783370972">
<ele>481.101563</ele>
<time>2013-11-20T10:35:09Z</time>
<speed>0.020000</speed>
<extensions>
<speed>0.0</speed>
<temp>0.00</temp>
<bpm>0</bpm>
<rpm>0.00</rpm>
</extensions>
</trkpt>
<trkpt lat="30.850713730" lon="34.783370972">
<ele>481.156250</ele>
<time>2013-11-20T10:35:14Z</time>
<speed>0.020000</speed>
<extensions>
<speed>0.0</speed>
<temp>0.00</temp>
<bpm>0</bpm>
<rpm>0.00</rpm>
</extensions>
</trkpt>
<trkpt lat="30.850713730" lon="34.783370972">
<ele>481.195313</ele>
<time>2013-11-20T10:35:19Z</time>
<extensions>
<speed>0.0</speed>
<temp>0.00</temp>
<bpm>0</bpm>
<rpm>0.00</rpm>
</extensions>
</trkpt>
<trkpt lat="30.850715637" lon="34.783370972">
<ele>481.242188</ele>
<time>2013-11-20T10:35:24Z</time>
<extensions>
<speed>0.0</speed>
<temp>0.00</temp>
<bpm>0</bpm>
<rpm>0.00</rpm>
</extensions>
</trkpt>
<trkpt lat="30.850715637" lon="34.783370972">
<ele>481.281250</ele>
<time>2013-11-20T10:35:29Z</time>
<speed>0.010000</speed>
<extensions>
<speed>0.0</speed>
<temp>0.00</temp>
<bpm>0</bpm>
<rpm>0.00</rpm>
</extensions>
</trkpt>
<trkpt lat="30.850715637" lon="34.783370972">
<ele>481.289063</ele>
<time>2013-11-20T10:35:34Z</time>
<extensions>
<speed>0.0</speed>
<temp>0.00</temp>
<bpm>0</bpm>
<rpm>0.00</rpm>
</extensions>
</trkpt>
<trkpt lat="30.850715637" lon="34.783370972">
<ele>481.296875</ele>
<time>2013-11-20T10:35:39Z</time>
<extensions>
<speed>0.0</speed>
<temp>0.00</temp>
<bpm>0</bpm>
<rpm>0.00</rpm>
</extensions>
</trkpt>
<trkpt lat="30.850715637" lon="34.783370972">
<ele>481.281250</ele>
<time>2013-11-20T10:35:44Z</time>
<extensions>
<speed>0.0</speed>
<temp>0.00</temp>
<bpm>0</bpm>
<rpm>0.00</rpm>
</extensions>
</trkpt>
<trkpt lat="30.850715637" lon="34.783370972">
<ele>481.273438</ele>
<time>2013-11-20T10:35:49Z</time>
<extensions>
<speed>0.0</speed>
<temp>0.00</temp>
<bpm>0</bpm>
<rpm>0.00</rpm>
</extensions>
</trkpt>
<trkpt lat="30.850717545" lon="34.783370972">
<ele>481.257813</ele>
<time>2013-11-20T10:35:54Z</time>
<extensions>
<speed>0.0</speed>
<temp>0.00</temp>
<bpm>0</bpm>
<rpm>0.00</rpm>
</extensions>
</trkpt>
<trkpt lat="30.850717545" lon="34.783370972">
<ele>481.226563</ele>
<time>2013-11-20T10:35:59Z</time>
<extensions>
<speed>0.0</speed>
<temp>0.00</temp>
<bpm>0</bpm>
<rpm>0.00</rpm>
</extensions>
</trkpt>
<trkpt lat="30.850715637" lon="34.783370972">
<ele>481.195313</ele>
<time>2013-11-20T10:36:04Z</time>
<extensions>
<speed>0.0</speed>
<temp>0.00</temp>
<bpm>0</bpm>
<rpm>0.00</rpm>
</extensions>
</trkpt>
<trkpt lat="30.850715637" lon="34.783370972">
<ele>481.164063</ele>
<time>2013-11-20T10:36:09Z</time>
<extensions>
<speed>0.0</speed>
<temp>0.00</temp>
<bpm>0</bpm>
<rpm>0.00</rpm>
</extensions>
</trkpt>
<trkpt lat="30.850715637" lon="34.783370972">
<ele>481.140625</ele>
<time>2013-11-20T10:36:14Z</time>
<extensions>
<speed>0.0</speed>
<temp>0.00</temp>
<bpm>0</bpm>
<rpm>0.00</rpm>
</extensions>
</trkpt>
<trkpt lat="30.850715637" lon="34.783370972">
<ele>481.101563</ele>
<time>2013-11-20T10:36:19Z</time>
<extensions>
<speed>0.0</speed>
<temp>0.00</temp>
<bpm>0</bpm>
<rpm>0.00</rpm>
</extensions>
</trkpt>
<trkpt lat="30.850715637" lon="34.783370972">
<ele>481.054688</ele>
<time>2013-11-20T10:36:24Z</time>
<extensions>
<speed>0.0</speed>
<temp>0.00</temp>
<bpm>0</bpm>
<rpm>0.00</rpm>
</extensions>
</trkpt>
<trkpt lat="30.850715637" lon="34.783370972">
<ele>481.000000</ele>
<time>2013-11-20T10:36:29Z</time>
<extensions>
<speed>0.0</speed>
<temp>0.00</temp>
<bpm>0</bpm>
<rpm>0.00</rpm>
</extensions>
</trkpt>
<trkpt lat="30.850715637" lon="34.783370972">
<ele>480.929688</ele>
<time>2013-11-20T10:36:34Z</time>
<extensions>
<speed>0.0</speed>
<temp>0.00</temp>
<bpm>0</bpm>
<rpm>0.00</rpm>
</extensions>
</trkpt>
<trkpt lat="30.850715637" lon="34.783370972">
<ele>480.867188</ele>
<time>2013-11-20T10:36:39Z</time>
<extensions>
<speed>0.0</speed>
<temp>0.00</temp>
<bpm>0</bpm>
<rpm>0.00</rpm>
</extensions>
</trkpt>
<trkpt lat="30.850715637" lon="34.783370972">
<ele>480.820313</ele>
<time>2013-11-20T10:36:44Z</time>
<extensions>
<speed>0.0</speed>
<temp>0.00</temp>
<bpm>0</bpm>
<rpm>0.00</rpm>
</extensions>
</trkpt>
<trkpt lat="30.850715637" lon="34.783370972">
<ele>480.765625</ele>
<time>2013-11-20T10:36:49Z</time>
<extensions>
<speed>0.0</speed>
<temp>0.00</temp>
<bpm>0</bpm>
<rpm>0.00</rpm>
</extensions>
</trkpt>
<trkpt lat="30.850715637" lon="34.783370972">
<ele>480.718750</ele>
<time>2013-11-20T10:36:54Z</time>
<extensions>
<speed>0.0</speed>
<temp>0.00</temp>
<bpm>0</bpm>
<rpm>0.00</rpm>
</extensions>
</trkpt>
<trkpt lat="30.850715637" lon="34.783370972">
<ele>480.664063</ele>
<time>2013-11-20T10:36:59Z</time>
<extensions>
<speed>0.0</speed>
<temp>0.00</temp>
<bpm>0</bpm>
<rpm>0.00</rpm>
</extensions>
</trkpt>
<trkpt lat="30.850715637" lon="34.783370972">
<ele>480.593750</ele>
<time>2013-11-20T10:37:04Z</time>
<extensions>
<speed>0.0</speed>
<temp>0.00</temp>
<bpm>0</bpm>
<rpm>0.00</rpm>
</extensions>
</trkpt>
<trkpt lat="30.850715637" lon="34.783370972">
<ele>480.539063</ele>
<time>2013-11-20T10:37:09Z</time>
<speed>0.010000</speed>
<extensions>
<speed>0.0</speed>
<temp>0.00</temp>
<bpm>0</bpm>
<rpm>0.00</rpm>
</extensions>
</trkpt>
<trkpt lat="30.850715637" lon="34.783370972">
<ele>480.492188</ele>
<time>2013-11-20T10:37:14Z</time>
<extensions>
<speed>0.0</speed>
<temp>0.00</temp>
<bpm>0</bpm>
<rpm>0.00</rpm>
</extensions>
</trkpt>
<trkpt lat="30.850715637" lon="34.783370972">
<ele>480.445313</ele>
<time>2013-11-20T10:37:19Z</time>
<extensions>
<speed>0.0</speed>
<temp>0.00</temp>
<bpm>0</bpm>
<rpm>0.00</rpm>
</extensions>
</trkpt>
<trkpt lat="30.850715637" lon="34.783370972">
<ele>480.398438</ele>
<time>2013-11-20T10:37:24Z</time>
<extensions>
<speed>0.0</speed>
<temp>0.00</temp>
<bpm>0</bpm>
<rpm>0.00</rpm>
</extensions>
</trkpt>
<trkpt lat="30.850715637" lon="34.783370972">
<ele>480.359375</ele>
<time>2013-11-20T10:37:29Z</time>
<extensions>
<speed>0.0</speed>
<temp>0.00</temp>
<bpm>0</bpm>
<rpm>0.00</rpm>
</extensions>
</trkpt>
<trkpt lat="30.850713730" lon="34.783370972">
<ele>480.335938</ele>
<time>2013-11-20T10:37:34Z</time>
<extensions>
<speed>0.0</speed>
<temp>0.00</temp>
<bpm>0</bpm>
<rpm>0.00</rpm>
</extensions>
</trkpt>
<trkpt lat="30.850713730" lon="34.783370972">
<ele>480.320313</ele>
<time>2013-11-20T10:37:39Z</time>
<extensions>
<speed>0.0</speed>
<temp>0.00</temp>
<bpm>0</bpm>
<rpm>0.00</rpm>
</extensions>
</trkpt>
<trkpt lat="30.850713730" lon="34.783370972">
<ele>480.296875</ele>
<time>2013-11-20T10:37:44Z</time>
<extensions>
<speed>0.0</speed>
<temp>0.00</temp>
<bpm>0</bpm>
<rpm>0.00</rpm>
</extensions>
</trkpt>
<trkpt lat="30.850713730" lon="34.783370972">
<ele>480.289063</ele>
<time>2013-11-20T10:37:49Z</time>
<extensions>
<speed>0.0</speed>
<temp>0.00</temp>
<bpm>0</bpm>
<rpm>0.00</rpm>
</extensions>
</trkpt>
<trkpt lat="30.850713730" lon="34.783370972">
<ele>480.273438</ele>
<time>2013-11-20T10:37:54Z</time>
<extensions>
<speed>0.0</speed>
<temp>0.00</temp>
<bpm>0</bpm>
<rpm>0.00</rpm>
</extensions>
</trkpt>
<trkpt lat="30.850713730" lon="34.783370972">
<ele>480.273438</ele>
<time>2013-11-20T10:37:59Z</time>
<extensions>
<speed>0.0</speed>
<temp>0.00</temp>
<bpm>0</bpm>
<rpm>0.00</rpm>
</extensions>
</trkpt>
<trkpt lat="30.850713730" lon="34.783370972">
<ele>480.265625</ele>
<time>2013-11-20T10:38:04Z</time>
<speed>0.010000</speed>
<extensions>
<speed>0.0</speed>
<temp>0.00</temp>
<bpm>0</bpm>
<rpm>0.00</rpm>
</extensions>
</trkpt>
<trkpt lat="30.850713730" lon="34.783370972">
<ele>480.250000</ele>
<time>2013-11-20T10:38:09Z</time>
<extensions>
<speed>0.0</speed>
<temp>0.00</temp>
<bpm>0</bpm>
<rpm>0.00</rpm>
</extensions>
</trkpt>
<trkpt lat="30.850713730" lon="34.783370972">
<ele>480.242188</ele>
<time>2013-11-20T10:38:14Z</time>
<extensions>
<speed>0.0</speed>
<temp>0.00</temp>
<bpm>0</bpm>
<rpm>0.00</rpm>
</extensions>
</trkpt>
<trkpt lat="30.850713730" lon="34.783370972">
<ele>480.226563</ele>
<time>2013-11-20T10:38:19Z</time>
<extensions>
<speed>0.0</speed>
<temp>0.00</temp>
<bpm>0</bpm>
<rpm>0.00</rpm>
</extensions>
</trkpt>
<trkpt lat="30.850711823" lon="34.783370972">
<ele>480.195313</ele>
<time>2013-11-20T10:38:24Z</time>
<extensions>
<speed>0.0</speed>
<temp>0.00</temp>
<bpm>0</bpm>
<rpm>0.00</rpm>
</extensions>
</trkpt>
<trkpt lat="30.850711823" lon="34.783370972">
<ele>480.171875</ele>
<time>2013-11-20T10:38:29Z</time>
<extensions>
<speed>0.0</speed>
<temp>0.00</temp>
<bpm>0</bpm>
<rpm>0.00</rpm>
</extensions>
</trkpt>
<trkpt lat="30.850711823" lon="34.783370972">
<ele>480.171875</ele>
<time>2013-11-20T10:38:34Z</time>
<extensions>
<speed>0.0</speed>
<temp>0.00</temp>
<bpm>0</bpm>
<rpm>0.00</rpm>
</extensions>
</trkpt>
<trkpt lat="30.850711823" lon="34.783370972">
<ele>480.148438</ele>
<time>2013-11-20T10:38:39Z</time>
<speed>0.010000</speed>
<extensions>
<speed>0.0</speed>
<temp>0.00</temp>
<bpm>0</bpm>
<rpm>0.00</rpm>
</extensions>
</trkpt>
<trkpt lat="30.850711823" lon="34.783370972">
<ele>480.125000</ele>
<time>2013-11-20T10:38:44Z</time>
<extensions>
<speed>0.0</speed>
<temp>0.00</temp>
<bpm>0</bpm>
<rpm>0.00</rpm>
</extensions>
</trkpt>
<trkpt lat="30.850709915" lon="34.783370972">
<ele>480.093750</ele>
<time>2013-11-20T10:38:49Z</time>
<speed>0.010000</speed>
<extensions>
<speed>0.0</speed>
<temp>0.00</temp>
<bpm>0</bpm>
<rpm>0.00</rpm>
</extensions>
</trkpt>
<trkpt lat="30.850709915" lon="34.783370972">
<ele>480.054688</ele>
<time>2013-11-20T10:38:54Z</time>
<extensions>
<speed>0.0</speed>
<temp>0.00</temp>
<bpm>0</bpm>
<rpm>0.00</rpm>
</extensions>
</trkpt>
<trkpt lat="30.850709915" lon="34.783370972">
<ele>480.023438</ele>
<time>2013-11-20T10:38:59Z</time>
<extensions>
<speed>0.0</speed>
<temp>0.00</temp>
<bpm>0</bpm>
<rpm>0.00</rpm>
</extensions>
</trkpt>
<trkpt lat="30.850709915" lon="34.783370972">
<ele>480.000000</ele>
<time>2013-11-20T10:39:04Z</time>
<extensions>
<speed>0.0</speed>
<temp>0.00</temp>
<bpm>0</bpm>
<rpm>0.00</rpm>
</extensions>
</trkpt>
<trkpt lat="30.850708008" lon="34.783370972">
<ele>479.968750</ele>
<time>2013-11-20T10:39:09Z</time>
<speed>0.010000</speed>
<extensions>
<speed>0.0</speed>
<temp>0.00</temp>
<bpm>0</bpm>
<rpm>0.00</rpm>
</extensions>
</trkpt>
<trkpt lat="30.850708008" lon="34.783370972">
<ele>479.937500</ele>
<time>2013-11-20T10:39:14Z</time>
<extensions>
<speed>0.0</speed>
<temp>0.00</temp>
<bpm>0</bpm>
<rpm>0.00</rpm>
</extensions>
</trkpt>
<trkpt lat="30.850708008" lon="34.783370972">
<ele>479.898438</ele>
<time>2013-11-20T10:39:19Z</time>
<extensions>
<speed>0.0</speed>
<temp>0.00</temp>
<bpm>0</bpm>
<rpm>0.00</rpm>
</extensions>
</trkpt>
<trkpt lat="30.850708008" lon="34.783370972">
<ele>479.859375</ele>
<time>2013-11-20T10:39:24Z</time>
<extensions>
<speed>0.0</speed>
<temp>0.00</temp>
<bpm>0</bpm>
<rpm>0.00</rpm>
</extensions>
</trkpt>
<trkpt lat="30.850708008" lon="34.783370972">
<ele>479.843750</ele>
<time>2013-11-20T10:39:29Z</time>
<extensions>
<speed>0.0</speed>
<temp>0.00</temp>
<bpm>0</bpm>
<rpm>0.00</rpm>
</extensions>
</trkpt>
<trkpt lat="30.850706100" lon="34.783370972">
<ele>479.812500</ele>
<time>2013-11-20T10:39:34Z</time>
<extensions>
<speed>0.0</speed>
<temp>0.00</temp>
<bpm>0</bpm>
<rpm>0.00</rpm>
</extensions>
</trkpt>
<trkpt lat="30.850706100" lon="34.783370972">
<ele>479.804688</ele>
<time>2013-11-20T10:39:39Z</time>
<speed>0.010000</speed>
<extensions>
<speed>0.0</speed>
<temp>0.00</temp>
<bpm>0</bpm>
<rpm>0.00</rpm>
</extensions>
</trkpt>
<trkpt lat="30.850706100" lon="34.783370972">
<ele>479.796875</ele>
<time>2013-11-20T10:39:44Z</time>
<speed>0.010000</speed>
<extensions>
<speed>0.0</speed>
<temp>0.00</temp>
<bpm>0</bpm>
<rpm>0.00</rpm>
</extensions>
</trkpt>
<trkpt lat="30.850706100" lon="34.783370972">
<ele>479.812500</ele>
<time>2013-11-20T10:39:49Z</time>
<extensions>
<speed>0.0</speed>
<temp>0.00</temp>
<bpm>0</bpm>
<rpm>0.00</rpm>
</extensions>
</trkpt>
<trkpt lat="30.850706100" lon="34.783370972">
<ele>479.812500</ele>
<time>2013-11-20T10:39:54Z</time>
<extensions>
<speed>0.0</speed>
<temp>0.00</temp>
<bpm>0</bpm>
<rpm>0.00</rpm>
</extensions>
</trkpt>
<trkpt lat="30.850704193" lon="34.783370972">
<ele>479.812500</ele>
<time>2013-11-20T10:39:59Z</time>
<extensions>
<speed>0.0</speed>
<temp>0.00</temp>
<bpm>0</bpm>
<rpm>0.00</rpm>
</extensions>
</trkpt>
<trkpt lat="30.850704193" lon="34.783370972">
<ele>479.812500</ele>
<time>2013-11-20T10:40:04Z</time>
<speed>0.010000</speed>
<extensions>
<speed>0.0</speed>
<temp>0.00</temp>
<bpm>0</bpm>
<rpm>0.00</rpm>
</extensions>
</trkpt>
<trkpt lat="30.850704193" lon="34.783370972">
<ele>479.828125</ele>
<time>2013-11-20T10:40:09Z</time>
<extensions>
<speed>0.0</speed>
<temp>0.00</temp>
<bpm>0</bpm>
<rpm>0.00</rpm>
</extensions>
</trkpt>
<trkpt lat="30.850704193" lon="34.783370972">
<ele>479.859375</ele>
<time>2013-11-20T10:40:14Z</time>
<extensions>
<speed>0.0</speed>
<temp>0.00</temp>
<bpm>0</bpm>
<rpm>0.00</rpm>
</extensions>
</trkpt>
<trkpt lat="30.850704193" lon="34.783370972">
<ele>479.890625</ele>
<time>2013-11-20T10:40:19Z</time>
<extensions>
<speed>0.0</speed>
<temp>0.00</temp>
<bpm>0</bpm>
<rpm>0.00</rpm>
</extensions>
</trkpt>
<trkpt lat="30.850704193" lon="34.783370972">
<ele>479.921875</ele>
<time>2013-11-20T10:40:24Z</time>
<extensions>
<speed>0.0</speed>
<temp>0.00</temp>
<bpm>0</bpm>
<rpm>0.00</rpm>
</extensions>
</trkpt>
<trkpt lat="30.850702286" lon="34.783370972">
<ele>479.960938</ele>
<time>2013-11-20T10:40:29Z</time>
<extensions>
<speed>0.0</speed>
<temp>0.00</temp>
<bpm>0</bpm>
<rpm>0.00</rpm>
</extensions>
</trkpt>
<trkpt lat="30.850702286" lon="34.783370972">
<ele>479.992188</ele>
<time>2013-11-20T10:40:34Z</time>
<speed>0.010000</speed>
<extensions>
<speed>0.0</speed>
<temp>0.00</temp>
<bpm>0</bpm>
<rpm>0.00</rpm>
</extensions>
</trkpt>
<trkpt lat="30.850702286" lon="34.783370972">
<ele>480.007813</ele>
<time>2013-11-20T10:40:39Z</time>
<speed>0.010000</speed>
<extensions>
<speed>0.0</speed>
<temp>0.00</temp>
<bpm>0</bpm>
<rpm>0.00</rpm>
</extensions>
</trkpt>
<trkpt lat="30.850702286" lon="34.783370972">
<ele>480.031250</ele>
<time>2013-11-20T10:40:44Z</time>
<speed>0.010000</speed>
<extensions>
<speed>0.0</speed>
<temp>0.00</temp>
<bpm>0</bpm>
<rpm>0.00</rpm>
</extensions>
</trkpt>
<trkpt lat="30.850702286" lon="34.783370972">
<ele>480.062500</ele>
<time>2013-11-20T10:40:49Z</time>
<speed>0.010000</speed>
<extensions>
<speed>0.0</speed>
<temp>0.00</temp>
<bpm>0</bpm>
<rpm>0.00</rpm>
</extensions>
</trkpt>
<trkpt lat="30.850702286" lon="34.783370972">
<ele>480.101563</ele>
<time>2013-11-20T10:40:54Z</time>
<speed>0.010000</speed>
<extensions>
<speed>0.0</speed>
<temp>0.00</temp>
<bpm>0</bpm>
<rpm>0.00</rpm>
</extensions>
</trkpt>
<trkpt lat="30.850700378" lon="34.783370972">
<ele>480.093750</ele>
<time>2013-11-20T10:40:59Z</time>
<extensions>
<speed>0.0</speed>
<temp>0.00</temp>
<bpm>0</bpm>
<rpm>0.00</rpm>
</extensions>
</trkpt>
<trkpt lat="30.850700378" lon="34.783370972">
<ele>480.078125</ele>
<time>2013-11-20T10:41:04Z</time>
<extensions>
<speed>0.0</speed>
<temp>0.00</temp>
<bpm>0</bpm>
<rpm>0.00</rpm>
</extensions>
</trkpt>
<trkpt lat="30.850700378" lon="34.783370972">
<ele>480.062500</ele>
<time>2013-11-20T10:41:09Z</time>
<extensions>
<speed>0.0</speed>
<temp>0.00</temp>
<bpm>0</bpm>
<rpm>0.00</rpm>
</extensions>
</trkpt>
<trkpt lat="30.850700378" lon="34.783370972">
<ele>480.054688</ele>
<time>2013-11-20T10:41:14Z</time>
<extensions>
<speed>0.0</speed>
<temp>0.00</temp>
<bpm>0</bpm>
<rpm>0.00</rpm>
</extensions>
</trkpt>
<trkpt lat="30.850700378" lon="34.783370972">
<ele>480.054688</ele>
<time>2013-11-20T10:41:19Z</time>
<extensions>
<speed>0.0</speed>
<temp>0.00</temp>
<bpm>0</bpm>
<rpm>0.00</rpm>
</extensions>
</trkpt>
<trkpt lat="30.850700378" lon="34.783370972">
<ele>480.054688</ele>
<time>2013-11-20T10:41:24Z</time>
<extensions>
<speed>0.0</speed>
<temp>0.00</temp>
<bpm>0</bpm>
<rpm>0.00</rpm>
</extensions>
</trkpt>
<trkpt lat="30.850700378" lon="34.783370972">
<ele>480.054688</ele>
<time>2013-11-20T10:41:29Z</time>
<extensions>
<speed>0.0</speed>
<temp>0.00</temp>
<bpm>0</bpm>
<rpm>0.00</rpm>
</extensions>
</trkpt>
<trkpt lat="30.850700378" lon="34.783370972">
<ele>480.046875</ele>
<time>2013-11-20T10:41:34Z</time>
<extensions>
<speed>0.0</speed>
<temp>0.00</temp>
<bpm>0</bpm>
<rpm>0.00</rpm>
</extensions>
</trkpt>
<trkpt lat="30.850700378" lon="34.783370972">
<ele>480.046875</ele>
<time>2013-11-20T10:41:39Z</time>
<speed>0.010000</speed>
<extensions>
<speed>0.0</speed>
<temp>0.00</temp>
<bpm>0</bpm>
<rpm>0.00</rpm>
</extensions>
</trkpt>
<trkpt lat="30.850700378" lon="34.783370972">
<ele>480.046875</ele>
<time>2013-11-20T10:41:44Z</time>
<speed>0.010000</speed>
<extensions>
<speed>0.0</speed>
<temp>0.00</temp>
<bpm>0</bpm>
<rpm>0.00</rpm>
</extensions>
</trkpt>
<trkpt lat="30.850700378" lon="34.783370972">
<ele>480.046875</ele>
<time>2013-11-20T10:41:49Z</time>
<extensions>
<speed>0.0</speed>
<temp>0.00</temp>
<bpm>0</bpm>
<rpm>0.00</rpm>
</extensions>
</trkpt>
<trkpt lat="30.850700378" lon="34.783370972">
<ele>480.046875</ele>
<time>2013-11-20T10:41:54Z</time>
<speed>0.020000</speed>
<extensions>
<speed>0.0</speed>
<temp>0.00</temp>
<bpm>0</bpm>
<rpm>0.00</rpm>
</extensions>
</trkpt>
<trkpt lat="30.850700378" lon="34.783370972">
<ele>480.046875</ele>
<time>2013-11-20T10:41:59Z</time>
<extensions>
<speed>0.0</speed>
<temp>0.00</temp>
<bpm>0</bpm>
<rpm>0.00</rpm>
</extensions>
</trkpt>
<trkpt lat="30.850700378" lon="34.783367157">
<ele>480.039063</ele>
<time>2013-11-20T10:42:04Z</time>
<speed>0.010000</speed>
<extensions>
<speed>0.0</speed>
<temp>0.00</temp>
<bpm>0</bpm>
<rpm>0.00</rpm>
</extensions>
</trkpt>
<trkpt lat="30.850702286" lon="34.783367157">
<ele>480.039063</ele>
<time>2013-11-20T10:42:09Z</time>
<speed>0.030000</speed>
<extensions>
<speed>0.0</speed>
<temp>0.00</temp>
<bpm>0</bpm>
<rpm>0.00</rpm>
</extensions>
</trkpt>
<trkpt lat="30.850702286" lon="34.783367157">
<ele>480.031250</ele>
<time>2013-11-20T10:42:14Z</time>
<speed>0.030000</speed>
<extensions>
<speed>0.0</speed>
<temp>0.00</temp>
<bpm>0</bpm>
<rpm>0.00</rpm>
</extensions>
</trkpt>
<trkpt lat="30.850704193" lon="34.783367157">
<ele>480.031250</ele>
<time>2013-11-20T10:42:19Z</time>
<speed>0.040000</speed>
<extensions>
<speed>0.0</speed>
<temp>0.00</temp>
<bpm>0</bpm>
<rpm>0.00</rpm>
</extensions>
</trkpt>
<trkpt lat="30.850704193" lon="34.783363342">
<ele>480.023438</ele>
<time>2013-11-20T10:42:24Z</time>
<speed>0.010000</speed>
<extensions>
<speed>0.0</speed>
<temp>0.00</temp>
<bpm>0</bpm>
<rpm>0.00</rpm>
</extensions>
</trkpt>
<trkpt lat="30.850704193" lon="34.783363342">
<ele>480.023438</ele>
<time>2013-11-20T10:42:29Z</time>
<speed>0.020000</speed>
<extensions>
<speed>0.0</speed>
<temp>0.00</temp>
<bpm>0</bpm>
<rpm>0.00</rpm>
</extensions>
</trkpt>
<trkpt lat="30.850704193" lon="34.783363342">
<ele>480.015625</ele>
<time>2013-11-20T10:42:34Z</time>
<speed>0.030000</speed>
<extensions>
<speed>0.0</speed>
<temp>0.00</temp>
<bpm>0</bpm>
<rpm>0.00</rpm>
</extensions>
</trkpt>
<trkpt lat="30.850704193" lon="34.783359528">
<ele>480.023438</ele>
<time>2013-11-20T10:42:39Z</time>
<speed>0.030000</speed>
<extensions>
<speed>0.0</speed>
<temp>0.00</temp>
<bpm>0</bpm>
<rpm>0.00</rpm>
</extensions>
</trkpt>
<trkpt lat="30.850704193" lon="34.783359528">
<ele>480.015625</ele>
<time>2013-11-20T10:42:44Z</time>
<speed>0.090000</speed>
<extensions>
<speed>0.1</speed>
<temp>0.00</temp>
<bpm>0</bpm>
<rpm>0.00</rpm>
</extensions>
</trkpt>
<trkpt lat="30.850704193" lon="34.783359528">
<ele>480.015625</ele>
<time>2013-11-20T10:42:49Z</time>
<speed>0.040000</speed>
<extensions>
<speed>0.0</speed>
<temp>0.00</temp>
<bpm>0</bpm>
<rpm>0.00</rpm>
</extensions>
</trkpt>
<trkpt lat="30.850706100" lon="34.783359528">
<ele>480.023438</ele>
<time>2013-11-20T10:42:54Z</time>
<speed>0.010000</speed>
<extensions>
<speed>0.0</speed>
<temp>0.00</temp>
<bpm>0</bpm>
<rpm>0.00</rpm>
</extensions>
</trkpt>
<trkpt lat="30.850706100" lon="34.783355713">
<ele>480.007813</ele>
<time>2013-11-20T10:42:59Z</time>
<extensions>
<speed>0.0</speed>
<temp>0.00</temp>
<bpm>0</bpm>
<rpm>0.00</rpm>
</extensions>
</trkpt>
<trkpt lat="30.850706100" lon="34.783355713">
<ele>480.015625</ele>
<time>2013-11-20T10:43:04Z</time>
<speed>0.020000</speed>
<extensions>
<speed>0.0</speed>
<temp>0.00</temp>
<bpm>0</bpm>
<rpm>0.00</rpm>
</extensions>
</trkpt>
<trkpt lat="30.850706100" lon="34.783355713">
<ele>480.015625</ele>
<time>2013-11-20T10:43:09Z</time>
<speed>0.010000</speed>
<extensions>
<speed>0.0</speed>
<temp>0.00</temp>
<bpm>0</bpm>
<rpm>0.00</rpm>
</extensions>
</trkpt>
<trkpt lat="30.850706100" lon="34.783355713">
<ele>480.015625</ele>
<time>2013-11-20T10:43:14Z</time>
<speed>0.010000</speed>
<extensions>
<speed>0.0</speed>
<temp>0.00</temp>
<bpm>0</bpm>
<rpm>0.00</rpm>
</extensions>
</trkpt>
<trkpt lat="30.850706100" lon="34.783355713">
<ele>480.031250</ele>
<time>2013-11-20T10:43:19Z</time>
<speed>0.020000</speed>
<extensions>
<speed>0.0</speed>
<temp>0.00</temp>
<bpm>0</bpm>
<rpm>0.00</rpm>
</extensions>
</trkpt>
<trkpt lat="30.850706100" lon="34.783355713">
<ele>480.046875</ele>
<time>2013-11-20T10:43:24Z</time>
<extensions>
<speed>0.0</speed>
<temp>0.00</temp>
<bpm>0</bpm>
<rpm>0.00</rpm>
</extensions>
</trkpt>
<trkpt lat="30.850706100" lon="34.783355713">
<ele>480.023438</ele>
<time>2013-11-20T10:43:29Z</time>
<speed>0.020000</speed>
<extensions>
<speed>0.0</speed>
<temp>0.00</temp>
<bpm>0</bpm>
<rpm>0.00</rpm>
</extensions>
</trkpt>
<trkpt lat="30.850708008" lon="34.783355713">
<ele>480.023438</ele>
<time>2013-11-20T10:43:34Z</time>
<speed>0.020000</speed>
<extensions>
<speed>0.0</speed>
<temp>0.00</temp>
<bpm>0</bpm>
<rpm>0.00</rpm>
</extensions>
</trkpt>
<trkpt lat="30.850708008" lon="34.783355713">
<ele>480.046875</ele>
<time>2013-11-20T10:43:39Z</time>
<extensions>
<speed>0.0</speed>
<temp>0.00</temp>
<bpm>0</bpm>
<rpm>0.00</rpm>
</extensions>
</trkpt>
<trkpt lat="30.850708008" lon="34.783355713">
<ele>480.062500</ele>
<time>2013-11-20T10:43:44Z</time>
<extensions>
<speed>0.0</speed>
<temp>0.00</temp>
<bpm>0</bpm>
<rpm>0.00</rpm>
</extensions>
</trkpt>
<trkpt lat="30.850708008" lon="34.783355713">
<ele>480.046875</ele>
<time>2013-11-20T10:43:49Z</time>
<speed>0.010000</speed>
<extensions>
<speed>0.0</speed>
<temp>0.00</temp>
<bpm>0</bpm>
<rpm>0.00</rpm>
</extensions>
</trkpt>
<trkpt lat="30.850708008" lon="34.783355713">
<ele>479.992188</ele>
<time>2013-11-20T10:43:54Z</time>
<speed>0.010000</speed>
<extensions>
<speed>0.0</speed>
<temp>0.00</temp>
<bpm>0</bpm>
<rpm>0.00</rpm>
</extensions>
</trkpt>
<trkpt lat="30.850708008" lon="34.783355713">
<ele>479.968750</ele>
<time>2013-11-20T10:43:59Z</time>
<speed>0.020000</speed>
<extensions>
<speed>0.0</speed>
<temp>0.00</temp>
<bpm>0</bpm>
<rpm>0.00</rpm>
</extensions>
</trkpt>
<trkpt lat="30.850708008" lon="34.783355713">
<ele>479.953125</ele>
<time>2013-11-20T10:44:04Z</time>
<speed>0.010000</speed>
<extensions>
<speed>0.0</speed>
<temp>0.00</temp>
<bpm>0</bpm>
<rpm>0.00</rpm>
</extensions>
</trkpt>
<trkpt lat="30.850708008" lon="34.783355713">
<ele>479.921875</ele>
<time>2013-11-20T10:44:09Z</time>
<speed>0.020000</speed>
<extensions>
<speed>0.0</speed>
<temp>0.00</temp>
<bpm>0</bpm>
<rpm>0.00</rpm>
</extensions>
</trkpt>
<trkpt lat="30.850709915" lon="34.783355713">
<ele>479.898438</ele>
<time>2013-11-20T10:44:14Z</time>
<speed>0.010000</speed>
<extensions>
<speed>0.0</speed>
<temp>0.00</temp>
<bpm>0</bpm>
<rpm>0.00</rpm>
</extensions>
</trkpt>
<trkpt lat="30.850709915" lon="34.783355713">
<ele>479.898438</ele>
<time>2013-11-20T10:44:19Z</time>
<extensions>
<speed>0.0</speed>
<temp>0.00</temp>
<bpm>0</bpm>
<rpm>0.00</rpm>
</extensions>
</trkpt>
<trkpt lat="30.850709915" lon="34.783355713">
<ele>479.906250</ele>
<time>2013-11-20T10:44:24Z</time>
<extensions>
<speed>0.0</speed>
<temp>0.00</temp>
<bpm>0</bpm>
<rpm>0.00</rpm>
</extensions>
</trkpt>
<trkpt lat="30.850709915" lon="34.783355713">
<ele>479.906250</ele>
<time>2013-11-20T10:44:29Z</time>
<speed>0.020000</speed>
<extensions>
<speed>0.0</speed>
<temp>0.00</temp>
<bpm>0</bpm>
<rpm>0.00</rpm>
</extensions>
</trkpt>
<trkpt lat="30.850709915" lon="34.783355713">
<ele>479.929688</ele>
<time>2013-11-20T10:44:34Z</time>
<speed>0.010000</speed>
<extensions>
<speed>0.0</speed>
<temp>0.00</temp>
<bpm>0</bpm>
<rpm>0.00</rpm>
</extensions>
</trkpt>
<trkpt lat="30.850709915" lon="34.783355713">
<ele>479.945313</ele>
<time>2013-11-20T10:44:39Z</time>
<speed>0.020000</speed>
<extensions>
<speed>0.0</speed>
<temp>0.00</temp>
<bpm>0</bpm>
<rpm>0.00</rpm>
</extensions>
</trkpt>
<trkpt lat="30.850709915" lon="34.783355713">
<ele>479.960938</ele>
<time>2013-11-20T10:44:44Z</time>
<speed>0.010000</speed>
<extensions>
<speed>0.0</speed>
<temp>0.00</temp>
<bpm>0</bpm>
<rpm>0.00</rpm>
</extensions>
</trkpt>
<trkpt lat="30.850709915" lon="34.783355713">
<ele>479.968750</ele>
<time>2013-11-20T10:44:49Z</time>
<extensions>
<speed>0.0</speed>
<temp>0.00</temp>
<bpm>0</bpm>
<rpm>0.00</rpm>
</extensions>
</trkpt>
<trkpt lat="30.850708008" lon="34.783355713">
<ele>479.929688</ele>
<time>2013-11-20T10:44:54Z</time>
<speed>0.010000</speed>
<extensions>
<speed>0.0</speed>
<temp>0.00</temp>
<bpm>0</bpm>
<rpm>0.00</rpm>
</extensions>
</trkpt>
<trkpt lat="30.850709915" lon="34.783355713">
<ele>479.929688</ele>
<time>2013-11-20T10:44:59Z</time>
<speed>0.040000</speed>
<extensions>
<speed>0.0</speed>
<temp>0.00</temp>
<bpm>0</bpm>
<rpm>0.00</rpm>
</extensions>
</trkpt>
<trkpt lat="30.850709915" lon="34.783355713">
<ele>479.937500</ele>
<time>2013-11-20T10:45:04Z</time>
<speed>0.050000</speed>
<extensions>
<speed>0.1</speed>
<temp>0.00</temp>
<bpm>0</bpm>
<rpm>0.00</rpm>
</extensions>
</trkpt>
<trkpt lat="30.850709915" lon="34.783355713">
<ele>479.914063</ele>
<time>2013-11-20T10:45:09Z</time>
<speed>0.010000</speed>
<extensions>
<speed>0.0</speed>
<temp>0.00</temp>
<bpm>0</bpm>
<rpm>0.00</rpm>
</extensions>
</trkpt>
<trkpt lat="30.850709915" lon="34.783355713">
<ele>479.906250</ele>
<time>2013-11-20T10:45:14Z</time>
<extensions>
<speed>0.0</speed>
<temp>0.00</temp>
<bpm>0</bpm>
<rpm>0.00</rpm>
</extensions>
</trkpt>
<trkpt lat="30.850709915" lon="34.783355713">
<ele>479.890625</ele>
<time>2013-11-20T10:45:19Z</time>
<speed>0.010000</speed>
<extensions>
<speed>0.0</speed>
<temp>0.00</temp>
<bpm>0</bpm>
<rpm>0.00</rpm>
</extensions>
</trkpt>
<trkpt lat="30.850709915" lon="34.783355713">
<ele>479.859375</ele>
<time>2013-11-20T10:45:24Z</time>
<extensions>
<speed>0.0</speed>
<temp>0.00</temp>
<bpm>0</bpm>
<rpm>0.00</rpm>
</extensions>
</trkpt>
<trkpt lat="30.850709915" lon="34.783355713">
<ele>479.851563</ele>
<time>2013-11-20T10:45:29Z</time>
<extensions>
<speed>0.0</speed>
<temp>0.00</temp>
<bpm>0</bpm>
<rpm>0.00</rpm>
</extensions>
</trkpt>
<trkpt lat="30.850709915" lon="34.783355713">
<ele>479.859375</ele>
<time>2013-11-20T10:45:34Z</time>
<extensions>
<speed>0.0</speed>
<temp>0.00</temp>
<bpm>0</bpm>
<rpm>0.00</rpm>
</extensions>
</trkpt>
<trkpt lat="30.850709915" lon="34.783355713">
<ele>479.859375</ele>
<time>2013-11-20T10:45:39Z</time>
<extensions>
<speed>0.0</speed>
<temp>0.00</temp>
<bpm>0</bpm>
<rpm>0.00</rpm>
</extensions>
</trkpt>
<trkpt lat="30.850709915" lon="34.783355713">
<ele>479.859375</ele>
<time>2013-11-20T10:45:44Z</time>
<extensions>
<speed>0.0</speed>
<temp>0.00</temp>
<bpm>0</bpm>
<rpm>0.00</rpm>
</extensions>
</trkpt>
<trkpt lat="30.850709915" lon="34.783355713">
<ele>479.859375</ele>
<time>2013-11-20T10:45:49Z</time>
<extensions>
<speed>0.0</speed>
<temp>0.00</temp>
<bpm>0</bpm>
<rpm>0.00</rpm>
</extensions>
</trkpt>
<trkpt lat="30.850709915" lon="34.783355713">
<ele>479.859375</ele>
<time>2013-11-20T10:45:54Z</time>
<speed>0.010000</speed>
<extensions>
<speed>0.0</speed>
<temp>0.00</temp>
<bpm>0</bpm>
<rpm>0.00</rpm>
</extensions>
</trkpt>
<trkpt lat="30.850709915" lon="34.783355713">
<ele>479.859375</ele>
<time>2013-11-20T10:45:59Z</time>
<extensions>
<speed>0.0</speed>
<temp>0.00</temp>
<bpm>0</bpm>
<rpm>0.00</rpm>
</extensions>
</trkpt>
<trkpt lat="30.850709915" lon="34.783355713">
<ele>479.859375</ele>
<time>2013-11-20T10:46:04Z</time>
<extensions>
<speed>0.0</speed>
<temp>0.00</temp>
<bpm>0</bpm>
<rpm>0.00</rpm>
</extensions>
</trkpt>
<trkpt lat="30.850709915" lon="34.783355713">
<ele>479.867188</ele>
<time>2013-11-20T10:46:09Z</time>
<extensions>
<speed>0.0</speed>
<temp>0.00</temp>
<bpm>0</bpm>
<rpm>0.00</rpm>
</extensions>
</trkpt>
<trkpt lat="30.850709915" lon="34.783355713">
<ele>479.859375</ele>
<time>2013-11-20T10:46:14Z</time>
<extensions>
<speed>0.0</speed>
<temp>0.00</temp>
<bpm>0</bpm>
<rpm>0.00</rpm>
</extensions>
</trkpt>
<trkpt lat="30.850709915" lon="34.783355713">
<ele>479.851563</ele>
<time>2013-11-20T10:46:19Z</time>
<extensions>
<speed>0.0</speed>
<temp>0.00</temp>
<bpm>0</bpm>
<rpm>0.00</rpm>
</extensions>
</trkpt>
<trkpt lat="30.850709915" lon="34.783355713">
<ele>479.835938</ele>
<time>2013-11-20T10:46:24Z</time>
<speed>0.010000</speed>
<extensions>
<speed>0.0</speed>
<temp>0.00</temp>
<bpm>0</bpm>
<rpm>0.00</rpm>
</extensions>
</trkpt>
<trkpt lat="30.850709915" lon="34.783355713">
<ele>479.835938</ele>
<time>2013-11-20T10:46:29Z</time>
<extensions>
<speed>0.0</speed>
<temp>0.00</temp>
<bpm>0</bpm>
<rpm>0.00</rpm>
</extensions>
</trkpt>
<trkpt lat="30.850709915" lon="34.783355713">
<ele>479.828125</ele>
<time>2013-11-20T10:46:34Z</time>
<extensions>
<speed>0.0</speed>
<temp>0.00</temp>
<bpm>0</bpm>
<rpm>0.00</rpm>
</extensions>
</trkpt>
<trkpt lat="30.850709915" lon="34.783355713">
<ele>479.812500</ele>
<time>2013-11-20T10:46:39Z</time>
<speed>0.010000</speed>
<extensions>
<speed>0.0</speed>
<temp>0.00</temp>
<bpm>0</bpm>
<rpm>0.00</rpm>
</extensions>
</trkpt>
<trkpt lat="30.850709915" lon="34.783355713">
<ele>479.789063</ele>
<time>2013-11-20T10:46:44Z</time>
<speed>0.010000</speed>
<extensions>
<speed>0.0</speed>
<temp>0.00</temp>
<bpm>0</bpm>
<rpm>0.00</rpm>
</extensions>
</trkpt>
<trkpt lat="30.850709915" lon="34.783355713">
<ele>479.773438</ele>
<time>2013-11-20T10:46:49Z</time>
<extensions>
<speed>0.0</speed>
<temp>0.00</temp>
<bpm>0</bpm>
<rpm>0.00</rpm>
</extensions>
</trkpt>
<trkpt lat="30.850709915" lon="34.783355713">
<ele>479.765625</ele>
<time>2013-11-20T10:46:54Z</time>
<speed>0.010000</speed>
<extensions>
<speed>0.0</speed>
<temp>0.00</temp>
<bpm>0</bpm>
<rpm>0.00</rpm>
</extensions>
</trkpt>
<trkpt lat="30.850709915" lon="34.783355713">
<ele>479.757813</ele>
<time>2013-11-20T10:46:59Z</time>
<extensions>
<speed>0.0</speed>
<temp>0.00</temp>
<bpm>0</bpm>
<rpm>0.00</rpm>
</extensions>
</trkpt>
<trkpt lat="30.850709915" lon="34.783355713">
<ele>479.765625</ele>
<time>2013-11-20T10:47:04Z</time>
<speed>0.010000</speed>
<extensions>
<speed>0.0</speed>
<temp>0.00</temp>
<bpm>0</bpm>
<rpm>0.00</rpm>
</extensions>
</trkpt>
<trkpt lat="30.850709915" lon="34.783355713">
<ele>479.750000</ele>
<time>2013-11-20T10:47:09Z</time>
<speed>0.010000</speed>
<extensions>
<speed>0.0</speed>
<temp>0.00</temp>
<bpm>0</bpm>
<rpm>0.00</rpm>
</extensions>
</trkpt>
<trkpt lat="30.850709915" lon="34.783355713">
<ele>479.742188</ele>
<time>2013-11-20T10:47:14Z</time>
<extensions>
<speed>0.0</speed>
<temp>0.00</temp>
<bpm>0</bpm>
<rpm>0.00</rpm>
</extensions>
</trkpt>
<trkpt lat="30.850709915" lon="34.783355713">
<ele>479.734375</ele>
<time>2013-11-20T10:47:19Z</time>
<speed>0.010000</speed>
<extensions>
<speed>0.0</speed>
<temp>0.00</temp>
<bpm>0</bpm>
<rpm>0.00</rpm>
</extensions>
</trkpt>
<trkpt lat="30.850709915" lon="34.783355713">
<ele>479.726563</ele>
<time>2013-11-20T10:47:24Z</time>
<extensions>
<speed>0.0</speed>
<temp>0.00</temp>
<bpm>0</bpm>
<rpm>0.00</rpm>
</extensions>
</trkpt>
<trkpt lat="30.850709915" lon="34.783355713">
<ele>479.703125</ele>
<time>2013-11-20T10:47:29Z</time>
<speed>0.020000</speed>
<extensions>
<speed>0.0</speed>
<temp>0.00</temp>
<bpm>0</bpm>
<rpm>0.00</rpm>
</extensions>
</trkpt>
<trkpt lat="30.850709915" lon="34.783355713">
<ele>479.671875</ele>
<time>2013-11-20T10:47:34Z</time>
<extensions>
<speed>0.0</speed>
<temp>0.00</temp>
<bpm>0</bpm>
<rpm>0.00</rpm>
</extensions>
</trkpt>
<trkpt lat="30.850709915" lon="34.783355713">
<ele>479.656250</ele>
<time>2013-11-20T10:47:39Z</time>
<extensions>
<speed>0.0</speed>
<temp>0.00</temp>
<bpm>0</bpm>
<rpm>0.00</rpm>
</extensions>
</trkpt>
<trkpt lat="30.850709915" lon="34.783355713">
<ele>479.671875</ele>
<time>2013-11-20T10:47:44Z</time>
<extensions>
<speed>0.0</speed>
<temp>0.00</temp>
<bpm>0</bpm>
<rpm>0.00</rpm>
</extensions>
</trkpt>
<trkpt lat="30.850709915" lon="34.783355713">
<ele>479.656250</ele>
<time>2013-11-20T10:47:49Z</time>
<speed>0.020000</speed>
<extensions>
<speed>0.0</speed>
<temp>0.00</temp>
<bpm>0</bpm>
<rpm>0.00</rpm>
</extensions>
</trkpt>
<trkpt lat="30.850709915" lon="34.783355713">
<ele>479.632813</ele>
<time>2013-11-20T10:47:54Z</time>
<speed>0.030000</speed>
<extensions>
<speed>0.0</speed>
<temp>0.00</temp>
<bpm>0</bpm>
<rpm>0.00</rpm>
</extensions>
</trkpt>
<trkpt lat="30.850709915" lon="34.783355713">
<ele>479.632813</ele>
<time>2013-11-20T10:47:59Z</time>
<extensions>
<speed>0.0</speed>
<temp>0.00</temp>
<bpm>0</bpm>
<rpm>0.00</rpm>
</extensions>
</trkpt>
<trkpt lat="30.850709915" lon="34.783355713">
<ele>479.625000</ele>
<time>2013-11-20T10:48:04Z</time>
<speed>0.010000</speed>
<extensions>
<speed>0.0</speed>
<temp>0.00</temp>
<bpm>0</bpm>
<rpm>0.00</rpm>
</extensions>
</trkpt>
<trkpt lat="30.850709915" lon="34.783355713">
<ele>479.617188</ele>
<time>2013-11-20T10:48:09Z</time>
<speed>0.010000</speed>
<extensions>
<speed>0.0</speed>
<temp>0.00</temp>
<bpm>0</bpm>
<rpm>0.00</rpm>
</extensions>
</trkpt>
<trkpt lat="30.850709915" lon="34.783355713">
<ele>479.617188</ele>
<time>2013-11-20T10:48:14Z</time>
<speed>0.010000</speed>
<extensions>
<speed>0.0</speed>
<temp>0.00</temp>
<bpm>0</bpm>
<rpm>0.00</rpm>
</extensions>
</trkpt>
<trkpt lat="30.850709915" lon="34.783355713">
<ele>479.601563</ele>
<time>2013-11-20T10:48:19Z</time>
<extensions>
<speed>0.0</speed>
<temp>0.00</temp>
<bpm>0</bpm>
<rpm>0.00</rpm>
</extensions>
</trkpt>
<trkpt lat="30.850709915" lon="34.783355713">
<ele>479.609375</ele>
<time>2013-11-20T10:48:24Z</time>
<speed>0.010000</speed>
<extensions>
<speed>0.0</speed>
<temp>0.00</temp>
<bpm>0</bpm>
<rpm>0.00</rpm>
</extensions>
</trkpt>
<trkpt lat="30.850711823" lon="34.783355713">
<ele>479.609375</ele>
<time>2013-11-20T10:48:29Z</time>
<extensions>
<speed>0.0</speed>
<temp>0.00</temp>
<bpm>0</bpm>
<rpm>0.00</rpm>
</extensions>
</trkpt>
<trkpt lat="30.850709915" lon="34.783355713">
<ele>479.609375</ele>
<time>2013-11-20T10:48:34Z</time>
<speed>0.010000</speed>
<extensions>
<speed>0.0</speed>
<temp>0.00</temp>
<bpm>0</bpm>
<rpm>0.00</rpm>
</extensions>
</trkpt>
<trkpt lat="30.850711823" lon="34.783355713">
<ele>479.593750</ele>
<time>2013-11-20T10:48:39Z</time>
<speed>0.010000</speed>
<extensions>
<speed>0.0</speed>
<temp>0.00</temp>
<bpm>0</bpm>
<rpm>0.00</rpm>
</extensions>
</trkpt>
<trkpt lat="30.850711823" lon="34.783355713">
<ele>479.585938</ele>
<time>2013-11-20T10:48:44Z</time>
<extensions>
<speed>0.0</speed>
<temp>0.00</temp>
<bpm>0</bpm>
<rpm>0.00</rpm>
</extensions>
</trkpt>
<trkpt lat="30.850711823" lon="34.783355713">
<ele>479.593750</ele>
<time>2013-11-20T10:48:49Z</time>
<speed>0.020000</speed>
<extensions>
<speed>0.0</speed>
<temp>0.00</temp>
<bpm>0</bpm>
<rpm>0.00</rpm>
</extensions>
</trkpt>
<trkpt lat="30.850711823" lon="34.783355713">
<ele>479.585938</ele>
<time>2013-11-20T10:48:54Z</time>
<speed>0.010000</speed>
<extensions>
<speed>0.0</speed>
<temp>0.00</temp>
<bpm>0</bpm>
<rpm>0.00</rpm>
</extensions>
</trkpt>
<trkpt lat="30.850711823" lon="34.783355713">
<ele>479.578125</ele>
<time>2013-11-20T10:48:59Z</time>
<extensions>
<speed>0.0</speed>
<temp>0.00</temp>
<bpm>0</bpm>
<rpm>0.00</rpm>
</extensions>
</trkpt>
<trkpt lat="30.850711823" lon="34.783359528">
<ele>479.570313</ele>
<time>2013-11-20T10:49:04Z</time>
<speed>0.010000</speed>
<extensions>
<speed>0.0</speed>
<temp>0.00</temp>
<bpm>0</bpm>
<rpm>0.00</rpm>
</extensions>
</trkpt>
<trkpt lat="30.850711823" lon="34.783359528">
<ele>479.562500</ele>
<time>2013-11-20T10:49:09Z</time>
<speed>0.030000</speed>
<extensions>
<speed>0.0</speed>
<temp>0.00</temp>
<bpm>0</bpm>
<rpm>0.00</rpm>
</extensions>
</trkpt>
<trkpt lat="30.850713730" lon="34.783359528">
<ele>479.554688</ele>
<time>2013-11-20T10:49:14Z</time>
<speed>0.020000</speed>
<extensions>
<speed>0.0</speed>
<temp>0.00</temp>
<bpm>0</bpm>
<rpm>0.00</rpm>
</extensions>
</trkpt>
<trkpt lat="30.850713730" lon="34.783359528">
<ele>479.578125</ele>
<time>2013-11-20T10:49:19Z</time>
<speed>0.020000</speed>
<extensions>
<speed>0.0</speed>
<temp>0.00</temp>
<bpm>0</bpm>
<rpm>0.00</rpm>
</extensions>
</trkpt>
<trkpt lat="30.850713730" lon="34.783359528">
<ele>479.593750</ele>
<time>2013-11-20T10:49:24Z</time>
<speed>0.020000</speed>
<extensions>
<speed>0.0</speed>
<temp>0.00</temp>
<bpm>0</bpm>
<rpm>0.00</rpm>
</extensions>
</trkpt>
<trkpt lat="30.850715637" lon="34.783359528">
<ele>479.609375</ele>
<time>2013-11-20T10:49:29Z</time>
<speed>0.030000</speed>
<extensions>
<speed>0.0</speed>
<temp>0.00</temp>
<bpm>0</bpm>
<rpm>0.00</rpm>
</extensions>
</trkpt>
<trkpt lat="30.850715637" lon="34.783359528">
<ele>479.593750</ele>
<time>2013-11-20T10:49:34Z</time>
<speed>0.010000</speed>
<extensions>
<speed>0.0</speed>
<temp>0.00</temp>
<bpm>0</bpm>
<rpm>0.00</rpm>
</extensions>
</trkpt>
<trkpt lat="30.850715637" lon="34.783359528">
<ele>479.593750</ele>
<time>2013-11-20T10:49:39Z</time>
<speed>0.010000</speed>
<extensions>
<speed>0.0</speed>
<temp>0.00</temp>
<bpm>0</bpm>
<rpm>0.00</rpm>
</extensions>
</trkpt>
<trkpt lat="30.850715637" lon="34.783359528">
<ele>479.609375</ele>
<time>2013-11-20T10:49:44Z</time>
<speed>0.030000</speed>
<extensions>
<speed>0.0</speed>
<temp>0.00</temp>
<bpm>0</bpm>
<rpm>0.00</rpm>
</extensions>
</trkpt>
<trkpt lat="30.850717545" lon="34.783359528">
<ele>479.609375</ele>
<time>2013-11-20T10:49:49Z</time>
<speed>0.020000</speed>
<extensions>
<speed>0.0</speed>
<temp>0.00</temp>
<bpm>0</bpm>
<rpm>0.00</rpm>
</extensions>
</trkpt>
<trkpt lat="30.850717545" lon="34.783359528">
<ele>479.601563</ele>
<time>2013-11-20T10:49:54Z</time>
<speed>0.040000</speed>
<extensions>
<speed>0.0</speed>
<temp>0.00</temp>
<bpm>0</bpm>
<rpm>0.00</rpm>
</extensions>
</trkpt>
<trkpt lat="30.850717545" lon="34.783359528">
<ele>479.609375</ele>
<time>2013-11-20T10:49:59Z</time>
<speed>0.040000</speed>
<extensions>
<speed>0.0</speed>
<temp>0.00</temp>
<bpm>0</bpm>
<rpm>0.00</rpm>
</extensions>
</trkpt>
<trkpt lat="30.850719452" lon="34.783359528">
<ele>479.609375</ele>
<time>2013-11-20T10:50:04Z</time>
<speed>0.040000</speed>
<extensions>
<speed>0.0</speed>
<temp>0.00</temp>
<bpm>0</bpm>
<rpm>0.00</rpm>
</extensions>
</trkpt>
<trkpt lat="30.850730896" lon="34.783409119">
<ele>479.632813</ele>
<time>2013-11-20T10:50:09Z</time>
<speed>1.320000</speed>
<extensions>
<speed>1.3</speed>
<temp>0.00</temp>
<bpm>0</bpm>
<rpm>0.00</rpm>
</extensions>
</trkpt>
<trkpt lat="30.850786209" lon="34.783535004">
<ele>479.914063</ele>
<time>2013-11-20T10:50:14Z</time>
<speed>1.850000</speed>
<extensions>
<speed>1.8</speed>
<temp>0.00</temp>
<bpm>0</bpm>
<rpm>0.00</rpm>
</extensions>
</trkpt>
<trkpt lat="30.850719452" lon="34.783683777">
<ele>478.203125</ele>
<time>2013-11-20T10:50:19Z</time>
<speed>3.020000</speed>
<extensions>
<speed>3.0</speed>
<temp>0.00</temp>
<bpm>0</bpm>
<rpm>0.00</rpm>
</extensions>
</trkpt>
<trkpt lat="30.850585938" lon="34.783733368">
<ele>477.250000</ele>
<time>2013-11-20T10:50:24Z</time>
<speed>3.880000</speed>
<extensions>
<speed>3.9</speed>
<temp>0.00</temp>
<bpm>0</bpm>
<rpm>0.00</rpm>
</extensions>
</trkpt>
<trkpt lat="30.850418091" lon="34.783782959">
<ele>476.992188</ele>
<time>2013-11-20T10:50:29Z</time>
<speed>3.460000</speed>
<extensions>
<speed>3.5</speed>
<temp>0.00</temp>
<bpm>0</bpm>
<rpm>0.00</rpm>
</extensions>
</trkpt>
<trkpt lat="30.850271225" lon="34.783889771">
<ele>477.031250</ele>
<time>2013-11-20T10:50:34Z</time>
<speed>3.350000</speed>
<extensions>
<speed>3.4</speed>
<temp>0.00</temp>
<bpm>0</bpm>
<rpm>0.00</rpm>
</extensions>
</trkpt>
<trkpt lat="30.850212097" lon="34.784049988">
<ele>478.164063</ele>
<time>2013-11-20T10:50:39Z</time>
<speed>3.300000</speed>
<extensions>
<speed>3.3</speed>
<temp>0.00</temp>
<bpm>0</bpm>
<rpm>0.00</rpm>
</extensions>
</trkpt>
<trkpt lat="30.850160599" lon="34.784206390">
<ele>477.718750</ele>
<time>2013-11-20T10:50:44Z</time>
<speed>3.760000</speed>
<extensions>
<speed>3.8</speed>
<temp>0.00</temp>
<bpm>0</bpm>
<rpm>0.00</rpm>
</extensions>
</trkpt>
<trkpt lat="30.850210190" lon="34.784439087">
<ele>474.195313</ele>
<time>2013-11-20T10:50:49Z</time>
<speed>3.910000</speed>
<extensions>
<speed>3.9</speed>
<temp>0.00</temp>
<bpm>0</bpm>
<rpm>0.00</rpm>
</extensions>
</trkpt>
<trkpt lat="30.850234985" lon="34.784633636">
<ele>473.000000</ele>
<time>2013-11-20T10:50:54Z</time>
<speed>4.250000</speed>
<extensions>
<speed>4.3</speed>
<temp>0.00</temp>
<bpm>0</bpm>
<rpm>0.00</rpm>
</extensions>
</trkpt>
<trkpt lat="30.850290298" lon="34.784862518">
<ele>473.734375</ele>
<time>2013-11-20T10:50:59Z</time>
<speed>4.240000</speed>
<extensions>
<speed>4.2</speed>
<temp>0.00</temp>
<bpm>0</bpm>
<rpm>0.00</rpm>
</extensions>
</trkpt>
<trkpt lat="30.850339890" lon="34.785102844">
<ele>473.367188</ele>
<time>2013-11-20T10:51:04Z</time>
<speed>4.360000</speed>
<extensions>
<speed>4.4</speed>
<temp>0.00</temp>
<bpm>0</bpm>
<rpm>0.00</rpm>
</extensions>
</trkpt>
<trkpt lat="30.850393295" lon="34.785339355">
<ele>474.921875</ele>
<time>2013-11-20T10:51:09Z</time>
<speed>4.720000</speed>
<extensions>
<speed>4.7</speed>
<temp>0.00</temp>
<bpm>0</bpm>
<rpm>0.00</rpm>
</extensions>
</trkpt>
<trkpt lat="30.850437164" lon="34.785568237">
<ele>473.359375</ele>
<time>2013-11-20T10:51:14Z</time>
<speed>4.470000</speed>
<extensions>
<speed>4.5</speed>
<temp>0.00</temp>
<bpm>0</bpm>
<rpm>0.00</rpm>
</extensions>
</trkpt>
<trkpt lat="30.850463867" lon="34.785774231">
<ele>473.445313</ele>
<time>2013-11-20T10:51:19Z</time>
<speed>3.710000</speed>
<extensions>
<speed>3.7</speed>
<temp>0.00</temp>
<bpm>0</bpm>
<rpm>0.00</rpm>
</extensions>
</trkpt>
<trkpt lat="30.850500107" lon="34.786026001">
<ele>473.203125</ele>
<time>2013-11-20T10:51:24Z</time>
<speed>4.960000</speed>
<extensions>
<speed>5.0</speed>
<temp>0.00</temp>
<bpm>0</bpm>
<rpm>0.00</rpm>
</extensions>
</trkpt>
<trkpt lat="30.850547791" lon="34.786293030">
<ele>471.812500</ele>
<time>2013-11-20T10:51:29Z</time>
<speed>4.750000</speed>
<extensions>
<speed>4.8</speed>
<temp>0.00</temp>
<bpm>0</bpm>
<rpm>0.00</rpm>
</extensions>
</trkpt>
<trkpt lat="30.850570679" lon="34.786548615">
<ele>470.968750</ele>
<time>2013-11-20T10:51:34Z</time>
<speed>4.860000</speed>
<extensions>
<speed>4.9</speed>
<temp>0.00</temp>
<bpm>0</bpm>
<rpm>0.00</rpm>
</extensions>
</trkpt>
<trkpt lat="30.850610733" lon="34.786792755">
<ele>472.843750</ele>
<time>2013-11-20T10:51:39Z</time>
<speed>4.940000</speed>
<extensions>
<speed>4.9</speed>
<temp>0.00</temp>
<bpm>0</bpm>
<rpm>0.00</rpm>
</extensions>
</trkpt>
<trkpt lat="30.850629807" lon="34.787014008">
<ele>472.234375</ele>
<time>2013-11-20T10:51:44Z</time>
<speed>3.900000</speed>
<extensions>
<speed>3.9</speed>
<temp>0.00</temp>
<bpm>0</bpm>
<rpm>0.00</rpm>
</extensions>
</trkpt>
<trkpt lat="30.850584030" lon="34.787124634">
<ele>472.835938</ele>
<time>2013-11-20T10:51:49Z</time>
<speed>2.030000</speed>
<extensions>
<speed>2.0</speed>
<temp>0.00</temp>
<bpm>0</bpm>
<rpm>0.00</rpm>
</extensions>
</trkpt>
<trkpt lat="30.850507736" lon="34.787277222">
<ele>471.812500</ele>
<time>2013-11-20T10:51:54Z</time>
<speed>4.180000</speed>
<extensions>
<speed>4.2</speed>
<temp>0.00</temp>
<bpm>0</bpm>
<rpm>0.00</rpm>
</extensions>
</trkpt>
<trkpt lat="30.850446701" lon="34.787498474">
<ele>473.968750</ele>
<time>2013-11-20T10:51:59Z</time>
<speed>4.260000</speed>
<extensions>
<speed>4.3</speed>
<temp>0.00</temp>
<bpm>0</bpm>
<rpm>0.00</rpm>
</extensions>
</trkpt>
<trkpt lat="30.850383759" lon="34.787696838">
<ele>473.398438</ele>
<time>2013-11-20T10:52:04Z</time>
<speed>4.160000</speed>
<extensions>
<speed>4.2</speed>
<temp>0.00</temp>
<bpm>0</bpm>
<rpm>0.00</rpm>
</extensions>
</trkpt>
<trkpt lat="30.850296021" lon="34.787876129">
<ele>474.937500</ele>
<time>2013-11-20T10:52:09Z</time>
<speed>3.620000</speed>
<extensions>
<speed>3.6</speed>
<temp>0.00</temp>
<bpm>0</bpm>
<rpm>0.00</rpm>
</extensions>
</trkpt>
<trkpt lat="30.850208282" lon="34.788043976">
<ele>475.750000</ele>
<time>2013-11-20T10:52:14Z</time>
<speed>3.130000</speed>
<extensions>
<speed>3.1</speed>
<temp>0.00</temp>
<bpm>0</bpm>
<rpm>0.00</rpm>
</extensions>
</trkpt>
<trkpt lat="30.850139618" lon="34.788211823">
<ele>476.726563</ele>
<time>2013-11-20T10:52:19Z</time>
<speed>3.930000</speed>
<extensions>
<speed>3.9</speed>
<temp>0.00</temp>
<bpm>0</bpm>
<rpm>0.00</rpm>
</extensions>
</trkpt>
<trkpt lat="30.850118637" lon="34.788410187">
<ele>475.507813</ele>
<time>2013-11-20T10:52:24Z</time>
<speed>3.370000</speed>
<extensions>
<speed>3.4</speed>
<temp>0.00</temp>
<bpm>0</bpm>
<rpm>0.00</rpm>
</extensions>
</trkpt>
<trkpt lat="30.850154877" lon="34.788513184">
<ele>475.500000</ele>
<time>2013-11-20T10:52:29Z</time>
<speed>1.310000</speed>
<extensions>
<speed>1.3</speed>
<temp>0.00</temp>
<bpm>0</bpm>
<rpm>0.00</rpm>
</extensions>
</trkpt>
<trkpt lat="30.850206375" lon="34.788551331">
<ele>475.859375</ele>
<time>2013-11-20T10:52:34Z</time>
<speed>1.360000</speed>
<extensions>
<speed>1.4</speed>
<temp>0.00</temp>
<bpm>0</bpm>
<rpm>0.00</rpm>
</extensions>
</trkpt>
<trkpt lat="30.850267410" lon="34.788555145">
<ele>475.898438</ele>
<time>2013-11-20T10:52:39Z</time>
<speed>1.800000</speed>
<extensions>
<speed>1.8</speed>
<temp>0.00</temp>
<bpm>0</bpm>
<rpm>0.00</rpm>
</extensions>
</trkpt>
<trkpt lat="30.850391388" lon="34.788547516">
<ele>475.601563</ele>
<time>2013-11-20T10:52:44Z</time>
<speed>2.700000</speed>
<extensions>
<speed>2.7</speed>
<temp>0.00</temp>
<bpm>0</bpm>
<rpm>0.00</rpm>
</extensions>
</trkpt>
<trkpt lat="30.850522995" lon="34.788600922">
<ele>475.023438</ele>
<time>2013-11-20T10:52:49Z</time>
<speed>3.270000</speed>
<extensions>
<speed>3.3</speed>
<temp>0.00</temp>
<bpm>0</bpm>
<rpm>0.00</rpm>
</extensions>
</trkpt>
<trkpt lat="30.850656509" lon="34.788642883">
<ele>474.453125</ele>
<time>2013-11-20T10:52:54Z</time>
<speed>3.780000</speed>
<extensions>
<speed>3.8</speed>
<temp>0.00</temp>
<bpm>0</bpm>
<rpm>0.00</rpm>
</extensions>
</trkpt>
<trkpt lat="30.850795746" lon="34.788776398">
<ele>473.937500</ele>
<time>2013-11-20T10:52:59Z</time>
<speed>4.330000</speed>
<extensions>
<speed>4.3</speed>
<temp>0.00</temp>
<bpm>0</bpm>
<rpm>0.00</rpm>
</extensions>
</trkpt>
<trkpt lat="30.850929260" lon="34.788921356">
<ele>473.750000</ele>
<time>2013-11-20T10:53:04Z</time>
<speed>4.670000</speed>
<extensions>
<speed>4.7</speed>
<temp>0.00</temp>
<bpm>0</bpm>
<rpm>0.00</rpm>
</extensions>
</trkpt>
<trkpt lat="30.851093292" lon="34.789031982">
<ele>472.695313</ele>
<time>2013-11-20T10:53:09Z</time>
<speed>3.830000</speed>
<extensions>
<speed>3.8</speed>
<temp>0.00</temp>
<bpm>0</bpm>
<rpm>0.00</rpm>
</extensions>
</trkpt>
<trkpt lat="30.851242065" lon="34.789131165">
<ele>473.664063</ele>
<time>2013-11-20T10:53:14Z</time>
<speed>4.090000</speed>
<extensions>
<speed>4.1</speed>
<temp>0.00</temp>
<bpm>0</bpm>
<rpm>0.00</rpm>
</extensions>
</trkpt>
<trkpt lat="30.851379395" lon="34.789226532">
<ele>473.375000</ele>
<time>2013-11-20T10:53:19Z</time>
<speed>2.880000</speed>
<extensions>
<speed>2.9</speed>
<temp>0.00</temp>
<bpm>0</bpm>
<rpm>0.00</rpm>
</extensions>
</trkpt>
<trkpt lat="30.851465225" lon="34.789329529">
<ele>473.203125</ele>
<time>2013-11-20T10:53:24Z</time>
<speed>3.160000</speed>
<extensions>
<speed>3.2</speed>
<temp>0.00</temp>
<bpm>0</bpm>
<rpm>0.00</rpm>
</extensions>
</trkpt>
<trkpt lat="30.851531982" lon="34.789493561">
<ele>471.625000</ele>
<time>2013-11-20T10:53:29Z</time>
<speed>3.380000</speed>
<extensions>
<speed>3.4</speed>
<temp>0.00</temp>
<bpm>0</bpm>
<rpm>0.00</rpm>
</extensions>
</trkpt>
<trkpt lat="30.851589203" lon="34.789665222">
<ele>471.179688</ele>
<time>2013-11-20T10:53:34Z</time>
<speed>3.390000</speed>
<extensions>
<speed>3.4</speed>
<temp>0.00</temp>
<bpm>0</bpm>
<rpm>0.00</rpm>
</extensions>
</trkpt>
<trkpt lat="30.851676941" lon="34.789806366">
<ele>471.484375</ele>
<time>2013-11-20T10:53:39Z</time>
<speed>3.650000</speed>
<extensions>
<speed>3.7</speed>
<temp>0.00</temp>
<bpm>0</bpm>
<rpm>0.00</rpm>
</extensions>
</trkpt>
<trkpt lat="30.851724625" lon="34.789978027">
<ele>470.476563</ele>
<time>2013-11-20T10:53:44Z</time>
<speed>3.250000</speed>
<extensions>
<speed>3.2</speed>
<temp>0.00</temp>
<bpm>0</bpm>
<rpm>0.00</rpm>
</extensions>
</trkpt>
<trkpt lat="30.851758957" lon="34.790134430">
<ele>471.218750</ele>
<time>2013-11-20T10:53:49Z</time>
<speed>2.950000</speed>
<extensions>
<speed>2.9</speed>
<temp>0.00</temp>
<bpm>0</bpm>
<rpm>0.00</rpm>
</extensions>
</trkpt>
<trkpt lat="30.851867676" lon="34.790267944">
<ele>470.468750</ele>
<time>2013-11-20T10:53:54Z</time>
<speed>4.380000</speed>
<extensions>
<speed>4.4</speed>
<temp>0.00</temp>
<bpm>0</bpm>
<rpm>0.00</rpm>
</extensions>
</trkpt>
<trkpt lat="30.851985931" lon="34.790496826">
<ele>470.109375</ele>
<time>2013-11-20T10:53:59Z</time>
<speed>4.820000</speed>
<extensions>
<speed>4.8</speed>
<temp>0.00</temp>
<bpm>0</bpm>
<rpm>0.00</rpm>
</extensions>
</trkpt>
<trkpt lat="30.852018356" lon="34.790737152">
<ele>470.281250</ele>
<time>2013-11-20T10:54:04Z</time>
<speed>5.070000</speed>
<extensions>
<speed>5.1</speed>
<temp>0.00</temp>
<bpm>0</bpm>
<rpm>0.00</rpm>
</extensions>
</trkpt>
<trkpt lat="30.852027893" lon="34.790946960">
<ele>470.726563</ele>
<time>2013-11-20T10:54:09Z</time>
<speed>3.500000</speed>
<extensions>
<speed>3.5</speed>
<temp>0.00</temp>
<bpm>0</bpm>
<rpm>0.00</rpm>
</extensions>
</trkpt>
<trkpt lat="30.852005005" lon="34.791095734">
<ele>470.835938</ele>
<time>2013-11-20T10:54:14Z</time>
<speed>2.200000</speed>
<extensions>
<speed>2.2</speed>
<temp>0.00</temp>
<bpm>0</bpm>
<rpm>0.00</rpm>
</extensions>
</trkpt>
<trkpt lat="30.851940155" lon="34.791187286">
<ele>471.218750</ele>
<time>2013-11-20T10:54:19Z</time>
<speed>2.500000</speed>
<extensions>
<speed>2.5</speed>
<temp>0.00</temp>
<bpm>0</bpm>
<rpm>0.00</rpm>
</extensions>
</trkpt>
<trkpt lat="30.851848602" lon="34.791275024">
<ele>471.054688</ele>
<time>2013-11-20T10:54:24Z</time>
<speed>2.230000</speed>
<extensions>
<speed>2.2</speed>
<temp>0.00</temp>
<bpm>0</bpm>
<rpm>0.00</rpm>
</extensions>
</trkpt>
<trkpt lat="30.851808548" lon="34.791324615">
<ele>471.695313</ele>
<time>2013-11-20T10:54:29Z</time>
<speed>0.500000</speed>
<extensions>
<speed>0.5</speed>
<temp>0.00</temp>
<bpm>0</bpm>
<rpm>0.00</rpm>
</extensions>
</trkpt>
<trkpt lat="30.851785660" lon="34.791332245">
<ele>471.984375</ele>
<time>2013-11-20T10:54:34Z</time>
<speed>0.310000</speed>
<extensions>
<speed>0.3</speed>
<temp>0.00</temp>
<bpm>0</bpm>
<rpm>0.00</rpm>
</extensions>
</trkpt>
<trkpt lat="30.851781845" lon="34.791336060">
<ele>472.031250</ele>
<time>2013-11-20T10:54:39Z</time>
<speed>0.100000</speed>
<extensions>
<speed>0.1</speed>
<temp>0.00</temp>
<bpm>0</bpm>
<rpm>0.00</rpm>
</extensions>
</trkpt>
<trkpt lat="30.851779938" lon="34.791339874">
<ele>472.031250</ele>
<time>2013-11-20T10:54:44Z</time>
<speed>0.030000</speed>
<extensions>
<speed>0.0</speed>
<temp>0.00</temp>
<bpm>0</bpm>
<rpm>0.00</rpm>
</extensions>
</trkpt>
<trkpt lat="30.851781845" lon="34.791339874">
<ele>472.007813</ele>
<time>2013-11-20T10:54:49Z</time>
<extensions>
<speed>0.0</speed>
<temp>0.00</temp>
<bpm>0</bpm>
<rpm>0.00</rpm>
</extensions>
</trkpt>
<trkpt lat="30.851779938" lon="34.791339874">
<ele>472.007813</ele>
<time>2013-11-20T10:54:54Z</time>
<extensions>
<speed>0.0</speed>
<temp>0.00</temp>
<bpm>0</bpm>
<rpm>0.00</rpm>
</extensions>
</trkpt>
<trkpt lat="30.851779938" lon="34.791339874">
<ele>472.007813</ele>
<time>2013-11-20T10:54:59Z</time>
<speed>0.010000</speed>
<extensions>
<speed>0.0</speed>
<temp>0.00</temp>
<bpm>0</bpm>
<rpm>0.00</rpm>
</extensions>
</trkpt>
<trkpt lat="30.851779938" lon="34.791339874">
<ele>472.015625</ele>
<time>2013-11-20T10:55:04Z</time>
<extensions>
<speed>0.0</speed>
<temp>0.00</temp>
<bpm>0</bpm>
<rpm>0.00</rpm>
</extensions>
</trkpt>
<trkpt lat="30.851779938" lon="34.791343689">
<ele>472.007813</ele>
<time>2013-11-20T10:55:09Z</time>
<speed>0.020000</speed>
<extensions>
<speed>0.0</speed>
<temp>0.00</temp>
<bpm>0</bpm>
<rpm>0.00</rpm>
</extensions>
</trkpt>
<trkpt lat="30.851842880" lon="34.791343689">
<ele>472.140625</ele>
<time>2013-11-20T10:55:14Z</time>
<speed>2.600000</speed>
<extensions>
<speed>2.6</speed>
<temp>0.00</temp>
<bpm>0</bpm>
<rpm>0.00</rpm>
</extensions>
</trkpt>
<trkpt lat="30.852005005" lon="34.791343689">
<ele>472.750000</ele>
<time>2013-11-20T10:55:19Z</time>
<speed>3.310000</speed>
<extensions>
<speed>3.3</speed>
<temp>0.00</temp>
<bpm>0</bpm>
<rpm>0.00</rpm>
</extensions>
</trkpt>
<trkpt lat="30.852167130" lon="34.791423798">
<ele>472.718750</ele>
<time>2013-11-20T10:55:24Z</time>
<speed>4.020000</speed>
<extensions>
<speed>4.0</speed>
<temp>0.00</temp>
<bpm>0</bpm>
<rpm>0.00</rpm>
</extensions>
</trkpt>
<trkpt lat="30.852334976" lon="34.791458130">
<ele>472.460938</ele>
<time>2013-11-20T10:55:29Z</time>
<speed>3.310000</speed>
<extensions>
<speed>3.3</speed>
<temp>0.00</temp>
<bpm>0</bpm>
<rpm>0.00</rpm>
</extensions>
</trkpt>
<trkpt lat="30.852493286" lon="34.791397095">
<ele>471.953125</ele>
<time>2013-11-20T10:55:34Z</time>
<speed>4.130000</speed>
<extensions>
<speed>4.1</speed>
<temp>0.00</temp>
<bpm>0</bpm>
<rpm>0.00</rpm>
</extensions>
</trkpt>
<trkpt lat="30.852691650" lon="34.791404724">
<ele>471.726563</ele>
<time>2013-11-20T10:55:39Z</time>
<speed>4.170000</speed>
<extensions>
<speed>4.2</speed>
<temp>0.00</temp>
<bpm>0</bpm>
<rpm>0.00</rpm>
</extensions>
</trkpt>
<trkpt lat="30.852865219" lon="34.791515350">
<ele>471.812500</ele>
<time>2013-11-20T10:55:44Z</time>
<speed>4.010000</speed>
<extensions>
<speed>4.0</speed>
<temp>0.00</temp>
<bpm>0</bpm>
<rpm>0.00</rpm>
</extensions>
</trkpt>
<trkpt lat="30.852985382" lon="34.791683197">
<ele>471.460938</ele>
<time>2013-11-20T10:55:49Z</time>
<speed>4.970000</speed>
<extensions>
<speed>5.0</speed>
<temp>0.00</temp>
<bpm>0</bpm>
<rpm>0.00</rpm>
</extensions>
</trkpt>
<trkpt lat="30.853046417" lon="34.791915894">
<ele>471.281250</ele>
<time>2013-11-20T10:55:54Z</time>
<speed>4.730000</speed>
<extensions>
<speed>4.7</speed>
<temp>0.00</temp>
<bpm>0</bpm>
<rpm>0.00</rpm>
</extensions>
</trkpt>
<trkpt lat="30.853075027" lon="34.792140961">
<ele>472.351563</ele>
<time>2013-11-20T10:55:59Z</time>
<speed>3.960000</speed>
<extensions>
<speed>4.0</speed>
<temp>0.00</temp>
<bpm>0</bpm>
<rpm>0.00</rpm>
</extensions>
</trkpt>
<trkpt lat="30.853092194" lon="34.792308807">
<ele>472.828125</ele>
<time>2013-11-20T10:56:04Z</time>
<speed>3.500000</speed>
<extensions>
<speed>3.5</speed>
<temp>0.00</temp>
<bpm>0</bpm>
<rpm>0.00</rpm>
</extensions>
</trkpt>
<trkpt lat="30.853063583" lon="34.792533875">
<ele>470.382813</ele>
<time>2013-11-20T10:56:09Z</time>
<speed>5.500000</speed>
<extensions>
<speed>5.5</speed>
<temp>0.00</temp>
<bpm>0</bpm>
<rpm>0.00</rpm>
</extensions>
</trkpt>
<trkpt lat="30.853113174" lon="34.792827606">
<ele>467.609375</ele>
<time>2013-11-20T10:56:14Z</time>
<speed>6.490000</speed>
<extensions>
<speed>6.5</speed>
<temp>0.00</temp>
<bpm>0</bpm>
<rpm>0.00</rpm>
</extensions>
</trkpt>
<trkpt lat="30.853157043" lon="34.793132782">
<ele>470.687500</ele>
<time>2013-11-20T10:56:19Z</time>
<speed>5.400000</speed>
<extensions>
<speed>5.4</speed>
<temp>0.00</temp>
<bpm>0</bpm>
<rpm>0.00</rpm>
</extensions>
</trkpt>
<trkpt lat="30.853195190" lon="34.793380737">
<ele>472.585938</ele>
<time>2013-11-20T10:56:24Z</time>
<speed>5.050000</speed>
<extensions>
<speed>5.1</speed>
<temp>0.00</temp>
<bpm>0</bpm>
<rpm>0.00</rpm>
</extensions>
</trkpt>
<trkpt lat="30.853235245" lon="34.793659210">
<ele>471.820313</ele>
<time>2013-11-20T10:56:29Z</time>
<speed>3.650000</speed>
<extensions>
<speed>3.7</speed>
<temp>0.00</temp>
<bpm>0</bpm>
<rpm>0.00</rpm>
</extensions>
</trkpt>
<trkpt lat="30.853240967" lon="34.793880463">
<ele>472.632813</ele>
<time>2013-11-20T10:56:34Z</time>
<speed>4.610000</speed>
<extensions>
<speed>4.6</speed>
<temp>0.00</temp>
<bpm>0</bpm>
<rpm>0.00</rpm>
</extensions>
</trkpt>
<trkpt lat="30.853229523" lon="34.794116974">
<ele>471.890625</ele>
<time>2013-11-20T10:56:39Z</time>
<speed>4.770000</speed>
<extensions>
<speed>4.8</speed>
<temp>0.00</temp>
<bpm>0</bpm>
<rpm>0.00</rpm>
</extensions>
</trkpt>
<trkpt lat="30.853231430" lon="34.794353485">
<ele>471.921875</ele>
<time>2013-11-20T10:56:44Z</time>
<speed>4.150000</speed>
<extensions>
<speed>4.1</speed>
<temp>0.00</temp>
<bpm>0</bpm>
<rpm>0.00</rpm>
</extensions>
</trkpt>
<trkpt lat="30.853282928" lon="34.794563293">
<ele>471.640625</ele>
<time>2013-11-20T10:56:49Z</time>
<speed>3.940000</speed>
<extensions>
<speed>3.9</speed>
<temp>0.00</temp>
<bpm>0</bpm>
<rpm>0.00</rpm>
</extensions>
</trkpt>
<trkpt lat="30.853366852" lon="34.794742584">
<ele>470.054688</ele>
<time>2013-11-20T10:56:54Z</time>
<speed>4.150000</speed>
<extensions>
<speed>4.1</speed>
<temp>0.00</temp>
<bpm>0</bpm>
<rpm>0.00</rpm>
</extensions>
</trkpt>
<trkpt lat="30.853507996" lon="34.794845581">
<ele>470.796875</ele>
<time>2013-11-20T10:56:59Z</time>
<speed>4.190000</speed>
<extensions>
<speed>4.2</speed>
<temp>0.00</temp>
<bpm>0</bpm>
<rpm>0.00</rpm>
</extensions>
</trkpt>
<trkpt lat="30.853689194" lon="34.794898987">
<ele>471.031250</ele>
<time>2013-11-20T10:57:04Z</time>
<speed>4.310000</speed>
<extensions>
<speed>4.3</speed>
<temp>0.00</temp>
<bpm>0</bpm>
<rpm>0.00</rpm>
</extensions>
</trkpt>
<trkpt lat="30.853881836" lon="34.794937134">
<ele>471.882813</ele>
<time>2013-11-20T10:57:09Z</time>
<speed>4.200000</speed>
<extensions>
<speed>4.2</speed>
<temp>0.00</temp>
<bpm>0</bpm>
<rpm>0.00</rpm>
</extensions>
</trkpt>
<trkpt lat="30.854064941" lon="34.794975281">
<ele>468.460938</ele>
<time>2013-11-20T10:57:14Z</time>
<speed>4.470000</speed>
<extensions>
<speed>4.5</speed>
<temp>0.00</temp>
<bpm>0</bpm>
<rpm>0.00</rpm>
</extensions>
</trkpt>
<trkpt lat="30.854280472" lon="34.795024872">
<ele>468.570313</ele>
<time>2013-11-20T10:57:19Z</time>
<speed>4.930000</speed>
<extensions>
<speed>4.9</speed>
<temp>0.00</temp>
<bpm>0</bpm>
<rpm>0.00</rpm>
</extensions>
</trkpt>
<trkpt lat="30.854465485" lon="34.795066833">
<ele>468.421875</ele>
<time>2013-11-20T10:57:24Z</time>
<speed>3.740000</speed>
<extensions>
<speed>3.7</speed>
<temp>0.00</temp>
<bpm>0</bpm>
<rpm>0.00</rpm>
</extensions>
</trkpt>
<trkpt lat="30.854650497" lon="34.794998169">
<ele>467.523438</ele>
<time>2013-11-20T10:57:29Z</time>
<speed>4.860000</speed>
<extensions>
<speed>4.9</speed>
<temp>0.00</temp>
<bpm>0</bpm>
<rpm>0.00</rpm>
</extensions>
</trkpt>
<trkpt lat="30.854806900" lon="34.794986725">
<ele>470.070313</ele>
<time>2013-11-20T10:57:34Z</time>
<speed>3.610000</speed>
<extensions>
<speed>3.6</speed>
<temp>0.00</temp>
<bpm>0</bpm>
<rpm>0.00</rpm>
</extensions>
</trkpt>
<trkpt lat="30.854938507" lon="34.795139313">
<ele>470.187500</ele>
<time>2013-11-20T10:57:39Z</time>
<speed>3.480000</speed>
<extensions>
<speed>3.5</speed>
<temp>0.00</temp>
<bpm>0</bpm>
<rpm>0.00</rpm>
</extensions>
</trkpt>
<trkpt lat="30.855087280" lon="34.795257568">
<ele>468.875000</ele>
<time>2013-11-20T10:57:44Z</time>
<speed>4.230000</speed>
<extensions>
<speed>4.2</speed>
<temp>0.00</temp>
<bpm>0</bpm>
<rpm>0.00</rpm>
</extensions>
</trkpt>
<trkpt lat="30.855211258" lon="34.795406342">
<ele>470.054688</ele>
<time>2013-11-20T10:57:49Z</time>
<speed>3.540000</speed>
<extensions>
<speed>3.5</speed>
<temp>0.00</temp>
<bpm>0</bpm>
<rpm>0.00</rpm>
</extensions>
</trkpt>
<trkpt lat="30.855323792" lon="34.795513153">
<ele>470.859375</ele>
<time>2013-11-20T10:57:54Z</time>
<speed>2.970000</speed>
<extensions>
<speed>3.0</speed>
<temp>0.00</temp>
<bpm>0</bpm>
<rpm>0.00</rpm>
</extensions>
</trkpt>
<trkpt lat="30.855424881" lon="34.795635223">
<ele>471.718750</ele>
<time>2013-11-20T10:57:59Z</time>
<speed>3.720000</speed>
<extensions>
<speed>3.7</speed>
<temp>0.00</temp>
<bpm>0</bpm>
<rpm>0.00</rpm>
</extensions>
</trkpt>
<trkpt lat="30.855529785" lon="34.795806885">
<ele>473.031250</ele>
<time>2013-11-20T10:58:04Z</time>
<speed>3.840000</speed>
<extensions>
<speed>3.8</speed>
<temp>0.00</temp>
<bpm>0</bpm>
<rpm>0.00</rpm>
</extensions>
</trkpt>
<trkpt lat="30.855646133" lon="34.795967102">
<ele>474.664063</ele>
<time>2013-11-20T10:58:09Z</time>
<speed>4.520000</speed>
<extensions>
<speed>4.5</speed>
<temp>0.00</temp>
<bpm>0</bpm>
<rpm>0.00</rpm>
</extensions>
</trkpt>
<trkpt lat="30.855758667" lon="34.796154022">
<ele>472.781250</ele>
<time>2013-11-20T10:58:14Z</time>
<speed>4.270000</speed>
<extensions>
<speed>4.3</speed>
<temp>0.00</temp>
<bpm>0</bpm>
<rpm>0.00</rpm>
</extensions>
</trkpt>
<trkpt lat="30.855878830" lon="34.796325684">
<ele>469.031250</ele>
<time>2013-11-20T10:58:19Z</time>
<speed>4.120000</speed>
<extensions>
<speed>4.1</speed>
<temp>0.00</temp>
<bpm>0</bpm>
<rpm>0.00</rpm>
</extensions>
</trkpt>
<trkpt lat="30.856019974" lon="34.796485901">
<ele>464.828125</ele>
<time>2013-11-20T10:58:24Z</time>
<speed>4.200000</speed>
<extensions>
<speed>4.2</speed>
<temp>0.00</temp>
<bpm>0</bpm>
<rpm>0.00</rpm>
</extensions>
</trkpt>
<trkpt lat="30.856164932" lon="34.796649933">
<ele>463.304688</ele>
<time>2013-11-20T10:58:29Z</time>
<speed>2.570000</speed>
<extensions>
<speed>2.6</speed>
<temp>0.00</temp>
<bpm>0</bpm>
<rpm>0.00</rpm>
</extensions>
</trkpt>
<trkpt lat="30.856262207" lon="34.796745300">
<ele>463.476563</ele>
<time>2013-11-20T10:58:34Z</time>
<speed>3.730000</speed>
<extensions>
<speed>3.7</speed>
<temp>0.00</temp>
<bpm>0</bpm>
<rpm>0.00</rpm>
</extensions>
</trkpt>
<trkpt lat="30.856416702" lon="34.796886444">
<ele>466.312500</ele>
<time>2013-11-20T10:58:39Z</time>
<speed>4.800000</speed>
<extensions>
<speed>4.8</speed>
<temp>0.00</temp>
<bpm>0</bpm>
<rpm>0.00</rpm>
</extensions>
</trkpt>
<trkpt lat="30.856552124" lon="34.797019958">
<ele>468.062500</ele>
<time>2013-11-20T10:58:44Z</time>
<speed>3.990000</speed>
<extensions>
<speed>4.0</speed>
<temp>0.00</temp>
<bpm>0</bpm>
<rpm>0.00</rpm>
</extensions>
</trkpt>
<trkpt lat="30.856702805" lon="34.797138214">
<ele>468.578125</ele>
<time>2013-11-20T10:58:49Z</time>
<speed>4.110000</speed>
<extensions>
<speed>4.1</speed>
<temp>0.00</temp>
<bpm>0</bpm>
<rpm>0.00</rpm>
</extensions>
</trkpt>
<trkpt lat="30.856861115" lon="34.797267914">
<ele>470.257813</ele>
<time>2013-11-20T10:58:54Z</time>
<speed>4.200000</speed>
<extensions>
<speed>4.2</speed>
<temp>0.00</temp>
<bpm>0</bpm>
<rpm>0.00</rpm>
</extensions>
</trkpt>
<trkpt lat="30.856992722" lon="34.797382355">
<ele>471.656250</ele>
<time>2013-11-20T10:58:59Z</time>
<speed>3.170000</speed>
<extensions>
<speed>3.2</speed>
<temp>0.00</temp>
<bpm>0</bpm>
<rpm>0.00</rpm>
</extensions>
</trkpt>
<trkpt lat="30.857112885" lon="34.797466278">
<ele>471.890625</ele>
<time>2013-11-20T10:59:04Z</time>
<speed>2.260000</speed>
<extensions>
<speed>2.3</speed>
<temp>0.00</temp>
<bpm>0</bpm>
<rpm>0.00</rpm>
</extensions>
</trkpt>
<trkpt lat="30.857189178" lon="34.797595978">
<ele>470.406250</ele>
<time>2013-11-20T10:59:09Z</time>
<speed>4.160000</speed>
<extensions>
<speed>4.2</speed>
<temp>0.00</temp>
<bpm>0</bpm>
<rpm>0.00</rpm>
</extensions>
</trkpt>
<trkpt lat="30.857238770" lon="34.797863007">
<ele>469.421875</ele>
<time>2013-11-20T10:59:14Z</time>
<speed>5.390000</speed>
<extensions>
<speed>5.4</speed>
<temp>0.00</temp>
<bpm>0</bpm>
<rpm>0.00</rpm>
</extensions>
</trkpt>
<trkpt lat="30.857286453" lon="34.798152924">
<ele>470.117188</ele>
<time>2013-11-20T10:59:19Z</time>
<speed>5.450000</speed>
<extensions>
<speed>5.5</speed>
<temp>0.00</temp>
<bpm>0</bpm>
<rpm>0.00</rpm>
</extensions>
</trkpt>
<trkpt lat="30.857341766" lon="34.798412323">
<ele>470.117188</ele>
<time>2013-11-20T10:59:24Z</time>
<speed>4.520000</speed>
<extensions>
<speed>4.5</speed>
<temp>0.00</temp>
<bpm>0</bpm>
<rpm>0.00</rpm>
</extensions>
</trkpt>
<trkpt lat="30.857374191" lon="34.798641205">
<ele>470.460938</ele>
<time>2013-11-20T10:59:29Z</time>
<speed>4.390000</speed>
<extensions>
<speed>4.4</speed>
<temp>0.00</temp>
<bpm>0</bpm>
<rpm>0.00</rpm>
</extensions>
</trkpt>
<trkpt lat="30.857414246" lon="34.798858643">
<ele>470.679688</ele>
<time>2013-11-20T10:59:34Z</time>
<speed>4.510000</speed>
<extensions>
<speed>4.5</speed>
<temp>0.00</temp>
<bpm>0</bpm>
<rpm>0.00</rpm>
</extensions>
</trkpt>
<trkpt lat="30.857461929" lon="34.799083710">
<ele>471.000000</ele>
<time>2013-11-20T10:59:39Z</time>
<speed>4.500000</speed>
<extensions>
<speed>4.5</speed>
<temp>0.00</temp>
<bpm>0</bpm>
<rpm>0.00</rpm>
</extensions>
</trkpt>
<trkpt lat="30.857503891" lon="34.799312592">
<ele>470.085938</ele>
<time>2013-11-20T10:59:44Z</time>
<speed>4.590000</speed>
<extensions>
<speed>4.6</speed>
<temp>0.00</temp>
<bpm>0</bpm>
<rpm>0.00</rpm>
</extensions>
</trkpt>
<trkpt lat="30.857559204" lon="34.799537659">
<ele>470.171875</ele>
<time>2013-11-20T10:59:49Z</time>
<speed>4.640000</speed>
<extensions>
<speed>4.6</speed>
<temp>0.00</temp>
<bpm>0</bpm>
<rpm>0.00</rpm>
</extensions>
</trkpt>
<trkpt lat="30.857601166" lon="34.799785614">
<ele>470.039063</ele>
<time>2013-11-20T10:59:54Z</time>
<speed>4.690000</speed>
<extensions>
<speed>4.7</speed>
<temp>0.00</temp>
<bpm>0</bpm>
<rpm>0.00</rpm>
</extensions>
</trkpt>
<trkpt lat="30.857650757" lon="34.800022125">
<ele>471.015625</ele>
<time>2013-11-20T10:59:59Z</time>
<speed>4.450000</speed>
<extensions>
<speed>4.5</speed>
<temp>0.00</temp>
<bpm>0</bpm>
<rpm>0.00</rpm>
</extensions>
</trkpt>
<trkpt lat="30.857685089" lon="34.800258636">
<ele>471.976563</ele>
<time>2013-11-20T11:00:04Z</time>
<speed>4.860000</speed>
<extensions>
<speed>4.9</speed>
<temp>0.00</temp>
<bpm>0</bpm>
<rpm>0.00</rpm>
</extensions>
</trkpt>
<trkpt lat="30.857713699" lon="34.800506592">
<ele>472.531250</ele>
<time>2013-11-20T11:00:09Z</time>
<speed>4.770000</speed>
<extensions>
<speed>4.8</speed>
<temp>0.00</temp>
<bpm>0</bpm>
<rpm>0.00</rpm>
</extensions>
</trkpt>
<trkpt lat="30.857723236" lon="34.800754547">
<ele>473.414063</ele>
<time>2013-11-20T11:00:14Z</time>
<speed>4.890000</speed>
<extensions>
<speed>4.9</speed>
<temp>0.00</temp>
<bpm>0</bpm>
<rpm>0.00</rpm>
</extensions>
</trkpt>
<trkpt lat="30.857730865" lon="34.801010132">
<ele>472.890625</ele>
<time>2013-11-20T11:00:19Z</time>
<speed>4.730000</speed>
<extensions>
<speed>4.7</speed>
<temp>0.00</temp>
<bpm>0</bpm>
<rpm>0.00</rpm>
</extensions>
</trkpt>
<trkpt lat="30.857717514" lon="34.801261902">
<ele>472.640625</ele>
<time>2013-11-20T11:00:24Z</time>
<speed>4.680000</speed>
<extensions>
<speed>4.7</speed>
<temp>0.00</temp>
<bpm>0</bpm>
<rpm>0.00</rpm>
</extensions>
</trkpt>
<trkpt lat="30.857707977" lon="34.801498413">
<ele>473.023438</ele>
<time>2013-11-20T11:00:29Z</time>
<speed>3.640000</speed>
<extensions>
<speed>3.6</speed>
<temp>0.00</temp>
<bpm>0</bpm>
<rpm>0.00</rpm>
</extensions>
</trkpt>
<trkpt lat="30.857620239" lon="34.801628113">
<ele>473.546875</ele>
<time>2013-11-20T11:00:34Z</time>
<speed>3.610000</speed>
<extensions>
<speed>3.6</speed>
<temp>0.00</temp>
<bpm>0</bpm>
<rpm>0.00</rpm>
</extensions>
</trkpt>
<trkpt lat="30.857450485" lon="34.801731110">
<ele>472.257813</ele>
<time>2013-11-20T11:00:39Z</time>
<speed>4.730000</speed>
<extensions>
<speed>4.7</speed>
<temp>0.00</temp>
<bpm>0</bpm>
<rpm>0.00</rpm>
</extensions>
</trkpt>
<trkpt lat="30.857301712" lon="34.801898956">
<ele>473.062500</ele>
<time>2013-11-20T11:00:44Z</time>
<speed>4.640000</speed>
<extensions>
<speed>4.6</speed>
<temp>0.00</temp>
<bpm>0</bpm>
<rpm>0.00</rpm>
</extensions>
</trkpt>
<trkpt lat="30.857120514" lon="34.802074432">
<ele>473.203125</ele>
<time>2013-11-20T11:00:49Z</time>
<speed>5.100000</speed>
<extensions>
<speed>5.1</speed>
<temp>0.00</temp>
<bpm>0</bpm>
<rpm>0.00</rpm>
</extensions>
</trkpt>
<trkpt lat="30.856956482" lon="34.802265167">
<ele>473.515625</ele>
<time>2013-11-20T11:00:54Z</time>
<speed>4.800000</speed>
<extensions>
<speed>4.8</speed>
<temp>0.00</temp>
<bpm>0</bpm>
<rpm>0.00</rpm>
</extensions>
</trkpt>
<trkpt lat="30.856786728" lon="34.802448273">
<ele>475.531250</ele>
<time>2013-11-20T11:00:59Z</time>
<speed>5.240000</speed>
<extensions>
<speed>5.2</speed>
<temp>0.00</temp>
<bpm>0</bpm>
<rpm>0.00</rpm>
</extensions>
</trkpt>
<trkpt lat="30.856618881" lon="34.802631378">
<ele>475.687500</ele>
<time>2013-11-20T11:01:04Z</time>
<speed>5.360000</speed>
<extensions>
<speed>5.4</speed>
<temp>0.00</temp>
<bpm>0</bpm>
<rpm>0.00</rpm>
</extensions>
</trkpt>
<trkpt lat="30.856430054" lon="34.802791595">
<ele>476.742188</ele>
<time>2013-11-20T11:01:09Z</time>
<speed>5.020000</speed>
<extensions>
<speed>5.0</speed>
<temp>0.00</temp>
<bpm>0</bpm>
<rpm>0.00</rpm>
</extensions>
</trkpt>
<trkpt lat="30.856264114" lon="34.802951813">
<ele>477.093750</ele>
<time>2013-11-20T11:01:14Z</time>
<speed>4.510000</speed>
<extensions>
<speed>4.5</speed>
<temp>0.00</temp>
<bpm>0</bpm>
<rpm>0.00</rpm>
</extensions>
</trkpt>
<trkpt lat="30.856153488" lon="34.803157806">
<ele>475.570313</ele>
<time>2013-11-20T11:01:19Z</time>
<speed>4.470000</speed>
<extensions>
<speed>4.5</speed>
<temp>0.00</temp>
<bpm>0</bpm>
<rpm>0.00</rpm>
</extensions>
</trkpt>
<trkpt lat="30.856161118" lon="34.803432465">
<ele>474.789063</ele>
<time>2013-11-20T11:01:24Z</time>
<speed>5.750000</speed>
<extensions>
<speed>5.8</speed>
<temp>0.00</temp>
<bpm>0</bpm>
<rpm>0.00</rpm>
</extensions>
</trkpt>
<trkpt lat="30.856172562" lon="34.803718567">
<ele>473.664063</ele>
<time>2013-11-20T11:01:29Z</time>
<speed>4.580000</speed>
<extensions>
<speed>4.6</speed>
<temp>0.00</temp>
<bpm>0</bpm>
<rpm>0.00</rpm>
</extensions>
</trkpt>
<trkpt lat="30.856079102" lon="34.803947449">
<ele>472.500000</ele>
<time>2013-11-20T11:01:34Z</time>
<speed>5.180000</speed>
<extensions>
<speed>5.2</speed>
<temp>0.00</temp>
<bpm>0</bpm>
<rpm>0.00</rpm>
</extensions>
</trkpt>
<trkpt lat="30.855947495" lon="34.804168701">
<ele>474.078125</ele>
<time>2013-11-20T11:01:39Z</time>
<speed>5.060000</speed>
<extensions>
<speed>5.1</speed>
<temp>0.00</temp>
<bpm>0</bpm>
<rpm>0.00</rpm>
</extensions>
</trkpt>
<trkpt lat="30.855859756" lon="34.804405212">
<ele>474.851563</ele>
<time>2013-11-20T11:01:44Z</time>
<speed>4.220000</speed>
<extensions>
<speed>4.2</speed>
<temp>0.00</temp>
<bpm>0</bpm>
<rpm>0.00</rpm>
</extensions>
</trkpt>
<trkpt lat="30.855827332" lon="34.804515839">
<ele>476.765625</ele>
<time>2013-11-20T11:01:49Z</time>
<speed>1.340000</speed>
<extensions>
<speed>1.3</speed>
<temp>0.00</temp>
<bpm>0</bpm>
<rpm>0.00</rpm>
</extensions>
</trkpt>
<trkpt lat="30.855876923" lon="34.804565430">
<ele>476.515625</ele>
<time>2013-11-20T11:01:54Z</time>
<speed>1.840000</speed>
<extensions>
<speed>1.8</speed>
<temp>0.00</temp>
<bpm>0</bpm>
<rpm>0.00</rpm>
</extensions>
</trkpt>
<trkpt lat="30.855897903" lon="34.804733276">
<ele>476.109375</ele>
<time>2013-11-20T11:01:59Z</time>
<speed>3.730000</speed>
<extensions>
<speed>3.7</speed>
<temp>0.00</temp>
<bpm>0</bpm>
<rpm>0.00</rpm>
</extensions>
</trkpt>
<trkpt lat="30.855852127" lon="34.804916382">
<ele>474.726563</ele>
<time>2013-11-20T11:02:04Z</time>
<speed>3.470000</speed>
<extensions>
<speed>3.5</speed>
<temp>0.00</temp>
<bpm>0</bpm>
<rpm>0.00</rpm>
</extensions>
</trkpt>
<trkpt lat="30.855798721" lon="34.805000305">
<ele>473.875000</ele>
<time>2013-11-20T11:02:09Z</time>
<speed>0.810000</speed>
<extensions>
<speed>0.8</speed>
<temp>0.00</temp>
<bpm>0</bpm>
<rpm>0.00</rpm>
</extensions>
</trkpt>
<trkpt lat="30.855779648" lon="34.805027008">
<ele>472.828125</ele>
<time>2013-11-20T11:02:14Z</time>
<speed>0.200000</speed>
<extensions>
<speed>0.2</speed>
<temp>0.00</temp>
<bpm>0</bpm>
<rpm>0.00</rpm>
</extensions>
</trkpt>
<trkpt lat="30.855775833" lon="34.805027008">
<ele>472.414063</ele>
<time>2013-11-20T11:02:19Z</time>
<speed>0.070000</speed>
<extensions>
<speed>0.1</speed>
<temp>0.00</temp>
<bpm>0</bpm>
<rpm>0.00</rpm>
</extensions>
</trkpt>
<trkpt lat="30.855773926" lon="34.805027008">
<ele>472.351563</ele>
<time>2013-11-20T11:02:24Z</time>
<speed>0.110000</speed>
<extensions>
<speed>0.1</speed>
<temp>0.00</temp>
<bpm>0</bpm>
<rpm>0.00</rpm>
</extensions>
</trkpt>
<trkpt lat="30.855770111" lon="34.805030823">
<ele>472.343750</ele>
<time>2013-11-20T11:02:29Z</time>
<speed>0.100000</speed>
<extensions>
<speed>0.1</speed>
<temp>0.00</temp>
<bpm>0</bpm>
<rpm>0.00</rpm>
</extensions>
</trkpt>
<trkpt lat="30.855770111" lon="34.805030823">
<ele>472.343750</ele>
<time>2013-11-20T11:02:34Z</time>
<speed>0.010000</speed>
<extensions>
<speed>0.0</speed>
<temp>0.00</temp>
<bpm>0</bpm>
<rpm>0.00</rpm>
</extensions>
</trkpt>
<trkpt lat="30.855770111" lon="34.805030823">
<ele>472.343750</ele>
<time>2013-11-20T11:02:39Z</time>
<extensions>
<speed>0.0</speed>
<temp>0.00</temp>
<bpm>0</bpm>
<rpm>0.00</rpm>
</extensions>
</trkpt>
<trkpt lat="30.855770111" lon="34.805030823">
<ele>472.359375</ele>
<time>2013-11-20T11:02:44Z</time>
<speed>0.020000</speed>
<extensions>
<speed>0.0</speed>
<temp>0.00</temp>
<bpm>0</bpm>
<rpm>0.00</rpm>
</extensions>
</trkpt>
<trkpt lat="30.855770111" lon="34.805030823">
<ele>472.359375</ele>
<time>2013-11-20T11:02:49Z</time>
<speed>0.040000</speed>
<extensions>
<speed>0.0</speed>
<temp>0.00</temp>
<bpm>0</bpm>
<rpm>0.00</rpm>
</extensions>
</trkpt>
<trkpt lat="30.855770111" lon="34.805030823">
<ele>472.343750</ele>
<time>2013-11-20T11:02:54Z</time>
<speed>0.010000</speed>
<extensions>
<speed>0.0</speed>
<temp>0.00</temp>
<bpm>0</bpm>
<rpm>0.00</rpm>
</extensions>
</trkpt>
<trkpt lat="30.855770111" lon="34.805030823">
<ele>472.343750</ele>
<time>2013-11-20T11:02:59Z</time>
<extensions>
<speed>0.0</speed>
<temp>0.00</temp>
<bpm>0</bpm>
<rpm>0.00</rpm>
</extensions>
</trkpt>
<trkpt lat="30.855770111" lon="34.805030823">
<ele>472.359375</ele>
<time>2013-11-20T11:03:04Z</time>
<speed>0.020000</speed>
<extensions>
<speed>0.0</speed>
<temp>0.00</temp>
<bpm>0</bpm>
<rpm>0.00</rpm>
</extensions>
</trkpt>
<trkpt lat="30.855770111" lon="34.805030823">
<ele>472.382813</ele>
<time>2013-11-20T11:03:09Z</time>
<speed>0.010000</speed>
<extensions>
<speed>0.0</speed>
<temp>0.00</temp>
<bpm>0</bpm>
<rpm>0.00</rpm>
</extensions>
</trkpt>
<trkpt lat="30.855770111" lon="34.805030823">
<ele>472.382813</ele>
<time>2013-11-20T11:03:14Z</time>
<extensions>
<speed>0.0</speed>
<temp>0.00</temp>
<bpm>0</bpm>
<rpm>0.00</rpm>
</extensions>
</trkpt>
<trkpt lat="30.855770111" lon="34.805030823">
<ele>472.406250</ele>
<time>2013-11-20T11:03:19Z</time>
<speed>0.010000</speed>
<extensions>
<speed>0.0</speed>
<temp>0.00</temp>
<bpm>0</bpm>
<rpm>0.00</rpm>
</extensions>
</trkpt>
<trkpt lat="30.855770111" lon="34.805030823">
<ele>472.398438</ele>
<time>2013-11-20T11:03:24Z</time>
<extensions>
<speed>0.0</speed>
<temp>0.00</temp>
<bpm>0</bpm>
<rpm>0.00</rpm>
</extensions>
</trkpt>
<trkpt lat="30.855770111" lon="34.805030823">
<ele>472.398438</ele>
<time>2013-11-20T11:03:29Z</time>
<speed>0.020000</speed>
<extensions>
<speed>0.0</speed>
<temp>0.00</temp>
<bpm>0</bpm>
<rpm>0.00</rpm>
</extensions>
</trkpt>
<trkpt lat="30.855770111" lon="34.805030823">
<ele>472.406250</ele>
<time>2013-11-20T11:03:34Z</time>
<extensions>
<speed>0.0</speed>
<temp>0.00</temp>
<bpm>0</bpm>
<rpm>0.00</rpm>
</extensions>
</trkpt>
<trkpt lat="30.855770111" lon="34.805030823">
<ele>472.429688</ele>
<time>2013-11-20T11:03:39Z</time>
<speed>0.010000</speed>
<extensions>
<speed>0.0</speed>
<temp>0.00</temp>
<bpm>0</bpm>
<rpm>0.00</rpm>
</extensions>
</trkpt>
<trkpt lat="30.855770111" lon="34.805030823">
<ele>472.445313</ele>
<time>2013-11-20T11:03:44Z</time>
<extensions>
<speed>0.0</speed>
<temp>0.00</temp>
<bpm>0</bpm>
<rpm>0.00</rpm>
</extensions>
</trkpt>
<trkpt lat="30.855770111" lon="34.805030823">
<ele>472.437500</ele>
<time>2013-11-20T11:03:49Z</time>
<speed>0.020000</speed>
<extensions>
<speed>0.0</speed>
<temp>0.00</temp>
<bpm>0</bpm>
<rpm>0.00</rpm>
</extensions>
</trkpt>
<trkpt lat="30.855770111" lon="34.805030823">
<ele>472.460938</ele>
<time>2013-11-20T11:03:54Z</time>
<speed>0.010000</speed>
<extensions>
<speed>0.0</speed>
<temp>0.00</temp>
<bpm>0</bpm>
<rpm>0.00</rpm>
</extensions>
</trkpt>
<trkpt lat="30.855770111" lon="34.805030823">
<ele>472.453125</ele>
<time>2013-11-20T11:03:59Z</time>
<speed>0.020000</speed>
<extensions>
<speed>0.0</speed>
<temp>0.00</temp>
<bpm>0</bpm>
<rpm>0.00</rpm>
</extensions>
</trkpt>
<trkpt lat="30.855770111" lon="34.805030823">
<ele>472.468750</ele>
<time>2013-11-20T11:04:04Z</time>
<speed>0.030000</speed>
<extensions>
<speed>0.0</speed>
<temp>0.00</temp>
<bpm>0</bpm>
<rpm>0.00</rpm>
</extensions>
</trkpt>
<trkpt lat="30.855770111" lon="34.805030823">
<ele>472.492188</ele>
<time>2013-11-20T11:04:09Z</time>
<extensions>
<speed>0.0</speed>
<temp>0.00</temp>
<bpm>0</bpm>
<rpm>0.00</rpm>
</extensions>
</trkpt>
<trkpt lat="30.855770111" lon="34.805030823">
<ele>472.507813</ele>
<time>2013-11-20T11:04:14Z</time>
<speed>0.010000</speed>
<extensions>
<speed>0.0</speed>
<temp>0.00</temp>
<bpm>0</bpm>
<rpm>0.00</rpm>
</extensions>
</trkpt>
<trkpt lat="30.855770111" lon="34.805030823">
<ele>472.523438</ele>
<time>2013-11-20T11:04:19Z</time>
<speed>0.010000</speed>
<extensions>
<speed>0.0</speed>
<temp>0.00</temp>
<bpm>0</bpm>
<rpm>0.00</rpm>
</extensions>
</trkpt>
<trkpt lat="30.855770111" lon="34.805030823">
<ele>472.546875</ele>
<time>2013-11-20T11:04:24Z</time>
<speed>0.010000</speed>
<extensions>
<speed>0.0</speed>
<temp>0.00</temp>
<bpm>0</bpm>
<rpm>0.00</rpm>
</extensions>
</trkpt>
<trkpt lat="30.855770111" lon="34.805030823">
<ele>472.531250</ele>
<time>2013-11-20T11:04:29Z</time>
<speed>0.130000</speed>
<extensions>
<speed>0.1</speed>
<temp>0.00</temp>
<bpm>0</bpm>
<rpm>0.00</rpm>
</extensions>
</trkpt>
<trkpt lat="30.855768204" lon="34.805065155">
<ele>472.515625</ele>
<time>2013-11-20T11:04:34Z</time>
<speed>0.720000</speed>
<extensions>
<speed>0.7</speed>
<temp>0.00</temp>
<bpm>0</bpm>
<rpm>0.00</rpm>
</extensions>
</trkpt>
<trkpt lat="30.855758667" lon="34.805023193">
<ele>473.039063</ele>
<time>2013-11-20T11:04:39Z</time>
<speed>1.710000</speed>
<extensions>
<speed>1.7</speed>
<temp>0.00</temp>
<bpm>0</bpm>
<rpm>0.00</rpm>
</extensions>
</trkpt>
<trkpt lat="30.855838776" lon="34.804935455">
<ele>474.007813</ele>
<time>2013-11-20T11:04:44Z</time>
<speed>3.520000</speed>
<extensions>
<speed>3.5</speed>
<temp>0.00</temp>
<bpm>0</bpm>
<rpm>0.00</rpm>
</extensions>
</trkpt>
<trkpt lat="30.855951309" lon="34.804763794">
<ele>473.804688</ele>
<time>2013-11-20T11:04:49Z</time>
<speed>4.350000</speed>
<extensions>
<speed>4.3</speed>
<temp>0.00</temp>
<bpm>0</bpm>
<rpm>0.00</rpm>
</extensions>
</trkpt>
<trkpt lat="30.856088638" lon="34.804603577">
<ele>473.609375</ele>
<time>2013-11-20T11:04:54Z</time>
<speed>4.000000</speed>
<extensions>
<speed>4.0</speed>
<temp>0.00</temp>
<bpm>0</bpm>
<rpm>0.00</rpm>
</extensions>
</trkpt>
<trkpt lat="30.856264114" lon="34.804550171">
<ele>474.992188</ele>
<time>2013-11-20T11:04:59Z</time>
<speed>4.030000</speed>
<extensions>
<speed>4.0</speed>
<temp>0.00</temp>
<bpm>0</bpm>
<rpm>0.00</rpm>
</extensions>
</trkpt>
<trkpt lat="30.856441498" lon="34.804508209">
<ele>474.703125</ele>
<time>2013-11-20T11:05:04Z</time>
<speed>4.140000</speed>
<extensions>
<speed>4.1</speed>
<temp>0.00</temp>
<bpm>0</bpm>
<rpm>0.00</rpm>
</extensions>
</trkpt>
<trkpt lat="30.856611252" lon="34.804477692">
<ele>475.171875</ele>
<time>2013-11-20T11:05:09Z</time>
<speed>3.440000</speed>
<extensions>
<speed>3.4</speed>
<temp>0.00</temp>
<bpm>0</bpm>
<rpm>0.00</rpm>
</extensions>
</trkpt>
<trkpt lat="30.856794357" lon="34.804550171">
<ele>473.000000</ele>
<time>2013-11-20T11:05:14Z</time>
<speed>4.230000</speed>
<extensions>
<speed>4.2</speed>
<temp>0.00</temp>
<bpm>0</bpm>
<rpm>0.00</rpm>
</extensions>
</trkpt>
<trkpt lat="30.856977463" lon="34.804679871">
<ele>471.921875</ele>
<time>2013-11-20T11:05:19Z</time>
<speed>4.750000</speed>
<extensions>
<speed>4.8</speed>
<temp>0.00</temp>
<bpm>0</bpm>
<rpm>0.00</rpm>
</extensions>
</trkpt>
<trkpt lat="30.857145309" lon="34.804840088">
<ele>473.398438</ele>
<time>2013-11-20T11:05:24Z</time>
<speed>4.390000</speed>
<extensions>
<speed>4.4</speed>
<temp>0.00</temp>
<bpm>0</bpm>
<rpm>0.00</rpm>
</extensions>
</trkpt>
<trkpt lat="30.857303619" lon="34.804950714">
<ele>473.179688</ele>
<time>2013-11-20T11:05:29Z</time>
<speed>4.300000</speed>
<extensions>
<speed>4.3</speed>
<temp>0.00</temp>
<bpm>0</bpm>
<rpm>0.00</rpm>
</extensions>
</trkpt>
<trkpt lat="30.857482910" lon="34.805068970">
<ele>472.640625</ele>
<time>2013-11-20T11:05:34Z</time>
<speed>4.620000</speed>
<extensions>
<speed>4.6</speed>
<temp>0.00</temp>
<bpm>0</bpm>
<rpm>0.00</rpm>
</extensions>
</trkpt>
<trkpt lat="30.857692719" lon="34.805152893">
<ele>472.710938</ele>
<time>2013-11-20T11:05:39Z</time>
<speed>4.950000</speed>
<extensions>
<speed>4.9</speed>
<temp>0.00</temp>
<bpm>0</bpm>
<rpm>0.00</rpm>
</extensions>
</trkpt>
<trkpt lat="30.857885361" lon="34.805213928">
<ele>471.695313</ele>
<time>2013-11-20T11:05:44Z</time>
<speed>4.410000</speed>
<extensions>
<speed>4.4</speed>
<temp>0.00</temp>
<bpm>0</bpm>
<rpm>0.00</rpm>
</extensions>
</trkpt>
<trkpt lat="30.858085632" lon="34.805244446">
<ele>471.898438</ele>
<time>2013-11-20T11:05:49Z</time>
<speed>4.550000</speed>
<extensions>
<speed>4.5</speed>
<temp>0.00</temp>
<bpm>0</bpm>
<rpm>0.00</rpm>
</extensions>
</trkpt>
<trkpt lat="30.858280182" lon="34.805282593">
<ele>469.828125</ele>
<time>2013-11-20T11:05:54Z</time>
<speed>4.080000</speed>
<extensions>
<speed>4.1</speed>
<temp>0.00</temp>
<bpm>0</bpm>
<rpm>0.00</rpm>
</extensions>
</trkpt>
<trkpt lat="30.858465195" lon="34.805332184">
<ele>469.906250</ele>
<time>2013-11-20T11:05:59Z</time>
<speed>4.150000</speed>
<extensions>
<speed>4.1</speed>
<temp>0.00</temp>
<bpm>0</bpm>
<rpm>0.00</rpm>
</extensions>
</trkpt>
<trkpt lat="30.858650208" lon="34.805416107">
<ele>470.601563</ele>
<time>2013-11-20T11:06:04Z</time>
<speed>4.660000</speed>
<extensions>
<speed>4.7</speed>
<temp>0.00</temp>
<bpm>0</bpm>
<rpm>0.00</rpm>
</extensions>
</trkpt>
<trkpt lat="30.858806610" lon="34.805519104">
<ele>470.523438</ele>
<time>2013-11-20T11:06:09Z</time>
<speed>4.070000</speed>
<extensions>
<speed>4.1</speed>
<temp>0.00</temp>
<bpm>0</bpm>
<rpm>0.00</rpm>
</extensions>
</trkpt>
<trkpt lat="30.858963013" lon="34.805526733">
<ele>471.671875</ele>
<time>2013-11-20T11:06:14Z</time>
<speed>3.610000</speed>
<extensions>
<speed>3.6</speed>
<temp>0.00</temp>
<bpm>0</bpm>
<rpm>0.00</rpm>
</extensions>
</trkpt>
<trkpt lat="30.859107971" lon="34.805519104">
<ele>473.789063</ele>
<time>2013-11-20T11:06:19Z</time>
<speed>3.040000</speed>
<extensions>
<speed>3.0</speed>
<temp>0.00</temp>
<bpm>0</bpm>
<rpm>0.00</rpm>
</extensions>
</trkpt>
<trkpt lat="30.859252930" lon="34.805591583">
<ele>473.531250</ele>
<time>2013-11-20T11:06:24Z</time>
<speed>4.090000</speed>
<extensions>
<speed>4.1</speed>
<temp>0.00</temp>
<bpm>0</bpm>
<rpm>0.00</rpm>
</extensions>
</trkpt>
<trkpt lat="30.859439850" lon="34.805694580">
<ele>472.265625</ele>
<time>2013-11-20T11:06:29Z</time>
<speed>5.050000</speed>
<extensions>
<speed>5.1</speed>
<temp>0.00</temp>
<bpm>0</bpm>
<rpm>0.00</rpm>
</extensions>
</trkpt>
<trkpt lat="30.859657288" lon="34.805709839">
<ele>472.578125</ele>
<time>2013-11-20T11:06:34Z</time>
<speed>4.530000</speed>
<extensions>
<speed>4.5</speed>
<temp>0.00</temp>
<bpm>0</bpm>
<rpm>0.00</rpm>
</extensions>
</trkpt>
<trkpt lat="30.859844208" lon="34.805686951">
<ele>472.734375</ele>
<time>2013-11-20T11:06:39Z</time>
<speed>3.850000</speed>
<extensions>
<speed>3.8</speed>
<temp>0.00</temp>
<bpm>0</bpm>
<rpm>0.00</rpm>
</extensions>
</trkpt>
<trkpt lat="30.859989166" lon="34.805614471">
<ele>474.765625</ele>
<time>2013-11-20T11:06:44Z</time>
<speed>3.930000</speed>
<extensions>
<speed>3.9</speed>
<temp>0.00</temp>
<bpm>0</bpm>
<rpm>0.00</rpm>
</extensions>
</trkpt>
<trkpt lat="30.860155106" lon="34.805538177">
<ele>472.734375</ele>
<time>2013-11-20T11:06:49Z</time>
<speed>3.950000</speed>
<extensions>
<speed>4.0</speed>
<temp>0.00</temp>
<bpm>0</bpm>
<rpm>0.00</rpm>
</extensions>
</trkpt>
<trkpt lat="30.860301971" lon="34.805629730">
<ele>472.796875</ele>
<time>2013-11-20T11:06:54Z</time>
<speed>3.090000</speed>
<extensions>
<speed>3.1</speed>
<temp>0.00</temp>
<bpm>0</bpm>
<rpm>0.00</rpm>
</extensions>
</trkpt>
<trkpt lat="30.860404968" lon="34.805732727">
<ele>473.742188</ele>
<time>2013-11-20T11:06:59Z</time>
<speed>3.490000</speed>
<extensions>
<speed>3.5</speed>
<temp>0.00</temp>
<bpm>0</bpm>
<rpm>0.00</rpm>
</extensions>
</trkpt>
<trkpt lat="30.860565186" lon="34.805816650">
<ele>473.437500</ele>
<time>2013-11-20T11:07:04Z</time>
<speed>3.720000</speed>
<extensions>
<speed>3.7</speed>
<temp>0.00</temp>
<bpm>0</bpm>
<rpm>0.00</rpm>
</extensions>
</trkpt>
<trkpt lat="30.860725403" lon="34.805877686">
<ele>472.046875</ele>
<time>2013-11-20T11:07:09Z</time>
<speed>3.880000</speed>
<extensions>
<speed>3.9</speed>
<temp>0.00</temp>
<bpm>0</bpm>
<rpm>0.00</rpm>
</extensions>
</trkpt>
<trkpt lat="30.860895157" lon="34.805938721">
<ele>472.765625</ele>
<time>2013-11-20T11:07:14Z</time>
<speed>3.790000</speed>
<extensions>
<speed>3.8</speed>
<temp>0.00</temp>
<bpm>0</bpm>
<rpm>0.00</rpm>
</extensions>
</trkpt>
<trkpt lat="30.861053467" lon="34.806011200">
<ele>472.359375</ele>
<time>2013-11-20T11:07:19Z</time>
<speed>4.020000</speed>
<extensions>
<speed>4.0</speed>
<temp>0.00</temp>
<bpm>0</bpm>
<rpm>0.00</rpm>
</extensions>
</trkpt>
<trkpt lat="30.861215591" lon="34.806079865">
<ele>473.984375</ele>
<time>2013-11-20T11:07:24Z</time>
<speed>4.060000</speed>
<extensions>
<speed>4.1</speed>
<temp>0.00</temp>
<bpm>0</bpm>
<rpm>0.00</rpm>
</extensions>
</trkpt>
<trkpt lat="30.861394882" lon="34.806163788">
<ele>473.054688</ele>
<time>2013-11-20T11:07:29Z</time>
<speed>3.980000</speed>
<extensions>
<speed>4.0</speed>
<temp>0.00</temp>
<bpm>0</bpm>
<rpm>0.00</rpm>
</extensions>
</trkpt>
<trkpt lat="30.861564636" lon="34.806236267">
<ele>472.820313</ele>
<time>2013-11-20T11:07:34Z</time>
<speed>3.840000</speed>
<extensions>
<speed>3.8</speed>
<temp>0.00</temp>
<bpm>0</bpm>
<rpm>0.00</rpm>
</extensions>
</trkpt>
<trkpt lat="30.861730576" lon="34.806320190">
<ele>474.164063</ele>
<time>2013-11-20T11:07:39Z</time>
<speed>3.880000</speed>
<extensions>
<speed>3.9</speed>
<temp>0.00</temp>
<bpm>0</bpm>
<rpm>0.00</rpm>
</extensions>
</trkpt>
<trkpt lat="30.861894608" lon="34.806400299">
<ele>476.335938</ele>
<time>2013-11-20T11:07:44Z</time>
<speed>3.920000</speed>
<extensions>
<speed>3.9</speed>
<temp>0.00</temp>
<bpm>0</bpm>
<rpm>0.00</rpm>
</extensions>
</trkpt>
<trkpt lat="30.862062454" lon="34.806472778">
<ele>475.054688</ele>
<time>2013-11-20T11:07:49Z</time>
<speed>3.950000</speed>
<extensions>
<speed>4.0</speed>
<temp>0.00</temp>
<bpm>0</bpm>
<rpm>0.00</rpm>
</extensions>
</trkpt>
<trkpt lat="30.862236023" lon="34.806537628">
<ele>473.781250</ele>
<time>2013-11-20T11:07:54Z</time>
<speed>4.020000</speed>
<extensions>
<speed>4.0</speed>
<temp>0.00</temp>
<bpm>0</bpm>
<rpm>0.00</rpm>
</extensions>
</trkpt>
<trkpt lat="30.862419128" lon="34.806606293">
<ele>472.656250</ele>
<time>2013-11-20T11:07:59Z</time>
<speed>4.190000</speed>
<extensions>
<speed>4.2</speed>
<temp>0.00</temp>
<bpm>0</bpm>
<rpm>0.00</rpm>
</extensions>
</trkpt>
<trkpt lat="30.862590790" lon="34.806659698">
<ele>471.203125</ele>
<time>2013-11-20T11:08:04Z</time>
<speed>3.620000</speed>
<extensions>
<speed>3.6</speed>
<temp>0.00</temp>
<bpm>0</bpm>
<rpm>0.00</rpm>
</extensions>
</trkpt>
<trkpt lat="30.862747192" lon="34.806716919">
<ele>472.953125</ele>
<time>2013-11-20T11:08:09Z</time>
<speed>3.850000</speed>
<extensions>
<speed>3.8</speed>
<temp>0.00</temp>
<bpm>0</bpm>
<rpm>0.00</rpm>
</extensions>
</trkpt>
<trkpt lat="30.862913132" lon="34.806777954">
<ele>473.390625</ele>
<time>2013-11-20T11:08:14Z</time>
<speed>3.950000</speed>
<extensions>
<speed>4.0</speed>
<temp>0.00</temp>
<bpm>0</bpm>
<rpm>0.00</rpm>
</extensions>
</trkpt>
<trkpt lat="30.863075256" lon="34.806835175">
<ele>475.835938</ele>
<time>2013-11-20T11:08:19Z</time>
<speed>3.990000</speed>
<extensions>
<speed>4.0</speed>
<temp>0.00</temp>
<bpm>0</bpm>
<rpm>0.00</rpm>
</extensions>
</trkpt>
<trkpt lat="30.863245010" lon="34.806892395">
<ele>475.507813</ele>
<time>2013-11-20T11:08:24Z</time>
<speed>3.630000</speed>
<extensions>
<speed>3.6</speed>
<temp>0.00</temp>
<bpm>0</bpm>
<rpm>0.00</rpm>
</extensions>
</trkpt>
<trkpt lat="30.863401413" lon="34.806964874">
<ele>476.757813</ele>
<time>2013-11-20T11:08:29Z</time>
<speed>3.860000</speed>
<extensions>
<speed>3.9</speed>
<temp>0.00</temp>
<bpm>0</bpm>
<rpm>0.00</rpm>
</extensions>
</trkpt>
<trkpt lat="30.863506317" lon="34.807083130">
<ele>476.226563</ele>
<time>2013-11-20T11:08:34Z</time>
<speed>3.460000</speed>
<extensions>
<speed>3.5</speed>
<temp>0.00</temp>
<bpm>0</bpm>
<rpm>0.00</rpm>
</extensions>
</trkpt>
<trkpt lat="30.863578796" lon="34.807250977">
<ele>476.906250</ele>
<time>2013-11-20T11:08:39Z</time>
<speed>3.720000</speed>
<extensions>
<speed>3.7</speed>
<temp>0.00</temp>
<bpm>0</bpm>
<rpm>0.00</rpm>
</extensions>
</trkpt>
<trkpt lat="30.863653183" lon="34.807407379">
<ele>477.210938</ele>
<time>2013-11-20T11:08:44Z</time>
<speed>3.690000</speed>
<extensions>
<speed>3.7</speed>
<temp>0.00</temp>
<bpm>0</bpm>
<rpm>0.00</rpm>
</extensions>
</trkpt>
<trkpt lat="30.863725662" lon="34.807590485">
<ele>477.851563</ele>
<time>2013-11-20T11:08:49Z</time>
<speed>3.790000</speed>
<extensions>
<speed>3.8</speed>
<temp>0.00</temp>
<bpm>0</bpm>
<rpm>0.00</rpm>
</extensions>
</trkpt>
<trkpt lat="30.863779068" lon="34.807773590">
<ele>479.468750</ele>
<time>2013-11-20T11:08:54Z</time>
<speed>3.950000</speed>
<extensions>
<speed>4.0</speed>
<temp>0.00</temp>
<bpm>0</bpm>
<rpm>0.00</rpm>
</extensions>
</trkpt>
<trkpt lat="30.863813400" lon="34.807975769">
<ele>480.789063</ele>
<time>2013-11-20T11:08:59Z</time>
<speed>4.070000</speed>
<extensions>
<speed>4.1</speed>
<temp>0.00</temp>
<bpm>0</bpm>
<rpm>0.00</rpm>
</extensions>
</trkpt>
<trkpt lat="30.863897324" lon="34.808170319">
<ele>482.281250</ele>
<time>2013-11-20T11:09:04Z</time>
<speed>3.790000</speed>
<extensions>
<speed>3.8</speed>
<temp>0.00</temp>
<bpm>0</bpm>
<rpm>0.00</rpm>
</extensions>
</trkpt>
<trkpt lat="30.863985062" lon="34.808322906">
<ele>481.226563</ele>
<time>2013-11-20T11:09:09Z</time>
<speed>3.450000</speed>
<extensions>
<speed>3.5</speed>
<temp>0.00</temp>
<bpm>0</bpm>
<rpm>0.00</rpm>
</extensions>
</trkpt>
<trkpt lat="30.864078522" lon="34.808471680">
<ele>480.914063</ele>
<time>2013-11-20T11:09:14Z</time>
<speed>3.380000</speed>
<extensions>
<speed>3.4</speed>
<temp>0.00</temp>
<bpm>0</bpm>
<rpm>0.00</rpm>
</extensions>
</trkpt>
<trkpt lat="30.864177704" lon="34.808616638">
<ele>483.031250</ele>
<time>2013-11-20T11:09:19Z</time>
<speed>3.370000</speed>
<extensions>
<speed>3.4</speed>
<temp>0.00</temp>
<bpm>0</bpm>
<rpm>0.00</rpm>
</extensions>
</trkpt>
<trkpt lat="30.864253998" lon="34.808780670">
<ele>481.679688</ele>
<time>2013-11-20T11:09:24Z</time>
<speed>3.840000</speed>
<extensions>
<speed>3.8</speed>
<temp>0.00</temp>
<bpm>0</bpm>
<rpm>0.00</rpm>
</extensions>
</trkpt>
<trkpt lat="30.864328384" lon="34.808967590">
<ele>483.601563</ele>
<time>2013-11-20T11:09:29Z</time>
<speed>3.760000</speed>
<extensions>
<speed>3.8</speed>
<temp>0.00</temp>
<bpm>0</bpm>
<rpm>0.00</rpm>
</extensions>
</trkpt>
<trkpt lat="30.864461899" lon="34.809120178">
<ele>483.101563</ele>
<time>2013-11-20T11:09:34Z</time>
<speed>3.740000</speed>
<extensions>
<speed>3.7</speed>
<temp>0.00</temp>
<bpm>0</bpm>
<rpm>0.00</rpm>
</extensions>
</trkpt>
<trkpt lat="30.864585876" lon="34.809265137">
<ele>482.429688</ele>
<time>2013-11-20T11:09:39Z</time>
<speed>3.660000</speed>
<extensions>
<speed>3.7</speed>
<temp>0.00</temp>
<bpm>0</bpm>
<rpm>0.00</rpm>
</extensions>
</trkpt>
<trkpt lat="30.864673615" lon="34.809421539">
<ele>481.578125</ele>
<time>2013-11-20T11:09:44Z</time>
<speed>3.790000</speed>
<extensions>
<speed>3.8</speed>
<temp>0.00</temp>
<bpm>0</bpm>
<rpm>0.00</rpm>
</extensions>
</trkpt>
<trkpt lat="30.864744186" lon="34.809612274">
<ele>482.148438</ele>
<time>2013-11-20T11:09:49Z</time>
<speed>3.740000</speed>
<extensions>
<speed>3.7</speed>
<temp>0.00</temp>
<bpm>0</bpm>
<rpm>0.00</rpm>
</extensions>
</trkpt>
<trkpt lat="30.864820480" lon="34.809772491">
<ele>483.648438</ele>
<time>2013-11-20T11:09:54Z</time>
<speed>3.800000</speed>
<extensions>
<speed>3.8</speed>
<temp>0.00</temp>
<bpm>0</bpm>
<rpm>0.00</rpm>
</extensions>
</trkpt>
<trkpt lat="30.864925385" lon="34.809921265">
<ele>484.562500</ele>
<time>2013-11-20T11:09:59Z</time>
<speed>3.620000</speed>
<extensions>
<speed>3.6</speed>
<temp>0.00</temp>
<bpm>0</bpm>
<rpm>0.00</rpm>
</extensions>
</trkpt>
<trkpt lat="30.865041733" lon="34.810066223">
<ele>485.281250</ele>
<time>2013-11-20T11:10:04Z</time>
<speed>3.730000</speed>
<extensions>
<speed>3.7</speed>
<temp>0.00</temp>
<bpm>0</bpm>
<rpm>0.00</rpm>
</extensions>
</trkpt>
<trkpt lat="30.865137100" lon="34.810226440">
<ele>484.554688</ele>
<time>2013-11-20T11:10:09Z</time>
<speed>3.410000</speed>
<extensions>
<speed>3.4</speed>
<temp>0.00</temp>
<bpm>0</bpm>
<rpm>0.00</rpm>
</extensions>
</trkpt>
<trkpt lat="30.865201950" lon="34.810386658">
<ele>484.539063</ele>
<time>2013-11-20T11:10:14Z</time>
<speed>3.470000</speed>
<extensions>
<speed>3.5</speed>
<temp>0.00</temp>
<bpm>0</bpm>
<rpm>0.00</rpm>
</extensions>
</trkpt>
<trkpt lat="30.865259171" lon="34.810550690">
<ele>484.898438</ele>
<time>2013-11-20T11:10:19Z</time>
<speed>3.570000</speed>
<extensions>
<speed>3.6</speed>
<temp>0.00</temp>
<bpm>0</bpm>
<rpm>0.00</rpm>
</extensions>
</trkpt>
<trkpt lat="30.865324020" lon="34.810722351">
<ele>486.320313</ele>
<time>2013-11-20T11:10:24Z</time>
<speed>3.460000</speed>
<extensions>
<speed>3.5</speed>
<temp>0.00</temp>
<bpm>0</bpm>
<rpm>0.00</rpm>
</extensions>
</trkpt>
<trkpt lat="30.865385056" lon="34.810886383">
<ele>486.164063</ele>
<time>2013-11-20T11:10:29Z</time>
<speed>3.630000</speed>
<extensions>
<speed>3.6</speed>
<temp>0.00</temp>
<bpm>0</bpm>
<rpm>0.00</rpm>
</extensions>
</trkpt>
<trkpt lat="30.865459442" lon="34.811061859">
<ele>486.765625</ele>
<time>2013-11-20T11:10:34Z</time>
<speed>3.100000</speed>
<extensions>
<speed>3.1</speed>
<temp>0.00</temp>
<bpm>0</bpm>
<rpm>0.00</rpm>
</extensions>
</trkpt>
<trkpt lat="30.865499496" lon="34.811225891">
<ele>486.460938</ele>
<time>2013-11-20T11:10:39Z</time>
<speed>3.370000</speed>
<extensions>
<speed>3.4</speed>
<temp>0.00</temp>
<bpm>0</bpm>
<rpm>0.00</rpm>
</extensions>
</trkpt>
<trkpt lat="30.865537643" lon="34.811405182">
<ele>486.867188</ele>
<time>2013-11-20T11:10:44Z</time>
<speed>3.670000</speed>
<extensions>
<speed>3.7</speed>
<temp>0.00</temp>
<bpm>0</bpm>
<rpm>0.00</rpm>
</extensions>
</trkpt>
<trkpt lat="30.865568161" lon="34.811576843">
<ele>488.664063</ele>
<time>2013-11-20T11:10:49Z</time>
<speed>3.380000</speed>
<extensions>
<speed>3.4</speed>
<temp>0.00</temp>
<bpm>0</bpm>
<rpm>0.00</rpm>
</extensions>
</trkpt>
<trkpt lat="30.865558624" lon="34.811775208">
<ele>490.132813</ele>
<time>2013-11-20T11:10:54Z</time>
<speed>4.070000</speed>
<extensions>
<speed>4.1</speed>
<temp>0.00</temp>
<bpm>0</bpm>
<rpm>0.00</rpm>
</extensions>
</trkpt>
<trkpt lat="30.865558624" lon="34.811973572">
<ele>489.148438</ele>
<time>2013-11-20T11:10:59Z</time>
<speed>3.740000</speed>
<extensions>
<speed>3.7</speed>
<temp>0.00</temp>
<bpm>0</bpm>
<rpm>0.00</rpm>
</extensions>
</trkpt>
<trkpt lat="30.865579605" lon="34.812152863">
<ele>488.406250</ele>
<time>2013-11-20T11:11:04Z</time>
<speed>3.210000</speed>
<extensions>
<speed>3.2</speed>
<temp>0.00</temp>
<bpm>0</bpm>
<rpm>0.00</rpm>
</extensions>
</trkpt>
<trkpt lat="30.865562439" lon="34.812339783">
<ele>488.328125</ele>
<time>2013-11-20T11:11:09Z</time>
<speed>3.510000</speed>
<extensions>
<speed>3.5</speed>
<temp>0.00</temp>
<bpm>0</bpm>
<rpm>0.00</rpm>
</extensions>
</trkpt>
<trkpt lat="30.865558624" lon="34.812519073">
<ele>489.640625</ele>
<time>2013-11-20T11:11:14Z</time>
<speed>2.990000</speed>
<extensions>
<speed>3.0</speed>
<temp>0.00</temp>
<bpm>0</bpm>
<rpm>0.00</rpm>
</extensions>
</trkpt>
<trkpt lat="30.865556717" lon="34.812686920">
<ele>491.171875</ele>
<time>2013-11-20T11:11:19Z</time>
<speed>3.500000</speed>
<extensions>
<speed>3.5</speed>
<temp>0.00</temp>
<bpm>0</bpm>
<rpm>0.00</rpm>
</extensions>
</trkpt>
<trkpt lat="30.865491867" lon="34.812862396">
<ele>491.492188</ele>
<time>2013-11-20T11:11:24Z</time>
<speed>3.830000</speed>
<extensions>
<speed>3.8</speed>
<temp>0.00</temp>
<bpm>0</bpm>
<rpm>0.00</rpm>
</extensions>
</trkpt>
<trkpt lat="30.865402222" lon="34.812992096">
<ele>493.578125</ele>
<time>2013-11-20T11:11:29Z</time>
<speed>3.300000</speed>
<extensions>
<speed>3.3</speed>
<temp>0.00</temp>
<bpm>0</bpm>
<rpm>0.00</rpm>
</extensions>
</trkpt>
<trkpt lat="30.865291595" lon="34.813110352">
<ele>493.562500</ele>
<time>2013-11-20T11:11:34Z</time>
<speed>3.410000</speed>
<extensions>
<speed>3.4</speed>
<temp>0.00</temp>
<bpm>0</bpm>
<rpm>0.00</rpm>
</extensions>
</trkpt>
<trkpt lat="30.865163803" lon="34.813232422">
<ele>492.226563</ele>
<time>2013-11-20T11:11:39Z</time>
<speed>3.450000</speed>
<extensions>
<speed>3.5</speed>
<temp>0.00</temp>
<bpm>0</bpm>
<rpm>0.00</rpm>
</extensions>
</trkpt>
<trkpt lat="30.865024567" lon="34.813335419">
<ele>490.421875</ele>
<time>2013-11-20T11:11:44Z</time>
<speed>3.510000</speed>
<extensions>
<speed>3.5</speed>
<temp>0.00</temp>
<bpm>0</bpm>
<rpm>0.00</rpm>
</extensions>
</trkpt>
<trkpt lat="30.864902496" lon="34.813465118">
<ele>490.656250</ele>
<time>2013-11-20T11:11:49Z</time>
<speed>3.800000</speed>
<extensions>
<speed>3.8</speed>
<temp>0.00</temp>
<bpm>0</bpm>
<rpm>0.00</rpm>
</extensions>
</trkpt>
<trkpt lat="30.864801407" lon="34.813625336">
<ele>490.046875</ele>
<time>2013-11-20T11:11:54Z</time>
<speed>3.820000</speed>
<extensions>
<speed>3.8</speed>
<temp>0.00</temp>
<bpm>0</bpm>
<rpm>0.00</rpm>
</extensions>
</trkpt>
<trkpt lat="30.864654541" lon="34.813747406">
<ele>490.765625</ele>
<time>2013-11-20T11:11:59Z</time>
<speed>3.830000</speed>
<extensions>
<speed>3.8</speed>
<temp>0.00</temp>
<bpm>0</bpm>
<rpm>0.00</rpm>
</extensions>
</trkpt>
<trkpt lat="30.864517212" lon="34.813842773">
<ele>491.820313</ele>
<time>2013-11-20T11:12:04Z</time>
<speed>3.740000</speed>
<extensions>
<speed>3.7</speed>
<temp>0.00</temp>
<bpm>0</bpm>
<rpm>0.00</rpm>
</extensions>
</trkpt>
<trkpt lat="30.864391327" lon="34.813961029">
<ele>493.375000</ele>
<time>2013-11-20T11:12:09Z</time>
<speed>3.070000</speed>
<extensions>
<speed>3.1</speed>
<temp>0.00</temp>
<bpm>0</bpm>
<rpm>0.00</rpm>
</extensions>
</trkpt>
<trkpt lat="30.864271164" lon="34.814056396">
<ele>494.617188</ele>
<time>2013-11-20T11:12:14Z</time>
<speed>3.590000</speed>
<extensions>
<speed>3.6</speed>
<temp>0.00</temp>
<bpm>0</bpm>
<rpm>0.00</rpm>
</extensions>
</trkpt>
<trkpt lat="30.864147186" lon="34.814201355">
<ele>494.320313</ele>
<time>2013-11-20T11:12:19Z</time>
<speed>3.540000</speed>
<extensions>
<speed>3.5</speed>
<temp>0.00</temp>
<bpm>0</bpm>
<rpm>0.00</rpm>
</extensions>
</trkpt>
<trkpt lat="30.864032745" lon="34.814323425">
<ele>495.023438</ele>
<time>2013-11-20T11:12:24Z</time>
<speed>3.600000</speed>
<extensions>
<speed>3.6</speed>
<temp>0.00</temp>
<bpm>0</bpm>
<rpm>0.00</rpm>
</extensions>
</trkpt>
<trkpt lat="30.863904953" lon="34.814468384">
<ele>495.179688</ele>
<time>2013-11-20T11:12:29Z</time>
<speed>3.680000</speed>
<extensions>
<speed>3.7</speed>
<temp>0.00</temp>
<bpm>0</bpm>
<rpm>0.00</rpm>
</extensions>
</trkpt>
<trkpt lat="30.863840103" lon="34.814640045">
<ele>495.234375</ele>
<time>2013-11-20T11:12:34Z</time>
<speed>3.540000</speed>
<extensions>
<speed>3.5</speed>
<temp>0.00</temp>
<bpm>0</bpm>
<rpm>0.00</rpm>
</extensions>
</trkpt>
<trkpt lat="30.863754272" lon="34.814811707">
<ele>495.664063</ele>
<time>2013-11-20T11:12:39Z</time>
<speed>5.040000</speed>
<extensions>
<speed>5.0</speed>
<temp>0.00</temp>
<bpm>0</bpm>
<rpm>0.00</rpm>
</extensions>
</trkpt>
<trkpt lat="30.863685608" lon="34.814998627">
<ele>496.835938</ele>
<time>2013-11-20T11:12:44Z</time>
<speed>3.680000</speed>
<extensions>
<speed>3.7</speed>
<temp>0.00</temp>
<bpm>0</bpm>
<rpm>0.00</rpm>
</extensions>
</trkpt>
<trkpt lat="30.863643646" lon="34.815124512">
<ele>497.523438</ele>
<time>2013-11-20T11:12:49Z</time>
<speed>2.460000</speed>
<extensions>
<speed>2.5</speed>
<temp>0.00</temp>
<bpm>0</bpm>
<rpm>0.00</rpm>
</extensions>
</trkpt>
<trkpt lat="30.863628387" lon="34.815250397">
<ele>496.812500</ele>
<time>2013-11-20T11:12:54Z</time>
<speed>3.180000</speed>
<extensions>
<speed>3.2</speed>
<temp>0.00</temp>
<bpm>0</bpm>
<rpm>0.00</rpm>
</extensions>
</trkpt>
<trkpt lat="30.863683701" lon="34.815441132">
<ele>498.218750</ele>
<time>2013-11-20T11:12:59Z</time>
<speed>3.330000</speed>
<extensions>
<speed>3.3</speed>
<temp>0.00</temp>
<bpm>0</bpm>
<rpm>0.00</rpm>
</extensions>
</trkpt>
<trkpt lat="30.863754272" lon="34.815578461">
<ele>499.203125</ele>
<time>2013-11-20T11:13:04Z</time>
<speed>2.220000</speed>
<extensions>
<speed>2.2</speed>
<temp>0.00</temp>
<bpm>0</bpm>
<rpm>0.00</rpm>
</extensions>
</trkpt>
<trkpt lat="30.863796234" lon="34.815635681">
<ele>500.414063</ele>
<time>2013-11-20T11:13:09Z</time>
<speed>1.700000</speed>
<extensions>
<speed>1.7</speed>
<temp>0.00</temp>
<bpm>0</bpm>
<rpm>0.00</rpm>
</extensions>
</trkpt>
<trkpt lat="30.863843918" lon="34.815700531">
<ele>500.046875</ele>
<time>2013-11-20T11:13:14Z</time>
<speed>1.590000</speed>
<extensions>
<speed>1.6</speed>
<temp>0.00</temp>
<bpm>0</bpm>
<rpm>0.00</rpm>
</extensions>
</trkpt>
<trkpt lat="30.863882065" lon="34.815765381">
<ele>501.062500</ele>
<time>2013-11-20T11:13:19Z</time>
<speed>1.510000</speed>
<extensions>
<speed>1.5</speed>
<temp>0.00</temp>
<bpm>0</bpm>
<rpm>0.00</rpm>
</extensions>
</trkpt>
<trkpt lat="30.863910675" lon="34.815841675">
<ele>502.289063</ele>
<time>2013-11-20T11:13:24Z</time>
<speed>1.180000</speed>
<extensions>
<speed>1.2</speed>
<temp>0.00</temp>
<bpm>0</bpm>
<rpm>0.00</rpm>
</extensions>
</trkpt>
<trkpt lat="30.863943100" lon="34.815879822">
<ele>503.359375</ele>
<time>2013-11-20T11:13:29Z</time>
<speed>1.120000</speed>
<extensions>
<speed>1.1</speed>
<temp>0.00</temp>
<bpm>0</bpm>
<rpm>0.00</rpm>
</extensions>
</trkpt>
<trkpt lat="30.863946915" lon="34.815876007">
<ele>503.726563</ele>
<time>2013-11-20T11:13:34Z</time>
<speed>0.090000</speed>
<extensions>
<speed>0.1</speed>
<temp>0.00</temp>
<bpm>0</bpm>
<rpm>0.00</rpm>
</extensions>
</trkpt>
<trkpt lat="30.863960266" lon="34.815895081">
<ele>503.687500</ele>
<time>2013-11-20T11:13:39Z</time>
<speed>0.780000</speed>
<extensions>
<speed>0.8</speed>
<temp>0.00</temp>
<bpm>0</bpm>
<rpm>0.00</rpm>
</extensions>
</trkpt>
<trkpt lat="30.863983154" lon="34.815937042">
<ele>503.898438</ele>
<time>2013-11-20T11:13:44Z</time>
<speed>0.790000</speed>
<extensions>
<speed>0.8</speed>
<temp>0.00</temp>
<bpm>0</bpm>
<rpm>0.00</rpm>
</extensions>
</trkpt>
<trkpt lat="30.864006042" lon="34.815971375">
<ele>503.507813</ele>
<time>2013-11-20T11:13:49Z</time>
<speed>0.920000</speed>
<extensions>
<speed>0.9</speed>
<temp>0.00</temp>
<bpm>0</bpm>
<rpm>0.00</rpm>
</extensions>
</trkpt>
<trkpt lat="30.864019394" lon="34.815990448">
<ele>503.906250</ele>
<time>2013-11-20T11:13:54Z</time>
<speed>0.100000</speed>
<extensions>
<speed>0.1</speed>
<temp>0.00</temp>
<bpm>0</bpm>
<rpm>0.00</rpm>
</extensions>
</trkpt>
<trkpt lat="30.864019394" lon="34.815986633">
<ele>504.109375</ele>
<time>2013-11-20T11:13:59Z</time>
<speed>0.030000</speed>
<extensions>
<speed>0.0</speed>
<temp>0.00</temp>
<bpm>0</bpm>
<rpm>0.00</rpm>
</extensions>
</trkpt>
<trkpt lat="30.864019394" lon="34.815990448">
<ele>504.593750</ele>
<time>2013-11-20T11:14:04Z</time>
<speed>0.010000</speed>
<extensions>
<speed>0.0</speed>
<temp>0.00</temp>
<bpm>0</bpm>
<rpm>0.00</rpm>
</extensions>
</trkpt>
<trkpt lat="30.864019394" lon="34.815990448">
<ele>505.007813</ele>
<time>2013-11-20T11:14:09Z</time>
<speed>0.020000</speed>
<extensions>
<speed>0.0</speed>
<temp>0.00</temp>
<bpm>0</bpm>
<rpm>0.00</rpm>
</extensions>
</trkpt>
<trkpt lat="30.864019394" lon="34.815990448">
<ele>505.148438</ele>
<time>2013-11-20T11:14:14Z</time>
<extensions>
<speed>0.0</speed>
<temp>0.00</temp>
<bpm>0</bpm>
<rpm>0.00</rpm>
</extensions>
</trkpt>
<trkpt lat="30.864019394" lon="34.815990448">
<ele>505.148438</ele>
<time>2013-11-20T11:14:19Z</time>
<extensions>
<speed>0.0</speed>
<temp>0.00</temp>
<bpm>0</bpm>
<rpm>0.00</rpm>
</extensions>
</trkpt>
<trkpt lat="30.864019394" lon="34.815990448">
<ele>505.132813</ele>
<time>2013-11-20T11:14:24Z</time>
<speed>0.020000</speed>
<extensions>
<speed>0.0</speed>
<temp>0.00</temp>
<bpm>0</bpm>
<rpm>0.00</rpm>
</extensions>
</trkpt>
<trkpt lat="30.864019394" lon="34.815990448">
<ele>505.148438</ele>
<time>2013-11-20T11:14:29Z</time>
<speed>0.100000</speed>
<extensions>
<speed>0.1</speed>
<temp>0.00</temp>
<bpm>0</bpm>
<rpm>0.00</rpm>
</extensions>
</trkpt>
<trkpt lat="30.864048004" lon="34.816020966">
<ele>505.687500</ele>
<time>2013-11-20T11:14:34Z</time>
<speed>0.920000</speed>
<extensions>
<speed>0.9</speed>
<temp>0.00</temp>
<bpm>0</bpm>
<rpm>0.00</rpm>
</extensions>
</trkpt>
<trkpt lat="30.864074707" lon="34.816062927">
<ele>505.898438</ele>
<time>2013-11-20T11:14:39Z</time>
<speed>0.740000</speed>
<extensions>
<speed>0.7</speed>
<temp>0.00</temp>
<bpm>0</bpm>
<rpm>0.00</rpm>
</extensions>
</trkpt>
<trkpt lat="30.864086151" lon="34.816112518">
<ele>506.039063</ele>
<time>2013-11-20T11:14:44Z</time>
<speed>0.770000</speed>
<extensions>
<speed>0.8</speed>
<temp>0.00</temp>
<bpm>0</bpm>
<rpm>0.00</rpm>
</extensions>
</trkpt>
<trkpt lat="30.864091873" lon="34.816177368">
<ele>506.242188</ele>
<time>2013-11-20T11:14:49Z</time>
<speed>1.080000</speed>
<extensions>
<speed>1.1</speed>
<temp>0.00</temp>
<bpm>0</bpm>
<rpm>0.00</rpm>
</extensions>
</trkpt>
<trkpt lat="30.864114761" lon="34.816219330">
<ele>506.195313</ele>
<time>2013-11-20T11:14:54Z</time>
<speed>0.890000</speed>
<extensions>
<speed>0.9</speed>
<temp>0.00</temp>
<bpm>0</bpm>
<rpm>0.00</rpm>
</extensions>
</trkpt>
<trkpt lat="30.864139557" lon="34.816261292">
<ele>506.921875</ele>
<time>2013-11-20T11:14:59Z</time>
<speed>0.970000</speed>
<extensions>
<speed>1.0</speed>
<temp>0.00</temp>
<bpm>0</bpm>
<rpm>0.00</rpm>
</extensions>
</trkpt>
<trkpt lat="30.864160538" lon="34.816299438">
<ele>507.789063</ele>
<time>2013-11-20T11:15:04Z</time>
<speed>0.760000</speed>
<extensions>
<speed>0.8</speed>
<temp>0.00</temp>
<bpm>0</bpm>
<rpm>0.00</rpm>
</extensions>
</trkpt>
<trkpt lat="30.864183426" lon="34.816341400">
<ele>508.304688</ele>
<time>2013-11-20T11:15:09Z</time>
<speed>0.830000</speed>
<extensions>
<speed>0.8</speed>
<temp>0.00</temp>
<bpm>0</bpm>
<rpm>0.00</rpm>
</extensions>
</trkpt>
<trkpt lat="30.864191055" lon="34.816341400">
<ele>508.054688</ele>
<time>2013-11-20T11:15:14Z</time>
<speed>0.170000</speed>
<extensions>
<speed>0.2</speed>
<temp>0.00</temp>
<bpm>0</bpm>
<rpm>0.00</rpm>
</extensions>
</trkpt>
<trkpt lat="30.864173889" lon="34.816345215">
<ele>508.773438</ele>
<time>2013-11-20T11:15:19Z</time>
<speed>0.030000</speed>
<extensions>
<speed>0.0</speed>
<temp>0.00</temp>
<bpm>0</bpm>
<rpm>0.00</rpm>
</extensions>
</trkpt>
<trkpt lat="30.864179611" lon="34.816352844">
<ele>508.992188</ele>
<time>2013-11-20T11:15:24Z</time>
<speed>0.380000</speed>
<extensions>
<speed>0.4</speed>
<temp>0.00</temp>
<bpm>0</bpm>
<rpm>0.00</rpm>
</extensions>
</trkpt>
<trkpt lat="30.864208221" lon="34.816387177">
<ele>508.734375</ele>
<time>2013-11-20T11:15:29Z</time>
<speed>0.930000</speed>
<extensions>
<speed>0.9</speed>
<temp>0.00</temp>
<bpm>0</bpm>
<rpm>0.00</rpm>
</extensions>
</trkpt>
<trkpt lat="30.864221573" lon="34.816440582">
<ele>509.515625</ele>
<time>2013-11-20T11:15:34Z</time>
<speed>0.660000</speed>
<extensions>
<speed>0.7</speed>
<temp>0.00</temp>
<bpm>0</bpm>
<rpm>0.00</rpm>
</extensions>
</trkpt>
<trkpt lat="30.864263535" lon="34.816471100">
<ele>510.250000</ele>
<time>2013-11-20T11:15:39Z</time>
<speed>0.840000</speed>
<extensions>
<speed>0.8</speed>
<temp>0.00</temp>
<bpm>0</bpm>
<rpm>0.00</rpm>
</extensions>
</trkpt>
<trkpt lat="30.864286423" lon="34.816505432">
<ele>510.890625</ele>
<time>2013-11-20T11:15:44Z</time>
<speed>0.470000</speed>
<extensions>
<speed>0.5</speed>
<temp>0.00</temp>
<bpm>0</bpm>
<rpm>0.00</rpm>
</extensions>
</trkpt>
<trkpt lat="30.864307404" lon="34.816509247">
<ele>511.046875</ele>
<time>2013-11-20T11:15:49Z</time>
<speed>0.120000</speed>
<extensions>
<speed>0.1</speed>
<temp>0.00</temp>
<bpm>0</bpm>
<rpm>0.00</rpm>
</extensions>
</trkpt>
<trkpt lat="30.864311218" lon="34.816513062">
<ele>511.257813</ele>
<time>2013-11-20T11:15:54Z</time>
<speed>0.350000</speed>
<extensions>
<speed>0.3</speed>
<temp>0.00</temp>
<bpm>0</bpm>
<rpm>0.00</rpm>
</extensions>
</trkpt>
<trkpt lat="30.864326477" lon="34.816570282">
<ele>511.695313</ele>
<time>2013-11-20T11:15:59Z</time>
<speed>0.960000</speed>
<extensions>
<speed>1.0</speed>
<temp>0.00</temp>
<bpm>0</bpm>
<rpm>0.00</rpm>
</extensions>
</trkpt>
<trkpt lat="30.864351273" lon="34.816612244">
<ele>511.757813</ele>
<time>2013-11-20T11:16:04Z</time>
<speed>0.990000</speed>
<extensions>
<speed>1.0</speed>
<temp>0.00</temp>
<bpm>0</bpm>
<rpm>0.00</rpm>
</extensions>
</trkpt>
<trkpt lat="30.864366531" lon="34.816650391">
<ele>512.625000</ele>
<time>2013-11-20T11:16:09Z</time>
<speed>0.660000</speed>
<extensions>
<speed>0.7</speed>
<temp>0.00</temp>
<bpm>0</bpm>
<rpm>0.00</rpm>
</extensions>
</trkpt>
<trkpt lat="30.864374161" lon="34.816699982">
<ele>513.421875</ele>
<time>2013-11-20T11:16:14Z</time>
<speed>1.010000</speed>
<extensions>
<speed>1.0</speed>
<temp>0.00</temp>
<bpm>0</bpm>
<rpm>0.00</rpm>
</extensions>
</trkpt>
<trkpt lat="30.864400864" lon="34.816753387">
<ele>514.359375</ele>
<time>2013-11-20T11:16:19Z</time>
<speed>1.260000</speed>
<extensions>
<speed>1.3</speed>
<temp>0.00</temp>
<bpm>0</bpm>
<rpm>0.00</rpm>
</extensions>
</trkpt>
<trkpt lat="30.864429474" lon="34.816791534">
<ele>515.734375</ele>
<time>2013-11-20T11:16:24Z</time>
<speed>0.450000</speed>
<extensions>
<speed>0.5</speed>
<temp>0.00</temp>
<bpm>0</bpm>
<rpm>0.00</rpm>
</extensions>
</trkpt>
<trkpt lat="30.864423752" lon="34.816795349">
<ele>515.890625</ele>
<time>2013-11-20T11:16:29Z</time>
<speed>0.450000</speed>
<extensions>
<speed>0.5</speed>
<temp>0.00</temp>
<bpm>0</bpm>
<rpm>0.00</rpm>
</extensions>
</trkpt>
<trkpt lat="30.864442825" lon="34.816841125">
<ele>516.796875</ele>
<time>2013-11-20T11:16:34Z</time>
<speed>0.920000</speed>
<extensions>
<speed>0.9</speed>
<temp>0.00</temp>
<bpm>0</bpm>
<rpm>0.00</rpm>
</extensions>
</trkpt>
<trkpt lat="30.864465714" lon="34.816883087">
<ele>516.921875</ele>
<time>2013-11-20T11:16:39Z</time>
<speed>1.080000</speed>
<extensions>
<speed>1.1</speed>
<temp>0.00</temp>
<bpm>0</bpm>
<rpm>0.00</rpm>
</extensions>
</trkpt>
<trkpt lat="30.864475250" lon="34.816925049">
<ele>517.062500</ele>
<time>2013-11-20T11:16:44Z</time>
<speed>0.820000</speed>
<extensions>
<speed>0.8</speed>
<temp>0.00</temp>
<bpm>0</bpm>
<rpm>0.00</rpm>
</extensions>
</trkpt>
<trkpt lat="30.864479065" lon="34.816974640">
<ele>517.671875</ele>
<time>2013-11-20T11:16:49Z</time>
<speed>1.030000</speed>
<extensions>
<speed>1.0</speed>
<temp>0.00</temp>
<bpm>0</bpm>
<rpm>0.00</rpm>
</extensions>
</trkpt>
<trkpt lat="30.864486694" lon="34.817001343">
<ele>517.718750</ele>
<time>2013-11-20T11:16:54Z</time>
<speed>0.780000</speed>
<extensions>
<speed>0.8</speed>
<temp>0.00</temp>
<bpm>0</bpm>
<rpm>0.00</rpm>
</extensions>
</trkpt>
<trkpt lat="30.864492416" lon="34.817054749">
<ele>518.281250</ele>
<time>2013-11-20T11:16:59Z</time>
<speed>1.110000</speed>
<extensions>
<speed>1.1</speed>
<temp>0.00</temp>
<bpm>0</bpm>
<rpm>0.00</rpm>
</extensions>
</trkpt>
<trkpt lat="30.864498138" lon="34.817108154">
<ele>518.750000</ele>
<time>2013-11-20T11:17:04Z</time>
<speed>0.470000</speed>
<extensions>
<speed>0.5</speed>
<temp>0.00</temp>
<bpm>0</bpm>
<rpm>0.00</rpm>
</extensions>
</trkpt>
<trkpt lat="30.864486694" lon="34.817131042">
<ele>518.812500</ele>
<time>2013-11-20T11:17:09Z</time>
<speed>0.690000</speed>
<extensions>
<speed>0.7</speed>
<temp>0.00</temp>
<bpm>0</bpm>
<rpm>0.00</rpm>
</extensions>
</trkpt>
<trkpt lat="30.864479065" lon="34.817203522">
<ele>519.703125</ele>
<time>2013-11-20T11:17:14Z</time>
<speed>1.770000</speed>
<extensions>
<speed>1.8</speed>
<temp>0.00</temp>
<bpm>0</bpm>
<rpm>0.00</rpm>
</extensions>
</trkpt>
<trkpt lat="30.864475250" lon="34.817310333">
<ele>519.734375</ele>
<time>2013-11-20T11:17:19Z</time>
<speed>1.860000</speed>
<extensions>
<speed>1.9</speed>
<temp>0.00</temp>
<bpm>0</bpm>
<rpm>0.00</rpm>
</extensions>
</trkpt>
<trkpt lat="30.864467621" lon="34.817398071">
<ele>522.062500</ele>
<time>2013-11-20T11:17:24Z</time>
<speed>1.790000</speed>
<extensions>
<speed>1.8</speed>
<temp>0.00</temp>
<bpm>0</bpm>
<rpm>0.00</rpm>
</extensions>
</trkpt>
<trkpt lat="30.864471436" lon="34.817489624">
<ele>522.812500</ele>
<time>2013-11-20T11:17:29Z</time>
<speed>1.660000</speed>
<extensions>
<speed>1.7</speed>
<temp>0.00</temp>
<bpm>0</bpm>
<rpm>0.00</rpm>
</extensions>
</trkpt>
<trkpt lat="30.864494324" lon="34.817577362">
<ele>522.859375</ele>
<time>2013-11-20T11:17:34Z</time>
<speed>1.830000</speed>
<extensions>
<speed>1.8</speed>
<temp>0.00</temp>
<bpm>0</bpm>
<rpm>0.00</rpm>
</extensions>
</trkpt>
<trkpt lat="30.864517212" lon="34.817676544">
<ele>523.531250</ele>
<time>2013-11-20T11:17:39Z</time>
<speed>2.010000</speed>
<extensions>
<speed>2.0</speed>
<temp>0.00</temp>
<bpm>0</bpm>
<rpm>0.00</rpm>
</extensions>
</trkpt>
<trkpt lat="30.864509583" lon="34.817775726">
<ele>524.171875</ele>
<time>2013-11-20T11:17:44Z</time>
<speed>1.880000</speed>
<extensions>
<speed>1.9</speed>
<temp>0.00</temp>
<bpm>0</bpm>
<rpm>0.00</rpm>
</extensions>
</trkpt>
<trkpt lat="30.864517212" lon="34.817878723">
<ele>525.390625</ele>
<time>2013-11-20T11:17:49Z</time>
<speed>2.050000</speed>
<extensions>
<speed>2.1</speed>
<temp>0.00</temp>
<bpm>0</bpm>
<rpm>0.00</rpm>
</extensions>
</trkpt>
<trkpt lat="30.864528656" lon="34.817989349">
<ele>525.734375</ele>
<time>2013-11-20T11:17:54Z</time>
<speed>2.160000</speed>
<extensions>
<speed>2.2</speed>
<temp>0.00</temp>
<bpm>0</bpm>
<rpm>0.00</rpm>
</extensions>
</trkpt>
<trkpt lat="30.864547729" lon="34.818088531">
<ele>527.093750</ele>
<time>2013-11-20T11:17:59Z</time>
<speed>1.980000</speed>
<extensions>
<speed>2.0</speed>
<temp>0.00</temp>
<bpm>0</bpm>
<rpm>0.00</rpm>
</extensions>
</trkpt>
<trkpt lat="30.864542007" lon="34.818206787">
<ele>529.359375</ele>
<time>2013-11-20T11:18:04Z</time>
<speed>2.080000</speed>
<extensions>
<speed>2.1</speed>
<temp>0.00</temp>
<bpm>0</bpm>
<rpm>0.00</rpm>
</extensions>
</trkpt>
<trkpt lat="30.864538193" lon="34.818305969">
<ele>529.906250</ele>
<time>2013-11-20T11:18:09Z</time>
<speed>2.010000</speed>
<extensions>
<speed>2.0</speed>
<temp>0.00</temp>
<bpm>0</bpm>
<rpm>0.00</rpm>
</extensions>
</trkpt>
<trkpt lat="30.864551544" lon="34.818393707">
<ele>530.375000</ele>
<time>2013-11-20T11:18:14Z</time>
<speed>2.120000</speed>
<extensions>
<speed>2.1</speed>
<temp>0.00</temp>
<bpm>0</bpm>
<rpm>0.00</rpm>
</extensions>
</trkpt>
<trkpt lat="30.864551544" lon="34.818500519">
<ele>530.250000</ele>
<time>2013-11-20T11:18:19Z</time>
<speed>1.950000</speed>
<extensions>
<speed>1.9</speed>
<temp>0.00</temp>
<bpm>0</bpm>
<rpm>0.00</rpm>
</extensions>
</trkpt>
<trkpt lat="30.864566803" lon="34.818611145">
<ele>531.046875</ele>
<time>2013-11-20T11:18:24Z</time>
<speed>2.300000</speed>
<extensions>
<speed>2.3</speed>
<temp>0.00</temp>
<bpm>0</bpm>
<rpm>0.00</rpm>
</extensions>
</trkpt>
<trkpt lat="30.864578247" lon="34.818721771">
<ele>532.031250</ele>
<time>2013-11-20T11:18:29Z</time>
<speed>2.220000</speed>
<extensions>
<speed>2.2</speed>
<temp>0.00</temp>
<bpm>0</bpm>
<rpm>0.00</rpm>
</extensions>
</trkpt>
<trkpt lat="30.864599228" lon="34.818817139">
<ele>532.984375</ele>
<time>2013-11-20T11:18:34Z</time>
<speed>1.910000</speed>
<extensions>
<speed>1.9</speed>
<temp>0.00</temp>
<bpm>0</bpm>
<rpm>0.00</rpm>
</extensions>
</trkpt>
<trkpt lat="30.864601135" lon="34.818931580">
<ele>533.078125</ele>
<time>2013-11-20T11:18:39Z</time>
<speed>1.950000</speed>
<extensions>
<speed>1.9</speed>
<temp>0.00</temp>
<bpm>0</bpm>
<rpm>0.00</rpm>
</extensions>
</trkpt>
<trkpt lat="30.864618301" lon="34.819046021">
<ele>531.906250</ele>
<time>2013-11-20T11:18:44Z</time>
<speed>2.670000</speed>
<extensions>
<speed>2.7</speed>
<temp>0.00</temp>
<bpm>0</bpm>
<rpm>0.00</rpm>
</extensions>
</trkpt>
<trkpt lat="30.864635468" lon="34.819171906">
<ele>530.875000</ele>
<time>2013-11-20T11:18:49Z</time>
<speed>2.430000</speed>
<extensions>
<speed>2.4</speed>
<temp>0.00</temp>
<bpm>0</bpm>
<rpm>0.00</rpm>
</extensions>
</trkpt>
<trkpt lat="30.864620209" lon="34.819293976">
<ele>531.984375</ele>
<time>2013-11-20T11:18:54Z</time>
<speed>2.580000</speed>
<extensions>
<speed>2.6</speed>
<temp>0.00</temp>
<bpm>0</bpm>
<rpm>0.00</rpm>
</extensions>
</trkpt>
<trkpt lat="30.864545822" lon="34.819412231">
<ele>533.062500</ele>
<time>2013-11-20T11:18:59Z</time>
<speed>2.690000</speed>
<extensions>
<speed>2.7</speed>
<temp>0.00</temp>
<bpm>0</bpm>
<rpm>0.00</rpm>
</extensions>
</trkpt>
<trkpt lat="30.864469528" lon="34.819538116">
<ele>535.062500</ele>
<time>2013-11-20T11:19:04Z</time>
<speed>2.430000</speed>
<extensions>
<speed>2.4</speed>
<temp>0.00</temp>
<bpm>0</bpm>
<rpm>0.00</rpm>
</extensions>
</trkpt>
<trkpt lat="30.864408493" lon="34.819664001">
<ele>535.718750</ele>
<time>2013-11-20T11:19:09Z</time>
<speed>2.690000</speed>
<extensions>
<speed>2.7</speed>
<temp>0.00</temp>
<bpm>0</bpm>
<rpm>0.00</rpm>
</extensions>
</trkpt>
<trkpt lat="30.864349365" lon="34.819793701">
<ele>535.140625</ele>
<time>2013-11-20T11:19:14Z</time>
<speed>2.730000</speed>
<extensions>
<speed>2.7</speed>
<temp>0.00</temp>
<bpm>0</bpm>
<rpm>0.00</rpm>
</extensions>
</trkpt>
<trkpt lat="30.864271164" lon="34.819927216">
<ele>535.281250</ele>
<time>2013-11-20T11:19:19Z</time>
<speed>2.640000</speed>
<extensions>
<speed>2.6</speed>
<temp>0.00</temp>
<bpm>0</bpm>
<rpm>0.00</rpm>
</extensions>
</trkpt>
<trkpt lat="30.864212036" lon="34.820041656">
<ele>534.593750</ele>
<time>2013-11-20T11:19:24Z</time>
<speed>2.750000</speed>
<extensions>
<speed>2.7</speed>
<temp>0.00</temp>
<bpm>0</bpm>
<rpm>0.00</rpm>
</extensions>
</trkpt>
<trkpt lat="30.864145279" lon="34.820148468">
<ele>536.171875</ele>
<time>2013-11-20T11:19:29Z</time>
<speed>2.350000</speed>
<extensions>
<speed>2.4</speed>
<temp>0.00</temp>
<bpm>0</bpm>
<rpm>0.00</rpm>
</extensions>
</trkpt>
<trkpt lat="30.864068985" lon="34.820259094">
<ele>536.875000</ele>
<time>2013-11-20T11:19:34Z</time>
<speed>2.940000</speed>
<extensions>
<speed>2.9</speed>
<temp>0.00</temp>
<bpm>0</bpm>
<rpm>0.00</rpm>
</extensions>
</trkpt>
<trkpt lat="30.863990784" lon="34.820369720">
<ele>538.531250</ele>
<time>2013-11-20T11:19:39Z</time>
<speed>2.240000</speed>
<extensions>
<speed>2.2</speed>
<temp>0.00</temp>
<bpm>0</bpm>
<rpm>0.00</rpm>
</extensions>
</trkpt>
<trkpt lat="30.863908768" lon="34.820465088">
<ele>540.500000</ele>
<time>2013-11-20T11:19:44Z</time>
<speed>2.310000</speed>
<extensions>
<speed>2.3</speed>
<temp>0.00</temp>
<bpm>0</bpm>
<rpm>0.00</rpm>
</extensions>
</trkpt>
<trkpt lat="30.863836288" lon="34.820556641">
<ele>540.984375</ele>
<time>2013-11-20T11:19:49Z</time>
<speed>2.630000</speed>
<extensions>
<speed>2.6</speed>
<temp>0.00</temp>
<bpm>0</bpm>
<rpm>0.00</rpm>
</extensions>
</trkpt>
<trkpt lat="30.863786697" lon="34.820663452">
<ele>538.953125</ele>
<time>2013-11-20T11:19:54Z</time>
<speed>2.310000</speed>
<extensions>
<speed>2.3</speed>
<temp>0.00</temp>
<bpm>0</bpm>
<rpm>0.00</rpm>
</extensions>
</trkpt>
<trkpt lat="30.863744736" lon="34.820751190">
<ele>538.390625</ele>
<time>2013-11-20T11:19:59Z</time>
<speed>1.590000</speed>
<extensions>
<speed>1.6</speed>
<temp>0.00</temp>
<bpm>0</bpm>
<rpm>0.00</rpm>
</extensions>
</trkpt>
<trkpt lat="30.863723755" lon="34.820766449">
<ele>538.343750</ele>
<time>2013-11-20T11:20:04Z</time>
<speed>0.920000</speed>
<extensions>
<speed>0.9</speed>
<temp>0.00</temp>
<bpm>0</bpm>
<rpm>0.00</rpm>
</extensions>
</trkpt>
<trkpt lat="30.863710403" lon="34.820755005">
<ele>538.062500</ele>
<time>2013-11-20T11:20:09Z</time>
<speed>0.160000</speed>
<extensions>
<speed>0.2</speed>
<temp>0.00</temp>
<bpm>0</bpm>
<rpm>0.00</rpm>
</extensions>
</trkpt>
<trkpt lat="30.863718033" lon="34.820766449">
<ele>538.937500</ele>
<time>2013-11-20T11:20:14Z</time>
<speed>0.180000</speed>
<extensions>
<speed>0.2</speed>
<temp>0.00</temp>
<bpm>0</bpm>
<rpm>0.00</rpm>
</extensions>
</trkpt>
<trkpt lat="30.863702774" lon="34.820796967">
<ele>540.765625</ele>
<time>2013-11-20T11:20:19Z</time>
<extensions>
<speed>0.0</speed>
<temp>0.00</temp>
<bpm>0</bpm>
<rpm>0.00</rpm>
</extensions>
</trkpt>
<trkpt lat="30.863704681" lon="34.820796967">
<ele>540.812500</ele>
<time>2013-11-20T11:20:24Z</time>
<speed>0.020000</speed>
<extensions>
<speed>0.0</speed>
<temp>0.00</temp>
<bpm>0</bpm>
<rpm>0.00</rpm>
</extensions>
</trkpt>
<trkpt lat="30.863704681" lon="34.820796967">
<ele>540.796875</ele>
<time>2013-11-20T11:20:29Z</time>
<speed>0.040000</speed>
<extensions>
<speed>0.0</speed>
<temp>0.00</temp>
<bpm>0</bpm>
<rpm>0.00</rpm>
</extensions>
</trkpt>
<trkpt lat="30.863704681" lon="34.820796967">
<ele>540.796875</ele>
<time>2013-11-20T11:20:34Z</time>
<speed>0.030000</speed>
<extensions>
<speed>0.0</speed>
<temp>0.00</temp>
<bpm>0</bpm>
<rpm>0.00</rpm>
</extensions>
</trkpt>
<trkpt lat="30.863704681" lon="34.820796967">
<ele>540.812500</ele>
<time>2013-11-20T11:20:39Z</time>
<speed>0.020000</speed>
<extensions>
<speed>0.0</speed>
<temp>0.00</temp>
<bpm>0</bpm>
<rpm>0.00</rpm>
</extensions>
</trkpt>
<trkpt lat="30.863704681" lon="34.820796967">
<ele>540.812500</ele>
<time>2013-11-20T11:20:44Z</time>
<speed>0.020000</speed>
<extensions>
<speed>0.0</speed>
<temp>0.00</temp>
<bpm>0</bpm>
<rpm>0.00</rpm>
</extensions>
</trkpt>
<trkpt lat="30.863704681" lon="34.820796967">
<ele>540.812500</ele>
<time>2013-11-20T11:20:49Z</time>
<extensions>
<speed>0.0</speed>
<temp>0.00</temp>
<bpm>0</bpm>
<rpm>0.00</rpm>
</extensions>
</trkpt>
<trkpt lat="30.863704681" lon="34.820796967">
<ele>540.812500</ele>
<time>2013-11-20T11:20:54Z</time>
<speed>0.010000</speed>
<extensions>
<speed>0.0</speed>
<temp>0.00</temp>
<bpm>0</bpm>
<rpm>0.00</rpm>
</extensions>
</trkpt>
<trkpt lat="30.863704681" lon="34.820796967">
<ele>540.812500</ele>
<time>2013-11-20T11:20:59Z</time>
<speed>0.020000</speed>
<extensions>
<speed>0.0</speed>
<temp>0.00</temp>
<bpm>0</bpm>
<rpm>0.00</rpm>
</extensions>
</trkpt>
<trkpt lat="30.863704681" lon="34.820796967">
<ele>540.796875</ele>
<time>2013-11-20T11:21:04Z</time>
<extensions>
<speed>0.0</speed>
<temp>0.00</temp>
<bpm>0</bpm>
<rpm>0.00</rpm>
</extensions>
</trkpt>
<trkpt lat="30.863704681" lon="34.820796967">
<ele>540.812500</ele>
<time>2013-11-20T11:21:09Z</time>
<speed>0.010000</speed>
<extensions>
<speed>0.0</speed>
<temp>0.00</temp>
<bpm>0</bpm>
<rpm>0.00</rpm>
</extensions>
</trkpt>
<trkpt lat="30.863704681" lon="34.820796967">
<ele>540.828125</ele>
<time>2013-11-20T11:21:14Z</time>
<speed>0.020000</speed>
<extensions>
<speed>0.0</speed>
<temp>0.00</temp>
<bpm>0</bpm>
<rpm>0.00</rpm>
</extensions>
</trkpt>
<trkpt lat="30.863704681" lon="34.820793152">
<ele>540.843750</ele>
<time>2013-11-20T11:21:19Z</time>
<speed>0.010000</speed>
<extensions>
<speed>0.0</speed>
<temp>0.00</temp>
<bpm>0</bpm>
<rpm>0.00</rpm>
</extensions>
</trkpt>
<trkpt lat="30.863702774" lon="34.820793152">
<ele>540.859375</ele>
<time>2013-11-20T11:21:24Z</time>
<speed>0.020000</speed>
<extensions>
<speed>0.0</speed>
<temp>0.00</temp>
<bpm>0</bpm>
<rpm>0.00</rpm>
</extensions>
</trkpt>
<trkpt lat="30.863702774" lon="34.820793152">
<ele>540.859375</ele>
<time>2013-11-20T11:21:29Z</time>
<speed>0.010000</speed>
<extensions>
<speed>0.0</speed>
<temp>0.00</temp>
<bpm>0</bpm>
<rpm>0.00</rpm>
</extensions>
</trkpt>
<trkpt lat="30.863702774" lon="34.820793152">
<ele>540.875000</ele>
<time>2013-11-20T11:21:34Z</time>
<extensions>
<speed>0.0</speed>
<temp>0.00</temp>
<bpm>0</bpm>
<rpm>0.00</rpm>
</extensions>
</trkpt>
<trkpt lat="30.863702774" lon="34.820793152">
<ele>540.875000</ele>
<time>2013-11-20T11:21:39Z</time>
<speed>0.010000</speed>
<extensions>
<speed>0.0</speed>
<temp>0.00</temp>
<bpm>0</bpm>
<rpm>0.00</rpm>
</extensions>
</trkpt>
<trkpt lat="30.863702774" lon="34.820793152">
<ele>540.906250</ele>
<time>2013-11-20T11:21:44Z</time>
<speed>0.010000</speed>
<extensions>
<speed>0.0</speed>
<temp>0.00</temp>
<bpm>0</bpm>
<rpm>0.00</rpm>
</extensions>
</trkpt>
<trkpt lat="30.863702774" lon="34.820793152">
<ele>540.906250</ele>
<time>2013-11-20T11:21:49Z</time>
<speed>0.010000</speed>
<extensions>
<speed>0.0</speed>
<temp>0.00</temp>
<bpm>0</bpm>
<rpm>0.00</rpm>
</extensions>
</trkpt>
<trkpt lat="30.863704681" lon="34.820793152">
<ele>540.906250</ele>
<time>2013-11-20T11:21:54Z</time>
<extensions>
<speed>0.0</speed>
<temp>0.00</temp>
<bpm>0</bpm>
<rpm>0.00</rpm>
</extensions>
</trkpt>
<trkpt lat="30.863702774" lon="34.820793152">
<ele>540.906250</ele>
<time>2013-11-20T11:21:59Z</time>
<extensions>
<speed>0.0</speed>
<temp>0.00</temp>
<bpm>0</bpm>
<rpm>0.00</rpm>
</extensions>
</trkpt>
<trkpt lat="30.863702774" lon="34.820793152">
<ele>540.921875</ele>
<time>2013-11-20T11:22:04Z</time>
<speed>0.020000</speed>
<extensions>
<speed>0.0</speed>
<temp>0.00</temp>
<bpm>0</bpm>
<rpm>0.00</rpm>
</extensions>
</trkpt>
<trkpt lat="30.863702774" lon="34.820793152">
<ele>540.937500</ele>
<time>2013-11-20T11:22:09Z</time>
<speed>0.030000</speed>
<extensions>
<speed>0.0</speed>
<temp>0.00</temp>
<bpm>0</bpm>
<rpm>0.00</rpm>
</extensions>
</trkpt>
<trkpt lat="30.863702774" lon="34.820793152">
<ele>540.921875</ele>
<time>2013-11-20T11:22:14Z</time>
<speed>0.010000</speed>
<extensions>
<speed>0.0</speed>
<temp>0.00</temp>
<bpm>0</bpm>
<rpm>0.00</rpm>
</extensions>
</trkpt>
<trkpt lat="30.863702774" lon="34.820793152">
<ele>540.921875</ele>
<time>2013-11-20T11:22:19Z</time>
<speed>0.010000</speed>
<extensions>
<speed>0.0</speed>
<temp>0.00</temp>
<bpm>0</bpm>
<rpm>0.00</rpm>
</extensions>
</trkpt>
<trkpt lat="30.863702774" lon="34.820793152">
<ele>540.937500</ele>
<time>2013-11-20T11:22:24Z</time>
<speed>0.030000</speed>
<extensions>
<speed>0.0</speed>
<temp>0.00</temp>
<bpm>0</bpm>
<rpm>0.00</rpm>
</extensions>
</trkpt>
<trkpt lat="30.863702774" lon="34.820793152">
<ele>540.921875</ele>
<time>2013-11-20T11:22:29Z</time>
<speed>0.010000</speed>
<extensions>
<speed>0.0</speed>
<temp>0.00</temp>
<bpm>0</bpm>
<rpm>0.00</rpm>
</extensions>
</trkpt>
<trkpt lat="30.863702774" lon="34.820793152">
<ele>540.937500</ele>
<time>2013-11-20T11:22:34Z</time>
<speed>0.010000</speed>
<extensions>
<speed>0.0</speed>
<temp>0.00</temp>
<bpm>0</bpm>
<rpm>0.00</rpm>
</extensions>
</trkpt>
<trkpt lat="30.863702774" lon="34.820793152">
<ele>540.937500</ele>
<time>2013-11-20T11:22:39Z</time>
<speed>0.010000</speed>
<extensions>
<speed>0.0</speed>
<temp>0.00</temp>
<bpm>0</bpm>
<rpm>0.00</rpm>
</extensions>
</trkpt>
<trkpt lat="30.863702774" lon="34.820793152">
<ele>540.937500</ele>
<time>2013-11-20T11:22:44Z</time>
<speed>0.020000</speed>
<extensions>
<speed>0.0</speed>
<temp>0.00</temp>
<bpm>0</bpm>
<rpm>0.00</rpm>
</extensions>
</trkpt>
<trkpt lat="30.863702774" lon="34.820793152">
<ele>540.937500</ele>
<time>2013-11-20T11:22:49Z</time>
<speed>0.020000</speed>
<extensions>
<speed>0.0</speed>
<temp>0.00</temp>
<bpm>0</bpm>
<rpm>0.00</rpm>
</extensions>
</trkpt>
<trkpt lat="30.863702774" lon="34.820793152">
<ele>540.937500</ele>
<time>2013-11-20T11:22:54Z</time>
<speed>0.010000</speed>
<extensions>
<speed>0.0</speed>
<temp>0.00</temp>
<bpm>0</bpm>
<rpm>0.00</rpm>
</extensions>
</trkpt>
<trkpt lat="30.863702774" lon="34.820793152">
<ele>540.937500</ele>
<time>2013-11-20T11:22:59Z</time>
<speed>0.050000</speed>
<extensions>
<speed>0.1</speed>
<temp>0.00</temp>
<bpm>0</bpm>
<rpm>0.00</rpm>
</extensions>
</trkpt>
<trkpt lat="30.863702774" lon="34.820793152">
<ele>540.937500</ele>
<time>2013-11-20T11:23:04Z</time>
<speed>0.010000</speed>
<extensions>
<speed>0.0</speed>
<temp>0.00</temp>
<bpm>0</bpm>
<rpm>0.00</rpm>
</extensions>
</trkpt>
<trkpt lat="30.863704681" lon="34.820793152">
<ele>540.953125</ele>
<time>2013-11-20T11:23:09Z</time>
<speed>0.010000</speed>
<extensions>
<speed>0.0</speed>
<temp>0.00</temp>
<bpm>0</bpm>
<rpm>0.00</rpm>
</extensions>
</trkpt>
<trkpt lat="30.863704681" lon="34.820796967">
<ele>540.968750</ele>
<time>2013-11-20T11:23:14Z</time>
<speed>0.010000</speed>
<extensions>
<speed>0.0</speed>
<temp>0.00</temp>
<bpm>0</bpm>
<rpm>0.00</rpm>
</extensions>
</trkpt>
<trkpt lat="30.863704681" lon="34.820796967">
<ele>540.984375</ele>
<time>2013-11-20T11:23:19Z</time>
<speed>0.030000</speed>
<extensions>
<speed>0.0</speed>
<temp>0.00</temp>
<bpm>0</bpm>
<rpm>0.00</rpm>
</extensions>
</trkpt>
<trkpt lat="30.863704681" lon="34.820796967">
<ele>541.000000</ele>
<time>2013-11-20T11:23:24Z</time>
<speed>0.050000</speed>
<extensions>
<speed>0.1</speed>
<temp>0.00</temp>
<bpm>0</bpm>
<rpm>0.00</rpm>
</extensions>
</trkpt>
<trkpt lat="30.863706589" lon="34.820796967">
<ele>541.015625</ele>
<time>2013-11-20T11:23:29Z</time>
<speed>0.040000</speed>
<extensions>
<speed>0.0</speed>
<temp>0.00</temp>
<bpm>0</bpm>
<rpm>0.00</rpm>
</extensions>
</trkpt>
<trkpt lat="30.863706589" lon="34.820796967">
<ele>541.031250</ele>
<time>2013-11-20T11:23:34Z</time>
<speed>0.060000</speed>
<extensions>
<speed>0.1</speed>
<temp>0.00</temp>
<bpm>0</bpm>
<rpm>0.00</rpm>
</extensions>
</trkpt>
<trkpt lat="30.863708496" lon="34.820796967">
<ele>541.031250</ele>
<time>2013-11-20T11:23:39Z</time>
<speed>0.020000</speed>
<extensions>
<speed>0.0</speed>
<temp>0.00</temp>
<bpm>0</bpm>
<rpm>0.00</rpm>
</extensions>
</trkpt>
<trkpt lat="30.863708496" lon="34.820796967">
<ele>541.031250</ele>
<time>2013-11-20T11:23:44Z</time>
<speed>0.020000</speed>
<extensions>
<speed>0.0</speed>
<temp>0.00</temp>
<bpm>0</bpm>
<rpm>0.00</rpm>
</extensions>
</trkpt>
<trkpt lat="30.863706589" lon="34.820796967">
<ele>541.062500</ele>
<time>2013-11-20T11:23:49Z</time>
<extensions>
<speed>0.0</speed>
<temp>0.00</temp>
<bpm>0</bpm>
<rpm>0.00</rpm>
</extensions>
</trkpt>
<trkpt lat="30.863708496" lon="34.820796967">
<ele>541.078125</ele>
<time>2013-11-20T11:23:54Z</time>
<speed>1.770000</speed>
<extensions>
<speed>1.8</speed>
<temp>0.00</temp>
<bpm>0</bpm>
<rpm>0.00</rpm>
</extensions>
</trkpt>
<trkpt lat="30.863779068" lon="34.820858002">
<ele>538.625000</ele>
<time>2013-11-20T11:23:59Z</time>
<speed>2.190000</speed>
<extensions>
<speed>2.2</speed>
<temp>0.00</temp>
<bpm>0</bpm>
<rpm>0.00</rpm>
</extensions>
</trkpt>
<trkpt lat="30.863904953" lon="34.821056366">
<ele>536.125000</ele>
<time>2013-11-20T11:24:04Z</time>
<speed>4.980000</speed>
<extensions>
<speed>5.0</speed>
<temp>0.00</temp>
<bpm>0</bpm>
<rpm>0.00</rpm>
</extensions>
</trkpt>
<trkpt lat="30.863998413" lon="34.821281433">
<ele>535.937500</ele>
<time>2013-11-20T11:24:09Z</time>
<speed>3.620000</speed>
<extensions>
<speed>3.6</speed>
<temp>0.00</temp>
<bpm>0</bpm>
<rpm>0.00</rpm>
</extensions>
</trkpt>
<trkpt lat="30.864089966" lon="34.821323395">
<ele>532.968750</ele>
<time>2013-11-20T11:24:14Z</time>
<speed>1.810000</speed>
<extensions>
<speed>1.8</speed>
<temp>0.00</temp>
<bpm>0</bpm>
<rpm>0.00</rpm>
</extensions>
</trkpt>
<trkpt lat="30.864192963" lon="34.821285248">
<ele>532.734375</ele>
<time>2013-11-20T11:24:19Z</time>
<speed>3.720000</speed>
<extensions>
<speed>3.7</speed>
<temp>0.00</temp>
<bpm>0</bpm>
<rpm>0.00</rpm>
</extensions>
</trkpt>
<trkpt lat="30.864353180" lon="34.821247101">
<ele>532.687500</ele>
<time>2013-11-20T11:24:24Z</time>
<speed>3.370000</speed>
<extensions>
<speed>3.4</speed>
<temp>0.00</temp>
<bpm>0</bpm>
<rpm>0.00</rpm>
</extensions>
</trkpt>
<trkpt lat="30.864494324" lon="34.821220398">
<ele>532.109375</ele>
<time>2013-11-20T11:24:29Z</time>
<speed>3.230000</speed>
<extensions>
<speed>3.2</speed>
<temp>0.00</temp>
<bpm>0</bpm>
<rpm>0.00</rpm>
</extensions>
</trkpt>
<trkpt lat="30.864641190" lon="34.821212769">
<ele>530.031250</ele>
<time>2013-11-20T11:24:34Z</time>
<speed>3.770000</speed>
<extensions>
<speed>3.8</speed>
<temp>0.00</temp>
<bpm>0</bpm>
<rpm>0.00</rpm>
</extensions>
</trkpt>
<trkpt lat="30.864837646" lon="34.821250916">
<ele>529.359375</ele>
<time>2013-11-20T11:24:39Z</time>
<speed>4.520000</speed>
<extensions>
<speed>4.5</speed>
<temp>0.00</temp>
<bpm>0</bpm>
<rpm>0.00</rpm>
</extensions>
</trkpt>
<trkpt lat="30.865005493" lon="34.821292877">
<ele>528.156250</ele>
<time>2013-11-20T11:24:44Z</time>
<speed>4.430000</speed>
<extensions>
<speed>4.4</speed>
<temp>0.00</temp>
<bpm>0</bpm>
<rpm>0.00</rpm>
</extensions>
</trkpt>
<trkpt lat="30.865182877" lon="34.821331024">
<ele>527.500000</ele>
<time>2013-11-20T11:24:49Z</time>
<speed>2.760000</speed>
<extensions>
<speed>2.8</speed>
<temp>0.00</temp>
<bpm>0</bpm>
<rpm>0.00</rpm>
</extensions>
</trkpt>
<trkpt lat="30.865293503" lon="34.821342468">
<ele>526.531250</ele>
<time>2013-11-20T11:24:54Z</time>
<speed>2.790000</speed>
<extensions>
<speed>2.8</speed>
<temp>0.00</temp>
<bpm>0</bpm>
<rpm>0.00</rpm>
</extensions>
</trkpt>
<trkpt lat="30.865451813" lon="34.821338654">
<ele>520.250000</ele>
<time>2013-11-20T11:24:59Z</time>
<speed>3.560000</speed>
<extensions>
<speed>3.6</speed>
<temp>0.00</temp>
<bpm>0</bpm>
<rpm>0.00</rpm>
</extensions>
</trkpt>
<trkpt lat="30.865615845" lon="34.821346283">
<ele>516.328125</ele>
<time>2013-11-20T11:25:04Z</time>
<speed>3.510000</speed>
<extensions>
<speed>3.5</speed>
<temp>0.00</temp>
<bpm>0</bpm>
<rpm>0.00</rpm>
</extensions>
</trkpt>
<trkpt lat="30.865749359" lon="34.821331024">
<ele>514.562500</ele>
<time>2013-11-20T11:25:09Z</time>
<speed>3.230000</speed>
<extensions>
<speed>3.2</speed>
<temp>0.00</temp>
<bpm>0</bpm>
<rpm>0.00</rpm>
</extensions>
</trkpt>
<trkpt lat="30.865949631" lon="34.821334839">
<ele>513.109375</ele>
<time>2013-11-20T11:25:14Z</time>
<speed>5.080000</speed>
<extensions>
<speed>5.1</speed>
<temp>0.00</temp>
<bpm>0</bpm>
<rpm>0.00</rpm>
</extensions>
</trkpt>
<trkpt lat="30.866178513" lon="34.821372986">
<ele>510.945313</ele>
<time>2013-11-20T11:25:19Z</time>
<speed>5.450000</speed>
<extensions>
<speed>5.5</speed>
<temp>0.00</temp>
<bpm>0</bpm>
<rpm>0.00</rpm>
</extensions>
</trkpt>
<trkpt lat="30.866411209" lon="34.821487427">
<ele>508.460938</ele>
<time>2013-11-20T11:25:24Z</time>
<speed>5.200000</speed>
<extensions>
<speed>5.2</speed>
<temp>0.00</temp>
<bpm>0</bpm>
<rpm>0.00</rpm>
</extensions>
</trkpt>
<trkpt lat="30.866575241" lon="34.821647644">
<ele>508.851563</ele>
<time>2013-11-20T11:25:29Z</time>
<speed>4.820000</speed>
<extensions>
<speed>4.8</speed>
<temp>0.00</temp>
<bpm>0</bpm>
<rpm>0.00</rpm>
</extensions>
</trkpt>
<trkpt lat="30.866664886" lon="34.821899414">
<ele>509.687500</ele>
<time>2013-11-20T11:25:34Z</time>
<speed>5.210000</speed>
<extensions>
<speed>5.2</speed>
<temp>0.00</temp>
<bpm>0</bpm>
<rpm>0.00</rpm>
</extensions>
</trkpt>
<trkpt lat="30.866626740" lon="34.822177887">
<ele>507.343750</ele>
<time>2013-11-20T11:25:39Z</time>
<speed>4.960000</speed>
<extensions>
<speed>5.0</speed>
<temp>0.00</temp>
<bpm>0</bpm>
<rpm>0.00</rpm>
</extensions>
</trkpt>
<trkpt lat="30.866569519" lon="34.822406769">
<ele>507.445313</ele>
<time>2013-11-20T11:25:44Z</time>
<speed>4.540000</speed>
<extensions>
<speed>4.5</speed>
<temp>0.00</temp>
<bpm>0</bpm>
<rpm>0.00</rpm>
</extensions>
</trkpt>
<trkpt lat="30.866527557" lon="34.822631836">
<ele>508.523438</ele>
<time>2013-11-20T11:25:49Z</time>
<speed>4.160000</speed>
<extensions>
<speed>4.2</speed>
<temp>0.00</temp>
<bpm>0</bpm>
<rpm>0.00</rpm>
</extensions>
</trkpt>
<trkpt lat="30.866500854" lon="34.822837830">
<ele>508.851563</ele>
<time>2013-11-20T11:25:54Z</time>
<speed>3.480000</speed>
<extensions>
<speed>3.5</speed>
<temp>0.00</temp>
<bpm>0</bpm>
<rpm>0.00</rpm>
</extensions>
</trkpt>
<trkpt lat="30.866445541" lon="34.823020935">
<ele>510.718750</ele>
<time>2013-11-20T11:25:59Z</time>
<speed>3.590000</speed>
<extensions>
<speed>3.6</speed>
<temp>0.00</temp>
<bpm>0</bpm>
<rpm>0.00</rpm>
</extensions>
</trkpt>
<trkpt lat="30.866394043" lon="34.823173523">
<ele>512.640625</ele>
<time>2013-11-20T11:26:04Z</time>
<speed>3.440000</speed>
<extensions>
<speed>3.4</speed>
<temp>0.00</temp>
<bpm>0</bpm>
<rpm>0.00</rpm>
</extensions>
</trkpt>
<trkpt lat="30.866327286" lon="34.823364258">
<ele>512.515625</ele>
<time>2013-11-20T11:26:09Z</time>
<speed>4.110000</speed>
<extensions>
<speed>4.1</speed>
<temp>0.00</temp>
<bpm>0</bpm>
<rpm>0.00</rpm>
</extensions>
</trkpt>
<trkpt lat="30.866281509" lon="34.823574066">
<ele>511.773438</ele>
<time>2013-11-20T11:26:14Z</time>
<speed>4.210000</speed>
<extensions>
<speed>4.2</speed>
<temp>0.00</temp>
<bpm>0</bpm>
<rpm>0.00</rpm>
</extensions>
</trkpt>
<trkpt lat="30.866237640" lon="34.823745728">
<ele>509.906250</ele>
<time>2013-11-20T11:26:19Z</time>
<speed>3.810000</speed>
<extensions>
<speed>3.8</speed>
<temp>0.00</temp>
<bpm>0</bpm>
<rpm>0.00</rpm>
</extensions>
</trkpt>
<trkpt lat="30.866256714" lon="34.823947906">
<ele>510.164063</ele>
<time>2013-11-20T11:26:24Z</time>
<speed>4.190000</speed>
<extensions>
<speed>4.2</speed>
<temp>0.00</temp>
<bpm>0</bpm>
<rpm>0.00</rpm>
</extensions>
</trkpt>
<trkpt lat="30.866214752" lon="34.824172974">
<ele>512.562500</ele>
<time>2013-11-20T11:26:29Z</time>
<speed>4.080000</speed>
<extensions>
<speed>4.1</speed>
<temp>0.00</temp>
<bpm>0</bpm>
<rpm>0.00</rpm>
</extensions>
</trkpt>
<trkpt lat="30.866174698" lon="34.824375153">
<ele>512.328125</ele>
<time>2013-11-20T11:26:34Z</time>
<speed>3.340000</speed>
<extensions>
<speed>3.3</speed>
<temp>0.00</temp>
<bpm>0</bpm>
<rpm>0.00</rpm>
</extensions>
</trkpt>
<trkpt lat="30.866130829" lon="34.824581146">
<ele>511.828125</ele>
<time>2013-11-20T11:26:39Z</time>
<speed>3.870000</speed>
<extensions>
<speed>3.9</speed>
<temp>0.00</temp>
<bpm>0</bpm>
<rpm>0.00</rpm>
</extensions>
</trkpt>
<trkpt lat="30.866062164" lon="34.824760437">
<ele>512.718750</ele>
<time>2013-11-20T11:26:44Z</time>
<speed>3.500000</speed>
<extensions>
<speed>3.5</speed>
<temp>0.00</temp>
<bpm>0</bpm>
<rpm>0.00</rpm>
</extensions>
</trkpt>
<trkpt lat="30.866008759" lon="34.824924469">
<ele>513.312500</ele>
<time>2013-11-20T11:26:49Z</time>
<speed>3.500000</speed>
<extensions>
<speed>3.5</speed>
<temp>0.00</temp>
<bpm>0</bpm>
<rpm>0.00</rpm>
</extensions>
</trkpt>
<trkpt lat="30.865961075" lon="34.825096130">
<ele>512.234375</ele>
<time>2013-11-20T11:26:54Z</time>
<speed>3.670000</speed>
<extensions>
<speed>3.7</speed>
<temp>0.00</temp>
<bpm>0</bpm>
<rpm>0.00</rpm>
</extensions>
</trkpt>
<trkpt lat="30.865905762" lon="34.825279236">
<ele>512.187500</ele>
<time>2013-11-20T11:26:59Z</time>
<speed>3.530000</speed>
<extensions>
<speed>3.5</speed>
<temp>0.00</temp>
<bpm>0</bpm>
<rpm>0.00</rpm>
</extensions>
</trkpt>
<trkpt lat="30.865852356" lon="34.825454712">
<ele>512.515625</ele>
<time>2013-11-20T11:27:04Z</time>
<speed>3.890000</speed>
<extensions>
<speed>3.9</speed>
<temp>0.00</temp>
<bpm>0</bpm>
<rpm>0.00</rpm>
</extensions>
</trkpt>
<trkpt lat="30.865791321" lon="34.825637817">
<ele>513.125000</ele>
<time>2013-11-20T11:27:09Z</time>
<speed>3.520000</speed>
<extensions>
<speed>3.5</speed>
<temp>0.00</temp>
<bpm>0</bpm>
<rpm>0.00</rpm>
</extensions>
</trkpt>
<trkpt lat="30.865730286" lon="34.825820923">
<ele>513.984375</ele>
<time>2013-11-20T11:27:14Z</time>
<speed>4.130000</speed>
<extensions>
<speed>4.1</speed>
<temp>0.00</temp>
<bpm>0</bpm>
<rpm>0.00</rpm>
</extensions>
</trkpt>
<trkpt lat="30.865671158" lon="34.826023102">
<ele>514.390625</ele>
<time>2013-11-20T11:27:19Z</time>
<speed>4.460000</speed>
<extensions>
<speed>4.5</speed>
<temp>0.00</temp>
<bpm>0</bpm>
<rpm>0.00</rpm>
</extensions>
</trkpt>
<trkpt lat="30.865613937" lon="34.826213837">
<ele>515.328125</ele>
<time>2013-11-20T11:27:24Z</time>
<speed>3.720000</speed>
<extensions>
<speed>3.7</speed>
<temp>0.00</temp>
<bpm>0</bpm>
<rpm>0.00</rpm>
</extensions>
</trkpt>
<trkpt lat="30.865568161" lon="34.826416016">
<ele>517.109375</ele>
<time>2013-11-20T11:27:29Z</time>
<speed>3.970000</speed>
<extensions>
<speed>4.0</speed>
<temp>0.00</temp>
<bpm>0</bpm>
<rpm>0.00</rpm>
</extensions>
</trkpt>
<trkpt lat="30.865549088" lon="34.826618195">
<ele>519.500000</ele>
<time>2013-11-20T11:27:34Z</time>
<speed>3.800000</speed>
<extensions>
<speed>3.8</speed>
<temp>0.00</temp>
<bpm>0</bpm>
<rpm>0.00</rpm>
</extensions>
</trkpt>
<trkpt lat="30.865533829" lon="34.826805115">
<ele>521.015625</ele>
<time>2013-11-20T11:27:39Z</time>
<speed>3.120000</speed>
<extensions>
<speed>3.1</speed>
<temp>0.00</temp>
<bpm>0</bpm>
<rpm>0.00</rpm>
</extensions>
</trkpt>
<trkpt lat="30.865516663" lon="34.826969147">
<ele>522.687500</ele>
<time>2013-11-20T11:27:44Z</time>
<speed>3.670000</speed>
<extensions>
<speed>3.7</speed>
<temp>0.00</temp>
<bpm>0</bpm>
<rpm>0.00</rpm>
</extensions>
</trkpt>
<trkpt lat="30.865491867" lon="34.827156067">
<ele>522.765625</ele>
<time>2013-11-20T11:27:49Z</time>
<speed>3.880000</speed>
<extensions>
<speed>3.9</speed>
<temp>0.00</temp>
<bpm>0</bpm>
<rpm>0.00</rpm>
</extensions>
</trkpt>
<trkpt lat="30.865486145" lon="34.827358246">
<ele>521.062500</ele>
<time>2013-11-20T11:27:54Z</time>
<speed>3.720000</speed>
<extensions>
<speed>3.7</speed>
<temp>0.00</temp>
<bpm>0</bpm>
<rpm>0.00</rpm>
</extensions>
</trkpt>
<trkpt lat="30.865514755" lon="34.827537537">
<ele>521.281250</ele>
<time>2013-11-20T11:27:59Z</time>
<speed>3.210000</speed>
<extensions>
<speed>3.2</speed>
<temp>0.00</temp>
<bpm>0</bpm>
<rpm>0.00</rpm>
</extensions>
</trkpt>
<trkpt lat="30.865516663" lon="34.827713013">
<ele>521.218750</ele>
<time>2013-11-20T11:28:04Z</time>
<speed>3.150000</speed>
<extensions>
<speed>3.2</speed>
<temp>0.00</temp>
<bpm>0</bpm>
<rpm>0.00</rpm>
</extensions>
</trkpt>
<trkpt lat="30.865510941" lon="34.827857971">
<ele>521.843750</ele>
<time>2013-11-20T11:28:09Z</time>
<speed>2.150000</speed>
<extensions>
<speed>2.1</speed>
<temp>0.00</temp>
<bpm>0</bpm>
<rpm>0.00</rpm>
</extensions>
</trkpt>
<trkpt lat="30.865461349" lon="34.827960968">
<ele>522.765625</ele>
<time>2013-11-20T11:28:14Z</time>
<speed>2.340000</speed>
<extensions>
<speed>2.3</speed>
<temp>0.00</temp>
<bpm>0</bpm>
<rpm>0.00</rpm>
</extensions>
</trkpt>
<trkpt lat="30.865413666" lon="34.828086853">
<ele>522.937500</ele>
<time>2013-11-20T11:28:19Z</time>
<speed>3.280000</speed>
<extensions>
<speed>3.3</speed>
<temp>0.00</temp>
<bpm>0</bpm>
<rpm>0.00</rpm>
</extensions>
</trkpt>
<trkpt lat="30.865369797" lon="34.828208923">
<ele>523.843750</ele>
<time>2013-11-20T11:28:24Z</time>
<speed>2.890000</speed>
<extensions>
<speed>2.9</speed>
<temp>0.00</temp>
<bpm>0</bpm>
<rpm>0.00</rpm>
</extensions>
</trkpt>
<trkpt lat="30.865432739" lon="34.828365326">
<ele>525.515625</ele>
<time>2013-11-20T11:28:29Z</time>
<speed>3.420000</speed>
<extensions>
<speed>3.4</speed>
<temp>0.00</temp>
<bpm>0</bpm>
<rpm>0.00</rpm>
</extensions>
</trkpt>
<trkpt lat="30.865501404" lon="34.828514099">
<ele>525.421875</ele>
<time>2013-11-20T11:28:34Z</time>
<speed>3.120000</speed>
<extensions>
<speed>3.1</speed>
<temp>0.00</temp>
<bpm>0</bpm>
<rpm>0.00</rpm>
</extensions>
</trkpt>
<trkpt lat="30.865558624" lon="34.828639984">
<ele>524.687500</ele>
<time>2013-11-20T11:28:39Z</time>
<speed>2.910000</speed>
<extensions>
<speed>2.9</speed>
<temp>0.00</temp>
<bpm>0</bpm>
<rpm>0.00</rpm>
</extensions>
</trkpt>
<trkpt lat="30.865617752" lon="34.828773499">
<ele>525.437500</ele>
<time>2013-11-20T11:28:44Z</time>
<speed>2.620000</speed>
<extensions>
<speed>2.6</speed>
<temp>0.00</temp>
<bpm>0</bpm>
<rpm>0.00</rpm>
</extensions>
</trkpt>
<trkpt lat="30.865676880" lon="34.828880310">
<ele>526.125000</ele>
<time>2013-11-20T11:28:49Z</time>
<speed>1.570000</speed>
<extensions>
<speed>1.6</speed>
<temp>0.00</temp>
<bpm>0</bpm>
<rpm>0.00</rpm>
</extensions>
</trkpt>
<trkpt lat="30.865751266" lon="34.828887939">
<ele>526.093750</ele>
<time>2013-11-20T11:28:54Z</time>
<speed>2.290000</speed>
<extensions>
<speed>2.3</speed>
<temp>0.00</temp>
<bpm>0</bpm>
<rpm>0.00</rpm>
</extensions>
</trkpt>
<trkpt lat="30.865831375" lon="34.828929901">
<ele>525.937500</ele>
<time>2013-11-20T11:28:59Z</time>
<speed>1.860000</speed>
<extensions>
<speed>1.9</speed>
<temp>0.00</temp>
<bpm>0</bpm>
<rpm>0.00</rpm>
</extensions>
</trkpt>
<trkpt lat="30.865884781" lon="34.829006195">
<ele>527.703125</ele>
<time>2013-11-20T11:29:04Z</time>
<speed>1.810000</speed>
<extensions>
<speed>1.8</speed>
<temp>0.00</temp>
<bpm>0</bpm>
<rpm>0.00</rpm>
</extensions>
</trkpt>
<trkpt lat="30.865938187" lon="34.829093933">
<ele>528.031250</ele>
<time>2013-11-20T11:29:09Z</time>
<speed>1.930000</speed>
<extensions>
<speed>1.9</speed>
<temp>0.00</temp>
<bpm>0</bpm>
<rpm>0.00</rpm>
</extensions>
</trkpt>
<trkpt lat="30.865961075" lon="34.829185486">
<ele>527.906250</ele>
<time>2013-11-20T11:29:14Z</time>
<speed>1.700000</speed>
<extensions>
<speed>1.7</speed>
<temp>0.00</temp>
<bpm>0</bpm>
<rpm>0.00</rpm>
</extensions>
</trkpt>
<trkpt lat="30.865985870" lon="34.829269409">
<ele>528.609375</ele>
<time>2013-11-20T11:29:19Z</time>
<speed>1.870000</speed>
<extensions>
<speed>1.9</speed>
<temp>0.00</temp>
<bpm>0</bpm>
<rpm>0.00</rpm>
</extensions>
</trkpt>
<trkpt lat="30.866008759" lon="34.829349518">
<ele>528.406250</ele>
<time>2013-11-20T11:29:24Z</time>
<speed>1.540000</speed>
<extensions>
<speed>1.5</speed>
<temp>0.00</temp>
<bpm>0</bpm>
<rpm>0.00</rpm>
</extensions>
</trkpt>
<trkpt lat="30.866033554" lon="34.829444885">
<ele>527.906250</ele>
<time>2013-11-20T11:29:29Z</time>
<speed>1.650000</speed>
<extensions>
<speed>1.7</speed>
<temp>0.00</temp>
<bpm>0</bpm>
<rpm>0.00</rpm>
</extensions>
</trkpt>
<trkpt lat="30.866056442" lon="34.829528809">
<ele>528.328125</ele>
<time>2013-11-20T11:29:34Z</time>
<speed>1.500000</speed>
<extensions>
<speed>1.5</speed>
<temp>0.00</temp>
<bpm>0</bpm>
<rpm>0.00</rpm>
</extensions>
</trkpt>
<trkpt lat="30.866092682" lon="34.829601288">
<ele>528.656250</ele>
<time>2013-11-20T11:29:39Z</time>
<speed>1.670000</speed>
<extensions>
<speed>1.7</speed>
<temp>0.00</temp>
<bpm>0</bpm>
<rpm>0.00</rpm>
</extensions>
</trkpt>
<trkpt lat="30.866132736" lon="34.829662323">
<ele>529.203125</ele>
<time>2013-11-20T11:29:44Z</time>
<speed>1.700000</speed>
<extensions>
<speed>1.7</speed>
<temp>0.00</temp>
<bpm>0</bpm>
<rpm>0.00</rpm>
</extensions>
</trkpt>
<trkpt lat="30.866174698" lon="34.829734802">
<ele>529.703125</ele>
<time>2013-11-20T11:29:49Z</time>
<speed>2.080000</speed>
<extensions>
<speed>2.1</speed>
<temp>0.00</temp>
<bpm>0</bpm>
<rpm>0.00</rpm>
</extensions>
</trkpt>
<trkpt lat="30.866235733" lon="34.829795837">
<ele>530.656250</ele>
<time>2013-11-20T11:29:54Z</time>
<speed>1.810000</speed>
<extensions>
<speed>1.8</speed>
<temp>0.00</temp>
<bpm>0</bpm>
<rpm>0.00</rpm>
</extensions>
</trkpt>
<trkpt lat="30.866283417" lon="34.829879761">
<ele>531.515625</ele>
<time>2013-11-20T11:29:59Z</time>
<speed>1.600000</speed>
<extensions>
<speed>1.6</speed>
<temp>0.00</temp>
<bpm>0</bpm>
<rpm>0.00</rpm>
</extensions>
</trkpt>
<trkpt lat="30.866331100" lon="34.829990387">
<ele>532.187500</ele>
<time>2013-11-20T11:30:04Z</time>
<speed>2.420000</speed>
<extensions>
<speed>2.4</speed>
<temp>0.00</temp>
<bpm>0</bpm>
<rpm>0.00</rpm>
</extensions>
</trkpt>
<trkpt lat="30.866424561" lon="34.830085754">
<ele>531.703125</ele>
<time>2013-11-20T11:30:09Z</time>
<speed>2.800000</speed>
<extensions>
<speed>2.8</speed>
<temp>0.00</temp>
<bpm>0</bpm>
<rpm>0.00</rpm>
</extensions>
</trkpt>
<trkpt lat="30.866493225" lon="34.830165863">
<ele>530.390625</ele>
<time>2013-11-20T11:30:14Z</time>
<speed>2.110000</speed>
<extensions>
<speed>2.1</speed>
<temp>0.00</temp>
<bpm>0</bpm>
<rpm>0.00</rpm>
</extensions>
</trkpt>
<trkpt lat="30.866552353" lon="34.830272675">
<ele>531.281250</ele>
<time>2013-11-20T11:30:19Z</time>
<speed>2.570000</speed>
<extensions>
<speed>2.6</speed>
<temp>0.00</temp>
<bpm>0</bpm>
<rpm>0.00</rpm>
</extensions>
</trkpt>
<trkpt lat="30.866621017" lon="34.830364227">
<ele>532.343750</ele>
<time>2013-11-20T11:30:24Z</time>
<speed>2.290000</speed>
<extensions>
<speed>2.3</speed>
<temp>0.00</temp>
<bpm>0</bpm>
<rpm>0.00</rpm>
</extensions>
</trkpt>
<trkpt lat="30.866724014" lon="34.830436707">
<ele>533.031250</ele>
<time>2013-11-20T11:30:29Z</time>
<speed>2.390000</speed>
<extensions>
<speed>2.4</speed>
<temp>0.00</temp>
<bpm>0</bpm>
<rpm>0.00</rpm>
</extensions>
</trkpt>
<trkpt lat="30.866823196" lon="34.830516815">
<ele>532.562500</ele>
<time>2013-11-20T11:30:34Z</time>
<speed>2.720000</speed>
<extensions>
<speed>2.7</speed>
<temp>0.00</temp>
<bpm>0</bpm>
<rpm>0.00</rpm>
</extensions>
</trkpt>
<trkpt lat="30.866914749" lon="34.830596924">
<ele>533.046875</ele>
<time>2013-11-20T11:30:39Z</time>
<speed>2.240000</speed>
<extensions>
<speed>2.2</speed>
<temp>0.00</temp>
<bpm>0</bpm>
<rpm>0.00</rpm>
</extensions>
</trkpt>
<trkpt lat="30.866968155" lon="34.830665588">
<ele>532.843750</ele>
<time>2013-11-20T11:30:44Z</time>
<speed>1.810000</speed>
<extensions>
<speed>1.8</speed>
<temp>0.00</temp>
<bpm>0</bpm>
<rpm>0.00</rpm>
</extensions>
</trkpt>
<trkpt lat="30.867042542" lon="34.830734253">
<ele>533.640625</ele>
<time>2013-11-20T11:30:49Z</time>
<speed>2.230000</speed>
<extensions>
<speed>2.2</speed>
<temp>0.00</temp>
<bpm>0</bpm>
<rpm>0.00</rpm>
</extensions>
</trkpt>
<trkpt lat="30.867099762" lon="34.830799103">
<ele>534.187500</ele>
<time>2013-11-20T11:30:54Z</time>
<speed>1.650000</speed>
<extensions>
<speed>1.7</speed>
<temp>0.00</temp>
<bpm>0</bpm>
<rpm>0.00</rpm>
</extensions>
</trkpt>
<trkpt lat="30.867219925" lon="34.830852509">
<ele>534.734375</ele>
<time>2013-11-20T11:30:59Z</time>
<speed>3.660000</speed>
<extensions>
<speed>3.7</speed>
<temp>0.00</temp>
<bpm>0</bpm>
<rpm>0.00</rpm>
</extensions>
</trkpt>
<trkpt lat="30.867483139" lon="34.830863953">
<ele>533.062500</ele>
<time>2013-11-20T11:31:04Z</time>
<speed>5.630000</speed>
<extensions>
<speed>5.6</speed>
<temp>0.00</temp>
<bpm>0</bpm>
<rpm>0.00</rpm>
</extensions>
</trkpt>
<trkpt lat="30.867752075" lon="34.830894470">
<ele>528.671875</ele>
<time>2013-11-20T11:31:09Z</time>
<speed>6.410000</speed>
<extensions>
<speed>6.4</speed>
<temp>0.00</temp>
<bpm>0</bpm>
<rpm>0.00</rpm>
</extensions>
</trkpt>
<trkpt lat="30.867998123" lon="34.830974579">
<ele>527.875000</ele>
<time>2013-11-20T11:31:14Z</time>
<speed>5.250000</speed>
<extensions>
<speed>5.2</speed>
<temp>0.00</temp>
<bpm>0</bpm>
<rpm>0.00</rpm>
</extensions>
</trkpt>
<trkpt lat="30.868247986" lon="34.830902100">
<ele>525.531250</ele>
<time>2013-11-20T11:31:19Z</time>
<speed>6.120000</speed>
<extensions>
<speed>6.1</speed>
<temp>0.00</temp>
<bpm>0</bpm>
<rpm>0.00</rpm>
</extensions>
</trkpt>
<trkpt lat="30.868476868" lon="34.830875397">
<ele>525.671875</ele>
<time>2013-11-20T11:31:24Z</time>
<speed>4.520000</speed>
<extensions>
<speed>4.5</speed>
<temp>0.00</temp>
<bpm>0</bpm>
<rpm>0.00</rpm>
</extensions>
</trkpt>
<trkpt lat="30.868658066" lon="34.830890656">
<ele>527.609375</ele>
<time>2013-11-20T11:31:29Z</time>
<speed>4.940000</speed>
<extensions>
<speed>4.9</speed>
<temp>0.00</temp>
<bpm>0</bpm>
<rpm>0.00</rpm>
</extensions>
</trkpt>
<trkpt lat="30.868848801" lon="34.830867767">
<ele>530.046875</ele>
<time>2013-11-20T11:31:34Z</time>
<speed>5.010000</speed>
<extensions>
<speed>5.0</speed>
<temp>0.00</temp>
<bpm>0</bpm>
<rpm>0.00</rpm>
</extensions>
</trkpt>
<trkpt lat="30.869054794" lon="34.830802917">
<ele>531.250000</ele>
<time>2013-11-20T11:31:39Z</time>
<speed>4.560000</speed>
<extensions>
<speed>4.6</speed>
<temp>0.00</temp>
<bpm>0</bpm>
<rpm>0.00</rpm>
</extensions>
</trkpt>
<trkpt lat="30.869235992" lon="34.830780029">
<ele>532.578125</ele>
<time>2013-11-20T11:31:44Z</time>
<speed>4.220000</speed>
<extensions>
<speed>4.2</speed>
<temp>0.00</temp>
<bpm>0</bpm>
<rpm>0.00</rpm>
</extensions>
</trkpt>
<trkpt lat="30.869432449" lon="34.830780029">
<ele>529.843750</ele>
<time>2013-11-20T11:31:49Z</time>
<speed>4.080000</speed>
<extensions>
<speed>4.1</speed>
<temp>0.00</temp>
<bpm>0</bpm>
<rpm>0.00</rpm>
</extensions>
</trkpt>
<trkpt lat="30.869607925" lon="34.830806732">
<ele>528.343750</ele>
<time>2013-11-20T11:31:54Z</time>
<speed>3.510000</speed>
<extensions>
<speed>3.5</speed>
<temp>0.00</temp>
<bpm>0</bpm>
<rpm>0.00</rpm>
</extensions>
</trkpt>
<trkpt lat="30.869785309" lon="34.830856323">
<ele>529.046875</ele>
<time>2013-11-20T11:31:59Z</time>
<speed>4.150000</speed>
<extensions>
<speed>4.1</speed>
<temp>0.00</temp>
<bpm>0</bpm>
<rpm>0.00</rpm>
</extensions>
</trkpt>
<trkpt lat="30.869951248" lon="34.830917358">
<ele>528.640625</ele>
<time>2013-11-20T11:32:04Z</time>
<speed>3.740000</speed>
<extensions>
<speed>3.7</speed>
<temp>0.00</temp>
<bpm>0</bpm>
<rpm>0.00</rpm>
</extensions>
</trkpt>
<trkpt lat="30.870121002" lon="34.830875397">
<ele>528.843750</ele>
<time>2013-11-20T11:32:09Z</time>
<speed>4.430000</speed>
<extensions>
<speed>4.4</speed>
<temp>0.00</temp>
<bpm>0</bpm>
<rpm>0.00</rpm>
</extensions>
</trkpt>
<trkpt lat="30.870330811" lon="34.830905914">
<ele>526.515625</ele>
<time>2013-11-20T11:32:14Z</time>
<speed>6.240000</speed>
<extensions>
<speed>6.2</speed>
<temp>0.00</temp>
<bpm>0</bpm>
<rpm>0.00</rpm>
</extensions>
</trkpt>
<trkpt lat="30.870578766" lon="34.830993652">
<ele>527.265625</ele>
<time>2013-11-20T11:32:19Z</time>
<speed>3.900000</speed>
<extensions>
<speed>3.9</speed>
<temp>0.00</temp>
<bpm>0</bpm>
<rpm>0.00</rpm>
</extensions>
</trkpt>
<trkpt lat="30.870716095" lon="34.831069946">
<ele>527.453125</ele>
<time>2013-11-20T11:32:24Z</time>
<speed>2.500000</speed>
<extensions>
<speed>2.5</speed>
<temp>0.00</temp>
<bpm>0</bpm>
<rpm>0.00</rpm>
</extensions>
</trkpt>
<trkpt lat="30.870824814" lon="34.831172943">
<ele>528.906250</ele>
<time>2013-11-20T11:32:29Z</time>
<speed>3.340000</speed>
<extensions>
<speed>3.3</speed>
<temp>0.00</temp>
<bpm>0</bpm>
<rpm>0.00</rpm>
</extensions>
</trkpt>
<trkpt lat="30.870944977" lon="34.831233978">
<ele>528.625000</ele>
<time>2013-11-20T11:32:34Z</time>
<speed>2.920000</speed>
<extensions>
<speed>2.9</speed>
<temp>0.00</temp>
<bpm>0</bpm>
<rpm>0.00</rpm>
</extensions>
</trkpt>
<trkpt lat="30.871070862" lon="34.831237793">
<ele>528.187500</ele>
<time>2013-11-20T11:32:39Z</time>
<speed>2.550000</speed>
<extensions>
<speed>2.6</speed>
<temp>0.00</temp>
<bpm>0</bpm>
<rpm>0.00</rpm>
</extensions>
</trkpt>
<trkpt lat="30.871208191" lon="34.831249237">
<ele>528.593750</ele>
<time>2013-11-20T11:32:44Z</time>
<speed>2.850000</speed>
<extensions>
<speed>2.9</speed>
<temp>0.00</temp>
<bpm>0</bpm>
<rpm>0.00</rpm>
</extensions>
</trkpt>
<trkpt lat="30.871305466" lon="34.831241608">
<ele>530.500000</ele>
<time>2013-11-20T11:32:49Z</time>
<speed>2.300000</speed>
<extensions>
<speed>2.3</speed>
<temp>0.00</temp>
<bpm>0</bpm>
<rpm>0.00</rpm>
</extensions>
</trkpt>
<trkpt lat="30.871406555" lon="34.831253052">
<ele>531.203125</ele>
<time>2013-11-20T11:32:54Z</time>
<speed>2.530000</speed>
<extensions>
<speed>2.5</speed>
<temp>0.00</temp>
<bpm>0</bpm>
<rpm>0.00</rpm>
</extensions>
</trkpt>
<trkpt lat="30.871532440" lon="34.831295013">
<ele>533.000000</ele>
<time>2013-11-20T11:32:59Z</time>
<speed>2.670000</speed>
<extensions>
<speed>2.7</speed>
<temp>0.00</temp>
<bpm>0</bpm>
<rpm>0.00</rpm>
</extensions>
</trkpt>
<trkpt lat="30.871656418" lon="34.831340790">
<ele>533.406250</ele>
<time>2013-11-20T11:33:04Z</time>
<speed>3.700000</speed>
<extensions>
<speed>3.7</speed>
<temp>0.00</temp>
<bpm>0</bpm>
<rpm>0.00</rpm>
</extensions>
</trkpt>
<trkpt lat="30.871793747" lon="34.831451416">
<ele>534.656250</ele>
<time>2013-11-20T11:33:09Z</time>
<speed>2.850000</speed>
<extensions>
<speed>2.9</speed>
<temp>0.00</temp>
<bpm>0</bpm>
<rpm>0.00</rpm>
</extensions>
</trkpt>
<trkpt lat="30.871952057" lon="34.831409454">
<ele>533.250000</ele>
<time>2013-11-20T11:33:14Z</time>
<speed>4.720000</speed>
<extensions>
<speed>4.7</speed>
<temp>0.00</temp>
<bpm>0</bpm>
<rpm>0.00</rpm>
</extensions>
</trkpt>
<trkpt lat="30.872095108" lon="34.831405640">
<ele>533.000000</ele>
<time>2013-11-20T11:33:19Z</time>
<speed>3.110000</speed>
<extensions>
<speed>3.1</speed>
<temp>0.00</temp>
<bpm>0</bpm>
<rpm>0.00</rpm>
</extensions>
</trkpt>
<trkpt lat="30.872215271" lon="34.831432343">
<ele>533.203125</ele>
<time>2013-11-20T11:33:24Z</time>
<speed>2.530000</speed>
<extensions>
<speed>2.5</speed>
<temp>0.00</temp>
<bpm>0</bpm>
<rpm>0.00</rpm>
</extensions>
</trkpt>
<trkpt lat="30.872344971" lon="34.831478119">
<ele>533.343750</ele>
<time>2013-11-20T11:33:29Z</time>
<speed>2.910000</speed>
<extensions>
<speed>2.9</speed>
<temp>0.00</temp>
<bpm>0</bpm>
<rpm>0.00</rpm>
</extensions>
</trkpt>
<trkpt lat="30.872444153" lon="34.831451416">
<ele>535.031250</ele>
<time>2013-11-20T11:33:34Z</time>
<speed>1.620000</speed>
<extensions>
<speed>1.6</speed>
<temp>0.00</temp>
<bpm>0</bpm>
<rpm>0.00</rpm>
</extensions>
</trkpt>
<trkpt lat="30.872531891" lon="34.831428528">
<ele>537.203125</ele>
<time>2013-11-20T11:33:39Z</time>
<speed>1.690000</speed>
<extensions>
<speed>1.7</speed>
<temp>0.00</temp>
<bpm>0</bpm>
<rpm>0.00</rpm>
</extensions>
</trkpt>
<trkpt lat="30.872589111" lon="34.831405640">
<ele>536.734375</ele>
<time>2013-11-20T11:33:44Z</time>
<speed>2.350000</speed>
<extensions>
<speed>2.4</speed>
<temp>0.00</temp>
<bpm>0</bpm>
<rpm>0.00</rpm>
</extensions>
</trkpt>
<trkpt lat="30.872707367" lon="34.831417084">
<ele>535.375000</ele>
<time>2013-11-20T11:33:49Z</time>
<speed>3.010000</speed>
<extensions>
<speed>3.0</speed>
<temp>0.00</temp>
<bpm>0</bpm>
<rpm>0.00</rpm>
</extensions>
</trkpt>
<trkpt lat="30.872858047" lon="34.831474304">
<ele>535.015625</ele>
<time>2013-11-20T11:33:54Z</time>
<speed>3.630000</speed>
<extensions>
<speed>3.6</speed>
<temp>0.00</temp>
<bpm>0</bpm>
<rpm>0.00</rpm>
</extensions>
</trkpt>
<trkpt lat="30.872997284" lon="34.831539154">
<ele>534.093750</ele>
<time>2013-11-20T11:33:59Z</time>
<speed>3.430000</speed>
<extensions>
<speed>3.4</speed>
<temp>0.00</temp>
<bpm>0</bpm>
<rpm>0.00</rpm>
</extensions>
</trkpt>
<trkpt lat="30.873128891" lon="34.831573486">
<ele>535.140625</ele>
<time>2013-11-20T11:34:04Z</time>
<speed>2.730000</speed>
<extensions>
<speed>2.7</speed>
<temp>0.00</temp>
<bpm>0</bpm>
<rpm>0.00</rpm>
</extensions>
</trkpt>
<trkpt lat="30.873285294" lon="34.831642151">
<ele>535.531250</ele>
<time>2013-11-20T11:34:09Z</time>
<speed>3.390000</speed>
<extensions>
<speed>3.4</speed>
<temp>0.00</temp>
<bpm>0</bpm>
<rpm>0.00</rpm>
</extensions>
</trkpt>
<trkpt lat="30.873388290" lon="34.831722260">
<ele>534.718750</ele>
<time>2013-11-20T11:34:14Z</time>
<speed>2.070000</speed>
<extensions>
<speed>2.1</speed>
<temp>0.00</temp>
<bpm>0</bpm>
<rpm>0.00</rpm>
</extensions>
</trkpt>
<trkpt lat="30.873477936" lon="34.831817627">
<ele>532.546875</ele>
<time>2013-11-20T11:34:19Z</time>
<speed>2.190000</speed>
<extensions>
<speed>2.2</speed>
<temp>0.00</temp>
<bpm>0</bpm>
<rpm>0.00</rpm>
</extensions>
</trkpt>
<trkpt lat="30.873527527" lon="34.831802368">
<ele>533.062500</ele>
<time>2013-11-20T11:34:24Z</time>
<speed>0.220000</speed>
<extensions>
<speed>0.2</speed>
<temp>0.00</temp>
<bpm>0</bpm>
<rpm>0.00</rpm>
</extensions>
</trkpt>
<trkpt lat="30.873548508" lon="34.831802368">
<ele>533.187500</ele>
<time>2013-11-20T11:34:29Z</time>
<speed>0.200000</speed>
<extensions>
<speed>0.2</speed>
<temp>0.00</temp>
<bpm>0</bpm>
<rpm>0.00</rpm>
</extensions>
</trkpt>
<trkpt lat="30.873559952" lon="34.831802368">
<ele>533.281250</ele>
<time>2013-11-20T11:34:34Z</time>
<speed>0.780000</speed>
<extensions>
<speed>0.8</speed>
<temp>0.00</temp>
<bpm>0</bpm>
<rpm>0.00</rpm>
</extensions>
</trkpt>
<trkpt lat="30.873600006" lon="34.831809998">
<ele>532.750000</ele>
<time>2013-11-20T11:34:39Z</time>
<speed>0.700000</speed>
<extensions>
<speed>0.7</speed>
<temp>0.00</temp>
<bpm>0</bpm>
<rpm>0.00</rpm>
</extensions>
</trkpt>
<trkpt lat="30.873632431" lon="34.831802368">
<ele>532.937500</ele>
<time>2013-11-20T11:34:44Z</time>
<speed>0.960000</speed>
<extensions>
<speed>1.0</speed>
<temp>0.00</temp>
<bpm>0</bpm>
<rpm>0.00</rpm>
</extensions>
</trkpt>
<trkpt lat="30.873706818" lon="34.831832886">
<ele>533.234375</ele>
<time>2013-11-20T11:34:49Z</time>
<speed>2.380000</speed>
<extensions>
<speed>2.4</speed>
<temp>0.00</temp>
<bpm>0</bpm>
<rpm>0.00</rpm>
</extensions>
</trkpt>
<trkpt lat="30.873823166" lon="34.831855774">
<ele>533.890625</ele>
<time>2013-11-20T11:34:54Z</time>
<speed>2.860000</speed>
<extensions>
<speed>2.9</speed>
<temp>0.00</temp>
<bpm>0</bpm>
<rpm>0.00</rpm>
</extensions>
</trkpt>
<trkpt lat="30.873943329" lon="34.831909180">
<ele>534.515625</ele>
<time>2013-11-20T11:34:59Z</time>
<speed>2.490000</speed>
<extensions>
<speed>2.5</speed>
<temp>0.00</temp>
<bpm>0</bpm>
<rpm>0.00</rpm>
</extensions>
</trkpt>
<trkpt lat="30.874067307" lon="34.831920624">
<ele>535.234375</ele>
<time>2013-11-20T11:35:04Z</time>
<speed>3.250000</speed>
<extensions>
<speed>3.2</speed>
<temp>0.00</temp>
<bpm>0</bpm>
<rpm>0.00</rpm>
</extensions>
</trkpt>
<trkpt lat="30.874233246" lon="34.831912994">
<ele>536.421875</ele>
<time>2013-11-20T11:35:09Z</time>
<speed>3.260000</speed>
<extensions>
<speed>3.3</speed>
<temp>0.00</temp>
<bpm>0</bpm>
<rpm>0.00</rpm>
</extensions>
</trkpt>
<trkpt lat="30.874368668" lon="34.831951141">
<ele>538.468750</ele>
<time>2013-11-20T11:35:14Z</time>
<speed>3.150000</speed>
<extensions>
<speed>3.2</speed>
<temp>0.00</temp>
<bpm>0</bpm>
<rpm>0.00</rpm>
</extensions>
</trkpt>
<trkpt lat="30.874494553" lon="34.831932068">
<ele>539.921875</ele>
<time>2013-11-20T11:35:19Z</time>
<speed>3.280000</speed>
<extensions>
<speed>3.3</speed>
<temp>0.00</temp>
<bpm>0</bpm>
<rpm>0.00</rpm>
</extensions>
</trkpt>
<trkpt lat="30.874637604" lon="34.831924438">
<ele>539.531250</ele>
<time>2013-11-20T11:35:24Z</time>
<speed>2.600000</speed>
<extensions>
<speed>2.6</speed>
<temp>0.00</temp>
<bpm>0</bpm>
<rpm>0.00</rpm>
</extensions>
</trkpt>
<trkpt lat="30.874773026" lon="34.831932068">
<ele>540.656250</ele>
<time>2013-11-20T11:35:29Z</time>
<speed>3.380000</speed>
<extensions>
<speed>3.4</speed>
<temp>0.00</temp>
<bpm>0</bpm>
<rpm>0.00</rpm>
</extensions>
</trkpt>
<trkpt lat="30.874893188" lon="34.832019806">
<ele>538.859375</ele>
<time>2013-11-20T11:35:34Z</time>
<speed>3.720000</speed>
<extensions>
<speed>3.7</speed>
<temp>0.00</temp>
<bpm>0</bpm>
<rpm>0.00</rpm>
</extensions>
</trkpt>
<trkpt lat="30.875026703" lon="34.832111359">
<ele>538.171875</ele>
<time>2013-11-20T11:35:39Z</time>
<speed>3.140000</speed>
<extensions>
<speed>3.1</speed>
<temp>0.00</temp>
<bpm>0</bpm>
<rpm>0.00</rpm>
</extensions>
</trkpt>
<trkpt lat="30.875122070" lon="34.832199097">
<ele>537.218750</ele>
<time>2013-11-20T11:35:44Z</time>
<speed>1.170000</speed>
<extensions>
<speed>1.2</speed>
<temp>0.00</temp>
<bpm>0</bpm>
<rpm>0.00</rpm>
</extensions>
</trkpt>
<trkpt lat="30.875141144" lon="34.832248688">
<ele>538.015625</ele>
<time>2013-11-20T11:35:49Z</time>
<speed>1.220000</speed>
<extensions>
<speed>1.2</speed>
<temp>0.00</temp>
<bpm>0</bpm>
<rpm>0.00</rpm>
</extensions>
</trkpt>
<trkpt lat="30.875165939" lon="34.832248688">
<ele>539.375000</ele>
<time>2013-11-20T11:35:54Z</time>
<speed>0.310000</speed>
<extensions>
<speed>0.3</speed>
<temp>0.00</temp>
<bpm>0</bpm>
<rpm>0.00</rpm>
</extensions>
</trkpt>
<trkpt lat="30.875219345" lon="34.832233429">
<ele>541.312500</ele>
<time>2013-11-20T11:35:59Z</time>
<speed>1.830000</speed>
<extensions>
<speed>1.8</speed>
<temp>0.00</temp>
<bpm>0</bpm>
<rpm>0.00</rpm>
</extensions>
</trkpt>
<trkpt lat="30.875341415" lon="34.832233429">
<ele>541.328125</ele>
<time>2013-11-20T11:36:04Z</time>
<speed>2.020000</speed>
<extensions>
<speed>2.0</speed>
<temp>0.00</temp>
<bpm>0</bpm>
<rpm>0.00</rpm>
</extensions>
</trkpt>
<trkpt lat="30.875448227" lon="34.832225800">
<ele>541.796875</ele>
<time>2013-11-20T11:36:09Z</time>
<speed>3.220000</speed>
<extensions>
<speed>3.2</speed>
<temp>0.00</temp>
<bpm>0</bpm>
<rpm>0.00</rpm>
</extensions>
</trkpt>
<trkpt lat="30.875568390" lon="34.832118988">
<ele>544.875000</ele>
<time>2013-11-20T11:36:14Z</time>
<speed>3.230000</speed>
<extensions>
<speed>3.2</speed>
<temp>0.00</temp>
<bpm>0</bpm>
<rpm>0.00</rpm>
</extensions>
</trkpt>
<trkpt lat="30.875701904" lon="34.832069397">
<ele>546.078125</ele>
<time>2013-11-20T11:36:19Z</time>
<speed>2.900000</speed>
<extensions>
<speed>2.9</speed>
<temp>0.00</temp>
<bpm>0</bpm>
<rpm>0.00</rpm>
</extensions>
</trkpt>
<trkpt lat="30.875818253" lon="34.832107544">
<ele>543.453125</ele>
<time>2013-11-20T11:36:24Z</time>
<speed>3.500000</speed>
<extensions>
<speed>3.5</speed>
<temp>0.00</temp>
<bpm>0</bpm>
<rpm>0.00</rpm>
</extensions>
</trkpt>
<trkpt lat="30.875986099" lon="34.832206726">
<ele>541.640625</ele>
<time>2013-11-20T11:36:29Z</time>
<speed>5.190000</speed>
<extensions>
<speed>5.2</speed>
<temp>0.00</temp>
<bpm>0</bpm>
<rpm>0.00</rpm>
</extensions>
</trkpt>
<trkpt lat="30.876237869" lon="34.832214355">
<ele>539.390625</ele>
<time>2013-11-20T11:36:34Z</time>
<speed>4.510000</speed>
<extensions>
<speed>4.5</speed>
<temp>0.00</temp>
<bpm>0</bpm>
<rpm>0.00</rpm>
</extensions>
</trkpt>
<trkpt lat="30.876375198" lon="34.832134247">
<ele>540.578125</ele>
<time>2013-11-20T11:36:39Z</time>
<speed>3.390000</speed>
<extensions>
<speed>3.4</speed>
<temp>0.00</temp>
<bpm>0</bpm>
<rpm>0.00</rpm>
</extensions>
</trkpt>
<trkpt lat="30.876531601" lon="34.832168579">
<ele>540.921875</ele>
<time>2013-11-20T11:36:44Z</time>
<speed>3.860000</speed>
<extensions>
<speed>3.9</speed>
<temp>0.00</temp>
<bpm>0</bpm>
<rpm>0.00</rpm>
</extensions>
</trkpt>
<trkpt lat="30.876705170" lon="34.832241058">
<ele>538.968750</ele>
<time>2013-11-20T11:36:49Z</time>
<speed>4.070000</speed>
<extensions>
<speed>4.1</speed>
<temp>0.00</temp>
<bpm>0</bpm>
<rpm>0.00</rpm>
</extensions>
</trkpt>
<trkpt lat="30.876893997" lon="34.832271576">
<ele>538.734375</ele>
<time>2013-11-20T11:36:54Z</time>
<speed>3.550000</speed>
<extensions>
<speed>3.5</speed>
<temp>0.00</temp>
<bpm>0</bpm>
<rpm>0.00</rpm>
</extensions>
</trkpt>
<trkpt lat="30.877050400" lon="34.832294464">
<ele>539.140625</ele>
<time>2013-11-20T11:36:59Z</time>
<speed>4.190000</speed>
<extensions>
<speed>4.2</speed>
<temp>0.00</temp>
<bpm>0</bpm>
<rpm>0.00</rpm>
</extensions>
</trkpt>
<trkpt lat="30.877235413" lon="34.832386017">
<ele>534.296875</ele>
<time>2013-11-20T11:37:04Z</time>
<speed>4.670000</speed>
<extensions>
<speed>4.7</speed>
<temp>0.00</temp>
<bpm>0</bpm>
<rpm>0.00</rpm>
</extensions>
</trkpt>
<trkpt lat="30.877462387" lon="34.832435608">
<ele>533.390625</ele>
<time>2013-11-20T11:37:09Z</time>
<speed>5.080000</speed>
<extensions>
<speed>5.1</speed>
<temp>0.00</temp>
<bpm>0</bpm>
<rpm>0.00</rpm>
</extensions>
</trkpt>
<trkpt lat="30.877691269" lon="34.832458496">
<ele>531.750000</ele>
<time>2013-11-20T11:37:14Z</time>
<speed>5.630000</speed>
<extensions>
<speed>5.6</speed>
<temp>0.00</temp>
<bpm>0</bpm>
<rpm>0.00</rpm>
</extensions>
</trkpt>
<trkpt lat="30.877872467" lon="34.832576752">
<ele>529.953125</ele>
<time>2013-11-20T11:37:19Z</time>
<speed>4.190000</speed>
<extensions>
<speed>4.2</speed>
<temp>0.00</temp>
<bpm>0</bpm>
<rpm>0.00</rpm>
</extensions>
</trkpt>
<trkpt lat="30.878028870" lon="34.832683563">
<ele>531.156250</ele>
<time>2013-11-20T11:37:24Z</time>
<speed>4.480000</speed>
<extensions>
<speed>4.5</speed>
<temp>0.00</temp>
<bpm>0</bpm>
<rpm>0.00</rpm>
</extensions>
</trkpt>
<trkpt lat="30.878242493" lon="34.832736969">
<ele>529.343750</ele>
<time>2013-11-20T11:37:29Z</time>
<speed>4.990000</speed>
<extensions>
<speed>5.0</speed>
<temp>0.00</temp>
<bpm>0</bpm>
<rpm>0.00</rpm>
</extensions>
</trkpt>
<trkpt lat="30.878482819" lon="34.832759857">
<ele>528.515625</ele>
<time>2013-11-20T11:37:34Z</time>
<speed>5.280000</speed>
<extensions>
<speed>5.3</speed>
<temp>0.00</temp>
<bpm>0</bpm>
<rpm>0.00</rpm>
</extensions>
</trkpt>
<trkpt lat="30.878732681" lon="34.832790375">
<ele>525.921875</ele>
<time>2013-11-20T11:37:39Z</time>
<speed>5.630000</speed>
<extensions>
<speed>5.6</speed>
<temp>0.00</temp>
<bpm>0</bpm>
<rpm>0.00</rpm>
</extensions>
</trkpt>
<trkpt lat="30.878986359" lon="34.832820892">
<ele>524.296875</ele>
<time>2013-11-20T11:37:44Z</time>
<speed>5.680000</speed>
<extensions>
<speed>5.7</speed>
<temp>0.00</temp>
<bpm>0</bpm>
<rpm>0.00</rpm>
</extensions>
</trkpt>
<trkpt lat="30.879230499" lon="34.832843781">
<ele>525.734375</ele>
<time>2013-11-20T11:37:49Z</time>
<speed>5.180000</speed>
<extensions>
<speed>5.2</speed>
<temp>0.00</temp>
<bpm>0</bpm>
<rpm>0.00</rpm>
</extensions>
</trkpt>
<trkpt lat="30.879444122" lon="34.832805634">
<ele>525.750000</ele>
<time>2013-11-20T11:37:54Z</time>
<speed>5.210000</speed>
<extensions>
<speed>5.2</speed>
<temp>0.00</temp>
<bpm>0</bpm>
<rpm>0.00</rpm>
</extensions>
</trkpt>
<trkpt lat="30.879686356" lon="34.832820892">
<ele>524.859375</ele>
<time>2013-11-20T11:37:59Z</time>
<speed>5.090000</speed>
<extensions>
<speed>5.1</speed>
<temp>0.00</temp>
<bpm>0</bpm>
<rpm>0.00</rpm>
</extensions>
</trkpt>
<trkpt lat="30.879903793" lon="34.832874298">
<ele>523.500000</ele>
<time>2013-11-20T11:38:04Z</time>
<speed>4.810000</speed>
<extensions>
<speed>4.8</speed>
<temp>0.00</temp>
<bpm>0</bpm>
<rpm>0.00</rpm>
</extensions>
</trkpt>
<trkpt lat="30.880121231" lon="34.832851410">
<ele>523.812500</ele>
<time>2013-11-20T11:38:09Z</time>
<speed>4.730000</speed>
<extensions>
<speed>4.7</speed>
<temp>0.00</temp>
<bpm>0</bpm>
<rpm>0.00</rpm>
</extensions>
</trkpt>
<trkpt lat="30.880283356" lon="34.832817078">
<ele>521.515625</ele>
<time>2013-11-20T11:38:14Z</time>
<speed>3.440000</speed>
<extensions>
<speed>3.4</speed>
<temp>0.00</temp>
<bpm>0</bpm>
<rpm>0.00</rpm>
</extensions>
</trkpt>
<trkpt lat="30.880405426" lon="34.832679749">
<ele>521.968750</ele>
<time>2013-11-20T11:38:19Z</time>
<speed>4.440000</speed>
<extensions>
<speed>4.4</speed>
<temp>0.00</temp>
<bpm>0</bpm>
<rpm>0.00</rpm>
</extensions>
</trkpt>
<trkpt lat="30.880531311" lon="34.832553864">
<ele>521.687500</ele>
<time>2013-11-20T11:38:24Z</time>
<speed>4.070000</speed>
<extensions>
<speed>4.1</speed>
<temp>0.00</temp>
<bpm>0</bpm>
<rpm>0.00</rpm>
</extensions>
</trkpt>
<trkpt lat="30.880699158" lon="34.832492828">
<ele>523.984375</ele>
<time>2013-11-20T11:38:29Z</time>
<speed>4.320000</speed>
<extensions>
<speed>4.3</speed>
<temp>0.00</temp>
<bpm>0</bpm>
<rpm>0.00</rpm>
</extensions>
</trkpt>
<trkpt lat="30.880891800" lon="34.832427979">
<ele>523.656250</ele>
<time>2013-11-20T11:38:34Z</time>
<speed>4.650000</speed>
<extensions>
<speed>4.6</speed>
<temp>0.00</temp>
<bpm>0</bpm>
<rpm>0.00</rpm>
</extensions>
</trkpt>
<trkpt lat="30.881008148" lon="34.832229614">
<ele>523.531250</ele>
<time>2013-11-20T11:38:39Z</time>
<speed>4.470000</speed>
<extensions>
<speed>4.5</speed>
<temp>0.00</temp>
<bpm>0</bpm>
<rpm>0.00</rpm>
</extensions>
</trkpt>
<trkpt lat="30.881118774" lon="34.832080841">
<ele>524.218750</ele>
<time>2013-11-20T11:38:44Z</time>
<speed>3.950000</speed>
<extensions>
<speed>4.0</speed>
<temp>0.00</temp>
<bpm>0</bpm>
<rpm>0.00</rpm>
</extensions>
</trkpt>
<trkpt lat="30.881208420" lon="34.831890106">
<ele>523.031250</ele>
<time>2013-11-20T11:38:49Z</time>
<speed>4.430000</speed>
<extensions>
<speed>4.4</speed>
<temp>0.00</temp>
<bpm>0</bpm>
<rpm>0.00</rpm>
</extensions>
</trkpt>
<trkpt lat="30.881315231" lon="34.831703186">
<ele>522.531250</ele>
<time>2013-11-20T11:38:54Z</time>
<speed>4.000000</speed>
<extensions>
<speed>4.0</speed>
<temp>0.00</temp>
<bpm>0</bpm>
<rpm>0.00</rpm>
</extensions>
</trkpt>
<trkpt lat="30.881450653" lon="34.831550598">
<ele>521.484375</ele>
<time>2013-11-20T11:38:59Z</time>
<speed>4.520000</speed>
<extensions>
<speed>4.5</speed>
<temp>0.00</temp>
<bpm>0</bpm>
<rpm>0.00</rpm>
</extensions>
</trkpt>
<trkpt lat="30.881563187" lon="34.831390381">
<ele>522.375000</ele>
<time>2013-11-20T11:39:04Z</time>
<speed>3.680000</speed>
<extensions>
<speed>3.7</speed>
<temp>0.00</temp>
<bpm>0</bpm>
<rpm>0.00</rpm>
</extensions>
</trkpt>
<trkpt lat="30.881666183" lon="34.831218719">
<ele>522.687500</ele>
<time>2013-11-20T11:39:09Z</time>
<speed>4.280000</speed>
<extensions>
<speed>4.3</speed>
<temp>0.00</temp>
<bpm>0</bpm>
<rpm>0.00</rpm>
</extensions>
</trkpt>
<trkpt lat="30.881849289" lon="34.831115723">
<ele>520.765625</ele>
<time>2013-11-20T11:39:14Z</time>
<speed>4.220000</speed>
<extensions>
<speed>4.2</speed>
<temp>0.00</temp>
<bpm>0</bpm>
<rpm>0.00</rpm>
</extensions>
</trkpt>
<trkpt lat="30.882013321" lon="34.830997467">
<ele>519.546875</ele>
<time>2013-11-20T11:39:19Z</time>
<speed>4.000000</speed>
<extensions>
<speed>4.0</speed>
<temp>0.00</temp>
<bpm>0</bpm>
<rpm>0.00</rpm>
</extensions>
</trkpt>
<trkpt lat="30.882213593" lon="34.830917358">
<ele>518.968750</ele>
<time>2013-11-20T11:39:24Z</time>
<speed>5.490000</speed>
<extensions>
<speed>5.5</speed>
<temp>0.00</temp>
<bpm>0</bpm>
<rpm>0.00</rpm>
</extensions>
</trkpt>
<trkpt lat="30.882406235" lon="34.830738068">
<ele>517.656250</ele>
<time>2013-11-20T11:39:29Z</time>
<speed>5.120000</speed>
<extensions>
<speed>5.1</speed>
<temp>0.00</temp>
<bpm>0</bpm>
<rpm>0.00</rpm>
</extensions>
</trkpt>
<trkpt lat="30.882629395" lon="34.830638885">
<ele>515.906250</ele>
<time>2013-11-20T11:39:34Z</time>
<speed>5.200000</speed>
<extensions>
<speed>5.2</speed>
<temp>0.00</temp>
<bpm>0</bpm>
<rpm>0.00</rpm>
</extensions>
</trkpt>
<trkpt lat="30.882829666" lon="34.830589294">
<ele>514.687500</ele>
<time>2013-11-20T11:39:39Z</time>
<speed>3.280000</speed>
<extensions>
<speed>3.3</speed>
<temp>0.00</temp>
<bpm>0</bpm>
<rpm>0.00</rpm>
</extensions>
</trkpt>
<trkpt lat="30.882976532" lon="34.830474854">
<ele>515.281250</ele>
<time>2013-11-20T11:39:44Z</time>
<speed>4.380000</speed>
<extensions>
<speed>4.4</speed>
<temp>0.00</temp>
<bpm>0</bpm>
<rpm>0.00</rpm>
</extensions>
</trkpt>
<trkpt lat="30.883117676" lon="34.830303192">
<ele>515.265625</ele>
<time>2013-11-20T11:39:49Z</time>
<speed>4.340000</speed>
<extensions>
<speed>4.3</speed>
<temp>0.00</temp>
<bpm>0</bpm>
<rpm>0.00</rpm>
</extensions>
</trkpt>
<trkpt lat="30.883251190" lon="34.830135345">
<ele>514.203125</ele>
<time>2013-11-20T11:39:54Z</time>
<speed>4.230000</speed>
<extensions>
<speed>4.2</speed>
<temp>0.00</temp>
<bpm>0</bpm>
<rpm>0.00</rpm>
</extensions>
</trkpt>
<trkpt lat="30.883384705" lon="34.829959869">
<ele>513.843750</ele>
<time>2013-11-20T11:39:59Z</time>
<speed>4.710000</speed>
<extensions>
<speed>4.7</speed>
<temp>0.00</temp>
<bpm>0</bpm>
<rpm>0.00</rpm>
</extensions>
</trkpt>
<trkpt lat="30.883506775" lon="34.829757690">
<ele>513.843750</ele>
<time>2013-11-20T11:40:04Z</time>
<speed>4.700000</speed>
<extensions>
<speed>4.7</speed>
<temp>0.00</temp>
<bpm>0</bpm>
<rpm>0.00</rpm>
</extensions>
</trkpt>
<trkpt lat="30.883646011" lon="34.829574585">
<ele>515.093750</ele>
<time>2013-11-20T11:40:09Z</time>
<speed>4.890000</speed>
<extensions>
<speed>4.9</speed>
<temp>0.00</temp>
<bpm>0</bpm>
<rpm>0.00</rpm>
</extensions>
</trkpt>
<trkpt lat="30.883796692" lon="34.829368591">
<ele>514.906250</ele>
<time>2013-11-20T11:40:14Z</time>
<speed>5.060000</speed>
<extensions>
<speed>5.1</speed>
<temp>0.00</temp>
<bpm>0</bpm>
<rpm>0.00</rpm>
</extensions>
</trkpt>
<trkpt lat="30.883941650" lon="34.829177856">
<ele>513.609375</ele>
<time>2013-11-20T11:40:19Z</time>
<speed>4.730000</speed>
<extensions>
<speed>4.7</speed>
<temp>0.00</temp>
<bpm>0</bpm>
<rpm>0.00</rpm>
</extensions>
</trkpt>
<trkpt lat="30.884078979" lon="34.828998566">
<ele>510.648438</ele>
<time>2013-11-20T11:40:24Z</time>
<speed>4.680000</speed>
<extensions>
<speed>4.7</speed>
<temp>0.00</temp>
<bpm>0</bpm>
<rpm>0.00</rpm>
</extensions>
</trkpt>
<trkpt lat="30.884220123" lon="34.828830719">
<ele>508.898438</ele>
<time>2013-11-20T11:40:29Z</time>
<speed>4.730000</speed>
<extensions>
<speed>4.7</speed>
<temp>0.00</temp>
<bpm>0</bpm>
<rpm>0.00</rpm>
</extensions>
</trkpt>
<trkpt lat="30.884363174" lon="34.828639984">
<ele>507.953125</ele>
<time>2013-11-20T11:40:34Z</time>
<speed>4.900000</speed>
<extensions>
<speed>4.9</speed>
<temp>0.00</temp>
<bpm>0</bpm>
<rpm>0.00</rpm>
</extensions>
</trkpt>
<trkpt lat="30.884531021" lon="34.828468323">
<ele>508.031250</ele>
<time>2013-11-20T11:40:39Z</time>
<speed>4.720000</speed>
<extensions>
<speed>4.7</speed>
<temp>0.00</temp>
<bpm>0</bpm>
<rpm>0.00</rpm>
</extensions>
</trkpt>
<trkpt lat="30.884685516" lon="34.828304291">
<ele>509.265625</ele>
<time>2013-11-20T11:40:44Z</time>
<speed>5.140000</speed>
<extensions>
<speed>5.1</speed>
<temp>0.00</temp>
<bpm>0</bpm>
<rpm>0.00</rpm>
</extensions>
</trkpt>
<trkpt lat="30.884807587" lon="34.828109741">
<ele>511.835938</ele>
<time>2013-11-20T11:40:49Z</time>
<speed>4.560000</speed>
<extensions>
<speed>4.6</speed>
<temp>0.00</temp>
<bpm>0</bpm>
<rpm>0.00</rpm>
</extensions>
</trkpt>
<trkpt lat="30.884962082" lon="34.827945709">
<ele>512.781250</ele>
<time>2013-11-20T11:40:54Z</time>
<speed>4.610000</speed>
<extensions>
<speed>4.6</speed>
<temp>0.00</temp>
<bpm>0</bpm>
<rpm>0.00</rpm>
</extensions>
</trkpt>
<trkpt lat="30.885112762" lon="34.827770233">
<ele>512.015625</ele>
<time>2013-11-20T11:40:59Z</time>
<speed>4.470000</speed>
<extensions>
<speed>4.5</speed>
<temp>0.00</temp>
<bpm>0</bpm>
<rpm>0.00</rpm>
</extensions>
</trkpt>
<trkpt lat="30.885244370" lon="34.827579498">
<ele>511.515625</ele>
<time>2013-11-20T11:41:04Z</time>
<speed>4.980000</speed>
<extensions>
<speed>5.0</speed>
<temp>0.00</temp>
<bpm>0</bpm>
<rpm>0.00</rpm>
</extensions>
</trkpt>
<trkpt lat="30.885358810" lon="34.827362061">
<ele>510.609375</ele>
<time>2013-11-20T11:41:09Z</time>
<speed>5.140000</speed>
<extensions>
<speed>5.1</speed>
<temp>0.00</temp>
<bpm>0</bpm>
<rpm>0.00</rpm>
</extensions>
</trkpt>
<trkpt lat="30.885528564" lon="34.827167511">
<ele>508.843750</ele>
<time>2013-11-20T11:41:14Z</time>
<speed>4.420000</speed>
<extensions>
<speed>4.4</speed>
<temp>0.00</temp>
<bpm>0</bpm>
<rpm>0.00</rpm>
</extensions>
</trkpt>
<trkpt lat="30.885625839" lon="34.826950073">
<ele>508.718750</ele>
<time>2013-11-20T11:41:19Z</time>
<speed>4.820000</speed>
<extensions>
<speed>4.8</speed>
<temp>0.00</temp>
<bpm>0</bpm>
<rpm>0.00</rpm>
</extensions>
</trkpt>
<trkpt lat="30.885713577" lon="34.826736450">
<ele>508.656250</ele>
<time>2013-11-20T11:41:24Z</time>
<speed>2.940000</speed>
<extensions>
<speed>2.9</speed>
<temp>0.00</temp>
<bpm>0</bpm>
<rpm>0.00</rpm>
</extensions>
</trkpt>
<trkpt lat="30.885780334" lon="34.826660156">
<ele>508.835938</ele>
<time>2013-11-20T11:41:29Z</time>
<speed>2.340000</speed>
<extensions>
<speed>2.3</speed>
<temp>0.00</temp>
<bpm>0</bpm>
<rpm>0.00</rpm>
</extensions>
</trkpt>
<trkpt lat="30.885927200" lon="34.826622009">
<ele>509.187500</ele>
<time>2013-11-20T11:41:34Z</time>
<speed>3.760000</speed>
<extensions>
<speed>3.8</speed>
<temp>0.00</temp>
<bpm>0</bpm>
<rpm>0.00</rpm>
</extensions>
</trkpt>
<trkpt lat="30.886106491" lon="34.826595306">
<ele>509.140625</ele>
<time>2013-11-20T11:41:39Z</time>
<speed>4.190000</speed>
<extensions>
<speed>4.2</speed>
<temp>0.00</temp>
<bpm>0</bpm>
<rpm>0.00</rpm>
</extensions>
</trkpt>
<trkpt lat="30.886278152" lon="34.826492310">
<ele>508.132813</ele>
<time>2013-11-20T11:41:44Z</time>
<speed>4.530000</speed>
<extensions>
<speed>4.5</speed>
<temp>0.00</temp>
<bpm>0</bpm>
<rpm>0.00</rpm>
</extensions>
</trkpt>
<trkpt lat="30.886419296" lon="34.826335907">
<ele>507.585938</ele>
<time>2013-11-20T11:41:49Z</time>
<speed>4.350000</speed>
<extensions>
<speed>4.3</speed>
<temp>0.00</temp>
<bpm>0</bpm>
<rpm>0.00</rpm>
</extensions>
</trkpt>
<trkpt lat="30.886592865" lon="34.826221466">
<ele>508.390625</ele>
<time>2013-11-20T11:41:54Z</time>
<speed>4.490000</speed>
<extensions>
<speed>4.5</speed>
<temp>0.00</temp>
<bpm>0</bpm>
<rpm>0.00</rpm>
</extensions>
</trkpt>
<trkpt lat="30.886777878" lon="34.826156616">
<ele>508.976563</ele>
<time>2013-11-20T11:41:59Z</time>
<speed>4.050000</speed>
<extensions>
<speed>4.0</speed>
<temp>0.00</temp>
<bpm>0</bpm>
<rpm>0.00</rpm>
</extensions>
</trkpt>
<trkpt lat="30.886959076" lon="34.826084137">
<ele>508.648438</ele>
<time>2013-11-20T11:42:04Z</time>
<speed>3.610000</speed>
<extensions>
<speed>3.6</speed>
<temp>0.00</temp>
<bpm>0</bpm>
<rpm>0.00</rpm>
</extensions>
</trkpt>
<trkpt lat="30.887083054" lon="34.826007843">
<ele>509.976563</ele>
<time>2013-11-20T11:42:09Z</time>
<speed>3.550000</speed>
<extensions>
<speed>3.5</speed>
<temp>0.00</temp>
<bpm>0</bpm>
<rpm>0.00</rpm>
</extensions>
</trkpt>
<trkpt lat="30.887203217" lon="34.825847626">
<ele>509.804688</ele>
<time>2013-11-20T11:42:14Z</time>
<speed>4.330000</speed>
<extensions>
<speed>4.3</speed>
<temp>0.00</temp>
<bpm>0</bpm>
<rpm>0.00</rpm>
</extensions>
</trkpt>
<trkpt lat="30.887304306" lon="34.825645447">
<ele>509.164063</ele>
<time>2013-11-20T11:42:19Z</time>
<speed>3.550000</speed>
<extensions>
<speed>3.5</speed>
<temp>0.00</temp>
<bpm>0</bpm>
<rpm>0.00</rpm>
</extensions>
</trkpt>
<trkpt lat="30.887426376" lon="34.825485229">
<ele>509.734375</ele>
<time>2013-11-20T11:42:24Z</time>
<speed>4.280000</speed>
<extensions>
<speed>4.3</speed>
<temp>0.00</temp>
<bpm>0</bpm>
<rpm>0.00</rpm>
</extensions>
</trkpt>
<trkpt lat="30.887563705" lon="34.825347900">
<ele>509.226563</ele>
<time>2013-11-20T11:42:29Z</time>
<speed>4.540000</speed>
<extensions>
<speed>4.5</speed>
<temp>0.00</temp>
<bpm>0</bpm>
<rpm>0.00</rpm>
</extensions>
</trkpt>
<trkpt lat="30.887695313" lon="34.825180054">
<ele>509.523438</ele>
<time>2013-11-20T11:42:34Z</time>
<speed>4.570000</speed>
<extensions>
<speed>4.6</speed>
<temp>0.00</temp>
<bpm>0</bpm>
<rpm>0.00</rpm>
</extensions>
</trkpt>
<trkpt lat="30.887826920" lon="34.824996948">
<ele>506.679688</ele>
<time>2013-11-20T11:42:39Z</time>
<speed>4.330000</speed>
<extensions>
<speed>4.3</speed>
<temp>0.00</temp>
<bpm>0</bpm>
<rpm>0.00</rpm>
</extensions>
</trkpt>
<trkpt lat="30.887983322" lon="34.824859619">
<ele>505.531250</ele>
<time>2013-11-20T11:42:44Z</time>
<speed>4.610000</speed>
<extensions>
<speed>4.6</speed>
<temp>0.00</temp>
<bpm>0</bpm>
<rpm>0.00</rpm>
</extensions>
</trkpt>
<trkpt lat="30.888177872" lon="34.824737549">
<ele>505.882813</ele>
<time>2013-11-20T11:42:49Z</time>
<speed>4.750000</speed>
<extensions>
<speed>4.8</speed>
<temp>0.00</temp>
<bpm>0</bpm>
<rpm>0.00</rpm>
</extensions>
</trkpt>
<trkpt lat="30.888324738" lon="34.824619293">
<ele>506.476563</ele>
<time>2013-11-20T11:42:54Z</time>
<speed>2.790000</speed>
<extensions>
<speed>2.8</speed>
<temp>0.00</temp>
<bpm>0</bpm>
<rpm>0.00</rpm>
</extensions>
</trkpt>
<trkpt lat="30.888341904" lon="34.824516296">
<ele>506.734375</ele>
<time>2013-11-20T11:42:59Z</time>
<speed>3.290000</speed>
<extensions>
<speed>3.3</speed>
<temp>0.00</temp>
<bpm>0</bpm>
<rpm>0.00</rpm>
</extensions>
</trkpt>
<trkpt lat="30.888206482" lon="34.824371338">
<ele>506.312500</ele>
<time>2013-11-20T11:43:04Z</time>
<speed>4.250000</speed>
<extensions>
<speed>4.3</speed>
<temp>0.00</temp>
<bpm>0</bpm>
<rpm>0.00</rpm>
</extensions>
</trkpt>
<trkpt lat="30.888072968" lon="34.824234009">
<ele>507.648438</ele>
<time>2013-11-20T11:43:09Z</time>
<speed>3.700000</speed>
<extensions>
<speed>3.7</speed>
<temp>0.00</temp>
<bpm>0</bpm>
<rpm>0.00</rpm>
</extensions>
</trkpt>
<trkpt lat="30.887912750" lon="34.824073792">
<ele>504.492188</ele>
<time>2013-11-20T11:43:14Z</time>
<speed>6.230000</speed>
<extensions>
<speed>6.2</speed>
<temp>0.00</temp>
<bpm>0</bpm>
<rpm>0.00</rpm>
</extensions>
</trkpt>
<trkpt lat="30.887708664" lon="34.823879242">
<ele>505.203125</ele>
<time>2013-11-20T11:43:19Z</time>
<speed>5.840000</speed>
<extensions>
<speed>5.8</speed>
<temp>0.00</temp>
<bpm>0</bpm>
<rpm>0.00</rpm>
</extensions>
</trkpt>
<trkpt lat="30.887548447" lon="34.823722839">
<ele>507.539063</ele>
<time>2013-11-20T11:43:24Z</time>
<speed>3.530000</speed>
<extensions>
<speed>3.5</speed>
<temp>0.00</temp>
<bpm>0</bpm>
<rpm>0.00</rpm>
</extensions>
</trkpt>
<trkpt lat="30.887418747" lon="34.823562622">
<ele>506.453125</ele>
<time>2013-11-20T11:43:29Z</time>
<speed>4.990000</speed>
<extensions>
<speed>5.0</speed>
<temp>0.00</temp>
<bpm>0</bpm>
<rpm>0.00</rpm>
</extensions>
</trkpt>
<trkpt lat="30.887294769" lon="34.823337555">
<ele>506.273438</ele>
<time>2013-11-20T11:43:34Z</time>
<speed>4.980000</speed>
<extensions>
<speed>5.0</speed>
<temp>0.00</temp>
<bpm>0</bpm>
<rpm>0.00</rpm>
</extensions>
</trkpt>
<trkpt lat="30.887180328" lon="34.823104858">
<ele>505.976563</ele>
<time>2013-11-20T11:43:39Z</time>
<speed>5.040000</speed>
<extensions>
<speed>5.0</speed>
<temp>0.00</temp>
<bpm>0</bpm>
<rpm>0.00</rpm>
</extensions>
</trkpt>
<trkpt lat="30.887065887" lon="34.822868347">
<ele>505.539063</ele>
<time>2013-11-20T11:43:44Z</time>
<speed>5.280000</speed>
<extensions>
<speed>5.3</speed>
<temp>0.00</temp>
<bpm>0</bpm>
<rpm>0.00</rpm>
</extensions>
</trkpt>
<trkpt lat="30.886957169" lon="34.822647095">
<ele>505.687500</ele>
<time>2013-11-20T11:43:49Z</time>
<speed>4.870000</speed>
<extensions>
<speed>4.9</speed>
<temp>0.00</temp>
<bpm>0</bpm>
<rpm>0.00</rpm>
</extensions>
</trkpt>
<trkpt lat="30.886814117" lon="34.822467804">
<ele>505.640625</ele>
<time>2013-11-20T11:43:54Z</time>
<speed>4.540000</speed>
<extensions>
<speed>4.5</speed>
<temp>0.00</temp>
<bpm>0</bpm>
<rpm>0.00</rpm>
</extensions>
</trkpt>
<trkpt lat="30.886623383" lon="34.822406769">
<ele>504.492188</ele>
<time>2013-11-20T11:43:59Z</time>
<speed>4.630000</speed>
<extensions>
<speed>4.6</speed>
<temp>0.00</temp>
<bpm>0</bpm>
<rpm>0.00</rpm>
</extensions>
</trkpt>
<trkpt lat="30.886425018" lon="34.822349548">
<ele>504.421875</ele>
<time>2013-11-20T11:44:04Z</time>
<speed>4.760000</speed>
<extensions>
<speed>4.8</speed>
<temp>0.00</temp>
<bpm>0</bpm>
<rpm>0.00</rpm>
</extensions>
</trkpt>
<trkpt lat="30.886262894" lon="34.822200775">
<ele>505.062500</ele>
<time>2013-11-20T11:44:09Z</time>
<speed>4.850000</speed>
<extensions>
<speed>4.8</speed>
<temp>0.00</temp>
<bpm>0</bpm>
<rpm>0.00</rpm>
</extensions>
</trkpt>
<trkpt lat="30.886163712" lon="34.821956635">
<ele>505.007813</ele>
<time>2013-11-20T11:44:14Z</time>
<speed>5.090000</speed>
<extensions>
<speed>5.1</speed>
<temp>0.00</temp>
<bpm>0</bpm>
<rpm>0.00</rpm>
</extensions>
</trkpt>
<trkpt lat="30.886072159" lon="34.821716309">
<ele>504.296875</ele>
<time>2013-11-20T11:44:19Z</time>
<speed>5.230000</speed>
<extensions>
<speed>5.2</speed>
<temp>0.00</temp>
<bpm>0</bpm>
<rpm>0.00</rpm>
</extensions>
</trkpt>
<trkpt lat="30.885967255" lon="34.821464539">
<ele>503.320313</ele>
<time>2013-11-20T11:44:24Z</time>
<speed>5.050000</speed>
<extensions>
<speed>5.1</speed>
<temp>0.00</temp>
<bpm>0</bpm>
<rpm>0.00</rpm>
</extensions>
</trkpt>
<trkpt lat="30.885892868" lon="34.821224213">
<ele>501.625000</ele>
<time>2013-11-20T11:44:29Z</time>
<speed>4.980000</speed>
<extensions>
<speed>5.0</speed>
<temp>0.00</temp>
<bpm>0</bpm>
<rpm>0.00</rpm>
</extensions>
</trkpt>
<trkpt lat="30.885772705" lon="34.820980072">
<ele>501.304688</ele>
<time>2013-11-20T11:44:34Z</time>
<speed>5.210000</speed>
<extensions>
<speed>5.2</speed>
<temp>0.00</temp>
<bpm>0</bpm>
<rpm>0.00</rpm>
</extensions>
</trkpt>
<trkpt lat="30.885646820" lon="34.820728302">
<ele>501.640625</ele>
<time>2013-11-20T11:44:39Z</time>
<speed>5.520000</speed>
<extensions>
<speed>5.5</speed>
<temp>0.00</temp>
<bpm>0</bpm>
<rpm>0.00</rpm>
</extensions>
</trkpt>
<trkpt lat="30.885522842" lon="34.820484161">
<ele>501.789063</ele>
<time>2013-11-20T11:44:44Z</time>
<speed>5.310000</speed>
<extensions>
<speed>5.3</speed>
<temp>0.00</temp>
<bpm>0</bpm>
<rpm>0.00</rpm>
</extensions>
</trkpt>
<trkpt lat="30.885410309" lon="34.820251465">
<ele>502.265625</ele>
<time>2013-11-20T11:44:49Z</time>
<speed>4.990000</speed>
<extensions>
<speed>5.0</speed>
<temp>0.00</temp>
<bpm>0</bpm>
<rpm>0.00</rpm>
</extensions>
</trkpt>
<trkpt lat="30.885301590" lon="34.820003510">
<ele>501.476563</ele>
<time>2013-11-20T11:44:54Z</time>
<speed>5.780000</speed>
<extensions>
<speed>5.8</speed>
<temp>0.00</temp>
<bpm>0</bpm>
<rpm>0.00</rpm>
</extensions>
</trkpt>
<trkpt lat="30.885192871" lon="34.819732666">
<ele>501.070313</ele>
<time>2013-11-20T11:44:59Z</time>
<speed>5.610000</speed>
<extensions>
<speed>5.6</speed>
<temp>0.00</temp>
<bpm>0</bpm>
<rpm>0.00</rpm>
</extensions>
</trkpt>
<trkpt lat="30.885068893" lon="34.819492340">
<ele>500.726563</ele>
<time>2013-11-20T11:45:04Z</time>
<speed>5.330000</speed>
<extensions>
<speed>5.3</speed>
<temp>0.00</temp>
<bpm>0</bpm>
<rpm>0.00</rpm>
</extensions>
</trkpt>
<trkpt lat="30.884923935" lon="34.819293976">
<ele>500.500000</ele>
<time>2013-11-20T11:45:09Z</time>
<speed>4.960000</speed>
<extensions>
<speed>5.0</speed>
<temp>0.00</temp>
<bpm>0</bpm>
<rpm>0.00</rpm>
</extensions>
</trkpt>
<trkpt lat="30.884775162" lon="34.819133759">
<ele>501.539063</ele>
<time>2013-11-20T11:45:14Z</time>
<speed>4.710000</speed>
<extensions>
<speed>4.7</speed>
<temp>0.00</temp>
<bpm>0</bpm>
<rpm>0.00</rpm>
</extensions>
</trkpt>
<trkpt lat="30.884643555" lon="34.818939209">
<ele>500.851563</ele>
<time>2013-11-20T11:45:19Z</time>
<speed>4.470000</speed>
<extensions>
<speed>4.5</speed>
<temp>0.00</temp>
<bpm>0</bpm>
<rpm>0.00</rpm>
</extensions>
</trkpt>
<trkpt lat="30.884527206" lon="34.818752289">
<ele>499.507813</ele>
<time>2013-11-20T11:45:24Z</time>
<speed>3.810000</speed>
<extensions>
<speed>3.8</speed>
<temp>0.00</temp>
<bpm>0</bpm>
<rpm>0.00</rpm>
</extensions>
</trkpt>
<trkpt lat="30.884439468" lon="34.818611145">
<ele>498.257813</ele>
<time>2013-11-20T11:45:29Z</time>
<speed>2.860000</speed>
<extensions>
<speed>2.9</speed>
<temp>0.00</temp>
<bpm>0</bpm>
<rpm>0.00</rpm>
</extensions>
</trkpt>
<trkpt lat="30.884365082" lon="34.818511963">
<ele>497.382813</ele>
<time>2013-11-20T11:45:34Z</time>
<speed>2.100000</speed>
<extensions>
<speed>2.1</speed>
<temp>0.00</temp>
<bpm>0</bpm>
<rpm>0.00</rpm>
</extensions>
</trkpt>
<trkpt lat="30.884307861" lon="34.818435669">
<ele>497.812500</ele>
<time>2013-11-20T11:45:39Z</time>
<speed>1.690000</speed>
<extensions>
<speed>1.7</speed>
<temp>0.00</temp>
<bpm>0</bpm>
<rpm>0.00</rpm>
</extensions>
</trkpt>
<trkpt lat="30.884265900" lon="34.818367004">
<ele>496.742188</ele>
<time>2013-11-20T11:45:44Z</time>
<speed>1.540000</speed>
<extensions>
<speed>1.5</speed>
<temp>0.00</temp>
<bpm>0</bpm>
<rpm>0.00</rpm>
</extensions>
</trkpt>
<trkpt lat="30.884216309" lon="34.818305969">
<ele>497.382813</ele>
<time>2013-11-20T11:45:49Z</time>
<speed>1.870000</speed>
<extensions>
<speed>1.9</speed>
<temp>0.00</temp>
<bpm>0</bpm>
<rpm>0.00</rpm>
</extensions>
</trkpt>
<trkpt lat="30.884162903" lon="34.818233490">
<ele>496.914063</ele>
<time>2013-11-20T11:45:54Z</time>
<speed>2.020000</speed>
<extensions>
<speed>2.0</speed>
<temp>0.00</temp>
<bpm>0</bpm>
<rpm>0.00</rpm>
</extensions>
</trkpt>
<trkpt lat="30.884092331" lon="34.818157196">
<ele>497.109375</ele>
<time>2013-11-20T11:45:59Z</time>
<speed>1.890000</speed>
<extensions>
<speed>1.9</speed>
<temp>0.00</temp>
<bpm>0</bpm>
<rpm>0.00</rpm>
</extensions>
</trkpt>
<trkpt lat="30.884038925" lon="34.818088531">
<ele>497.226563</ele>
<time>2013-11-20T11:46:04Z</time>
<speed>2.320000</speed>
<extensions>
<speed>2.3</speed>
<temp>0.00</temp>
<bpm>0</bpm>
<rpm>0.00</rpm>
</extensions>
</trkpt>
<trkpt lat="30.883989334" lon="34.818008423">
<ele>497.679688</ele>
<time>2013-11-20T11:46:09Z</time>
<speed>1.940000</speed>
<extensions>
<speed>1.9</speed>
<temp>0.00</temp>
<bpm>0</bpm>
<rpm>0.00</rpm>
</extensions>
</trkpt>
<trkpt lat="30.883939743" lon="34.817932129">
<ele>498.687500</ele>
<time>2013-11-20T11:46:14Z</time>
<speed>2.120000</speed>
<extensions>
<speed>2.1</speed>
<temp>0.00</temp>
<bpm>0</bpm>
<rpm>0.00</rpm>
</extensions>
</trkpt>
<trkpt lat="30.883876801" lon="34.817832947">
<ele>498.773438</ele>
<time>2013-11-20T11:46:19Z</time>
<speed>2.640000</speed>
<extensions>
<speed>2.6</speed>
<temp>0.00</temp>
<bpm>0</bpm>
<rpm>0.00</rpm>
</extensions>
</trkpt>
<trkpt lat="30.883789063" lon="34.817710876">
<ele>498.210938</ele>
<time>2013-11-20T11:46:24Z</time>
<speed>2.930000</speed>
<extensions>
<speed>2.9</speed>
<temp>0.00</temp>
<bpm>0</bpm>
<rpm>0.00</rpm>
</extensions>
</trkpt>
<trkpt lat="30.883697510" lon="34.817565918">
<ele>495.578125</ele>
<time>2013-11-20T11:46:29Z</time>
<speed>3.420000</speed>
<extensions>
<speed>3.4</speed>
<temp>0.00</temp>
<bpm>0</bpm>
<rpm>0.00</rpm>
</extensions>
</trkpt>
<trkpt lat="30.883605957" lon="34.817413330">
<ele>494.828125</ele>
<time>2013-11-20T11:46:34Z</time>
<speed>3.380000</speed>
<extensions>
<speed>3.4</speed>
<temp>0.00</temp>
<bpm>0</bpm>
<rpm>0.00</rpm>
</extensions>
</trkpt>
<trkpt lat="30.883512497" lon="34.817245483">
<ele>496.750000</ele>
<time>2013-11-20T11:46:39Z</time>
<speed>3.830000</speed>
<extensions>
<speed>3.8</speed>
<temp>0.00</temp>
<bpm>0</bpm>
<rpm>0.00</rpm>
</extensions>
</trkpt>
<trkpt lat="30.883417130" lon="34.817077637">
<ele>496.500000</ele>
<time>2013-11-20T11:46:44Z</time>
<speed>3.730000</speed>
<extensions>
<speed>3.7</speed>
<temp>0.00</temp>
<bpm>0</bpm>
<rpm>0.00</rpm>
</extensions>
</trkpt>
<trkpt lat="30.883308411" lon="34.816913605">
<ele>497.937500</ele>
<time>2013-11-20T11:46:49Z</time>
<speed>4.030000</speed>
<extensions>
<speed>4.0</speed>
<temp>0.00</temp>
<bpm>0</bpm>
<rpm>0.00</rpm>
</extensions>
</trkpt>
<trkpt lat="30.883197784" lon="34.816703796">
<ele>497.539063</ele>
<time>2013-11-20T11:46:54Z</time>
<speed>4.290000</speed>
<extensions>
<speed>4.3</speed>
<temp>0.00</temp>
<bpm>0</bpm>
<rpm>0.00</rpm>
</extensions>
</trkpt>
<trkpt lat="30.883075714" lon="34.816501617">
<ele>497.281250</ele>
<time>2013-11-20T11:46:59Z</time>
<speed>4.700000</speed>
<extensions>
<speed>4.7</speed>
<temp>0.00</temp>
<bpm>0</bpm>
<rpm>0.00</rpm>
</extensions>
</trkpt>
<trkpt lat="30.882957458" lon="34.816299438">
<ele>496.226563</ele>
<time>2013-11-20T11:47:04Z</time>
<speed>4.600000</speed>
<extensions>
<speed>4.6</speed>
<temp>0.00</temp>
<bpm>0</bpm>
<rpm>0.00</rpm>
</extensions>
</trkpt>
<trkpt lat="30.882831573" lon="34.816093445">
<ele>497.109375</ele>
<time>2013-11-20T11:47:09Z</time>
<speed>5.090000</speed>
<extensions>
<speed>5.1</speed>
<temp>0.00</temp>
<bpm>0</bpm>
<rpm>0.00</rpm>
</extensions>
</trkpt>
<trkpt lat="30.882717133" lon="34.815879822">
<ele>496.625000</ele>
<time>2013-11-20T11:47:14Z</time>
<speed>4.730000</speed>
<extensions>
<speed>4.7</speed>
<temp>0.00</temp>
<bpm>0</bpm>
<rpm>0.00</rpm>
</extensions>
</trkpt>
<trkpt lat="30.882604599" lon="34.815662384">
<ele>495.000000</ele>
<time>2013-11-20T11:47:19Z</time>
<speed>5.160000</speed>
<extensions>
<speed>5.2</speed>
<temp>0.00</temp>
<bpm>0</bpm>
<rpm>0.00</rpm>
</extensions>
</trkpt>
<trkpt lat="30.882507324" lon="34.815444946">
<ele>495.359375</ele>
<time>2013-11-20T11:47:24Z</time>
<speed>4.900000</speed>
<extensions>
<speed>4.9</speed>
<temp>0.00</temp>
<bpm>0</bpm>
<rpm>0.00</rpm>
</extensions>
</trkpt>
<trkpt lat="30.882400513" lon="34.815200806">
<ele>494.453125</ele>
<time>2013-11-20T11:47:29Z</time>
<speed>5.080000</speed>
<extensions>
<speed>5.1</speed>
<temp>0.00</temp>
<bpm>0</bpm>
<rpm>0.00</rpm>
</extensions>
</trkpt>
<trkpt lat="30.882297516" lon="34.814952850">
<ele>494.945313</ele>
<time>2013-11-20T11:47:34Z</time>
<speed>5.450000</speed>
<extensions>
<speed>5.5</speed>
<temp>0.00</temp>
<bpm>0</bpm>
<rpm>0.00</rpm>
</extensions>
</trkpt>
<trkpt lat="30.882211685" lon="34.814693451">
<ele>494.929688</ele>
<time>2013-11-20T11:47:39Z</time>
<speed>4.910000</speed>
<extensions>
<speed>4.9</speed>
<temp>0.00</temp>
<bpm>0</bpm>
<rpm>0.00</rpm>
</extensions>
</trkpt>
<trkpt lat="30.882148743" lon="34.814437866">
<ele>493.898438</ele>
<time>2013-11-20T11:47:44Z</time>
<speed>5.370000</speed>
<extensions>
<speed>5.4</speed>
<temp>0.00</temp>
<bpm>0</bpm>
<rpm>0.00</rpm>
</extensions>
</trkpt>
<trkpt lat="30.882089615" lon="34.814189911">
<ele>493.250000</ele>
<time>2013-11-20T11:47:49Z</time>
<speed>5.170000</speed>
<extensions>
<speed>5.2</speed>
<temp>0.00</temp>
<bpm>0</bpm>
<rpm>0.00</rpm>
</extensions>
</trkpt>
<trkpt lat="30.882024765" lon="34.813934326">
<ele>492.820313</ele>
<time>2013-11-20T11:47:54Z</time>
<speed>4.880000</speed>
<extensions>
<speed>4.9</speed>
<temp>0.00</temp>
<bpm>0</bpm>
<rpm>0.00</rpm>
</extensions>
</trkpt>
<trkpt lat="30.881963730" lon="34.813686371">
<ele>491.320313</ele>
<time>2013-11-20T11:47:59Z</time>
<speed>4.930000</speed>
<extensions>
<speed>4.9</speed>
<temp>0.00</temp>
<bpm>0</bpm>
<rpm>0.00</rpm>
</extensions>
</trkpt>
<trkpt lat="30.881895065" lon="34.813453674">
<ele>492.390625</ele>
<time>2013-11-20T11:48:04Z</time>
<speed>4.600000</speed>
<extensions>
<speed>4.6</speed>
<temp>0.00</temp>
<bpm>0</bpm>
<rpm>0.00</rpm>
</extensions>
</trkpt>
<trkpt lat="30.881849289" lon="34.813232422">
<ele>492.945313</ele>
<time>2013-11-20T11:48:09Z</time>
<speed>4.800000</speed>
<extensions>
<speed>4.8</speed>
<temp>0.00</temp>
<bpm>0</bpm>
<rpm>0.00</rpm>
</extensions>
</trkpt>
<trkpt lat="30.881778717" lon="34.812976837">
<ele>494.140625</ele>
<time>2013-11-20T11:48:14Z</time>
<speed>5.120000</speed>
<extensions>
<speed>5.1</speed>
<temp>0.00</temp>
<bpm>0</bpm>
<rpm>0.00</rpm>
</extensions>
</trkpt>
<trkpt lat="30.881704330" lon="34.812721252">
<ele>494.000000</ele>
<time>2013-11-20T11:48:19Z</time>
<speed>5.230000</speed>
<extensions>
<speed>5.2</speed>
<temp>0.00</temp>
<bpm>0</bpm>
<rpm>0.00</rpm>
</extensions>
</trkpt>
<trkpt lat="30.881649017" lon="34.812469482">
<ele>492.382813</ele>
<time>2013-11-20T11:48:24Z</time>
<speed>5.170000</speed>
<extensions>
<speed>5.2</speed>
<temp>0.00</temp>
<bpm>0</bpm>
<rpm>0.00</rpm>
</extensions>
</trkpt>
<trkpt lat="30.881603241" lon="34.812210083">
<ele>490.867188</ele>
<time>2013-11-20T11:48:29Z</time>
<speed>5.080000</speed>
<extensions>
<speed>5.1</speed>
<temp>0.00</temp>
<bpm>0</bpm>
<rpm>0.00</rpm>
</extensions>
</trkpt>
<trkpt lat="30.881544113" lon="34.811973572">
<ele>492.140625</ele>
<time>2013-11-20T11:48:34Z</time>
<speed>4.560000</speed>
<extensions>
<speed>4.6</speed>
<temp>0.00</temp>
<bpm>0</bpm>
<rpm>0.00</rpm>
</extensions>
</trkpt>
<trkpt lat="30.881511688" lon="34.811717987">
<ele>493.484375</ele>
<time>2013-11-20T11:48:39Z</time>
<speed>4.490000</speed>
<extensions>
<speed>4.5</speed>
<temp>0.00</temp>
<bpm>0</bpm>
<rpm>0.00</rpm>
</extensions>
</trkpt>
<trkpt lat="30.881505966" lon="34.811466217">
<ele>492.421875</ele>
<time>2013-11-20T11:48:44Z</time>
<speed>4.920000</speed>
<extensions>
<speed>4.9</speed>
<temp>0.00</temp>
<bpm>0</bpm>
<rpm>0.00</rpm>
</extensions>
</trkpt>
<trkpt lat="30.881486893" lon="34.811222076">
<ele>492.328125</ele>
<time>2013-11-20T11:48:49Z</time>
<speed>4.840000</speed>
<extensions>
<speed>4.8</speed>
<temp>0.00</temp>
<bpm>0</bpm>
<rpm>0.00</rpm>
</extensions>
</trkpt>
<trkpt lat="30.881483078" lon="34.810966492">
<ele>492.304688</ele>
<time>2013-11-20T11:48:54Z</time>
<speed>4.780000</speed>
<extensions>
<speed>4.8</speed>
<temp>0.00</temp>
<bpm>0</bpm>
<rpm>0.00</rpm>
</extensions>
</trkpt>
<trkpt lat="30.881477356" lon="34.810726166">
<ele>492.265625</ele>
<time>2013-11-20T11:48:59Z</time>
<speed>4.670000</speed>
<extensions>
<speed>4.7</speed>
<temp>0.00</temp>
<bpm>0</bpm>
<rpm>0.00</rpm>
</extensions>
</trkpt>
<trkpt lat="30.881473541" lon="34.810470581">
<ele>491.023438</ele>
<time>2013-11-20T11:49:04Z</time>
<speed>4.540000</speed>
<extensions>
<speed>4.5</speed>
<temp>0.00</temp>
<bpm>0</bpm>
<rpm>0.00</rpm>
</extensions>
</trkpt>
<trkpt lat="30.881484985" lon="34.810237885">
<ele>490.109375</ele>
<time>2013-11-20T11:49:09Z</time>
<speed>4.510000</speed>
<extensions>
<speed>4.5</speed>
<temp>0.00</temp>
<bpm>0</bpm>
<rpm>0.00</rpm>
</extensions>
</trkpt>
<trkpt lat="30.881502151" lon="34.810001373">
<ele>491.468750</ele>
<time>2013-11-20T11:49:14Z</time>
<speed>4.700000</speed>
<extensions>
<speed>4.7</speed>
<temp>0.00</temp>
<bpm>0</bpm>
<rpm>0.00</rpm>
</extensions>
</trkpt>
<trkpt lat="30.881614685" lon="34.809783936">
<ele>491.921875</ele>
<time>2013-11-20T11:49:19Z</time>
<speed>4.830000</speed>
<extensions>
<speed>4.8</speed>
<temp>0.00</temp>
<bpm>0</bpm>
<rpm>0.00</rpm>
</extensions>
</trkpt>
<trkpt lat="30.881729126" lon="34.809585571">
<ele>493.828125</ele>
<time>2013-11-20T11:49:24Z</time>
<speed>4.570000</speed>
<extensions>
<speed>4.6</speed>
<temp>0.00</temp>
<bpm>0</bpm>
<rpm>0.00</rpm>
</extensions>
</trkpt>
<trkpt lat="30.881732941" lon="34.809337616">
<ele>494.304688</ele>
<time>2013-11-20T11:49:29Z</time>
<speed>4.570000</speed>
<extensions>
<speed>4.6</speed>
<temp>0.00</temp>
<bpm>0</bpm>
<rpm>0.00</rpm>
</extensions>
</trkpt>
<trkpt lat="30.881692886" lon="34.809097290">
<ele>493.375000</ele>
<time>2013-11-20T11:49:34Z</time>
<speed>4.890000</speed>
<extensions>
<speed>4.9</speed>
<temp>0.00</temp>
<bpm>0</bpm>
<rpm>0.00</rpm>
</extensions>
</trkpt>
<trkpt lat="30.881643295" lon="34.808864594">
<ele>493.171875</ele>
<time>2013-11-20T11:49:39Z</time>
<speed>4.840000</speed>
<extensions>
<speed>4.8</speed>
<temp>0.00</temp>
<bpm>0</bpm>
<rpm>0.00</rpm>
</extensions>
</trkpt>
<trkpt lat="30.881586075" lon="34.808586121">
<ele>492.351563</ele>
<time>2013-11-20T11:49:44Z</time>
<speed>5.070000</speed>
<extensions>
<speed>5.1</speed>
<temp>0.00</temp>
<bpm>0</bpm>
<rpm>0.00</rpm>
</extensions>
</trkpt>
<trkpt lat="30.881551743" lon="34.808326721">
<ele>492.601563</ele>
<time>2013-11-20T11:49:49Z</time>
<speed>5.070000</speed>
<extensions>
<speed>5.1</speed>
<temp>0.00</temp>
<bpm>0</bpm>
<rpm>0.00</rpm>
</extensions>
</trkpt>
<trkpt lat="30.881502151" lon="34.808044434">
<ele>492.148438</ele>
<time>2013-11-20T11:49:54Z</time>
<speed>5.720000</speed>
<extensions>
<speed>5.7</speed>
<temp>0.00</temp>
<bpm>0</bpm>
<rpm>0.00</rpm>
</extensions>
</trkpt>
<trkpt lat="30.881444931" lon="34.807758331">
<ele>492.460938</ele>
<time>2013-11-20T11:49:59Z</time>
<speed>5.380000</speed>
<extensions>
<speed>5.4</speed>
<temp>0.00</temp>
<bpm>0</bpm>
<rpm>0.00</rpm>
</extensions>
</trkpt>
<trkpt lat="30.881381989" lon="34.807468414">
<ele>492.226563</ele>
<time>2013-11-20T11:50:04Z</time>
<speed>5.510000</speed>
<extensions>
<speed>5.5</speed>
<temp>0.00</temp>
<bpm>0</bpm>
<rpm>0.00</rpm>
</extensions>
</trkpt>
<trkpt lat="30.881336212" lon="34.807186127">
<ele>491.593750</ele>
<time>2013-11-20T11:50:09Z</time>
<speed>5.320000</speed>
<extensions>
<speed>5.3</speed>
<temp>0.00</temp>
<bpm>0</bpm>
<rpm>0.00</rpm>
</extensions>
</trkpt>
<trkpt lat="30.881275177" lon="34.806903839">
<ele>490.468750</ele>
<time>2013-11-20T11:50:14Z</time>
<speed>5.490000</speed>
<extensions>
<speed>5.5</speed>
<temp>0.00</temp>
<bpm>0</bpm>
<rpm>0.00</rpm>
</extensions>
</trkpt>
<trkpt lat="30.881208420" lon="34.806629181">
<ele>490.757813</ele>
<time>2013-11-20T11:50:19Z</time>
<speed>5.380000</speed>
<extensions>
<speed>5.4</speed>
<temp>0.00</temp>
<bpm>0</bpm>
<rpm>0.00</rpm>
</extensions>
</trkpt>
<trkpt lat="30.881153107" lon="34.806369781">
<ele>489.835938</ele>
<time>2013-11-20T11:50:24Z</time>
<speed>5.410000</speed>
<extensions>
<speed>5.4</speed>
<temp>0.00</temp>
<bpm>0</bpm>
<rpm>0.00</rpm>
</extensions>
</trkpt>
<trkpt lat="30.881082535" lon="34.806095123">
<ele>488.984375</ele>
<time>2013-11-20T11:50:29Z</time>
<speed>5.640000</speed>
<extensions>
<speed>5.6</speed>
<temp>0.00</temp>
<bpm>0</bpm>
<rpm>0.00</rpm>
</extensions>
</trkpt>
<trkpt lat="30.881006241" lon="34.805816650">
<ele>487.304688</ele>
<time>2013-11-20T11:50:34Z</time>
<speed>5.870000</speed>
<extensions>
<speed>5.9</speed>
<temp>0.00</temp>
<bpm>0</bpm>
<rpm>0.00</rpm>
</extensions>
</trkpt>
<trkpt lat="30.880908966" lon="34.805538177">
<ele>487.125000</ele>
<time>2013-11-20T11:50:39Z</time>
<speed>5.500000</speed>
<extensions>
<speed>5.5</speed>
<temp>0.00</temp>
<bpm>0</bpm>
<rpm>0.00</rpm>
</extensions>
</trkpt>
<trkpt lat="30.880826950" lon="34.805282593">
<ele>487.132813</ele>
<time>2013-11-20T11:50:44Z</time>
<speed>5.190000</speed>
<extensions>
<speed>5.2</speed>
<temp>0.00</temp>
<bpm>0</bpm>
<rpm>0.00</rpm>
</extensions>
</trkpt>
<trkpt lat="30.880727768" lon="34.805042267">
<ele>486.078125</ele>
<time>2013-11-20T11:50:49Z</time>
<speed>5.340000</speed>
<extensions>
<speed>5.3</speed>
<temp>0.00</temp>
<bpm>0</bpm>
<rpm>0.00</rpm>
</extensions>
</trkpt>
<trkpt lat="30.880626678" lon="34.804805756">
<ele>485.992188</ele>
<time>2013-11-20T11:50:54Z</time>
<speed>5.380000</speed>
<extensions>
<speed>5.4</speed>
<temp>0.00</temp>
<bpm>0</bpm>
<rpm>0.00</rpm>
</extensions>
</trkpt>
<trkpt lat="30.880531311" lon="34.804561615">
<ele>487.203125</ele>
<time>2013-11-20T11:50:59Z</time>
<speed>5.340000</speed>
<extensions>
<speed>5.3</speed>
<temp>0.00</temp>
<bpm>0</bpm>
<rpm>0.00</rpm>
</extensions>
</trkpt>
<trkpt lat="30.880420685" lon="34.804260254">
<ele>487.593750</ele>
<time>2013-11-20T11:51:04Z</time>
<speed>6.030000</speed>
<extensions>
<speed>6.0</speed>
<temp>0.00</temp>
<bpm>0</bpm>
<rpm>0.00</rpm>
</extensions>
</trkpt>
<trkpt lat="30.880336761" lon="34.804000854">
<ele>488.765625</ele>
<time>2013-11-20T11:51:09Z</time>
<speed>4.870000</speed>
<extensions>
<speed>4.9</speed>
<temp>0.00</temp>
<bpm>0</bpm>
<rpm>0.00</rpm>
</extensions>
</trkpt>
<trkpt lat="30.880266190" lon="34.803745270">
<ele>486.812500</ele>
<time>2013-11-20T11:51:14Z</time>
<speed>5.070000</speed>
<extensions>
<speed>5.1</speed>
<temp>0.00</temp>
<bpm>0</bpm>
<rpm>0.00</rpm>
</extensions>
</trkpt>
<trkpt lat="30.880193710" lon="34.803489685">
<ele>486.265625</ele>
<time>2013-11-20T11:51:19Z</time>
<speed>5.040000</speed>
<extensions>
<speed>5.0</speed>
<temp>0.00</temp>
<bpm>0</bpm>
<rpm>0.00</rpm>
</extensions>
</trkpt>
<trkpt lat="30.880125046" lon="34.803226471">
<ele>485.289063</ele>
<time>2013-11-20T11:51:24Z</time>
<speed>5.120000</speed>
<extensions>
<speed>5.1</speed>
<temp>0.00</temp>
<bpm>0</bpm>
<rpm>0.00</rpm>
</extensions>
</trkpt>
<trkpt lat="30.880050659" lon="34.802970886">
<ele>485.664063</ele>
<time>2013-11-20T11:51:29Z</time>
<speed>5.230000</speed>
<extensions>
<speed>5.2</speed>
<temp>0.00</temp>
<bpm>0</bpm>
<rpm>0.00</rpm>
</extensions>
</trkpt>
<trkpt lat="30.879981995" lon="34.802715302">
<ele>485.367188</ele>
<time>2013-11-20T11:51:34Z</time>
<speed>4.740000</speed>
<extensions>
<speed>4.7</speed>
<temp>0.00</temp>
<bpm>0</bpm>
<rpm>0.00</rpm>
</extensions>
</trkpt>
<trkpt lat="30.879903793" lon="34.802463531">
<ele>484.273438</ele>
<time>2013-11-20T11:51:39Z</time>
<speed>5.290000</speed>
<extensions>
<speed>5.3</speed>
<temp>0.00</temp>
<bpm>0</bpm>
<rpm>0.00</rpm>
</extensions>
</trkpt>
<trkpt lat="30.879825592" lon="34.802211761">
<ele>485.117188</ele>
<time>2013-11-20T11:51:44Z</time>
<speed>5.390000</speed>
<extensions>
<speed>5.4</speed>
<temp>0.00</temp>
<bpm>0</bpm>
<rpm>0.00</rpm>
</extensions>
</trkpt>
<trkpt lat="30.879737854" lon="34.801937103">
<ele>483.890625</ele>
<time>2013-11-20T11:51:49Z</time>
<speed>5.130000</speed>
<extensions>
<speed>5.1</speed>
<temp>0.00</temp>
<bpm>0</bpm>
<rpm>0.00</rpm>
</extensions>
</trkpt>
<trkpt lat="30.879655838" lon="34.801689148">
<ele>484.140625</ele>
<time>2013-11-20T11:51:54Z</time>
<speed>5.060000</speed>
<extensions>
<speed>5.1</speed>
<temp>0.00</temp>
<bpm>0</bpm>
<rpm>0.00</rpm>
</extensions>
</trkpt>
<trkpt lat="30.879571915" lon="34.801456451">
<ele>484.687500</ele>
<time>2013-11-20T11:51:59Z</time>
<speed>4.490000</speed>
<extensions>
<speed>4.5</speed>
<temp>0.00</temp>
<bpm>0</bpm>
<rpm>0.00</rpm>
</extensions>
</trkpt>
<trkpt lat="30.879442215" lon="34.801315308">
<ele>485.781250</ele>
<time>2013-11-20T11:52:04Z</time>
<speed>3.960000</speed>
<extensions>
<speed>4.0</speed>
<temp>0.00</temp>
<bpm>0</bpm>
<rpm>0.00</rpm>
</extensions>
</trkpt>
<trkpt lat="30.879266739" lon="34.801254272">
<ele>486.195313</ele>
<time>2013-11-20T11:52:09Z</time>
<speed>4.350000</speed>
<extensions>
<speed>4.3</speed>
<temp>0.00</temp>
<bpm>0</bpm>
<rpm>0.00</rpm>
</extensions>
</trkpt>
<trkpt lat="30.879184723" lon="34.801040649">
<ele>486.468750</ele>
<time>2013-11-20T11:52:14Z</time>
<speed>5.040000</speed>
<extensions>
<speed>5.0</speed>
<temp>0.00</temp>
<bpm>0</bpm>
<rpm>0.00</rpm>
</extensions>
</trkpt>
<trkpt lat="30.879137039" lon="34.800815582">
<ele>486.593750</ele>
<time>2013-11-20T11:52:19Z</time>
<speed>4.520000</speed>
<extensions>
<speed>4.5</speed>
<temp>0.00</temp>
<bpm>0</bpm>
<rpm>0.00</rpm>
</extensions>
</trkpt>
<trkpt lat="30.879085541" lon="34.800575256">
<ele>485.171875</ele>
<time>2013-11-20T11:52:24Z</time>
<speed>4.260000</speed>
<extensions>
<speed>4.3</speed>
<temp>0.00</temp>
<bpm>0</bpm>
<rpm>0.00</rpm>
</extensions>
</trkpt>
<trkpt lat="30.879024506" lon="34.800342560">
<ele>483.937500</ele>
<time>2013-11-20T11:52:29Z</time>
<speed>4.910000</speed>
<extensions>
<speed>4.9</speed>
<temp>0.00</temp>
<bpm>0</bpm>
<rpm>0.00</rpm>
</extensions>
</trkpt>
<trkpt lat="30.878959656" lon="34.800060272">
<ele>482.632813</ele>
<time>2013-11-20T11:52:34Z</time>
<speed>5.790000</speed>
<extensions>
<speed>5.8</speed>
<temp>0.00</temp>
<bpm>0</bpm>
<rpm>0.00</rpm>
</extensions>
</trkpt>
<trkpt lat="30.878883362" lon="34.799770355">
<ele>481.367188</ele>
<time>2013-11-20T11:52:39Z</time>
<speed>5.920000</speed>
<extensions>
<speed>5.9</speed>
<temp>0.00</temp>
<bpm>0</bpm>
<rpm>0.00</rpm>
</extensions>
</trkpt>
<trkpt lat="30.878807068" lon="34.799476624">
<ele>481.429688</ele>
<time>2013-11-20T11:52:44Z</time>
<speed>5.500000</speed>
<extensions>
<speed>5.5</speed>
<temp>0.00</temp>
<bpm>0</bpm>
<rpm>0.00</rpm>
</extensions>
</trkpt>
<trkpt lat="30.878757477" lon="34.799217224">
<ele>481.921875</ele>
<time>2013-11-20T11:52:49Z</time>
<speed>5.040000</speed>
<extensions>
<speed>5.0</speed>
<temp>0.00</temp>
<bpm>0</bpm>
<rpm>0.00</rpm>
</extensions>
</trkpt>
<trkpt lat="30.878713608" lon="34.798946381">
<ele>481.375000</ele>
<time>2013-11-20T11:52:54Z</time>
<speed>5.560000</speed>
<extensions>
<speed>5.6</speed>
<temp>0.00</temp>
<bpm>0</bpm>
<rpm>0.00</rpm>
</extensions>
</trkpt>
<trkpt lat="30.878658295" lon="34.798664093">
<ele>482.921875</ele>
<time>2013-11-20T11:52:59Z</time>
<speed>5.820000</speed>
<extensions>
<speed>5.8</speed>
<temp>0.00</temp>
<bpm>0</bpm>
<rpm>0.00</rpm>
</extensions>
</trkpt>
<trkpt lat="30.878625870" lon="34.798358917">
<ele>481.375000</ele>
<time>2013-11-20T11:53:04Z</time>
<speed>5.980000</speed>
<extensions>
<speed>6.0</speed>
<temp>0.00</temp>
<bpm>0</bpm>
<rpm>0.00</rpm>
</extensions>
</trkpt>
<trkpt lat="30.878610611" lon="34.798057556">
<ele>480.820313</ele>
<time>2013-11-20T11:53:09Z</time>
<speed>5.660000</speed>
<extensions>
<speed>5.7</speed>
<temp>0.00</temp>
<bpm>0</bpm>
<rpm>0.00</rpm>
</extensions>
</trkpt>
<trkpt lat="30.878612518" lon="34.797760010">
<ele>479.789063</ele>
<time>2013-11-20T11:53:14Z</time>
<speed>5.790000</speed>
<extensions>
<speed>5.8</speed>
<temp>0.00</temp>
<bpm>0</bpm>
<rpm>0.00</rpm>
</extensions>
</trkpt>
<trkpt lat="30.878614426" lon="34.797451019">
<ele>479.023438</ele>
<time>2013-11-20T11:53:19Z</time>
<speed>5.890000</speed>
<extensions>
<speed>5.9</speed>
<temp>0.00</temp>
<bpm>0</bpm>
<rpm>0.00</rpm>
</extensions>
</trkpt>
<trkpt lat="30.878602982" lon="34.797164917">
<ele>479.625000</ele>
<time>2013-11-20T11:53:24Z</time>
<speed>5.740000</speed>
<extensions>
<speed>5.7</speed>
<temp>0.00</temp>
<bpm>0</bpm>
<rpm>0.00</rpm>
</extensions>
</trkpt>
<trkpt lat="30.878583908" lon="34.796875000">
<ele>479.710938</ele>
<time>2013-11-20T11:53:29Z</time>
<speed>5.730000</speed>
<extensions>
<speed>5.7</speed>
<temp>0.00</temp>
<bpm>0</bpm>
<rpm>0.00</rpm>
</extensions>
</trkpt>
<trkpt lat="30.878574371" lon="34.796585083">
<ele>480.765625</ele>
<time>2013-11-20T11:53:34Z</time>
<speed>5.560000</speed>
<extensions>
<speed>5.6</speed>
<temp>0.00</temp>
<bpm>0</bpm>
<rpm>0.00</rpm>
</extensions>
</trkpt>
<trkpt lat="30.878576279" lon="34.796287537">
<ele>480.718750</ele>
<time>2013-11-20T11:53:39Z</time>
<speed>5.780000</speed>
<extensions>
<speed>5.8</speed>
<temp>0.00</temp>
<bpm>0</bpm>
<rpm>0.00</rpm>
</extensions>
</trkpt>
<trkpt lat="30.878566742" lon="34.795989990">
<ele>480.007813</ele>
<time>2013-11-20T11:53:44Z</time>
<speed>5.660000</speed>
<extensions>
<speed>5.7</speed>
<temp>0.00</temp>
<bpm>0</bpm>
<rpm>0.00</rpm>
</extensions>
</trkpt>
<trkpt lat="30.878534317" lon="34.795677185">
<ele>478.429688</ele>
<time>2013-11-20T11:53:49Z</time>
<speed>6.190000</speed>
<extensions>
<speed>6.2</speed>
<temp>0.00</temp>
<bpm>0</bpm>
<rpm>0.00</rpm>
</extensions>
</trkpt>
<trkpt lat="30.878461838" lon="34.795379639">
<ele>478.648438</ele>
<time>2013-11-20T11:53:54Z</time>
<speed>5.980000</speed>
<extensions>
<speed>6.0</speed>
<temp>0.00</temp>
<bpm>0</bpm>
<rpm>0.00</rpm>
</extensions>
</trkpt>
<trkpt lat="30.878345490" lon="34.795101166">
<ele>479.007813</ele>
<time>2013-11-20T11:53:59Z</time>
<speed>5.740000</speed>
<extensions>
<speed>5.7</speed>
<temp>0.00</temp>
<bpm>0</bpm>
<rpm>0.00</rpm>
</extensions>
</trkpt>
<trkpt lat="30.878211975" lon="34.794860840">
<ele>478.453125</ele>
<time>2013-11-20T11:54:04Z</time>
<speed>5.380000</speed>
<extensions>
<speed>5.4</speed>
<temp>0.00</temp>
<bpm>0</bpm>
<rpm>0.00</rpm>
</extensions>
</trkpt>
<trkpt lat="30.878086090" lon="34.794631958">
<ele>479.210938</ele>
<time>2013-11-20T11:54:09Z</time>
<speed>5.150000</speed>
<extensions>
<speed>5.2</speed>
<temp>0.00</temp>
<bpm>0</bpm>
<rpm>0.00</rpm>
</extensions>
</trkpt>
<trkpt lat="30.877979279" lon="34.794403076">
<ele>479.695313</ele>
<time>2013-11-20T11:54:14Z</time>
<speed>4.760000</speed>
<extensions>
<speed>4.8</speed>
<temp>0.00</temp>
<bpm>0</bpm>
<rpm>0.00</rpm>
</extensions>
</trkpt>
<trkpt lat="30.877962112" lon="34.794181824">
<ele>480.773438</ele>
<time>2013-11-20T11:54:19Z</time>
<speed>2.800000</speed>
<extensions>
<speed>2.8</speed>
<temp>0.00</temp>
<bpm>0</bpm>
<rpm>0.00</rpm>
</extensions>
</trkpt>
<trkpt lat="30.877983093" lon="34.794139862">
<ele>481.476563</ele>
<time>2013-11-20T11:54:24Z</time>
<speed>0.020000</speed>
<extensions>
<speed>0.0</speed>
<temp>0.00</temp>
<bpm>0</bpm>
<rpm>0.00</rpm>
</extensions>
</trkpt>
<trkpt lat="30.877983093" lon="34.794139862">
<ele>481.671875</ele>
<time>2013-11-20T11:54:29Z</time>
<speed>0.060000</speed>
<extensions>
<speed>0.1</speed>
<temp>0.00</temp>
<bpm>0</bpm>
<rpm>0.00</rpm>
</extensions>
</trkpt>
<trkpt lat="30.877986908" lon="34.794139862">
<ele>481.625000</ele>
<time>2013-11-20T11:54:34Z</time>
<speed>0.040000</speed>
<extensions>
<speed>0.0</speed>
<temp>0.00</temp>
<bpm>0</bpm>
<rpm>0.00</rpm>
</extensions>
</trkpt>
<trkpt lat="30.877985001" lon="34.794139862">
<ele>481.648438</ele>
<time>2013-11-20T11:54:39Z</time>
<speed>0.050000</speed>
<extensions>
<speed>0.1</speed>
<temp>0.00</temp>
<bpm>0</bpm>
<rpm>0.00</rpm>
</extensions>
</trkpt>
<trkpt lat="30.877985001" lon="34.794139862">
<ele>481.664063</ele>
<time>2013-11-20T11:54:44Z</time>
<speed>0.070000</speed>
<extensions>
<speed>0.1</speed>
<temp>0.00</temp>
<bpm>0</bpm>
<rpm>0.00</rpm>
</extensions>
</trkpt>
<trkpt lat="30.877985001" lon="34.794139862">
<ele>481.679688</ele>
<time>2013-11-20T11:54:49Z</time>
<speed>0.020000</speed>
<extensions>
<speed>0.0</speed>
<temp>0.00</temp>
<bpm>0</bpm>
<rpm>0.00</rpm>
</extensions>
</trkpt>
<trkpt lat="30.877985001" lon="34.794139862">
<ele>481.710938</ele>
<time>2013-11-20T11:54:54Z</time>
<speed>0.020000</speed>
<extensions>
<speed>0.0</speed>
<temp>0.00</temp>
<bpm>0</bpm>
<rpm>0.00</rpm>
</extensions>
</trkpt>
<trkpt lat="30.877985001" lon="34.794139862">
<ele>481.703125</ele>
<time>2013-11-20T11:54:59Z</time>
<speed>0.020000</speed>
<extensions>
<speed>0.0</speed>
<temp>0.00</temp>
<bpm>0</bpm>
<rpm>0.00</rpm>
</extensions>
</trkpt>
<trkpt lat="30.877985001" lon="34.794139862">
<ele>481.687500</ele>
<time>2013-11-20T11:55:04Z</time>
<extensions>
<speed>0.0</speed>
<temp>0.00</temp>
<bpm>0</bpm>
<rpm>0.00</rpm>
</extensions>
</trkpt>
<trkpt lat="30.877985001" lon="34.794143677">
<ele>481.679688</ele>
<time>2013-11-20T11:55:09Z</time>
<extensions>
<speed>0.0</speed>
<temp>0.00</temp>
<bpm>0</bpm>
<rpm>0.00</rpm>
</extensions>
</trkpt>
<trkpt lat="30.877983093" lon="34.794143677">
<ele>481.664063</ele>
<time>2013-11-20T11:55:14Z</time>
<speed>0.020000</speed>
<extensions>
<speed>0.0</speed>
<temp>0.00</temp>
<bpm>0</bpm>
<rpm>0.00</rpm>
</extensions>
</trkpt>
<trkpt lat="30.877983093" lon="34.794143677">
<ele>481.656250</ele>
<time>2013-11-20T11:55:19Z</time>
<speed>0.010000</speed>
<extensions>
<speed>0.0</speed>
<temp>0.00</temp>
<bpm>0</bpm>
<rpm>0.00</rpm>
</extensions>
</trkpt>
<trkpt lat="30.877983093" lon="34.794143677">
<ele>481.648438</ele>
<time>2013-11-20T11:55:24Z</time>
<extensions>
<speed>0.0</speed>
<temp>0.00</temp>
<bpm>0</bpm>
<rpm>0.00</rpm>
</extensions>
</trkpt>
<trkpt lat="30.877983093" lon="34.794143677">
<ele>481.640625</ele>
<time>2013-11-20T11:55:29Z</time>
<extensions>
<speed>0.0</speed>
<temp>0.00</temp>
<bpm>0</bpm>
<rpm>0.00</rpm>
</extensions>
</trkpt>
<trkpt lat="30.877983093" lon="34.794143677">
<ele>481.640625</ele>
<time>2013-11-20T11:55:34Z</time>
<extensions>
<speed>0.0</speed>
<temp>0.00</temp>
<bpm>0</bpm>
<rpm>0.00</rpm>
</extensions>
</trkpt>
<trkpt lat="30.877983093" lon="34.794143677">
<ele>481.625000</ele>
<time>2013-11-20T11:55:39Z</time>
<extensions>
<speed>0.0</speed>
<temp>0.00</temp>
<bpm>0</bpm>
<rpm>0.00</rpm>
</extensions>
</trkpt>
<trkpt lat="30.877983093" lon="34.794143677">
<ele>481.609375</ele>
<time>2013-11-20T11:55:44Z</time>
<extensions>
<speed>0.0</speed>
<temp>0.00</temp>
<bpm>0</bpm>
<rpm>0.00</rpm>
</extensions>
</trkpt>
<trkpt lat="30.877983093" lon="34.794143677">
<ele>481.593750</ele>
<time>2013-11-20T11:55:49Z</time>
<speed>0.010000</speed>
<extensions>
<speed>0.0</speed>
<temp>0.00</temp>
<bpm>0</bpm>
<rpm>0.00</rpm>
</extensions>
</trkpt>
<trkpt lat="30.877983093" lon="34.794143677">
<ele>481.593750</ele>
<time>2013-11-20T11:55:54Z</time>
<speed>0.020000</speed>
<extensions>
<speed>0.0</speed>
<temp>0.00</temp>
<bpm>0</bpm>
<rpm>0.00</rpm>
</extensions>
</trkpt>
<trkpt lat="30.878015518" lon="34.794113159">
<ele>481.507813</ele>
<time>2013-11-20T11:55:59Z</time>
<speed>3.190000</speed>
<extensions>
<speed>3.2</speed>
<temp>0.00</temp>
<bpm>0</bpm>
<rpm>0.00</rpm>
</extensions>
</trkpt>
<trkpt lat="30.878187180" lon="34.794025421">
<ele>480.984375</ele>
<time>2013-11-20T11:56:04Z</time>
<speed>4.120000</speed>
<extensions>
<speed>4.1</speed>
<temp>0.00</temp>
<bpm>0</bpm>
<rpm>0.00</rpm>
</extensions>
</trkpt>
<trkpt lat="30.878396988" lon="34.793972015">
<ele>480.007813</ele>
<time>2013-11-20T11:56:09Z</time>
<speed>4.550000</speed>
<extensions>
<speed>4.5</speed>
<temp>0.00</temp>
<bpm>0</bpm>
<rpm>0.00</rpm>
</extensions>
</trkpt>
<trkpt lat="30.878639221" lon="34.793914795">
<ele>477.906250</ele>
<time>2013-11-20T11:56:14Z</time>
<speed>4.990000</speed>
<extensions>
<speed>5.0</speed>
<temp>0.00</temp>
<bpm>0</bpm>
<rpm>0.00</rpm>
</extensions>
</trkpt>
<trkpt lat="30.878858566" lon="34.793853760">
<ele>479.007813</ele>
<time>2013-11-20T11:56:19Z</time>
<speed>4.580000</speed>
<extensions>
<speed>4.6</speed>
<temp>0.00</temp>
<bpm>0</bpm>
<rpm>0.00</rpm>
</extensions>
</trkpt>
<trkpt lat="30.879081726" lon="34.793819427">
<ele>479.867188</ele>
<time>2013-11-20T11:56:24Z</time>
<speed>4.860000</speed>
<extensions>
<speed>4.9</speed>
<temp>0.00</temp>
<bpm>0</bpm>
<rpm>0.00</rpm>
</extensions>
</trkpt>
<trkpt lat="30.879308701" lon="34.793746948">
<ele>478.304688</ele>
<time>2013-11-20T11:56:29Z</time>
<speed>5.270000</speed>
<extensions>
<speed>5.3</speed>
<temp>0.00</temp>
<bpm>0</bpm>
<rpm>0.00</rpm>
</extensions>
</trkpt>
<trkpt lat="30.879526138" lon="34.793636322">
<ele>478.976563</ele>
<time>2013-11-20T11:56:34Z</time>
<speed>5.040000</speed>
<extensions>
<speed>5.0</speed>
<temp>0.00</temp>
<bpm>0</bpm>
<rpm>0.00</rpm>
</extensions>
</trkpt>
<trkpt lat="30.879703522" lon="34.793491364">
<ele>479.851563</ele>
<time>2013-11-20T11:56:39Z</time>
<speed>4.640000</speed>
<extensions>
<speed>4.6</speed>
<temp>0.00</temp>
<bpm>0</bpm>
<rpm>0.00</rpm>
</extensions>
</trkpt>
<trkpt lat="30.879858017" lon="34.793331146">
<ele>480.281250</ele>
<time>2013-11-20T11:56:44Z</time>
<speed>3.800000</speed>
<extensions>
<speed>3.8</speed>
<temp>0.00</temp>
<bpm>0</bpm>
<rpm>0.00</rpm>
</extensions>
</trkpt>
<trkpt lat="30.879941940" lon="34.793209076">
<ele>481.593750</ele>
<time>2013-11-20T11:56:49Z</time>
<speed>3.390000</speed>
<extensions>
<speed>3.4</speed>
<temp>0.00</temp>
<bpm>0</bpm>
<rpm>0.00</rpm>
</extensions>
</trkpt>
<trkpt lat="30.880037308" lon="34.793052673">
<ele>482.445313</ele>
<time>2013-11-20T11:56:54Z</time>
<speed>3.320000</speed>
<extensions>
<speed>3.3</speed>
<temp>0.00</temp>
<bpm>0</bpm>
<rpm>0.00</rpm>
</extensions>
</trkpt>
<trkpt lat="30.880111694" lon="34.792919159">
<ele>482.218750</ele>
<time>2013-11-20T11:56:59Z</time>
<speed>2.730000</speed>
<extensions>
<speed>2.7</speed>
<temp>0.00</temp>
<bpm>0</bpm>
<rpm>0.00</rpm>
</extensions>
</trkpt>
<trkpt lat="30.880180359" lon="34.792816162">
<ele>482.210938</ele>
<time>2013-11-20T11:57:04Z</time>
<speed>2.080000</speed>
<extensions>
<speed>2.1</speed>
<temp>0.00</temp>
<bpm>0</bpm>
<rpm>0.00</rpm>
</extensions>
</trkpt>
<trkpt lat="30.880224228" lon="34.792766571">
<ele>482.585938</ele>
<time>2013-11-20T11:57:09Z</time>
<speed>0.280000</speed>
<extensions>
<speed>0.3</speed>
<temp>0.00</temp>
<bpm>0</bpm>
<rpm>0.00</rpm>
</extensions>
</trkpt>
<trkpt lat="30.880235672" lon="34.792762756">
<ele>482.210938</ele>
<time>2013-11-20T11:57:14Z</time>
<speed>0.010000</speed>
<extensions>
<speed>0.0</speed>
<temp>0.00</temp>
<bpm>0</bpm>
<rpm>0.00</rpm>
</extensions>
</trkpt>
<trkpt lat="30.880233765" lon="34.792766571">
<ele>482.281250</ele>
<time>2013-11-20T11:57:19Z</time>
<speed>0.200000</speed>
<extensions>
<speed>0.2</speed>
<temp>0.00</temp>
<bpm>0</bpm>
<rpm>0.00</rpm>
</extensions>
</trkpt>
<trkpt lat="30.880231857" lon="34.792766571">
<ele>482.320313</ele>
<time>2013-11-20T11:57:24Z</time>
<speed>0.060000</speed>
<extensions>
<speed>0.1</speed>
<temp>0.00</temp>
<bpm>0</bpm>
<rpm>0.00</rpm>
</extensions>
</trkpt>
<trkpt lat="30.880237579" lon="34.792774200">
<ele>482.359375</ele>
<time>2013-11-20T11:57:29Z</time>
<speed>0.240000</speed>
<extensions>
<speed>0.2</speed>
<temp>0.00</temp>
<bpm>0</bpm>
<rpm>0.00</rpm>
</extensions>
</trkpt>
<trkpt lat="30.880239487" lon="34.792770386">
<ele>482.382813</ele>
<time>2013-11-20T11:57:34Z</time>
<speed>0.080000</speed>
<extensions>
<speed>0.1</speed>
<temp>0.00</temp>
<bpm>0</bpm>
<rpm>0.00</rpm>
</extensions>
</trkpt>
<trkpt lat="30.880235672" lon="34.792766571">
<ele>482.382813</ele>
<time>2013-11-20T11:57:39Z</time>
<speed>0.130000</speed>
<extensions>
<speed>0.1</speed>
<temp>0.00</temp>
<bpm>0</bpm>
<rpm>0.00</rpm>
</extensions>
</trkpt>
<trkpt lat="30.880235672" lon="34.792766571">
<ele>482.367188</ele>
<time>2013-11-20T11:57:44Z</time>
<speed>0.020000</speed>
<extensions>
<speed>0.0</speed>
<temp>0.00</temp>
<bpm>0</bpm>
<rpm>0.00</rpm>
</extensions>
</trkpt>
<trkpt lat="30.880235672" lon="34.792766571">
<ele>482.406250</ele>
<time>2013-11-20T11:57:49Z</time>
<speed>0.050000</speed>
<extensions>
<speed>0.1</speed>
<temp>0.00</temp>
<bpm>0</bpm>
<rpm>0.00</rpm>
</extensions>
</trkpt>
<trkpt lat="30.880235672" lon="34.792766571">
<ele>482.445313</ele>
<time>2013-11-20T11:57:54Z</time>
<extensions>
<speed>0.0</speed>
<temp>0.00</temp>
<bpm>0</bpm>
<rpm>0.00</rpm>
</extensions>
</trkpt>
<trkpt lat="30.880235672" lon="34.792766571">
<ele>482.460938</ele>
<time>2013-11-20T11:57:59Z</time>
<speed>0.020000</speed>
<extensions>
<speed>0.0</speed>
<temp>0.00</temp>
<bpm>0</bpm>
<rpm>0.00</rpm>
</extensions>
</trkpt>
<trkpt lat="30.880235672" lon="34.792766571">
<ele>482.460938</ele>
<time>2013-11-20T11:58:04Z</time>
<speed>0.010000</speed>
<extensions>
<speed>0.0</speed>
<temp>0.00</temp>
<bpm>0</bpm>
<rpm>0.00</rpm>
</extensions>
</trkpt>
<trkpt lat="30.880235672" lon="34.792766571">
<ele>482.453125</ele>
<time>2013-11-20T11:58:09Z</time>
<speed>0.010000</speed>
<extensions>
<speed>0.0</speed>
<temp>0.00</temp>
<bpm>0</bpm>
<rpm>0.00</rpm>
</extensions>
</trkpt>
<trkpt lat="30.880235672" lon="34.792766571">
<ele>482.453125</ele>
<time>2013-11-20T11:58:14Z</time>
<speed>0.030000</speed>
<extensions>
<speed>0.0</speed>
<temp>0.00</temp>
<bpm>0</bpm>
<rpm>0.00</rpm>
</extensions>
</trkpt>
<trkpt lat="30.880235672" lon="34.792766571">
<ele>482.429688</ele>
<time>2013-11-20T11:58:19Z</time>
<speed>0.010000</speed>
<extensions>
<speed>0.0</speed>
<temp>0.00</temp>
<bpm>0</bpm>
<rpm>0.00</rpm>
</extensions>
</trkpt>
<trkpt lat="30.880249023" lon="34.792743683">
<ele>482.250000</ele>
<time>2013-11-20T11:58:24Z</time>
<speed>1.450000</speed>
<extensions>
<speed>1.4</speed>
<temp>0.00</temp>
<bpm>0</bpm>
<rpm>0.00</rpm>
</extensions>
</trkpt>
<trkpt lat="30.880254745" lon="34.792575836">
<ele>480.679688</ele>
<time>2013-11-20T11:58:29Z</time>
<speed>4.200000</speed>
<extensions>
<speed>4.2</speed>
<temp>0.00</temp>
<bpm>0</bpm>
<rpm>0.00</rpm>
</extensions>
</trkpt>
<trkpt lat="30.880119324" lon="34.792377472">
<ele>478.164063</ele>
<time>2013-11-20T11:58:34Z</time>
<speed>5.230000</speed>
<extensions>
<speed>5.2</speed>
<temp>0.00</temp>
<bpm>0</bpm>
<rpm>0.00</rpm>
</extensions>
</trkpt>
<trkpt lat="30.879924774" lon="34.792213440">
<ele>475.000000</ele>
<time>2013-11-20T11:58:39Z</time>
<speed>5.130000</speed>
<extensions>
<speed>5.1</speed>
<temp>0.00</temp>
<bpm>0</bpm>
<rpm>0.00</rpm>
</extensions>
</trkpt>
<trkpt lat="30.879722595" lon="34.792053223">
<ele>473.789063</ele>
<time>2013-11-20T11:58:44Z</time>
<speed>5.670000</speed>
<extensions>
<speed>5.7</speed>
<temp>0.00</temp>
<bpm>0</bpm>
<rpm>0.00</rpm>
</extensions>
</trkpt>
<trkpt lat="30.879516602" lon="34.791866302">
<ele>473.304688</ele>
<time>2013-11-20T11:58:49Z</time>
<speed>5.830000</speed>
<extensions>
<speed>5.8</speed>
<temp>0.00</temp>
<bpm>0</bpm>
<rpm>0.00</rpm>
</extensions>
</trkpt>
<trkpt lat="30.879323959" lon="34.791675568">
<ele>470.968750</ele>
<time>2013-11-20T11:58:54Z</time>
<speed>5.110000</speed>
<extensions>
<speed>5.1</speed>
<temp>0.00</temp>
<bpm>0</bpm>
<rpm>0.00</rpm>
</extensions>
</trkpt>
<trkpt lat="30.879138947" lon="34.791484833">
<ele>471.445313</ele>
<time>2013-11-20T11:58:59Z</time>
<speed>5.610000</speed>
<extensions>
<speed>5.6</speed>
<temp>0.00</temp>
<bpm>0</bpm>
<rpm>0.00</rpm>
</extensions>
</trkpt>
<trkpt lat="30.878950119" lon="34.791271210">
<ele>469.742188</ele>
<time>2013-11-20T11:59:04Z</time>
<speed>5.630000</speed>
<extensions>
<speed>5.6</speed>
<temp>0.00</temp>
<bpm>0</bpm>
<rpm>0.00</rpm>
</extensions>
</trkpt>
<trkpt lat="30.878755569" lon="34.791095734">
<ele>471.320313</ele>
<time>2013-11-20T11:59:09Z</time>
<speed>5.120000</speed>
<extensions>
<speed>5.1</speed>
<temp>0.00</temp>
<bpm>0</bpm>
<rpm>0.00</rpm>
</extensions>
</trkpt>
<trkpt lat="30.878589630" lon="34.790924072">
<ele>471.585938</ele>
<time>2013-11-20T11:59:14Z</time>
<speed>5.020000</speed>
<extensions>
<speed>5.0</speed>
<temp>0.00</temp>
<bpm>0</bpm>
<rpm>0.00</rpm>
</extensions>
</trkpt>
<trkpt lat="30.878406525" lon="34.790752411">
<ele>470.242188</ele>
<time>2013-11-20T11:59:19Z</time>
<speed>4.960000</speed>
<extensions>
<speed>5.0</speed>
<temp>0.00</temp>
<bpm>0</bpm>
<rpm>0.00</rpm>
</extensions>
</trkpt>
<trkpt lat="30.878250122" lon="34.790573120">
<ele>469.570313</ele>
<time>2013-11-20T11:59:24Z</time>
<speed>4.950000</speed>
<extensions>
<speed>4.9</speed>
<temp>0.00</temp>
<bpm>0</bpm>
<rpm>0.00</rpm>
</extensions>
</trkpt>
<trkpt lat="30.878095627" lon="34.790401459">
<ele>467.976563</ele>
<time>2013-11-20T11:59:29Z</time>
<speed>4.650000</speed>
<extensions>
<speed>4.6</speed>
<temp>0.00</temp>
<bpm>0</bpm>
<rpm>0.00</rpm>
</extensions>
</trkpt>
<trkpt lat="30.877956390" lon="34.790252686">
<ele>469.046875</ele>
<time>2013-11-20T11:59:34Z</time>
<speed>4.430000</speed>
<extensions>
<speed>4.4</speed>
<temp>0.00</temp>
<bpm>0</bpm>
<rpm>0.00</rpm>
</extensions>
</trkpt>
<trkpt lat="30.877801895" lon="34.790096283">
<ele>466.546875</ele>
<time>2013-11-20T11:59:39Z</time>
<speed>4.580000</speed>
<extensions>
<speed>4.6</speed>
<temp>0.00</temp>
<bpm>0</bpm>
<rpm>0.00</rpm>
</extensions>
</trkpt>
<trkpt lat="30.877649307" lon="34.789943695">
<ele>466.507813</ele>
<time>2013-11-20T11:59:44Z</time>
<speed>4.510000</speed>
<extensions>
<speed>4.5</speed>
<temp>0.00</temp>
<bpm>0</bpm>
<rpm>0.00</rpm>
</extensions>
</trkpt>
<trkpt lat="30.877504349" lon="34.789794922">
<ele>467.671875</ele>
<time>2013-11-20T11:59:49Z</time>
<speed>4.230000</speed>
<extensions>
<speed>4.2</speed>
<temp>0.00</temp>
<bpm>0</bpm>
<rpm>0.00</rpm>
</extensions>
</trkpt>
<trkpt lat="30.877372742" lon="34.789653778">
<ele>468.882813</ele>
<time>2013-11-20T11:59:54Z</time>
<speed>4.100000</speed>
<extensions>
<speed>4.1</speed>
<temp>0.00</temp>
<bpm>0</bpm>
<rpm>0.00</rpm>
</extensions>
</trkpt>
<trkpt lat="30.877239227" lon="34.789497375">
<ele>468.148438</ele>
<time>2013-11-20T11:59:59Z</time>
<speed>4.260000</speed>
<extensions>
<speed>4.3</speed>
<temp>0.00</temp>
<bpm>0</bpm>
<rpm>0.00</rpm>
</extensions>
</trkpt>
<trkpt lat="30.877109528" lon="34.789333344">
<ele>466.757813</ele>
<time>2013-11-20T12:00:04Z</time>
<speed>4.360000</speed>
<extensions>
<speed>4.4</speed>
<temp>0.00</temp>
<bpm>0</bpm>
<rpm>0.00</rpm>
</extensions>
</trkpt>
<trkpt lat="30.876974106" lon="34.789138794">
<ele>465.070313</ele>
<time>2013-11-20T12:00:09Z</time>
<speed>5.130000</speed>
<extensions>
<speed>5.1</speed>
<temp>0.00</temp>
<bpm>0</bpm>
<rpm>0.00</rpm>
</extensions>
</trkpt>
<trkpt lat="30.876823425" lon="34.788932800">
<ele>465.539063</ele>
<time>2013-11-20T12:00:14Z</time>
<speed>4.960000</speed>
<extensions>
<speed>5.0</speed>
<temp>0.00</temp>
<bpm>0</bpm>
<rpm>0.00</rpm>
</extensions>
</trkpt>
<trkpt lat="30.876686096" lon="34.788730621">
<ele>467.203125</ele>
<time>2013-11-20T12:00:19Z</time>
<speed>5.360000</speed>
<extensions>
<speed>5.4</speed>
<temp>0.00</temp>
<bpm>0</bpm>
<rpm>0.00</rpm>
</extensions>
</trkpt>
<trkpt lat="30.876541138" lon="34.788505554">
<ele>467.828125</ele>
<time>2013-11-20T12:00:24Z</time>
<speed>5.150000</speed>
<extensions>
<speed>5.2</speed>
<temp>0.00</temp>
<bpm>0</bpm>
<rpm>0.00</rpm>
</extensions>
</trkpt>
<trkpt lat="30.876396179" lon="34.788288116">
<ele>467.687500</ele>
<time>2013-11-20T12:00:29Z</time>
<speed>5.120000</speed>
<extensions>
<speed>5.1</speed>
<temp>0.00</temp>
<bpm>0</bpm>
<rpm>0.00</rpm>
</extensions>
</trkpt>
<trkpt lat="30.876249313" lon="34.788078308">
<ele>467.078125</ele>
<time>2013-11-20T12:00:34Z</time>
<speed>5.020000</speed>
<extensions>
<speed>5.0</speed>
<temp>0.00</temp>
<bpm>0</bpm>
<rpm>0.00</rpm>
</extensions>
</trkpt>
<trkpt lat="30.876110077" lon="34.787868500">
<ele>466.656250</ele>
<time>2013-11-20T12:00:39Z</time>
<speed>4.960000</speed>
<extensions>
<speed>5.0</speed>
<temp>0.00</temp>
<bpm>0</bpm>
<rpm>0.00</rpm>
</extensions>
</trkpt>
<trkpt lat="30.875986099" lon="34.787658691">
<ele>467.554688</ele>
<time>2013-11-20T12:00:44Z</time>
<speed>4.530000</speed>
<extensions>
<speed>4.5</speed>
<temp>0.00</temp>
<bpm>0</bpm>
<rpm>0.00</rpm>
</extensions>
</trkpt>
<trkpt lat="30.875865936" lon="34.787464142">
<ele>467.757813</ele>
<time>2013-11-20T12:00:49Z</time>
<speed>4.470000</speed>
<extensions>
<speed>4.5</speed>
<temp>0.00</temp>
<bpm>0</bpm>
<rpm>0.00</rpm>
</extensions>
</trkpt>
<trkpt lat="30.875747681" lon="34.787258148">
<ele>467.382813</ele>
<time>2013-11-20T12:00:54Z</time>
<speed>4.920000</speed>
<extensions>
<speed>4.9</speed>
<temp>0.00</temp>
<bpm>0</bpm>
<rpm>0.00</rpm>
</extensions>
</trkpt>
<trkpt lat="30.875625610" lon="34.787063599">
<ele>467.375000</ele>
<time>2013-11-20T12:00:59Z</time>
<speed>4.340000</speed>
<extensions>
<speed>4.3</speed>
<temp>0.00</temp>
<bpm>0</bpm>
<rpm>0.00</rpm>
</extensions>
</trkpt>
<trkpt lat="30.875520706" lon="34.786888123">
<ele>467.203125</ele>
<time>2013-11-20T12:01:04Z</time>
<speed>3.790000</speed>
<extensions>
<speed>3.8</speed>
<temp>0.00</temp>
<bpm>0</bpm>
<rpm>0.00</rpm>
</extensions>
</trkpt>
<trkpt lat="30.875429153" lon="34.786746979">
<ele>465.320313</ele>
<time>2013-11-20T12:01:09Z</time>
<speed>3.150000</speed>
<extensions>
<speed>3.2</speed>
<temp>0.00</temp>
<bpm>0</bpm>
<rpm>0.00</rpm>
</extensions>
</trkpt>
<trkpt lat="30.875341415" lon="34.786560059">
<ele>465.312500</ele>
<time>2013-11-20T12:01:14Z</time>
<speed>4.810000</speed>
<extensions>
<speed>4.8</speed>
<temp>0.00</temp>
<bpm>0</bpm>
<rpm>0.00</rpm>
</extensions>
</trkpt>
<trkpt lat="30.875217438" lon="34.786380768">
<ele>466.812500</ele>
<time>2013-11-20T12:01:19Z</time>
<speed>3.920000</speed>
<extensions>
<speed>3.9</speed>
<temp>0.00</temp>
<bpm>0</bpm>
<rpm>0.00</rpm>
</extensions>
</trkpt>
<trkpt lat="30.875106812" lon="34.786220551">
<ele>467.671875</ele>
<time>2013-11-20T12:01:24Z</time>
<speed>3.250000</speed>
<extensions>
<speed>3.2</speed>
<temp>0.00</temp>
<bpm>0</bpm>
<rpm>0.00</rpm>
</extensions>
</trkpt>
<trkpt lat="30.874988556" lon="34.786087036">
<ele>466.468750</ele>
<time>2013-11-20T12:01:29Z</time>
<speed>3.260000</speed>
<extensions>
<speed>3.3</speed>
<temp>0.00</temp>
<bpm>0</bpm>
<rpm>0.00</rpm>
</extensions>
</trkpt>
<trkpt lat="30.874881744" lon="34.785919189">
<ele>464.851563</ele>
<time>2013-11-20T12:01:34Z</time>
<speed>4.070000</speed>
<extensions>
<speed>4.1</speed>
<temp>0.00</temp>
<bpm>0</bpm>
<rpm>0.00</rpm>
</extensions>
</trkpt>
<trkpt lat="30.874761581" lon="34.785755157">
<ele>465.562500</ele>
<time>2013-11-20T12:01:39Z</time>
<speed>3.980000</speed>
<extensions>
<speed>4.0</speed>
<temp>0.00</temp>
<bpm>0</bpm>
<rpm>0.00</rpm>
</extensions>
</trkpt>
<trkpt lat="30.874710083" lon="34.785610199">
<ele>467.312500</ele>
<time>2013-11-20T12:01:44Z</time>
<speed>2.200000</speed>
<extensions>
<speed>2.2</speed>
<temp>0.00</temp>
<bpm>0</bpm>
<rpm>0.00</rpm>
</extensions>
</trkpt>
<trkpt lat="30.874748230" lon="34.785503387">
<ele>467.828125</ele>
<time>2013-11-20T12:01:49Z</time>
<speed>2.900000</speed>
<extensions>
<speed>2.9</speed>
<temp>0.00</temp>
<bpm>0</bpm>
<rpm>0.00</rpm>
</extensions>
</trkpt>
<trkpt lat="30.874635696" lon="34.785400391">
<ele>464.390625</ele>
<time>2013-11-20T12:01:54Z</time>
<speed>3.540000</speed>
<extensions>
<speed>3.5</speed>
<temp>0.00</temp>
<bpm>0</bpm>
<rpm>0.00</rpm>
</extensions>
</trkpt>
<trkpt lat="30.874526978" lon="34.785301208">
<ele>462.015625</ele>
<time>2013-11-20T12:01:59Z</time>
<speed>0.340000</speed>
<extensions>
<speed>0.3</speed>
<temp>0.00</temp>
<bpm>0</bpm>
<rpm>0.00</rpm>
</extensions>
</trkpt>
<trkpt lat="30.874525070" lon="34.785293579">
<ele>461.757813</ele>
<time>2013-11-20T12:02:04Z</time>
<speed>0.030000</speed>
<extensions>
<speed>0.0</speed>
<temp>0.00</temp>
<bpm>0</bpm>
<rpm>0.00</rpm>
</extensions>
</trkpt>
<trkpt lat="30.874526978" lon="34.785297394">
<ele>461.734375</ele>
<time>2013-11-20T12:02:09Z</time>
<speed>0.090000</speed>
<extensions>
<speed>0.1</speed>
<temp>0.00</temp>
<bpm>0</bpm>
<rpm>0.00</rpm>
</extensions>
</trkpt>
<trkpt lat="30.874525070" lon="34.785293579">
<ele>461.765625</ele>
<time>2013-11-20T12:02:14Z</time>
<speed>0.040000</speed>
<extensions>
<speed>0.0</speed>
<temp>0.00</temp>
<bpm>0</bpm>
<rpm>0.00</rpm>
</extensions>
</trkpt>
<trkpt lat="30.874526978" lon="34.785293579">
<ele>461.796875</ele>
<time>2013-11-20T12:02:19Z</time>
<speed>0.090000</speed>
<extensions>
<speed>0.1</speed>
<temp>0.00</temp>
<bpm>0</bpm>
<rpm>0.00</rpm>
</extensions>
</trkpt>
<trkpt lat="30.874523163" lon="34.785293579">
<ele>461.828125</ele>
<time>2013-11-20T12:02:24Z</time>
<speed>0.080000</speed>
<extensions>
<speed>0.1</speed>
<temp>0.00</temp>
<bpm>0</bpm>
<rpm>0.00</rpm>
</extensions>
</trkpt>
<trkpt lat="30.874521255" lon="34.785293579">
<ele>461.843750</ele>
<time>2013-11-20T12:02:29Z</time>
<speed>0.100000</speed>
<extensions>
<speed>0.1</speed>
<temp>0.00</temp>
<bpm>0</bpm>
<rpm>0.00</rpm>
</extensions>
</trkpt>
<trkpt lat="30.874517441" lon="34.785289764">
<ele>461.859375</ele>
<time>2013-11-20T12:02:34Z</time>
<speed>0.110000</speed>
<extensions>
<speed>0.1</speed>
<temp>0.00</temp>
<bpm>0</bpm>
<rpm>0.00</rpm>
</extensions>
</trkpt>
<trkpt lat="30.874513626" lon="34.785293579">
<ele>461.867188</ele>
<time>2013-11-20T12:02:39Z</time>
<speed>0.070000</speed>
<extensions>
<speed>0.1</speed>
<temp>0.00</temp>
<bpm>0</bpm>
<rpm>0.00</rpm>
</extensions>
</trkpt>
<trkpt lat="30.874511719" lon="34.785289764">
<ele>461.882813</ele>
<time>2013-11-20T12:02:44Z</time>
<speed>0.080000</speed>
<extensions>
<speed>0.1</speed>
<temp>0.00</temp>
<bpm>0</bpm>
<rpm>0.00</rpm>
</extensions>
</trkpt>
<trkpt lat="30.874513626" lon="34.785289764">
<ele>461.929688</ele>
<time>2013-11-20T12:02:49Z</time>
<speed>0.050000</speed>
<extensions>
<speed>0.1</speed>
<temp>0.00</temp>
<bpm>0</bpm>
<rpm>0.00</rpm>
</extensions>
</trkpt>
<trkpt lat="30.874513626" lon="34.785289764">
<ele>461.945313</ele>
<time>2013-11-20T12:02:54Z</time>
<speed>0.020000</speed>
<extensions>
<speed>0.0</speed>
<temp>0.00</temp>
<bpm>0</bpm>
<rpm>0.00</rpm>
</extensions>
</trkpt>
<trkpt lat="30.874513626" lon="34.785289764">
<ele>461.968750</ele>
<time>2013-11-20T12:02:59Z</time>
<speed>0.020000</speed>
<extensions>
<speed>0.0</speed>
<temp>0.00</temp>
<bpm>0</bpm>
<rpm>0.00</rpm>
</extensions>
</trkpt>
<trkpt lat="30.874513626" lon="34.785289764">
<ele>461.992188</ele>
<time>2013-11-20T12:03:04Z</time>
<speed>0.040000</speed>
<extensions>
<speed>0.0</speed>
<temp>0.00</temp>
<bpm>0</bpm>
<rpm>0.00</rpm>
</extensions>
</trkpt>
<trkpt lat="30.874515533" lon="34.785293579">
<ele>462.007813</ele>
<time>2013-11-20T12:03:09Z</time>
<speed>0.020000</speed>
<extensions>
<speed>0.0</speed>
<temp>0.00</temp>
<bpm>0</bpm>
<rpm>0.00</rpm>
</extensions>
</trkpt>
<trkpt lat="30.874515533" lon="34.785293579">
<ele>462.023438</ele>
<time>2013-11-20T12:03:14Z</time>
<extensions>
<speed>0.0</speed>
<temp>0.00</temp>
<bpm>0</bpm>
<rpm>0.00</rpm>
</extensions>
</trkpt>
<trkpt lat="30.874515533" lon="34.785293579">
<ele>462.046875</ele>
<time>2013-11-20T12:03:19Z</time>
<speed>0.010000</speed>
<extensions>
<speed>0.0</speed>
<temp>0.00</temp>
<bpm>0</bpm>
<rpm>0.00</rpm>
</extensions>
</trkpt>
<trkpt lat="30.874515533" lon="34.785293579">
<ele>462.062500</ele>
<time>2013-11-20T12:03:24Z</time>
<speed>0.010000</speed>
<extensions>
<speed>0.0</speed>
<temp>0.00</temp>
<bpm>0</bpm>
<rpm>0.00</rpm>
</extensions>
</trkpt>
<trkpt lat="30.874515533" lon="34.785293579">
<ele>462.054688</ele>
<time>2013-11-20T12:03:29Z</time>
<speed>0.010000</speed>
<extensions>
<speed>0.0</speed>
<temp>0.00</temp>
<bpm>0</bpm>
<rpm>0.00</rpm>
</extensions>
</trkpt>
<trkpt lat="30.874515533" lon="34.785293579">
<ele>462.054688</ele>
<time>2013-11-20T12:03:34Z</time>
<speed>0.010000</speed>
<extensions>
<speed>0.0</speed>
<temp>0.00</temp>
<bpm>0</bpm>
<rpm>0.00</rpm>
</extensions>
</trkpt>
<trkpt lat="30.874515533" lon="34.785293579">
<ele>462.054688</ele>
<time>2013-11-20T12:03:39Z</time>
<speed>0.010000</speed>
<extensions>
<speed>0.0</speed>
<temp>0.00</temp>
<bpm>0</bpm>
<rpm>0.00</rpm>
</extensions>
</trkpt>
<trkpt lat="30.874515533" lon="34.785293579">
<ele>462.046875</ele>
<time>2013-11-20T12:03:44Z</time>
<speed>0.010000</speed>
<extensions>
<speed>0.0</speed>
<temp>0.00</temp>
<bpm>0</bpm>
<rpm>0.00</rpm>
</extensions>
</trkpt>
<trkpt lat="30.874515533" lon="34.785289764">
<ele>462.039063</ele>
<time>2013-11-20T12:03:49Z</time>
<speed>0.010000</speed>
<extensions>
<speed>0.0</speed>
<temp>0.00</temp>
<bpm>0</bpm>
<rpm>0.00</rpm>
</extensions>
</trkpt>
<trkpt lat="30.874515533" lon="34.785289764">
<ele>462.015625</ele>
<time>2013-11-20T12:03:54Z</time>
<speed>0.020000</speed>
<extensions>
<speed>0.0</speed>
<temp>0.00</temp>
<bpm>0</bpm>
<rpm>0.00</rpm>
</extensions>
</trkpt>
<trkpt lat="30.874515533" lon="34.785289764">
<ele>462.015625</ele>
<time>2013-11-20T12:03:59Z</time>
<extensions>
<speed>0.0</speed>
<temp>0.00</temp>
<bpm>0</bpm>
<rpm>0.00</rpm>
</extensions>
</trkpt>
<trkpt lat="30.874515533" lon="34.785289764">
<ele>462.000000</ele>
<time>2013-11-20T12:04:04Z</time>
<speed>0.020000</speed>
<extensions>
<speed>0.0</speed>
<temp>0.00</temp>
<bpm>0</bpm>
<rpm>0.00</rpm>
</extensions>
</trkpt>
<trkpt lat="30.874515533" lon="34.785289764">
<ele>462.000000</ele>
<time>2013-11-20T12:04:09Z</time>
<speed>0.010000</speed>
<extensions>
<speed>0.0</speed>
<temp>0.00</temp>
<bpm>0</bpm>
<rpm>0.00</rpm>
</extensions>
</trkpt>
<trkpt lat="30.874515533" lon="34.785293579">
<ele>462.015625</ele>
<time>2013-11-20T12:04:14Z</time>
<extensions>
<speed>0.0</speed>
<temp>0.00</temp>
<bpm>0</bpm>
<rpm>0.00</rpm>
</extensions>
</trkpt>
<trkpt lat="30.874515533" lon="34.785293579">
<ele>462.031250</ele>
<time>2013-11-20T12:04:19Z</time>
<speed>0.020000</speed>
<extensions>
<speed>0.0</speed>
<temp>0.00</temp>
<bpm>0</bpm>
<rpm>0.00</rpm>
</extensions>
</trkpt>
<trkpt lat="30.874515533" lon="34.785289764">
<ele>462.039063</ele>
<time>2013-11-20T12:04:24Z</time>
<speed>0.030000</speed>
<extensions>
<speed>0.0</speed>
<temp>0.00</temp>
<bpm>0</bpm>
<rpm>0.00</rpm>
</extensions>
</trkpt>
<trkpt lat="30.874515533" lon="34.785289764">
<ele>462.031250</ele>
<time>2013-11-20T12:04:29Z</time>
<extensions>
<speed>0.0</speed>
<temp>0.00</temp>
<bpm>0</bpm>
<rpm>0.00</rpm>
</extensions>
</trkpt>
<trkpt lat="30.874515533" lon="34.785289764">
<ele>462.039063</ele>
<time>2013-11-20T12:04:34Z</time>
<extensions>
<speed>0.0</speed>
<temp>0.00</temp>
<bpm>0</bpm>
<rpm>0.00</rpm>
</extensions>
</trkpt>
<trkpt lat="30.874515533" lon="34.785289764">
<ele>462.062500</ele>
<time>2013-11-20T12:04:39Z</time>
<speed>0.030000</speed>
<extensions>
<speed>0.0</speed>
<temp>0.00</temp>
<bpm>0</bpm>
<rpm>0.00</rpm>
</extensions>
</trkpt>
<trkpt lat="30.874515533" lon="34.785289764">
<ele>462.085938</ele>
<time>2013-11-20T12:04:44Z</time>
<speed>0.020000</speed>
<extensions>
<speed>0.0</speed>
<temp>0.00</temp>
<bpm>0</bpm>
<rpm>0.00</rpm>
</extensions>
</trkpt>
<trkpt lat="30.874515533" lon="34.785289764">
<ele>462.093750</ele>
<time>2013-11-20T12:04:49Z</time>
<extensions>
<speed>0.0</speed>
<temp>0.00</temp>
<bpm>0</bpm>
<rpm>0.00</rpm>
</extensions>
</trkpt>
<trkpt lat="30.874515533" lon="34.785289764">
<ele>462.109375</ele>
<time>2013-11-20T12:04:54Z</time>
<speed>0.010000</speed>
<extensions>
<speed>0.0</speed>
<temp>0.00</temp>
<bpm>0</bpm>
<rpm>0.00</rpm>
</extensions>
</trkpt>
<trkpt lat="30.874515533" lon="34.785289764">
<ele>462.109375</ele>
<time>2013-11-20T12:04:59Z</time>
<speed>0.020000</speed>
<extensions>
<speed>0.0</speed>
<temp>0.00</temp>
<bpm>0</bpm>
<rpm>0.00</rpm>
</extensions>
</trkpt>
<trkpt lat="30.874515533" lon="34.785289764">
<ele>462.117188</ele>
<time>2013-11-20T12:05:04Z</time>
<extensions>
<speed>0.0</speed>
<temp>0.00</temp>
<bpm>0</bpm>
<rpm>0.00</rpm>
</extensions>
</trkpt>
<trkpt lat="30.874515533" lon="34.785289764">
<ele>462.117188</ele>
<time>2013-11-20T12:05:09Z</time>
<speed>0.010000</speed>
<extensions>
<speed>0.0</speed>
<temp>0.00</temp>
<bpm>0</bpm>
<rpm>0.00</rpm>
</extensions>
</trkpt>
<trkpt lat="30.874515533" lon="34.785289764">
<ele>462.101563</ele>
<time>2013-11-20T12:05:14Z</time>
<speed>0.010000</speed>
<extensions>
<speed>0.0</speed>
<temp>0.00</temp>
<bpm>0</bpm>
<rpm>0.00</rpm>
</extensions>
</trkpt>
<trkpt lat="30.874513626" lon="34.785289764">
<ele>462.093750</ele>
<time>2013-11-20T12:05:19Z</time>
<speed>0.020000</speed>
<extensions>
<speed>0.0</speed>
<temp>0.00</temp>
<bpm>0</bpm>
<rpm>0.00</rpm>
</extensions>
</trkpt>
<trkpt lat="30.874513626" lon="34.785289764">
<ele>462.070313</ele>
<time>2013-11-20T12:05:24Z</time>
<extensions>
<speed>0.0</speed>
<temp>0.00</temp>
<bpm>0</bpm>
<rpm>0.00</rpm>
</extensions>
</trkpt>
<trkpt lat="30.874513626" lon="34.785289764">
<ele>462.054688</ele>
<time>2013-11-20T12:05:29Z</time>
<speed>0.040000</speed>
<extensions>
<speed>0.0</speed>
<temp>0.00</temp>
<bpm>0</bpm>
<rpm>0.00</rpm>
</extensions>
</trkpt>
<trkpt lat="30.874513626" lon="34.785289764">
<ele>462.054688</ele>
<time>2013-11-20T12:05:34Z</time>
<extensions>
<speed>0.0</speed>
<temp>0.00</temp>
<bpm>0</bpm>
<rpm>0.00</rpm>
</extensions>
</trkpt>
<trkpt lat="30.874513626" lon="34.785289764">
<ele>462.062500</ele>
<time>2013-11-20T12:05:39Z</time>
<speed>0.010000</speed>
<extensions>
<speed>0.0</speed>
<temp>0.00</temp>
<bpm>0</bpm>
<rpm>0.00</rpm>
</extensions>
</trkpt>
<trkpt lat="30.874513626" lon="34.785289764">
<ele>462.070313</ele>
<time>2013-11-20T12:05:44Z</time>
<speed>0.010000</speed>
<extensions>
<speed>0.0</speed>
<temp>0.00</temp>
<bpm>0</bpm>
<rpm>0.00</rpm>
</extensions>
</trkpt>
<trkpt lat="30.874513626" lon="34.785289764">
<ele>462.085938</ele>
<time>2013-11-20T12:05:49Z</time>
<extensions>
<speed>0.0</speed>
<temp>0.00</temp>
<bpm>0</bpm>
<rpm>0.00</rpm>
</extensions>
</trkpt>
<trkpt lat="30.874513626" lon="34.785289764">
<ele>462.093750</ele>
<time>2013-11-20T12:05:54Z</time>
<speed>0.010000</speed>
<extensions>
<speed>0.0</speed>
<temp>0.00</temp>
<bpm>0</bpm>
<rpm>0.00</rpm>
</extensions>
</trkpt>
<trkpt lat="30.874513626" lon="34.785289764">
<ele>462.101563</ele>
<time>2013-11-20T12:05:59Z</time>
<extensions>
<speed>0.0</speed>
<temp>0.00</temp>
<bpm>0</bpm>
<rpm>0.00</rpm>
</extensions>
</trkpt>
<trkpt lat="30.874513626" lon="34.785289764">
<ele>462.109375</ele>
<time>2013-11-20T12:06:04Z</time>
<speed>0.010000</speed>
<extensions>
<speed>0.0</speed>
<temp>0.00</temp>
<bpm>0</bpm>
<rpm>0.00</rpm>
</extensions>
</trkpt>
<trkpt lat="30.874513626" lon="34.785289764">
<ele>462.117188</ele>
<time>2013-11-20T12:06:09Z</time>
<speed>0.020000</speed>
<extensions>
<speed>0.0</speed>
<temp>0.00</temp>
<bpm>0</bpm>
<rpm>0.00</rpm>
</extensions>
</trkpt>
<trkpt lat="30.874513626" lon="34.785289764">
<ele>462.140625</ele>
<time>2013-11-20T12:06:14Z</time>
<speed>0.020000</speed>
<extensions>
<speed>0.0</speed>
<temp>0.00</temp>
<bpm>0</bpm>
<rpm>0.00</rpm>
</extensions>
</trkpt>
<trkpt lat="30.874513626" lon="34.785289764">
<ele>462.140625</ele>
<time>2013-11-20T12:06:19Z</time>
<speed>0.010000</speed>
<extensions>
<speed>0.0</speed>
<temp>0.00</temp>
<bpm>0</bpm>
<rpm>0.00</rpm>
</extensions>
</trkpt>
<trkpt lat="30.874513626" lon="34.785289764">
<ele>462.148438</ele>
<time>2013-11-20T12:06:24Z</time>
<speed>0.020000</speed>
<extensions>
<speed>0.0</speed>
<temp>0.00</temp>
<bpm>0</bpm>
<rpm>0.00</rpm>
</extensions>
</trkpt>
<trkpt lat="30.874513626" lon="34.785289764">
<ele>462.164063</ele>
<time>2013-11-20T12:06:29Z</time>
<speed>0.010000</speed>
<extensions>
<speed>0.0</speed>
<temp>0.00</temp>
<bpm>0</bpm>
<rpm>0.00</rpm>
</extensions>
</trkpt>
<trkpt lat="30.874515533" lon="34.785289764">
<ele>462.218750</ele>
<time>2013-11-20T12:06:34Z</time>
<speed>0.020000</speed>
<extensions>
<speed>0.0</speed>
<temp>0.00</temp>
<bpm>0</bpm>
<rpm>0.00</rpm>
</extensions>
</trkpt>
<trkpt lat="30.874515533" lon="34.785289764">
<ele>462.250000</ele>
<time>2013-11-20T12:06:39Z</time>
<speed>0.020000</speed>
<extensions>
<speed>0.0</speed>
<temp>0.00</temp>
<bpm>0</bpm>
<rpm>0.00</rpm>
</extensions>
</trkpt>
<trkpt lat="30.874515533" lon="34.785289764">
<ele>462.281250</ele>
<time>2013-11-20T12:06:44Z</time>
<extensions>
<speed>0.0</speed>
<temp>0.00</temp>
<bpm>0</bpm>
<rpm>0.00</rpm>
</extensions>
</trkpt>
<trkpt lat="30.874515533" lon="34.785289764">
<ele>462.273438</ele>
<time>2013-11-20T12:06:49Z</time>
<extensions>
<speed>0.0</speed>
<temp>0.00</temp>
<bpm>0</bpm>
<rpm>0.00</rpm>
</extensions>
</trkpt>
<trkpt lat="30.874515533" lon="34.785289764">
<ele>462.289063</ele>
<time>2013-11-20T12:06:54Z</time>
<speed>0.010000</speed>
<extensions>
<speed>0.0</speed>
<temp>0.00</temp>
<bpm>0</bpm>
<rpm>0.00</rpm>
</extensions>
</trkpt>
<trkpt lat="30.874515533" lon="34.785289764">
<ele>462.296875</ele>
<time>2013-11-20T12:06:59Z</time>
<speed>0.010000</speed>
<extensions>
<speed>0.0</speed>
<temp>0.00</temp>
<bpm>0</bpm>
<rpm>0.00</rpm>
</extensions>
</trkpt>
<trkpt lat="30.874515533" lon="34.785289764">
<ele>462.312500</ele>
<time>2013-11-20T12:07:04Z</time>
<extensions>
<speed>0.0</speed>
<temp>0.00</temp>
<bpm>0</bpm>
<rpm>0.00</rpm>
</extensions>
</trkpt>
<trkpt lat="30.874515533" lon="34.785289764">
<ele>462.328125</ele>
<time>2013-11-20T12:07:09Z</time>
<extensions>
<speed>0.0</speed>
<temp>0.00</temp>
<bpm>0</bpm>
<rpm>0.00</rpm>
</extensions>
</trkpt>
<trkpt lat="30.874515533" lon="34.785289764">
<ele>462.335938</ele>
<time>2013-11-20T12:07:14Z</time>
<speed>0.010000</speed>
<extensions>
<speed>0.0</speed>
<temp>0.00</temp>
<bpm>0</bpm>
<rpm>0.00</rpm>
</extensions>
</trkpt>
<trkpt lat="30.874515533" lon="34.785289764">
<ele>462.328125</ele>
<time>2013-11-20T12:07:19Z</time>
<speed>0.010000</speed>
<extensions>
<speed>0.0</speed>
<temp>0.00</temp>
<bpm>0</bpm>
<rpm>0.00</rpm>
</extensions>
</trkpt>
<trkpt lat="30.874515533" lon="34.785289764">
<ele>462.343750</ele>
<time>2013-11-20T12:07:24Z</time>
<speed>0.020000</speed>
<extensions>
<speed>0.0</speed>
<temp>0.00</temp>
<bpm>0</bpm>
<rpm>0.00</rpm>
</extensions>
</trkpt>
<trkpt lat="30.874515533" lon="34.785289764">
<ele>462.367188</ele>
<time>2013-11-20T12:07:29Z</time>
<extensions>
<speed>0.0</speed>
<temp>0.00</temp>
<bpm>0</bpm>
<rpm>0.00</rpm>
</extensions>
</trkpt>
<trkpt lat="30.874515533" lon="34.785289764">
<ele>462.406250</ele>
<time>2013-11-20T12:07:34Z</time>
<speed>0.010000</speed>
<extensions>
<speed>0.0</speed>
<temp>0.00</temp>
<bpm>0</bpm>
<rpm>0.00</rpm>
</extensions>
</trkpt>
<trkpt lat="30.874515533" lon="34.785289764">
<ele>462.398438</ele>
<time>2013-11-20T12:07:39Z</time>
<speed>0.010000</speed>
<extensions>
<speed>0.0</speed>
<temp>0.00</temp>
<bpm>0</bpm>
<rpm>0.00</rpm>
</extensions>
</trkpt>
<trkpt lat="30.874515533" lon="34.785289764">
<ele>462.406250</ele>
<time>2013-11-20T12:07:44Z</time>
<speed>0.010000</speed>
<extensions>
<speed>0.0</speed>
<temp>0.00</temp>
<bpm>0</bpm>
<rpm>0.00</rpm>
</extensions>
</trkpt>
<trkpt lat="30.874515533" lon="34.785289764">
<ele>462.406250</ele>
<time>2013-11-20T12:07:49Z</time>
<speed>0.020000</speed>
<extensions>
<speed>0.0</speed>
<temp>0.00</temp>
<bpm>0</bpm>
<rpm>0.00</rpm>
</extensions>
</trkpt>
<trkpt lat="30.874515533" lon="34.785289764">
<ele>462.421875</ele>
<time>2013-11-20T12:07:54Z</time>
<speed>0.010000</speed>
<extensions>
<speed>0.0</speed>
<temp>0.00</temp>
<bpm>0</bpm>
<rpm>0.00</rpm>
</extensions>
</trkpt>
<trkpt lat="30.874515533" lon="34.785293579">
<ele>462.429688</ele>
<time>2013-11-20T12:07:59Z</time>
<extensions>
<speed>0.0</speed>
<temp>0.00</temp>
<bpm>0</bpm>
<rpm>0.00</rpm>
</extensions>
</trkpt>
<trkpt lat="30.874515533" lon="34.785293579">
<ele>462.437500</ele>
<time>2013-11-20T12:08:04Z</time>
<speed>0.020000</speed>
<extensions>
<speed>0.0</speed>
<temp>0.00</temp>
<bpm>0</bpm>
<rpm>0.00</rpm>
</extensions>
</trkpt>
<trkpt lat="30.874515533" lon="34.785293579">
<ele>462.445313</ele>
<time>2013-11-20T12:08:09Z</time>
<speed>0.010000</speed>
<extensions>
<speed>0.0</speed>
<temp>0.00</temp>
<bpm>0</bpm>
<rpm>0.00</rpm>
</extensions>
</trkpt>
<trkpt lat="30.874515533" lon="34.785293579">
<ele>462.476563</ele>
<time>2013-11-20T12:08:14Z</time>
<extensions>
<speed>0.0</speed>
<temp>0.00</temp>
<bpm>0</bpm>
<rpm>0.00</rpm>
</extensions>
</trkpt>
<trkpt lat="30.874494553" lon="34.785266876">
<ele>462.414063</ele>
<time>2013-11-20T12:08:19Z</time>
<speed>2.100000</speed>
<extensions>
<speed>2.1</speed>
<temp>0.00</temp>
<bpm>0</bpm>
<rpm>0.00</rpm>
</extensions>
</trkpt>
<trkpt lat="30.874422073" lon="34.785179138">
<ele>462.156250</ele>
<time>2013-11-20T12:08:24Z</time>
<speed>2.480000</speed>
<extensions>
<speed>2.5</speed>
<temp>0.00</temp>
<bpm>0</bpm>
<rpm>0.00</rpm>
</extensions>
</trkpt>
<trkpt lat="30.874330521" lon="34.785133362">
<ele>462.007813</ele>
<time>2013-11-20T12:08:29Z</time>
<speed>1.650000</speed>
<extensions>
<speed>1.7</speed>
<temp>0.00</temp>
<bpm>0</bpm>
<rpm>0.00</rpm>
</extensions>
</trkpt>
<trkpt lat="30.874269485" lon="34.785064697">
<ele>462.750000</ele>
<time>2013-11-20T12:08:34Z</time>
<speed>1.910000</speed>
<extensions>
<speed>1.9</speed>
<temp>0.00</temp>
<bpm>0</bpm>
<rpm>0.00</rpm>
</extensions>
</trkpt>
<trkpt lat="30.874214172" lon="34.785003662">
<ele>463.335938</ele>
<time>2013-11-20T12:08:39Z</time>
<speed>1.520000</speed>
<extensions>
<speed>1.5</speed>
<temp>0.00</temp>
<bpm>0</bpm>
<rpm>0.00</rpm>
</extensions>
</trkpt>
<trkpt lat="30.874170303" lon="34.784950256">
<ele>467.039063</ele>
<time>2013-11-20T12:08:44Z</time>
<speed>1.780000</speed>
<extensions>
<speed>1.8</speed>
<temp>0.00</temp>
<bpm>0</bpm>
<rpm>0.00</rpm>
</extensions>
</trkpt>
<trkpt lat="30.874120712" lon="34.784870148">
<ele>468.976563</ele>
<time>2013-11-20T12:08:49Z</time>
<speed>1.640000</speed>
<extensions>
<speed>1.6</speed>
<temp>0.00</temp>
<bpm>0</bpm>
<rpm>0.00</rpm>
</extensions>
</trkpt>
<trkpt lat="30.874101639" lon="34.784805298">
<ele>471.007813</ele>
<time>2013-11-20T12:08:54Z</time>
<speed>1.400000</speed>
<extensions>
<speed>1.4</speed>
<temp>0.00</temp>
<bpm>0</bpm>
<rpm>0.00</rpm>
</extensions>
</trkpt>
<trkpt lat="30.874078751" lon="34.784740448">
<ele>472.171875</ele>
<time>2013-11-20T12:08:59Z</time>
<speed>1.610000</speed>
<extensions>
<speed>1.6</speed>
<temp>0.00</temp>
<bpm>0</bpm>
<rpm>0.00</rpm>
</extensions>
</trkpt>
<trkpt lat="30.873992920" lon="34.784671783">
<ele>473.976563</ele>
<time>2013-11-20T12:09:04Z</time>
<speed>3.020000</speed>
<extensions>
<speed>3.0</speed>
<temp>0.00</temp>
<bpm>0</bpm>
<rpm>0.00</rpm>
</extensions>
</trkpt>
<trkpt lat="30.873899460" lon="34.784595490">
<ele>475.257813</ele>
<time>2013-11-20T12:09:09Z</time>
<speed>2.240000</speed>
<extensions>
<speed>2.2</speed>
<temp>0.00</temp>
<bpm>0</bpm>
<rpm>0.00</rpm>
</extensions>
</trkpt>
<trkpt lat="30.873821259" lon="34.784507751">
<ele>475.515625</ele>
<time>2013-11-20T12:09:14Z</time>
<speed>3.120000</speed>
<extensions>
<speed>3.1</speed>
<temp>0.00</temp>
<bpm>0</bpm>
<rpm>0.00</rpm>
</extensions>
</trkpt>
<trkpt lat="30.873708725" lon="34.784416199">
<ele>476.601563</ele>
<time>2013-11-20T12:09:19Z</time>
<speed>3.100000</speed>
<extensions>
<speed>3.1</speed>
<temp>0.00</temp>
<bpm>0</bpm>
<rpm>0.00</rpm>
</extensions>
</trkpt>
<trkpt lat="30.873594284" lon="34.784305573">
<ele>477.578125</ele>
<time>2013-11-20T12:09:24Z</time>
<speed>2.890000</speed>
<extensions>
<speed>2.9</speed>
<temp>0.00</temp>
<bpm>0</bpm>
<rpm>0.00</rpm>
</extensions>
</trkpt>
<trkpt lat="30.873472214" lon="34.784202576">
<ele>479.656250</ele>
<time>2013-11-20T12:09:29Z</time>
<speed>3.610000</speed>
<extensions>
<speed>3.6</speed>
<temp>0.00</temp>
<bpm>0</bpm>
<rpm>0.00</rpm>
</extensions>
</trkpt>
<trkpt lat="30.873365402" lon="34.784069061">
<ele>479.570313</ele>
<time>2013-11-20T12:09:34Z</time>
<speed>2.770000</speed>
<extensions>
<speed>2.8</speed>
<temp>0.00</temp>
<bpm>0</bpm>
<rpm>0.00</rpm>
</extensions>
</trkpt>
<trkpt lat="30.873247147" lon="34.783946991">
<ele>478.882813</ele>
<time>2013-11-20T12:09:39Z</time>
<speed>3.670000</speed>
<extensions>
<speed>3.7</speed>
<temp>0.00</temp>
<bpm>0</bpm>
<rpm>0.00</rpm>
</extensions>
</trkpt>
<trkpt lat="30.873130798" lon="34.783809662">
<ele>475.062500</ele>
<time>2013-11-20T12:09:44Z</time>
<speed>3.460000</speed>
<extensions>
<speed>3.5</speed>
<temp>0.00</temp>
<bpm>0</bpm>
<rpm>0.00</rpm>
</extensions>
</trkpt>
<trkpt lat="30.873018265" lon="34.783702850">
<ele>475.273438</ele>
<time>2013-11-20T12:09:49Z</time>
<speed>2.940000</speed>
<extensions>
<speed>2.9</speed>
<temp>0.00</temp>
<bpm>0</bpm>
<rpm>0.00</rpm>
</extensions>
</trkpt>
<trkpt lat="30.872915268" lon="34.783596039">
<ele>474.085938</ele>
<time>2013-11-20T12:09:54Z</time>
<speed>3.260000</speed>
<extensions>
<speed>3.3</speed>
<temp>0.00</temp>
<bpm>0</bpm>
<rpm>0.00</rpm>
</extensions>
</trkpt>
<trkpt lat="30.872797012" lon="34.783519745">
<ele>474.015625</ele>
<time>2013-11-20T12:09:59Z</time>
<speed>2.980000</speed>
<extensions>
<speed>3.0</speed>
<temp>0.00</temp>
<bpm>0</bpm>
<rpm>0.00</rpm>
</extensions>
</trkpt>
<trkpt lat="30.872676849" lon="34.783439636">
<ele>475.554688</ele>
<time>2013-11-20T12:10:04Z</time>
<speed>3.360000</speed>
<extensions>
<speed>3.4</speed>
<temp>0.00</temp>
<bpm>0</bpm>
<rpm>0.00</rpm>
</extensions>
</trkpt>
<trkpt lat="30.872568130" lon="34.783313751">
<ele>478.390625</ele>
<time>2013-11-20T12:10:09Z</time>
<speed>3.630000</speed>
<extensions>
<speed>3.6</speed>
<temp>0.00</temp>
<bpm>0</bpm>
<rpm>0.00</rpm>
</extensions>
</trkpt>
<trkpt lat="30.872470856" lon="34.783176422">
<ele>478.968750</ele>
<time>2013-11-20T12:10:14Z</time>
<speed>3.920000</speed>
<extensions>
<speed>3.9</speed>
<temp>0.00</temp>
<bpm>0</bpm>
<rpm>0.00</rpm>
</extensions>
</trkpt>
<trkpt lat="30.872367859" lon="34.783042908">
<ele>477.382813</ele>
<time>2013-11-20T12:10:19Z</time>
<speed>3.160000</speed>
<extensions>
<speed>3.2</speed>
<temp>0.00</temp>
<bpm>0</bpm>
<rpm>0.00</rpm>
</extensions>
</trkpt>
<trkpt lat="30.872247696" lon="34.782913208">
<ele>477.171875</ele>
<time>2013-11-20T12:10:24Z</time>
<speed>3.360000</speed>
<extensions>
<speed>3.4</speed>
<temp>0.00</temp>
<bpm>0</bpm>
<rpm>0.00</rpm>
</extensions>
</trkpt>
<trkpt lat="30.872135162" lon="34.782775879">
<ele>477.070313</ele>
<time>2013-11-20T12:10:29Z</time>
<speed>3.270000</speed>
<extensions>
<speed>3.3</speed>
<temp>0.00</temp>
<bpm>0</bpm>
<rpm>0.00</rpm>
</extensions>
</trkpt>
<trkpt lat="30.872024536" lon="34.782707214">
<ele>476.335938</ele>
<time>2013-11-20T12:10:34Z</time>
<speed>2.250000</speed>
<extensions>
<speed>2.3</speed>
<temp>0.00</temp>
<bpm>0</bpm>
<rpm>0.00</rpm>
</extensions>
</trkpt>
<trkpt lat="30.871913910" lon="34.782646179">
<ele>477.343750</ele>
<time>2013-11-20T12:10:39Z</time>
<speed>3.230000</speed>
<extensions>
<speed>3.2</speed>
<temp>0.00</temp>
<bpm>0</bpm>
<rpm>0.00</rpm>
</extensions>
</trkpt>
<trkpt lat="30.871826172" lon="34.782516479">
<ele>480.828125</ele>
<time>2013-11-20T12:10:44Z</time>
<speed>3.680000</speed>
<extensions>
<speed>3.7</speed>
<temp>0.00</temp>
<bpm>0</bpm>
<rpm>0.00</rpm>
</extensions>
</trkpt>
<trkpt lat="30.871732712" lon="34.782360077">
<ele>480.703125</ele>
<time>2013-11-20T12:10:49Z</time>
<speed>3.370000</speed>
<extensions>
<speed>3.4</speed>
<temp>0.00</temp>
<bpm>0</bpm>
<rpm>0.00</rpm>
</extensions>
</trkpt>
<trkpt lat="30.871633530" lon="34.782192230">
<ele>480.734375</ele>
<time>2013-11-20T12:10:54Z</time>
<speed>3.890000</speed>
<extensions>
<speed>3.9</speed>
<temp>0.00</temp>
<bpm>0</bpm>
<rpm>0.00</rpm>
</extensions>
</trkpt>
<trkpt lat="30.871545792" lon="34.782024384">
<ele>481.429688</ele>
<time>2013-11-20T12:10:59Z</time>
<speed>4.020000</speed>
<extensions>
<speed>4.0</speed>
<temp>0.00</temp>
<bpm>0</bpm>
<rpm>0.00</rpm>
</extensions>
</trkpt>
<trkpt lat="30.871452332" lon="34.781833649">
<ele>481.648438</ele>
<time>2013-11-20T12:11:04Z</time>
<speed>3.530000</speed>
<extensions>
<speed>3.5</speed>
<temp>0.00</temp>
<bpm>0</bpm>
<rpm>0.00</rpm>
</extensions>
</trkpt>
<trkpt lat="30.871381760" lon="34.781719208">
<ele>481.890625</ele>
<time>2013-11-20T12:11:09Z</time>
<speed>2.130000</speed>
<extensions>
<speed>2.1</speed>
<temp>0.00</temp>
<bpm>0</bpm>
<rpm>0.00</rpm>
</extensions>
</trkpt>
<trkpt lat="30.871330261" lon="34.781627655">
<ele>481.476563</ele>
<time>2013-11-20T12:11:14Z</time>
<speed>2.020000</speed>
<extensions>
<speed>2.0</speed>
<temp>0.00</temp>
<bpm>0</bpm>
<rpm>0.00</rpm>
</extensions>
</trkpt>
<trkpt lat="30.871236801" lon="34.781520844">
<ele>480.468750</ele>
<time>2013-11-20T12:11:19Z</time>
<speed>3.670000</speed>
<extensions>
<speed>3.7</speed>
<temp>0.00</temp>
<bpm>0</bpm>
<rpm>0.00</rpm>
</extensions>
</trkpt>
<trkpt lat="30.871128082" lon="34.781364441">
<ele>478.554688</ele>
<time>2013-11-20T12:11:24Z</time>
<speed>4.310000</speed>
<extensions>
<speed>4.3</speed>
<temp>0.00</temp>
<bpm>0</bpm>
<rpm>0.00</rpm>
</extensions>
</trkpt>
<trkpt lat="30.870962143" lon="34.781215668">
<ele>477.507813</ele>
<time>2013-11-20T12:11:29Z</time>
<speed>4.770000</speed>
<extensions>
<speed>4.8</speed>
<temp>0.00</temp>
<bpm>0</bpm>
<rpm>0.00</rpm>
</extensions>
</trkpt>
<trkpt lat="30.870767593" lon="34.781085968">
<ele>478.851563</ele>
<time>2013-11-20T12:11:34Z</time>
<speed>5.350000</speed>
<extensions>
<speed>5.4</speed>
<temp>0.00</temp>
<bpm>0</bpm>
<rpm>0.00</rpm>
</extensions>
</trkpt>
<trkpt lat="30.870555878" lon="34.780952454">
<ele>480.281250</ele>
<time>2013-11-20T12:11:39Z</time>
<speed>5.620000</speed>
<extensions>
<speed>5.6</speed>
<temp>0.00</temp>
<bpm>0</bpm>
<rpm>0.00</rpm>
</extensions>
</trkpt>
<trkpt lat="30.870328903" lon="34.780807495">
<ele>478.843750</ele>
<time>2013-11-20T12:11:44Z</time>
<speed>5.440000</speed>
<extensions>
<speed>5.4</speed>
<temp>0.00</temp>
<bpm>0</bpm>
<rpm>0.00</rpm>
</extensions>
</trkpt>
<trkpt lat="30.870088577" lon="34.780670166">
<ele>478.914063</ele>
<time>2013-11-20T12:11:49Z</time>
<speed>6.210000</speed>
<extensions>
<speed>6.2</speed>
<temp>0.00</temp>
<bpm>0</bpm>
<rpm>0.00</rpm>
</extensions>
</trkpt>
<trkpt lat="30.869829178" lon="34.780525208">
<ele>479.273438</ele>
<time>2013-11-20T12:11:54Z</time>
<speed>6.240000</speed>
<extensions>
<speed>6.2</speed>
<temp>0.00</temp>
<bpm>0</bpm>
<rpm>0.00</rpm>
</extensions>
</trkpt>
<trkpt lat="30.869571686" lon="34.780414581">
<ele>480.484375</ele>
<time>2013-11-20T12:11:59Z</time>
<speed>6.210000</speed>
<extensions>
<speed>6.2</speed>
<temp>0.00</temp>
<bpm>0</bpm>
<rpm>0.00</rpm>
</extensions>
</trkpt>
<trkpt lat="30.869335175" lon="34.780284882">
<ele>483.046875</ele>
<time>2013-11-20T12:12:04Z</time>
<speed>5.690000</speed>
<extensions>
<speed>5.7</speed>
<temp>0.00</temp>
<bpm>0</bpm>
<rpm>0.00</rpm>
</extensions>
</trkpt>
<trkpt lat="30.869112015" lon="34.780158997">
<ele>486.742188</ele>
<time>2013-11-20T12:12:09Z</time>
<speed>5.900000</speed>
<extensions>
<speed>5.9</speed>
<temp>0.00</temp>
<bpm>0</bpm>
<rpm>0.00</rpm>
</extensions>
</trkpt>
<trkpt lat="30.868860245" lon="34.780040741">
<ele>487.765625</ele>
<time>2013-11-20T12:12:14Z</time>
<speed>6.170000</speed>
<extensions>
<speed>6.2</speed>
<temp>0.00</temp>
<bpm>0</bpm>
<rpm>0.00</rpm>
</extensions>
</trkpt>
<trkpt lat="30.868597031" lon="34.779888153">
<ele>484.585938</ele>
<time>2013-11-20T12:12:19Z</time>
<speed>6.270000</speed>
<extensions>
<speed>6.3</speed>
<temp>0.00</temp>
<bpm>0</bpm>
<rpm>0.00</rpm>
</extensions>
</trkpt>
<trkpt lat="30.868331909" lon="34.779743195">
<ele>484.734375</ele>
<time>2013-11-20T12:12:24Z</time>
<speed>6.410000</speed>
<extensions>
<speed>6.4</speed>
<temp>0.00</temp>
<bpm>0</bpm>
<rpm>0.00</rpm>
</extensions>
</trkpt>
<trkpt lat="30.868082047" lon="34.779575348">
<ele>482.242188</ele>
<time>2013-11-20T12:12:29Z</time>
<speed>5.710000</speed>
<extensions>
<speed>5.7</speed>
<temp>0.00</temp>
<bpm>0</bpm>
<rpm>0.00</rpm>
</extensions>
</trkpt>
<trkpt lat="30.867870331" lon="34.779434204">
<ele>479.921875</ele>
<time>2013-11-20T12:12:34Z</time>
<speed>5.550000</speed>
<extensions>
<speed>5.5</speed>
<temp>0.00</temp>
<bpm>0</bpm>
<rpm>0.00</rpm>
</extensions>
</trkpt>
<trkpt lat="30.867635727" lon="34.779312134">
<ele>481.109375</ele>
<time>2013-11-20T12:12:39Z</time>
<speed>5.720000</speed>
<extensions>
<speed>5.7</speed>
<temp>0.00</temp>
<bpm>0</bpm>
<rpm>0.00</rpm>
</extensions>
</trkpt>
<trkpt lat="30.867414474" lon="34.779167175">
<ele>481.109375</ele>
<time>2013-11-20T12:12:44Z</time>
<speed>5.280000</speed>
<extensions>
<speed>5.3</speed>
<temp>0.00</temp>
<bpm>0</bpm>
<rpm>0.00</rpm>
</extensions>
</trkpt>
<trkpt lat="30.867219925" lon="34.779045105">
<ele>481.015625</ele>
<time>2013-11-20T12:12:49Z</time>
<speed>4.620000</speed>
<extensions>
<speed>4.6</speed>
<temp>0.00</temp>
<bpm>0</bpm>
<rpm>0.00</rpm>
</extensions>
</trkpt>
<trkpt lat="30.867044449" lon="34.778923035">
<ele>481.281250</ele>
<time>2013-11-20T12:12:54Z</time>
<speed>4.230000</speed>
<extensions>
<speed>4.2</speed>
<temp>0.00</temp>
<bpm>0</bpm>
<rpm>0.00</rpm>
</extensions>
</trkpt>
<trkpt lat="30.866880417" lon="34.778812408">
<ele>481.968750</ele>
<time>2013-11-20T12:12:59Z</time>
<speed>2.520000</speed>
<extensions>
<speed>2.5</speed>
<temp>0.00</temp>
<bpm>0</bpm>
<rpm>0.00</rpm>
</extensions>
</trkpt>
<trkpt lat="30.866811752" lon="34.778762817">
<ele>482.375000</ele>
<time>2013-11-20T12:13:04Z</time>
<speed>2.090000</speed>
<extensions>
<speed>2.1</speed>
<temp>0.00</temp>
<bpm>0</bpm>
<rpm>0.00</rpm>
</extensions>
</trkpt>
<trkpt lat="30.866708755" lon="34.778705597">
<ele>481.625000</ele>
<time>2013-11-20T12:13:09Z</time>
<speed>3.360000</speed>
<extensions>
<speed>3.4</speed>
<temp>0.00</temp>
<bpm>0</bpm>
<rpm>0.00</rpm>
</extensions>
</trkpt>
<trkpt lat="30.866603851" lon="34.778629303">
<ele>481.828125</ele>
<time>2013-11-20T12:13:14Z</time>
<speed>1.780000</speed>
<extensions>
<speed>1.8</speed>
<temp>0.00</temp>
<bpm>0</bpm>
<rpm>0.00</rpm>
</extensions>
</trkpt>
<trkpt lat="30.866603851" lon="34.778614044">
<ele>481.898438</ele>
<time>2013-11-20T12:13:19Z</time>
<speed>0.120000</speed>
<extensions>
<speed>0.1</speed>
<temp>0.00</temp>
<bpm>0</bpm>
<rpm>0.00</rpm>
</extensions>
</trkpt>
<trkpt lat="30.866603851" lon="34.778614044">
<ele>481.875000</ele>
<time>2013-11-20T12:13:24Z</time>
<extensions>
<speed>0.0</speed>
<temp>0.00</temp>
<bpm>0</bpm>
<rpm>0.00</rpm>
</extensions>
</trkpt>
<trkpt lat="30.866605759" lon="34.778610229">
<ele>481.890625</ele>
<time>2013-11-20T12:13:29Z</time>
<speed>0.090000</speed>
<extensions>
<speed>0.1</speed>
<temp>0.00</temp>
<bpm>0</bpm>
<rpm>0.00</rpm>
</extensions>
</trkpt>
<trkpt lat="30.866600037" lon="34.778606415">
<ele>481.914063</ele>
<time>2013-11-20T12:13:34Z</time>
<speed>0.150000</speed>
<extensions>
<speed>0.2</speed>
<temp>0.00</temp>
<bpm>0</bpm>
<rpm>0.00</rpm>
</extensions>
</trkpt>
<trkpt lat="30.866596222" lon="34.778606415">
<ele>481.921875</ele>
<time>2013-11-20T12:13:39Z</time>
<speed>0.100000</speed>
<extensions>
<speed>0.1</speed>
<temp>0.00</temp>
<bpm>0</bpm>
<rpm>0.00</rpm>
</extensions>
</trkpt>
<trkpt lat="30.866590500" lon="34.778602600">
<ele>481.953125</ele>
<time>2013-11-20T12:13:44Z</time>
<speed>0.080000</speed>
<extensions>
<speed>0.1</speed>
<temp>0.00</temp>
<bpm>0</bpm>
<rpm>0.00</rpm>
</extensions>
</trkpt>
<trkpt lat="30.866586685" lon="34.778598785">
<ele>482.023438</ele>
<time>2013-11-20T12:13:49Z</time>
<speed>0.030000</speed>
<extensions>
<speed>0.0</speed>
<temp>0.00</temp>
<bpm>0</bpm>
<rpm>0.00</rpm>
</extensions>
</trkpt>
<trkpt lat="30.866588593" lon="34.778598785">
<ele>482.085938</ele>
<time>2013-11-20T12:13:54Z</time>
<speed>0.150000</speed>
<extensions>
<speed>0.2</speed>
<temp>0.00</temp>
<bpm>0</bpm>
<rpm>0.00</rpm>
</extensions>
</trkpt>
<trkpt lat="30.866584778" lon="34.778594971">
<ele>482.148438</ele>
<time>2013-11-20T12:13:59Z</time>
<speed>0.060000</speed>
<extensions>
<speed>0.1</speed>
<temp>0.00</temp>
<bpm>0</bpm>
<rpm>0.00</rpm>
</extensions>
</trkpt>
<trkpt lat="30.866582870" lon="34.778594971">
<ele>482.171875</ele>
<time>2013-11-20T12:14:04Z</time>
<speed>0.010000</speed>
<extensions>
<speed>0.0</speed>
<temp>0.00</temp>
<bpm>0</bpm>
<rpm>0.00</rpm>
</extensions>
</trkpt>
<trkpt lat="30.866582870" lon="34.778591156">
<ele>482.187500</ele>
<time>2013-11-20T12:14:09Z</time>
<speed>0.080000</speed>
<extensions>
<speed>0.1</speed>
<temp>0.00</temp>
<bpm>0</bpm>
<rpm>0.00</rpm>
</extensions>
</trkpt>
<trkpt lat="30.866580963" lon="34.778591156">
<ele>482.195313</ele>
<time>2013-11-20T12:14:14Z</time>
<speed>0.090000</speed>
<extensions>
<speed>0.1</speed>
<temp>0.00</temp>
<bpm>0</bpm>
<rpm>0.00</rpm>
</extensions>
</trkpt>
<trkpt lat="30.866579056" lon="34.778587341">
<ele>482.195313</ele>
<time>2013-11-20T12:14:19Z</time>
<speed>0.180000</speed>
<extensions>
<speed>0.2</speed>
<temp>0.00</temp>
<bpm>0</bpm>
<rpm>0.00</rpm>
</extensions>
</trkpt>
<trkpt lat="30.866575241" lon="34.778587341">
<ele>482.195313</ele>
<time>2013-11-20T12:14:24Z</time>
<speed>0.050000</speed>
<extensions>
<speed>0.1</speed>
<temp>0.00</temp>
<bpm>0</bpm>
<rpm>0.00</rpm>
</extensions>
</trkpt>
<trkpt lat="30.866579056" lon="34.778591156">
<ele>482.195313</ele>
<time>2013-11-20T12:14:29Z</time>
<speed>0.100000</speed>
<extensions>
<speed>0.1</speed>
<temp>0.00</temp>
<bpm>0</bpm>
<rpm>0.00</rpm>
</extensions>
</trkpt>
<trkpt lat="30.866580963" lon="34.778591156">
<ele>482.179688</ele>
<time>2013-11-20T12:14:34Z</time>
<speed>0.010000</speed>
<extensions>
<speed>0.0</speed>
<temp>0.00</temp>
<bpm>0</bpm>
<rpm>0.00</rpm>
</extensions>
</trkpt>
<trkpt lat="30.866580963" lon="34.778591156">
<ele>482.187500</ele>
<time>2013-11-20T12:14:39Z</time>
<speed>0.010000</speed>
<extensions>
<speed>0.0</speed>
<temp>0.00</temp>
<bpm>0</bpm>
<rpm>0.00</rpm>
</extensions>
</trkpt>
<trkpt lat="30.866579056" lon="34.778591156">
<ele>482.226563</ele>
<time>2013-11-20T12:14:44Z</time>
<speed>0.050000</speed>
<extensions>
<speed>0.1</speed>
<temp>0.00</temp>
<bpm>0</bpm>
<rpm>0.00</rpm>
</extensions>
</trkpt>
<trkpt lat="30.866579056" lon="34.778591156">
<ele>482.257813</ele>
<time>2013-11-20T12:14:49Z</time>
<speed>0.030000</speed>
<extensions>
<speed>0.0</speed>
<temp>0.00</temp>
<bpm>0</bpm>
<rpm>0.00</rpm>
</extensions>
</trkpt>
<trkpt lat="30.866577148" lon="34.778591156">
<ele>482.296875</ele>
<time>2013-11-20T12:14:54Z</time>
<speed>0.110000</speed>
<extensions>
<speed>0.1</speed>
<temp>0.00</temp>
<bpm>0</bpm>
<rpm>0.00</rpm>
</extensions>
</trkpt>
<trkpt lat="30.866577148" lon="34.778591156">
<ele>482.335938</ele>
<time>2013-11-20T12:14:59Z</time>
<speed>0.170000</speed>
<extensions>
<speed>0.2</speed>
<temp>0.00</temp>
<bpm>0</bpm>
<rpm>0.00</rpm>
</extensions>
</trkpt>
<trkpt lat="30.866556168" lon="34.778583527">
<ele>482.351563</ele>
<time>2013-11-20T12:15:04Z</time>
<speed>2.860000</speed>
<extensions>
<speed>2.9</speed>
<temp>0.00</temp>
<bpm>0</bpm>
<rpm>0.00</rpm>
</extensions>
</trkpt>
<trkpt lat="30.866397858" lon="34.778503418">
<ele>482.390625</ele>
<time>2013-11-20T12:15:09Z</time>
<speed>4.030000</speed>
<extensions>
<speed>4.0</speed>
<temp>0.00</temp>
<bpm>0</bpm>
<rpm>0.00</rpm>
</extensions>
</trkpt>
<trkpt lat="30.866247177" lon="34.778415680">
<ele>483.375000</ele>
<time>2013-11-20T12:15:14Z</time>
<speed>4.310000</speed>
<extensions>
<speed>4.3</speed>
<temp>0.00</temp>
<bpm>0</bpm>
<rpm>0.00</rpm>
</extensions>
</trkpt>
<trkpt lat="30.866079330" lon="34.778316498">
<ele>483.578125</ele>
<time>2013-11-20T12:15:19Z</time>
<speed>4.200000</speed>
<extensions>
<speed>4.2</speed>
<temp>0.00</temp>
<bpm>0</bpm>
<rpm>0.00</rpm>
</extensions>
</trkpt>
<trkpt lat="30.865905762" lon="34.778186798">
<ele>483.226563</ele>
<time>2013-11-20T12:15:24Z</time>
<speed>4.830000</speed>
<extensions>
<speed>4.8</speed>
<temp>0.00</temp>
<bpm>0</bpm>
<rpm>0.00</rpm>
</extensions>
</trkpt>
<trkpt lat="30.865695953" lon="34.778060913">
<ele>481.703125</ele>
<time>2013-11-20T12:15:29Z</time>
<speed>5.370000</speed>
<extensions>
<speed>5.4</speed>
<temp>0.00</temp>
<bpm>0</bpm>
<rpm>0.00</rpm>
</extensions>
</trkpt>
<trkpt lat="30.865585327" lon="34.777870178">
<ele>482.117188</ele>
<time>2013-11-20T12:15:34Z</time>
<speed>4.440000</speed>
<extensions>
<speed>4.4</speed>
<temp>0.00</temp>
<bpm>0</bpm>
<rpm>0.00</rpm>
</extensions>
</trkpt>
<trkpt lat="30.865419388" lon="34.777732849">
<ele>481.164063</ele>
<time>2013-11-20T12:15:39Z</time>
<speed>5.000000</speed>
<extensions>
<speed>5.0</speed>
<temp>0.00</temp>
<bpm>0</bpm>
<rpm>0.00</rpm>
</extensions>
</trkpt>
<trkpt lat="30.865255356" lon="34.777637482">
<ele>480.742188</ele>
<time>2013-11-20T12:15:44Z</time>
<speed>3.730000</speed>
<extensions>
<speed>3.7</speed>
<temp>0.00</temp>
<bpm>0</bpm>
<rpm>0.00</rpm>
</extensions>
</trkpt>
<trkpt lat="30.865102768" lon="34.777545929">
<ele>479.414063</ele>
<time>2013-11-20T12:15:49Z</time>
<speed>3.730000</speed>
<extensions>
<speed>3.7</speed>
<temp>0.00</temp>
<bpm>0</bpm>
<rpm>0.00</rpm>
</extensions>
</trkpt>
<trkpt lat="30.864929199" lon="34.777462006">
<ele>479.687500</ele>
<time>2013-11-20T12:15:54Z</time>
<speed>3.410000</speed>
<extensions>
<speed>3.4</speed>
<temp>0.00</temp>
<bpm>0</bpm>
<rpm>0.00</rpm>
</extensions>
</trkpt>
<trkpt lat="30.864807129" lon="34.777404785">
<ele>481.062500</ele>
<time>2013-11-20T12:15:59Z</time>
<speed>1.880000</speed>
<extensions>
<speed>1.9</speed>
<temp>0.00</temp>
<bpm>0</bpm>
<rpm>0.00</rpm>
</extensions>
</trkpt>
<trkpt lat="30.864749908" lon="34.777366638">
<ele>482.031250</ele>
<time>2013-11-20T12:16:04Z</time>
<speed>2.040000</speed>
<extensions>
<speed>2.0</speed>
<temp>0.00</temp>
<bpm>0</bpm>
<rpm>0.00</rpm>
</extensions>
</trkpt>
<trkpt lat="30.864690781" lon="34.777290344">
<ele>482.765625</ele>
<time>2013-11-20T12:16:09Z</time>
<speed>0.990000</speed>
<extensions>
<speed>1.0</speed>
<temp>0.00</temp>
<bpm>0</bpm>
<rpm>0.00</rpm>
</extensions>
</trkpt>
<trkpt lat="30.864681244" lon="34.777282715">
<ele>483.179688</ele>
<time>2013-11-20T12:16:14Z</time>
<speed>0.080000</speed>
<extensions>
<speed>0.1</speed>
<temp>0.00</temp>
<bpm>0</bpm>
<rpm>0.00</rpm>
</extensions>
</trkpt>
<trkpt lat="30.864681244" lon="34.777282715">
<ele>483.250000</ele>
<time>2013-11-20T12:16:19Z</time>
<extensions>
<speed>0.0</speed>
<temp>0.00</temp>
<bpm>0</bpm>
<rpm>0.00</rpm>
</extensions>
</trkpt>
<trkpt lat="30.864681244" lon="34.777282715">
<ele>483.328125</ele>
<time>2013-11-20T12:16:24Z</time>
<speed>0.060000</speed>
<extensions>
<speed>0.1</speed>
<temp>0.00</temp>
<bpm>0</bpm>
<rpm>0.00</rpm>
</extensions>
</trkpt>
<trkpt lat="30.864681244" lon="34.777282715">
<ele>483.398438</ele>
<time>2013-11-20T12:16:29Z</time>
<extensions>
<speed>0.0</speed>
<temp>0.00</temp>
<bpm>0</bpm>
<rpm>0.00</rpm>
</extensions>
</trkpt>
<trkpt lat="30.864679337" lon="34.777278900">
<ele>483.421875</ele>
<time>2013-11-20T12:16:34Z</time>
<speed>0.020000</speed>
<extensions>
<speed>0.0</speed>
<temp>0.00</temp>
<bpm>0</bpm>
<rpm>0.00</rpm>
</extensions>
</trkpt>
<trkpt lat="30.864681244" lon="34.777282715">
<ele>483.484375</ele>
<time>2013-11-20T12:16:39Z</time>
<extensions>
<speed>0.0</speed>
<temp>0.00</temp>
<bpm>0</bpm>
<rpm>0.00</rpm>
</extensions>
</trkpt>
<trkpt lat="30.864681244" lon="34.777282715">
<ele>483.531250</ele>
<time>2013-11-20T12:16:44Z</time>
<extensions>
<speed>0.0</speed>
<temp>0.00</temp>
<bpm>0</bpm>
<rpm>0.00</rpm>
</extensions>
</trkpt>
<trkpt lat="30.864681244" lon="34.777282715">
<ele>483.570313</ele>
<time>2013-11-20T12:16:49Z</time>
<speed>0.010000</speed>
<extensions>
<speed>0.0</speed>
<temp>0.00</temp>
<bpm>0</bpm>
<rpm>0.00</rpm>
</extensions>
</trkpt>
<trkpt lat="30.864681244" lon="34.777282715">
<ele>483.570313</ele>
<time>2013-11-20T12:16:54Z</time>
<speed>0.150000</speed>
<extensions>
<speed>0.2</speed>
<temp>0.00</temp>
<bpm>0</bpm>
<rpm>0.00</rpm>
</extensions>
</trkpt>
<trkpt lat="30.864637375" lon="34.777164459">
<ele>483.359375</ele>
<time>2013-11-20T12:16:59Z</time>
<speed>3.420000</speed>
<extensions>
<speed>3.4</speed>
<temp>0.00</temp>
<bpm>0</bpm>
<rpm>0.00</rpm>
</extensions>
</trkpt>
<trkpt lat="30.864601135" lon="34.776996613">
<ele>484.187500</ele>
<time>2013-11-20T12:17:04Z</time>
<speed>2.800000</speed>
<extensions>
<speed>2.8</speed>
<temp>0.00</temp>
<bpm>0</bpm>
<rpm>0.00</rpm>
</extensions>
</trkpt>
<trkpt lat="30.864587784" lon="34.776912689">
<ele>486.265625</ele>
<time>2013-11-20T12:17:09Z</time>
<speed>0.130000</speed>
<extensions>
<speed>0.1</speed>
<temp>0.00</temp>
<bpm>0</bpm>
<rpm>0.00</rpm>
</extensions>
</trkpt>
<trkpt lat="30.864593506" lon="34.776908875">
<ele>485.843750</ele>
<time>2013-11-20T12:17:14Z</time>
<speed>0.010000</speed>
<extensions>
<speed>0.0</speed>
<temp>0.00</temp>
<bpm>0</bpm>
<rpm>0.00</rpm>
</extensions>
</trkpt>
<trkpt lat="30.864593506" lon="34.776908875">
<ele>485.828125</ele>
<time>2013-11-20T12:17:19Z</time>
<speed>0.020000</speed>
<extensions>
<speed>0.0</speed>
<temp>0.00</temp>
<bpm>0</bpm>
<rpm>0.00</rpm>
</extensions>
</trkpt>
<trkpt lat="30.864593506" lon="34.776908875">
<ele>485.828125</ele>
<time>2013-11-20T12:17:24Z</time>
<speed>0.020000</speed>
<extensions>
<speed>0.0</speed>
<temp>0.00</temp>
<bpm>0</bpm>
<rpm>0.00</rpm>
</extensions>
</trkpt>
<trkpt lat="30.864593506" lon="34.776908875">
<ele>485.789063</ele>
<time>2013-11-20T12:17:29Z</time>
<speed>0.010000</speed>
<extensions>
<speed>0.0</speed>
<temp>0.00</temp>
<bpm>0</bpm>
<rpm>0.00</rpm>
</extensions>
</trkpt>
<trkpt lat="30.864593506" lon="34.776908875">
<ele>485.757813</ele>
<time>2013-11-20T12:17:34Z</time>
<speed>0.070000</speed>
<extensions>
<speed>0.1</speed>
<temp>0.00</temp>
<bpm>0</bpm>
<rpm>0.00</rpm>
</extensions>
</trkpt>
<trkpt lat="30.864593506" lon="34.776908875">
<ele>485.703125</ele>
<time>2013-11-20T12:17:39Z</time>
<speed>0.040000</speed>
<extensions>
<speed>0.0</speed>
<temp>0.00</temp>
<bpm>0</bpm>
<rpm>0.00</rpm>
</extensions>
</trkpt>
<trkpt lat="30.864593506" lon="34.776908875">
<ele>485.718750</ele>
<time>2013-11-20T12:17:44Z</time>
<speed>0.020000</speed>
<extensions>
<speed>0.0</speed>
<temp>0.00</temp>
<bpm>0</bpm>
<rpm>0.00</rpm>
</extensions>
</trkpt>
<trkpt lat="30.864593506" lon="34.776908875">
<ele>485.734375</ele>
<time>2013-11-20T12:17:49Z</time>
<speed>0.010000</speed>
<extensions>
<speed>0.0</speed>
<temp>0.00</temp>
<bpm>0</bpm>
<rpm>0.00</rpm>
</extensions>
</trkpt>
<trkpt lat="30.864593506" lon="34.776908875">
<ele>485.750000</ele>
<time>2013-11-20T12:17:54Z</time>
<speed>0.010000</speed>
<extensions>
<speed>0.0</speed>
<temp>0.00</temp>
<bpm>0</bpm>
<rpm>0.00</rpm>
</extensions>
</trkpt>
<trkpt lat="30.864593506" lon="34.776908875">
<ele>485.750000</ele>
<time>2013-11-20T12:17:59Z</time>
<speed>0.010000</speed>
<extensions>
<speed>0.0</speed>
<temp>0.00</temp>
<bpm>0</bpm>
<rpm>0.00</rpm>
</extensions>
</trkpt>
<trkpt lat="30.864593506" lon="34.776908875">
<ele>485.750000</ele>
<time>2013-11-20T12:18:04Z</time>
<speed>0.020000</speed>
<extensions>
<speed>0.0</speed>
<temp>0.00</temp>
<bpm>0</bpm>
<rpm>0.00</rpm>
</extensions>
</trkpt>
<trkpt lat="30.864593506" lon="34.776908875">
<ele>485.781250</ele>
<time>2013-11-20T12:18:09Z</time>
<extensions>
<speed>0.0</speed>
<temp>0.00</temp>
<bpm>0</bpm>
<rpm>0.00</rpm>
</extensions>
</trkpt>
<trkpt lat="30.864593506" lon="34.776908875">
<ele>485.804688</ele>
<time>2013-11-20T12:18:14Z</time>
<speed>0.010000</speed>
<extensions>
<speed>0.0</speed>
<temp>0.00</temp>
<bpm>0</bpm>
<rpm>0.00</rpm>
</extensions>
</trkpt>
<trkpt lat="30.864593506" lon="34.776908875">
<ele>485.820313</ele>
<time>2013-11-20T12:18:19Z</time>
<speed>0.010000</speed>
<extensions>
<speed>0.0</speed>
<temp>0.00</temp>
<bpm>0</bpm>
<rpm>0.00</rpm>
</extensions>
</trkpt>
<trkpt lat="30.864593506" lon="34.776908875">
<ele>485.820313</ele>
<time>2013-11-20T12:18:24Z</time>
<speed>0.010000</speed>
<extensions>
<speed>0.0</speed>
<temp>0.00</temp>
<bpm>0</bpm>
<rpm>0.00</rpm>
</extensions>
</trkpt>
<trkpt lat="30.864593506" lon="34.776908875">
<ele>485.820313</ele>
<time>2013-11-20T12:18:29Z</time>
<speed>0.010000</speed>
<extensions>
<speed>0.0</speed>
<temp>0.00</temp>
<bpm>0</bpm>
<rpm>0.00</rpm>
</extensions>
</trkpt>
<trkpt lat="30.864593506" lon="34.776908875">
<ele>485.843750</ele>
<time>2013-11-20T12:18:34Z</time>
<speed>0.010000</speed>
<extensions>
<speed>0.0</speed>
<temp>0.00</temp>
<bpm>0</bpm>
<rpm>0.00</rpm>
</extensions>
</trkpt>
<trkpt lat="30.864593506" lon="34.776908875">
<ele>485.851563</ele>
<time>2013-11-20T12:18:39Z</time>
<speed>0.010000</speed>
<extensions>
<speed>0.0</speed>
<temp>0.00</temp>
<bpm>0</bpm>
<rpm>0.00</rpm>
</extensions>
</trkpt>
<trkpt lat="30.864593506" lon="34.776908875">
<ele>485.859375</ele>
<time>2013-11-20T12:18:44Z</time>
<speed>0.010000</speed>
<extensions>
<speed>0.0</speed>
<temp>0.00</temp>
<bpm>0</bpm>
<rpm>0.00</rpm>
</extensions>
</trkpt>
<trkpt lat="30.864593506" lon="34.776908875">
<ele>485.859375</ele>
<time>2013-11-20T12:18:49Z</time>
<speed>0.010000</speed>
<extensions>
<speed>0.0</speed>
<temp>0.00</temp>
<bpm>0</bpm>
<rpm>0.00</rpm>
</extensions>
</trkpt>
<trkpt lat="30.864593506" lon="34.776908875">
<ele>485.867188</ele>
<time>2013-11-20T12:18:54Z</time>
<extensions>
<speed>0.0</speed>
<temp>0.00</temp>
<bpm>0</bpm>
<rpm>0.00</rpm>
</extensions>
</trkpt>
<trkpt lat="30.864593506" lon="34.776908875">
<ele>485.875000</ele>
<time>2013-11-20T12:18:59Z</time>
<speed>0.010000</speed>
<extensions>
<speed>0.0</speed>
<temp>0.00</temp>
<bpm>0</bpm>
<rpm>0.00</rpm>
</extensions>
</trkpt>
<trkpt lat="30.864593506" lon="34.776908875">
<ele>485.867188</ele>
<time>2013-11-20T12:19:04Z</time>
<speed>0.010000</speed>
<extensions>
<speed>0.0</speed>
<temp>0.00</temp>
<bpm>0</bpm>
<rpm>0.00</rpm>
</extensions>
</trkpt>
<trkpt lat="30.864593506" lon="34.776908875">
<ele>485.867188</ele>
<time>2013-11-20T12:19:09Z</time>
<extensions>
<speed>0.0</speed>
<temp>0.00</temp>
<bpm>0</bpm>
<rpm>0.00</rpm>
</extensions>
</trkpt>
<trkpt lat="30.864593506" lon="34.776908875">
<ele>485.875000</ele>
<time>2013-11-20T12:19:14Z</time>
<speed>0.020000</speed>
<extensions>
<speed>0.0</speed>
<temp>0.00</temp>
<bpm>0</bpm>
<rpm>0.00</rpm>
</extensions>
</trkpt>
<trkpt lat="30.864593506" lon="34.776908875">
<ele>485.890625</ele>
<time>2013-11-20T12:19:19Z</time>
<extensions>
<speed>0.0</speed>
<temp>0.00</temp>
<bpm>0</bpm>
<rpm>0.00</rpm>
</extensions>
</trkpt>
<trkpt lat="30.864593506" lon="34.776908875">
<ele>485.898438</ele>
<time>2013-11-20T12:19:24Z</time>
<speed>0.010000</speed>
<extensions>
<speed>0.0</speed>
<temp>0.00</temp>
<bpm>0</bpm>
<rpm>0.00</rpm>
</extensions>
</trkpt>
<trkpt lat="30.864593506" lon="34.776908875">
<ele>485.898438</ele>
<time>2013-11-20T12:19:29Z</time>
<speed>0.010000</speed>
<extensions>
<speed>0.0</speed>
<temp>0.00</temp>
<bpm>0</bpm>
<rpm>0.00</rpm>
</extensions>
</trkpt>
<trkpt lat="30.864593506" lon="34.776908875">
<ele>485.906250</ele>
<time>2013-11-20T12:19:34Z</time>
<extensions>
<speed>0.0</speed>
<temp>0.00</temp>
<bpm>0</bpm>
<rpm>0.00</rpm>
</extensions>
</trkpt>
<trkpt lat="30.864593506" lon="34.776908875">
<ele>485.914063</ele>
<time>2013-11-20T12:19:39Z</time>
<extensions>
<speed>0.0</speed>
<temp>0.00</temp>
<bpm>0</bpm>
<rpm>0.00</rpm>
</extensions>
</trkpt>
<trkpt lat="30.864593506" lon="34.776908875">
<ele>485.914063</ele>
<time>2013-11-20T12:19:44Z</time>
<speed>0.010000</speed>
<extensions>
<speed>0.0</speed>
<temp>0.00</temp>
<bpm>0</bpm>
<rpm>0.00</rpm>
</extensions>
</trkpt>
<trkpt lat="30.864593506" lon="34.776908875">
<ele>485.906250</ele>
<time>2013-11-20T12:19:49Z</time>
<speed>0.030000</speed>
<extensions>
<speed>0.0</speed>
<temp>0.00</temp>
<bpm>0</bpm>
<rpm>0.00</rpm>
</extensions>
</trkpt>
<trkpt lat="30.864593506" lon="34.776908875">
<ele>485.914063</ele>
<time>2013-11-20T12:19:54Z</time>
<extensions>
<speed>0.0</speed>
<temp>0.00</temp>
<bpm>0</bpm>
<rpm>0.00</rpm>
</extensions>
</trkpt>
<trkpt lat="30.864593506" lon="34.776908875">
<ele>485.914063</ele>
<time>2013-11-20T12:19:59Z</time>
<speed>0.020000</speed>
<extensions>
<speed>0.0</speed>
<temp>0.00</temp>
<bpm>0</bpm>
<rpm>0.00</rpm>
</extensions>
</trkpt>
<trkpt lat="30.864593506" lon="34.776905060">
<ele>485.921875</ele>
<time>2013-11-20T12:20:04Z</time>
<speed>0.220000</speed>
<extensions>
<speed>0.2</speed>
<temp>0.00</temp>
<bpm>0</bpm>
<rpm>0.00</rpm>
</extensions>
</trkpt>
<trkpt lat="30.864585876" lon="34.776794434">
<ele>485.968750</ele>
<time>2013-11-20T12:20:09Z</time>
<speed>3.230000</speed>
<extensions>
<speed>3.2</speed>
<temp>0.00</temp>
<bpm>0</bpm>
<rpm>0.00</rpm>
</extensions>
</trkpt>
<trkpt lat="30.864574432" lon="34.776596069">
<ele>486.328125</ele>
<time>2013-11-20T12:20:14Z</time>
<speed>3.240000</speed>
<extensions>
<speed>3.2</speed>
<temp>0.00</temp>
<bpm>0</bpm>
<rpm>0.00</rpm>
</extensions>
</trkpt>
<trkpt lat="30.864574432" lon="34.776405334">
<ele>487.351563</ele>
<time>2013-11-20T12:20:19Z</time>
<speed>3.530000</speed>
<extensions>
<speed>3.5</speed>
<temp>0.00</temp>
<bpm>0</bpm>
<rpm>0.00</rpm>
</extensions>
</trkpt>
<trkpt lat="30.864604950" lon="34.776210785">
<ele>488.906250</ele>
<time>2013-11-20T12:20:24Z</time>
<speed>3.490000</speed>
<extensions>
<speed>3.5</speed>
<temp>0.00</temp>
<bpm>0</bpm>
<rpm>0.00</rpm>
</extensions>
</trkpt>
<trkpt lat="30.864646912" lon="34.776031494">
<ele>489.062500</ele>
<time>2013-11-20T12:20:29Z</time>
<speed>3.890000</speed>
<extensions>
<speed>3.9</speed>
<temp>0.00</temp>
<bpm>0</bpm>
<rpm>0.00</rpm>
</extensions>
</trkpt>
<trkpt lat="30.864681244" lon="34.775802612">
<ele>488.851563</ele>
<time>2013-11-20T12:20:34Z</time>
<speed>4.370000</speed>
<extensions>
<speed>4.4</speed>
<temp>0.00</temp>
<bpm>0</bpm>
<rpm>0.00</rpm>
</extensions>
</trkpt>
<trkpt lat="30.864698410" lon="34.775566101">
<ele>489.851563</ele>
<time>2013-11-20T12:20:39Z</time>
<speed>4.730000</speed>
<extensions>
<speed>4.7</speed>
<temp>0.00</temp>
<bpm>0</bpm>
<rpm>0.00</rpm>
</extensions>
</trkpt>
<trkpt lat="30.864686966" lon="34.775325775">
<ele>491.226563</ele>
<time>2013-11-20T12:20:44Z</time>
<speed>4.250000</speed>
<extensions>
<speed>4.3</speed>
<temp>0.00</temp>
<bpm>0</bpm>
<rpm>0.00</rpm>
</extensions>
</trkpt>
<trkpt lat="30.864664078" lon="34.775104523">
<ele>491.515625</ele>
<time>2013-11-20T12:20:49Z</time>
<speed>4.360000</speed>
<extensions>
<speed>4.4</speed>
<temp>0.00</temp>
<bpm>0</bpm>
<rpm>0.00</rpm>
</extensions>
</trkpt>
<trkpt lat="30.864557266" lon="34.774902344">
<ele>491.882813</ele>
<time>2013-11-20T12:20:54Z</time>
<speed>4.650000</speed>
<extensions>
<speed>4.6</speed>
<temp>0.00</temp>
<bpm>0</bpm>
<rpm>0.00</rpm>
</extensions>
</trkpt>
<trkpt lat="30.864402771" lon="34.774711609">
<ele>492.921875</ele>
<time>2013-11-20T12:20:59Z</time>
<speed>4.970000</speed>
<extensions>
<speed>5.0</speed>
<temp>0.00</temp>
<bpm>0</bpm>
<rpm>0.00</rpm>
</extensions>
</trkpt>
<trkpt lat="30.864248276" lon="34.774551392">
<ele>494.101563</ele>
<time>2013-11-20T12:21:04Z</time>
<speed>4.870000</speed>
<extensions>
<speed>4.9</speed>
<temp>0.00</temp>
<bpm>0</bpm>
<rpm>0.00</rpm>
</extensions>
</trkpt>
<trkpt lat="30.864074707" lon="34.774379730">
<ele>495.304688</ele>
<time>2013-11-20T12:21:09Z</time>
<speed>4.900000</speed>
<extensions>
<speed>4.9</speed>
<temp>0.00</temp>
<bpm>0</bpm>
<rpm>0.00</rpm>
</extensions>
</trkpt>
<trkpt lat="30.863918304" lon="34.774192810">
<ele>496.351563</ele>
<time>2013-11-20T12:21:14Z</time>
<speed>4.630000</speed>
<extensions>
<speed>4.6</speed>
<temp>0.00</temp>
<bpm>0</bpm>
<rpm>0.00</rpm>
</extensions>
</trkpt>
<trkpt lat="30.863788605" lon="34.773990631">
<ele>496.867188</ele>
<time>2013-11-20T12:21:19Z</time>
<speed>5.150000</speed>
<extensions>
<speed>5.2</speed>
<temp>0.00</temp>
<bpm>0</bpm>
<rpm>0.00</rpm>
</extensions>
</trkpt>
<trkpt lat="30.863702774" lon="34.773750305">
<ele>498.273438</ele>
<time>2013-11-20T12:21:24Z</time>
<speed>4.880000</speed>
<extensions>
<speed>4.9</speed>
<temp>0.00</temp>
<bpm>0</bpm>
<rpm>0.00</rpm>
</extensions>
</trkpt>
<trkpt lat="30.863653183" lon="34.773494720">
<ele>499.937500</ele>
<time>2013-11-20T12:21:29Z</time>
<speed>5.000000</speed>
<extensions>
<speed>5.0</speed>
<temp>0.00</temp>
<bpm>0</bpm>
<rpm>0.00</rpm>
</extensions>
</trkpt>
<trkpt lat="30.863609314" lon="34.773273468">
<ele>500.320313</ele>
<time>2013-11-20T12:21:34Z</time>
<speed>3.540000</speed>
<extensions>
<speed>3.5</speed>
<temp>0.00</temp>
<bpm>0</bpm>
<rpm>0.00</rpm>
</extensions>
</trkpt>
<trkpt lat="30.863582611" lon="34.773159027">
<ele>501.445313</ele>
<time>2013-11-20T12:21:39Z</time>
<speed>2.440000</speed>
<extensions>
<speed>2.4</speed>
<temp>0.00</temp>
<bpm>0</bpm>
<rpm>0.00</rpm>
</extensions>
</trkpt>
<trkpt lat="30.863573074" lon="34.773025513">
<ele>502.125000</ele>
<time>2013-11-20T12:21:44Z</time>
<speed>3.110000</speed>
<extensions>
<speed>3.1</speed>
<temp>0.00</temp>
<bpm>0</bpm>
<rpm>0.00</rpm>
</extensions>
</trkpt>
<trkpt lat="30.863557816" lon="34.772808075">
<ele>500.132813</ele>
<time>2013-11-20T12:21:49Z</time>
<speed>4.300000</speed>
<extensions>
<speed>4.3</speed>
<temp>0.00</temp>
<bpm>0</bpm>
<rpm>0.00</rpm>
</extensions>
</trkpt>
<trkpt lat="30.863550186" lon="34.772586823">
<ele>500.062500</ele>
<time>2013-11-20T12:21:54Z</time>
<speed>4.390000</speed>
<extensions>
<speed>4.4</speed>
<temp>0.00</temp>
<bpm>0</bpm>
<rpm>0.00</rpm>
</extensions>
</trkpt>
<trkpt lat="30.863597870" lon="34.772411346">
<ele>500.359375</ele>
<time>2013-11-20T12:21:59Z</time>
<speed>3.630000</speed>
<extensions>
<speed>3.6</speed>
<temp>0.00</temp>
<bpm>0</bpm>
<rpm>0.00</rpm>
</extensions>
</trkpt>
<trkpt lat="30.863758087" lon="34.772281647">
<ele>499.609375</ele>
<time>2013-11-20T12:22:04Z</time>
<speed>4.590000</speed>
<extensions>
<speed>4.6</speed>
<temp>0.00</temp>
<bpm>0</bpm>
<rpm>0.00</rpm>
</extensions>
</trkpt>
<trkpt lat="30.863920212" lon="34.772174835">
<ele>500.070313</ele>
<time>2013-11-20T12:22:09Z</time>
<speed>4.080000</speed>
<extensions>
<speed>4.1</speed>
<temp>0.00</temp>
<bpm>0</bpm>
<rpm>0.00</rpm>
</extensions>
</trkpt>
<trkpt lat="30.864040375" lon="34.772037506">
<ele>501.117188</ele>
<time>2013-11-20T12:22:14Z</time>
<speed>3.580000</speed>
<extensions>
<speed>3.6</speed>
<temp>0.00</temp>
<bpm>0</bpm>
<rpm>0.00</rpm>
</extensions>
</trkpt>
<trkpt lat="30.864107132" lon="34.771854401">
<ele>501.218750</ele>
<time>2013-11-20T12:22:19Z</time>
<speed>4.030000</speed>
<extensions>
<speed>4.0</speed>
<temp>0.00</temp>
<bpm>0</bpm>
<rpm>0.00</rpm>
</extensions>
</trkpt>
<trkpt lat="30.864143372" lon="34.771629333">
<ele>498.953125</ele>
<time>2013-11-20T12:22:24Z</time>
<speed>4.550000</speed>
<extensions>
<speed>4.5</speed>
<temp>0.00</temp>
<bpm>0</bpm>
<rpm>0.00</rpm>
</extensions>
</trkpt>
<trkpt lat="30.864202499" lon="34.771396637">
<ele>500.609375</ele>
<time>2013-11-20T12:22:29Z</time>
<speed>4.070000</speed>
<extensions>
<speed>4.1</speed>
<temp>0.00</temp>
<bpm>0</bpm>
<rpm>0.00</rpm>
</extensions>
</trkpt>
<trkpt lat="30.864322662" lon="34.771213531">
<ele>502.312500</ele>
<time>2013-11-20T12:22:34Z</time>
<speed>4.620000</speed>
<extensions>
<speed>4.6</speed>
<temp>0.00</temp>
<bpm>0</bpm>
<rpm>0.00</rpm>
</extensions>
</trkpt>
<trkpt lat="30.864450455" lon="34.771038055">
<ele>502.304688</ele>
<time>2013-11-20T12:22:39Z</time>
<speed>3.940000</speed>
<extensions>
<speed>3.9</speed>
<temp>0.00</temp>
<bpm>0</bpm>
<rpm>0.00</rpm>
</extensions>
</trkpt>
<trkpt lat="30.864551544" lon="34.770874023">
<ele>501.851563</ele>
<time>2013-11-20T12:22:44Z</time>
<speed>3.720000</speed>
<extensions>
<speed>3.7</speed>
<temp>0.00</temp>
<bpm>0</bpm>
<rpm>0.00</rpm>
</extensions>
</trkpt>
<trkpt lat="30.864700317" lon="34.770778656">
<ele>506.007813</ele>
<time>2013-11-20T12:22:49Z</time>
<speed>4.040000</speed>
<extensions>
<speed>4.0</speed>
<temp>0.00</temp>
<bpm>0</bpm>
<rpm>0.00</rpm>
</extensions>
</trkpt>
<trkpt lat="30.864839554" lon="34.770679474">
<ele>508.468750</ele>
<time>2013-11-20T12:22:54Z</time>
<speed>3.930000</speed>
<extensions>
<speed>3.9</speed>
<temp>0.00</temp>
<bpm>0</bpm>
<rpm>0.00</rpm>
</extensions>
</trkpt>
<trkpt lat="30.865005493" lon="34.770576477">
<ele>513.718750</ele>
<time>2013-11-20T12:22:59Z</time>
<speed>4.230000</speed>
<extensions>
<speed>4.2</speed>
<temp>0.00</temp>
<bpm>0</bpm>
<rpm>0.00</rpm>
</extensions>
</trkpt>
<trkpt lat="30.865150452" lon="34.770477295">
<ele>511.718750</ele>
<time>2013-11-20T12:23:04Z</time>
<speed>2.530000</speed>
<extensions>
<speed>2.5</speed>
<temp>0.00</temp>
<bpm>0</bpm>
<rpm>0.00</rpm>
</extensions>
</trkpt>
<trkpt lat="30.865230560" lon="34.770416260">
<ele>510.390625</ele>
<time>2013-11-20T12:23:09Z</time>
<speed>2.060000</speed>
<extensions>
<speed>2.1</speed>
<temp>0.00</temp>
<bpm>0</bpm>
<rpm>0.00</rpm>
</extensions>
</trkpt>
<trkpt lat="30.865337372" lon="34.770336151">
<ele>508.898438</ele>
<time>2013-11-20T12:23:14Z</time>
<speed>2.860000</speed>
<extensions>
<speed>2.9</speed>
<temp>0.00</temp>
<bpm>0</bpm>
<rpm>0.00</rpm>
</extensions>
</trkpt>
<trkpt lat="30.865459442" lon="34.770282745">
<ele>508.320313</ele>
<time>2013-11-20T12:23:19Z</time>
<speed>2.590000</speed>
<extensions>
<speed>2.6</speed>
<temp>0.00</temp>
<bpm>0</bpm>
<rpm>0.00</rpm>
</extensions>
</trkpt>
<trkpt lat="30.865575790" lon="34.770191193">
<ele>507.929688</ele>
<time>2013-11-20T12:23:24Z</time>
<speed>3.830000</speed>
<extensions>
<speed>3.8</speed>
<temp>0.00</temp>
<bpm>0</bpm>
<rpm>0.00</rpm>
</extensions>
</trkpt>
<trkpt lat="30.865713120" lon="34.770114899">
<ele>507.203125</ele>
<time>2013-11-20T12:23:29Z</time>
<speed>3.400000</speed>
<extensions>
<speed>3.4</speed>
<temp>0.00</temp>
<bpm>0</bpm>
<rpm>0.00</rpm>
</extensions>
</trkpt>
<trkpt lat="30.865863800" lon="34.770042419">
<ele>505.398438</ele>
<time>2013-11-20T12:23:34Z</time>
<speed>3.910000</speed>
<extensions>
<speed>3.9</speed>
<temp>0.00</temp>
<bpm>0</bpm>
<rpm>0.00</rpm>
</extensions>
</trkpt>
<trkpt lat="30.866064072" lon="34.770023346">
<ele>504.343750</ele>
<time>2013-11-20T12:23:39Z</time>
<speed>4.850000</speed>
<extensions>
<speed>4.8</speed>
<temp>0.00</temp>
<bpm>0</bpm>
<rpm>0.00</rpm>
</extensions>
</trkpt>
<trkpt lat="30.866260529" lon="34.769985199">
<ele>502.882813</ele>
<time>2013-11-20T12:23:44Z</time>
<speed>4.830000</speed>
<extensions>
<speed>4.8</speed>
<temp>0.00</temp>
<bpm>0</bpm>
<rpm>0.00</rpm>
</extensions>
</trkpt>
<trkpt lat="30.866498947" lon="34.769989014">
<ele>500.914063</ele>
<time>2013-11-20T12:23:49Z</time>
<speed>5.620000</speed>
<extensions>
<speed>5.6</speed>
<temp>0.00</temp>
<bpm>0</bpm>
<rpm>0.00</rpm>
</extensions>
</trkpt>
<trkpt lat="30.866771698" lon="34.770034790">
<ele>499.351563</ele>
<time>2013-11-20T12:23:54Z</time>
<speed>5.860000</speed>
<extensions>
<speed>5.9</speed>
<temp>0.00</temp>
<bpm>0</bpm>
<rpm>0.00</rpm>
</extensions>
</trkpt>
<trkpt lat="30.867027283" lon="34.770046234">
<ele>499.718750</ele>
<time>2013-11-20T12:23:59Z</time>
<speed>5.960000</speed>
<extensions>
<speed>6.0</speed>
<temp>0.00</temp>
<bpm>0</bpm>
<rpm>0.00</rpm>
</extensions>
</trkpt>
<trkpt lat="30.867288589" lon="34.770030975">
<ele>498.484375</ele>
<time>2013-11-20T12:24:04Z</time>
<speed>5.770000</speed>
<extensions>
<speed>5.8</speed>
<temp>0.00</temp>
<bpm>0</bpm>
<rpm>0.00</rpm>
</extensions>
</trkpt>
<trkpt lat="30.867540359" lon="34.769935608">
<ele>499.093750</ele>
<time>2013-11-20T12:24:09Z</time>
<speed>5.120000</speed>
<extensions>
<speed>5.1</speed>
<temp>0.00</temp>
<bpm>0</bpm>
<rpm>0.00</rpm>
</extensions>
</trkpt>
<trkpt lat="30.867794037" lon="34.769832611">
<ele>499.390625</ele>
<time>2013-11-20T12:24:14Z</time>
<speed>6.230000</speed>
<extensions>
<speed>6.2</speed>
<temp>0.00</temp>
<bpm>0</bpm>
<rpm>0.00</rpm>
</extensions>
</trkpt>
<trkpt lat="30.868053436" lon="34.769802094">
<ele>498.921875</ele>
<time>2013-11-20T12:24:19Z</time>
<speed>5.790000</speed>
<extensions>
<speed>5.8</speed>
<temp>0.00</temp>
<bpm>0</bpm>
<rpm>0.00</rpm>
</extensions>
</trkpt>
<trkpt lat="30.868312836" lon="34.769752502">
<ele>498.140625</ele>
<time>2013-11-20T12:24:24Z</time>
<speed>5.900000</speed>
<extensions>
<speed>5.9</speed>
<temp>0.00</temp>
<bpm>0</bpm>
<rpm>0.00</rpm>
</extensions>
</trkpt>
<trkpt lat="30.868574142" lon="34.769699097">
<ele>496.015625</ele>
<time>2013-11-20T12:24:29Z</time>
<speed>5.710000</speed>
<extensions>
<speed>5.7</speed>
<temp>0.00</temp>
<bpm>0</bpm>
<rpm>0.00</rpm>
</extensions>
</trkpt>
<trkpt lat="30.868846893" lon="34.769683838">
<ele>494.453125</ele>
<time>2013-11-20T12:24:34Z</time>
<speed>6.470000</speed>
<extensions>
<speed>6.5</speed>
<temp>0.00</temp>
<bpm>0</bpm>
<rpm>0.00</rpm>
</extensions>
</trkpt>
<trkpt lat="30.869146347" lon="34.769577026">
<ele>495.546875</ele>
<time>2013-11-20T12:24:39Z</time>
<speed>7.250000</speed>
<extensions>
<speed>7.3</speed>
<temp>0.00</temp>
<bpm>0</bpm>
<rpm>0.00</rpm>
</extensions>
</trkpt>
<trkpt lat="30.869451523" lon="34.769397736">
<ele>494.851563</ele>
<time>2013-11-20T12:24:44Z</time>
<speed>6.510000</speed>
<extensions>
<speed>6.5</speed>
<temp>0.00</temp>
<bpm>0</bpm>
<rpm>0.00</rpm>
</extensions>
</trkpt>
<trkpt lat="30.869709015" lon="34.769348145">
<ele>495.429688</ele>
<time>2013-11-20T12:24:49Z</time>
<speed>5.700000</speed>
<extensions>
<speed>5.7</speed>
<temp>0.00</temp>
<bpm>0</bpm>
<rpm>0.00</rpm>
</extensions>
</trkpt>
<trkpt lat="30.869958878" lon="34.769203186">
<ele>496.187500</ele>
<time>2013-11-20T12:24:54Z</time>
<speed>5.860000</speed>
<extensions>
<speed>5.9</speed>
<temp>0.00</temp>
<bpm>0</bpm>
<rpm>0.00</rpm>
</extensions>
</trkpt>
<trkpt lat="30.870195389" lon="34.769020081">
<ele>494.281250</ele>
<time>2013-11-20T12:24:59Z</time>
<speed>6.280000</speed>
<extensions>
<speed>6.3</speed>
<temp>0.00</temp>
<bpm>0</bpm>
<rpm>0.00</rpm>
</extensions>
</trkpt>
<trkpt lat="30.870422363" lon="34.768859863">
<ele>495.312500</ele>
<time>2013-11-20T12:25:04Z</time>
<speed>5.580000</speed>
<extensions>
<speed>5.6</speed>
<temp>0.00</temp>
<bpm>0</bpm>
<rpm>0.00</rpm>
</extensions>
</trkpt>
<trkpt lat="30.870647430" lon="34.768730164">
<ele>495.500000</ele>
<time>2013-11-20T12:25:09Z</time>
<speed>5.070000</speed>
<extensions>
<speed>5.1</speed>
<temp>0.00</temp>
<bpm>0</bpm>
<rpm>0.00</rpm>
</extensions>
</trkpt>
<trkpt lat="30.870777130" lon="34.768581390">
<ele>493.765625</ele>
<time>2013-11-20T12:25:14Z</time>
<speed>3.570000</speed>
<extensions>
<speed>3.6</speed>
<temp>0.00</temp>
<bpm>0</bpm>
<rpm>0.00</rpm>
</extensions>
</trkpt>
<trkpt lat="30.870777130" lon="34.768493652">
<ele>492.726563</ele>
<time>2013-11-20T12:25:19Z</time>
<speed>0.310000</speed>
<extensions>
<speed>0.3</speed>
<temp>0.00</temp>
<bpm>0</bpm>
<rpm>0.00</rpm>
</extensions>
</trkpt>
<trkpt lat="30.870765686" lon="34.768489838">
<ele>492.328125</ele>
<time>2013-11-20T12:25:24Z</time>
<speed>0.120000</speed>
<extensions>
<speed>0.1</speed>
<temp>0.00</temp>
<bpm>0</bpm>
<rpm>0.00</rpm>
</extensions>
</trkpt>
<trkpt lat="30.870763779" lon="34.768489838">
<ele>492.265625</ele>
<time>2013-11-20T12:25:29Z</time>
<speed>0.020000</speed>
<extensions>
<speed>0.0</speed>
<temp>0.00</temp>
<bpm>0</bpm>
<rpm>0.00</rpm>
</extensions>
</trkpt>
<trkpt lat="30.870765686" lon="34.768493652">
<ele>492.242188</ele>
<time>2013-11-20T12:25:34Z</time>
<speed>0.670000</speed>
<extensions>
<speed>0.7</speed>
<temp>0.00</temp>
<bpm>0</bpm>
<rpm>0.00</rpm>
</extensions>
</trkpt>
<trkpt lat="30.870801926" lon="34.768554688">
<ele>492.078125</ele>
<time>2013-11-20T12:25:39Z</time>
<speed>2.610000</speed>
<extensions>
<speed>2.6</speed>
<temp>0.00</temp>
<bpm>0</bpm>
<rpm>0.00</rpm>
</extensions>
</trkpt>
<trkpt lat="30.870920181" lon="34.768531799">
<ele>491.742188</ele>
<time>2013-11-20T12:25:44Z</time>
<speed>3.420000</speed>
<extensions>
<speed>3.4</speed>
<temp>0.00</temp>
<bpm>0</bpm>
<rpm>0.00</rpm>
</extensions>
</trkpt>
<trkpt lat="30.871078491" lon="34.768424988">
<ele>492.148438</ele>
<time>2013-11-20T12:25:49Z</time>
<speed>4.460000</speed>
<extensions>
<speed>4.5</speed>
<temp>0.00</temp>
<bpm>0</bpm>
<rpm>0.00</rpm>
</extensions>
</trkpt>
<trkpt lat="30.871263504" lon="34.768302917">
<ele>496.000000</ele>
<time>2013-11-20T12:25:54Z</time>
<speed>4.510000</speed>
<extensions>
<speed>4.5</speed>
<temp>0.00</temp>
<bpm>0</bpm>
<rpm>0.00</rpm>
</extensions>
</trkpt>
<trkpt lat="30.871406555" lon="34.768127441">
<ele>495.718750</ele>
<time>2013-11-20T12:25:59Z</time>
<speed>4.590000</speed>
<extensions>
<speed>4.6</speed>
<temp>0.00</temp>
<bpm>0</bpm>
<rpm>0.00</rpm>
</extensions>
</trkpt>
<trkpt lat="30.871551514" lon="34.767967224">
<ele>496.031250</ele>
<time>2013-11-20T12:26:04Z</time>
<speed>4.070000</speed>
<extensions>
<speed>4.1</speed>
<temp>0.00</temp>
<bpm>0</bpm>
<rpm>0.00</rpm>
</extensions>
</trkpt>
<trkpt lat="30.871679306" lon="34.767860413">
<ele>495.734375</ele>
<time>2013-11-20T12:26:09Z</time>
<speed>2.600000</speed>
<extensions>
<speed>2.6</speed>
<temp>0.00</temp>
<bpm>0</bpm>
<rpm>0.00</rpm>
</extensions>
</trkpt>
<trkpt lat="30.871709824" lon="34.767841339">
<ele>494.546875</ele>
<time>2013-11-20T12:26:14Z</time>
<speed>0.140000</speed>
<extensions>
<speed>0.1</speed>
<temp>0.00</temp>
<bpm>0</bpm>
<rpm>0.00</rpm>
</extensions>
</trkpt>
<trkpt lat="30.871707916" lon="34.767837524">
<ele>494.296875</ele>
<time>2013-11-20T12:26:19Z</time>
<speed>0.060000</speed>
<extensions>
<speed>0.1</speed>
<temp>0.00</temp>
<bpm>0</bpm>
<rpm>0.00</rpm>
</extensions>
</trkpt>
<trkpt lat="30.871706009" lon="34.767837524">
<ele>494.304688</ele>
<time>2013-11-20T12:26:24Z</time>
<speed>0.030000</speed>
<extensions>
<speed>0.0</speed>
<temp>0.00</temp>
<bpm>0</bpm>
<rpm>0.00</rpm>
</extensions>
</trkpt>
<trkpt lat="30.871704102" lon="34.767833710">
<ele>494.320313</ele>
<time>2013-11-20T12:26:29Z</time>
<speed>0.110000</speed>
<extensions>
<speed>0.1</speed>
<temp>0.00</temp>
<bpm>0</bpm>
<rpm>0.00</rpm>
</extensions>
</trkpt>
<trkpt lat="30.871704102" lon="34.767833710">
<ele>494.367188</ele>
<time>2013-11-20T12:26:34Z</time>
<speed>0.020000</speed>
<extensions>
<speed>0.0</speed>
<temp>0.00</temp>
<bpm>0</bpm>
<rpm>0.00</rpm>
</extensions>
</trkpt>
<trkpt lat="30.871704102" lon="34.767833710">
<ele>494.429688</ele>
<time>2013-11-20T12:26:39Z</time>
<speed>0.030000</speed>
<extensions>
<speed>0.0</speed>
<temp>0.00</temp>
<bpm>0</bpm>
<rpm>0.00</rpm>
</extensions>
</trkpt>
<trkpt lat="30.871702194" lon="34.767833710">
<ele>494.515625</ele>
<time>2013-11-20T12:26:44Z</time>
<speed>0.100000</speed>
<extensions>
<speed>0.1</speed>
<temp>0.00</temp>
<bpm>0</bpm>
<rpm>0.00</rpm>
</extensions>
</trkpt>
<trkpt lat="30.871704102" lon="34.767837524">
<ele>494.578125</ele>
<time>2013-11-20T12:26:49Z</time>
<speed>0.070000</speed>
<extensions>
<speed>0.1</speed>
<temp>0.00</temp>
<bpm>0</bpm>
<rpm>0.00</rpm>
</extensions>
</trkpt>
<trkpt lat="30.871704102" lon="34.767837524">
<ele>494.617188</ele>
<time>2013-11-20T12:26:54Z</time>
<speed>0.030000</speed>
<extensions>
<speed>0.0</speed>
<temp>0.00</temp>
<bpm>0</bpm>
<rpm>0.00</rpm>
</extensions>
</trkpt>
<trkpt lat="30.871706009" lon="34.767833710">
<ele>494.664063</ele>
<time>2013-11-20T12:26:59Z</time>
<speed>0.070000</speed>
<extensions>
<speed>0.1</speed>
<temp>0.00</temp>
<bpm>0</bpm>
<rpm>0.00</rpm>
</extensions>
</trkpt>
<trkpt lat="30.871704102" lon="34.767826080">
<ele>494.750000</ele>
<time>2013-11-20T12:27:04Z</time>
<speed>0.130000</speed>
<extensions>
<speed>0.1</speed>
<temp>0.00</temp>
<bpm>0</bpm>
<rpm>0.00</rpm>
</extensions>
</trkpt>
<trkpt lat="30.871704102" lon="34.767822266">
<ele>494.820313</ele>
<time>2013-11-20T12:27:09Z</time>
<speed>0.160000</speed>
<extensions>
<speed>0.2</speed>
<temp>0.00</temp>
<bpm>0</bpm>
<rpm>0.00</rpm>
</extensions>
</trkpt>
<trkpt lat="30.871709824" lon="34.767814636">
<ele>494.867188</ele>
<time>2013-11-20T12:27:14Z</time>
<speed>0.210000</speed>
<extensions>
<speed>0.2</speed>
<temp>0.00</temp>
<bpm>0</bpm>
<rpm>0.00</rpm>
</extensions>
</trkpt>
<trkpt lat="30.871713638" lon="34.767807007">
<ele>494.890625</ele>
<time>2013-11-20T12:27:19Z</time>
<speed>0.110000</speed>
<extensions>
<speed>0.1</speed>
<temp>0.00</temp>
<bpm>0</bpm>
<rpm>0.00</rpm>
</extensions>
</trkpt>
<trkpt lat="30.871709824" lon="34.767803192">
<ele>494.929688</ele>
<time>2013-11-20T12:27:24Z</time>
<speed>0.860000</speed>
<extensions>
<speed>0.9</speed>
<temp>0.00</temp>
<bpm>0</bpm>
<rpm>0.00</rpm>
</extensions>
</trkpt>
<trkpt lat="30.871858597" lon="34.767715454">
<ele>495.617188</ele>
<time>2013-11-20T12:27:29Z</time>
<speed>5.590000</speed>
<extensions>
<speed>5.6</speed>
<temp>0.00</temp>
<bpm>0</bpm>
<rpm>0.00</rpm>
</extensions>
</trkpt>
<trkpt lat="30.872089386" lon="34.767631531">
<ele>496.875000</ele>
<time>2013-11-20T12:27:34Z</time>
<speed>5.390000</speed>
<extensions>
<speed>5.4</speed>
<temp>0.00</temp>
<bpm>0</bpm>
<rpm>0.00</rpm>
</extensions>
</trkpt>
<trkpt lat="30.872354507" lon="34.767520905">
<ele>493.414063</ele>
<time>2013-11-20T12:27:39Z</time>
<speed>6.650000</speed>
<extensions>
<speed>6.7</speed>
<temp>0.00</temp>
<bpm>0</bpm>
<rpm>0.00</rpm>
</extensions>
</trkpt>
<trkpt lat="30.872655869" lon="34.767433167">
<ele>490.890625</ele>
<time>2013-11-20T12:27:44Z</time>
<speed>6.460000</speed>
<extensions>
<speed>6.5</speed>
<temp>0.00</temp>
<bpm>0</bpm>
<rpm>0.00</rpm>
</extensions>
</trkpt>
<trkpt lat="30.872903824" lon="34.767410278">
<ele>488.546875</ele>
<time>2013-11-20T12:27:49Z</time>
<speed>5.480000</speed>
<extensions>
<speed>5.5</speed>
<temp>0.00</temp>
<bpm>0</bpm>
<rpm>0.00</rpm>
</extensions>
</trkpt>
<trkpt lat="30.873117447" lon="34.767368317">
<ele>486.632813</ele>
<time>2013-11-20T12:27:54Z</time>
<speed>5.800000</speed>
<extensions>
<speed>5.8</speed>
<temp>0.00</temp>
<bpm>0</bpm>
<rpm>0.00</rpm>
</extensions>
</trkpt>
<trkpt lat="30.873308182" lon="34.767181396">
<ele>485.929688</ele>
<time>2013-11-20T12:27:59Z</time>
<speed>4.470000</speed>
<extensions>
<speed>4.5</speed>
<temp>0.00</temp>
<bpm>0</bpm>
<rpm>0.00</rpm>
</extensions>
</trkpt>
<trkpt lat="30.873472214" lon="34.767063141">
<ele>485.976563</ele>
<time>2013-11-20T12:28:04Z</time>
<speed>4.510000</speed>
<extensions>
<speed>4.5</speed>
<temp>0.00</temp>
<bpm>0</bpm>
<rpm>0.00</rpm>
</extensions>
</trkpt>
<trkpt lat="30.873657227" lon="34.766937256">
<ele>487.335938</ele>
<time>2013-11-20T12:28:09Z</time>
<speed>4.460000</speed>
<extensions>
<speed>4.5</speed>
<temp>0.00</temp>
<bpm>0</bpm>
<rpm>0.00</rpm>
</extensions>
</trkpt>
<trkpt lat="30.873806000" lon="34.766738892">
<ele>487.796875</ele>
<time>2013-11-20T12:28:14Z</time>
<speed>5.540000</speed>
<extensions>
<speed>5.5</speed>
<temp>0.00</temp>
<bpm>0</bpm>
<rpm>0.00</rpm>
</extensions>
</trkpt>
<trkpt lat="30.873962402" lon="34.766483307">
<ele>483.546875</ele>
<time>2013-11-20T12:28:19Z</time>
<speed>5.940000</speed>
<extensions>
<speed>5.9</speed>
<temp>0.00</temp>
<bpm>0</bpm>
<rpm>0.00</rpm>
</extensions>
</trkpt>
<trkpt lat="30.874143600" lon="34.766262054">
<ele>482.398438</ele>
<time>2013-11-20T12:28:24Z</time>
<speed>5.430000</speed>
<extensions>
<speed>5.4</speed>
<temp>0.00</temp>
<bpm>0</bpm>
<rpm>0.00</rpm>
</extensions>
</trkpt>
<trkpt lat="30.874378204" lon="34.766178131">
<ele>479.500000</ele>
<time>2013-11-20T12:28:29Z</time>
<speed>5.770000</speed>
<extensions>
<speed>5.8</speed>
<temp>0.00</temp>
<bpm>0</bpm>
<rpm>0.00</rpm>
</extensions>
</trkpt>
<trkpt lat="30.874635696" lon="34.766181946">
<ele>478.468750</ele>
<time>2013-11-20T12:28:34Z</time>
<speed>6.170000</speed>
<extensions>
<speed>6.2</speed>
<temp>0.00</temp>
<bpm>0</bpm>
<rpm>0.00</rpm>
</extensions>
</trkpt>
<trkpt lat="30.874891281" lon="34.766204834">
<ele>476.585938</ele>
<time>2013-11-20T12:28:39Z</time>
<speed>5.230000</speed>
<extensions>
<speed>5.2</speed>
<temp>0.00</temp>
<bpm>0</bpm>
<rpm>0.00</rpm>
</extensions>
</trkpt>
<trkpt lat="30.875101089" lon="34.766212463">
<ele>473.085938</ele>
<time>2013-11-20T12:28:44Z</time>
<speed>3.350000</speed>
<extensions>
<speed>3.4</speed>
<temp>0.00</temp>
<bpm>0</bpm>
<rpm>0.00</rpm>
</extensions>
</trkpt>
<trkpt lat="30.875270844" lon="34.766231537">
<ele>474.429688</ele>
<time>2013-11-20T12:28:49Z</time>
<speed>4.630000</speed>
<extensions>
<speed>4.6</speed>
<temp>0.00</temp>
<bpm>0</bpm>
<rpm>0.00</rpm>
</extensions>
</trkpt>
<trkpt lat="30.875513077" lon="34.766216278">
<ele>473.390625</ele>
<time>2013-11-20T12:28:54Z</time>
<speed>5.560000</speed>
<extensions>
<speed>5.6</speed>
<temp>0.00</temp>
<bpm>0</bpm>
<rpm>0.00</rpm>
</extensions>
</trkpt>
<trkpt lat="30.875743866" lon="34.766189575">
<ele>472.382813</ele>
<time>2013-11-20T12:28:59Z</time>
<speed>5.340000</speed>
<extensions>
<speed>5.3</speed>
<temp>0.00</temp>
<bpm>0</bpm>
<rpm>0.00</rpm>
</extensions>
</trkpt>
<trkpt lat="30.875988007" lon="34.766143799">
<ele>471.335938</ele>
<time>2013-11-20T12:29:04Z</time>
<speed>5.410000</speed>
<extensions>
<speed>5.4</speed>
<temp>0.00</temp>
<bpm>0</bpm>
<rpm>0.00</rpm>
</extensions>
</trkpt>
<trkpt lat="30.876232147" lon="34.766117096">
<ele>468.046875</ele>
<time>2013-11-20T12:29:09Z</time>
<speed>5.070000</speed>
<extensions>
<speed>5.1</speed>
<temp>0.00</temp>
<bpm>0</bpm>
<rpm>0.00</rpm>
</extensions>
</trkpt>
<trkpt lat="30.876432419" lon="34.766075134">
<ele>465.875000</ele>
<time>2013-11-20T12:29:14Z</time>
<speed>2.130000</speed>
<extensions>
<speed>2.1</speed>
<temp>0.00</temp>
<bpm>0</bpm>
<rpm>0.00</rpm>
</extensions>
</trkpt>
<trkpt lat="30.876459122" lon="34.766075134">
<ele>467.312500</ele>
<time>2013-11-20T12:29:19Z</time>
<speed>0.200000</speed>
<extensions>
<speed>0.2</speed>
<temp>0.00</temp>
<bpm>0</bpm>
<rpm>0.00</rpm>
</extensions>
</trkpt>
<trkpt lat="30.876466751" lon="34.766075134">
<ele>467.148438</ele>
<time>2013-11-20T12:29:24Z</time>
<speed>0.140000</speed>
<extensions>
<speed>0.1</speed>
<temp>0.00</temp>
<bpm>0</bpm>
<rpm>0.00</rpm>
</extensions>
</trkpt>
<trkpt lat="30.876470566" lon="34.766078949">
<ele>467.187500</ele>
<time>2013-11-20T12:29:29Z</time>
<speed>0.010000</speed>
<extensions>
<speed>0.0</speed>
<temp>0.00</temp>
<bpm>0</bpm>
<rpm>0.00</rpm>
</extensions>
</trkpt>
<trkpt lat="30.876457214" lon="34.766098022">
<ele>467.203125</ele>
<time>2013-11-20T12:29:34Z</time>
<speed>1.140000</speed>
<extensions>
<speed>1.1</speed>
<temp>0.00</temp>
<bpm>0</bpm>
<rpm>0.00</rpm>
</extensions>
</trkpt>
<trkpt lat="30.876436234" lon="34.766124725">
<ele>467.093750</ele>
<time>2013-11-20T12:29:39Z</time>
<speed>0.090000</speed>
<extensions>
<speed>0.1</speed>
<temp>0.00</temp>
<bpm>0</bpm>
<rpm>0.00</rpm>
</extensions>
</trkpt>
<trkpt lat="30.876430511" lon="34.766128540">
<ele>467.242188</ele>
<time>2013-11-20T12:29:44Z</time>
<speed>0.110000</speed>
<extensions>
<speed>0.1</speed>
<temp>0.00</temp>
<bpm>0</bpm>
<rpm>0.00</rpm>
</extensions>
</trkpt>
<trkpt lat="30.876428604" lon="34.766128540">
<ele>467.296875</ele>
<time>2013-11-20T12:29:49Z</time>
<speed>0.030000</speed>
<extensions>
<speed>0.0</speed>
<temp>0.00</temp>
<bpm>0</bpm>
<rpm>0.00</rpm>
</extensions>
</trkpt>
<trkpt lat="30.876428604" lon="34.766128540">
<ele>467.320313</ele>
<time>2013-11-20T12:29:54Z</time>
<speed>0.020000</speed>
<extensions>
<speed>0.0</speed>
<temp>0.00</temp>
<bpm>0</bpm>
<rpm>0.00</rpm>
</extensions>
</trkpt>
<trkpt lat="30.876428604" lon="34.766128540">
<ele>467.343750</ele>
<time>2013-11-20T12:29:59Z</time>
<extensions>
<speed>0.0</speed>
<temp>0.00</temp>
<bpm>0</bpm>
<rpm>0.00</rpm>
</extensions>
</trkpt>
<trkpt lat="30.876428604" lon="34.766128540">
<ele>467.335938</ele>
<time>2013-11-20T12:30:04Z</time>
<extensions>
<speed>0.0</speed>
<temp>0.00</temp>
<bpm>0</bpm>
<rpm>0.00</rpm>
</extensions>
</trkpt>
<trkpt lat="30.876428604" lon="34.766132355">
<ele>467.320313</ele>
<time>2013-11-20T12:30:09Z</time>
<speed>0.090000</speed>
<extensions>
<speed>0.1</speed>
<temp>0.00</temp>
<bpm>0</bpm>
<rpm>0.00</rpm>
</extensions>
</trkpt>
<trkpt lat="30.876501083" lon="34.766204834">
<ele>468.593750</ele>
<time>2013-11-20T12:30:14Z</time>
<speed>3.320000</speed>
<extensions>
<speed>3.3</speed>
<temp>0.00</temp>
<bpm>0</bpm>
<rpm>0.00</rpm>
</extensions>
</trkpt>
<trkpt lat="30.876615524" lon="34.766334534">
<ele>470.343750</ele>
<time>2013-11-20T12:30:19Z</time>
<speed>2.740000</speed>
<extensions>
<speed>2.7</speed>
<temp>0.00</temp>
<bpm>0</bpm>
<rpm>0.00</rpm>
</extensions>
</trkpt>
<trkpt lat="30.876720428" lon="34.766414642">
<ele>470.406250</ele>
<time>2013-11-20T12:30:24Z</time>
<speed>2.610000</speed>
<extensions>
<speed>2.6</speed>
<temp>0.00</temp>
<bpm>0</bpm>
<rpm>0.00</rpm>
</extensions>
</trkpt>
<trkpt lat="30.876859665" lon="34.766525269">
<ele>470.789063</ele>
<time>2013-11-20T12:30:29Z</time>
<speed>3.790000</speed>
<extensions>
<speed>3.8</speed>
<temp>0.00</temp>
<bpm>0</bpm>
<rpm>0.00</rpm>
</extensions>
</trkpt>
<trkpt lat="30.876970291" lon="34.766689301">
<ele>470.437500</ele>
<time>2013-11-20T12:30:34Z</time>
<speed>4.160000</speed>
<extensions>
<speed>4.2</speed>
<temp>0.00</temp>
<bpm>0</bpm>
<rpm>0.00</rpm>
</extensions>
</trkpt>
<trkpt lat="30.877050400" lon="34.766944885">
<ele>471.734375</ele>
<time>2013-11-20T12:30:39Z</time>
<speed>5.350000</speed>
<extensions>
<speed>5.4</speed>
<temp>0.00</temp>
<bpm>0</bpm>
<rpm>0.00</rpm>
</extensions>
</trkpt>
<trkpt lat="30.877132416" lon="34.767181396">
<ele>476.000000</ele>
<time>2013-11-20T12:30:44Z</time>
<speed>3.500000</speed>
<extensions>
<speed>3.5</speed>
<temp>0.00</temp>
<bpm>0</bpm>
<rpm>0.00</rpm>
</extensions>
</trkpt>
<trkpt lat="30.877120972" lon="34.767341614">
<ele>477.117188</ele>
<time>2013-11-20T12:30:49Z</time>
<speed>2.850000</speed>
<extensions>
<speed>2.9</speed>
<temp>0.00</temp>
<bpm>0</bpm>
<rpm>0.00</rpm>
</extensions>
</trkpt>
<trkpt lat="30.877099991" lon="34.767494202">
<ele>478.343750</ele>
<time>2013-11-20T12:30:54Z</time>
<speed>3.030000</speed>
<extensions>
<speed>3.0</speed>
<temp>0.00</temp>
<bpm>0</bpm>
<rpm>0.00</rpm>
</extensions>
</trkpt>
<trkpt lat="30.877145767" lon="34.767650604">
<ele>477.562500</ele>
<time>2013-11-20T12:30:59Z</time>
<speed>3.100000</speed>
<extensions>
<speed>3.1</speed>
<temp>0.00</temp>
<bpm>0</bpm>
<rpm>0.00</rpm>
</extensions>
</trkpt>
<trkpt lat="30.877252579" lon="34.767734528">
<ele>479.078125</ele>
<time>2013-11-20T12:31:04Z</time>
<speed>2.710000</speed>
<extensions>
<speed>2.7</speed>
<temp>0.00</temp>
<bpm>0</bpm>
<rpm>0.00</rpm>
</extensions>
</trkpt>
<trkpt lat="30.877347946" lon="34.767776489">
<ele>478.382813</ele>
<time>2013-11-20T12:31:09Z</time>
<speed>2.250000</speed>
<extensions>
<speed>2.3</speed>
<temp>0.00</temp>
<bpm>0</bpm>
<rpm>0.00</rpm>
</extensions>
</trkpt>
<trkpt lat="30.877378464" lon="34.767791748">
<ele>476.968750</ele>
<time>2013-11-20T12:31:14Z</time>
<speed>0.150000</speed>
<extensions>
<speed>0.2</speed>
<temp>0.00</temp>
<bpm>0</bpm>
<rpm>0.00</rpm>
</extensions>
</trkpt>
<trkpt lat="30.877374649" lon="34.767791748">
<ele>477.164063</ele>
<time>2013-11-20T12:31:19Z</time>
<speed>0.020000</speed>
<extensions>
<speed>0.0</speed>
<temp>0.00</temp>
<bpm>0</bpm>
<rpm>0.00</rpm>
</extensions>
</trkpt>
<trkpt lat="30.877374649" lon="34.767791748">
<ele>477.226563</ele>
<time>2013-11-20T12:31:24Z</time>
<speed>0.010000</speed>
<extensions>
<speed>0.0</speed>
<temp>0.00</temp>
<bpm>0</bpm>
<rpm>0.00</rpm>
</extensions>
</trkpt>
<trkpt lat="30.877372742" lon="34.767795563">
<ele>477.281250</ele>
<time>2013-11-20T12:31:29Z</time>
<speed>0.020000</speed>
<extensions>
<speed>0.0</speed>
<temp>0.00</temp>
<bpm>0</bpm>
<rpm>0.00</rpm>
</extensions>
</trkpt>
<trkpt lat="30.877370834" lon="34.767795563">
<ele>477.351563</ele>
<time>2013-11-20T12:31:34Z</time>
<speed>0.320000</speed>
<extensions>
<speed>0.3</speed>
<temp>0.00</temp>
<bpm>0</bpm>
<rpm>0.00</rpm>
</extensions>
</trkpt>
<trkpt lat="30.877445221" lon="34.767856598">
<ele>477.734375</ele>
<time>2013-11-20T12:31:39Z</time>
<speed>3.000000</speed>
<extensions>
<speed>3.0</speed>
<temp>0.00</temp>
<bpm>0</bpm>
<rpm>0.00</rpm>
</extensions>
</trkpt>
<trkpt lat="30.877569199" lon="34.767967224">
<ele>479.359375</ele>
<time>2013-11-20T12:31:44Z</time>
<speed>3.050000</speed>
<extensions>
<speed>3.0</speed>
<temp>0.00</temp>
<bpm>0</bpm>
<rpm>0.00</rpm>
</extensions>
</trkpt>
<trkpt lat="30.877737045" lon="34.767971039">
<ele>478.578125</ele>
<time>2013-11-20T12:31:49Z</time>
<speed>4.720000</speed>
<extensions>
<speed>4.7</speed>
<temp>0.00</temp>
<bpm>0</bpm>
<rpm>0.00</rpm>
</extensions>
</trkpt>
<trkpt lat="30.877916336" lon="34.767932892">
<ele>483.101563</ele>
<time>2013-11-20T12:31:54Z</time>
<speed>2.470000</speed>
<extensions>
<speed>2.5</speed>
<temp>0.00</temp>
<bpm>0</bpm>
<rpm>0.00</rpm>
</extensions>
</trkpt>
<trkpt lat="30.878007889" lon="34.767902374">
<ele>484.445313</ele>
<time>2013-11-20T12:31:59Z</time>
<speed>1.790000</speed>
<extensions>
<speed>1.8</speed>
<temp>0.00</temp>
<bpm>0</bpm>
<rpm>0.00</rpm>
</extensions>
</trkpt>
<trkpt lat="30.878095627" lon="34.767940521">
<ele>487.281250</ele>
<time>2013-11-20T12:32:04Z</time>
<speed>2.400000</speed>
<extensions>
<speed>2.4</speed>
<temp>0.00</temp>
<bpm>0</bpm>
<rpm>0.00</rpm>
</extensions>
</trkpt>
<trkpt lat="30.878242493" lon="34.767982483">
<ele>490.335938</ele>
<time>2013-11-20T12:32:09Z</time>
<speed>3.400000</speed>
<extensions>
<speed>3.4</speed>
<temp>0.00</temp>
<bpm>0</bpm>
<rpm>0.00</rpm>
</extensions>
</trkpt>
<trkpt lat="30.878387451" lon="34.768081665">
<ele>490.882813</ele>
<time>2013-11-20T12:32:14Z</time>
<speed>3.900000</speed>
<extensions>
<speed>3.9</speed>
<temp>0.00</temp>
<bpm>0</bpm>
<rpm>0.00</rpm>
</extensions>
</trkpt>
<trkpt lat="30.878463745" lon="34.768169403">
<ele>490.023438</ele>
<time>2013-11-20T12:32:19Z</time>
<speed>0.120000</speed>
<extensions>
<speed>0.1</speed>
<temp>0.00</temp>
<bpm>0</bpm>
<rpm>0.00</rpm>
</extensions>
</trkpt>
<trkpt lat="30.878465652" lon="34.768161774">
<ele>489.890625</ele>
<time>2013-11-20T12:32:24Z</time>
<speed>0.040000</speed>
<extensions>
<speed>0.0</speed>
<temp>0.00</temp>
<bpm>0</bpm>
<rpm>0.00</rpm>
</extensions>
</trkpt>
<trkpt lat="30.878465652" lon="34.768161774">
<ele>489.851563</ele>
<time>2013-11-20T12:32:29Z</time>
<speed>0.030000</speed>
<extensions>
<speed>0.0</speed>
<temp>0.00</temp>
<bpm>0</bpm>
<rpm>0.00</rpm>
</extensions>
</trkpt>
<trkpt lat="30.878465652" lon="34.768161774">
<ele>489.851563</ele>
<time>2013-11-20T12:32:34Z</time>
<speed>0.130000</speed>
<extensions>
<speed>0.1</speed>
<temp>0.00</temp>
<bpm>0</bpm>
<rpm>0.00</rpm>
</extensions>
</trkpt>
<trkpt lat="30.878465652" lon="34.768165588">
<ele>489.859375</ele>
<time>2013-11-20T12:32:39Z</time>
<speed>0.010000</speed>
<extensions>
<speed>0.0</speed>
<temp>0.00</temp>
<bpm>0</bpm>
<rpm>0.00</rpm>
</extensions>
</trkpt>
<trkpt lat="30.878463745" lon="34.768165588">
<ele>489.867188</ele>
<time>2013-11-20T12:32:44Z</time>
<speed>0.010000</speed>
<extensions>
<speed>0.0</speed>
<temp>0.00</temp>
<bpm>0</bpm>
<rpm>0.00</rpm>
</extensions>
</trkpt>
<trkpt lat="30.878465652" lon="34.768165588">
<ele>489.835938</ele>
<time>2013-11-20T12:32:49Z</time>
<speed>0.120000</speed>
<extensions>
<speed>0.1</speed>
<temp>0.00</temp>
<bpm>0</bpm>
<rpm>0.00</rpm>
</extensions>
</trkpt>
<trkpt lat="30.878463745" lon="34.768169403">
<ele>489.812500</ele>
<time>2013-11-20T12:32:54Z</time>
<speed>0.020000</speed>
<extensions>
<speed>0.0</speed>
<temp>0.00</temp>
<bpm>0</bpm>
<rpm>0.00</rpm>
</extensions>
</trkpt>
<trkpt lat="30.878463745" lon="34.768169403">
<ele>489.796875</ele>
<time>2013-11-20T12:32:59Z</time>
<extensions>
<speed>0.0</speed>
<temp>0.00</temp>
<bpm>0</bpm>
<rpm>0.00</rpm>
</extensions>
</trkpt>
<trkpt lat="30.878459930" lon="34.768165588">
<ele>489.710938</ele>
<time>2013-11-20T12:33:04Z</time>
<speed>0.160000</speed>
<extensions>
<speed>0.2</speed>
<temp>0.00</temp>
<bpm>0</bpm>
<rpm>0.00</rpm>
</extensions>
</trkpt>
<trkpt lat="30.878454208" lon="34.768161774">
<ele>489.593750</ele>
<time>2013-11-20T12:33:09Z</time>
<speed>0.060000</speed>
<extensions>
<speed>0.1</speed>
<temp>0.00</temp>
<bpm>0</bpm>
<rpm>0.00</rpm>
</extensions>
</trkpt>
<trkpt lat="30.878454208" lon="34.768157959">
<ele>489.453125</ele>
<time>2013-11-20T12:33:14Z</time>
<speed>0.030000</speed>
<extensions>
<speed>0.0</speed>
<temp>0.00</temp>
<bpm>0</bpm>
<rpm>0.00</rpm>
</extensions>
</trkpt>
<trkpt lat="30.878454208" lon="34.768157959">
<ele>489.343750</ele>
<time>2013-11-20T12:33:19Z</time>
<extensions>
<speed>0.0</speed>
<temp>0.00</temp>
<bpm>0</bpm>
<rpm>0.00</rpm>
</extensions>
</trkpt>
<trkpt lat="30.878454208" lon="34.768157959">
<ele>489.304688</ele>
<time>2013-11-20T12:33:24Z</time>
<extensions>
<speed>0.0</speed>
<temp>0.00</temp>
<bpm>0</bpm>
<rpm>0.00</rpm>
</extensions>
</trkpt>
<trkpt lat="30.878454208" lon="34.768157959">
<ele>489.265625</ele>
<time>2013-11-20T12:33:29Z</time>
<speed>0.010000</speed>
<extensions>
<speed>0.0</speed>
<temp>0.00</temp>
<bpm>0</bpm>
<rpm>0.00</rpm>
</extensions>
</trkpt>
<trkpt lat="30.878454208" lon="34.768157959">
<ele>489.218750</ele>
<time>2013-11-20T12:33:34Z</time>
<speed>0.010000</speed>
<extensions>
<speed>0.0</speed>
<temp>0.00</temp>
<bpm>0</bpm>
<rpm>0.00</rpm>
</extensions>
</trkpt>
<trkpt lat="30.878454208" lon="34.768157959">
<ele>489.171875</ele>
<time>2013-11-20T12:33:39Z</time>
<extensions>
<speed>0.0</speed>
<temp>0.00</temp>
<bpm>0</bpm>
<rpm>0.00</rpm>
</extensions>
</trkpt>
<trkpt lat="30.878454208" lon="34.768157959">
<ele>489.117188</ele>
<time>2013-11-20T12:33:44Z</time>
<extensions>
<speed>0.0</speed>
<temp>0.00</temp>
<bpm>0</bpm>
<rpm>0.00</rpm>
</extensions>
</trkpt>
<trkpt lat="30.878454208" lon="34.768157959">
<ele>489.078125</ele>
<time>2013-11-20T12:33:49Z</time>
<extensions>
<speed>0.0</speed>
<temp>0.00</temp>
<bpm>0</bpm>
<rpm>0.00</rpm>
</extensions>
</trkpt>
<trkpt lat="30.878454208" lon="34.768157959">
<ele>489.031250</ele>
<time>2013-11-20T12:33:54Z</time>
<extensions>
<speed>0.0</speed>
<temp>0.00</temp>
<bpm>0</bpm>
<rpm>0.00</rpm>
</extensions>
</trkpt>
<trkpt lat="30.878454208" lon="34.768157959">
<ele>488.984375</ele>
<time>2013-11-20T12:33:59Z</time>
<extensions>
<speed>0.0</speed>
<temp>0.00</temp>
<bpm>0</bpm>
<rpm>0.00</rpm>
</extensions>
</trkpt>
<trkpt lat="30.878454208" lon="34.768157959">
<ele>488.953125</ele>
<time>2013-11-20T12:34:04Z</time>
<speed>0.010000</speed>
<extensions>
<speed>0.0</speed>
<temp>0.00</temp>
<bpm>0</bpm>
<rpm>0.00</rpm>
</extensions>
</trkpt>
<trkpt lat="30.878454208" lon="34.768157959">
<ele>488.921875</ele>
<time>2013-11-20T12:34:09Z</time>
<speed>0.010000</speed>
<extensions>
<speed>0.0</speed>
<temp>0.00</temp>
<bpm>0</bpm>
<rpm>0.00</rpm>
</extensions>
</trkpt>
<trkpt lat="30.878454208" lon="34.768157959">
<ele>488.890625</ele>
<time>2013-11-20T12:34:14Z</time>
<extensions>
<speed>0.0</speed>
<temp>0.00</temp>
<bpm>0</bpm>
<rpm>0.00</rpm>
</extensions>
</trkpt>
<trkpt lat="30.878454208" lon="34.768157959">
<ele>488.859375</ele>
<time>2013-11-20T12:34:19Z</time>
<extensions>
<speed>0.0</speed>
<temp>0.00</temp>
<bpm>0</bpm>
<rpm>0.00</rpm>
</extensions>
</trkpt>
<trkpt lat="30.878454208" lon="34.768157959">
<ele>488.820313</ele>
<time>2013-11-20T12:34:24Z</time>
<extensions>
<speed>0.0</speed>
<temp>0.00</temp>
<bpm>0</bpm>
<rpm>0.00</rpm>
</extensions>
</trkpt>
<trkpt lat="30.878454208" lon="34.768157959">
<ele>488.773438</ele>
<time>2013-11-20T12:34:29Z</time>
<extensions>
<speed>0.0</speed>
<temp>0.00</temp>
<bpm>0</bpm>
<rpm>0.00</rpm>
</extensions>
</trkpt>
<trkpt lat="30.878454208" lon="34.768157959">
<ele>488.742188</ele>
<time>2013-11-20T12:34:34Z</time>
<extensions>
<speed>0.0</speed>
<temp>0.00</temp>
<bpm>0</bpm>
<rpm>0.00</rpm>
</extensions>
</trkpt>
<trkpt lat="30.878454208" lon="34.768157959">
<ele>488.710938</ele>
<time>2013-11-20T12:34:39Z</time>
<speed>0.010000</speed>
<extensions>
<speed>0.0</speed>
<temp>0.00</temp>
<bpm>0</bpm>
<rpm>0.00</rpm>
</extensions>
</trkpt>
<trkpt lat="30.878454208" lon="34.768157959">
<ele>488.671875</ele>
<time>2013-11-20T12:34:44Z</time>
<speed>0.010000</speed>
<extensions>
<speed>0.0</speed>
<temp>0.00</temp>
<bpm>0</bpm>
<rpm>0.00</rpm>
</extensions>
</trkpt>
<trkpt lat="30.878454208" lon="34.768157959">
<ele>488.632813</ele>
<time>2013-11-20T12:34:49Z</time>
<speed>0.010000</speed>
<extensions>
<speed>0.0</speed>
<temp>0.00</temp>
<bpm>0</bpm>
<rpm>0.00</rpm>
</extensions>
</trkpt>
<trkpt lat="30.878454208" lon="34.768157959">
<ele>488.593750</ele>
<time>2013-11-20T12:34:54Z</time>
<extensions>
<speed>0.0</speed>
<temp>0.00</temp>
<bpm>0</bpm>
<rpm>0.00</rpm>
</extensions>
</trkpt>
<trkpt lat="30.878454208" lon="34.768157959">
<ele>488.562500</ele>
<time>2013-11-20T12:34:59Z</time>
<speed>0.010000</speed>
<extensions>
<speed>0.0</speed>
<temp>0.00</temp>
<bpm>0</bpm>
<rpm>0.00</rpm>
</extensions>
</trkpt>
<trkpt lat="30.878454208" lon="34.768157959">
<ele>488.531250</ele>
<time>2013-11-20T12:35:04Z</time>
<extensions>
<speed>0.0</speed>
<temp>0.00</temp>
<bpm>0</bpm>
<rpm>0.00</rpm>
</extensions>
</trkpt>
<trkpt lat="30.878454208" lon="34.768157959">
<ele>488.507813</ele>
<time>2013-11-20T12:35:09Z</time>
<speed>0.010000</speed>
<extensions>
<speed>0.0</speed>
<temp>0.00</temp>
<bpm>0</bpm>
<rpm>0.00</rpm>
</extensions>
</trkpt>
<trkpt lat="30.878454208" lon="34.768154144">
<ele>488.484375</ele>
<time>2013-11-20T12:35:14Z</time>
<extensions>
<speed>0.0</speed>
<temp>0.00</temp>
<bpm>0</bpm>
<rpm>0.00</rpm>
</extensions>
</trkpt>
<trkpt lat="30.878454208" lon="34.768154144">
<ele>488.453125</ele>
<time>2013-11-20T12:35:19Z</time>
<speed>0.010000</speed>
<extensions>
<speed>0.0</speed>
<temp>0.00</temp>
<bpm>0</bpm>
<rpm>0.00</rpm>
</extensions>
</trkpt>
<trkpt lat="30.878454208" lon="34.768154144">
<ele>488.429688</ele>
<time>2013-11-20T12:35:24Z</time>
<extensions>
<speed>0.0</speed>
<temp>0.00</temp>
<bpm>0</bpm>
<rpm>0.00</rpm>
</extensions>
</trkpt>
<trkpt lat="30.878454208" lon="34.768154144">
<ele>488.406250</ele>
<time>2013-11-20T12:35:29Z</time>
<speed>0.020000</speed>
<extensions>
<speed>0.0</speed>
<temp>0.00</temp>
<bpm>0</bpm>
<rpm>0.00</rpm>
</extensions>
</trkpt>
<trkpt lat="30.878454208" lon="34.768154144">
<ele>488.375000</ele>
<time>2013-11-20T12:35:34Z</time>
<extensions>
<speed>0.0</speed>
<temp>0.00</temp>
<bpm>0</bpm>
<rpm>0.00</rpm>
</extensions>
</trkpt>
<trkpt lat="30.878454208" lon="34.768154144">
<ele>488.343750</ele>
<time>2013-11-20T12:35:39Z</time>
<extensions>
<speed>0.0</speed>
<temp>0.00</temp>
<bpm>0</bpm>
<rpm>0.00</rpm>
</extensions>
</trkpt>
<trkpt lat="30.878454208" lon="34.768154144">
<ele>488.312500</ele>
<time>2013-11-20T12:35:44Z</time>
<extensions>
<speed>0.0</speed>
<temp>0.00</temp>
<bpm>0</bpm>
<rpm>0.00</rpm>
</extensions>
</trkpt>
<trkpt lat="30.878454208" lon="34.768154144">
<ele>488.296875</ele>
<time>2013-11-20T12:35:49Z</time>
<speed>0.020000</speed>
<extensions>
<speed>0.0</speed>
<temp>0.00</temp>
<bpm>0</bpm>
<rpm>0.00</rpm>
</extensions>
</trkpt>
<trkpt lat="30.878454208" lon="34.768154144">
<ele>488.281250</ele>
<time>2013-11-20T12:35:54Z</time>
<speed>0.010000</speed>
<extensions>
<speed>0.0</speed>
<temp>0.00</temp>
<bpm>0</bpm>
<rpm>0.00</rpm>
</extensions>
</trkpt>
<trkpt lat="30.878454208" lon="34.768154144">
<ele>488.265625</ele>
<time>2013-11-20T12:35:59Z</time>
<extensions>
<speed>0.0</speed>
<temp>0.00</temp>
<bpm>0</bpm>
<rpm>0.00</rpm>
</extensions>
</trkpt>
<trkpt lat="30.878454208" lon="34.768154144">
<ele>488.250000</ele>
<time>2013-11-20T12:36:04Z</time>
<extensions>
<speed>0.0</speed>
<temp>0.00</temp>
<bpm>0</bpm>
<rpm>0.00</rpm>
</extensions>
</trkpt>
<trkpt lat="30.878454208" lon="34.768154144">
<ele>488.218750</ele>
<time>2013-11-20T12:36:09Z</time>
<speed>0.010000</speed>
<extensions>
<speed>0.0</speed>
<temp>0.00</temp>
<bpm>0</bpm>
<rpm>0.00</rpm>
</extensions>
</trkpt>
<trkpt lat="30.878454208" lon="34.768154144">
<ele>488.195313</ele>
<time>2013-11-20T12:36:14Z</time>
<extensions>
<speed>0.0</speed>
<temp>0.00</temp>
<bpm>0</bpm>
<rpm>0.00</rpm>
</extensions>
</trkpt>
<trkpt lat="30.878454208" lon="34.768154144">
<ele>488.164063</ele>
<time>2013-11-20T12:36:19Z</time>
<extensions>
<speed>0.0</speed>
<temp>0.00</temp>
<bpm>0</bpm>
<rpm>0.00</rpm>
</extensions>
</trkpt>
<trkpt lat="30.878454208" lon="34.768154144">
<ele>488.140625</ele>
<time>2013-11-20T12:36:24Z</time>
<speed>0.010000</speed>
<extensions>
<speed>0.0</speed>
<temp>0.00</temp>
<bpm>0</bpm>
<rpm>0.00</rpm>
</extensions>
</trkpt>
<trkpt lat="30.878454208" lon="34.768154144">
<ele>488.117188</ele>
<time>2013-11-20T12:36:29Z</time>
<speed>0.010000</speed>
<extensions>
<speed>0.0</speed>
<temp>0.00</temp>
<bpm>0</bpm>
<rpm>0.00</rpm>
</extensions>
</trkpt>
<trkpt lat="30.878454208" lon="34.768154144">
<ele>488.101563</ele>
<time>2013-11-20T12:36:34Z</time>
<extensions>
<speed>0.0</speed>
<temp>0.00</temp>
<bpm>0</bpm>
<rpm>0.00</rpm>
</extensions>
</trkpt>
<trkpt lat="30.878454208" lon="34.768154144">
<ele>488.070313</ele>
<time>2013-11-20T12:36:39Z</time>
<speed>0.010000</speed>
<extensions>
<speed>0.0</speed>
<temp>0.00</temp>
<bpm>0</bpm>
<rpm>0.00</rpm>
</extensions>
</trkpt>
<trkpt lat="30.878454208" lon="34.768154144">
<ele>488.054688</ele>
<time>2013-11-20T12:36:44Z</time>
<extensions>
<speed>0.0</speed>
<temp>0.00</temp>
<bpm>0</bpm>
<rpm>0.00</rpm>
</extensions>
</trkpt>
<trkpt lat="30.878454208" lon="34.768154144">
<ele>488.046875</ele>
<time>2013-11-20T12:36:49Z</time>
<extensions>
<speed>0.0</speed>
<temp>0.00</temp>
<bpm>0</bpm>
<rpm>0.00</rpm>
</extensions>
</trkpt>
<trkpt lat="30.878454208" lon="34.768154144">
<ele>488.023438</ele>
<time>2013-11-20T12:36:54Z</time>
<speed>0.010000</speed>
<extensions>
<speed>0.0</speed>
<temp>0.00</temp>
<bpm>0</bpm>
<rpm>0.00</rpm>
</extensions>
</trkpt>
<trkpt lat="30.878454208" lon="34.768154144">
<ele>488.000000</ele>
<time>2013-11-20T12:36:59Z</time>
<extensions>
<speed>0.0</speed>
<temp>0.00</temp>
<bpm>0</bpm>
<rpm>0.00</rpm>
</extensions>
</trkpt>
<trkpt lat="30.878454208" lon="34.768154144">
<ele>487.984375</ele>
<time>2013-11-20T12:37:04Z</time>
<extensions>
<speed>0.0</speed>
<temp>0.00</temp>
<bpm>0</bpm>
<rpm>0.00</rpm>
</extensions>
</trkpt>
<trkpt lat="30.878454208" lon="34.768154144">
<ele>487.960938</ele>
<time>2013-11-20T12:37:09Z</time>
<speed>0.010000</speed>
<extensions>
<speed>0.0</speed>
<temp>0.00</temp>
<bpm>0</bpm>
<rpm>0.00</rpm>
</extensions>
</trkpt>
<trkpt lat="30.878454208" lon="34.768154144">
<ele>487.937500</ele>
<time>2013-11-20T12:37:14Z</time>
<speed>0.010000</speed>
<extensions>
<speed>0.0</speed>
<temp>0.00</temp>
<bpm>0</bpm>
<rpm>0.00</rpm>
</extensions>
</trkpt>
<trkpt lat="30.878454208" lon="34.768154144">
<ele>487.929688</ele>
<time>2013-11-20T12:37:19Z</time>
<speed>0.010000</speed>
<extensions>
<speed>0.0</speed>
<temp>0.00</temp>
<bpm>0</bpm>
<rpm>0.00</rpm>
</extensions>
</trkpt>
<trkpt lat="30.878454208" lon="34.768154144">
<ele>487.898438</ele>
<time>2013-11-20T12:37:24Z</time>
<extensions>
<speed>0.0</speed>
<temp>0.00</temp>
<bpm>0</bpm>
<rpm>0.00</rpm>
</extensions>
</trkpt>
<trkpt lat="30.878454208" lon="34.768154144">
<ele>487.867188</ele>
<time>2013-11-20T12:37:29Z</time>
<speed>0.010000</speed>
<extensions>
<speed>0.0</speed>
<temp>0.00</temp>
<bpm>0</bpm>
<rpm>0.00</rpm>
</extensions>
</trkpt>
<trkpt lat="30.878452301" lon="34.768154144">
<ele>487.828125</ele>
<time>2013-11-20T12:37:34Z</time>
<speed>0.010000</speed>
<extensions>
<speed>0.0</speed>
<temp>0.00</temp>
<bpm>0</bpm>
<rpm>0.00</rpm>
</extensions>
</trkpt>
<trkpt lat="30.878452301" lon="34.768154144">
<ele>487.796875</ele>
<time>2013-11-20T12:37:39Z</time>
<speed>0.010000</speed>
<extensions>
<speed>0.0</speed>
<temp>0.00</temp>
<bpm>0</bpm>
<rpm>0.00</rpm>
</extensions>
</trkpt>
<trkpt lat="30.878452301" lon="34.768154144">
<ele>487.765625</ele>
<time>2013-11-20T12:37:44Z</time>
<extensions>
<speed>0.0</speed>
<temp>0.00</temp>
<bpm>0</bpm>
<rpm>0.00</rpm>
</extensions>
</trkpt>
<trkpt lat="30.878452301" lon="34.768154144">
<ele>487.750000</ele>
<time>2013-11-20T12:37:49Z</time>
<extensions>
<speed>0.0</speed>
<temp>0.00</temp>
<bpm>0</bpm>
<rpm>0.00</rpm>
</extensions>
</trkpt>
<trkpt lat="30.878452301" lon="34.768154144">
<ele>487.726563</ele>
<time>2013-11-20T12:37:54Z</time>
<speed>0.010000</speed>
<extensions>
<speed>0.0</speed>
<temp>0.00</temp>
<bpm>0</bpm>
<rpm>0.00</rpm>
</extensions>
</trkpt>
<trkpt lat="30.878452301" lon="34.768154144">
<ele>487.679688</ele>
<time>2013-11-20T12:37:59Z</time>
<extensions>
<speed>0.0</speed>
<temp>0.00</temp>
<bpm>0</bpm>
<rpm>0.00</rpm>
</extensions>
</trkpt>
<trkpt lat="30.878452301" lon="34.768154144">
<ele>487.640625</ele>
<time>2013-11-20T12:38:04Z</time>
<extensions>
<speed>0.0</speed>
<temp>0.00</temp>
<bpm>0</bpm>
<rpm>0.00</rpm>
</extensions>
</trkpt>
<trkpt lat="30.878452301" lon="34.768154144">
<ele>487.609375</ele>
<time>2013-11-20T12:38:09Z</time>
<extensions>
<speed>0.0</speed>
<temp>0.00</temp>
<bpm>0</bpm>
<rpm>0.00</rpm>
</extensions>
</trkpt>
<trkpt lat="30.878452301" lon="34.768154144">
<ele>487.578125</ele>
<time>2013-11-20T12:38:14Z</time>
<speed>0.010000</speed>
<extensions>
<speed>0.0</speed>
<temp>0.00</temp>
<bpm>0</bpm>
<rpm>0.00</rpm>
</extensions>
</trkpt>
<trkpt lat="30.878452301" lon="34.768154144">
<ele>487.554688</ele>
<time>2013-11-20T12:38:19Z</time>
<extensions>
<speed>0.0</speed>
<temp>0.00</temp>
<bpm>0</bpm>
<rpm>0.00</rpm>
</extensions>
</trkpt>
<trkpt lat="30.878452301" lon="34.768154144">
<ele>487.531250</ele>
<time>2013-11-20T12:38:24Z</time>
<extensions>
<speed>0.0</speed>
<temp>0.00</temp>
<bpm>0</bpm>
<rpm>0.00</rpm>
</extensions>
</trkpt>
<trkpt lat="30.878452301" lon="34.768154144">
<ele>487.507813</ele>
<time>2013-11-20T12:38:29Z</time>
<extensions>
<speed>0.0</speed>
<temp>0.00</temp>
<bpm>0</bpm>
<rpm>0.00</rpm>
</extensions>
</trkpt>
<trkpt lat="30.878452301" lon="34.768154144">
<ele>487.476563</ele>
<time>2013-11-20T12:38:34Z</time>
<speed>0.010000</speed>
<extensions>
<speed>0.0</speed>
<temp>0.00</temp>
<bpm>0</bpm>
<rpm>0.00</rpm>
</extensions>
</trkpt>
<trkpt lat="30.878452301" lon="34.768154144">
<ele>487.445313</ele>
<time>2013-11-20T12:38:39Z</time>
<extensions>
<speed>0.0</speed>
<temp>0.00</temp>
<bpm>0</bpm>
<rpm>0.00</rpm>
</extensions>
</trkpt>
<trkpt lat="30.878452301" lon="34.768154144">
<ele>487.429688</ele>
<time>2013-11-20T12:38:44Z</time>
<speed>0.010000</speed>
<extensions>
<speed>0.0</speed>
<temp>0.00</temp>
<bpm>0</bpm>
<rpm>0.00</rpm>
</extensions>
</trkpt>
<trkpt lat="30.878452301" lon="34.768154144">
<ele>487.406250</ele>
<time>2013-11-20T12:38:49Z</time>
<speed>0.010000</speed>
<extensions>
<speed>0.0</speed>
<temp>0.00</temp>
<bpm>0</bpm>
<rpm>0.00</rpm>
</extensions>
</trkpt>
<trkpt lat="30.878452301" lon="34.768154144">
<ele>487.398438</ele>
<time>2013-11-20T12:38:54Z</time>
<extensions>
<speed>0.0</speed>
<temp>0.00</temp>
<bpm>0</bpm>
<rpm>0.00</rpm>
</extensions>
</trkpt>
<trkpt lat="30.878452301" lon="34.768154144">
<ele>487.382813</ele>
<time>2013-11-20T12:38:59Z</time>
<speed>0.010000</speed>
<extensions>
<speed>0.0</speed>
<temp>0.00</temp>
<bpm>0</bpm>
<rpm>0.00</rpm>
</extensions>
</trkpt>
<trkpt lat="30.878452301" lon="34.768154144">
<ele>487.382813</ele>
<time>2013-11-20T12:39:04Z</time>
<extensions>
<speed>0.0</speed>
<temp>0.00</temp>
<bpm>0</bpm>
<rpm>0.00</rpm>
</extensions>
</trkpt>
<trkpt lat="30.878452301" lon="34.768154144">
<ele>487.367188</ele>
<time>2013-11-20T12:39:09Z</time>
<extensions>
<speed>0.0</speed>
<temp>0.00</temp>
<bpm>0</bpm>
<rpm>0.00</rpm>
</extensions>
</trkpt>
<trkpt lat="30.878452301" lon="34.768154144">
<ele>487.351563</ele>
<time>2013-11-20T12:39:14Z</time>
<extensions>
<speed>0.0</speed>
<temp>0.00</temp>
<bpm>0</bpm>
<rpm>0.00</rpm>
</extensions>
</trkpt>
<trkpt lat="30.878452301" lon="34.768150330">
<ele>487.328125</ele>
<time>2013-11-20T12:39:19Z</time>
<extensions>
<speed>0.0</speed>
<temp>0.00</temp>
<bpm>0</bpm>
<rpm>0.00</rpm>
</extensions>
</trkpt>
<trkpt lat="30.878452301" lon="34.768150330">
<ele>487.304688</ele>
<time>2013-11-20T12:39:24Z</time>
<speed>0.010000</speed>
<extensions>
<speed>0.0</speed>
<temp>0.00</temp>
<bpm>0</bpm>
<rpm>0.00</rpm>
</extensions>
</trkpt>
<trkpt lat="30.878452301" lon="34.768150330">
<ele>487.265625</ele>
<time>2013-11-20T12:39:29Z</time>
<speed>0.010000</speed>
<extensions>
<speed>0.0</speed>
<temp>0.00</temp>
<bpm>0</bpm>
<rpm>0.00</rpm>
</extensions>
</trkpt>
<trkpt lat="30.878452301" lon="34.768150330">
<ele>487.226563</ele>
<time>2013-11-20T12:39:34Z</time>
<speed>0.010000</speed>
<extensions>
<speed>0.0</speed>
<temp>0.00</temp>
<bpm>0</bpm>
<rpm>0.00</rpm>
</extensions>
</trkpt>
<trkpt lat="30.878452301" lon="34.768150330">
<ele>487.187500</ele>
<time>2013-11-20T12:39:39Z</time>
<extensions>
<speed>0.0</speed>
<temp>0.00</temp>
<bpm>0</bpm>
<rpm>0.00</rpm>
</extensions>
</trkpt>
<trkpt lat="30.878452301" lon="34.768150330">
<ele>487.156250</ele>
<time>2013-11-20T12:39:44Z</time>
<extensions>
<speed>0.0</speed>
<temp>0.00</temp>
<bpm>0</bpm>
<rpm>0.00</rpm>
</extensions>
</trkpt>
<trkpt lat="30.878452301" lon="34.768150330">
<ele>487.109375</ele>
<time>2013-11-20T12:39:49Z</time>
<speed>0.010000</speed>
<extensions>
<speed>0.0</speed>
<temp>0.00</temp>
<bpm>0</bpm>
<rpm>0.00</rpm>
</extensions>
</trkpt>
<trkpt lat="30.878452301" lon="34.768150330">
<ele>487.039063</ele>
<time>2013-11-20T12:39:54Z</time>
<extensions>
<speed>0.0</speed>
<temp>0.00</temp>
<bpm>0</bpm>
<rpm>0.00</rpm>
</extensions>
</trkpt>
<trkpt lat="30.878452301" lon="34.768154144">
<ele>486.992188</ele>
<time>2013-11-20T12:39:59Z</time>
<speed>0.010000</speed>
<extensions>
<speed>0.0</speed>
<temp>0.00</temp>
<bpm>0</bpm>
<rpm>0.00</rpm>
</extensions>
</trkpt>
<trkpt lat="30.878452301" lon="34.768154144">
<ele>486.929688</ele>
<time>2013-11-20T12:40:04Z</time>
<extensions>
<speed>0.0</speed>
<temp>0.00</temp>
<bpm>0</bpm>
<rpm>0.00</rpm>
</extensions>
</trkpt>
<trkpt lat="30.878452301" lon="34.768154144">
<ele>486.882813</ele>
<time>2013-11-20T12:40:09Z</time>
<speed>0.010000</speed>
<extensions>
<speed>0.0</speed>
<temp>0.00</temp>
<bpm>0</bpm>
<rpm>0.00</rpm>
</extensions>
</trkpt>
<trkpt lat="30.878452301" lon="34.768154144">
<ele>486.843750</ele>
<time>2013-11-20T12:40:14Z</time>
<extensions>
<speed>0.0</speed>
<temp>0.00</temp>
<bpm>0</bpm>
<rpm>0.00</rpm>
</extensions>
</trkpt>
<trkpt lat="30.878452301" lon="34.768154144">
<ele>486.789063</ele>
<time>2013-11-20T12:40:19Z</time>
<speed>0.020000</speed>
<extensions>
<speed>0.0</speed>
<temp>0.00</temp>
<bpm>0</bpm>
<rpm>0.00</rpm>
</extensions>
</trkpt>
<trkpt lat="30.878452301" lon="34.768154144">
<ele>486.734375</ele>
<time>2013-11-20T12:40:24Z</time>
<speed>0.010000</speed>
<extensions>
<speed>0.0</speed>
<temp>0.00</temp>
<bpm>0</bpm>
<rpm>0.00</rpm>
</extensions>
</trkpt>
<trkpt lat="30.878452301" lon="34.768154144">
<ele>486.695313</ele>
<time>2013-11-20T12:40:29Z</time>
<extensions>
<speed>0.0</speed>
<temp>0.00</temp>
<bpm>0</bpm>
<rpm>0.00</rpm>
</extensions>
</trkpt>
<trkpt lat="30.878452301" lon="34.768154144">
<ele>486.632813</ele>
<time>2013-11-20T12:40:34Z</time>
<extensions>
<speed>0.0</speed>
<temp>0.00</temp>
<bpm>0</bpm>
<rpm>0.00</rpm>
</extensions>
</trkpt>
<trkpt lat="30.878452301" lon="34.768154144">
<ele>486.585938</ele>
<time>2013-11-20T12:40:39Z</time>
<extensions>
<speed>0.0</speed>
<temp>0.00</temp>
<bpm>0</bpm>
<rpm>0.00</rpm>
</extensions>
</trkpt>
<trkpt lat="30.878452301" lon="34.768154144">
<ele>486.546875</ele>
<time>2013-11-20T12:40:44Z</time>
<extensions>
<speed>0.0</speed>
<temp>0.00</temp>
<bpm>0</bpm>
<rpm>0.00</rpm>
</extensions>
</trkpt>
<trkpt lat="30.878452301" lon="34.768154144">
<ele>486.492188</ele>
<time>2013-11-20T12:40:49Z</time>
<speed>0.010000</speed>
<extensions>
<speed>0.0</speed>
<temp>0.00</temp>
<bpm>0</bpm>
<rpm>0.00</rpm>
</extensions>
</trkpt>
<trkpt lat="30.878452301" lon="34.768154144">
<ele>486.468750</ele>
<time>2013-11-20T12:40:54Z</time>
<speed>0.010000</speed>
<extensions>
<speed>0.0</speed>
<temp>0.00</temp>
<bpm>0</bpm>
<rpm>0.00</rpm>
</extensions>
</trkpt>
<trkpt lat="30.878452301" lon="34.768154144">
<ele>486.421875</ele>
<time>2013-11-20T12:40:59Z</time>
<extensions>
<speed>0.0</speed>
<temp>0.00</temp>
<bpm>0</bpm>
<rpm>0.00</rpm>
</extensions>
</trkpt>
<trkpt lat="30.878452301" lon="34.768154144">
<ele>486.382813</ele>
<time>2013-11-20T12:41:04Z</time>
<extensions>
<speed>0.0</speed>
<temp>0.00</temp>
<bpm>0</bpm>
<rpm>0.00</rpm>
</extensions>
</trkpt>
<trkpt lat="30.878452301" lon="34.768154144">
<ele>486.320313</ele>
<time>2013-11-20T12:41:09Z</time>
<speed>0.020000</speed>
<extensions>
<speed>0.0</speed>
<temp>0.00</temp>
<bpm>0</bpm>
<rpm>0.00</rpm>
</extensions>
</trkpt>
<trkpt lat="30.878452301" lon="34.768150330">
<ele>486.281250</ele>
<time>2013-11-20T12:41:14Z</time>
<speed>0.010000</speed>
<extensions>
<speed>0.0</speed>
<temp>0.00</temp>
<bpm>0</bpm>
<rpm>0.00</rpm>
</extensions>
</trkpt>
<trkpt lat="30.878452301" lon="34.768150330">
<ele>486.226563</ele>
<time>2013-11-20T12:41:19Z</time>
<speed>0.010000</speed>
<extensions>
<speed>0.0</speed>
<temp>0.00</temp>
<bpm>0</bpm>
<rpm>0.00</rpm>
</extensions>
</trkpt>
<trkpt lat="30.878452301" lon="34.768150330">
<ele>486.179688</ele>
<time>2013-11-20T12:41:24Z</time>
<extensions>
<speed>0.0</speed>
<temp>0.00</temp>
<bpm>0</bpm>
<rpm>0.00</rpm>
</extensions>
</trkpt>
<trkpt lat="30.878452301" lon="34.768150330">
<ele>486.109375</ele>
<time>2013-11-20T12:41:29Z</time>
<speed>0.010000</speed>
<extensions>
<speed>0.0</speed>
<temp>0.00</temp>
<bpm>0</bpm>
<rpm>0.00</rpm>
</extensions>
</trkpt>
<trkpt lat="30.878454208" lon="34.768150330">
<ele>486.046875</ele>
<time>2013-11-20T12:41:34Z</time>
<extensions>
<speed>0.0</speed>
<temp>0.00</temp>
<bpm>0</bpm>
<rpm>0.00</rpm>
</extensions>
</trkpt>
<trkpt lat="30.878454208" lon="34.768150330">
<ele>485.984375</ele>
<time>2013-11-20T12:41:39Z</time>
<extensions>
<speed>0.0</speed>
<temp>0.00</temp>
<bpm>0</bpm>
<rpm>0.00</rpm>
</extensions>
</trkpt>
<trkpt lat="30.878454208" lon="34.768150330">
<ele>485.945313</ele>
<time>2013-11-20T12:41:44Z</time>
<speed>0.010000</speed>
<extensions>
<speed>0.0</speed>
<temp>0.00</temp>
<bpm>0</bpm>
<rpm>0.00</rpm>
</extensions>
</trkpt>
<trkpt lat="30.878454208" lon="34.768150330">
<ele>485.898438</ele>
<time>2013-11-20T12:41:49Z</time>
<extensions>
<speed>0.0</speed>
<temp>0.00</temp>
<bpm>0</bpm>
<rpm>0.00</rpm>
</extensions>
</trkpt>
<trkpt lat="30.878454208" lon="34.768150330">
<ele>485.843750</ele>
<time>2013-11-20T12:41:54Z</time>
<extensions>
<speed>0.0</speed>
<temp>0.00</temp>
<bpm>0</bpm>
<rpm>0.00</rpm>
</extensions>
</trkpt>
<trkpt lat="30.878454208" lon="34.768150330">
<ele>485.796875</ele>
<time>2013-11-20T12:41:59Z</time>
<extensions>
<speed>0.0</speed>
<temp>0.00</temp>
<bpm>0</bpm>
<rpm>0.00</rpm>
</extensions>
</trkpt>
<trkpt lat="30.878454208" lon="34.768150330">
<ele>485.750000</ele>
<time>2013-11-20T12:42:04Z</time>
<speed>0.010000</speed>
<extensions>
<speed>0.0</speed>
<temp>0.00</temp>
<bpm>0</bpm>
<rpm>0.00</rpm>
</extensions>
</trkpt>
<trkpt lat="30.878454208" lon="34.768150330">
<ele>485.718750</ele>
<time>2013-11-20T12:42:09Z</time>
<speed>0.010000</speed>
<extensions>
<speed>0.0</speed>
<temp>0.00</temp>
<bpm>0</bpm>
<rpm>0.00</rpm>
</extensions>
</trkpt>
<trkpt lat="30.878454208" lon="34.768150330">
<ele>485.718750</ele>
<time>2013-11-20T12:42:14Z</time>
<extensions>
<speed>0.0</speed>
<temp>0.00</temp>
<bpm>0</bpm>
<rpm>0.00</rpm>
</extensions>
</trkpt>
<trkpt lat="30.878454208" lon="34.768154144">
<ele>485.679688</ele>
<time>2013-11-20T12:42:19Z</time>
<extensions>
<speed>0.0</speed>
<temp>0.00</temp>
<bpm>0</bpm>
<rpm>0.00</rpm>
</extensions>
</trkpt>
<trkpt lat="30.878454208" lon="34.768154144">
<ele>485.648438</ele>
<time>2013-11-20T12:42:24Z</time>
<extensions>
<speed>0.0</speed>
<temp>0.00</temp>
<bpm>0</bpm>
<rpm>0.00</rpm>
</extensions>
</trkpt>
<trkpt lat="30.878454208" lon="34.768154144">
<ele>485.632813</ele>
<time>2013-11-20T12:42:29Z</time>
<extensions>
<speed>0.0</speed>
<temp>0.00</temp>
<bpm>0</bpm>
<rpm>0.00</rpm>
</extensions>
</trkpt>
<trkpt lat="30.878452301" lon="34.768154144">
<ele>485.625000</ele>
<time>2013-11-20T12:42:34Z</time>
<extensions>
<speed>0.0</speed>
<temp>0.00</temp>
<bpm>0</bpm>
<rpm>0.00</rpm>
</extensions>
</trkpt>
<trkpt lat="30.878452301" lon="34.768154144">
<ele>485.609375</ele>
<time>2013-11-20T12:42:39Z</time>
<extensions>
<speed>0.0</speed>
<temp>0.00</temp>
<bpm>0</bpm>
<rpm>0.00</rpm>
</extensions>
</trkpt>
<trkpt lat="30.878452301" lon="34.768154144">
<ele>485.609375</ele>
<time>2013-11-20T12:42:44Z</time>
<extensions>
<speed>0.0</speed>
<temp>0.00</temp>
<bpm>0</bpm>
<rpm>0.00</rpm>
</extensions>
</trkpt>
<trkpt lat="30.878452301" lon="34.768154144">
<ele>485.601563</ele>
<time>2013-11-20T12:42:49Z</time>
<extensions>
<speed>0.0</speed>
<temp>0.00</temp>
<bpm>0</bpm>
<rpm>0.00</rpm>
</extensions>
</trkpt>
<trkpt lat="30.878452301" lon="34.768154144">
<ele>485.585938</ele>
<time>2013-11-20T12:42:54Z</time>
<extensions>
<speed>0.0</speed>
<temp>0.00</temp>
<bpm>0</bpm>
<rpm>0.00</rpm>
</extensions>
</trkpt>
<trkpt lat="30.878452301" lon="34.768154144">
<ele>485.585938</ele>
<time>2013-11-20T12:42:59Z</time>
<extensions>
<speed>0.0</speed>
<temp>0.00</temp>
<bpm>0</bpm>
<rpm>0.00</rpm>
</extensions>
</trkpt>
<trkpt lat="30.878452301" lon="34.768157959">
<ele>485.570313</ele>
<time>2013-11-20T12:43:04Z</time>
<extensions>
<speed>0.0</speed>
<temp>0.00</temp>
<bpm>0</bpm>
<rpm>0.00</rpm>
</extensions>
</trkpt>
<trkpt lat="30.878452301" lon="34.768157959">
<ele>485.562500</ele>
<time>2013-11-20T12:43:09Z</time>
<extensions>
<speed>0.0</speed>
<temp>0.00</temp>
<bpm>0</bpm>
<rpm>0.00</rpm>
</extensions>
</trkpt>
<trkpt lat="30.878452301" lon="34.768157959">
<ele>485.554688</ele>
<time>2013-11-20T12:43:14Z</time>
<extensions>
<speed>0.0</speed>
<temp>0.00</temp>
<bpm>0</bpm>
<rpm>0.00</rpm>
</extensions>
</trkpt>
<trkpt lat="30.878450394" lon="34.768157959">
<ele>485.546875</ele>
<time>2013-11-20T12:43:19Z</time>
<extensions>
<speed>0.0</speed>
<temp>0.00</temp>
<bpm>0</bpm>
<rpm>0.00</rpm>
</extensions>
</trkpt>
<trkpt lat="30.878450394" lon="34.768157959">
<ele>485.539063</ele>
<time>2013-11-20T12:43:24Z</time>
<extensions>
<speed>0.0</speed>
<temp>0.00</temp>
<bpm>0</bpm>
<rpm>0.00</rpm>
</extensions>
</trkpt>
<trkpt lat="30.878450394" lon="34.768157959">
<ele>485.531250</ele>
<time>2013-11-20T12:43:29Z</time>
<extensions>
<speed>0.0</speed>
<temp>0.00</temp>
<bpm>0</bpm>
<rpm>0.00</rpm>
</extensions>
</trkpt>
<trkpt lat="30.878450394" lon="34.768157959">
<ele>485.531250</ele>
<time>2013-11-20T12:43:34Z</time>
<extensions>
<speed>0.0</speed>
<temp>0.00</temp>
<bpm>0</bpm>
<rpm>0.00</rpm>
</extensions>
</trkpt>
<trkpt lat="30.878450394" lon="34.768157959">
<ele>485.523438</ele>
<time>2013-11-20T12:43:39Z</time>
<extensions>
<speed>0.0</speed>
<temp>0.00</temp>
<bpm>0</bpm>
<rpm>0.00</rpm>
</extensions>
</trkpt>
<trkpt lat="30.878450394" lon="34.768157959">
<ele>485.523438</ele>
<time>2013-11-20T12:43:44Z</time>
<extensions>
<speed>0.0</speed>
<temp>0.00</temp>
<bpm>0</bpm>
<rpm>0.00</rpm>
</extensions>
</trkpt>
<trkpt lat="30.878450394" lon="34.768157959">
<ele>485.515625</ele>
<time>2013-11-20T12:43:49Z</time>
<extensions>
<speed>0.0</speed>
<temp>0.00</temp>
<bpm>0</bpm>
<rpm>0.00</rpm>
</extensions>
</trkpt>
<trkpt lat="30.878448486" lon="34.768157959">
<ele>485.507813</ele>
<time>2013-11-20T12:43:54Z</time>
<extensions>
<speed>0.0</speed>
<temp>0.00</temp>
<bpm>0</bpm>
<rpm>0.00</rpm>
</extensions>
</trkpt>
<trkpt lat="30.878448486" lon="34.768157959">
<ele>485.500000</ele>
<time>2013-11-20T12:43:59Z</time>
<extensions>
<speed>0.0</speed>
<temp>0.00</temp>
<bpm>0</bpm>
<rpm>0.00</rpm>
</extensions>
</trkpt>
<trkpt lat="30.878448486" lon="34.768157959">
<ele>485.484375</ele>
<time>2013-11-20T12:44:04Z</time>
<extensions>
<speed>0.0</speed>
<temp>0.00</temp>
<bpm>0</bpm>
<rpm>0.00</rpm>
</extensions>
</trkpt>
<trkpt lat="30.878448486" lon="34.768157959">
<ele>485.476563</ele>
<time>2013-11-20T12:44:09Z</time>
<extensions>
<speed>0.0</speed>
<temp>0.00</temp>
<bpm>0</bpm>
<rpm>0.00</rpm>
</extensions>
</trkpt>
<trkpt lat="30.878448486" lon="34.768161774">
<ele>485.468750</ele>
<time>2013-11-20T12:44:14Z</time>
<extensions>
<speed>0.0</speed>
<temp>0.00</temp>
<bpm>0</bpm>
<rpm>0.00</rpm>
</extensions>
</trkpt>
<trkpt lat="30.878448486" lon="34.768161774">
<ele>485.460938</ele>
<time>2013-11-20T12:44:19Z</time>
<speed>0.010000</speed>
<extensions>
<speed>0.0</speed>
<temp>0.00</temp>
<bpm>0</bpm>
<rpm>0.00</rpm>
</extensions>
</trkpt>
<trkpt lat="30.878448486" lon="34.768161774">
<ele>485.453125</ele>
<time>2013-11-20T12:44:24Z</time>
<extensions>
<speed>0.0</speed>
<temp>0.00</temp>
<bpm>0</bpm>
<rpm>0.00</rpm>
</extensions>
</trkpt>
<trkpt lat="30.878448486" lon="34.768161774">
<ele>485.445313</ele>
<time>2013-11-20T12:44:29Z</time>
<extensions>
<speed>0.0</speed>
<temp>0.00</temp>
<bpm>0</bpm>
<rpm>0.00</rpm>
</extensions>
</trkpt>
<trkpt lat="30.878448486" lon="34.768161774">
<ele>485.437500</ele>
<time>2013-11-20T12:44:34Z</time>
<extensions>
<speed>0.0</speed>
<temp>0.00</temp>
<bpm>0</bpm>
<rpm>0.00</rpm>
</extensions>
</trkpt>
<trkpt lat="30.878448486" lon="34.768161774">
<ele>485.429688</ele>
<time>2013-11-20T12:44:39Z</time>
<extensions>
<speed>0.0</speed>
<temp>0.00</temp>
<bpm>0</bpm>
<rpm>0.00</rpm>
</extensions>
</trkpt>
<trkpt lat="30.878448486" lon="34.768161774">
<ele>485.414063</ele>
<time>2013-11-20T12:44:44Z</time>
<extensions>
<speed>0.0</speed>
<temp>0.00</temp>
<bpm>0</bpm>
<rpm>0.00</rpm>
</extensions>
</trkpt>
<trkpt lat="30.878446579" lon="34.768161774">
<ele>485.406250</ele>
<time>2013-11-20T12:44:49Z</time>
<extensions>
<speed>0.0</speed>
<temp>0.00</temp>
<bpm>0</bpm>
<rpm>0.00</rpm>
</extensions>
</trkpt>
<trkpt lat="30.878446579" lon="34.768161774">
<ele>485.398438</ele>
<time>2013-11-20T12:44:54Z</time>
<extensions>
<speed>0.0</speed>
<temp>0.00</temp>
<bpm>0</bpm>
<rpm>0.00</rpm>
</extensions>
</trkpt>
<trkpt lat="30.878446579" lon="34.768161774">
<ele>485.390625</ele>
<time>2013-11-20T12:44:59Z</time>
<extensions>
<speed>0.0</speed>
<temp>0.00</temp>
<bpm>0</bpm>
<rpm>0.00</rpm>
</extensions>
</trkpt>
<trkpt lat="30.878446579" lon="34.768161774">
<ele>485.390625</ele>
<time>2013-11-20T12:45:04Z</time>
<extensions>
<speed>0.0</speed>
<temp>0.00</temp>
<bpm>0</bpm>
<rpm>0.00</rpm>
</extensions>
</trkpt>
<trkpt lat="30.878446579" lon="34.768161774">
<ele>485.382813</ele>
<time>2013-11-20T12:45:09Z</time>
<extensions>
<speed>0.0</speed>
<temp>0.00</temp>
<bpm>0</bpm>
<rpm>0.00</rpm>
</extensions>
</trkpt>
<trkpt lat="30.878446579" lon="34.768165588">
<ele>485.382813</ele>
<time>2013-11-20T12:45:14Z</time>
<extensions>
<speed>0.0</speed>
<temp>0.00</temp>
<bpm>0</bpm>
<rpm>0.00</rpm>
</extensions>
</trkpt>
<trkpt lat="30.878446579" lon="34.768165588">
<ele>485.375000</ele>
<time>2013-11-20T12:45:19Z</time>
<extensions>
<speed>0.0</speed>
<temp>0.00</temp>
<bpm>0</bpm>
<rpm>0.00</rpm>
</extensions>
</trkpt>
<trkpt lat="30.878446579" lon="34.768165588">
<ele>485.375000</ele>
<time>2013-11-20T12:45:24Z</time>
<extensions>
<speed>0.0</speed>
<temp>0.00</temp>
<bpm>0</bpm>
<rpm>0.00</rpm>
</extensions>
</trkpt>
<trkpt lat="30.878446579" lon="34.768165588">
<ele>485.367188</ele>
<time>2013-11-20T12:45:29Z</time>
<extensions>
<speed>0.0</speed>
<temp>0.00</temp>
<bpm>0</bpm>
<rpm>0.00</rpm>
</extensions>
</trkpt>
<trkpt lat="30.878446579" lon="34.768165588">
<ele>485.359375</ele>
<time>2013-11-20T12:45:34Z</time>
<extensions>
<speed>0.0</speed>
<temp>0.00</temp>
<bpm>0</bpm>
<rpm>0.00</rpm>
</extensions>
</trkpt>
<trkpt lat="30.878444672" lon="34.768165588">
<ele>485.359375</ele>
<time>2013-11-20T12:45:39Z</time>
<extensions>
<speed>0.0</speed>
<temp>0.00</temp>
<bpm>0</bpm>
<rpm>0.00</rpm>
</extensions>
</trkpt>
<trkpt lat="30.878444672" lon="34.768165588">
<ele>485.351563</ele>
<time>2013-11-20T12:45:44Z</time>
<extensions>
<speed>0.0</speed>
<temp>0.00</temp>
<bpm>0</bpm>
<rpm>0.00</rpm>
</extensions>
</trkpt>
<trkpt lat="30.878444672" lon="34.768165588">
<ele>485.343750</ele>
<time>2013-11-20T12:45:49Z</time>
<extensions>
<speed>0.0</speed>
<temp>0.00</temp>
<bpm>0</bpm>
<rpm>0.00</rpm>
</extensions>
</trkpt>
<trkpt lat="30.878444672" lon="34.768165588">
<ele>485.335938</ele>
<time>2013-11-20T12:45:54Z</time>
<extensions>
<speed>0.0</speed>
<temp>0.00</temp>
<bpm>0</bpm>
<rpm>0.00</rpm>
</extensions>
</trkpt>
<trkpt lat="30.878444672" lon="34.768165588">
<ele>485.335938</ele>
<time>2013-11-20T12:45:59Z</time>
<extensions>
<speed>0.0</speed>
<temp>0.00</temp>
<bpm>0</bpm>
<rpm>0.00</rpm>
</extensions>
</trkpt>
<trkpt lat="30.878444672" lon="34.768165588">
<ele>485.328125</ele>
<time>2013-11-20T12:46:04Z</time>
<extensions>
<speed>0.0</speed>
<temp>0.00</temp>
<bpm>0</bpm>
<rpm>0.00</rpm>
</extensions>
</trkpt>
<trkpt lat="30.878444672" lon="34.768165588">
<ele>485.328125</ele>
<time>2013-11-20T12:46:09Z</time>
<extensions>
<speed>0.0</speed>
<temp>0.00</temp>
<bpm>0</bpm>
<rpm>0.00</rpm>
</extensions>
</trkpt>
<trkpt lat="30.878444672" lon="34.768165588">
<ele>485.320313</ele>
<time>2013-11-20T12:46:14Z</time>
<extensions>
<speed>0.0</speed>
<temp>0.00</temp>
<bpm>0</bpm>
<rpm>0.00</rpm>
</extensions>
</trkpt>
<trkpt lat="30.878444672" lon="34.768165588">
<ele>485.320313</ele>
<time>2013-11-20T12:46:19Z</time>
<extensions>
<speed>0.0</speed>
<temp>0.00</temp>
<bpm>0</bpm>
<rpm>0.00</rpm>
</extensions>
</trkpt>
<trkpt lat="30.878444672" lon="34.768165588">
<ele>485.320313</ele>
<time>2013-11-20T12:46:24Z</time>
<extensions>
<speed>0.0</speed>
<temp>0.00</temp>
<bpm>0</bpm>
<rpm>0.00</rpm>
</extensions>
</trkpt>
<trkpt lat="30.878444672" lon="34.768165588">
<ele>485.320313</ele>
<time>2013-11-20T12:46:29Z</time>
<extensions>
<speed>0.0</speed>
<temp>0.00</temp>
<bpm>0</bpm>
<rpm>0.00</rpm>
</extensions>
</trkpt>
<trkpt lat="30.878442764" lon="34.768165588">
<ele>485.312500</ele>
<time>2013-11-20T12:46:34Z</time>
<extensions>
<speed>0.0</speed>
<temp>0.00</temp>
<bpm>0</bpm>
<rpm>0.00</rpm>
</extensions>
</trkpt>
<trkpt lat="30.878442764" lon="34.768169403">
<ele>485.312500</ele>
<time>2013-11-20T12:46:39Z</time>
<extensions>
<speed>0.0</speed>
<temp>0.00</temp>
<bpm>0</bpm>
<rpm>0.00</rpm>
</extensions>
</trkpt>
<trkpt lat="30.878442764" lon="34.768169403">
<ele>485.312500</ele>
<time>2013-11-20T12:46:44Z</time>
<extensions>
<speed>0.0</speed>
<temp>0.00</temp>
<bpm>0</bpm>
<rpm>0.00</rpm>
</extensions>
</trkpt>
<trkpt lat="30.878442764" lon="34.768169403">
<ele>485.312500</ele>
<time>2013-11-20T12:46:49Z</time>
<extensions>
<speed>0.0</speed>
<temp>0.00</temp>
<bpm>0</bpm>
<rpm>0.00</rpm>
</extensions>
</trkpt>
<trkpt lat="30.878442764" lon="34.768169403">
<ele>485.312500</ele>
<time>2013-11-20T12:46:54Z</time>
<speed>0.010000</speed>
<extensions>
<speed>0.0</speed>
<temp>0.00</temp>
<bpm>0</bpm>
<rpm>0.00</rpm>
</extensions>
</trkpt>
<trkpt lat="30.878442764" lon="34.768169403">
<ele>485.304688</ele>
<time>2013-11-20T12:46:59Z</time>
<extensions>
<speed>0.0</speed>
<temp>0.00</temp>
<bpm>0</bpm>
<rpm>0.00</rpm>
</extensions>
</trkpt>
<trkpt lat="30.878442764" lon="34.768169403">
<ele>485.296875</ele>
<time>2013-11-20T12:47:04Z</time>
<extensions>
<speed>0.0</speed>
<temp>0.00</temp>
<bpm>0</bpm>
<rpm>0.00</rpm>
</extensions>
</trkpt>
<trkpt lat="30.878442764" lon="34.768169403">
<ele>485.296875</ele>
<time>2013-11-20T12:47:09Z</time>
<extensions>
<speed>0.0</speed>
<temp>0.00</temp>
<bpm>0</bpm>
<rpm>0.00</rpm>
</extensions>
</trkpt>
<trkpt lat="30.878442764" lon="34.768169403">
<ele>485.289063</ele>
<time>2013-11-20T12:47:14Z</time>
<extensions>
<speed>0.0</speed>
<temp>0.00</temp>
<bpm>0</bpm>
<rpm>0.00</rpm>
</extensions>
</trkpt>
<trkpt lat="30.878440857" lon="34.768169403">
<ele>485.273438</ele>
<time>2013-11-20T12:47:19Z</time>
<extensions>
<speed>0.0</speed>
<temp>0.00</temp>
<bpm>0</bpm>
<rpm>0.00</rpm>
</extensions>
</trkpt>
<trkpt lat="30.878440857" lon="34.768169403">
<ele>485.273438</ele>
<time>2013-11-20T12:47:24Z</time>
<speed>0.050000</speed>
<extensions>
<speed>0.1</speed>
<temp>0.00</temp>
<bpm>0</bpm>
<rpm>0.00</rpm>
</extensions>
</trkpt>
<trkpt lat="30.878446579" lon="34.768173218">
<ele>485.289063</ele>
<time>2013-11-20T12:47:29Z</time>
<speed>0.010000</speed>
<extensions>
<speed>0.0</speed>
<temp>0.00</temp>
<bpm>0</bpm>
<rpm>0.00</rpm>
</extensions>
</trkpt>
<trkpt lat="30.878446579" lon="34.768173218">
<ele>485.281250</ele>
<time>2013-11-20T12:47:34Z</time>
<speed>0.030000</speed>
<extensions>
<speed>0.0</speed>
<temp>0.00</temp>
<bpm>0</bpm>
<rpm>0.00</rpm>
</extensions>
</trkpt>
<trkpt lat="30.878446579" lon="34.768173218">
<ele>485.289063</ele>
<time>2013-11-20T12:47:39Z</time>
<speed>0.040000</speed>
<extensions>
<speed>0.0</speed>
<temp>0.00</temp>
<bpm>0</bpm>
<rpm>0.00</rpm>
</extensions>
</trkpt>
<trkpt lat="30.878446579" lon="34.768173218">
<ele>485.273438</ele>
<time>2013-11-20T12:47:44Z</time>
<speed>0.080000</speed>
<extensions>
<speed>0.1</speed>
<temp>0.00</temp>
<bpm>0</bpm>
<rpm>0.00</rpm>
</extensions>
</trkpt>
<trkpt lat="30.878446579" lon="34.768173218">
<ele>485.234375</ele>
<time>2013-11-20T12:47:49Z</time>
<speed>0.020000</speed>
<extensions>
<speed>0.0</speed>
<temp>0.00</temp>
<bpm>0</bpm>
<rpm>0.00</rpm>
</extensions>
</trkpt>
<trkpt lat="30.878446579" lon="34.768173218">
<ele>485.218750</ele>
<time>2013-11-20T12:47:54Z</time>
<speed>0.020000</speed>
<extensions>
<speed>0.0</speed>
<temp>0.00</temp>
<bpm>0</bpm>
<rpm>0.00</rpm>
</extensions>
</trkpt>
<trkpt lat="30.878446579" lon="34.768173218">
<ele>485.210938</ele>
<time>2013-11-20T12:47:59Z</time>
<speed>0.030000</speed>
<extensions>
<speed>0.0</speed>
<temp>0.00</temp>
<bpm>0</bpm>
<rpm>0.00</rpm>
</extensions>
</trkpt>
<trkpt lat="30.878446579" lon="34.768173218">
<ele>485.195313</ele>
<time>2013-11-20T12:48:04Z</time>
<extensions>
<speed>0.0</speed>
<temp>0.00</temp>
<bpm>0</bpm>
<rpm>0.00</rpm>
</extensions>
</trkpt>
<trkpt lat="30.878446579" lon="34.768173218">
<ele>485.203125</ele>
<time>2013-11-20T12:48:09Z</time>
<speed>0.050000</speed>
<extensions>
<speed>0.1</speed>
<temp>0.00</temp>
<bpm>0</bpm>
<rpm>0.00</rpm>
</extensions>
</trkpt>
<trkpt lat="30.878446579" lon="34.768173218">
<ele>485.195313</ele>
<time>2013-11-20T12:48:14Z</time>
<speed>0.020000</speed>
<extensions>
<speed>0.0</speed>
<temp>0.00</temp>
<bpm>0</bpm>
<rpm>0.00</rpm>
</extensions>
</trkpt>
<trkpt lat="30.878446579" lon="34.768173218">
<ele>485.156250</ele>
<time>2013-11-20T12:48:19Z</time>
<speed>0.010000</speed>
<extensions>
<speed>0.0</speed>
<temp>0.00</temp>
<bpm>0</bpm>
<rpm>0.00</rpm>
</extensions>
</trkpt>
<trkpt lat="30.878446579" lon="34.768173218">
<ele>485.140625</ele>
<time>2013-11-20T12:48:24Z</time>
<speed>0.010000</speed>
<extensions>
<speed>0.0</speed>
<temp>0.00</temp>
<bpm>0</bpm>
<rpm>0.00</rpm>
</extensions>
</trkpt>
<trkpt lat="30.878448486" lon="34.768169403">
<ele>485.109375</ele>
<time>2013-11-20T12:48:29Z</time>
<speed>0.080000</speed>
<extensions>
<speed>0.1</speed>
<temp>0.00</temp>
<bpm>0</bpm>
<rpm>0.00</rpm>
</extensions>
</trkpt>
<trkpt lat="30.878450394" lon="34.768173218">
<ele>485.132813</ele>
<time>2013-11-20T12:48:34Z</time>
<speed>0.040000</speed>
<extensions>
<speed>0.0</speed>
<temp>0.00</temp>
<bpm>0</bpm>
<rpm>0.00</rpm>
</extensions>
</trkpt>
<trkpt lat="30.878450394" lon="34.768173218">
<ele>485.140625</ele>
<time>2013-11-20T12:48:39Z</time>
<speed>0.050000</speed>
<extensions>
<speed>0.1</speed>
<temp>0.00</temp>
<bpm>0</bpm>
<rpm>0.00</rpm>
</extensions>
</trkpt>
<trkpt lat="30.878450394" lon="34.768173218">
<ele>485.125000</ele>
<time>2013-11-20T12:48:44Z</time>
<speed>0.010000</speed>
<extensions>
<speed>0.0</speed>
<temp>0.00</temp>
<bpm>0</bpm>
<rpm>0.00</rpm>
</extensions>
</trkpt>
<trkpt lat="30.878450394" lon="34.768173218">
<ele>485.132813</ele>
<time>2013-11-20T12:48:49Z</time>
<speed>0.090000</speed>
<extensions>
<speed>0.1</speed>
<temp>0.00</temp>
<bpm>0</bpm>
<rpm>0.00</rpm>
</extensions>
</trkpt>
<trkpt lat="30.878452301" lon="34.768173218">
<ele>485.039063</ele>
<time>2013-11-20T12:48:54Z</time>
<speed>0.030000</speed>
<extensions>
<speed>0.0</speed>
<temp>0.00</temp>
<bpm>0</bpm>
<rpm>0.00</rpm>
</extensions>
</trkpt>
<trkpt lat="30.878450394" lon="34.768173218">
<ele>485.101563</ele>
<time>2013-11-20T12:48:59Z</time>
<speed>0.030000</speed>
<extensions>
<speed>0.0</speed>
<temp>0.00</temp>
<bpm>0</bpm>
<rpm>0.00</rpm>
</extensions>
</trkpt>
<trkpt lat="30.878450394" lon="34.768169403">
<ele>485.078125</ele>
<time>2013-11-20T12:49:04Z</time>
<speed>0.060000</speed>
<extensions>
<speed>0.1</speed>
<temp>0.00</temp>
<bpm>0</bpm>
<rpm>0.00</rpm>
</extensions>
</trkpt>
<trkpt lat="30.878450394" lon="34.768173218">
<ele>485.109375</ele>
<time>2013-11-20T12:49:09Z</time>
<extensions>
<speed>0.0</speed>
<temp>0.00</temp>
<bpm>0</bpm>
<rpm>0.00</rpm>
</extensions>
</trkpt>
<trkpt lat="30.878450394" lon="34.768173218">
<ele>485.101563</ele>
<time>2013-11-20T12:49:14Z</time>
<extensions>
<speed>0.0</speed>
<temp>0.00</temp>
<bpm>0</bpm>
<rpm>0.00</rpm>
</extensions>
</trkpt>
<trkpt lat="30.878450394" lon="34.768169403">
<ele>485.085938</ele>
<time>2013-11-20T12:49:19Z</time>
<speed>0.010000</speed>
<extensions>
<speed>0.0</speed>
<temp>0.00</temp>
<bpm>0</bpm>
<rpm>0.00</rpm>
</extensions>
</trkpt>
<trkpt lat="30.878450394" lon="34.768169403">
<ele>485.070313</ele>
<time>2013-11-20T12:49:24Z</time>
<extensions>
<speed>0.0</speed>
<temp>0.00</temp>
<bpm>0</bpm>
<rpm>0.00</rpm>
</extensions>
</trkpt>
<trkpt lat="30.878450394" lon="34.768169403">
<ele>485.062500</ele>
<time>2013-11-20T12:49:29Z</time>
<extensions>
<speed>0.0</speed>
<temp>0.00</temp>
<bpm>0</bpm>
<rpm>0.00</rpm>
</extensions>
</trkpt>
<trkpt lat="30.878446579" lon="34.768177032">
<ele>484.812500</ele>
<time>2013-11-20T12:49:34Z</time>
<speed>0.370000</speed>
<extensions>
<speed>0.4</speed>
<temp>0.00</temp>
<bpm>0</bpm>
<rpm>0.00</rpm>
</extensions>
</trkpt>
<trkpt lat="30.878440857" lon="34.768188477">
<ele>483.156250</ele>
<time>2013-11-20T12:49:39Z</time>
<extensions>
<speed>0.0</speed>
<temp>0.00</temp>
<bpm>0</bpm>
<rpm>0.00</rpm>
</extensions>
</trkpt>
<trkpt lat="30.878440857" lon="34.768188477">
<ele>483.140625</ele>
<time>2013-11-20T12:49:44Z</time>
<extensions>
<speed>0.0</speed>
<temp>0.00</temp>
<bpm>0</bpm>
<rpm>0.00</rpm>
</extensions>
</trkpt>
<trkpt lat="30.878440857" lon="34.768188477">
<ele>483.125000</ele>
<time>2013-11-20T12:49:49Z</time>
<extensions>
<speed>0.0</speed>
<temp>0.00</temp>
<bpm>0</bpm>
<rpm>0.00</rpm>
</extensions>
</trkpt>
<trkpt lat="30.878440857" lon="34.768188477">
<ele>483.101563</ele>
<time>2013-11-20T12:49:54Z</time>
<extensions>
<speed>0.0</speed>
<temp>0.00</temp>
<bpm>0</bpm>
<rpm>0.00</rpm>
</extensions>
</trkpt>
<trkpt lat="30.878440857" lon="34.768188477">
<ele>483.078125</ele>
<time>2013-11-20T12:49:59Z</time>
<extensions>
<speed>0.0</speed>
<temp>0.00</temp>
<bpm>0</bpm>
<rpm>0.00</rpm>
</extensions>
</trkpt>
<trkpt lat="30.878440857" lon="34.768188477">
<ele>483.046875</ele>
<time>2013-11-20T12:50:04Z</time>
<extensions>
<speed>0.0</speed>
<temp>0.00</temp>
<bpm>0</bpm>
<rpm>0.00</rpm>
</extensions>
</trkpt>
<trkpt lat="30.878440857" lon="34.768188477">
<ele>483.015625</ele>
<time>2013-11-20T12:50:09Z</time>
<extensions>
<speed>0.0</speed>
<temp>0.00</temp>
<bpm>0</bpm>
<rpm>0.00</rpm>
</extensions>
</trkpt>
<trkpt lat="30.878440857" lon="34.768188477">
<ele>482.992188</ele>
<time>2013-11-20T12:50:14Z</time>
<extensions>
<speed>0.0</speed>
<temp>0.00</temp>
<bpm>0</bpm>
<rpm>0.00</rpm>
</extensions>
</trkpt>
<trkpt lat="30.878440857" lon="34.768188477">
<ele>482.976563</ele>
<time>2013-11-20T12:50:19Z</time>
<extensions>
<speed>0.0</speed>
<temp>0.00</temp>
<bpm>0</bpm>
<rpm>0.00</rpm>
</extensions>
</trkpt>
<trkpt lat="30.878438950" lon="34.768188477">
<ele>482.953125</ele>
<time>2013-11-20T12:50:24Z</time>
<extensions>
<speed>0.0</speed>
<temp>0.00</temp>
<bpm>0</bpm>
<rpm>0.00</rpm>
</extensions>
</trkpt>
<trkpt lat="30.878438950" lon="34.768188477">
<ele>482.929688</ele>
<time>2013-11-20T12:50:29Z</time>
<extensions>
<speed>0.0</speed>
<temp>0.00</temp>
<bpm>0</bpm>
<rpm>0.00</rpm>
</extensions>
</trkpt>
<trkpt lat="30.878440857" lon="34.768184662">
<ele>482.867188</ele>
<time>2013-11-20T12:50:34Z</time>
<speed>0.050000</speed>
<extensions>
<speed>0.1</speed>
<temp>0.00</temp>
<bpm>0</bpm>
<rpm>0.00</rpm>
</extensions>
</trkpt>
<trkpt lat="30.878438950" lon="34.768188477">
<ele>482.789063</ele>
<time>2013-11-20T12:50:39Z</time>
<speed>0.010000</speed>
<extensions>
<speed>0.0</speed>
<temp>0.00</temp>
<bpm>0</bpm>
<rpm>0.00</rpm>
</extensions>
</trkpt>
<trkpt lat="30.878438950" lon="34.768188477">
<ele>482.781250</ele>
<time>2013-11-20T12:50:44Z</time>
<speed>0.020000</speed>
<extensions>
<speed>0.0</speed>
<temp>0.00</temp>
<bpm>0</bpm>
<rpm>0.00</rpm>
</extensions>
</trkpt>
<trkpt lat="30.878438950" lon="34.768188477">
<ele>482.773438</ele>
<time>2013-11-20T12:50:49Z</time>
<speed>0.010000</speed>
<extensions>
<speed>0.0</speed>
<temp>0.00</temp>
<bpm>0</bpm>
<rpm>0.00</rpm>
</extensions>
</trkpt>
<trkpt lat="30.878438950" lon="34.768188477">
<ele>482.765625</ele>
<time>2013-11-20T12:50:54Z</time>
<speed>0.010000</speed>
<extensions>
<speed>0.0</speed>
<temp>0.00</temp>
<bpm>0</bpm>
<rpm>0.00</rpm>
</extensions>
</trkpt>
<trkpt lat="30.878438950" lon="34.768188477">
<ele>482.781250</ele>
<time>2013-11-20T12:50:59Z</time>
<extensions>
<speed>0.0</speed>
<temp>0.00</temp>
<bpm>0</bpm>
<rpm>0.00</rpm>
</extensions>
</trkpt>
<trkpt lat="30.878438950" lon="34.768188477">
<ele>482.796875</ele>
<time>2013-11-20T12:51:04Z</time>
<speed>0.010000</speed>
<extensions>
<speed>0.0</speed>
<temp>0.00</temp>
<bpm>0</bpm>
<rpm>0.00</rpm>
</extensions>
</trkpt>
<trkpt lat="30.878438950" lon="34.768188477">
<ele>482.789063</ele>
<time>2013-11-20T12:51:09Z</time>
<extensions>
<speed>0.0</speed>
<temp>0.00</temp>
<bpm>0</bpm>
<rpm>0.00</rpm>
</extensions>
</trkpt>
<trkpt lat="30.878438950" lon="34.768188477">
<ele>482.789063</ele>
<time>2013-11-20T12:51:14Z</time>
<extensions>
<speed>0.0</speed>
<temp>0.00</temp>
<bpm>0</bpm>
<rpm>0.00</rpm>
</extensions>
</trkpt>
<trkpt lat="30.878438950" lon="34.768188477">
<ele>482.773438</ele>
<time>2013-11-20T12:51:19Z</time>
<speed>0.940000</speed>
<extensions>
<speed>0.9</speed>
<temp>0.00</temp>
<bpm>0</bpm>
<rpm>0.00</rpm>
</extensions>
</trkpt>
<trkpt lat="30.878448486" lon="34.768180847">
<ele>481.945313</ele>
<time>2013-11-20T12:51:24Z</time>
<speed>0.220000</speed>
<extensions>
<speed>0.2</speed>
<temp>0.00</temp>
<bpm>0</bpm>
<rpm>0.00</rpm>
</extensions>
</trkpt>
<trkpt lat="30.878463745" lon="34.768188477">
<ele>481.492188</ele>
<time>2013-11-20T12:51:29Z</time>
<speed>0.900000</speed>
<extensions>
<speed>0.9</speed>
<temp>0.00</temp>
<bpm>0</bpm>
<rpm>0.00</rpm>
</extensions>
</trkpt>
<trkpt lat="30.878496170" lon="34.768222809">
<ele>481.132813</ele>
<time>2013-11-20T12:51:34Z</time>
<speed>0.390000</speed>
<extensions>
<speed>0.4</speed>
<temp>0.00</temp>
<bpm>0</bpm>
<rpm>0.00</rpm>
</extensions>
</trkpt>
<trkpt lat="30.878499985" lon="34.768226624">
<ele>480.726563</ele>
<time>2013-11-20T12:51:39Z</time>
<extensions>
<speed>0.0</speed>
<temp>0.00</temp>
<bpm>0</bpm>
<rpm>0.00</rpm>
</extensions>
</trkpt>
<trkpt lat="30.878507614" lon="34.768241882">
<ele>480.765625</ele>
<time>2013-11-20T12:51:44Z</time>
<speed>1.520000</speed>
<extensions>
<speed>1.5</speed>
<temp>0.00</temp>
<bpm>0</bpm>
<rpm>0.00</rpm>
</extensions>
</trkpt>
<trkpt lat="30.878538132" lon="34.768276215">
<ele>480.656250</ele>
<time>2013-11-20T12:51:49Z</time>
<speed>1.190000</speed>
<extensions>
<speed>1.2</speed>
<temp>0.00</temp>
<bpm>0</bpm>
<rpm>0.00</rpm>
</extensions>
</trkpt>
<trkpt lat="30.878593445" lon="34.768306732">
<ele>479.867188</ele>
<time>2013-11-20T12:51:54Z</time>
<speed>1.250000</speed>
<extensions>
<speed>1.3</speed>
<temp>0.00</temp>
<bpm>0</bpm>
<rpm>0.00</rpm>
</extensions>
</trkpt>
<trkpt lat="30.878612518" lon="34.768333435">
<ele>478.710938</ele>
<time>2013-11-20T12:51:59Z</time>
<speed>0.050000</speed>
<extensions>
<speed>0.1</speed>
<temp>0.00</temp>
<bpm>0</bpm>
<rpm>0.00</rpm>
</extensions>
</trkpt>
<trkpt lat="30.878627777" lon="34.768348694">
<ele>478.328125</ele>
<time>2013-11-20T12:52:04Z</time>
<speed>1.170000</speed>
<extensions>
<speed>1.2</speed>
<temp>0.00</temp>
<bpm>0</bpm>
<rpm>0.00</rpm>
</extensions>
</trkpt>
<trkpt lat="30.878679276" lon="34.768379211">
<ele>477.695313</ele>
<time>2013-11-20T12:52:09Z</time>
<speed>1.420000</speed>
<extensions>
<speed>1.4</speed>
<temp>0.00</temp>
<bpm>0</bpm>
<rpm>0.00</rpm>
</extensions>
</trkpt>
<trkpt lat="30.878759384" lon="34.768417358">
<ele>477.390625</ele>
<time>2013-11-20T12:52:14Z</time>
<speed>2.370000</speed>
<extensions>
<speed>2.4</speed>
<temp>0.00</temp>
<bpm>0</bpm>
<rpm>0.00</rpm>
</extensions>
</trkpt>
<trkpt lat="30.878873825" lon="34.768459320">
<ele>476.695313</ele>
<time>2013-11-20T12:52:19Z</time>
<speed>2.390000</speed>
<extensions>
<speed>2.4</speed>
<temp>0.00</temp>
<bpm>0</bpm>
<rpm>0.00</rpm>
</extensions>
</trkpt>
<trkpt lat="30.878955841" lon="34.768470764">
<ele>475.585938</ele>
<time>2013-11-20T12:52:24Z</time>
<speed>1.770000</speed>
<extensions>
<speed>1.8</speed>
<temp>0.00</temp>
<bpm>0</bpm>
<rpm>0.00</rpm>
</extensions>
</trkpt>
<trkpt lat="30.879041672" lon="34.768486023">
<ele>475.023438</ele>
<time>2013-11-20T12:52:29Z</time>
<speed>2.220000</speed>
<extensions>
<speed>2.2</speed>
<temp>0.00</temp>
<bpm>0</bpm>
<rpm>0.00</rpm>
</extensions>
</trkpt>
<trkpt lat="30.879127502" lon="34.768466949">
<ele>475.507813</ele>
<time>2013-11-20T12:52:34Z</time>
<speed>1.000000</speed>
<extensions>
<speed>1.0</speed>
<temp>0.00</temp>
<bpm>0</bpm>
<rpm>0.00</rpm>
</extensions>
</trkpt>
<trkpt lat="30.879203796" lon="34.768489838">
<ele>474.375000</ele>
<time>2013-11-20T12:52:39Z</time>
<speed>2.030000</speed>
<extensions>
<speed>2.0</speed>
<temp>0.00</temp>
<bpm>0</bpm>
<rpm>0.00</rpm>
</extensions>
</trkpt>
<trkpt lat="30.879291534" lon="34.768512726">
<ele>474.773438</ele>
<time>2013-11-20T12:52:44Z</time>
<speed>2.600000</speed>
<extensions>
<speed>2.6</speed>
<temp>0.00</temp>
<bpm>0</bpm>
<rpm>0.00</rpm>
</extensions>
</trkpt>
<trkpt lat="30.879318237" lon="34.768524170">
<ele>474.523438</ele>
<time>2013-11-20T12:52:49Z</time>
<speed>0.070000</speed>
<extensions>
<speed>0.1</speed>
<temp>0.00</temp>
<bpm>0</bpm>
<rpm>0.00</rpm>
</extensions>
</trkpt>
<trkpt lat="30.879318237" lon="34.768524170">
<ele>474.578125</ele>
<time>2013-11-20T12:52:54Z</time>
<speed>0.030000</speed>
<extensions>
<speed>0.0</speed>
<temp>0.00</temp>
<bpm>0</bpm>
<rpm>0.00</rpm>
</extensions>
</trkpt>
<trkpt lat="30.879318237" lon="34.768524170">
<ele>474.585938</ele>
<time>2013-11-20T12:52:59Z</time>
<speed>0.010000</speed>
<extensions>
<speed>0.0</speed>
<temp>0.00</temp>
<bpm>0</bpm>
<rpm>0.00</rpm>
</extensions>
</trkpt>
<trkpt lat="30.879318237" lon="34.768524170">
<ele>474.585938</ele>
<time>2013-11-20T12:53:04Z</time>
<speed>0.130000</speed>
<extensions>
<speed>0.1</speed>
<temp>0.00</temp>
<bpm>0</bpm>
<rpm>0.00</rpm>
</extensions>
</trkpt>
<trkpt lat="30.879390717" lon="34.768535614">
<ele>473.750000</ele>
<time>2013-11-20T12:53:09Z</time>
<speed>2.490000</speed>
<extensions>
<speed>2.5</speed>
<temp>0.00</temp>
<bpm>0</bpm>
<rpm>0.00</rpm>
</extensions>
</trkpt>
<trkpt lat="30.879522324" lon="34.768611908">
<ele>473.585938</ele>
<time>2013-11-20T12:53:14Z</time>
<speed>2.930000</speed>
<extensions>
<speed>2.9</speed>
<temp>0.00</temp>
<bpm>0</bpm>
<rpm>0.00</rpm>
</extensions>
</trkpt>
<trkpt lat="30.879652023" lon="34.768684387">
<ele>473.781250</ele>
<time>2013-11-20T12:53:19Z</time>
<speed>3.090000</speed>
<extensions>
<speed>3.1</speed>
<temp>0.00</temp>
<bpm>0</bpm>
<rpm>0.00</rpm>
</extensions>
</trkpt>
<trkpt lat="30.879779816" lon="34.768756866">
<ele>474.171875</ele>
<time>2013-11-20T12:53:24Z</time>
<speed>2.940000</speed>
<extensions>
<speed>2.9</speed>
<temp>0.00</temp>
<bpm>0</bpm>
<rpm>0.00</rpm>
</extensions>
</trkpt>
<trkpt lat="30.879884720" lon="34.768867493">
<ele>474.742188</ele>
<time>2013-11-20T12:53:29Z</time>
<speed>2.970000</speed>
<extensions>
<speed>3.0</speed>
<temp>0.00</temp>
<bpm>0</bpm>
<rpm>0.00</rpm>
</extensions>
</trkpt>
<trkpt lat="30.879962921" lon="34.769008636">
<ele>474.875000</ele>
<time>2013-11-20T12:53:34Z</time>
<speed>3.070000</speed>
<extensions>
<speed>3.1</speed>
<temp>0.00</temp>
<bpm>0</bpm>
<rpm>0.00</rpm>
</extensions>
</trkpt>
<trkpt lat="30.880050659" lon="34.769107819">
<ele>475.148438</ele>
<time>2013-11-20T12:53:39Z</time>
<speed>2.550000</speed>
<extensions>
<speed>2.6</speed>
<temp>0.00</temp>
<bpm>0</bpm>
<rpm>0.00</rpm>
</extensions>
</trkpt>
<trkpt lat="30.880119324" lon="34.769226074">
<ele>476.007813</ele>
<time>2013-11-20T12:53:44Z</time>
<speed>2.340000</speed>
<extensions>
<speed>2.3</speed>
<temp>0.00</temp>
<bpm>0</bpm>
<rpm>0.00</rpm>
</extensions>
</trkpt>
<trkpt lat="30.880187988" lon="34.769294739">
<ele>477.375000</ele>
<time>2013-11-20T12:53:49Z</time>
<speed>1.710000</speed>
<extensions>
<speed>1.7</speed>
<temp>0.00</temp>
<bpm>0</bpm>
<rpm>0.00</rpm>
</extensions>
</trkpt>
<trkpt lat="30.880243301" lon="34.769340515">
<ele>478.226563</ele>
<time>2013-11-20T12:53:54Z</time>
<speed>0.900000</speed>
<extensions>
<speed>0.9</speed>
<temp>0.00</temp>
<bpm>0</bpm>
<rpm>0.00</rpm>
</extensions>
</trkpt>
<trkpt lat="30.880273819" lon="34.769371033">
<ele>477.968750</ele>
<time>2013-11-20T12:53:59Z</time>
<speed>0.690000</speed>
<extensions>
<speed>0.7</speed>
<temp>0.00</temp>
<bpm>0</bpm>
<rpm>0.00</rpm>
</extensions>
</trkpt>
<trkpt lat="30.880306244" lon="34.769401550">
<ele>479.382813</ele>
<time>2013-11-20T12:54:04Z</time>
<speed>1.140000</speed>
<extensions>
<speed>1.1</speed>
<temp>0.00</temp>
<bpm>0</bpm>
<rpm>0.00</rpm>
</extensions>
</trkpt>
<trkpt lat="30.880353928" lon="34.769435883">
<ele>479.828125</ele>
<time>2013-11-20T12:54:09Z</time>
<speed>1.610000</speed>
<extensions>
<speed>1.6</speed>
<temp>0.00</temp>
<bpm>0</bpm>
<rpm>0.00</rpm>
</extensions>
</trkpt>
<trkpt lat="30.880390167" lon="34.769454956">
<ele>481.437500</ele>
<time>2013-11-20T12:54:14Z</time>
<speed>0.870000</speed>
<extensions>
<speed>0.9</speed>
<temp>0.00</temp>
<bpm>0</bpm>
<rpm>0.00</rpm>
</extensions>
</trkpt>
<trkpt lat="30.880418777" lon="34.769474030">
<ele>480.820313</ele>
<time>2013-11-20T12:54:19Z</time>
<speed>0.900000</speed>
<extensions>
<speed>0.9</speed>
<temp>0.00</temp>
<bpm>0</bpm>
<rpm>0.00</rpm>
</extensions>
</trkpt>
<trkpt lat="30.880456924" lon="34.769527435">
<ele>481.109375</ele>
<time>2013-11-20T12:54:24Z</time>
<speed>1.580000</speed>
<extensions>
<speed>1.6</speed>
<temp>0.00</temp>
<bpm>0</bpm>
<rpm>0.00</rpm>
</extensions>
</trkpt>
<trkpt lat="30.880493164" lon="34.769596100">
<ele>480.906250</ele>
<time>2013-11-20T12:54:29Z</time>
<speed>1.490000</speed>
<extensions>
<speed>1.5</speed>
<temp>0.00</temp>
<bpm>0</bpm>
<rpm>0.00</rpm>
</extensions>
</trkpt>
<trkpt lat="30.880525589" lon="34.769676208">
<ele>480.085938</ele>
<time>2013-11-20T12:54:34Z</time>
<speed>1.380000</speed>
<extensions>
<speed>1.4</speed>
<temp>0.00</temp>
<bpm>0</bpm>
<rpm>0.00</rpm>
</extensions>
</trkpt>
<trkpt lat="30.880582809" lon="34.769748688">
<ele>479.101563</ele>
<time>2013-11-20T12:54:39Z</time>
<speed>2.420000</speed>
<extensions>
<speed>2.4</speed>
<temp>0.00</temp>
<bpm>0</bpm>
<rpm>0.00</rpm>
</extensions>
</trkpt>
<trkpt lat="30.880664825" lon="34.769855499">
<ele>478.500000</ele>
<time>2013-11-20T12:54:44Z</time>
<speed>1.840000</speed>
<extensions>
<speed>1.8</speed>
<temp>0.00</temp>
<bpm>0</bpm>
<rpm>0.00</rpm>
</extensions>
</trkpt>
<trkpt lat="30.880741119" lon="34.769924164">
<ele>479.015625</ele>
<time>2013-11-20T12:54:49Z</time>
<speed>2.600000</speed>
<extensions>
<speed>2.6</speed>
<temp>0.00</temp>
<bpm>0</bpm>
<rpm>0.00</rpm>
</extensions>
</trkpt>
<trkpt lat="30.880819321" lon="34.770023346">
<ele>479.242188</ele>
<time>2013-11-20T12:54:54Z</time>
<speed>2.590000</speed>
<extensions>
<speed>2.6</speed>
<temp>0.00</temp>
<bpm>0</bpm>
<rpm>0.00</rpm>
</extensions>
</trkpt>
<trkpt lat="30.880876541" lon="34.770107269">
<ele>479.882813</ele>
<time>2013-11-20T12:54:59Z</time>
<speed>2.560000</speed>
<extensions>
<speed>2.6</speed>
<temp>0.00</temp>
<bpm>0</bpm>
<rpm>0.00</rpm>
</extensions>
</trkpt>
<trkpt lat="30.880916595" lon="34.770233154">
<ele>479.335938</ele>
<time>2013-11-20T12:55:04Z</time>
<speed>1.700000</speed>
<extensions>
<speed>1.7</speed>
<temp>0.00</temp>
<bpm>0</bpm>
<rpm>0.00</rpm>
</extensions>
</trkpt>
<trkpt lat="30.880964279" lon="34.770317078">
<ele>480.117188</ele>
<time>2013-11-20T12:55:09Z</time>
<speed>2.000000</speed>
<extensions>
<speed>2.0</speed>
<temp>0.00</temp>
<bpm>0</bpm>
<rpm>0.00</rpm>
</extensions>
</trkpt>
<trkpt lat="30.881010056" lon="34.770416260">
<ele>481.062500</ele>
<time>2013-11-20T12:55:14Z</time>
<speed>2.100000</speed>
<extensions>
<speed>2.1</speed>
<temp>0.00</temp>
<bpm>0</bpm>
<rpm>0.00</rpm>
</extensions>
</trkpt>
<trkpt lat="30.881061554" lon="34.770492554">
<ele>482.132813</ele>
<time>2013-11-20T12:55:19Z</time>
<speed>1.570000</speed>
<extensions>
<speed>1.6</speed>
<temp>0.00</temp>
<bpm>0</bpm>
<rpm>0.00</rpm>
</extensions>
</trkpt>
<trkpt lat="30.881130219" lon="34.770465851">
<ele>481.984375</ele>
<time>2013-11-20T12:55:24Z</time>
<speed>1.790000</speed>
<extensions>
<speed>1.8</speed>
<temp>0.00</temp>
<bpm>0</bpm>
<rpm>0.00</rpm>
</extensions>
</trkpt>
<trkpt lat="30.881204605" lon="34.770416260">
<ele>481.906250</ele>
<time>2013-11-20T12:55:29Z</time>
<speed>2.170000</speed>
<extensions>
<speed>2.2</speed>
<temp>0.00</temp>
<bpm>0</bpm>
<rpm>0.00</rpm>
</extensions>
</trkpt>
<trkpt lat="30.881280899" lon="34.770336151">
<ele>482.109375</ele>
<time>2013-11-20T12:55:34Z</time>
<speed>2.280000</speed>
<extensions>
<speed>2.3</speed>
<temp>0.00</temp>
<bpm>0</bpm>
<rpm>0.00</rpm>
</extensions>
</trkpt>
<trkpt lat="30.881362915" lon="34.770278931">
<ele>482.531250</ele>
<time>2013-11-20T12:55:39Z</time>
<speed>2.050000</speed>
<extensions>
<speed>2.1</speed>
<temp>0.00</temp>
<bpm>0</bpm>
<rpm>0.00</rpm>
</extensions>
</trkpt>
<trkpt lat="30.881412506" lon="34.770233154">
<ele>482.789063</ele>
<time>2013-11-20T12:55:44Z</time>
<speed>0.460000</speed>
<extensions>
<speed>0.5</speed>
<temp>0.00</temp>
<bpm>0</bpm>
<rpm>0.00</rpm>
</extensions>
</trkpt>
<trkpt lat="30.881404877" lon="34.770217896">
<ele>482.429688</ele>
<time>2013-11-20T12:55:49Z</time>
<speed>0.020000</speed>
<extensions>
<speed>0.0</speed>
<temp>0.00</temp>
<bpm>0</bpm>
<rpm>0.00</rpm>
</extensions>
</trkpt>
<trkpt lat="30.881404877" lon="34.770217896">
<ele>482.695313</ele>
<time>2013-11-20T12:55:54Z</time>
<speed>0.040000</speed>
<extensions>
<speed>0.0</speed>
<temp>0.00</temp>
<bpm>0</bpm>
<rpm>0.00</rpm>
</extensions>
</trkpt>
<trkpt lat="30.881404877" lon="34.770195007">
<ele>483.375000</ele>
<time>2013-11-20T12:55:59Z</time>
<speed>1.330000</speed>
<extensions>
<speed>1.3</speed>
<temp>0.00</temp>
<bpm>0</bpm>
<rpm>0.00</rpm>
</extensions>
</trkpt>
<trkpt lat="30.881378174" lon="34.770076752">
<ele>485.257813</ele>
<time>2013-11-20T12:56:04Z</time>
<speed>2.620000</speed>
<extensions>
<speed>2.6</speed>
<temp>0.00</temp>
<bpm>0</bpm>
<rpm>0.00</rpm>
</extensions>
</trkpt>
<trkpt lat="30.881404877" lon="34.769935608">
<ele>487.320313</ele>
<time>2013-11-20T12:56:09Z</time>
<speed>2.480000</speed>
<extensions>
<speed>2.5</speed>
<temp>0.00</temp>
<bpm>0</bpm>
<rpm>0.00</rpm>
</extensions>
</trkpt>
<trkpt lat="30.881460190" lon="34.769821167">
<ele>487.937500</ele>
<time>2013-11-20T12:56:14Z</time>
<speed>2.570000</speed>
<extensions>
<speed>2.6</speed>
<temp>0.00</temp>
<bpm>0</bpm>
<rpm>0.00</rpm>
</extensions>
</trkpt>
<trkpt lat="30.881570816" lon="34.769699097">
<ele>488.007813</ele>
<time>2013-11-20T12:56:19Z</time>
<speed>3.760000</speed>
<extensions>
<speed>3.8</speed>
<temp>0.00</temp>
<bpm>0</bpm>
<rpm>0.00</rpm>
</extensions>
</trkpt>
<trkpt lat="30.881692886" lon="34.769538879">
<ele>487.390625</ele>
<time>2013-11-20T12:56:24Z</time>
<speed>4.510000</speed>
<extensions>
<speed>4.5</speed>
<temp>0.00</temp>
<bpm>0</bpm>
<rpm>0.00</rpm>
</extensions>
</trkpt>
<trkpt lat="30.881799698" lon="34.769367218">
<ele>486.609375</ele>
<time>2013-11-20T12:56:29Z</time>
<speed>3.580000</speed>
<extensions>
<speed>3.6</speed>
<temp>0.00</temp>
<bpm>0</bpm>
<rpm>0.00</rpm>
</extensions>
</trkpt>
<trkpt lat="30.881910324" lon="34.769271851">
<ele>486.515625</ele>
<time>2013-11-20T12:56:34Z</time>
<speed>2.640000</speed>
<extensions>
<speed>2.6</speed>
<temp>0.00</temp>
<bpm>0</bpm>
<rpm>0.00</rpm>
</extensions>
</trkpt>
<trkpt lat="30.882013321" lon="34.769165039">
<ele>485.882813</ele>
<time>2013-11-20T12:56:39Z</time>
<speed>3.600000</speed>
<extensions>
<speed>3.6</speed>
<temp>0.00</temp>
<bpm>0</bpm>
<rpm>0.00</rpm>
</extensions>
</trkpt>
<trkpt lat="30.882144928" lon="34.769035339">
<ele>484.273438</ele>
<time>2013-11-20T12:56:44Z</time>
<speed>4.060000</speed>
<extensions>
<speed>4.1</speed>
<temp>0.00</temp>
<bpm>0</bpm>
<rpm>0.00</rpm>
</extensions>
</trkpt>
<trkpt lat="30.882259369" lon="34.768894196">
<ele>483.390625</ele>
<time>2013-11-20T12:56:49Z</time>
<speed>3.360000</speed>
<extensions>
<speed>3.4</speed>
<temp>0.00</temp>
<bpm>0</bpm>
<rpm>0.00</rpm>
</extensions>
</trkpt>
<trkpt lat="30.882358551" lon="34.768753052">
<ele>481.265625</ele>
<time>2013-11-20T12:56:54Z</time>
<speed>4.380000</speed>
<extensions>
<speed>4.4</speed>
<temp>0.00</temp>
<bpm>0</bpm>
<rpm>0.00</rpm>
</extensions>
</trkpt>
<trkpt lat="30.882524490" lon="34.768718719">
<ele>480.750000</ele>
<time>2013-11-20T12:56:59Z</time>
<speed>1.990000</speed>
<extensions>
<speed>2.0</speed>
<temp>0.00</temp>
<bpm>0</bpm>
<rpm>0.00</rpm>
</extensions>
</trkpt>
<trkpt lat="30.882547379" lon="34.768714905">
<ele>481.609375</ele>
<time>2013-11-20T12:57:04Z</time>
<speed>0.630000</speed>
<extensions>
<speed>0.6</speed>
<temp>0.00</temp>
<bpm>0</bpm>
<rpm>0.00</rpm>
</extensions>
</trkpt>
<trkpt lat="30.882589340" lon="34.768718719">
<ele>481.132813</ele>
<time>2013-11-20T12:57:09Z</time>
<speed>1.080000</speed>
<extensions>
<speed>1.1</speed>
<temp>0.00</temp>
<bpm>0</bpm>
<rpm>0.00</rpm>
</extensions>
</trkpt>
<trkpt lat="30.882625580" lon="34.768722534">
<ele>480.281250</ele>
<time>2013-11-20T12:57:14Z</time>
<speed>1.720000</speed>
<extensions>
<speed>1.7</speed>
<temp>0.00</temp>
<bpm>0</bpm>
<rpm>0.00</rpm>
</extensions>
</trkpt>
<trkpt lat="30.882747650" lon="34.768737793">
<ele>479.054688</ele>
<time>2013-11-20T12:57:19Z</time>
<speed>3.520000</speed>
<extensions>
<speed>3.5</speed>
<temp>0.00</temp>
<bpm>0</bpm>
<rpm>0.00</rpm>
</extensions>
</trkpt>
<trkpt lat="30.882913589" lon="34.768711090">
<ele>478.421875</ele>
<time>2013-11-20T12:57:24Z</time>
<speed>3.730000</speed>
<extensions>
<speed>3.7</speed>
<temp>0.00</temp>
<bpm>0</bpm>
<rpm>0.00</rpm>
</extensions>
</trkpt>
<trkpt lat="30.883087158" lon="34.768676758">
<ele>476.789063</ele>
<time>2013-11-20T12:57:29Z</time>
<speed>4.080000</speed>
<extensions>
<speed>4.1</speed>
<temp>0.00</temp>
<bpm>0</bpm>
<rpm>0.00</rpm>
</extensions>
</trkpt>
<trkpt lat="30.883258820" lon="34.768577576">
<ele>476.273438</ele>
<time>2013-11-20T12:57:34Z</time>
<speed>4.140000</speed>
<extensions>
<speed>4.1</speed>
<temp>0.00</temp>
<bpm>0</bpm>
<rpm>0.00</rpm>
</extensions>
</trkpt>
<trkpt lat="30.883420944" lon="34.768463135">
<ele>475.890625</ele>
<time>2013-11-20T12:57:39Z</time>
<speed>4.000000</speed>
<extensions>
<speed>4.0</speed>
<temp>0.00</temp>
<bpm>0</bpm>
<rpm>0.00</rpm>
</extensions>
</trkpt>
<trkpt lat="30.883522034" lon="34.768318176">
<ele>476.078125</ele>
<time>2013-11-20T12:57:44Z</time>
<speed>3.860000</speed>
<extensions>
<speed>3.9</speed>
<temp>0.00</temp>
<bpm>0</bpm>
<rpm>0.00</rpm>
</extensions>
</trkpt>
<trkpt lat="30.883594513" lon="34.768135071">
<ele>476.921875</ele>
<time>2013-11-20T12:57:49Z</time>
<speed>4.230000</speed>
<extensions>
<speed>4.2</speed>
<temp>0.00</temp>
<bpm>0</bpm>
<rpm>0.00</rpm>
</extensions>
</trkpt>
<trkpt lat="30.883687973" lon="34.767929077">
<ele>478.132813</ele>
<time>2013-11-20T12:57:54Z</time>
<speed>4.570000</speed>
<extensions>
<speed>4.6</speed>
<temp>0.00</temp>
<bpm>0</bpm>
<rpm>0.00</rpm>
</extensions>
</trkpt>
<trkpt lat="30.883789063" lon="34.767684937">
<ele>477.500000</ele>
<time>2013-11-20T12:57:59Z</time>
<speed>5.190000</speed>
<extensions>
<speed>5.2</speed>
<temp>0.00</temp>
<bpm>0</bpm>
<rpm>0.00</rpm>
</extensions>
</trkpt>
<trkpt lat="30.883878708" lon="34.767436981">
<ele>476.765625</ele>
<time>2013-11-20T12:58:04Z</time>
<speed>5.130000</speed>
<extensions>
<speed>5.1</speed>
<temp>0.00</temp>
<bpm>0</bpm>
<rpm>0.00</rpm>
</extensions>
</trkpt>
<trkpt lat="30.883981705" lon="34.767169952">
<ele>476.242188</ele>
<time>2013-11-20T12:58:09Z</time>
<speed>5.640000</speed>
<extensions>
<speed>5.6</speed>
<temp>0.00</temp>
<bpm>0</bpm>
<rpm>0.00</rpm>
</extensions>
</trkpt>
<trkpt lat="30.884029388" lon="34.766883850">
<ele>475.781250</ele>
<time>2013-11-20T12:58:14Z</time>
<speed>5.130000</speed>
<extensions>
<speed>5.1</speed>
<temp>0.00</temp>
<bpm>0</bpm>
<rpm>0.00</rpm>
</extensions>
</trkpt>
<trkpt lat="30.884056091" lon="34.766620636">
<ele>475.726563</ele>
<time>2013-11-20T12:58:19Z</time>
<speed>4.840000</speed>
<extensions>
<speed>4.8</speed>
<temp>0.00</temp>
<bpm>0</bpm>
<rpm>0.00</rpm>
</extensions>
</trkpt>
<trkpt lat="30.884077072" lon="34.766391754">
<ele>475.875000</ele>
<time>2013-11-20T12:58:24Z</time>
<speed>3.980000</speed>
<extensions>
<speed>4.0</speed>
<temp>0.00</temp>
<bpm>0</bpm>
<rpm>0.00</rpm>
</extensions>
</trkpt>
<trkpt lat="30.884080887" lon="34.766231537">
<ele>476.164063</ele>
<time>2013-11-20T12:58:29Z</time>
<speed>2.510000</speed>
<extensions>
<speed>2.5</speed>
<temp>0.00</temp>
<bpm>0</bpm>
<rpm>0.00</rpm>
</extensions>
</trkpt>
<trkpt lat="30.884098053" lon="34.766124725">
<ele>476.531250</ele>
<time>2013-11-20T12:58:34Z</time>
<speed>2.660000</speed>
<extensions>
<speed>2.7</speed>
<temp>0.00</temp>
<bpm>0</bpm>
<rpm>0.00</rpm>
</extensions>
</trkpt>
<trkpt lat="30.884117126" lon="34.765998840">
<ele>476.648438</ele>
<time>2013-11-20T12:58:39Z</time>
<speed>2.840000</speed>
<extensions>
<speed>2.8</speed>
<temp>0.00</temp>
<bpm>0</bpm>
<rpm>0.00</rpm>
</extensions>
</trkpt>
<trkpt lat="30.884181976" lon="34.765819550">
<ele>475.570313</ele>
<time>2013-11-20T12:58:44Z</time>
<speed>4.220000</speed>
<extensions>
<speed>4.2</speed>
<temp>0.00</temp>
<bpm>0</bpm>
<rpm>0.00</rpm>
</extensions>
</trkpt>
<trkpt lat="30.884246826" lon="34.765674591">
<ele>474.851563</ele>
<time>2013-11-20T12:58:49Z</time>
<speed>0.340000</speed>
<extensions>
<speed>0.3</speed>
<temp>0.00</temp>
<bpm>0</bpm>
<rpm>0.00</rpm>
</extensions>
</trkpt>
<trkpt lat="30.884244919" lon="34.765674591">
<ele>474.468750</ele>
<time>2013-11-20T12:58:54Z</time>
<speed>0.110000</speed>
<extensions>
<speed>0.1</speed>
<temp>0.00</temp>
<bpm>0</bpm>
<rpm>0.00</rpm>
</extensions>
</trkpt>
<trkpt lat="30.884243011" lon="34.765674591">
<ele>474.507813</ele>
<time>2013-11-20T12:58:59Z</time>
<speed>0.500000</speed>
<extensions>
<speed>0.5</speed>
<temp>0.00</temp>
<bpm>0</bpm>
<rpm>0.00</rpm>
</extensions>
</trkpt>
<trkpt lat="30.884222031" lon="34.765697479">
<ele>474.390625</ele>
<time>2013-11-20T12:59:04Z</time>
<speed>0.890000</speed>
<extensions>
<speed>0.9</speed>
<temp>0.00</temp>
<bpm>0</bpm>
<rpm>0.00</rpm>
</extensions>
</trkpt>
<trkpt lat="30.884187698" lon="34.765804291">
<ele>473.617188</ele>
<time>2013-11-20T12:59:09Z</time>
<speed>2.710000</speed>
<extensions>
<speed>2.7</speed>
<temp>0.00</temp>
<bpm>0</bpm>
<rpm>0.00</rpm>
</extensions>
</trkpt>
<trkpt lat="30.884141922" lon="34.765945435">
<ele>476.406250</ele>
<time>2013-11-20T12:59:14Z</time>
<speed>3.160000</speed>
<extensions>
<speed>3.2</speed>
<temp>0.00</temp>
<bpm>0</bpm>
<rpm>0.00</rpm>
</extensions>
</trkpt>
<trkpt lat="30.884094238" lon="34.766075134">
<ele>477.531250</ele>
<time>2013-11-20T12:59:19Z</time>
<speed>1.830000</speed>
<extensions>
<speed>1.8</speed>
<temp>0.00</temp>
<bpm>0</bpm>
<rpm>0.00</rpm>
</extensions>
</trkpt>
<trkpt lat="30.884098053" lon="34.766193390">
<ele>477.765625</ele>
<time>2013-11-20T12:59:24Z</time>
<speed>2.550000</speed>
<extensions>
<speed>2.6</speed>
<temp>0.00</temp>
<bpm>0</bpm>
<rpm>0.00</rpm>
</extensions>
</trkpt>
<trkpt lat="30.884099960" lon="34.766368866">
<ele>478.648438</ele>
<time>2013-11-20T12:59:29Z</time>
<speed>3.480000</speed>
<extensions>
<speed>3.5</speed>
<temp>0.00</temp>
<bpm>0</bpm>
<rpm>0.00</rpm>
</extensions>
</trkpt>
<trkpt lat="30.884069443" lon="34.766551971">
<ele>478.632813</ele>
<time>2013-11-20T12:59:34Z</time>
<speed>2.750000</speed>
<extensions>
<speed>2.7</speed>
<temp>0.00</temp>
<bpm>0</bpm>
<rpm>0.00</rpm>
</extensions>
</trkpt>
<trkpt lat="30.884048462" lon="34.766658783">
<ele>477.585938</ele>
<time>2013-11-20T12:59:39Z</time>
<speed>2.090000</speed>
<extensions>
<speed>2.1</speed>
<temp>0.00</temp>
<bpm>0</bpm>
<rpm>0.00</rpm>
</extensions>
</trkpt>
<trkpt lat="30.884044647" lon="34.766750336">
<ele>475.875000</ele>
<time>2013-11-20T12:59:44Z</time>
<speed>1.820000</speed>
<extensions>
<speed>1.8</speed>
<temp>0.00</temp>
<bpm>0</bpm>
<rpm>0.00</rpm>
</extensions>
</trkpt>
<trkpt lat="30.884031296" lon="34.766872406">
<ele>476.281250</ele>
<time>2013-11-20T12:59:49Z</time>
<speed>2.730000</speed>
<extensions>
<speed>2.7</speed>
<temp>0.00</temp>
<bpm>0</bpm>
<rpm>0.00</rpm>
</extensions>
</trkpt>
<trkpt lat="30.884000778" lon="34.767002106">
<ele>477.062500</ele>
<time>2013-11-20T12:59:54Z</time>
<speed>2.400000</speed>
<extensions>
<speed>2.4</speed>
<temp>0.00</temp>
<bpm>0</bpm>
<rpm>0.00</rpm>
</extensions>
</trkpt>
<trkpt lat="30.883983612" lon="34.767124176">
<ele>477.398438</ele>
<time>2013-11-20T12:59:59Z</time>
<speed>2.170000</speed>
<extensions>
<speed>2.2</speed>
<temp>0.00</temp>
<bpm>0</bpm>
<rpm>0.00</rpm>
</extensions>
</trkpt>
<trkpt lat="30.883966446" lon="34.767227173">
<ele>476.976563</ele>
<time>2013-11-20T13:00:04Z</time>
<speed>2.000000</speed>
<extensions>
<speed>2.0</speed>
<temp>0.00</temp>
<bpm>0</bpm>
<rpm>0.00</rpm>
</extensions>
</trkpt>
<trkpt lat="30.883930206" lon="34.767322540">
<ele>477.085938</ele>
<time>2013-11-20T13:00:09Z</time>
<speed>2.150000</speed>
<extensions>
<speed>2.1</speed>
<temp>0.00</temp>
<bpm>0</bpm>
<rpm>0.00</rpm>
</extensions>
</trkpt>
<trkpt lat="30.883890152" lon="34.767417908">
<ele>477.117188</ele>
<time>2013-11-20T13:00:14Z</time>
<speed>2.110000</speed>
<extensions>
<speed>2.1</speed>
<temp>0.00</temp>
<bpm>0</bpm>
<rpm>0.00</rpm>
</extensions>
</trkpt>
<trkpt lat="30.883848190" lon="34.767513275">
<ele>477.117188</ele>
<time>2013-11-20T13:00:19Z</time>
<speed>2.380000</speed>
<extensions>
<speed>2.4</speed>
<temp>0.00</temp>
<bpm>0</bpm>
<rpm>0.00</rpm>
</extensions>
</trkpt>
<trkpt lat="30.883811951" lon="34.767616272">
<ele>477.750000</ele>
<time>2013-11-20T13:00:24Z</time>
<speed>2.260000</speed>
<extensions>
<speed>2.3</speed>
<temp>0.00</temp>
<bpm>0</bpm>
<rpm>0.00</rpm>
</extensions>
</trkpt>
<trkpt lat="30.883779526" lon="34.767730713">
<ele>477.187500</ele>
<time>2013-11-20T13:00:29Z</time>
<speed>2.280000</speed>
<extensions>
<speed>2.3</speed>
<temp>0.00</temp>
<bpm>0</bpm>
<rpm>0.00</rpm>
</extensions>
</trkpt>
<trkpt lat="30.883733749" lon="34.767837524">
<ele>479.328125</ele>
<time>2013-11-20T13:00:34Z</time>
<speed>2.290000</speed>
<extensions>
<speed>2.3</speed>
<temp>0.00</temp>
<bpm>0</bpm>
<rpm>0.00</rpm>
</extensions>
</trkpt>
<trkpt lat="30.883687973" lon="34.767936707">
<ele>479.687500</ele>
<time>2013-11-20T13:00:39Z</time>
<speed>2.110000</speed>
<extensions>
<speed>2.1</speed>
<temp>0.00</temp>
<bpm>0</bpm>
<rpm>0.00</rpm>
</extensions>
</trkpt>
<trkpt lat="30.883655548" lon="34.768032074">
<ele>479.781250</ele>
<time>2013-11-20T13:00:44Z</time>
<speed>2.040000</speed>
<extensions>
<speed>2.0</speed>
<temp>0.00</temp>
<bpm>0</bpm>
<rpm>0.00</rpm>
</extensions>
</trkpt>
<trkpt lat="30.883602142" lon="34.768142700">
<ele>479.914063</ele>
<time>2013-11-20T13:00:49Z</time>
<speed>1.970000</speed>
<extensions>
<speed>2.0</speed>
<temp>0.00</temp>
<bpm>0</bpm>
<rpm>0.00</rpm>
</extensions>
</trkpt>
<trkpt lat="30.883560181" lon="34.768226624">
<ele>480.523438</ele>
<time>2013-11-20T13:00:54Z</time>
<speed>1.750000</speed>
<extensions>
<speed>1.8</speed>
<temp>0.00</temp>
<bpm>0</bpm>
<rpm>0.00</rpm>
</extensions>
</trkpt>
<trkpt lat="30.883516312" lon="34.768306732">
<ele>480.554688</ele>
<time>2013-11-20T13:00:59Z</time>
<speed>1.700000</speed>
<extensions>
<speed>1.7</speed>
<temp>0.00</temp>
<bpm>0</bpm>
<rpm>0.00</rpm>
</extensions>
</trkpt>
<trkpt lat="30.883460999" lon="34.768409729">
<ele>481.359375</ele>
<time>2013-11-20T13:01:04Z</time>
<speed>2.410000</speed>
<extensions>
<speed>2.4</speed>
<temp>0.00</temp>
<bpm>0</bpm>
<rpm>0.00</rpm>
</extensions>
</trkpt>
<trkpt lat="30.883390427" lon="34.768493652">
<ele>479.750000</ele>
<time>2013-11-20T13:01:09Z</time>
<speed>2.450000</speed>
<extensions>
<speed>2.4</speed>
<temp>0.00</temp>
<bpm>0</bpm>
<rpm>0.00</rpm>
</extensions>
</trkpt>
<trkpt lat="30.883317947" lon="34.768562317">
<ele>478.710938</ele>
<time>2013-11-20T13:01:14Z</time>
<speed>2.740000</speed>
<extensions>
<speed>2.7</speed>
<temp>0.00</temp>
<bpm>0</bpm>
<rpm>0.00</rpm>
</extensions>
</trkpt>
<trkpt lat="30.883211136" lon="34.768646240">
<ele>478.156250</ele>
<time>2013-11-20T13:01:19Z</time>
<speed>3.210000</speed>
<extensions>
<speed>3.2</speed>
<temp>0.00</temp>
<bpm>0</bpm>
<rpm>0.00</rpm>
</extensions>
</trkpt>
<trkpt lat="30.883069992" lon="34.768711090">
<ele>477.820313</ele>
<time>2013-11-20T13:01:24Z</time>
<speed>3.480000</speed>
<extensions>
<speed>3.5</speed>
<temp>0.00</temp>
<bpm>0</bpm>
<rpm>0.00</rpm>
</extensions>
</trkpt>
<trkpt lat="30.882905960" lon="34.768741608">
<ele>477.226563</ele>
<time>2013-11-20T13:01:29Z</time>
<speed>3.590000</speed>
<extensions>
<speed>3.6</speed>
<temp>0.00</temp>
<bpm>0</bpm>
<rpm>0.00</rpm>
</extensions>
</trkpt>
<trkpt lat="30.882753372" lon="34.768745422">
<ele>479.531250</ele>
<time>2013-11-20T13:01:34Z</time>
<speed>2.900000</speed>
<extensions>
<speed>2.9</speed>
<temp>0.00</temp>
<bpm>0</bpm>
<rpm>0.00</rpm>
</extensions>
</trkpt>
<trkpt lat="30.882617950" lon="34.768722534">
<ele>482.679688</ele>
<time>2013-11-20T13:01:39Z</time>
<speed>2.760000</speed>
<extensions>
<speed>2.8</speed>
<temp>0.00</temp>
<bpm>0</bpm>
<rpm>0.00</rpm>
</extensions>
</trkpt>
<trkpt lat="30.882474899" lon="34.768718719">
<ele>483.445313</ele>
<time>2013-11-20T13:01:44Z</time>
<speed>3.760000</speed>
<extensions>
<speed>3.8</speed>
<temp>0.00</temp>
<bpm>0</bpm>
<rpm>0.00</rpm>
</extensions>
</trkpt>
<trkpt lat="30.882343292" lon="34.768772125">
<ele>484.101563</ele>
<time>2013-11-20T13:01:49Z</time>
<speed>2.940000</speed>
<extensions>
<speed>2.9</speed>
<temp>0.00</temp>
<bpm>0</bpm>
<rpm>0.00</rpm>
</extensions>
</trkpt>
<trkpt lat="30.882270813" lon="34.768878937">
<ele>485.312500</ele>
<time>2013-11-20T13:01:54Z</time>
<speed>2.540000</speed>
<extensions>
<speed>2.5</speed>
<temp>0.00</temp>
<bpm>0</bpm>
<rpm>0.00</rpm>
</extensions>
</trkpt>
<trkpt lat="30.882238388" lon="34.768924713">
<ele>487.242188</ele>
<time>2013-11-20T13:01:59Z</time>
<speed>0.140000</speed>
<extensions>
<speed>0.1</speed>
<temp>0.00</temp>
<bpm>0</bpm>
<rpm>0.00</rpm>
</extensions>
</trkpt>
<trkpt lat="30.882198334" lon="34.769004822">
<ele>488.125000</ele>
<time>2013-11-20T13:02:04Z</time>
<speed>2.690000</speed>
<extensions>
<speed>2.7</speed>
<temp>0.00</temp>
<bpm>0</bpm>
<rpm>0.00</rpm>
</extensions>
</trkpt>
<trkpt lat="30.882114410" lon="34.769111633">
<ele>489.031250</ele>
<time>2013-11-20T13:02:09Z</time>
<speed>2.720000</speed>
<extensions>
<speed>2.7</speed>
<temp>0.00</temp>
<bpm>0</bpm>
<rpm>0.00</rpm>
</extensions>
</trkpt>
<trkpt lat="30.882040024" lon="34.769180298">
<ele>487.671875</ele>
<time>2013-11-20T13:02:14Z</time>
<speed>2.250000</speed>
<extensions>
<speed>2.3</speed>
<temp>0.00</temp>
<bpm>0</bpm>
<rpm>0.00</rpm>
</extensions>
</trkpt>
<trkpt lat="30.881950378" lon="34.769271851">
<ele>488.765625</ele>
<time>2013-11-20T13:02:19Z</time>
<speed>2.770000</speed>
<extensions>
<speed>2.8</speed>
<temp>0.00</temp>
<bpm>0</bpm>
<rpm>0.00</rpm>
</extensions>
</trkpt>
<trkpt lat="30.881872177" lon="34.769371033">
<ele>488.406250</ele>
<time>2013-11-20T13:02:24Z</time>
<speed>2.970000</speed>
<extensions>
<speed>3.0</speed>
<temp>0.00</temp>
<bpm>0</bpm>
<rpm>0.00</rpm>
</extensions>
</trkpt>
<trkpt lat="30.881803513" lon="34.769485474">
<ele>487.328125</ele>
<time>2013-11-20T13:02:29Z</time>
<speed>2.240000</speed>
<extensions>
<speed>2.2</speed>
<temp>0.00</temp>
<bpm>0</bpm>
<rpm>0.00</rpm>
</extensions>
</trkpt>
<trkpt lat="30.881717682" lon="34.769596100">
<ele>487.875000</ele>
<time>2013-11-20T13:02:34Z</time>
<speed>2.710000</speed>
<extensions>
<speed>2.7</speed>
<temp>0.00</temp>
<bpm>0</bpm>
<rpm>0.00</rpm>
</extensions>
</trkpt>
<trkpt lat="30.881639481" lon="34.769691467">
<ele>487.875000</ele>
<time>2013-11-20T13:02:39Z</time>
<speed>2.530000</speed>
<extensions>
<speed>2.5</speed>
<temp>0.00</temp>
<bpm>0</bpm>
<rpm>0.00</rpm>
</extensions>
</trkpt>
<trkpt lat="30.881568909" lon="34.769798279">
<ele>487.382813</ele>
<time>2013-11-20T13:02:44Z</time>
<speed>2.670000</speed>
<extensions>
<speed>2.7</speed>
<temp>0.00</temp>
<bpm>0</bpm>
<rpm>0.00</rpm>
</extensions>
</trkpt>
<trkpt lat="30.881572723" lon="34.769939423">
<ele>486.515625</ele>
<time>2013-11-20T13:02:49Z</time>
<speed>2.650000</speed>
<extensions>
<speed>2.6</speed>
<temp>0.00</temp>
<bpm>0</bpm>
<rpm>0.00</rpm>
</extensions>
</trkpt>
<trkpt lat="30.881633759" lon="34.770069122">
<ele>488.484375</ele>
<time>2013-11-20T13:02:54Z</time>
<speed>2.600000</speed>
<extensions>
<speed>2.6</speed>
<temp>0.00</temp>
<bpm>0</bpm>
<rpm>0.00</rpm>
</extensions>
</trkpt>
<trkpt lat="30.881687164" lon="34.770175934">
<ele>489.000000</ele>
<time>2013-11-20T13:02:59Z</time>
<speed>1.790000</speed>
<extensions>
<speed>1.8</speed>
<temp>0.00</temp>
<bpm>0</bpm>
<rpm>0.00</rpm>
</extensions>
</trkpt>
<trkpt lat="30.881807327" lon="34.770172119">
<ele>489.085938</ele>
<time>2013-11-20T13:03:04Z</time>
<speed>3.140000</speed>
<extensions>
<speed>3.1</speed>
<temp>0.00</temp>
<bpm>0</bpm>
<rpm>0.00</rpm>
</extensions>
</trkpt>
<trkpt lat="30.881984711" lon="34.770156860">
<ele>488.351563</ele>
<time>2013-11-20T13:03:09Z</time>
<speed>4.540000</speed>
<extensions>
<speed>4.5</speed>
<temp>0.00</temp>
<bpm>0</bpm>
<rpm>0.00</rpm>
</extensions>
</trkpt>
<trkpt lat="30.882164001" lon="34.770206451">
<ele>487.609375</ele>
<time>2013-11-20T13:03:14Z</time>
<speed>5.060000</speed>
<extensions>
<speed>5.1</speed>
<temp>0.00</temp>
<bpm>0</bpm>
<rpm>0.00</rpm>
</extensions>
</trkpt>
<trkpt lat="30.882387161" lon="34.770309448">
<ele>486.304688</ele>
<time>2013-11-20T13:03:19Z</time>
<speed>5.080000</speed>
<extensions>
<speed>5.1</speed>
<temp>0.00</temp>
<bpm>0</bpm>
<rpm>0.00</rpm>
</extensions>
</trkpt>
<trkpt lat="30.882616043" lon="34.770389557">
<ele>484.695313</ele>
<time>2013-11-20T13:03:24Z</time>
<speed>5.510000</speed>
<extensions>
<speed>5.5</speed>
<temp>0.00</temp>
<bpm>0</bpm>
<rpm>0.00</rpm>
</extensions>
</trkpt>
<trkpt lat="30.882858276" lon="34.770454407">
<ele>483.507813</ele>
<time>2013-11-20T13:03:29Z</time>
<speed>4.980000</speed>
<extensions>
<speed>5.0</speed>
<temp>0.00</temp>
<bpm>0</bpm>
<rpm>0.00</rpm>
</extensions>
</trkpt>
<trkpt lat="30.883041382" lon="34.770618439">
<ele>483.820313</ele>
<time>2013-11-20T13:03:34Z</time>
<speed>5.420000</speed>
<extensions>
<speed>5.4</speed>
<temp>0.00</temp>
<bpm>0</bpm>
<rpm>0.00</rpm>
</extensions>
</trkpt>
<trkpt lat="30.883245468" lon="34.770839691">
<ele>481.625000</ele>
<time>2013-11-20T13:03:39Z</time>
<speed>6.770000</speed>
<extensions>
<speed>6.8</speed>
<temp>0.00</temp>
<bpm>0</bpm>
<rpm>0.00</rpm>
</extensions>
</trkpt>
<trkpt lat="30.883457184" lon="34.771087646">
<ele>481.617188</ele>
<time>2013-11-20T13:03:44Z</time>
<speed>5.950000</speed>
<extensions>
<speed>6.0</speed>
<temp>0.00</temp>
<bpm>0</bpm>
<rpm>0.00</rpm>
</extensions>
</trkpt>
<trkpt lat="30.883617401" lon="34.771232605">
<ele>482.273438</ele>
<time>2013-11-20T13:03:49Z</time>
<speed>3.510000</speed>
<extensions>
<speed>3.5</speed>
<temp>0.00</temp>
<bpm>0</bpm>
<rpm>0.00</rpm>
</extensions>
</trkpt>
<trkpt lat="30.883775711" lon="34.771289825">
<ele>483.281250</ele>
<time>2013-11-20T13:03:54Z</time>
<speed>3.870000</speed>
<extensions>
<speed>3.9</speed>
<temp>0.00</temp>
<bpm>0</bpm>
<rpm>0.00</rpm>
</extensions>
</trkpt>
<trkpt lat="30.883953094" lon="34.771274567">
<ele>484.007813</ele>
<time>2013-11-20T13:03:59Z</time>
<speed>3.720000</speed>
<extensions>
<speed>3.7</speed>
<temp>0.00</temp>
<bpm>0</bpm>
<rpm>0.00</rpm>
</extensions>
</trkpt>
<trkpt lat="30.884136200" lon="34.771240234">
<ele>483.695313</ele>
<time>2013-11-20T13:04:04Z</time>
<speed>4.260000</speed>
<extensions>
<speed>4.3</speed>
<temp>0.00</temp>
<bpm>0</bpm>
<rpm>0.00</rpm>
</extensions>
</trkpt>
<trkpt lat="30.884342194" lon="34.771148682">
<ele>483.132813</ele>
<time>2013-11-20T13:04:09Z</time>
<speed>5.520000</speed>
<extensions>
<speed>5.5</speed>
<temp>0.00</temp>
<bpm>0</bpm>
<rpm>0.00</rpm>
</extensions>
</trkpt>
<trkpt lat="30.884576797" lon="34.771022797">
<ele>481.468750</ele>
<time>2013-11-20T13:04:14Z</time>
<speed>5.840000</speed>
<extensions>
<speed>5.8</speed>
<temp>0.00</temp>
<bpm>0</bpm>
<rpm>0.00</rpm>
</extensions>
</trkpt>
<trkpt lat="30.884824753" lon="34.770942688">
<ele>480.960938</ele>
<time>2013-11-20T13:04:19Z</time>
<speed>5.680000</speed>
<extensions>
<speed>5.7</speed>
<temp>0.00</temp>
<bpm>0</bpm>
<rpm>0.00</rpm>
</extensions>
</trkpt>
<trkpt lat="30.884939194" lon="34.770915985">
<ele>480.039063</ele>
<time>2013-11-20T13:04:24Z</time>
<speed>0.230000</speed>
<extensions>
<speed>0.2</speed>
<temp>0.00</temp>
<bpm>0</bpm>
<rpm>0.00</rpm>
</extensions>
</trkpt>
<trkpt lat="30.884941101" lon="34.770904541">
<ele>479.320313</ele>
<time>2013-11-20T13:04:29Z</time>
<speed>0.370000</speed>
<extensions>
<speed>0.4</speed>
<temp>0.00</temp>
<bpm>0</bpm>
<rpm>0.00</rpm>
</extensions>
</trkpt>
<trkpt lat="30.884939194" lon="34.770877838">
<ele>479.585938</ele>
<time>2013-11-20T13:04:34Z</time>
<speed>1.760000</speed>
<extensions>
<speed>1.8</speed>
<temp>0.00</temp>
<bpm>0</bpm>
<rpm>0.00</rpm>
</extensions>
</trkpt>
<trkpt lat="30.885042191" lon="34.770809174">
<ele>479.078125</ele>
<time>2013-11-20T13:04:39Z</time>
<speed>2.940000</speed>
<extensions>
<speed>2.9</speed>
<temp>0.00</temp>
<bpm>0</bpm>
<rpm>0.00</rpm>
</extensions>
</trkpt>
<trkpt lat="30.885150909" lon="34.770759583">
<ele>479.171875</ele>
<time>2013-11-20T13:04:44Z</time>
<speed>2.560000</speed>
<extensions>
<speed>2.6</speed>
<temp>0.00</temp>
<bpm>0</bpm>
<rpm>0.00</rpm>
</extensions>
</trkpt>
<trkpt lat="30.885259628" lon="34.770725250">
<ele>479.093750</ele>
<time>2013-11-20T13:04:49Z</time>
<speed>1.900000</speed>
<extensions>
<speed>1.9</speed>
<temp>0.00</temp>
<bpm>0</bpm>
<rpm>0.00</rpm>
</extensions>
</trkpt>
<trkpt lat="30.885330200" lon="34.770793915">
<ele>478.078125</ele>
<time>2013-11-20T13:04:54Z</time>
<speed>3.390000</speed>
<extensions>
<speed>3.4</speed>
<temp>0.00</temp>
<bpm>0</bpm>
<rpm>0.00</rpm>
</extensions>
</trkpt>
<trkpt lat="30.885435104" lon="34.770923615">
<ele>476.773438</ele>
<time>2013-11-20T13:04:59Z</time>
<speed>2.840000</speed>
<extensions>
<speed>2.8</speed>
<temp>0.00</temp>
<bpm>0</bpm>
<rpm>0.00</rpm>
</extensions>
</trkpt>
<trkpt lat="30.885519028" lon="34.771026611">
<ele>474.906250</ele>
<time>2013-11-20T13:05:04Z</time>
<speed>3.010000</speed>
<extensions>
<speed>3.0</speed>
<temp>0.00</temp>
<bpm>0</bpm>
<rpm>0.00</rpm>
</extensions>
</trkpt>
<trkpt lat="30.885574341" lon="34.771183014">
<ele>474.570313</ele>
<time>2013-11-20T13:05:09Z</time>
<speed>2.490000</speed>
<extensions>
<speed>2.5</speed>
<temp>0.00</temp>
<bpm>0</bpm>
<rpm>0.00</rpm>
</extensions>
</trkpt>
<trkpt lat="30.885547638" lon="34.771308899">
<ele>476.531250</ele>
<time>2013-11-20T13:05:14Z</time>
<speed>2.630000</speed>
<extensions>
<speed>2.6</speed>
<temp>0.00</temp>
<bpm>0</bpm>
<rpm>0.00</rpm>
</extensions>
</trkpt>
<trkpt lat="30.885477066" lon="34.771385193">
<ele>476.570313</ele>
<time>2013-11-20T13:05:19Z</time>
<speed>1.370000</speed>
<extensions>
<speed>1.4</speed>
<temp>0.00</temp>
<bpm>0</bpm>
<rpm>0.00</rpm>
</extensions>
</trkpt>
<trkpt lat="30.885396957" lon="34.771415710">
<ele>475.148438</ele>
<time>2013-11-20T13:05:24Z</time>
<speed>2.780000</speed>
<extensions>
<speed>2.8</speed>
<temp>0.00</temp>
<bpm>0</bpm>
<rpm>0.00</rpm>
</extensions>
</trkpt>
<trkpt lat="30.885267258" lon="34.771438599">
<ele>475.437500</ele>
<time>2013-11-20T13:05:29Z</time>
<speed>2.940000</speed>
<extensions>
<speed>2.9</speed>
<temp>0.00</temp>
<bpm>0</bpm>
<rpm>0.00</rpm>
</extensions>
</trkpt>
<trkpt lat="30.885101318" lon="34.771419525">
<ele>474.835938</ele>
<time>2013-11-20T13:05:34Z</time>
<speed>3.480000</speed>
<extensions>
<speed>3.5</speed>
<temp>0.00</temp>
<bpm>0</bpm>
<rpm>0.00</rpm>
</extensions>
</trkpt>
<trkpt lat="30.884952545" lon="34.771423340">
<ele>473.500000</ele>
<time>2013-11-20T13:05:39Z</time>
<speed>2.000000</speed>
<extensions>
<speed>2.0</speed>
<temp>0.00</temp>
<bpm>0</bpm>
<rpm>0.00</rpm>
</extensions>
</trkpt>
<trkpt lat="30.884899139" lon="34.771495819">
<ele>474.375000</ele>
<time>2013-11-20T13:05:44Z</time>
<speed>2.360000</speed>
<extensions>
<speed>2.4</speed>
<temp>0.00</temp>
<bpm>0</bpm>
<rpm>0.00</rpm>
</extensions>
</trkpt>
<trkpt lat="30.884853363" lon="34.771652222">
<ele>476.789063</ele>
<time>2013-11-20T13:05:49Z</time>
<speed>3.240000</speed>
<extensions>
<speed>3.2</speed>
<temp>0.00</temp>
<bpm>0</bpm>
<rpm>0.00</rpm>
</extensions>
</trkpt>
<trkpt lat="30.884754181" lon="34.771747589">
<ele>477.984375</ele>
<time>2013-11-20T13:05:54Z</time>
<speed>3.080000</speed>
<extensions>
<speed>3.1</speed>
<temp>0.00</temp>
<bpm>0</bpm>
<rpm>0.00</rpm>
</extensions>
</trkpt>
<trkpt lat="30.884601593" lon="34.771736145">
<ele>477.031250</ele>
<time>2013-11-20T13:05:59Z</time>
<speed>3.640000</speed>
<extensions>
<speed>3.6</speed>
<temp>0.00</temp>
<bpm>0</bpm>
<rpm>0.00</rpm>
</extensions>
</trkpt>
<trkpt lat="30.884437561" lon="34.771770477">
<ele>475.015625</ele>
<time>2013-11-20T13:06:04Z</time>
<speed>3.650000</speed>
<extensions>
<speed>3.7</speed>
<temp>0.00</temp>
<bpm>0</bpm>
<rpm>0.00</rpm>
</extensions>
</trkpt>
<trkpt lat="30.884281158" lon="34.771831512">
<ele>473.351563</ele>
<time>2013-11-20T13:06:09Z</time>
<speed>4.160000</speed>
<extensions>
<speed>4.2</speed>
<temp>0.00</temp>
<bpm>0</bpm>
<rpm>0.00</rpm>
</extensions>
</trkpt>
<trkpt lat="30.884115219" lon="34.771961212">
<ele>472.390625</ele>
<time>2013-11-20T13:06:14Z</time>
<speed>3.960000</speed>
<extensions>
<speed>4.0</speed>
<temp>0.00</temp>
<bpm>0</bpm>
<rpm>0.00</rpm>
</extensions>
</trkpt>
<trkpt lat="30.883989334" lon="34.772117615">
<ele>470.585938</ele>
<time>2013-11-20T13:06:19Z</time>
<speed>3.870000</speed>
<extensions>
<speed>3.9</speed>
<temp>0.00</temp>
<bpm>0</bpm>
<rpm>0.00</rpm>
</extensions>
</trkpt>
<trkpt lat="30.883869171" lon="34.772239685">
<ele>468.296875</ele>
<time>2013-11-20T13:06:24Z</time>
<speed>3.950000</speed>
<extensions>
<speed>4.0</speed>
<temp>0.00</temp>
<bpm>0</bpm>
<rpm>0.00</rpm>
</extensions>
</trkpt>
<trkpt lat="30.883722305" lon="34.772361755">
<ele>465.703125</ele>
<time>2013-11-20T13:06:29Z</time>
<speed>5.040000</speed>
<extensions>
<speed>5.0</speed>
<temp>0.00</temp>
<bpm>0</bpm>
<rpm>0.00</rpm>
</extensions>
</trkpt>
<trkpt lat="30.883604050" lon="34.772533417">
<ele>465.437500</ele>
<time>2013-11-20T13:06:34Z</time>
<speed>2.390000</speed>
<extensions>
<speed>2.4</speed>
<temp>0.00</temp>
<bpm>0</bpm>
<rpm>0.00</rpm>
</extensions>
</trkpt>
<trkpt lat="30.883716583" lon="34.772682190">
<ele>464.109375</ele>
<time>2013-11-20T13:06:39Z</time>
<speed>3.550000</speed>
<extensions>
<speed>3.5</speed>
<temp>0.00</temp>
<bpm>0</bpm>
<rpm>0.00</rpm>
</extensions>
</trkpt>
<trkpt lat="30.883766174" lon="34.772891998">
<ele>462.296875</ele>
<time>2013-11-20T13:06:44Z</time>
<speed>4.040000</speed>
<extensions>
<speed>4.0</speed>
<temp>0.00</temp>
<bpm>0</bpm>
<rpm>0.00</rpm>
</extensions>
</trkpt>
<trkpt lat="30.883852005" lon="34.773078918">
<ele>462.320313</ele>
<time>2013-11-20T13:06:49Z</time>
<speed>4.200000</speed>
<extensions>
<speed>4.2</speed>
<temp>0.00</temp>
<bpm>0</bpm>
<rpm>0.00</rpm>
</extensions>
</trkpt>
<trkpt lat="30.883949280" lon="34.773250580">
<ele>461.906250</ele>
<time>2013-11-20T13:06:54Z</time>
<speed>4.380000</speed>
<extensions>
<speed>4.4</speed>
<temp>0.00</temp>
<bpm>0</bpm>
<rpm>0.00</rpm>
</extensions>
</trkpt>
<trkpt lat="30.884080887" lon="34.773410797">
<ele>460.507813</ele>
<time>2013-11-20T13:06:59Z</time>
<speed>4.410000</speed>
<extensions>
<speed>4.4</speed>
<temp>0.00</temp>
<bpm>0</bpm>
<rpm>0.00</rpm>
</extensions>
</trkpt>
<trkpt lat="30.884265900" lon="34.773540497">
<ele>461.023438</ele>
<time>2013-11-20T13:07:04Z</time>
<speed>5.320000</speed>
<extensions>
<speed>5.3</speed>
<temp>0.00</temp>
<bpm>0</bpm>
<rpm>0.00</rpm>
</extensions>
</trkpt>
<trkpt lat="30.884508133" lon="34.773609161">
<ele>460.375000</ele>
<time>2013-11-20T13:07:09Z</time>
<speed>5.270000</speed>
<extensions>
<speed>5.3</speed>
<temp>0.00</temp>
<bpm>0</bpm>
<rpm>0.00</rpm>
</extensions>
</trkpt>
<trkpt lat="30.884719849" lon="34.773574829">
<ele>459.960938</ele>
<time>2013-11-20T13:07:14Z</time>
<speed>3.910000</speed>
<extensions>
<speed>3.9</speed>
<temp>0.00</temp>
<bpm>0</bpm>
<rpm>0.00</rpm>
</extensions>
</trkpt>
<trkpt lat="30.884880066" lon="34.773574829">
<ele>457.320313</ele>
<time>2013-11-20T13:07:19Z</time>
<speed>4.040000</speed>
<extensions>
<speed>4.0</speed>
<temp>0.00</temp>
<bpm>0</bpm>
<rpm>0.00</rpm>
</extensions>
</trkpt>
<trkpt lat="30.885065079" lon="34.773715973">
<ele>457.531250</ele>
<time>2013-11-20T13:07:24Z</time>
<speed>5.800000</speed>
<extensions>
<speed>5.8</speed>
<temp>0.00</temp>
<bpm>0</bpm>
<rpm>0.00</rpm>
</extensions>
</trkpt>
<trkpt lat="30.885248184" lon="34.773967743">
<ele>457.554688</ele>
<time>2013-11-20T13:07:29Z</time>
<speed>6.320000</speed>
<extensions>
<speed>6.3</speed>
<temp>0.00</temp>
<bpm>0</bpm>
<rpm>0.00</rpm>
</extensions>
</trkpt>
<trkpt lat="30.885339737" lon="34.774276733">
<ele>457.460938</ele>
<time>2013-11-20T13:07:34Z</time>
<speed>6.610000</speed>
<extensions>
<speed>6.6</speed>
<temp>0.00</temp>
<bpm>0</bpm>
<rpm>0.00</rpm>
</extensions>
</trkpt>
<trkpt lat="30.885393143" lon="34.774532318">
<ele>457.570313</ele>
<time>2013-11-20T13:07:39Z</time>
<speed>1.590000</speed>
<extensions>
<speed>1.6</speed>
<temp>0.00</temp>
<bpm>0</bpm>
<rpm>0.00</rpm>
</extensions>
</trkpt>
<trkpt lat="30.885398865" lon="34.774555206">
<ele>457.195313</ele>
<time>2013-11-20T13:07:44Z</time>
<speed>1.640000</speed>
<extensions>
<speed>1.6</speed>
<temp>0.00</temp>
<bpm>0</bpm>
<rpm>0.00</rpm>
</extensions>
</trkpt>
<trkpt lat="30.885406494" lon="34.774723053">
<ele>456.187500</ele>
<time>2013-11-20T13:07:49Z</time>
<speed>4.240000</speed>
<extensions>
<speed>4.2</speed>
<temp>0.00</temp>
<bpm>0</bpm>
<rpm>0.00</rpm>
</extensions>
</trkpt>
<trkpt lat="30.885429382" lon="34.774944305">
<ele>455.007813</ele>
<time>2013-11-20T13:07:54Z</time>
<speed>3.330000</speed>
<extensions>
<speed>3.3</speed>
<temp>0.00</temp>
<bpm>0</bpm>
<rpm>0.00</rpm>
</extensions>
</trkpt>
<trkpt lat="30.885383606" lon="34.775085449">
<ele>454.804688</ele>
<time>2013-11-20T13:07:59Z</time>
<speed>3.520000</speed>
<extensions>
<speed>3.5</speed>
<temp>0.00</temp>
<bpm>0</bpm>
<rpm>0.00</rpm>
</extensions>
</trkpt>
<trkpt lat="30.885349274" lon="34.775260925">
<ele>457.039063</ele>
<time>2013-11-20T13:08:04Z</time>
<speed>2.580000</speed>
<extensions>
<speed>2.6</speed>
<temp>0.00</temp>
<bpm>0</bpm>
<rpm>0.00</rpm>
</extensions>
</trkpt>
<trkpt lat="30.885406494" lon="34.775337219">
<ele>456.125000</ele>
<time>2013-11-20T13:08:09Z</time>
<speed>2.270000</speed>
<extensions>
<speed>2.3</speed>
<temp>0.00</temp>
<bpm>0</bpm>
<rpm>0.00</rpm>
</extensions>
</trkpt>
<trkpt lat="30.885433197" lon="34.775341034">
<ele>457.203125</ele>
<time>2013-11-20T13:08:14Z</time>
<speed>1.470000</speed>
<extensions>
<speed>1.5</speed>
<temp>0.00</temp>
<bpm>0</bpm>
<rpm>0.00</rpm>
</extensions>
</trkpt>
<trkpt lat="30.885404587" lon="34.775451660">
<ele>458.195313</ele>
<time>2013-11-20T13:08:19Z</time>
<speed>2.490000</speed>
<extensions>
<speed>2.5</speed>
<temp>0.00</temp>
<bpm>0</bpm>
<rpm>0.00</rpm>
</extensions>
</trkpt>
<trkpt lat="30.885419846" lon="34.775592804">
<ele>458.015625</ele>
<time>2013-11-20T13:08:24Z</time>
<speed>2.400000</speed>
<extensions>
<speed>2.4</speed>
<temp>0.00</temp>
<bpm>0</bpm>
<rpm>0.00</rpm>
</extensions>
</trkpt>
<trkpt lat="30.885438919" lon="34.775730133">
<ele>459.851563</ele>
<time>2013-11-20T13:08:29Z</time>
<speed>2.140000</speed>
<extensions>
<speed>2.1</speed>
<temp>0.00</temp>
<bpm>0</bpm>
<rpm>0.00</rpm>
</extensions>
</trkpt>
<trkpt lat="30.885446548" lon="34.775794983">
<ele>460.757813</ele>
<time>2013-11-20T13:08:34Z</time>
<speed>1.180000</speed>
<extensions>
<speed>1.2</speed>
<temp>0.00</temp>
<bpm>0</bpm>
<rpm>0.00</rpm>
</extensions>
</trkpt>
<trkpt lat="30.885440826" lon="34.775856018">
<ele>461.984375</ele>
<time>2013-11-20T13:08:39Z</time>
<speed>1.190000</speed>
<extensions>
<speed>1.2</speed>
<temp>0.00</temp>
<bpm>0</bpm>
<rpm>0.00</rpm>
</extensions>
</trkpt>
<trkpt lat="30.885423660" lon="34.775920868">
<ele>462.156250</ele>
<time>2013-11-20T13:08:44Z</time>
<speed>1.940000</speed>
<extensions>
<speed>1.9</speed>
<temp>0.00</temp>
<bpm>0</bpm>
<rpm>0.00</rpm>
</extensions>
</trkpt>
<trkpt lat="30.885402679" lon="34.775951385">
<ele>463.039063</ele>
<time>2013-11-20T13:08:49Z</time>
<speed>0.010000</speed>
<extensions>
<speed>0.0</speed>
<temp>0.00</temp>
<bpm>0</bpm>
<rpm>0.00</rpm>
</extensions>
</trkpt>
<trkpt lat="30.885402679" lon="34.775951385">
<ele>462.937500</ele>
<time>2013-11-20T13:08:54Z</time>
<speed>0.010000</speed>
<extensions>
<speed>0.0</speed>
<temp>0.00</temp>
<bpm>0</bpm>
<rpm>0.00</rpm>
</extensions>
</trkpt>
<trkpt lat="30.885402679" lon="34.775951385">
<ele>462.898438</ele>
<time>2013-11-20T13:08:59Z</time>
<extensions>
<speed>0.0</speed>
<temp>0.00</temp>
<bpm>0</bpm>
<rpm>0.00</rpm>
</extensions>
</trkpt>
<trkpt lat="30.885402679" lon="34.775951385">
<ele>462.851563</ele>
<time>2013-11-20T13:09:04Z</time>
<extensions>
<speed>0.0</speed>
<temp>0.00</temp>
<bpm>0</bpm>
<rpm>0.00</rpm>
</extensions>
</trkpt>
<trkpt lat="30.885402679" lon="34.775951385">
<ele>462.750000</ele>
<time>2013-11-20T13:09:09Z</time>
<extensions>
<speed>0.0</speed>
<temp>0.00</temp>
<bpm>0</bpm>
<rpm>0.00</rpm>
</extensions>
</trkpt>
<trkpt lat="30.885402679" lon="34.775947571">
<ele>462.648438</ele>
<time>2013-11-20T13:09:14Z</time>
<speed>0.010000</speed>
<extensions>
<speed>0.0</speed>
<temp>0.00</temp>
<bpm>0</bpm>
<rpm>0.00</rpm>
</extensions>
</trkpt>
<trkpt lat="30.885402679" lon="34.775947571">
<ele>462.585938</ele>
<time>2013-11-20T13:09:19Z</time>
<speed>0.010000</speed>
<extensions>
<speed>0.0</speed>
<temp>0.00</temp>
<bpm>0</bpm>
<rpm>0.00</rpm>
</extensions>
</trkpt>
<trkpt lat="30.885402679" lon="34.775947571">
<ele>462.531250</ele>
<time>2013-11-20T13:09:24Z</time>
<extensions>
<speed>0.0</speed>
<temp>0.00</temp>
<bpm>0</bpm>
<rpm>0.00</rpm>
</extensions>
</trkpt>
<trkpt lat="30.885402679" lon="34.775947571">
<ele>462.539063</ele>
<time>2013-11-20T13:09:29Z</time>
<extensions>
<speed>0.0</speed>
<temp>0.00</temp>
<bpm>0</bpm>
<rpm>0.00</rpm>
</extensions>
</trkpt>
<trkpt lat="30.885402679" lon="34.775947571">
<ele>462.531250</ele>
<time>2013-11-20T13:09:34Z</time>
<extensions>
<speed>0.0</speed>
<temp>0.00</temp>
<bpm>0</bpm>
<rpm>0.00</rpm>
</extensions>
</trkpt>
<trkpt lat="30.885402679" lon="34.775947571">
<ele>462.531250</ele>
<time>2013-11-20T13:09:39Z</time>
<speed>0.010000</speed>
<extensions>
<speed>0.0</speed>
<temp>0.00</temp>
<bpm>0</bpm>
<rpm>0.00</rpm>
</extensions>
</trkpt>
<trkpt lat="30.885402679" lon="34.775947571">
<ele>462.523438</ele>
<time>2013-11-20T13:09:44Z</time>
<extensions>
<speed>0.0</speed>
<temp>0.00</temp>
<bpm>0</bpm>
<rpm>0.00</rpm>
</extensions>
</trkpt>
<trkpt lat="30.885402679" lon="34.775947571">
<ele>462.523438</ele>
<time>2013-11-20T13:09:49Z</time>
<extensions>
<speed>0.0</speed>
<temp>0.00</temp>
<bpm>0</bpm>
<rpm>0.00</rpm>
</extensions>
</trkpt>
<trkpt lat="30.885402679" lon="34.775947571">
<ele>462.523438</ele>
<time>2013-11-20T13:09:54Z</time>
<extensions>
<speed>0.0</speed>
<temp>0.00</temp>
<bpm>0</bpm>
<rpm>0.00</rpm>
</extensions>
</trkpt>
<trkpt lat="30.885400772" lon="34.775947571">
<ele>462.531250</ele>
<time>2013-11-20T13:09:59Z</time>
<extensions>
<speed>0.0</speed>
<temp>0.00</temp>
<bpm>0</bpm>
<rpm>0.00</rpm>
</extensions>
</trkpt>
<trkpt lat="30.885400772" lon="34.775947571">
<ele>462.539063</ele>
<time>2013-11-20T13:10:04Z</time>
<extensions>
<speed>0.0</speed>
<temp>0.00</temp>
<bpm>0</bpm>
<rpm>0.00</rpm>
</extensions>
</trkpt>
<trkpt lat="30.885400772" lon="34.775947571">
<ele>462.554688</ele>
<time>2013-11-20T13:10:09Z</time>
<speed>0.010000</speed>
<extensions>
<speed>0.0</speed>
<temp>0.00</temp>
<bpm>0</bpm>
<rpm>0.00</rpm>
</extensions>
</trkpt>
<trkpt lat="30.885400772" lon="34.775947571">
<ele>462.570313</ele>
<time>2013-11-20T13:10:14Z</time>
<extensions>
<speed>0.0</speed>
<temp>0.00</temp>
<bpm>0</bpm>
<rpm>0.00</rpm>
</extensions>
</trkpt>
<trkpt lat="30.885400772" lon="34.775947571">
<ele>462.578125</ele>
<time>2013-11-20T13:10:19Z</time>
<extensions>
<speed>0.0</speed>
<temp>0.00</temp>
<bpm>0</bpm>
<rpm>0.00</rpm>
</extensions>
</trkpt>
<trkpt lat="30.885400772" lon="34.775947571">
<ele>462.585938</ele>
<time>2013-11-20T13:10:24Z</time>
<extensions>
<speed>0.0</speed>
<temp>0.00</temp>
<bpm>0</bpm>
<rpm>0.00</rpm>
</extensions>
</trkpt>
<trkpt lat="30.885400772" lon="34.775947571">
<ele>462.601563</ele>
<time>2013-11-20T13:10:29Z</time>
<extensions>
<speed>0.0</speed>
<temp>0.00</temp>
<bpm>0</bpm>
<rpm>0.00</rpm>
</extensions>
</trkpt>
<trkpt lat="30.885400772" lon="34.775947571">
<ele>462.617188</ele>
<time>2013-11-20T13:10:34Z</time>
<extensions>
<speed>0.0</speed>
<temp>0.00</temp>
<bpm>0</bpm>
<rpm>0.00</rpm>
</extensions>
</trkpt>
<trkpt lat="30.885400772" lon="34.775951385">
<ele>462.648438</ele>
<time>2013-11-20T13:10:39Z</time>
<extensions>
<speed>0.0</speed>
<temp>0.00</temp>
<bpm>0</bpm>
<rpm>0.00</rpm>
</extensions>
</trkpt>
<trkpt lat="30.885400772" lon="34.775951385">
<ele>462.656250</ele>
<time>2013-11-20T13:10:44Z</time>
<extensions>
<speed>0.0</speed>
<temp>0.00</temp>
<bpm>0</bpm>
<rpm>0.00</rpm>
</extensions>
</trkpt>
<trkpt lat="30.885400772" lon="34.775951385">
<ele>462.671875</ele>
<time>2013-11-20T13:10:49Z</time>
<speed>0.010000</speed>
<extensions>
<speed>0.0</speed>
<temp>0.00</temp>
<bpm>0</bpm>
<rpm>0.00</rpm>
</extensions>
</trkpt>
<trkpt lat="30.885400772" lon="34.775951385">
<ele>462.671875</ele>
<time>2013-11-20T13:10:54Z</time>
<extensions>
<speed>0.0</speed>
<temp>0.00</temp>
<bpm>0</bpm>
<rpm>0.00</rpm>
</extensions>
</trkpt>
<trkpt lat="30.885400772" lon="34.775951385">
<ele>462.695313</ele>
<time>2013-11-20T13:10:59Z</time>
<extensions>
<speed>0.0</speed>
<temp>0.00</temp>
<bpm>0</bpm>
<rpm>0.00</rpm>
</extensions>
</trkpt>
<trkpt lat="30.885400772" lon="34.775951385">
<ele>462.695313</ele>
<time>2013-11-20T13:11:04Z</time>
<extensions>
<speed>0.0</speed>
<temp>0.00</temp>
<bpm>0</bpm>
<rpm>0.00</rpm>
</extensions>
</trkpt>
<trkpt lat="30.885400772" lon="34.775951385">
<ele>462.695313</ele>
<time>2013-11-20T13:11:09Z</time>
<extensions>
<speed>0.0</speed>
<temp>0.00</temp>
<bpm>0</bpm>
<rpm>0.00</rpm>
</extensions>
</trkpt>
<trkpt lat="30.885400772" lon="34.775951385">
<ele>462.726563</ele>
<time>2013-11-20T13:11:14Z</time>
<extensions>
<speed>0.0</speed>
<temp>0.00</temp>
<bpm>0</bpm>
<rpm>0.00</rpm>
</extensions>
</trkpt>
<trkpt lat="30.885400772" lon="34.775951385">
<ele>462.750000</ele>
<time>2013-11-20T13:11:19Z</time>
<extensions>
<speed>0.0</speed>
<temp>0.00</temp>
<bpm>0</bpm>
<rpm>0.00</rpm>
</extensions>
</trkpt>
<trkpt lat="30.885400772" lon="34.775951385">
<ele>462.765625</ele>
<time>2013-11-20T13:11:24Z</time>
<extensions>
<speed>0.0</speed>
<temp>0.00</temp>
<bpm>0</bpm>
<rpm>0.00</rpm>
</extensions>
</trkpt>
<trkpt lat="30.885400772" lon="34.775951385">
<ele>462.789063</ele>
<time>2013-11-20T13:11:29Z</time>
<extensions>
<speed>0.0</speed>
<temp>0.00</temp>
<bpm>0</bpm>
<rpm>0.00</rpm>
</extensions>
</trkpt>
<trkpt lat="30.885400772" lon="34.775951385">
<ele>462.804688</ele>
<time>2013-11-20T13:11:34Z</time>
<extensions>
<speed>0.0</speed>
<temp>0.00</temp>
<bpm>0</bpm>
<rpm>0.00</rpm>
</extensions>
</trkpt>
<trkpt lat="30.885400772" lon="34.775951385">
<ele>462.796875</ele>
<time>2013-11-20T13:11:39Z</time>
<extensions>
<speed>0.0</speed>
<temp>0.00</temp>
<bpm>0</bpm>
<rpm>0.00</rpm>
</extensions>
</trkpt>
<trkpt lat="30.885398865" lon="34.775951385">
<ele>462.812500</ele>
<time>2013-11-20T13:11:44Z</time>
<extensions>
<speed>0.0</speed>
<temp>0.00</temp>
<bpm>0</bpm>
<rpm>0.00</rpm>
</extensions>
</trkpt>
<trkpt lat="30.885398865" lon="34.775951385">
<ele>462.828125</ele>
<time>2013-11-20T13:11:49Z</time>
<speed>0.030000</speed>
<extensions>
<speed>0.0</speed>
<temp>0.00</temp>
<bpm>0</bpm>
<rpm>0.00</rpm>
</extensions>
</trkpt>
<trkpt lat="30.885398865" lon="34.775951385">
<ele>462.835938</ele>
<time>2013-11-20T13:11:54Z</time>
<extensions>
<speed>0.0</speed>
<temp>0.00</temp>
<bpm>0</bpm>
<rpm>0.00</rpm>
</extensions>
</trkpt>
<trkpt lat="30.885398865" lon="34.775951385">
<ele>462.843750</ele>
<time>2013-11-20T13:11:59Z</time>
<extensions>
<speed>0.0</speed>
<temp>0.00</temp>
<bpm>0</bpm>
<rpm>0.00</rpm>
</extensions>
</trkpt>
<trkpt lat="30.885398865" lon="34.775951385">
<ele>462.859375</ele>
<time>2013-11-20T13:12:04Z</time>
<extensions>
<speed>0.0</speed>
<temp>0.00</temp>
<bpm>0</bpm>
<rpm>0.00</rpm>
</extensions>
</trkpt>
<trkpt lat="30.885398865" lon="34.775951385">
<ele>462.875000</ele>
<time>2013-11-20T13:12:09Z</time>
<speed>0.030000</speed>
<extensions>
<speed>0.0</speed>
<temp>0.00</temp>
<bpm>0</bpm>
<rpm>0.00</rpm>
</extensions>
</trkpt>
<trkpt lat="30.885398865" lon="34.775951385">
<ele>462.875000</ele>
<time>2013-11-20T13:12:14Z</time>
<speed>0.010000</speed>
<extensions>
<speed>0.0</speed>
<temp>0.00</temp>
<bpm>0</bpm>
<rpm>0.00</rpm>
</extensions>
</trkpt>
<trkpt lat="30.885404587" lon="34.775959015">
<ele>462.859375</ele>
<time>2013-11-20T13:12:19Z</time>
<speed>1.480000</speed>
<extensions>
<speed>1.5</speed>
<temp>0.00</temp>
<bpm>0</bpm>
<rpm>0.00</rpm>
</extensions>
</trkpt>
<trkpt lat="30.885448456" lon="34.775936127">
<ele>462.507813</ele>
<time>2013-11-20T13:12:24Z</time>
<speed>0.110000</speed>
<extensions>
<speed>0.1</speed>
<temp>0.00</temp>
<bpm>0</bpm>
<rpm>0.00</rpm>
</extensions>
</trkpt>
<trkpt lat="30.885448456" lon="34.775936127">
<ele>462.210938</ele>
<time>2013-11-20T13:12:29Z</time>
<speed>0.010000</speed>
<extensions>
<speed>0.0</speed>
<temp>0.00</temp>
<bpm>0</bpm>
<rpm>0.00</rpm>
</extensions>
</trkpt>
<trkpt lat="30.885448456" lon="34.775936127">
<ele>462.164063</ele>
<time>2013-11-20T13:12:34Z</time>
<speed>0.010000</speed>
<extensions>
<speed>0.0</speed>
<temp>0.00</temp>
<bpm>0</bpm>
<rpm>0.00</rpm>
</extensions>
</trkpt>
<trkpt lat="30.885463715" lon="34.775928497">
<ele>461.921875</ele>
<time>2013-11-20T13:12:39Z</time>
<speed>1.700000</speed>
<extensions>
<speed>1.7</speed>
<temp>0.00</temp>
<bpm>0</bpm>
<rpm>0.00</rpm>
</extensions>
</trkpt>
<trkpt lat="30.885581970" lon="34.775844574">
<ele>461.507813</ele>
<time>2013-11-20T13:12:44Z</time>
<speed>3.360000</speed>
<extensions>
<speed>3.4</speed>
<temp>0.00</temp>
<bpm>0</bpm>
<rpm>0.00</rpm>
</extensions>
</trkpt>
<trkpt lat="30.885700226" lon="34.775760651">
<ele>460.656250</ele>
<time>2013-11-20T13:12:49Z</time>
<speed>2.890000</speed>
<extensions>
<speed>2.9</speed>
<temp>0.00</temp>
<bpm>0</bpm>
<rpm>0.00</rpm>
</extensions>
</trkpt>
<trkpt lat="30.885892868" lon="34.775711060">
<ele>459.265625</ele>
<time>2013-11-20T13:12:54Z</time>
<speed>4.820000</speed>
<extensions>
<speed>4.8</speed>
<temp>0.00</temp>
<bpm>0</bpm>
<rpm>0.00</rpm>
</extensions>
</trkpt>
<trkpt lat="30.886108398" lon="34.775665283">
<ele>459.687500</ele>
<time>2013-11-20T13:12:59Z</time>
<speed>4.460000</speed>
<extensions>
<speed>4.5</speed>
<temp>0.00</temp>
<bpm>0</bpm>
<rpm>0.00</rpm>
</extensions>
</trkpt>
<trkpt lat="30.886329651" lon="34.775600433">
<ele>459.453125</ele>
<time>2013-11-20T13:13:04Z</time>
<speed>4.890000</speed>
<extensions>
<speed>4.9</speed>
<temp>0.00</temp>
<bpm>0</bpm>
<rpm>0.00</rpm>
</extensions>
</trkpt>
<trkpt lat="30.886577606" lon="34.775569916">
<ele>459.687500</ele>
<time>2013-11-20T13:13:09Z</time>
<speed>5.650000</speed>
<extensions>
<speed>5.7</speed>
<temp>0.00</temp>
<bpm>0</bpm>
<rpm>0.00</rpm>
</extensions>
</trkpt>
<trkpt lat="30.886812210" lon="34.775585175">
<ele>460.179688</ele>
<time>2013-11-20T13:13:14Z</time>
<speed>4.960000</speed>
<extensions>
<speed>5.0</speed>
<temp>0.00</temp>
<bpm>0</bpm>
<rpm>0.00</rpm>
</extensions>
</trkpt>
<trkpt lat="30.886953354" lon="34.775608063">
<ele>461.218750</ele>
<time>2013-11-20T13:13:19Z</time>
<speed>2.270000</speed>
<extensions>
<speed>2.3</speed>
<temp>0.00</temp>
<bpm>0</bpm>
<rpm>0.00</rpm>
</extensions>
</trkpt>
<trkpt lat="30.887062073" lon="34.775630951">
<ele>460.078125</ele>
<time>2013-11-20T13:13:24Z</time>
<speed>3.420000</speed>
<extensions>
<speed>3.4</speed>
<temp>0.00</temp>
<bpm>0</bpm>
<rpm>0.00</rpm>
</extensions>
</trkpt>
<trkpt lat="30.887241364" lon="34.775650024">
<ele>460.593750</ele>
<time>2013-11-20T13:13:29Z</time>
<speed>4.050000</speed>
<extensions>
<speed>4.0</speed>
<temp>0.00</temp>
<bpm>0</bpm>
<rpm>0.00</rpm>
</extensions>
</trkpt>
<trkpt lat="30.887443542" lon="34.775661469">
<ele>460.773438</ele>
<time>2013-11-20T13:13:34Z</time>
<speed>4.880000</speed>
<extensions>
<speed>4.9</speed>
<temp>0.00</temp>
<bpm>0</bpm>
<rpm>0.00</rpm>
</extensions>
</trkpt>
<trkpt lat="30.887680054" lon="34.775665283">
<ele>461.117188</ele>
<time>2013-11-20T13:13:39Z</time>
<speed>4.940000</speed>
<extensions>
<speed>4.9</speed>
<temp>0.00</temp>
<bpm>0</bpm>
<rpm>0.00</rpm>
</extensions>
</trkpt>
<trkpt lat="30.887895584" lon="34.775680542">
<ele>461.406250</ele>
<time>2013-11-20T13:13:44Z</time>
<speed>4.760000</speed>
<extensions>
<speed>4.8</speed>
<temp>0.00</temp>
<bpm>0</bpm>
<rpm>0.00</rpm>
</extensions>
</trkpt>
<trkpt lat="30.888135910" lon="34.775703430">
<ele>459.117188</ele>
<time>2013-11-20T13:13:49Z</time>
<speed>5.590000</speed>
<extensions>
<speed>5.6</speed>
<temp>0.00</temp>
<bpm>0</bpm>
<rpm>0.00</rpm>
</extensions>
</trkpt>
<trkpt lat="30.888391495" lon="34.775730133">
<ele>459.046875</ele>
<time>2013-11-20T13:13:54Z</time>
<speed>5.370000</speed>
<extensions>
<speed>5.4</speed>
<temp>0.00</temp>
<bpm>0</bpm>
<rpm>0.00</rpm>
</extensions>
</trkpt>
<trkpt lat="30.888618469" lon="34.775745392">
<ele>459.398438</ele>
<time>2013-11-20T13:13:59Z</time>
<speed>5.340000</speed>
<extensions>
<speed>5.3</speed>
<temp>0.00</temp>
<bpm>0</bpm>
<rpm>0.00</rpm>
</extensions>
</trkpt>
<trkpt lat="30.888874054" lon="34.775772095">
<ele>460.164063</ele>
<time>2013-11-20T13:14:04Z</time>
<speed>5.330000</speed>
<extensions>
<speed>5.3</speed>
<temp>0.00</temp>
<bpm>0</bpm>
<rpm>0.00</rpm>
</extensions>
</trkpt>
<trkpt lat="30.889122009" lon="34.775825500">
<ele>460.429688</ele>
<time>2013-11-20T13:14:09Z</time>
<speed>5.100000</speed>
<extensions>
<speed>5.1</speed>
<temp>0.00</temp>
<bpm>0</bpm>
<rpm>0.00</rpm>
</extensions>
</trkpt>
<trkpt lat="30.889343262" lon="34.775787354">
<ele>459.539063</ele>
<time>2013-11-20T13:14:14Z</time>
<speed>5.170000</speed>
<extensions>
<speed>5.2</speed>
<temp>0.00</temp>
<bpm>0</bpm>
<rpm>0.00</rpm>
</extensions>
</trkpt>
<trkpt lat="30.889547348" lon="34.775711060">
<ele>458.976563</ele>
<time>2013-11-20T13:14:19Z</time>
<speed>4.690000</speed>
<extensions>
<speed>4.7</speed>
<temp>0.00</temp>
<bpm>0</bpm>
<rpm>0.00</rpm>
</extensions>
</trkpt>
<trkpt lat="30.889776230" lon="34.775699615">
<ele>458.593750</ele>
<time>2013-11-20T13:14:24Z</time>
<speed>5.360000</speed>
<extensions>
<speed>5.4</speed>
<temp>0.00</temp>
<bpm>0</bpm>
<rpm>0.00</rpm>
</extensions>
</trkpt>
<trkpt lat="30.889989853" lon="34.775688171">
<ele>457.476563</ele>
<time>2013-11-20T13:14:29Z</time>
<speed>4.920000</speed>
<extensions>
<speed>4.9</speed>
<temp>0.00</temp>
<bpm>0</bpm>
<rpm>0.00</rpm>
</extensions>
</trkpt>
<trkpt lat="30.890197754" lon="34.775733948">
<ele>458.203125</ele>
<time>2013-11-20T13:14:34Z</time>
<speed>4.270000</speed>
<extensions>
<speed>4.3</speed>
<temp>0.00</temp>
<bpm>0</bpm>
<rpm>0.00</rpm>
</extensions>
</trkpt>
<trkpt lat="30.890382767" lon="34.775810242">
<ele>458.078125</ele>
<time>2013-11-20T13:14:39Z</time>
<speed>5.070000</speed>
<extensions>
<speed>5.1</speed>
<temp>0.00</temp>
<bpm>0</bpm>
<rpm>0.00</rpm>
</extensions>
</trkpt>
<trkpt lat="30.890596390" lon="34.775863647">
<ele>458.937500</ele>
<time>2013-11-20T13:14:44Z</time>
<speed>4.730000</speed>
<extensions>
<speed>4.7</speed>
<temp>0.00</temp>
<bpm>0</bpm>
<rpm>0.00</rpm>
</extensions>
</trkpt>
<trkpt lat="30.890800476" lon="34.775856018">
<ele>458.914063</ele>
<time>2013-11-20T13:14:49Z</time>
<speed>4.270000</speed>
<extensions>
<speed>4.3</speed>
<temp>0.00</temp>
<bpm>0</bpm>
<rpm>0.00</rpm>
</extensions>
</trkpt>
<trkpt lat="30.891010284" lon="34.775844574">
<ele>459.312500</ele>
<time>2013-11-20T13:14:54Z</time>
<speed>4.740000</speed>
<extensions>
<speed>4.7</speed>
<temp>0.00</temp>
<bpm>0</bpm>
<rpm>0.00</rpm>
</extensions>
</trkpt>
<trkpt lat="30.891197205" lon="34.775840759">
<ele>460.593750</ele>
<time>2013-11-20T13:14:59Z</time>
<speed>3.890000</speed>
<extensions>
<speed>3.9</speed>
<temp>0.00</temp>
<bpm>0</bpm>
<rpm>0.00</rpm>
</extensions>
</trkpt>
<trkpt lat="30.891349792" lon="34.775856018">
<ele>461.359375</ele>
<time>2013-11-20T13:15:04Z</time>
<speed>4.130000</speed>
<extensions>
<speed>4.1</speed>
<temp>0.00</temp>
<bpm>0</bpm>
<rpm>0.00</rpm>
</extensions>
</trkpt>
<trkpt lat="30.891557693" lon="34.775806427">
<ele>461.187500</ele>
<time>2013-11-20T13:15:09Z</time>
<speed>4.600000</speed>
<extensions>
<speed>4.6</speed>
<temp>0.00</temp>
<bpm>0</bpm>
<rpm>0.00</rpm>
</extensions>
</trkpt>
<trkpt lat="30.891752243" lon="34.775749207">
<ele>461.304688</ele>
<time>2013-11-20T13:15:14Z</time>
<speed>4.430000</speed>
<extensions>
<speed>4.4</speed>
<temp>0.00</temp>
<bpm>0</bpm>
<rpm>0.00</rpm>
</extensions>
</trkpt>
<trkpt lat="30.891939163" lon="34.775630951">
<ele>461.445313</ele>
<time>2013-11-20T13:15:19Z</time>
<speed>4.980000</speed>
<extensions>
<speed>5.0</speed>
<temp>0.00</temp>
<bpm>0</bpm>
<rpm>0.00</rpm>
</extensions>
</trkpt>
<trkpt lat="30.892133713" lon="34.775531769">
<ele>461.593750</ele>
<time>2013-11-20T13:15:24Z</time>
<speed>4.140000</speed>
<extensions>
<speed>4.1</speed>
<temp>0.00</temp>
<bpm>0</bpm>
<rpm>0.00</rpm>
</extensions>
</trkpt>
<trkpt lat="30.892307281" lon="34.775444031">
<ele>461.984375</ele>
<time>2013-11-20T13:15:29Z</time>
<speed>4.600000</speed>
<extensions>
<speed>4.6</speed>
<temp>0.00</temp>
<bpm>0</bpm>
<rpm>0.00</rpm>
</extensions>
</trkpt>
<trkpt lat="30.892473221" lon="34.775413513">
<ele>462.484375</ele>
<time>2013-11-20T13:15:34Z</time>
<speed>2.870000</speed>
<extensions>
<speed>2.9</speed>
<temp>0.00</temp>
<bpm>0</bpm>
<rpm>0.00</rpm>
</extensions>
</trkpt>
<trkpt lat="30.892583847" lon="34.775375366">
<ele>462.460938</ele>
<time>2013-11-20T13:15:39Z</time>
<speed>3.320000</speed>
<extensions>
<speed>3.3</speed>
<temp>0.00</temp>
<bpm>0</bpm>
<rpm>0.00</rpm>
</extensions>
</trkpt>
<trkpt lat="30.892745972" lon="34.775306702">
<ele>462.203125</ele>
<time>2013-11-20T13:15:44Z</time>
<speed>4.440000</speed>
<extensions>
<speed>4.4</speed>
<temp>0.00</temp>
<bpm>0</bpm>
<rpm>0.00</rpm>
</extensions>
</trkpt>
<trkpt lat="30.892959595" lon="34.775291443">
<ele>461.718750</ele>
<time>2013-11-20T13:15:49Z</time>
<speed>5.320000</speed>
<extensions>
<speed>5.3</speed>
<temp>0.00</temp>
<bpm>0</bpm>
<rpm>0.00</rpm>
</extensions>
</trkpt>
<trkpt lat="30.893188477" lon="34.775245667">
<ele>461.960938</ele>
<time>2013-11-20T13:15:54Z</time>
<speed>5.550000</speed>
<extensions>
<speed>5.5</speed>
<temp>0.00</temp>
<bpm>0</bpm>
<rpm>0.00</rpm>
</extensions>
</trkpt>
<trkpt lat="30.893413544" lon="34.775161743">
<ele>461.882813</ele>
<time>2013-11-20T13:15:59Z</time>
<speed>5.270000</speed>
<extensions>
<speed>5.3</speed>
<temp>0.00</temp>
<bpm>0</bpm>
<rpm>0.00</rpm>
</extensions>
</trkpt>
<trkpt lat="30.893630981" lon="34.775115967">
<ele>461.687500</ele>
<time>2013-11-20T13:16:04Z</time>
<speed>4.800000</speed>
<extensions>
<speed>4.8</speed>
<temp>0.00</temp>
<bpm>0</bpm>
<rpm>0.00</rpm>
</extensions>
</trkpt>
<trkpt lat="30.893781662" lon="34.775062561">
<ele>462.234375</ele>
<time>2013-11-20T13:16:09Z</time>
<speed>3.130000</speed>
<extensions>
<speed>3.1</speed>
<temp>0.00</temp>
<bpm>0</bpm>
<rpm>0.00</rpm>
</extensions>
</trkpt>
<trkpt lat="30.893934250" lon="34.774921417">
<ele>462.281250</ele>
<time>2013-11-20T13:16:14Z</time>
<speed>5.470000</speed>
<extensions>
<speed>5.5</speed>
<temp>0.00</temp>
<bpm>0</bpm>
<rpm>0.00</rpm>
</extensions>
</trkpt>
<trkpt lat="30.894151688" lon="34.774784088">
<ele>462.351563</ele>
<time>2013-11-20T13:16:19Z</time>
<speed>5.300000</speed>
<extensions>
<speed>5.3</speed>
<temp>0.00</temp>
<bpm>0</bpm>
<rpm>0.00</rpm>
</extensions>
</trkpt>
<trkpt lat="30.894365311" lon="34.774665833">
<ele>461.992188</ele>
<time>2013-11-20T13:16:24Z</time>
<speed>5.210000</speed>
<extensions>
<speed>5.2</speed>
<temp>0.00</temp>
<bpm>0</bpm>
<rpm>0.00</rpm>
</extensions>
</trkpt>
<trkpt lat="30.894605637" lon="34.774627686">
<ele>461.359375</ele>
<time>2013-11-20T13:16:29Z</time>
<speed>5.090000</speed>
<extensions>
<speed>5.1</speed>
<temp>0.00</temp>
<bpm>0</bpm>
<rpm>0.00</rpm>
</extensions>
</trkpt>
<trkpt lat="30.894836426" lon="34.774551392">
<ele>461.171875</ele>
<time>2013-11-20T13:16:34Z</time>
<speed>5.040000</speed>
<extensions>
<speed>5.0</speed>
<temp>0.00</temp>
<bpm>0</bpm>
<rpm>0.00</rpm>
</extensions>
</trkpt>
<trkpt lat="30.895063400" lon="34.774471283">
<ele>461.117188</ele>
<time>2013-11-20T13:16:39Z</time>
<speed>5.490000</speed>
<extensions>
<speed>5.5</speed>
<temp>0.00</temp>
<bpm>0</bpm>
<rpm>0.00</rpm>
</extensions>
</trkpt>
<trkpt lat="30.895286560" lon="34.774364471">
<ele>461.765625</ele>
<time>2013-11-20T13:16:44Z</time>
<speed>5.210000</speed>
<extensions>
<speed>5.2</speed>
<temp>0.00</temp>
<bpm>0</bpm>
<rpm>0.00</rpm>
</extensions>
</trkpt>
<trkpt lat="30.895473480" lon="34.774269104">
<ele>462.476563</ele>
<time>2013-11-20T13:16:49Z</time>
<speed>4.120000</speed>
<extensions>
<speed>4.1</speed>
<temp>0.00</temp>
<bpm>0</bpm>
<rpm>0.00</rpm>
</extensions>
</trkpt>
<trkpt lat="30.895650864" lon="34.774169922">
<ele>461.859375</ele>
<time>2013-11-20T13:16:54Z</time>
<speed>5.190000</speed>
<extensions>
<speed>5.2</speed>
<temp>0.00</temp>
<bpm>0</bpm>
<rpm>0.00</rpm>
</extensions>
</trkpt>
<trkpt lat="30.895847321" lon="34.774044037">
<ele>461.359375</ele>
<time>2013-11-20T13:16:59Z</time>
<speed>4.720000</speed>
<extensions>
<speed>4.7</speed>
<temp>0.00</temp>
<bpm>0</bpm>
<rpm>0.00</rpm>
</extensions>
</trkpt>
<trkpt lat="30.896013260" lon="34.773902893">
<ele>461.234375</ele>
<time>2013-11-20T13:17:04Z</time>
<speed>4.700000</speed>
<extensions>
<speed>4.7</speed>
<temp>0.00</temp>
<bpm>0</bpm>
<rpm>0.00</rpm>
</extensions>
</trkpt>
<trkpt lat="30.896190643" lon="34.773742676">
<ele>461.039063</ele>
<time>2013-11-20T13:17:09Z</time>
<speed>5.120000</speed>
<extensions>
<speed>5.1</speed>
<temp>0.00</temp>
<bpm>0</bpm>
<rpm>0.00</rpm>
</extensions>
</trkpt>
<trkpt lat="30.896341324" lon="34.773586273">
<ele>461.031250</ele>
<time>2013-11-20T13:17:14Z</time>
<speed>4.170000</speed>
<extensions>
<speed>4.2</speed>
<temp>0.00</temp>
<bpm>0</bpm>
<rpm>0.00</rpm>
</extensions>
</trkpt>
<trkpt lat="30.896507263" lon="34.773422241">
<ele>460.125000</ele>
<time>2013-11-20T13:17:19Z</time>
<speed>4.980000</speed>
<extensions>
<speed>5.0</speed>
<temp>0.00</temp>
<bpm>0</bpm>
<rpm>0.00</rpm>
</extensions>
</trkpt>
<trkpt lat="30.896697998" lon="34.773239136">
<ele>459.539063</ele>
<time>2013-11-20T13:17:24Z</time>
<speed>5.250000</speed>
<extensions>
<speed>5.2</speed>
<temp>0.00</temp>
<bpm>0</bpm>
<rpm>0.00</rpm>
</extensions>
</trkpt>
<trkpt lat="30.896886826" lon="34.773078918">
<ele>459.039063</ele>
<time>2013-11-20T13:17:29Z</time>
<speed>5.120000</speed>
<extensions>
<speed>5.1</speed>
<temp>0.00</temp>
<bpm>0</bpm>
<rpm>0.00</rpm>
</extensions>
</trkpt>
<trkpt lat="30.897068024" lon="34.772930145">
<ele>459.656250</ele>
<time>2013-11-20T13:17:34Z</time>
<speed>4.920000</speed>
<extensions>
<speed>4.9</speed>
<temp>0.00</temp>
<bpm>0</bpm>
<rpm>0.00</rpm>
</extensions>
</trkpt>
<trkpt lat="30.897228241" lon="34.772823334">
<ele>459.828125</ele>
<time>2013-11-20T13:17:39Z</time>
<speed>3.920000</speed>
<extensions>
<speed>3.9</speed>
<temp>0.00</temp>
<bpm>0</bpm>
<rpm>0.00</rpm>
</extensions>
</trkpt>
<trkpt lat="30.897346497" lon="34.772678375">
<ele>459.476563</ele>
<time>2013-11-20T13:17:44Z</time>
<speed>3.220000</speed>
<extensions>
<speed>3.2</speed>
<temp>0.00</temp>
<bpm>0</bpm>
<rpm>0.00</rpm>
</extensions>
</trkpt>
<trkpt lat="30.897428513" lon="34.772552490">
<ele>458.476563</ele>
<time>2013-11-20T13:17:49Z</time>
<speed>3.030000</speed>
<extensions>
<speed>3.0</speed>
<temp>0.00</temp>
<bpm>0</bpm>
<rpm>0.00</rpm>
</extensions>
</trkpt>
<trkpt lat="30.897459030" lon="34.772441864">
<ele>456.546875</ele>
<time>2013-11-20T13:17:54Z</time>
<speed>1.760000</speed>
<extensions>
<speed>1.8</speed>
<temp>0.00</temp>
<bpm>0</bpm>
<rpm>0.00</rpm>
</extensions>
</trkpt>
<trkpt lat="30.897472382" lon="34.772354126">
<ele>455.437500</ele>
<time>2013-11-20T13:17:59Z</time>
<speed>1.930000</speed>
<extensions>
<speed>1.9</speed>
<temp>0.00</temp>
<bpm>0</bpm>
<rpm>0.00</rpm>
</extensions>
</trkpt>
<trkpt lat="30.897562027" lon="34.772331238">
<ele>455.453125</ele>
<time>2013-11-20T13:18:04Z</time>
<speed>2.790000</speed>
<extensions>
<speed>2.8</speed>
<temp>0.00</temp>
<bpm>0</bpm>
<rpm>0.00</rpm>
</extensions>
</trkpt>
<trkpt lat="30.897720337" lon="34.772296906">
<ele>456.078125</ele>
<time>2013-11-20T13:18:09Z</time>
<speed>4.100000</speed>
<extensions>
<speed>4.1</speed>
<temp>0.00</temp>
<bpm>0</bpm>
<rpm>0.00</rpm>
</extensions>
</trkpt>
<trkpt lat="30.897932053" lon="34.772228241">
<ele>455.625000</ele>
<time>2013-11-20T13:18:14Z</time>
<speed>5.080000</speed>
<extensions>
<speed>5.1</speed>
<temp>0.00</temp>
<bpm>0</bpm>
<rpm>0.00</rpm>
</extensions>
</trkpt>
<trkpt lat="30.898164749" lon="34.772144318">
<ele>455.554688</ele>
<time>2013-11-20T13:18:19Z</time>
<speed>5.440000</speed>
<extensions>
<speed>5.4</speed>
<temp>0.00</temp>
<bpm>0</bpm>
<rpm>0.00</rpm>
</extensions>
</trkpt>
<trkpt lat="30.898397446" lon="34.772064209">
<ele>455.812500</ele>
<time>2013-11-20T13:18:24Z</time>
<speed>5.350000</speed>
<extensions>
<speed>5.4</speed>
<temp>0.00</temp>
<bpm>0</bpm>
<rpm>0.00</rpm>
</extensions>
</trkpt>
<trkpt lat="30.898630142" lon="34.771984100">
<ele>456.218750</ele>
<time>2013-11-20T13:18:29Z</time>
<speed>5.500000</speed>
<extensions>
<speed>5.5</speed>
<temp>0.00</temp>
<bpm>0</bpm>
<rpm>0.00</rpm>
</extensions>
</trkpt>
<trkpt lat="30.898862839" lon="34.771907806">
<ele>456.093750</ele>
<time>2013-11-20T13:18:34Z</time>
<speed>5.510000</speed>
<extensions>
<speed>5.5</speed>
<temp>0.00</temp>
<bpm>0</bpm>
<rpm>0.00</rpm>
</extensions>
</trkpt>
<trkpt lat="30.899108887" lon="34.771831512">
<ele>455.250000</ele>
<time>2013-11-20T13:18:39Z</time>
<speed>5.010000</speed>
<extensions>
<speed>5.0</speed>
<temp>0.00</temp>
<bpm>0</bpm>
<rpm>0.00</rpm>
</extensions>
</trkpt>
<trkpt lat="30.899339676" lon="34.771770477">
<ele>454.929688</ele>
<time>2013-11-20T13:18:44Z</time>
<speed>5.490000</speed>
<extensions>
<speed>5.5</speed>
<temp>0.00</temp>
<bpm>0</bpm>
<rpm>0.00</rpm>
</extensions>
</trkpt>
<trkpt lat="30.899583817" lon="34.771682739">
<ele>455.390625</ele>
<time>2013-11-20T13:18:49Z</time>
<speed>5.400000</speed>
<extensions>
<speed>5.4</speed>
<temp>0.00</temp>
<bpm>0</bpm>
<rpm>0.00</rpm>
</extensions>
</trkpt>
<trkpt lat="30.899808884" lon="34.771591187">
<ele>455.445313</ele>
<time>2013-11-20T13:18:54Z</time>
<speed>5.340000</speed>
<extensions>
<speed>5.3</speed>
<temp>0.00</temp>
<bpm>0</bpm>
<rpm>0.00</rpm>
</extensions>
</trkpt>
<trkpt lat="30.900041580" lon="34.771518707">
<ele>455.445313</ele>
<time>2013-11-20T13:18:59Z</time>
<speed>5.150000</speed>
<extensions>
<speed>5.2</speed>
<temp>0.00</temp>
<bpm>0</bpm>
<rpm>0.00</rpm>
</extensions>
</trkpt>
<trkpt lat="30.900278091" lon="34.771442413">
<ele>453.773438</ele>
<time>2013-11-20T13:19:04Z</time>
<speed>6.040000</speed>
<extensions>
<speed>6.0</speed>
<temp>0.00</temp>
<bpm>0</bpm>
<rpm>0.00</rpm>
</extensions>
</trkpt>
<trkpt lat="30.900548935" lon="34.771358490">
<ele>453.015625</ele>
<time>2013-11-20T13:19:09Z</time>
<speed>6.150000</speed>
<extensions>
<speed>6.1</speed>
<temp>0.00</temp>
<bpm>0</bpm>
<rpm>0.00</rpm>
</extensions>
</trkpt>
<trkpt lat="30.900812149" lon="34.771259308">
<ele>452.171875</ele>
<time>2013-11-20T13:19:14Z</time>
<speed>6.270000</speed>
<extensions>
<speed>6.3</speed>
<temp>0.00</temp>
<bpm>0</bpm>
<rpm>0.00</rpm>
</extensions>
</trkpt>
<trkpt lat="30.901069641" lon="34.771175385">
<ele>451.710938</ele>
<time>2013-11-20T13:19:19Z</time>
<speed>5.950000</speed>
<extensions>
<speed>6.0</speed>
<temp>0.00</temp>
<bpm>0</bpm>
<rpm>0.00</rpm>
</extensions>
</trkpt>
<trkpt lat="30.901325226" lon="34.771068573">
<ele>452.000000</ele>
<time>2013-11-20T13:19:24Z</time>
<speed>6.020000</speed>
<extensions>
<speed>6.0</speed>
<temp>0.00</temp>
<bpm>0</bpm>
<rpm>0.00</rpm>
</extensions>
</trkpt>
<trkpt lat="30.901557922" lon="34.770942688">
<ele>453.414063</ele>
<time>2013-11-20T13:19:29Z</time>
<speed>5.030000</speed>
<extensions>
<speed>5.0</speed>
<temp>0.00</temp>
<bpm>0</bpm>
<rpm>0.00</rpm>
</extensions>
</trkpt>
<trkpt lat="30.901744843" lon="34.770881653">
<ele>454.140625</ele>
<time>2013-11-20T13:19:34Z</time>
<speed>4.710000</speed>
<extensions>
<speed>4.7</speed>
<temp>0.00</temp>
<bpm>0</bpm>
<rpm>0.00</rpm>
</extensions>
</trkpt>
<trkpt lat="30.901935577" lon="34.770809174">
<ele>454.125000</ele>
<time>2013-11-20T13:19:39Z</time>
<speed>4.260000</speed>
<extensions>
<speed>4.3</speed>
<temp>0.00</temp>
<bpm>0</bpm>
<rpm>0.00</rpm>
</extensions>
</trkpt>
<trkpt lat="30.902112961" lon="34.770774841">
<ele>454.218750</ele>
<time>2013-11-20T13:19:44Z</time>
<speed>3.040000</speed>
<extensions>
<speed>3.0</speed>
<temp>0.00</temp>
<bpm>0</bpm>
<rpm>0.00</rpm>
</extensions>
</trkpt>
<trkpt lat="30.902206421" lon="34.770805359">
<ele>454.031250</ele>
<time>2013-11-20T13:19:49Z</time>
<speed>1.420000</speed>
<extensions>
<speed>1.4</speed>
<temp>0.00</temp>
<bpm>0</bpm>
<rpm>0.00</rpm>
</extensions>
</trkpt>
<trkpt lat="30.902276993" lon="34.770812988">
<ele>455.218750</ele>
<time>2013-11-20T13:19:54Z</time>
<speed>2.350000</speed>
<extensions>
<speed>2.4</speed>
<temp>0.00</temp>
<bpm>0</bpm>
<rpm>0.00</rpm>
</extensions>
</trkpt>
<trkpt lat="30.902376175" lon="34.770870209">
<ele>457.609375</ele>
<time>2013-11-20T13:19:59Z</time>
<speed>2.590000</speed>
<extensions>
<speed>2.6</speed>
<temp>0.00</temp>
<bpm>0</bpm>
<rpm>0.00</rpm>
</extensions>
</trkpt>
<trkpt lat="30.902479172" lon="34.770919800">
<ele>458.945313</ele>
<time>2013-11-20T13:20:04Z</time>
<speed>2.710000</speed>
<extensions>
<speed>2.7</speed>
<temp>0.00</temp>
<bpm>0</bpm>
<rpm>0.00</rpm>
</extensions>
</trkpt>
<trkpt lat="30.902608871" lon="34.770973206">
<ele>460.421875</ele>
<time>2013-11-20T13:20:09Z</time>
<speed>2.830000</speed>
<extensions>
<speed>2.8</speed>
<temp>0.00</temp>
<bpm>0</bpm>
<rpm>0.00</rpm>
</extensions>
</trkpt>
<trkpt lat="30.902723312" lon="34.771038055">
<ele>462.601563</ele>
<time>2013-11-20T13:20:14Z</time>
<speed>2.930000</speed>
<extensions>
<speed>2.9</speed>
<temp>0.00</temp>
<bpm>0</bpm>
<rpm>0.00</rpm>
</extensions>
</trkpt>
<trkpt lat="30.902868271" lon="34.771118164">
<ele>464.554688</ele>
<time>2013-11-20T13:20:19Z</time>
<speed>3.470000</speed>
<extensions>
<speed>3.5</speed>
<temp>0.00</temp>
<bpm>0</bpm>
<rpm>0.00</rpm>
</extensions>
</trkpt>
<trkpt lat="30.903026581" lon="34.771194458">
<ele>462.625000</ele>
<time>2013-11-20T13:20:24Z</time>
<speed>4.070000</speed>
<extensions>
<speed>4.1</speed>
<temp>0.00</temp>
<bpm>0</bpm>
<rpm>0.00</rpm>
</extensions>
</trkpt>
<trkpt lat="30.903203964" lon="34.771278381">
<ele>461.031250</ele>
<time>2013-11-20T13:20:29Z</time>
<speed>4.180000</speed>
<extensions>
<speed>4.2</speed>
<temp>0.00</temp>
<bpm>0</bpm>
<rpm>0.00</rpm>
</extensions>
</trkpt>
<trkpt lat="30.903402328" lon="34.771331787">
<ele>460.929688</ele>
<time>2013-11-20T13:20:34Z</time>
<speed>4.910000</speed>
<extensions>
<speed>4.9</speed>
<temp>0.00</temp>
<bpm>0</bpm>
<rpm>0.00</rpm>
</extensions>
</trkpt>
<trkpt lat="30.903608322" lon="34.771404266">
<ele>462.500000</ele>
<time>2013-11-20T13:20:39Z</time>
<speed>3.840000</speed>
<extensions>
<speed>3.8</speed>
<temp>0.00</temp>
<bpm>0</bpm>
<rpm>0.00</rpm>
</extensions>
</trkpt>
<trkpt lat="30.903785706" lon="34.771453857">
<ele>461.960938</ele>
<time>2013-11-20T13:20:44Z</time>
<speed>4.760000</speed>
<extensions>
<speed>4.8</speed>
<temp>0.00</temp>
<bpm>0</bpm>
<rpm>0.00</rpm>
</extensions>
</trkpt>
<trkpt lat="30.903984070" lon="34.771526337">
<ele>459.234375</ele>
<time>2013-11-20T13:20:49Z</time>
<speed>4.250000</speed>
<extensions>
<speed>4.3</speed>
<temp>0.00</temp>
<bpm>0</bpm>
<rpm>0.00</rpm>
</extensions>
</trkpt>
<trkpt lat="30.904169083" lon="34.771598816">
<ele>457.367188</ele>
<time>2013-11-20T13:20:54Z</time>
<speed>4.740000</speed>
<extensions>
<speed>4.7</speed>
<temp>0.00</temp>
<bpm>0</bpm>
<rpm>0.00</rpm>
</extensions>
</trkpt>
<trkpt lat="30.904336929" lon="34.771667480">
<ele>458.656250</ele>
<time>2013-11-20T13:20:59Z</time>
<speed>4.050000</speed>
<extensions>
<speed>4.0</speed>
<temp>0.00</temp>
<bpm>0</bpm>
<rpm>0.00</rpm>
</extensions>
</trkpt>
<trkpt lat="30.904546738" lon="34.771774292">
<ele>456.656250</ele>
<time>2013-11-20T13:21:04Z</time>
<speed>5.230000</speed>
<extensions>
<speed>5.2</speed>
<temp>0.00</temp>
<bpm>0</bpm>
<rpm>0.00</rpm>
</extensions>
</trkpt>
<trkpt lat="30.904737473" lon="34.771869659">
<ele>458.695313</ele>
<time>2013-11-20T13:21:09Z</time>
<speed>4.660000</speed>
<extensions>
<speed>4.7</speed>
<temp>0.00</temp>
<bpm>0</bpm>
<rpm>0.00</rpm>
</extensions>
</trkpt>
<trkpt lat="30.904932022" lon="34.771957397">
<ele>461.031250</ele>
<time>2013-11-20T13:21:14Z</time>
<speed>4.160000</speed>
<extensions>
<speed>4.2</speed>
<temp>0.00</temp>
<bpm>0</bpm>
<rpm>0.00</rpm>
</extensions>
</trkpt>
<trkpt lat="30.905107498" lon="34.772003174">
<ele>462.023438</ele>
<time>2013-11-20T13:21:19Z</time>
<speed>4.070000</speed>
<extensions>
<speed>4.1</speed>
<temp>0.00</temp>
<bpm>0</bpm>
<rpm>0.00</rpm>
</extensions>
</trkpt>
<trkpt lat="30.905200958" lon="34.772045135">
<ele>462.304688</ele>
<time>2013-11-20T13:21:24Z</time>
<speed>0.040000</speed>
<extensions>
<speed>0.0</speed>
<temp>0.00</temp>
<bpm>0</bpm>
<rpm>0.00</rpm>
</extensions>
</trkpt>
<trkpt lat="30.905202866" lon="34.772045135">
<ele>462.273438</ele>
<time>2013-11-20T13:21:29Z</time>
<speed>0.050000</speed>
<extensions>
<speed>0.1</speed>
<temp>0.00</temp>
<bpm>0</bpm>
<rpm>0.00</rpm>
</extensions>
</trkpt>
<trkpt lat="30.905202866" lon="34.772041321">
<ele>462.281250</ele>
<time>2013-11-20T13:21:34Z</time>
<speed>0.010000</speed>
<extensions>
<speed>0.0</speed>
<temp>0.00</temp>
<bpm>0</bpm>
<rpm>0.00</rpm>
</extensions>
</trkpt>
<trkpt lat="30.905200958" lon="34.772041321">
<ele>462.304688</ele>
<time>2013-11-20T13:21:39Z</time>
<speed>0.030000</speed>
<extensions>
<speed>0.0</speed>
<temp>0.00</temp>
<bpm>0</bpm>
<rpm>0.00</rpm>
</extensions>
</trkpt>
<trkpt lat="30.905200958" lon="34.772041321">
<ele>462.296875</ele>
<time>2013-11-20T13:21:44Z</time>
<extensions>
<speed>0.0</speed>
<temp>0.00</temp>
<bpm>0</bpm>
<rpm>0.00</rpm>
</extensions>
</trkpt>
<trkpt lat="30.905200958" lon="34.772041321">
<ele>462.312500</ele>
<time>2013-11-20T13:21:49Z</time>
<extensions>
<speed>0.0</speed>
<temp>0.00</temp>
<bpm>0</bpm>
<rpm>0.00</rpm>
</extensions>
</trkpt>
<trkpt lat="30.905200958" lon="34.772041321">
<ele>462.343750</ele>
<time>2013-11-20T13:21:54Z</time>
<extensions>
<speed>0.0</speed>
<temp>0.00</temp>
<bpm>0</bpm>
<rpm>0.00</rpm>
</extensions>
</trkpt>
<trkpt lat="30.905200958" lon="34.772041321">
<ele>462.367188</ele>
<time>2013-11-20T13:21:59Z</time>
<extensions>
<speed>0.0</speed>
<temp>0.00</temp>
<bpm>0</bpm>
<rpm>0.00</rpm>
</extensions>
</trkpt>
<trkpt lat="30.905200958" lon="34.772041321">
<ele>462.359375</ele>
<time>2013-11-20T13:22:04Z</time>
<extensions>
<speed>0.0</speed>
<temp>0.00</temp>
<bpm>0</bpm>
<rpm>0.00</rpm>
</extensions>
</trkpt>
<trkpt lat="30.905200958" lon="34.772041321">
<ele>462.351563</ele>
<time>2013-11-20T13:22:09Z</time>
<extensions>
<speed>0.0</speed>
<temp>0.00</temp>
<bpm>0</bpm>
<rpm>0.00</rpm>
</extensions>
</trkpt>
<trkpt lat="30.905200958" lon="34.772041321">
<ele>462.343750</ele>
<time>2013-11-20T13:22:14Z</time>
<extensions>
<speed>0.0</speed>
<temp>0.00</temp>
<bpm>0</bpm>
<rpm>0.00</rpm>
</extensions>
</trkpt>
<trkpt lat="30.905200958" lon="34.772041321">
<ele>462.335938</ele>
<time>2013-11-20T13:22:19Z</time>
<extensions>
<speed>0.0</speed>
<temp>0.00</temp>
<bpm>0</bpm>
<rpm>0.00</rpm>
</extensions>
</trkpt>
<trkpt lat="30.905200958" lon="34.772041321">
<ele>462.335938</ele>
<time>2013-11-20T13:22:24Z</time>
<extensions>
<speed>0.0</speed>
<temp>0.00</temp>
<bpm>0</bpm>
<rpm>0.00</rpm>
</extensions>
</trkpt>
<trkpt lat="30.905199051" lon="34.772041321">
<ele>462.328125</ele>
<time>2013-11-20T13:22:29Z</time>
<extensions>
<speed>0.0</speed>
<temp>0.00</temp>
<bpm>0</bpm>
<rpm>0.00</rpm>
</extensions>
</trkpt>
<trkpt lat="30.905199051" lon="34.772041321">
<ele>462.320313</ele>
<time>2013-11-20T13:22:34Z</time>
<extensions>
<speed>0.0</speed>
<temp>0.00</temp>
<bpm>0</bpm>
<rpm>0.00</rpm>
</extensions>
</trkpt>
<trkpt lat="30.905199051" lon="34.772041321">
<ele>462.320313</ele>
<time>2013-11-20T13:22:39Z</time>
<extensions>
<speed>0.0</speed>
<temp>0.00</temp>
<bpm>0</bpm>
<rpm>0.00</rpm>
</extensions>
</trkpt>
<trkpt lat="30.905199051" lon="34.772041321">
<ele>462.312500</ele>
<time>2013-11-20T13:22:44Z</time>
<extensions>
<speed>0.0</speed>
<temp>0.00</temp>
<bpm>0</bpm>
<rpm>0.00</rpm>
</extensions>
</trkpt>
<trkpt lat="30.905199051" lon="34.772041321">
<ele>462.304688</ele>
<time>2013-11-20T13:22:49Z</time>
<extensions>
<speed>0.0</speed>
<temp>0.00</temp>
<bpm>0</bpm>
<rpm>0.00</rpm>
</extensions>
</trkpt>
<trkpt lat="30.905199051" lon="34.772041321">
<ele>462.304688</ele>
<time>2013-11-20T13:22:54Z</time>
<extensions>
<speed>0.0</speed>
<temp>0.00</temp>
<bpm>0</bpm>
<rpm>0.00</rpm>
</extensions>
</trkpt>
<trkpt lat="30.905199051" lon="34.772041321">
<ele>462.296875</ele>
<time>2013-11-20T13:22:59Z</time>
<extensions>
<speed>0.0</speed>
<temp>0.00</temp>
<bpm>0</bpm>
<rpm>0.00</rpm>
</extensions>
</trkpt>
<trkpt lat="30.905199051" lon="34.772041321">
<ele>462.289063</ele>
<time>2013-11-20T13:23:04Z</time>
<extensions>
<speed>0.0</speed>
<temp>0.00</temp>
<bpm>0</bpm>
<rpm>0.00</rpm>
</extensions>
</trkpt>
<trkpt lat="30.905199051" lon="34.772041321">
<ele>462.273438</ele>
<time>2013-11-20T13:23:09Z</time>
<speed>0.780000</speed>
<extensions>
<speed>0.8</speed>
<temp>0.00</temp>
<bpm>0</bpm>
<rpm>0.00</rpm>
</extensions>
</trkpt>
<trkpt lat="30.905292511" lon="34.772064209">
<ele>461.851563</ele>
<time>2013-11-20T13:23:14Z</time>
<speed>3.480000</speed>
<extensions>
<speed>3.5</speed>
<temp>0.00</temp>
<bpm>0</bpm>
<rpm>0.00</rpm>
</extensions>
</trkpt>
<trkpt lat="30.905479431" lon="34.772136688">
<ele>459.757813</ele>
<time>2013-11-20T13:23:19Z</time>
<speed>4.850000</speed>
<extensions>
<speed>4.8</speed>
<temp>0.00</temp>
<bpm>0</bpm>
<rpm>0.00</rpm>
</extensions>
</trkpt>
<trkpt lat="30.905685425" lon="34.772216797">
<ele>459.914063</ele>
<time>2013-11-20T13:23:24Z</time>
<speed>4.720000</speed>
<extensions>
<speed>4.7</speed>
<temp>0.00</temp>
<bpm>0</bpm>
<rpm>0.00</rpm>
</extensions>
</trkpt>
<trkpt lat="30.905895233" lon="34.772315979">
<ele>459.070313</ele>
<time>2013-11-20T13:23:29Z</time>
<speed>5.610000</speed>
<extensions>
<speed>5.6</speed>
<temp>0.00</temp>
<bpm>0</bpm>
<rpm>0.00</rpm>
</extensions>
</trkpt>
<trkpt lat="30.906139374" lon="34.772418976">
<ele>458.664063</ele>
<time>2013-11-20T13:23:34Z</time>
<speed>5.540000</speed>
<extensions>
<speed>5.5</speed>
<temp>0.00</temp>
<bpm>0</bpm>
<rpm>0.00</rpm>
</extensions>
</trkpt>
<trkpt lat="30.906257629" lon="34.772586823">
<ele>459.585938</ele>
<time>2013-11-20T13:23:39Z</time>
<speed>2.930000</speed>
<extensions>
<speed>2.9</speed>
<temp>0.00</temp>
<bpm>0</bpm>
<rpm>0.00</rpm>
</extensions>
</trkpt>
<trkpt lat="30.906211853" lon="34.772682190">
<ele>462.125000</ele>
<time>2013-11-20T13:23:44Z</time>
<speed>2.740000</speed>
<extensions>
<speed>2.7</speed>
<temp>0.00</temp>
<bpm>0</bpm>
<rpm>0.00</rpm>
</extensions>
</trkpt>
<trkpt lat="30.906196594" lon="34.772842407">
<ele>462.601563</ele>
<time>2013-11-20T13:23:49Z</time>
<speed>3.010000</speed>
<extensions>
<speed>3.0</speed>
<temp>0.00</temp>
<bpm>0</bpm>
<rpm>0.00</rpm>
</extensions>
</trkpt>
<trkpt lat="30.906190872" lon="34.773017883">
<ele>462.968750</ele>
<time>2013-11-20T13:23:54Z</time>
<speed>3.230000</speed>
<extensions>
<speed>3.2</speed>
<temp>0.00</temp>
<bpm>0</bpm>
<rpm>0.00</rpm>
</extensions>
</trkpt>
<trkpt lat="30.906171799" lon="34.773181915">
<ele>464.937500</ele>
<time>2013-11-20T13:23:59Z</time>
<speed>3.380000</speed>
<extensions>
<speed>3.4</speed>
<temp>0.00</temp>
<bpm>0</bpm>
<rpm>0.00</rpm>
</extensions>
</trkpt>
<trkpt lat="30.906171799" lon="34.773345947">
<ele>464.242188</ele>
<time>2013-11-20T13:24:04Z</time>
<speed>2.930000</speed>
<extensions>
<speed>2.9</speed>
<temp>0.00</temp>
<bpm>0</bpm>
<rpm>0.00</rpm>
</extensions>
</trkpt>
<trkpt lat="30.906253815" lon="34.773494720">
<ele>465.562500</ele>
<time>2013-11-20T13:24:09Z</time>
<speed>3.490000</speed>
<extensions>
<speed>3.5</speed>
<temp>0.00</temp>
<bpm>0</bpm>
<rpm>0.00</rpm>
</extensions>
</trkpt>
<trkpt lat="30.906364441" lon="34.773632050">
<ele>464.890625</ele>
<time>2013-11-20T13:24:14Z</time>
<speed>3.670000</speed>
<extensions>
<speed>3.7</speed>
<temp>0.00</temp>
<bpm>0</bpm>
<rpm>0.00</rpm>
</extensions>
</trkpt>
<trkpt lat="30.906461716" lon="34.773746490">
<ele>464.476563</ele>
<time>2013-11-20T13:24:19Z</time>
<speed>3.310000</speed>
<extensions>
<speed>3.3</speed>
<temp>0.00</temp>
<bpm>0</bpm>
<rpm>0.00</rpm>
</extensions>
</trkpt>
<trkpt lat="30.906579971" lon="34.773876190">
<ele>464.640625</ele>
<time>2013-11-20T13:24:24Z</time>
<speed>3.820000</speed>
<extensions>
<speed>3.8</speed>
<temp>0.00</temp>
<bpm>0</bpm>
<rpm>0.00</rpm>
</extensions>
</trkpt>
<trkpt lat="30.906696320" lon="34.774009705">
<ele>464.726563</ele>
<time>2013-11-20T13:24:29Z</time>
<speed>3.430000</speed>
<extensions>
<speed>3.4</speed>
<temp>0.00</temp>
<bpm>0</bpm>
<rpm>0.00</rpm>
</extensions>
</trkpt>
<trkpt lat="30.906780243" lon="34.774177551">
<ele>465.007813</ele>
<time>2013-11-20T13:24:34Z</time>
<speed>3.610000</speed>
<extensions>
<speed>3.6</speed>
<temp>0.00</temp>
<bpm>0</bpm>
<rpm>0.00</rpm>
</extensions>
</trkpt>
<trkpt lat="30.906826019" lon="34.774353027">
<ele>465.718750</ele>
<time>2013-11-20T13:24:39Z</time>
<speed>3.650000</speed>
<extensions>
<speed>3.7</speed>
<temp>0.00</temp>
<bpm>0</bpm>
<rpm>0.00</rpm>
</extensions>
</trkpt>
<trkpt lat="30.906902313" lon="34.774536133">
<ele>466.085938</ele>
<time>2013-11-20T13:24:44Z</time>
<speed>4.000000</speed>
<extensions>
<speed>4.0</speed>
<temp>0.00</temp>
<bpm>0</bpm>
<rpm>0.00</rpm>
</extensions>
</trkpt>
<trkpt lat="30.906988144" lon="34.774719238">
<ele>466.351563</ele>
<time>2013-11-20T13:24:49Z</time>
<speed>3.770000</speed>
<extensions>
<speed>3.8</speed>
<temp>0.00</temp>
<bpm>0</bpm>
<rpm>0.00</rpm>
</extensions>
</trkpt>
<trkpt lat="30.907079697" lon="34.774898529">
<ele>466.070313</ele>
<time>2013-11-20T13:24:54Z</time>
<speed>4.060000</speed>
<extensions>
<speed>4.1</speed>
<temp>0.00</temp>
<bpm>0</bpm>
<rpm>0.00</rpm>
</extensions>
</trkpt>
<trkpt lat="30.907205582" lon="34.775058746">
<ele>465.976563</ele>
<time>2013-11-20T13:24:59Z</time>
<speed>4.370000</speed>
<extensions>
<speed>4.4</speed>
<temp>0.00</temp>
<bpm>0</bpm>
<rpm>0.00</rpm>
</extensions>
</trkpt>
<trkpt lat="30.907316208" lon="34.775249481">
<ele>466.453125</ele>
<time>2013-11-20T13:25:04Z</time>
<speed>4.300000</speed>
<extensions>
<speed>4.3</speed>
<temp>0.00</temp>
<bpm>0</bpm>
<rpm>0.00</rpm>
</extensions>
</trkpt>
<trkpt lat="30.907403946" lon="34.775451660">
<ele>465.781250</ele>
<time>2013-11-20T13:25:09Z</time>
<speed>4.320000</speed>
<extensions>
<speed>4.3</speed>
<temp>0.00</temp>
<bpm>0</bpm>
<rpm>0.00</rpm>
</extensions>
</trkpt>
<trkpt lat="30.907459259" lon="34.775672913">
<ele>465.523438</ele>
<time>2013-11-20T13:25:14Z</time>
<speed>4.030000</speed>
<extensions>
<speed>4.0</speed>
<temp>0.00</temp>
<bpm>0</bpm>
<rpm>0.00</rpm>
</extensions>
</trkpt>
<trkpt lat="30.907466888" lon="34.775863647">
<ele>466.484375</ele>
<time>2013-11-20T13:25:19Z</time>
<speed>2.950000</speed>
<extensions>
<speed>2.9</speed>
<temp>0.00</temp>
<bpm>0</bpm>
<rpm>0.00</rpm>
</extensions>
</trkpt>
<trkpt lat="30.907470703" lon="34.776023865">
<ele>469.234375</ele>
<time>2013-11-20T13:25:24Z</time>
<speed>3.500000</speed>
<extensions>
<speed>3.5</speed>
<temp>0.00</temp>
<bpm>0</bpm>
<rpm>0.00</rpm>
</extensions>
</trkpt>
<trkpt lat="30.907558441" lon="34.776210785">
<ele>467.585938</ele>
<time>2013-11-20T13:25:29Z</time>
<speed>4.570000</speed>
<extensions>
<speed>4.6</speed>
<temp>0.00</temp>
<bpm>0</bpm>
<rpm>0.00</rpm>
</extensions>
</trkpt>
<trkpt lat="30.907672882" lon="34.776393890">
<ele>466.781250</ele>
<time>2013-11-20T13:25:34Z</time>
<speed>3.920000</speed>
<extensions>
<speed>3.9</speed>
<temp>0.00</temp>
<bpm>0</bpm>
<rpm>0.00</rpm>
</extensions>
</trkpt>
<trkpt lat="30.907783508" lon="34.776538849">
<ele>466.726563</ele>
<time>2013-11-20T13:25:39Z</time>
<speed>4.390000</speed>
<extensions>
<speed>4.4</speed>
<temp>0.00</temp>
<bpm>0</bpm>
<rpm>0.00</rpm>
</extensions>
</trkpt>
<trkpt lat="30.907926559" lon="34.776737213">
<ele>465.914063</ele>
<time>2013-11-20T13:25:44Z</time>
<speed>5.240000</speed>
<extensions>
<speed>5.2</speed>
<temp>0.00</temp>
<bpm>0</bpm>
<rpm>0.00</rpm>
</extensions>
</trkpt>
<trkpt lat="30.908061981" lon="34.776927948">
<ele>466.000000</ele>
<time>2013-11-20T13:25:49Z</time>
<speed>4.140000</speed>
<extensions>
<speed>4.1</speed>
<temp>0.00</temp>
<bpm>0</bpm>
<rpm>0.00</rpm>
</extensions>
</trkpt>
<trkpt lat="30.908191681" lon="34.777111053">
<ele>465.289063</ele>
<time>2013-11-20T13:25:54Z</time>
<speed>4.890000</speed>
<extensions>
<speed>4.9</speed>
<temp>0.00</temp>
<bpm>0</bpm>
<rpm>0.00</rpm>
</extensions>
</trkpt>
<trkpt lat="30.908340454" lon="34.777336121">
<ele>464.140625</ele>
<time>2013-11-20T13:25:59Z</time>
<speed>5.670000</speed>
<extensions>
<speed>5.7</speed>
<temp>0.00</temp>
<bpm>0</bpm>
<rpm>0.00</rpm>
</extensions>
</trkpt>
<trkpt lat="30.908464432" lon="34.777580261">
<ele>463.351563</ele>
<time>2013-11-20T13:26:04Z</time>
<speed>5.120000</speed>
<extensions>
<speed>5.1</speed>
<temp>0.00</temp>
<bpm>0</bpm>
<rpm>0.00</rpm>
</extensions>
</trkpt>
<trkpt lat="30.908542633" lon="34.777820587">
<ele>462.304688</ele>
<time>2013-11-20T13:26:09Z</time>
<speed>4.200000</speed>
<extensions>
<speed>4.2</speed>
<temp>0.00</temp>
<bpm>0</bpm>
<rpm>0.00</rpm>
</extensions>
</trkpt>
<trkpt lat="30.908655167" lon="34.777992249">
<ele>462.312500</ele>
<time>2013-11-20T13:26:14Z</time>
<speed>4.520000</speed>
<extensions>
<speed>4.5</speed>
<temp>0.00</temp>
<bpm>0</bpm>
<rpm>0.00</rpm>
</extensions>
</trkpt>
<trkpt lat="30.908815384" lon="34.778102875">
<ele>462.835938</ele>
<time>2013-11-20T13:26:19Z</time>
<speed>3.970000</speed>
<extensions>
<speed>4.0</speed>
<temp>0.00</temp>
<bpm>0</bpm>
<rpm>0.00</rpm>
</extensions>
</trkpt>
<trkpt lat="30.908893585" lon="34.778236389">
<ele>463.328125</ele>
<time>2013-11-20T13:26:24Z</time>
<speed>2.680000</speed>
<extensions>
<speed>2.7</speed>
<temp>0.00</temp>
<bpm>0</bpm>
<rpm>0.00</rpm>
</extensions>
</trkpt>
<trkpt lat="30.908916473" lon="34.778354645">
<ele>462.460938</ele>
<time>2013-11-20T13:26:29Z</time>
<speed>2.490000</speed>
<extensions>
<speed>2.5</speed>
<temp>0.00</temp>
<bpm>0</bpm>
<rpm>0.00</rpm>
</extensions>
</trkpt>
<trkpt lat="30.908878326" lon="34.778457642">
<ele>464.406250</ele>
<time>2013-11-20T13:26:34Z</time>
<speed>2.500000</speed>
<extensions>
<speed>2.5</speed>
<temp>0.00</temp>
<bpm>0</bpm>
<rpm>0.00</rpm>
</extensions>
</trkpt>
<trkpt lat="30.908823013" lon="34.778594971">
<ele>466.054688</ele>
<time>2013-11-20T13:26:39Z</time>
<speed>3.180000</speed>
<extensions>
<speed>3.2</speed>
<temp>0.00</temp>
<bpm>0</bpm>
<rpm>0.00</rpm>
</extensions>
</trkpt>
<trkpt lat="30.908836365" lon="34.778759003">
<ele>468.226563</ele>
<time>2013-11-20T13:26:44Z</time>
<speed>3.710000</speed>
<extensions>
<speed>3.7</speed>
<temp>0.00</temp>
<bpm>0</bpm>
<rpm>0.00</rpm>
</extensions>
</trkpt>
<trkpt lat="30.908750534" lon="34.778907776">
<ele>468.710938</ele>
<time>2013-11-20T13:26:49Z</time>
<speed>3.540000</speed>
<extensions>
<speed>3.5</speed>
<temp>0.00</temp>
<bpm>0</bpm>
<rpm>0.00</rpm>
</extensions>
</trkpt>
<trkpt lat="30.908679962" lon="34.779048920">
<ele>470.093750</ele>
<time>2013-11-20T13:26:54Z</time>
<speed>3.320000</speed>
<extensions>
<speed>3.3</speed>
<temp>0.00</temp>
<bpm>0</bpm>
<rpm>0.00</rpm>
</extensions>
</trkpt>
<trkpt lat="30.908603668" lon="34.779193878">
<ele>470.632813</ele>
<time>2013-11-20T13:26:59Z</time>
<speed>3.390000</speed>
<extensions>
<speed>3.4</speed>
<temp>0.00</temp>
<bpm>0</bpm>
<rpm>0.00</rpm>
</extensions>
</trkpt>
<trkpt lat="30.908527374" lon="34.779315948">
<ele>471.742188</ele>
<time>2013-11-20T13:27:04Z</time>
<speed>2.750000</speed>
<extensions>
<speed>2.7</speed>
<temp>0.00</temp>
<bpm>0</bpm>
<rpm>0.00</rpm>
</extensions>
</trkpt>
<trkpt lat="30.908462524" lon="34.779422760">
<ele>472.664063</ele>
<time>2013-11-20T13:27:09Z</time>
<speed>3.170000</speed>
<extensions>
<speed>3.2</speed>
<temp>0.00</temp>
<bpm>0</bpm>
<rpm>0.00</rpm>
</extensions>
</trkpt>
<trkpt lat="30.908407211" lon="34.779598236">
<ele>472.882813</ele>
<time>2013-11-20T13:27:14Z</time>
<speed>3.580000</speed>
<extensions>
<speed>3.6</speed>
<temp>0.00</temp>
<bpm>0</bpm>
<rpm>0.00</rpm>
</extensions>
</trkpt>
<trkpt lat="30.908403397" lon="34.779788971">
<ele>471.765625</ele>
<time>2013-11-20T13:27:19Z</time>
<speed>3.440000</speed>
<extensions>
<speed>3.4</speed>
<temp>0.00</temp>
<bpm>0</bpm>
<rpm>0.00</rpm>
</extensions>
</trkpt>
<trkpt lat="30.908391953" lon="34.780078888">
<ele>467.929688</ele>
<time>2013-11-20T13:27:24Z</time>
<speed>6.940000</speed>
<extensions>
<speed>6.9</speed>
<temp>0.00</temp>
<bpm>0</bpm>
<rpm>0.00</rpm>
</extensions>
</trkpt>
<trkpt lat="30.908393860" lon="34.780426025">
<ele>467.742188</ele>
<time>2013-11-20T13:27:29Z</time>
<speed>6.270000</speed>
<extensions>
<speed>6.3</speed>
<temp>0.00</temp>
<bpm>0</bpm>
<rpm>0.00</rpm>
</extensions>
</trkpt>
<trkpt lat="30.908451080" lon="34.780708313">
<ele>466.648438</ele>
<time>2013-11-20T13:27:34Z</time>
<speed>4.140000</speed>
<extensions>
<speed>4.1</speed>
<temp>0.00</temp>
<bpm>0</bpm>
<rpm>0.00</rpm>
</extensions>
</trkpt>
<trkpt lat="30.908416748" lon="34.780899048">
<ele>467.289063</ele>
<time>2013-11-20T13:27:39Z</time>
<speed>3.870000</speed>
<extensions>
<speed>3.9</speed>
<temp>0.00</temp>
<bpm>0</bpm>
<rpm>0.00</rpm>
</extensions>
</trkpt>
<trkpt lat="30.908359528" lon="34.781085968">
<ele>469.031250</ele>
<time>2013-11-20T13:27:44Z</time>
<speed>3.220000</speed>
<extensions>
<speed>3.2</speed>
<temp>0.00</temp>
<bpm>0</bpm>
<rpm>0.00</rpm>
</extensions>
</trkpt>
<trkpt lat="30.908216476" lon="34.781169891">
<ele>466.687500</ele>
<time>2013-11-20T13:27:49Z</time>
<speed>3.770000</speed>
<extensions>
<speed>3.8</speed>
<temp>0.00</temp>
<bpm>0</bpm>
<rpm>0.00</rpm>
</extensions>
</trkpt>
<trkpt lat="30.908067703" lon="34.781261444">
<ele>467.375000</ele>
<time>2013-11-20T13:27:54Z</time>
<speed>3.940000</speed>
<extensions>
<speed>3.9</speed>
<temp>0.00</temp>
<bpm>0</bpm>
<rpm>0.00</rpm>
</extensions>
</trkpt>
<trkpt lat="30.907947540" lon="34.781364441">
<ele>466.765625</ele>
<time>2013-11-20T13:27:59Z</time>
<speed>3.470000</speed>
<extensions>
<speed>3.5</speed>
<temp>0.00</temp>
<bpm>0</bpm>
<rpm>0.00</rpm>
</extensions>
</trkpt>
<trkpt lat="30.907793045" lon="34.781452179">
<ele>466.343750</ele>
<time>2013-11-20T13:28:04Z</time>
<speed>3.840000</speed>
<extensions>
<speed>3.8</speed>
<temp>0.00</temp>
<bpm>0</bpm>
<rpm>0.00</rpm>
</extensions>
</trkpt>
<trkpt lat="30.907613754" lon="34.781528473">
<ele>464.320313</ele>
<time>2013-11-20T13:28:09Z</time>
<speed>4.450000</speed>
<extensions>
<speed>4.5</speed>
<temp>0.00</temp>
<bpm>0</bpm>
<rpm>0.00</rpm>
</extensions>
</trkpt>
<trkpt lat="30.907432556" lon="34.781623840">
<ele>463.960938</ele>
<time>2013-11-20T13:28:14Z</time>
<speed>4.480000</speed>
<extensions>
<speed>4.5</speed>
<temp>0.00</temp>
<bpm>0</bpm>
<rpm>0.00</rpm>
</extensions>
</trkpt>
<trkpt lat="30.907268524" lon="34.781715393">
<ele>464.703125</ele>
<time>2013-11-20T13:28:19Z</time>
<speed>4.270000</speed>
<extensions>
<speed>4.3</speed>
<temp>0.00</temp>
<bpm>0</bpm>
<rpm>0.00</rpm>
</extensions>
</trkpt>
<trkpt lat="30.907094955" lon="34.781818390">
<ele>465.804688</ele>
<time>2013-11-20T13:28:24Z</time>
<speed>4.250000</speed>
<extensions>
<speed>4.3</speed>
<temp>0.00</temp>
<bpm>0</bpm>
<rpm>0.00</rpm>
</extensions>
</trkpt>
<trkpt lat="30.906927109" lon="34.781906128">
<ele>466.390625</ele>
<time>2013-11-20T13:28:29Z</time>
<speed>3.550000</speed>
<extensions>
<speed>3.5</speed>
<temp>0.00</temp>
<bpm>0</bpm>
<rpm>0.00</rpm>
</extensions>
</trkpt>
<trkpt lat="30.906757355" lon="34.781990051">
<ele>467.984375</ele>
<time>2013-11-20T13:28:34Z</time>
<speed>4.240000</speed>
<extensions>
<speed>4.2</speed>
<temp>0.00</temp>
<bpm>0</bpm>
<rpm>0.00</rpm>
</extensions>
</trkpt>
<trkpt lat="30.906576157" lon="34.782104492">
<ele>468.601563</ele>
<time>2013-11-20T13:28:39Z</time>
<speed>4.640000</speed>
<extensions>
<speed>4.6</speed>
<temp>0.00</temp>
<bpm>0</bpm>
<rpm>0.00</rpm>
</extensions>
</trkpt>
<trkpt lat="30.906419754" lon="34.782199860">
<ele>469.328125</ele>
<time>2013-11-20T13:28:44Z</time>
<speed>3.470000</speed>
<extensions>
<speed>3.5</speed>
<temp>0.00</temp>
<bpm>0</bpm>
<rpm>0.00</rpm>
</extensions>
</trkpt>
<trkpt lat="30.906272888" lon="34.782291412">
<ele>467.007813</ele>
<time>2013-11-20T13:28:49Z</time>
<speed>4.130000</speed>
<extensions>
<speed>4.1</speed>
<temp>0.00</temp>
<bpm>0</bpm>
<rpm>0.00</rpm>
</extensions>
</trkpt>
<trkpt lat="30.906118393" lon="34.782409668">
<ele>467.109375</ele>
<time>2013-11-20T13:28:54Z</time>
<speed>3.510000</speed>
<extensions>
<speed>3.5</speed>
<temp>0.00</temp>
<bpm>0</bpm>
<rpm>0.00</rpm>
</extensions>
</trkpt>
<trkpt lat="30.905958176" lon="34.782501221">
<ele>467.351563</ele>
<time>2013-11-20T13:28:59Z</time>
<speed>4.370000</speed>
<extensions>
<speed>4.4</speed>
<temp>0.00</temp>
<bpm>0</bpm>
<rpm>0.00</rpm>
</extensions>
</trkpt>
<trkpt lat="30.905794144" lon="34.782596588">
<ele>467.679688</ele>
<time>2013-11-20T13:29:04Z</time>
<speed>3.980000</speed>
<extensions>
<speed>4.0</speed>
<temp>0.00</temp>
<bpm>0</bpm>
<rpm>0.00</rpm>
</extensions>
</trkpt>
<trkpt lat="30.905635834" lon="34.782707214">
<ele>467.062500</ele>
<time>2013-11-20T13:29:09Z</time>
<speed>3.950000</speed>
<extensions>
<speed>4.0</speed>
<temp>0.00</temp>
<bpm>0</bpm>
<rpm>0.00</rpm>
</extensions>
</trkpt>
<trkpt lat="30.905500412" lon="34.782794952">
<ele>466.304688</ele>
<time>2013-11-20T13:29:14Z</time>
<speed>3.350000</speed>
<extensions>
<speed>3.4</speed>
<temp>0.00</temp>
<bpm>0</bpm>
<rpm>0.00</rpm>
</extensions>
</trkpt>
<trkpt lat="30.905380249" lon="34.782867432">
<ele>466.882813</ele>
<time>2013-11-20T13:29:19Z</time>
<speed>2.770000</speed>
<extensions>
<speed>2.8</speed>
<temp>0.00</temp>
<bpm>0</bpm>
<rpm>0.00</rpm>
</extensions>
</trkpt>
<trkpt lat="30.905260086" lon="34.782917023">
<ele>466.765625</ele>
<time>2013-11-20T13:29:24Z</time>
<speed>2.710000</speed>
<extensions>
<speed>2.7</speed>
<temp>0.00</temp>
<bpm>0</bpm>
<rpm>0.00</rpm>
</extensions>
</trkpt>
<trkpt lat="30.905199051" lon="34.783042908">
<ele>464.875000</ele>
<time>2013-11-20T13:29:29Z</time>
<speed>3.430000</speed>
<extensions>
<speed>3.4</speed>
<temp>0.00</temp>
<bpm>0</bpm>
<rpm>0.00</rpm>
</extensions>
</trkpt>
<trkpt lat="30.905239105" lon="34.783184052">
<ele>467.796875</ele>
<time>2013-11-20T13:29:34Z</time>
<speed>2.870000</speed>
<extensions>
<speed>2.9</speed>
<temp>0.00</temp>
<bpm>0</bpm>
<rpm>0.00</rpm>
</extensions>
</trkpt>
<trkpt lat="30.905256271" lon="34.783340454">
<ele>469.367188</ele>
<time>2013-11-20T13:29:39Z</time>
<speed>3.120000</speed>
<extensions>
<speed>3.1</speed>
<temp>0.00</temp>
<bpm>0</bpm>
<rpm>0.00</rpm>
</extensions>
</trkpt>
<trkpt lat="30.905176163" lon="34.783477783">
<ele>470.281250</ele>
<time>2013-11-20T13:29:44Z</time>
<speed>2.820000</speed>
<extensions>
<speed>2.8</speed>
<temp>0.00</temp>
<bpm>0</bpm>
<rpm>0.00</rpm>
</extensions>
</trkpt>
<trkpt lat="30.905084610" lon="34.783607483">
<ele>469.343750</ele>
<time>2013-11-20T13:29:49Z</time>
<speed>3.990000</speed>
<extensions>
<speed>4.0</speed>
<temp>0.00</temp>
<bpm>0</bpm>
<rpm>0.00</rpm>
</extensions>
</trkpt>
<trkpt lat="30.904945374" lon="34.783714294">
<ele>468.851563</ele>
<time>2013-11-20T13:29:54Z</time>
<speed>3.890000</speed>
<extensions>
<speed>3.9</speed>
<temp>0.00</temp>
<bpm>0</bpm>
<rpm>0.00</rpm>
</extensions>
</trkpt>
<trkpt lat="30.904811859" lon="34.783798218">
<ele>470.007813</ele>
<time>2013-11-20T13:29:59Z</time>
<speed>3.320000</speed>
<extensions>
<speed>3.3</speed>
<temp>0.00</temp>
<bpm>0</bpm>
<rpm>0.00</rpm>
</extensions>
</trkpt>
<trkpt lat="30.904779434" lon="34.783958435">
<ele>472.234375</ele>
<time>2013-11-20T13:30:04Z</time>
<speed>3.880000</speed>
<extensions>
<speed>3.9</speed>
<temp>0.00</temp>
<bpm>0</bpm>
<rpm>0.00</rpm>
</extensions>
</trkpt>
<trkpt lat="30.904745102" lon="34.784168243">
<ele>472.531250</ele>
<time>2013-11-20T13:30:09Z</time>
<speed>4.430000</speed>
<extensions>
<speed>4.4</speed>
<temp>0.00</temp>
<bpm>0</bpm>
<rpm>0.00</rpm>
</extensions>
</trkpt>
<trkpt lat="30.904668808" lon="34.784324646">
<ele>473.984375</ele>
<time>2013-11-20T13:30:13Z</time>
<speed>3.150000</speed>
<extensions>
<speed>3.2</speed>
<temp>0.00</temp>
<bpm>0</bpm>
<rpm>0.00</rpm>
</extensions>
</trkpt>
<trkpt lat="30.904615402" lon="34.784473419">
<ele>474.273438</ele>
<time>2013-11-20T13:30:19Z</time>
<speed>3.540000</speed>
<extensions>
<speed>3.5</speed>
<temp>0.00</temp>
<bpm>0</bpm>
<rpm>0.00</rpm>
</extensions>
</trkpt>
<trkpt lat="30.904558182" lon="34.784671783">
<ele>474.265625</ele>
<time>2013-11-20T13:30:24Z</time>
<speed>4.050000</speed>
<extensions>
<speed>4.0</speed>
<temp>0.00</temp>
<bpm>0</bpm>
<rpm>0.00</rpm>
</extensions>
</trkpt>
<trkpt lat="30.904487610" lon="34.784858704">
<ele>473.601563</ele>
<time>2013-11-20T13:30:29Z</time>
<speed>3.180000</speed>
<extensions>
<speed>3.2</speed>
<temp>0.00</temp>
<bpm>0</bpm>
<rpm>0.00</rpm>
</extensions>
</trkpt>
<trkpt lat="30.904432297" lon="34.784915924">
<ele>471.578125</ele>
<time>2013-11-20T13:30:34Z</time>
<speed>0.100000</speed>
<extensions>
<speed>0.1</speed>
<temp>0.00</temp>
<bpm>0</bpm>
<rpm>0.00</rpm>
</extensions>
</trkpt>
<trkpt lat="30.904443741" lon="34.784904480">
<ele>472.203125</ele>
<time>2013-11-20T13:30:39Z</time>
<speed>0.020000</speed>
<extensions>
<speed>0.0</speed>
<temp>0.00</temp>
<bpm>0</bpm>
<rpm>0.00</rpm>
</extensions>
</trkpt>
<trkpt lat="30.904443741" lon="34.784904480">
<ele>472.046875</ele>
<time>2013-11-20T13:30:44Z</time>
<speed>0.010000</speed>
<extensions>
<speed>0.0</speed>
<temp>0.00</temp>
<bpm>0</bpm>
<rpm>0.00</rpm>
</extensions>
</trkpt>
<trkpt lat="30.904443741" lon="34.784904480">
<ele>472.000000</ele>
<time>2013-11-20T13:30:49Z</time>
<speed>0.010000</speed>
<extensions>
<speed>0.0</speed>
<temp>0.00</temp>
<bpm>0</bpm>
<rpm>0.00</rpm>
</extensions>
</trkpt>
<trkpt lat="30.904443741" lon="34.784904480">
<ele>471.937500</ele>
<time>2013-11-20T13:30:54Z</time>
<speed>0.050000</speed>
<extensions>
<speed>0.1</speed>
<temp>0.00</temp>
<bpm>0</bpm>
<rpm>0.00</rpm>
</extensions>
</trkpt>
<trkpt lat="30.904443741" lon="34.784904480">
<ele>471.851563</ele>
<time>2013-11-20T13:30:59Z</time>
<extensions>
<speed>0.0</speed>
<temp>0.00</temp>
<bpm>0</bpm>
<rpm>0.00</rpm>
</extensions>
</trkpt>
<trkpt lat="30.904443741" lon="34.784904480">
<ele>471.859375</ele>
<time>2013-11-20T13:31:04Z</time>
<extensions>
<speed>0.0</speed>
<temp>0.00</temp>
<bpm>0</bpm>
<rpm>0.00</rpm>
</extensions>
</trkpt>
<trkpt lat="30.904443741" lon="34.784904480">
<ele>471.804688</ele>
<time>2013-11-20T13:31:09Z</time>
<extensions>
<speed>0.0</speed>
<temp>0.00</temp>
<bpm>0</bpm>
<rpm>0.00</rpm>
</extensions>
</trkpt>
<trkpt lat="30.904443741" lon="34.784904480">
<ele>471.781250</ele>
<time>2013-11-20T13:31:14Z</time>
<extensions>
<speed>0.0</speed>
<temp>0.00</temp>
<bpm>0</bpm>
<rpm>0.00</rpm>
</extensions>
</trkpt>
<trkpt lat="30.904443741" lon="34.784904480">
<ele>471.781250</ele>
<time>2013-11-20T13:31:19Z</time>
<extensions>
<speed>0.0</speed>
<temp>0.00</temp>
<bpm>0</bpm>
<rpm>0.00</rpm>
</extensions>
</trkpt>
<trkpt lat="30.904443741" lon="34.784904480">
<ele>471.781250</ele>
<time>2013-11-20T13:31:24Z</time>
<extensions>
<speed>0.0</speed>
<temp>0.00</temp>
<bpm>0</bpm>
<rpm>0.00</rpm>
</extensions>
</trkpt>
<trkpt lat="30.904443741" lon="34.784904480">
<ele>471.781250</ele>
<time>2013-11-20T13:31:29Z</time>
<extensions>
<speed>0.0</speed>
<temp>0.00</temp>
<bpm>0</bpm>
<rpm>0.00</rpm>
</extensions>
</trkpt>
<trkpt lat="30.904443741" lon="34.784904480">
<ele>471.781250</ele>
<time>2013-11-20T13:31:34Z</time>
<extensions>
<speed>0.0</speed>
<temp>0.00</temp>
<bpm>0</bpm>
<rpm>0.00</rpm>
</extensions>
</trkpt>
<trkpt lat="30.904443741" lon="34.784904480">
<ele>471.781250</ele>
<time>2013-11-20T13:31:39Z</time>
<extensions>
<speed>0.0</speed>
<temp>0.00</temp>
<bpm>0</bpm>
<rpm>0.00</rpm>
</extensions>
</trkpt>
<trkpt lat="30.904443741" lon="34.784904480">
<ele>471.789063</ele>
<time>2013-11-20T13:31:44Z</time>
<extensions>
<speed>0.0</speed>
<temp>0.00</temp>
<bpm>0</bpm>
<rpm>0.00</rpm>
</extensions>
</trkpt>
<trkpt lat="30.904443741" lon="34.784904480">
<ele>471.804688</ele>
<time>2013-11-20T13:31:49Z</time>
<extensions>
<speed>0.0</speed>
<temp>0.00</temp>
<bpm>0</bpm>
<rpm>0.00</rpm>
</extensions>
</trkpt>
<trkpt lat="30.904443741" lon="34.784904480">
<ele>471.804688</ele>
<time>2013-11-20T13:31:54Z</time>
<extensions>
<speed>0.0</speed>
<temp>0.00</temp>
<bpm>0</bpm>
<rpm>0.00</rpm>
</extensions>
</trkpt>
<trkpt lat="30.904443741" lon="34.784904480">
<ele>471.804688</ele>
<time>2013-11-20T13:31:59Z</time>
<extensions>
<speed>0.0</speed>
<temp>0.00</temp>
<bpm>0</bpm>
<rpm>0.00</rpm>
</extensions>
</trkpt>
<trkpt lat="30.904443741" lon="34.784904480">
<ele>471.804688</ele>
<time>2013-11-20T13:32:04Z</time>
<extensions>
<speed>0.0</speed>
<temp>0.00</temp>
<bpm>0</bpm>
<rpm>0.00</rpm>
</extensions>
</trkpt>
<trkpt lat="30.904443741" lon="34.784904480">
<ele>471.804688</ele>
<time>2013-11-20T13:32:09Z</time>
<extensions>
<speed>0.0</speed>
<temp>0.00</temp>
<bpm>0</bpm>
<rpm>0.00</rpm>
</extensions>
</trkpt>
<trkpt lat="30.904443741" lon="34.784904480">
<ele>471.804688</ele>
<time>2013-11-20T13:32:14Z</time>
<extensions>
<speed>0.0</speed>
<temp>0.00</temp>
<bpm>0</bpm>
<rpm>0.00</rpm>
</extensions>
</trkpt>
<trkpt lat="30.904443741" lon="34.784904480">
<ele>471.804688</ele>
<time>2013-11-20T13:32:19Z</time>
<extensions>
<speed>0.0</speed>
<temp>0.00</temp>
<bpm>0</bpm>
<rpm>0.00</rpm>
</extensions>
</trkpt>
<trkpt lat="30.904443741" lon="34.784904480">
<ele>471.820313</ele>
<time>2013-11-20T13:32:24Z</time>
<extensions>
<speed>0.0</speed>
<temp>0.00</temp>
<bpm>0</bpm>
<rpm>0.00</rpm>
</extensions>
</trkpt>
<trkpt lat="30.904443741" lon="34.784904480">
<ele>471.835938</ele>
<time>2013-11-20T13:32:29Z</time>
<extensions>
<speed>0.0</speed>
<temp>0.00</temp>
<bpm>0</bpm>
<rpm>0.00</rpm>
</extensions>
</trkpt>
<trkpt lat="30.904443741" lon="34.784904480">
<ele>471.851563</ele>
<time>2013-11-20T13:32:34Z</time>
<extensions>
<speed>0.0</speed>
<temp>0.00</temp>
<bpm>0</bpm>
<rpm>0.00</rpm>
</extensions>
</trkpt>
<trkpt lat="30.904443741" lon="34.784904480">
<ele>471.851563</ele>
<time>2013-11-20T13:32:39Z</time>
<extensions>
<speed>0.0</speed>
<temp>0.00</temp>
<bpm>0</bpm>
<rpm>0.00</rpm>
</extensions>
</trkpt>
<trkpt lat="30.904443741" lon="34.784904480">
<ele>471.843750</ele>
<time>2013-11-20T13:32:44Z</time>
<extensions>
<speed>0.0</speed>
<temp>0.00</temp>
<bpm>0</bpm>
<rpm>0.00</rpm>
</extensions>
</trkpt>
<trkpt lat="30.904443741" lon="34.784904480">
<ele>471.843750</ele>
<time>2013-11-20T13:32:49Z</time>
<speed>0.010000</speed>
<extensions>
<speed>0.0</speed>
<temp>0.00</temp>
<bpm>0</bpm>
<rpm>0.00</rpm>
</extensions>
</trkpt>
<trkpt lat="30.904443741" lon="34.784904480">
<ele>471.843750</ele>
<time>2013-11-20T13:32:54Z</time>
<extensions>
<speed>0.0</speed>
<temp>0.00</temp>
<bpm>0</bpm>
<rpm>0.00</rpm>
</extensions>
</trkpt>
<trkpt lat="30.904443741" lon="34.784904480">
<ele>471.843750</ele>
<time>2013-11-20T13:32:59Z</time>
<extensions>
<speed>0.0</speed>
<temp>0.00</temp>
<bpm>0</bpm>
<rpm>0.00</rpm>
</extensions>
</trkpt>
<trkpt lat="30.904443741" lon="34.784904480">
<ele>471.843750</ele>
<time>2013-11-20T13:33:04Z</time>
<extensions>
<speed>0.0</speed>
<temp>0.00</temp>
<bpm>0</bpm>
<rpm>0.00</rpm>
</extensions>
</trkpt>
<trkpt lat="30.904443741" lon="34.784904480">
<ele>471.828125</ele>
<time>2013-11-20T13:33:09Z</time>
<extensions>
<speed>0.0</speed>
<temp>0.00</temp>
<bpm>0</bpm>
<rpm>0.00</rpm>
</extensions>
</trkpt>
<trkpt lat="30.904443741" lon="34.784904480">
<ele>471.820313</ele>
<time>2013-11-20T13:33:14Z</time>
<extensions>
<speed>0.0</speed>
<temp>0.00</temp>
<bpm>0</bpm>
<rpm>0.00</rpm>
</extensions>
</trkpt>
<trkpt lat="30.904443741" lon="34.784904480">
<ele>471.812500</ele>
<time>2013-11-20T13:33:19Z</time>
<extensions>
<speed>0.0</speed>
<temp>0.00</temp>
<bpm>0</bpm>
<rpm>0.00</rpm>
</extensions>
</trkpt>
<trkpt lat="30.904443741" lon="34.784904480">
<ele>471.812500</ele>
<time>2013-11-20T13:33:24Z</time>
<extensions>
<speed>0.0</speed>
<temp>0.00</temp>
<bpm>0</bpm>
<rpm>0.00</rpm>
</extensions>
</trkpt>
<trkpt lat="30.904443741" lon="34.784904480">
<ele>471.820313</ele>
<time>2013-11-20T13:33:29Z</time>
<extensions>
<speed>0.0</speed>
<temp>0.00</temp>
<bpm>0</bpm>
<rpm>0.00</rpm>
</extensions>
</trkpt>
<trkpt lat="30.904443741" lon="34.784904480">
<ele>471.812500</ele>
<time>2013-11-20T13:33:34Z</time>
<extensions>
<speed>0.0</speed>
<temp>0.00</temp>
<bpm>0</bpm>
<rpm>0.00</rpm>
</extensions>
</trkpt>
<trkpt lat="30.904443741" lon="34.784904480">
<ele>471.812500</ele>
<time>2013-11-20T13:33:39Z</time>
<extensions>
<speed>0.0</speed>
<temp>0.00</temp>
<bpm>0</bpm>
<rpm>0.00</rpm>
</extensions>
</trkpt>
<trkpt lat="30.904443741" lon="34.784904480">
<ele>471.804688</ele>
<time>2013-11-20T13:33:44Z</time>
<extensions>
<speed>0.0</speed>
<temp>0.00</temp>
<bpm>0</bpm>
<rpm>0.00</rpm>
</extensions>
</trkpt>
<trkpt lat="30.904443741" lon="34.784904480">
<ele>471.796875</ele>
<time>2013-11-20T13:33:49Z</time>
<extensions>
<speed>0.0</speed>
<temp>0.00</temp>
<bpm>0</bpm>
<rpm>0.00</rpm>
</extensions>
</trkpt>
<trkpt lat="30.904443741" lon="34.784904480">
<ele>471.789063</ele>
<time>2013-11-20T13:33:54Z</time>
<extensions>
<speed>0.0</speed>
<temp>0.00</temp>
<bpm>0</bpm>
<rpm>0.00</rpm>
</extensions>
</trkpt>
<trkpt lat="30.904443741" lon="34.784904480">
<ele>471.789063</ele>
<time>2013-11-20T13:33:59Z</time>
<extensions>
<speed>0.0</speed>
<temp>0.00</temp>
<bpm>0</bpm>
<rpm>0.00</rpm>
</extensions>
</trkpt>
<trkpt lat="30.904443741" lon="34.784904480">
<ele>471.789063</ele>
<time>2013-11-20T13:34:04Z</time>
<extensions>
<speed>0.0</speed>
<temp>0.00</temp>
<bpm>0</bpm>
<rpm>0.00</rpm>
</extensions>
</trkpt>
<trkpt lat="30.904443741" lon="34.784904480">
<ele>471.796875</ele>
<time>2013-11-20T13:34:09Z</time>
<extensions>
<speed>0.0</speed>
<temp>0.00</temp>
<bpm>0</bpm>
<rpm>0.00</rpm>
</extensions>
</trkpt>
<trkpt lat="30.904443741" lon="34.784904480">
<ele>471.804688</ele>
<time>2013-11-20T13:34:14Z</time>
<extensions>
<speed>0.0</speed>
<temp>0.00</temp>
<bpm>0</bpm>
<rpm>0.00</rpm>
</extensions>
</trkpt>
<trkpt lat="30.904443741" lon="34.784904480">
<ele>471.820313</ele>
<time>2013-11-20T13:34:19Z</time>
<extensions>
<speed>0.0</speed>
<temp>0.00</temp>
<bpm>0</bpm>
<rpm>0.00</rpm>
</extensions>
</trkpt>
<trkpt lat="30.904443741" lon="34.784904480">
<ele>471.820313</ele>
<time>2013-11-20T13:34:24Z</time>
<extensions>
<speed>0.0</speed>
<temp>0.00</temp>
<bpm>0</bpm>
<rpm>0.00</rpm>
</extensions>
</trkpt>
<trkpt lat="30.904443741" lon="34.784900665">
<ele>471.804688</ele>
<time>2013-11-20T13:34:29Z</time>
<extensions>
<speed>0.0</speed>
<temp>0.00</temp>
<bpm>0</bpm>
<rpm>0.00</rpm>
</extensions>
</trkpt>
<trkpt lat="30.904443741" lon="34.784900665">
<ele>471.804688</ele>
<time>2013-11-20T13:34:34Z</time>
<extensions>
<speed>0.0</speed>
<temp>0.00</temp>
<bpm>0</bpm>
<rpm>0.00</rpm>
</extensions>
</trkpt>
<trkpt lat="30.904443741" lon="34.784900665">
<ele>471.804688</ele>
<time>2013-11-20T13:34:39Z</time>
<extensions>
<speed>0.0</speed>
<temp>0.00</temp>
<bpm>0</bpm>
<rpm>0.00</rpm>
</extensions>
</trkpt>
<trkpt lat="30.904443741" lon="34.784900665">
<ele>471.796875</ele>
<time>2013-11-20T13:34:44Z</time>
<extensions>
<speed>0.0</speed>
<temp>0.00</temp>
<bpm>0</bpm>
<rpm>0.00</rpm>
</extensions>
</trkpt>
<trkpt lat="30.904443741" lon="34.784900665">
<ele>471.781250</ele>
<time>2013-11-20T13:34:49Z</time>
<extensions>
<speed>0.0</speed>
<temp>0.00</temp>
<bpm>0</bpm>
<rpm>0.00</rpm>
</extensions>
</trkpt>
<trkpt lat="30.904443741" lon="34.784900665">
<ele>471.773438</ele>
<time>2013-11-20T13:34:54Z</time>
<extensions>
<speed>0.0</speed>
<temp>0.00</temp>
<bpm>0</bpm>
<rpm>0.00</rpm>
</extensions>
</trkpt>
<trkpt lat="30.904443741" lon="34.784900665">
<ele>471.765625</ele>
<time>2013-11-20T13:34:59Z</time>
<speed>0.040000</speed>
<extensions>
<speed>0.0</speed>
<temp>0.00</temp>
<bpm>0</bpm>
<rpm>0.00</rpm>
</extensions>
</trkpt>
<trkpt lat="30.904388428" lon="34.784954071">
<ele>471.750000</ele>
<time>2013-11-20T13:35:04Z</time>
<speed>2.670000</speed>
<extensions>
<speed>2.7</speed>
<temp>0.00</temp>
<bpm>0</bpm>
<rpm>0.00</rpm>
</extensions>
</trkpt>
<trkpt lat="30.904367447" lon="34.785121918">
<ele>471.062500</ele>
<time>2013-11-20T13:35:09Z</time>
<speed>3.040000</speed>
<extensions>
<speed>3.0</speed>
<temp>0.00</temp>
<bpm>0</bpm>
<rpm>0.00</rpm>
</extensions>
</trkpt>
<trkpt lat="30.904460907" lon="34.785274506">
<ele>471.492188</ele>
<time>2013-11-20T13:35:14Z</time>
<speed>3.480000</speed>
<extensions>
<speed>3.5</speed>
<temp>0.00</temp>
<bpm>0</bpm>
<rpm>0.00</rpm>
</extensions>
</trkpt>
<trkpt lat="30.904478073" lon="34.785457611">
<ele>472.437500</ele>
<time>2013-11-20T13:35:19Z</time>
<speed>4.000000</speed>
<extensions>
<speed>4.0</speed>
<temp>0.00</temp>
<bpm>0</bpm>
<rpm>0.00</rpm>
</extensions>
</trkpt>
<trkpt lat="30.904367447" lon="34.785591125">
<ele>474.007813</ele>
<time>2013-11-20T13:35:24Z</time>
<speed>3.710000</speed>
<extensions>
<speed>3.7</speed>
<temp>0.00</temp>
<bpm>0</bpm>
<rpm>0.00</rpm>
</extensions>
</trkpt>
<trkpt lat="30.904232025" lon="34.785705566">
<ele>475.218750</ele>
<time>2013-11-20T13:35:29Z</time>
<speed>4.150000</speed>
<extensions>
<speed>4.1</speed>
<temp>0.00</temp>
<bpm>0</bpm>
<rpm>0.00</rpm>
</extensions>
</trkpt>
<trkpt lat="30.904117584" lon="34.785861969">
<ele>476.851563</ele>
<time>2013-11-20T13:35:34Z</time>
<speed>3.780000</speed>
<extensions>
<speed>3.8</speed>
<temp>0.00</temp>
<bpm>0</bpm>
<rpm>0.00</rpm>
</extensions>
</trkpt>
<trkpt lat="30.904022217" lon="34.786026001">
<ele>477.382813</ele>
<time>2013-11-20T13:35:39Z</time>
<speed>4.150000</speed>
<extensions>
<speed>4.1</speed>
<temp>0.00</temp>
<bpm>0</bpm>
<rpm>0.00</rpm>
</extensions>
</trkpt>
<trkpt lat="30.903860092" lon="34.786109924">
<ele>477.148438</ele>
<time>2013-11-20T13:35:44Z</time>
<speed>3.650000</speed>
<extensions>
<speed>3.7</speed>
<temp>0.00</temp>
<bpm>0</bpm>
<rpm>0.00</rpm>
</extensions>
</trkpt>
<trkpt lat="30.903713226" lon="34.786148071">
<ele>477.023438</ele>
<time>2013-11-20T13:35:49Z</time>
<speed>3.300000</speed>
<extensions>
<speed>3.3</speed>
<temp>0.00</temp>
<bpm>0</bpm>
<rpm>0.00</rpm>
</extensions>
</trkpt>
<trkpt lat="30.903598785" lon="34.786258698">
<ele>478.531250</ele>
<time>2013-11-20T13:35:54Z</time>
<speed>3.000000</speed>
<extensions>
<speed>3.0</speed>
<temp>0.00</temp>
<bpm>0</bpm>
<rpm>0.00</rpm>
</extensions>
</trkpt>
<trkpt lat="30.903530121" lon="34.786396027">
<ele>478.898438</ele>
<time>2013-11-20T13:35:59Z</time>
<speed>3.100000</speed>
<extensions>
<speed>3.1</speed>
<temp>0.00</temp>
<bpm>0</bpm>
<rpm>0.00</rpm>
</extensions>
</trkpt>
<trkpt lat="30.903556824" lon="34.786590576">
<ele>475.695313</ele>
<time>2013-11-20T13:36:04Z</time>
<speed>4.240000</speed>
<extensions>
<speed>4.2</speed>
<temp>0.00</temp>
<bpm>0</bpm>
<rpm>0.00</rpm>
</extensions>
</trkpt>
<trkpt lat="30.903621674" lon="34.786830902">
<ele>476.203125</ele>
<time>2013-11-20T13:36:09Z</time>
<speed>4.810000</speed>
<extensions>
<speed>4.8</speed>
<temp>0.00</temp>
<bpm>0</bpm>
<rpm>0.00</rpm>
</extensions>
</trkpt>
<trkpt lat="30.903696060" lon="34.787090302">
<ele>475.835938</ele>
<time>2013-11-20T13:36:14Z</time>
<speed>4.850000</speed>
<extensions>
<speed>4.8</speed>
<temp>0.00</temp>
<bpm>0</bpm>
<rpm>0.00</rpm>
</extensions>
</trkpt>
<trkpt lat="30.903760910" lon="34.787326813">
<ele>475.890625</ele>
<time>2013-11-20T13:36:19Z</time>
<speed>4.680000</speed>
<extensions>
<speed>4.7</speed>
<temp>0.00</temp>
<bpm>0</bpm>
<rpm>0.00</rpm>
</extensions>
</trkpt>
<trkpt lat="30.903823853" lon="34.787567139">
<ele>476.015625</ele>
<time>2013-11-20T13:36:24Z</time>
<speed>4.630000</speed>
<extensions>
<speed>4.6</speed>
<temp>0.00</temp>
<bpm>0</bpm>
<rpm>0.00</rpm>
</extensions>
</trkpt>
<trkpt lat="30.903854370" lon="34.787818909">
<ele>476.914063</ele>
<time>2013-11-20T13:36:29Z</time>
<speed>4.950000</speed>
<extensions>
<speed>4.9</speed>
<temp>0.00</temp>
<bpm>0</bpm>
<rpm>0.00</rpm>
</extensions>
</trkpt>
<trkpt lat="30.903873444" lon="34.788082123">
<ele>477.414063</ele>
<time>2013-11-20T13:36:34Z</time>
<speed>4.290000</speed>
<extensions>
<speed>4.3</speed>
<temp>0.00</temp>
<bpm>0</bpm>
<rpm>0.00</rpm>
</extensions>
</trkpt>
<trkpt lat="30.903884888" lon="34.788272858">
<ele>477.875000</ele>
<time>2013-11-20T13:36:39Z</time>
<speed>3.510000</speed>
<extensions>
<speed>3.5</speed>
<temp>0.00</temp>
<bpm>0</bpm>
<rpm>0.00</rpm>
</extensions>
</trkpt>
<trkpt lat="30.903858185" lon="34.788475037">
<ele>478.734375</ele>
<time>2013-11-20T13:36:44Z</time>
<speed>3.540000</speed>
<extensions>
<speed>3.5</speed>
<temp>0.00</temp>
<bpm>0</bpm>
<rpm>0.00</rpm>
</extensions>
</trkpt>
<trkpt lat="30.903821945" lon="34.788673401">
<ele>479.320313</ele>
<time>2013-11-20T13:36:49Z</time>
<speed>4.220000</speed>
<extensions>
<speed>4.2</speed>
<temp>0.00</temp>
<bpm>0</bpm>
<rpm>0.00</rpm>
</extensions>
</trkpt>
<trkpt lat="30.903806686" lon="34.788890839">
<ele>480.085938</ele>
<time>2013-11-20T13:36:54Z</time>
<speed>3.850000</speed>
<extensions>
<speed>3.8</speed>
<temp>0.00</temp>
<bpm>0</bpm>
<rpm>0.00</rpm>
</extensions>
</trkpt>
<trkpt lat="30.903793335" lon="34.789093018">
<ele>481.500000</ele>
<time>2013-11-20T13:36:59Z</time>
<speed>3.490000</speed>
<extensions>
<speed>3.5</speed>
<temp>0.00</temp>
<bpm>0</bpm>
<rpm>0.00</rpm>
</extensions>
</trkpt>
<trkpt lat="30.903833389" lon="34.789279938">
<ele>481.351563</ele>
<time>2013-11-20T13:37:04Z</time>
<speed>4.040000</speed>
<extensions>
<speed>4.0</speed>
<temp>0.00</temp>
<bpm>0</bpm>
<rpm>0.00</rpm>
</extensions>
</trkpt>
<trkpt lat="30.903890610" lon="34.789466858">
<ele>481.171875</ele>
<time>2013-11-20T13:37:09Z</time>
<speed>3.540000</speed>
<extensions>
<speed>3.5</speed>
<temp>0.00</temp>
<bpm>0</bpm>
<rpm>0.00</rpm>
</extensions>
</trkpt>
<trkpt lat="30.903825760" lon="34.789672852">
<ele>479.078125</ele>
<time>2013-11-20T13:37:14Z</time>
<speed>4.350000</speed>
<extensions>
<speed>4.3</speed>
<temp>0.00</temp>
<bpm>0</bpm>
<rpm>0.00</rpm>
</extensions>
</trkpt>
<trkpt lat="30.903770447" lon="34.789878845">
<ele>477.937500</ele>
<time>2013-11-20T13:37:19Z</time>
<speed>3.790000</speed>
<extensions>
<speed>3.8</speed>
<temp>0.00</temp>
<bpm>0</bpm>
<rpm>0.00</rpm>
</extensions>
</trkpt>
<trkpt lat="30.903724670" lon="34.790081024">
<ele>478.898438</ele>
<time>2013-11-20T13:37:24Z</time>
<speed>4.140000</speed>
<extensions>
<speed>4.1</speed>
<temp>0.00</temp>
<bpm>0</bpm>
<rpm>0.00</rpm>
</extensions>
</trkpt>
<trkpt lat="30.903688431" lon="34.790271759">
<ele>479.734375</ele>
<time>2013-11-20T13:37:29Z</time>
<speed>4.120000</speed>
<extensions>
<speed>4.1</speed>
<temp>0.00</temp>
<bpm>0</bpm>
<rpm>0.00</rpm>
</extensions>
</trkpt>
<trkpt lat="30.903633118" lon="34.790451050">
<ele>480.796875</ele>
<time>2013-11-20T13:37:34Z</time>
<speed>3.530000</speed>
<extensions>
<speed>3.5</speed>
<temp>0.00</temp>
<bpm>0</bpm>
<rpm>0.00</rpm>
</extensions>
</trkpt>
<trkpt lat="30.903591156" lon="34.790596008">
<ele>481.773438</ele>
<time>2013-11-20T13:37:39Z</time>
<speed>2.590000</speed>
<extensions>
<speed>2.6</speed>
<temp>0.00</temp>
<bpm>0</bpm>
<rpm>0.00</rpm>
</extensions>
</trkpt>
<trkpt lat="30.903585434" lon="34.790691376">
<ele>482.445313</ele>
<time>2013-11-20T13:37:44Z</time>
<speed>2.310000</speed>
<extensions>
<speed>2.3</speed>
<temp>0.00</temp>
<bpm>0</bpm>
<rpm>0.00</rpm>
</extensions>
</trkpt>
<trkpt lat="30.903640747" lon="34.790832520">
<ele>482.914063</ele>
<time>2013-11-20T13:37:49Z</time>
<speed>3.640000</speed>
<extensions>
<speed>3.6</speed>
<temp>0.00</temp>
<bpm>0</bpm>
<rpm>0.00</rpm>
</extensions>
</trkpt>
<trkpt lat="30.903806686" lon="34.790916443">
<ele>483.742188</ele>
<time>2013-11-20T13:37:54Z</time>
<speed>3.760000</speed>
<extensions>
<speed>3.8</speed>
<temp>0.00</temp>
<bpm>0</bpm>
<rpm>0.00</rpm>
</extensions>
</trkpt>
<trkpt lat="30.903959274" lon="34.790992737">
<ele>485.273438</ele>
<time>2013-11-20T13:37:59Z</time>
<speed>3.840000</speed>
<extensions>
<speed>3.8</speed>
<temp>0.00</temp>
<bpm>0</bpm>
<rpm>0.00</rpm>
</extensions>
</trkpt>
<trkpt lat="30.904111862" lon="34.791118622">
<ele>485.445313</ele>
<time>2013-11-20T13:38:04Z</time>
<speed>4.430000</speed>
<extensions>
<speed>4.4</speed>
<temp>0.00</temp>
<bpm>0</bpm>
<rpm>0.00</rpm>
</extensions>
</trkpt>
<trkpt lat="30.904296875" lon="34.791221619">
<ele>486.398438</ele>
<time>2013-11-20T13:38:09Z</time>
<speed>4.910000</speed>
<extensions>
<speed>4.9</speed>
<temp>0.00</temp>
<bpm>0</bpm>
<rpm>0.00</rpm>
</extensions>
</trkpt>
<trkpt lat="30.904460907" lon="34.791336060">
<ele>487.289063</ele>
<time>2013-11-20T13:38:14Z</time>
<speed>3.470000</speed>
<extensions>
<speed>3.5</speed>
<temp>0.00</temp>
<bpm>0</bpm>
<rpm>0.00</rpm>
</extensions>
</trkpt>
<trkpt lat="30.904567719" lon="34.791481018">
<ele>487.718750</ele>
<time>2013-11-20T13:38:19Z</time>
<speed>4.080000</speed>
<extensions>
<speed>4.1</speed>
<temp>0.00</temp>
<bpm>0</bpm>
<rpm>0.00</rpm>
</extensions>
</trkpt>
<trkpt lat="30.904661179" lon="34.791660309">
<ele>487.828125</ele>
<time>2013-11-20T13:38:24Z</time>
<speed>4.340000</speed>
<extensions>
<speed>4.3</speed>
<temp>0.00</temp>
<bpm>0</bpm>
<rpm>0.00</rpm>
</extensions>
</trkpt>
<trkpt lat="30.904716492" lon="34.791885376">
<ele>488.093750</ele>
<time>2013-11-20T13:38:29Z</time>
<speed>4.430000</speed>
<extensions>
<speed>4.4</speed>
<temp>0.00</temp>
<bpm>0</bpm>
<rpm>0.00</rpm>
</extensions>
</trkpt>
<trkpt lat="30.904823303" lon="34.792060852">
<ele>487.796875</ele>
<time>2013-11-20T13:38:34Z</time>
<speed>4.120000</speed>
<extensions>
<speed>4.1</speed>
<temp>0.00</temp>
<bpm>0</bpm>
<rpm>0.00</rpm>
</extensions>
</trkpt>
<trkpt lat="30.904987335" lon="34.792156219">
<ele>488.289063</ele>
<time>2013-11-20T13:38:39Z</time>
<speed>3.950000</speed>
<extensions>
<speed>4.0</speed>
<temp>0.00</temp>
<bpm>0</bpm>
<rpm>0.00</rpm>
</extensions>
</trkpt>
<trkpt lat="30.905069351" lon="34.792320251">
<ele>488.390625</ele>
<time>2013-11-20T13:38:44Z</time>
<speed>2.800000</speed>
<extensions>
<speed>2.8</speed>
<temp>0.00</temp>
<bpm>0</bpm>
<rpm>0.00</rpm>
</extensions>
</trkpt>
<trkpt lat="30.905033112" lon="34.792453766">
<ele>489.289063</ele>
<time>2013-11-20T13:38:49Z</time>
<speed>2.970000</speed>
<extensions>
<speed>3.0</speed>
<temp>0.00</temp>
<bpm>0</bpm>
<rpm>0.00</rpm>
</extensions>
</trkpt>
<trkpt lat="30.904985428" lon="34.792598724">
<ele>490.085938</ele>
<time>2013-11-20T13:38:54Z</time>
<speed>2.910000</speed>
<extensions>
<speed>2.9</speed>
<temp>0.00</temp>
<bpm>0</bpm>
<rpm>0.00</rpm>
</extensions>
</trkpt>
<trkpt lat="30.904945374" lon="34.792766571">
<ele>490.515625</ele>
<time>2013-11-20T13:38:59Z</time>
<speed>3.420000</speed>
<extensions>
<speed>3.4</speed>
<temp>0.00</temp>
<bpm>0</bpm>
<rpm>0.00</rpm>
</extensions>
</trkpt>
<trkpt lat="30.904907227" lon="34.792938232">
<ele>490.203125</ele>
<time>2013-11-20T13:39:04Z</time>
<speed>3.190000</speed>
<extensions>
<speed>3.2</speed>
<temp>0.00</temp>
<bpm>0</bpm>
<rpm>0.00</rpm>
</extensions>
</trkpt>
<trkpt lat="30.904886246" lon="34.793067932">
<ele>490.210938</ele>
<time>2013-11-20T13:39:09Z</time>
<speed>1.740000</speed>
<extensions>
<speed>1.7</speed>
<temp>0.00</temp>
<bpm>0</bpm>
<rpm>0.00</rpm>
</extensions>
</trkpt>
<trkpt lat="30.904869080" lon="34.793178558">
<ele>490.000000</ele>
<time>2013-11-20T13:39:14Z</time>
<speed>2.150000</speed>
<extensions>
<speed>2.1</speed>
<temp>0.00</temp>
<bpm>0</bpm>
<rpm>0.00</rpm>
</extensions>
</trkpt>
<trkpt lat="30.904863358" lon="34.793277740">
<ele>490.101563</ele>
<time>2013-11-20T13:39:19Z</time>
<speed>1.640000</speed>
<extensions>
<speed>1.6</speed>
<temp>0.00</temp>
<bpm>0</bpm>
<rpm>0.00</rpm>
</extensions>
</trkpt>
<trkpt lat="30.904863358" lon="34.793376923">
<ele>490.406250</ele>
<time>2013-11-20T13:39:24Z</time>
<speed>1.960000</speed>
<extensions>
<speed>2.0</speed>
<temp>0.00</temp>
<bpm>0</bpm>
<rpm>0.00</rpm>
</extensions>
</trkpt>
<trkpt lat="30.904882431" lon="34.793460846">
<ele>490.468750</ele>
<time>2013-11-20T13:39:29Z</time>
<speed>1.640000</speed>
<extensions>
<speed>1.6</speed>
<temp>0.00</temp>
<bpm>0</bpm>
<rpm>0.00</rpm>
</extensions>
</trkpt>
<trkpt lat="30.904907227" lon="34.793533325">
<ele>490.328125</ele>
<time>2013-11-20T13:39:34Z</time>
<speed>1.410000</speed>
<extensions>
<speed>1.4</speed>
<temp>0.00</temp>
<bpm>0</bpm>
<rpm>0.00</rpm>
</extensions>
</trkpt>
<trkpt lat="30.904932022" lon="34.793613434">
<ele>490.437500</ele>
<time>2013-11-20T13:39:39Z</time>
<speed>1.550000</speed>
<extensions>
<speed>1.5</speed>
<temp>0.00</temp>
<bpm>0</bpm>
<rpm>0.00</rpm>
</extensions>
</trkpt>
<trkpt lat="30.904972076" lon="34.793670654">
<ele>490.507813</ele>
<time>2013-11-20T13:39:44Z</time>
<speed>1.250000</speed>
<extensions>
<speed>1.3</speed>
<temp>0.00</temp>
<bpm>0</bpm>
<rpm>0.00</rpm>
</extensions>
</trkpt>
<trkpt lat="30.904993057" lon="34.793743134">
<ele>490.312500</ele>
<time>2013-11-20T13:39:49Z</time>
<speed>1.140000</speed>
<extensions>
<speed>1.1</speed>
<temp>0.00</temp>
<bpm>0</bpm>
<rpm>0.00</rpm>
</extensions>
</trkpt>
<trkpt lat="30.904991150" lon="34.793746948">
<ele>490.125000</ele>
<time>2013-11-20T13:39:54Z</time>
<speed>0.010000</speed>
<extensions>
<speed>0.0</speed>
<temp>0.00</temp>
<bpm>0</bpm>
<rpm>0.00</rpm>
</extensions>
</trkpt>
<trkpt lat="30.904989243" lon="34.793746948">
<ele>490.054688</ele>
<time>2013-11-20T13:39:59Z</time>
<speed>0.010000</speed>
<extensions>
<speed>0.0</speed>
<temp>0.00</temp>
<bpm>0</bpm>
<rpm>0.00</rpm>
</extensions>
</trkpt>
<trkpt lat="30.904989243" lon="34.793746948">
<ele>490.007813</ele>
<time>2013-11-20T13:40:04Z</time>
<extensions>
<speed>0.0</speed>
<temp>0.00</temp>
<bpm>0</bpm>
<rpm>0.00</rpm>
</extensions>
</trkpt>
<trkpt lat="30.904989243" lon="34.793746948">
<ele>490.015625</ele>
<time>2013-11-20T13:40:09Z</time>
<extensions>
<speed>0.0</speed>
<temp>0.00</temp>
<bpm>0</bpm>
<rpm>0.00</rpm>
</extensions>
</trkpt>
<trkpt lat="30.904989243" lon="34.793746948">
<ele>490.046875</ele>
<time>2013-11-20T13:40:14Z</time>
<extensions>
<speed>0.0</speed>
<temp>0.00</temp>
<bpm>0</bpm>
<rpm>0.00</rpm>
</extensions>
</trkpt>
<trkpt lat="30.904989243" lon="34.793746948">
<ele>490.117188</ele>
<time>2013-11-20T13:40:19Z</time>
<speed>0.010000</speed>
<extensions>
<speed>0.0</speed>
<temp>0.00</temp>
<bpm>0</bpm>
<rpm>0.00</rpm>
</extensions>
</trkpt>
<trkpt lat="30.904989243" lon="34.793746948">
<ele>490.156250</ele>
<time>2013-11-20T13:40:24Z</time>
<extensions>
<speed>0.0</speed>
<temp>0.00</temp>
<bpm>0</bpm>
<rpm>0.00</rpm>
</extensions>
</trkpt>
<trkpt lat="30.904989243" lon="34.793746948">
<ele>490.148438</ele>
<time>2013-11-20T13:40:29Z</time>
<extensions>
<speed>0.0</speed>
<temp>0.00</temp>
<bpm>0</bpm>
<rpm>0.00</rpm>
</extensions>
</trkpt>
<trkpt lat="30.904989243" lon="34.793746948">
<ele>490.148438</ele>
<time>2013-11-20T13:40:34Z</time>
<extensions>
<speed>0.0</speed>
<temp>0.00</temp>
<bpm>0</bpm>
<rpm>0.00</rpm>
</extensions>
</trkpt>
<trkpt lat="30.904989243" lon="34.793746948">
<ele>490.156250</ele>
<time>2013-11-20T13:40:39Z</time>
<extensions>
<speed>0.0</speed>
<temp>0.00</temp>
<bpm>0</bpm>
<rpm>0.00</rpm>
</extensions>
</trkpt>
<trkpt lat="30.904989243" lon="34.793746948">
<ele>490.132813</ele>
<time>2013-11-20T13:40:44Z</time>
<speed>0.210000</speed>
<extensions>
<speed>0.2</speed>
<temp>0.00</temp>
<bpm>0</bpm>
<rpm>0.00</rpm>
</extensions>
</trkpt>
<trkpt lat="30.904928207" lon="34.793842316">
<ele>488.898438</ele>
<time>2013-11-20T13:40:49Z</time>
<speed>4.380000</speed>
<extensions>
<speed>4.4</speed>
<temp>0.00</temp>
<bpm>0</bpm>
<rpm>0.00</rpm>
</extensions>
</trkpt>
<trkpt lat="30.904804230" lon="34.793933868">
<ele>487.125000</ele>
<time>2013-11-20T13:40:54Z</time>
<speed>3.210000</speed>
<extensions>
<speed>3.2</speed>
<temp>0.00</temp>
<bpm>0</bpm>
<rpm>0.00</rpm>
</extensions>
</trkpt>
<trkpt lat="30.904697418" lon="34.794059753">
<ele>489.359375</ele>
<time>2013-11-20T13:40:59Z</time>
<speed>3.230000</speed>
<extensions>
<speed>3.2</speed>
<temp>0.00</temp>
<bpm>0</bpm>
<rpm>0.00</rpm>
</extensions>
</trkpt>
<trkpt lat="30.904687881" lon="34.794258118">
<ele>489.359375</ele>
<time>2013-11-20T13:41:04Z</time>
<speed>3.560000</speed>
<extensions>
<speed>3.6</speed>
<temp>0.00</temp>
<bpm>0</bpm>
<rpm>0.00</rpm>
</extensions>
</trkpt>
<trkpt lat="30.904735565" lon="34.794418335">
<ele>490.023438</ele>
<time>2013-11-20T13:41:09Z</time>
<speed>3.080000</speed>
<extensions>
<speed>3.1</speed>
<temp>0.00</temp>
<bpm>0</bpm>
<rpm>0.00</rpm>
</extensions>
</trkpt>
<trkpt lat="30.904800415" lon="34.794582367">
<ele>490.812500</ele>
<time>2013-11-20T13:41:14Z</time>
<speed>4.110000</speed>
<extensions>
<speed>4.1</speed>
<temp>0.00</temp>
<bpm>0</bpm>
<rpm>0.00</rpm>
</extensions>
</trkpt>
<trkpt lat="30.904870987" lon="34.794788361">
<ele>491.117188</ele>
<time>2013-11-20T13:41:19Z</time>
<speed>3.710000</speed>
<extensions>
<speed>3.7</speed>
<temp>0.00</temp>
<bpm>0</bpm>
<rpm>0.00</rpm>
</extensions>
</trkpt>
<trkpt lat="30.904888153" lon="34.794994354">
<ele>492.421875</ele>
<time>2013-11-20T13:41:24Z</time>
<speed>4.210000</speed>
<extensions>
<speed>4.2</speed>
<temp>0.00</temp>
<bpm>0</bpm>
<rpm>0.00</rpm>
</extensions>
</trkpt>
<trkpt lat="30.904857635" lon="34.795223236">
<ele>492.671875</ele>
<time>2013-11-20T13:41:29Z</time>
<speed>3.350000</speed>
<extensions>
<speed>3.4</speed>
<temp>0.00</temp>
<bpm>0</bpm>
<rpm>0.00</rpm>
</extensions>
</trkpt>
<trkpt lat="30.904838562" lon="34.795406342">
<ele>494.859375</ele>
<time>2013-11-20T13:41:34Z</time>
<speed>3.960000</speed>
<extensions>
<speed>4.0</speed>
<temp>0.00</temp>
<bpm>0</bpm>
<rpm>0.00</rpm>
</extensions>
</trkpt>
<trkpt lat="30.904800415" lon="34.795570374">
<ele>498.187500</ele>
<time>2013-11-20T13:41:39Z</time>
<speed>2.890000</speed>
<extensions>
<speed>2.9</speed>
<temp>0.00</temp>
<bpm>0</bpm>
<rpm>0.00</rpm>
</extensions>
</trkpt>
<trkpt lat="30.904748917" lon="34.795692444">
<ele>497.812500</ele>
<time>2013-11-20T13:41:44Z</time>
<speed>2.770000</speed>
<extensions>
<speed>2.8</speed>
<temp>0.00</temp>
<bpm>0</bpm>
<rpm>0.00</rpm>
</extensions>
</trkpt>
<trkpt lat="30.904685974" lon="34.795757294">
<ele>499.945313</ele>
<time>2013-11-20T13:41:49Z</time>
<speed>2.650000</speed>
<extensions>
<speed>2.6</speed>
<temp>0.00</temp>
<bpm>0</bpm>
<rpm>0.00</rpm>
</extensions>
</trkpt>
<trkpt lat="30.904567719" lon="34.795795441">
<ele>503.054688</ele>
<time>2013-11-20T13:41:54Z</time>
<speed>3.100000</speed>
<extensions>
<speed>3.1</speed>
<temp>0.00</temp>
<bpm>0</bpm>
<rpm>0.00</rpm>
</extensions>
</trkpt>
<trkpt lat="30.904436111" lon="34.795787811">
<ele>504.890625</ele>
<time>2013-11-20T13:41:59Z</time>
<speed>2.730000</speed>
<extensions>
<speed>2.7</speed>
<temp>0.00</temp>
<bpm>0</bpm>
<rpm>0.00</rpm>
</extensions>
</trkpt>
<trkpt lat="30.904317856" lon="34.795825958">
<ele>506.429688</ele>
<time>2013-11-20T13:42:04Z</time>
<speed>2.820000</speed>
<extensions>
<speed>2.8</speed>
<temp>0.00</temp>
<bpm>0</bpm>
<rpm>0.00</rpm>
</extensions>
</trkpt>
<trkpt lat="30.904195786" lon="34.795875549">
<ele>507.140625</ele>
<time>2013-11-20T13:42:09Z</time>
<speed>2.540000</speed>
<extensions>
<speed>2.5</speed>
<temp>0.00</temp>
<bpm>0</bpm>
<rpm>0.00</rpm>
</extensions>
</trkpt>
<trkpt lat="30.904090881" lon="34.795879364">
<ele>508.226563</ele>
<time>2013-11-20T13:42:14Z</time>
<speed>2.600000</speed>
<extensions>
<speed>2.6</speed>
<temp>0.00</temp>
<bpm>0</bpm>
<rpm>0.00</rpm>
</extensions>
</trkpt>
<trkpt lat="30.903982162" lon="34.795879364">
<ele>509.000000</ele>
<time>2013-11-20T13:42:19Z</time>
<speed>2.850000</speed>
<extensions>
<speed>2.9</speed>
<temp>0.00</temp>
<bpm>0</bpm>
<rpm>0.00</rpm>
</extensions>
</trkpt>
<trkpt lat="30.903860092" lon="34.795883179">
<ele>508.851563</ele>
<time>2013-11-20T13:42:24Z</time>
<speed>2.570000</speed>
<extensions>
<speed>2.6</speed>
<temp>0.00</temp>
<bpm>0</bpm>
<rpm>0.00</rpm>
</extensions>
</trkpt>
<trkpt lat="30.903745651" lon="34.795848846">
<ele>508.734375</ele>
<time>2013-11-20T13:42:29Z</time>
<speed>2.770000</speed>
<extensions>
<speed>2.8</speed>
<temp>0.00</temp>
<bpm>0</bpm>
<rpm>0.00</rpm>
</extensions>
</trkpt>
<trkpt lat="30.903633118" lon="34.795806885">
<ele>509.210938</ele>
<time>2013-11-20T13:42:34Z</time>
<speed>2.800000</speed>
<extensions>
<speed>2.8</speed>
<temp>0.00</temp>
<bpm>0</bpm>
<rpm>0.00</rpm>
</extensions>
</trkpt>
<trkpt lat="30.903507233" lon="34.795772552">
<ele>509.210938</ele>
<time>2013-11-20T13:42:39Z</time>
<speed>2.940000</speed>
<extensions>
<speed>2.9</speed>
<temp>0.00</temp>
<bpm>0</bpm>
<rpm>0.00</rpm>
</extensions>
</trkpt>
<trkpt lat="30.903367996" lon="34.795730591">
<ele>508.515625</ele>
<time>2013-11-20T13:42:44Z</time>
<speed>3.730000</speed>
<extensions>
<speed>3.7</speed>
<temp>0.00</temp>
<bpm>0</bpm>
<rpm>0.00</rpm>
</extensions>
</trkpt>
<trkpt lat="30.903198242" lon="34.795715332">
<ele>506.109375</ele>
<time>2013-11-20T13:42:49Z</time>
<speed>3.660000</speed>
<extensions>
<speed>3.7</speed>
<temp>0.00</temp>
<bpm>0</bpm>
<rpm>0.00</rpm>
</extensions>
</trkpt>
<trkpt lat="30.903110504" lon="34.795700073">
<ele>507.562500</ele>
<time>2013-11-20T13:42:54Z</time>
<speed>0.080000</speed>
<extensions>
<speed>0.1</speed>
<temp>0.00</temp>
<bpm>0</bpm>
<rpm>0.00</rpm>
</extensions>
</trkpt>
<trkpt lat="30.903108597" lon="34.795703888">
<ele>507.679688</ele>
<time>2013-11-20T13:42:59Z</time>
<speed>0.250000</speed>
<extensions>
<speed>0.2</speed>
<temp>0.00</temp>
<bpm>0</bpm>
<rpm>0.00</rpm>
</extensions>
</trkpt>
<trkpt lat="30.903026581" lon="34.795707703">
<ele>508.914063</ele>
<time>2013-11-20T13:43:04Z</time>
<speed>2.720000</speed>
<extensions>
<speed>2.7</speed>
<temp>0.00</temp>
<bpm>0</bpm>
<rpm>0.00</rpm>
</extensions>
</trkpt>
<trkpt lat="30.902887344" lon="34.795684814">
<ele>509.851563</ele>
<time>2013-11-20T13:43:09Z</time>
<speed>2.630000</speed>
<extensions>
<speed>2.6</speed>
<temp>0.00</temp>
<bpm>0</bpm>
<rpm>0.00</rpm>
</extensions>
</trkpt>
<trkpt lat="30.902772903" lon="34.795600891">
<ele>510.250000</ele>
<time>2013-11-20T13:43:14Z</time>
<speed>3.460000</speed>
<extensions>
<speed>3.5</speed>
<temp>0.00</temp>
<bpm>0</bpm>
<rpm>0.00</rpm>
</extensions>
</trkpt>
<trkpt lat="30.902627945" lon="34.795513153">
<ele>510.726563</ele>
<time>2013-11-20T13:43:19Z</time>
<speed>3.440000</speed>
<extensions>
<speed>3.4</speed>
<temp>0.00</temp>
<bpm>0</bpm>
<rpm>0.00</rpm>
</extensions>
</trkpt>
<trkpt lat="30.902490616" lon="34.795524597">
<ele>510.687500</ele>
<time>2013-11-20T13:43:24Z</time>
<speed>3.750000</speed>
<extensions>
<speed>3.8</speed>
<temp>0.00</temp>
<bpm>0</bpm>
<rpm>0.00</rpm>
</extensions>
</trkpt>
<trkpt lat="30.902315140" lon="34.795574188">
<ele>509.835938</ele>
<time>2013-11-20T13:43:29Z</time>
<speed>4.130000</speed>
<extensions>
<speed>4.1</speed>
<temp>0.00</temp>
<bpm>0</bpm>
<rpm>0.00</rpm>
</extensions>
</trkpt>
<trkpt lat="30.902175903" lon="34.795692444">
<ele>509.257813</ele>
<time>2013-11-20T13:43:34Z</time>
<speed>3.370000</speed>
<extensions>
<speed>3.4</speed>
<temp>0.00</temp>
<bpm>0</bpm>
<rpm>0.00</rpm>
</extensions>
</trkpt>
<trkpt lat="30.902036667" lon="34.795768738">
<ele>508.578125</ele>
<time>2013-11-20T13:43:39Z</time>
<speed>3.690000</speed>
<extensions>
<speed>3.7</speed>
<temp>0.00</temp>
<bpm>0</bpm>
<rpm>0.00</rpm>
</extensions>
</trkpt>
<trkpt lat="30.901882172" lon="34.795829773">
<ele>507.335938</ele>
<time>2013-11-20T13:43:44Z</time>
<speed>3.510000</speed>
<extensions>
<speed>3.5</speed>
<temp>0.00</temp>
<bpm>0</bpm>
<rpm>0.00</rpm>
</extensions>
</trkpt>
<trkpt lat="30.901742935" lon="34.795856476">
<ele>505.976563</ele>
<time>2013-11-20T13:43:49Z</time>
<speed>2.930000</speed>
<extensions>
<speed>2.9</speed>
<temp>0.00</temp>
<bpm>0</bpm>
<rpm>0.00</rpm>
</extensions>
</trkpt>
<trkpt lat="30.901611328" lon="34.795948029">
<ele>505.789063</ele>
<time>2013-11-20T13:43:54Z</time>
<speed>3.670000</speed>
<extensions>
<speed>3.7</speed>
<temp>0.00</temp>
<bpm>0</bpm>
<rpm>0.00</rpm>
</extensions>
</trkpt>
<trkpt lat="30.901506424" lon="34.796081543">
<ele>505.625000</ele>
<time>2013-11-20T13:43:59Z</time>
<speed>3.490000</speed>
<extensions>
<speed>3.5</speed>
<temp>0.00</temp>
<bpm>0</bpm>
<rpm>0.00</rpm>
</extensions>
</trkpt>
<trkpt lat="30.901439667" lon="34.796283722">
<ele>505.937500</ele>
<time>2013-11-20T13:44:04Z</time>
<speed>3.930000</speed>
<extensions>
<speed>3.9</speed>
<temp>0.00</temp>
<bpm>0</bpm>
<rpm>0.00</rpm>
</extensions>
</trkpt>
<trkpt lat="30.901407242" lon="34.796470642">
<ele>504.523438</ele>
<time>2013-11-20T13:44:09Z</time>
<speed>3.470000</speed>
<extensions>
<speed>3.5</speed>
<temp>0.00</temp>
<bpm>0</bpm>
<rpm>0.00</rpm>
</extensions>
</trkpt>
<trkpt lat="30.901355743" lon="34.796657562">
<ele>503.609375</ele>
<time>2013-11-20T13:44:14Z</time>
<speed>4.180000</speed>
<extensions>
<speed>4.2</speed>
<temp>0.00</temp>
<bpm>0</bpm>
<rpm>0.00</rpm>
</extensions>
</trkpt>
<trkpt lat="30.901298523" lon="34.796833038">
<ele>503.140625</ele>
<time>2013-11-20T13:44:19Z</time>
<speed>3.630000</speed>
<extensions>
<speed>3.6</speed>
<temp>0.00</temp>
<bpm>0</bpm>
<rpm>0.00</rpm>
</extensions>
</trkpt>
<trkpt lat="30.901241302" lon="34.797019958">
<ele>504.406250</ele>
<time>2013-11-20T13:44:24Z</time>
<speed>3.580000</speed>
<extensions>
<speed>3.6</speed>
<temp>0.00</temp>
<bpm>0</bpm>
<rpm>0.00</rpm>
</extensions>
</trkpt>
<trkpt lat="30.901189804" lon="34.797176361">
<ele>504.781250</ele>
<time>2013-11-20T13:44:29Z</time>
<speed>3.760000</speed>
<extensions>
<speed>3.8</speed>
<temp>0.00</temp>
<bpm>0</bpm>
<rpm>0.00</rpm>
</extensions>
</trkpt>
<trkpt lat="30.901096344" lon="34.797370911">
<ele>504.703125</ele>
<time>2013-11-20T13:44:34Z</time>
<speed>3.930000</speed>
<extensions>
<speed>3.9</speed>
<temp>0.00</temp>
<bpm>0</bpm>
<rpm>0.00</rpm>
</extensions>
</trkpt>
<trkpt lat="30.900987625" lon="34.797527313">
<ele>507.757813</ele>
<time>2013-11-20T13:44:39Z</time>
<speed>4.320000</speed>
<extensions>
<speed>4.3</speed>
<temp>0.00</temp>
<bpm>0</bpm>
<rpm>0.00</rpm>
</extensions>
</trkpt>
<trkpt lat="30.900873184" lon="34.797683716">
<ele>509.992188</ele>
<time>2013-11-20T13:44:44Z</time>
<speed>3.970000</speed>
<extensions>
<speed>4.0</speed>
<temp>0.00</temp>
<bpm>0</bpm>
<rpm>0.00</rpm>
</extensions>
</trkpt>
<trkpt lat="30.900747299" lon="34.797813416">
<ele>512.421875</ele>
<time>2013-11-20T13:44:49Z</time>
<speed>4.430000</speed>
<extensions>
<speed>4.4</speed>
<temp>0.00</temp>
<bpm>0</bpm>
<rpm>0.00</rpm>
</extensions>
</trkpt>
<trkpt lat="30.900592804" lon="34.797939301">
<ele>514.109375</ele>
<time>2013-11-20T13:44:54Z</time>
<speed>4.120000</speed>
<extensions>
<speed>4.1</speed>
<temp>0.00</temp>
<bpm>0</bpm>
<rpm>0.00</rpm>
</extensions>
</trkpt>
<trkpt lat="30.900449753" lon="34.798019409">
<ele>515.750000</ele>
<time>2013-11-20T13:44:59Z</time>
<speed>3.480000</speed>
<extensions>
<speed>3.5</speed>
<temp>0.00</temp>
<bpm>0</bpm>
<rpm>0.00</rpm>
</extensions>
</trkpt>
<trkpt lat="30.900308609" lon="34.798069000">
<ele>517.218750</ele>
<time>2013-11-20T13:45:04Z</time>
<speed>3.270000</speed>
<extensions>
<speed>3.3</speed>
<temp>0.00</temp>
<bpm>0</bpm>
<rpm>0.00</rpm>
</extensions>
</trkpt>
<trkpt lat="30.900215149" lon="34.798213959">
<ele>517.656250</ele>
<time>2013-11-20T13:45:09Z</time>
<speed>4.070000</speed>
<extensions>
<speed>4.1</speed>
<temp>0.00</temp>
<bpm>0</bpm>
<rpm>0.00</rpm>
</extensions>
</trkpt>
<trkpt lat="30.900203705" lon="34.798408508">
<ele>519.359375</ele>
<time>2013-11-20T13:45:14Z</time>
<speed>2.680000</speed>
<extensions>
<speed>2.7</speed>
<temp>0.00</temp>
<bpm>0</bpm>
<rpm>0.00</rpm>
</extensions>
</trkpt>
<trkpt lat="30.900159836" lon="34.798484802">
<ele>520.156250</ele>
<time>2013-11-20T13:45:19Z</time>
<speed>1.400000</speed>
<extensions>
<speed>1.4</speed>
<temp>0.00</temp>
<bpm>0</bpm>
<rpm>0.00</rpm>
</extensions>
</trkpt>
<trkpt lat="30.900074005" lon="34.798561096">
<ele>520.828125</ele>
<time>2013-11-20T13:45:24Z</time>
<speed>3.440000</speed>
<extensions>
<speed>3.4</speed>
<temp>0.00</temp>
<bpm>0</bpm>
<rpm>0.00</rpm>
</extensions>
</trkpt>
<trkpt lat="30.899925232" lon="34.798587799">
<ele>518.875000</ele>
<time>2013-11-20T13:45:29Z</time>
<speed>3.500000</speed>
<extensions>
<speed>3.5</speed>
<temp>0.00</temp>
<bpm>0</bpm>
<rpm>0.00</rpm>
</extensions>
</trkpt>
<trkpt lat="30.899761200" lon="34.798564911">
<ele>519.281250</ele>
<time>2013-11-20T13:45:34Z</time>
<speed>3.680000</speed>
<extensions>
<speed>3.7</speed>
<temp>0.00</temp>
<bpm>0</bpm>
<rpm>0.00</rpm>
</extensions>
</trkpt>
<trkpt lat="30.899620056" lon="34.798477173">
<ele>519.593750</ele>
<time>2013-11-20T13:45:39Z</time>
<speed>3.440000</speed>
<extensions>
<speed>3.4</speed>
<temp>0.00</temp>
<bpm>0</bpm>
<rpm>0.00</rpm>
</extensions>
</trkpt>
<trkpt lat="30.899480820" lon="34.798377991">
<ele>519.328125</ele>
<time>2013-11-20T13:45:44Z</time>
<speed>3.940000</speed>
<extensions>
<speed>3.9</speed>
<temp>0.00</temp>
<bpm>0</bpm>
<rpm>0.00</rpm>
</extensions>
</trkpt>
<trkpt lat="30.899309158" lon="34.798305511">
<ele>518.625000</ele>
<time>2013-11-20T13:45:49Z</time>
<speed>4.030000</speed>
<extensions>
<speed>4.0</speed>
<temp>0.00</temp>
<bpm>0</bpm>
<rpm>0.00</rpm>
</extensions>
</trkpt>
<trkpt lat="30.899131775" lon="34.798278809">
<ele>520.140625</ele>
<time>2013-11-20T13:45:54Z</time>
<speed>3.840000</speed>
<extensions>
<speed>3.8</speed>
<temp>0.00</temp>
<bpm>0</bpm>
<rpm>0.00</rpm>
</extensions>
</trkpt>
<trkpt lat="30.898963928" lon="34.798274994">
<ele>520.437500</ele>
<time>2013-11-20T13:45:59Z</time>
<speed>4.110000</speed>
<extensions>
<speed>4.1</speed>
<temp>0.00</temp>
<bpm>0</bpm>
<rpm>0.00</rpm>
</extensions>
</trkpt>
<trkpt lat="30.898797989" lon="34.798233032">
<ele>520.500000</ele>
<time>2013-11-20T13:46:04Z</time>
<speed>3.530000</speed>
<extensions>
<speed>3.5</speed>
<temp>0.00</temp>
<bpm>0</bpm>
<rpm>0.00</rpm>
</extensions>
</trkpt>
<trkpt lat="30.898664474" lon="34.798305511">
<ele>521.171875</ele>
<time>2013-11-20T13:46:09Z</time>
<speed>2.980000</speed>
<extensions>
<speed>3.0</speed>
<temp>0.00</temp>
<bpm>0</bpm>
<rpm>0.00</rpm>
</extensions>
</trkpt>
<trkpt lat="30.898567200" lon="34.798397064">
<ele>521.812500</ele>
<time>2013-11-20T13:46:14Z</time>
<speed>2.910000</speed>
<extensions>
<speed>2.9</speed>
<temp>0.00</temp>
<bpm>0</bpm>
<rpm>0.00</rpm>
</extensions>
</trkpt>
<trkpt lat="30.898487091" lon="34.798473358">
<ele>522.468750</ele>
<time>2013-11-20T13:46:19Z</time>
<speed>2.620000</speed>
<extensions>
<speed>2.6</speed>
<temp>0.00</temp>
<bpm>0</bpm>
<rpm>0.00</rpm>
</extensions>
</trkpt>
<trkpt lat="30.898374557" lon="34.798564911">
<ele>522.500000</ele>
<time>2013-11-20T13:46:24Z</time>
<speed>3.030000</speed>
<extensions>
<speed>3.0</speed>
<temp>0.00</temp>
<bpm>0</bpm>
<rpm>0.00</rpm>
</extensions>
</trkpt>
<trkpt lat="30.898250580" lon="34.798671722">
<ele>522.125000</ele>
<time>2013-11-20T13:46:29Z</time>
<speed>3.350000</speed>
<extensions>
<speed>3.4</speed>
<temp>0.00</temp>
<bpm>0</bpm>
<rpm>0.00</rpm>
</extensions>
</trkpt>
<trkpt lat="30.898145676" lon="34.798782349">
<ele>523.234375</ele>
<time>2013-11-20T13:46:34Z</time>
<speed>3.550000</speed>
<extensions>
<speed>3.5</speed>
<temp>0.00</temp>
<bpm>0</bpm>
<rpm>0.00</rpm>
</extensions>
</trkpt>
<trkpt lat="30.898017883" lon="34.798889160">
<ele>523.328125</ele>
<time>2013-11-20T13:46:39Z</time>
<speed>2.910000</speed>
<extensions>
<speed>2.9</speed>
<temp>0.00</temp>
<bpm>0</bpm>
<rpm>0.00</rpm>
</extensions>
</trkpt>
<trkpt lat="30.897867203" lon="34.798946381">
<ele>523.250000</ele>
<time>2013-11-20T13:46:44Z</time>
<speed>4.040000</speed>
<extensions>
<speed>4.0</speed>
<temp>0.00</temp>
<bpm>0</bpm>
<rpm>0.00</rpm>
</extensions>
</trkpt>
<trkpt lat="30.897703171" lon="34.798938751">
<ele>524.156250</ele>
<time>2013-11-20T13:46:49Z</time>
<speed>2.940000</speed>
<extensions>
<speed>2.9</speed>
<temp>0.00</temp>
<bpm>0</bpm>
<rpm>0.00</rpm>
</extensions>
</trkpt>
<trkpt lat="30.897560120" lon="34.798957825">
<ele>524.343750</ele>
<time>2013-11-20T13:46:54Z</time>
<speed>3.180000</speed>
<extensions>
<speed>3.2</speed>
<temp>0.00</temp>
<bpm>0</bpm>
<rpm>0.00</rpm>
</extensions>
</trkpt>
<trkpt lat="30.897415161" lon="34.798961639">
<ele>524.750000</ele>
<time>2013-11-20T13:46:59Z</time>
<speed>2.290000</speed>
<extensions>
<speed>2.3</speed>
<temp>0.00</temp>
<bpm>0</bpm>
<rpm>0.00</rpm>
</extensions>
</trkpt>
<trkpt lat="30.897287369" lon="34.798957825">
<ele>525.000000</ele>
<time>2013-11-20T13:47:04Z</time>
<speed>3.120000</speed>
<extensions>
<speed>3.1</speed>
<temp>0.00</temp>
<bpm>0</bpm>
<rpm>0.00</rpm>
</extensions>
</trkpt>
<trkpt lat="30.897146225" lon="34.798984528">
<ele>525.609375</ele>
<time>2013-11-20T13:47:09Z</time>
<speed>3.120000</speed>
<extensions>
<speed>3.1</speed>
<temp>0.00</temp>
<bpm>0</bpm>
<rpm>0.00</rpm>
</extensions>
</trkpt>
<trkpt lat="30.897039413" lon="34.799003601">
<ele>526.046875</ele>
<time>2013-11-20T13:47:14Z</time>
<speed>2.430000</speed>
<extensions>
<speed>2.4</speed>
<temp>0.00</temp>
<bpm>0</bpm>
<rpm>0.00</rpm>
</extensions>
</trkpt>
<trkpt lat="30.896934509" lon="34.798999786">
<ele>526.765625</ele>
<time>2013-11-20T13:47:19Z</time>
<speed>2.380000</speed>
<extensions>
<speed>2.4</speed>
<temp>0.00</temp>
<bpm>0</bpm>
<rpm>0.00</rpm>
</extensions>
</trkpt>
<trkpt lat="30.896839142" lon="34.799034119">
<ele>527.890625</ele>
<time>2013-11-20T13:47:24Z</time>
<speed>2.770000</speed>
<extensions>
<speed>2.8</speed>
<temp>0.00</temp>
<bpm>0</bpm>
<rpm>0.00</rpm>
</extensions>
</trkpt>
<trkpt lat="30.896785736" lon="34.799209595">
<ele>528.484375</ele>
<time>2013-11-20T13:47:29Z</time>
<speed>3.750000</speed>
<extensions>
<speed>3.8</speed>
<temp>0.00</temp>
<bpm>0</bpm>
<rpm>0.00</rpm>
</extensions>
</trkpt>
<trkpt lat="30.896728516" lon="34.799369812">
<ele>529.453125</ele>
<time>2013-11-20T13:47:34Z</time>
<speed>3.040000</speed>
<extensions>
<speed>3.0</speed>
<temp>0.00</temp>
<bpm>0</bpm>
<rpm>0.00</rpm>
</extensions>
</trkpt>
<trkpt lat="30.896606445" lon="34.799449921">
<ele>530.546875</ele>
<time>2013-11-20T13:47:39Z</time>
<speed>3.600000</speed>
<extensions>
<speed>3.6</speed>
<temp>0.00</temp>
<bpm>0</bpm>
<rpm>0.00</rpm>
</extensions>
</trkpt>
<trkpt lat="30.896474838" lon="34.799503326">
<ele>531.453125</ele>
<time>2013-11-20T13:47:44Z</time>
<speed>3.280000</speed>
<extensions>
<speed>3.3</speed>
<temp>0.00</temp>
<bpm>0</bpm>
<rpm>0.00</rpm>
</extensions>
</trkpt>
<trkpt lat="30.896335602" lon="34.799594879">
<ele>532.812500</ele>
<time>2013-11-20T13:47:49Z</time>
<speed>3.940000</speed>
<extensions>
<speed>3.9</speed>
<temp>0.00</temp>
<bpm>0</bpm>
<rpm>0.00</rpm>
</extensions>
</trkpt>
<trkpt lat="30.896223068" lon="34.799694061">
<ele>533.828125</ele>
<time>2013-11-20T13:47:54Z</time>
<speed>3.540000</speed>
<extensions>
<speed>3.5</speed>
<temp>0.00</temp>
<bpm>0</bpm>
<rpm>0.00</rpm>
</extensions>
</trkpt>
<trkpt lat="30.896131516" lon="34.799865723">
<ele>534.796875</ele>
<time>2013-11-20T13:47:59Z</time>
<speed>3.490000</speed>
<extensions>
<speed>3.5</speed>
<temp>0.00</temp>
<bpm>0</bpm>
<rpm>0.00</rpm>
</extensions>
</trkpt>
<trkpt lat="30.896003723" lon="34.799953461">
<ele>535.109375</ele>
<time>2013-11-20T13:48:04Z</time>
<speed>2.860000</speed>
<extensions>
<speed>2.9</speed>
<temp>0.00</temp>
<bpm>0</bpm>
<rpm>0.00</rpm>
</extensions>
</trkpt>
<trkpt lat="30.895872116" lon="34.800060272">
<ele>535.640625</ele>
<time>2013-11-20T13:48:09Z</time>
<speed>4.150000</speed>
<extensions>
<speed>4.1</speed>
<temp>0.00</temp>
<bpm>0</bpm>
<rpm>0.00</rpm>
</extensions>
</trkpt>
<trkpt lat="30.895858765" lon="34.800273895">
<ele>536.281250</ele>
<time>2013-11-20T13:48:14Z</time>
<speed>3.860000</speed>
<extensions>
<speed>3.9</speed>
<temp>0.00</temp>
<bpm>0</bpm>
<rpm>0.00</rpm>
</extensions>
</trkpt>
<trkpt lat="30.895891190" lon="34.800476074">
<ele>537.171875</ele>
<time>2013-11-20T13:48:19Z</time>
<speed>3.550000</speed>
<extensions>
<speed>3.5</speed>
<temp>0.00</temp>
<bpm>0</bpm>
<rpm>0.00</rpm>
</extensions>
</trkpt>
<trkpt lat="30.895868301" lon="34.800655365">
<ele>537.437500</ele>
<time>2013-11-20T13:48:24Z</time>
<speed>3.200000</speed>
<extensions>
<speed>3.2</speed>
<temp>0.00</temp>
<bpm>0</bpm>
<rpm>0.00</rpm>
</extensions>
</trkpt>
<trkpt lat="30.895856857" lon="34.800773621">
<ele>536.828125</ele>
<time>2013-11-20T13:48:29Z</time>
<speed>2.790000</speed>
<extensions>
<speed>2.8</speed>
<temp>0.00</temp>
<bpm>0</bpm>
<rpm>0.00</rpm>
</extensions>
</trkpt>
<trkpt lat="30.895956039" lon="34.800872803">
<ele>537.281250</ele>
<time>2013-11-20T13:48:34Z</time>
<speed>2.380000</speed>
<extensions>
<speed>2.4</speed>
<temp>0.00</temp>
<bpm>0</bpm>
<rpm>0.00</rpm>
</extensions>
</trkpt>
<trkpt lat="30.895998001" lon="34.800979614">
<ele>537.250000</ele>
<time>2013-11-20T13:48:39Z</time>
<speed>2.600000</speed>
<extensions>
<speed>2.6</speed>
<temp>0.00</temp>
<bpm>0</bpm>
<rpm>0.00</rpm>
</extensions>
</trkpt>
<trkpt lat="30.895994186" lon="34.801078796">
<ele>537.531250</ele>
<time>2013-11-20T13:48:44Z</time>
<speed>1.390000</speed>
<extensions>
<speed>1.4</speed>
<temp>0.00</temp>
<bpm>0</bpm>
<rpm>0.00</rpm>
</extensions>
</trkpt>
<trkpt lat="30.895931244" lon="34.801147461">
<ele>538.687500</ele>
<time>2013-11-20T13:48:49Z</time>
<speed>2.630000</speed>
<extensions>
<speed>2.6</speed>
<temp>0.00</temp>
<bpm>0</bpm>
<rpm>0.00</rpm>
</extensions>
</trkpt>
<trkpt lat="30.895814896" lon="34.801174164">
<ele>539.140625</ele>
<time>2013-11-20T13:48:54Z</time>
<speed>3.420000</speed>
<extensions>
<speed>3.4</speed>
<temp>0.00</temp>
<bpm>0</bpm>
<rpm>0.00</rpm>
</extensions>
</trkpt>
<trkpt lat="30.895664215" lon="34.801170349">
<ele>539.015625</ele>
<time>2013-11-20T13:48:59Z</time>
<speed>3.030000</speed>
<extensions>
<speed>3.0</speed>
<temp>0.00</temp>
<bpm>0</bpm>
<rpm>0.00</rpm>
</extensions>
</trkpt>
<trkpt lat="30.895536423" lon="34.801174164">
<ele>539.281250</ele>
<time>2013-11-20T13:49:04Z</time>
<speed>3.100000</speed>
<extensions>
<speed>3.1</speed>
<temp>0.00</temp>
<bpm>0</bpm>
<rpm>0.00</rpm>
</extensions>
</trkpt>
<trkpt lat="30.895372391" lon="34.801170349">
<ele>538.984375</ele>
<time>2013-11-20T13:49:09Z</time>
<speed>3.890000</speed>
<extensions>
<speed>3.9</speed>
<temp>0.00</temp>
<bpm>0</bpm>
<rpm>0.00</rpm>
</extensions>
</trkpt>
<trkpt lat="30.895204544" lon="34.801113129">
<ele>539.156250</ele>
<time>2013-11-20T13:49:14Z</time>
<speed>3.850000</speed>
<extensions>
<speed>3.8</speed>
<temp>0.00</temp>
<bpm>0</bpm>
<rpm>0.00</rpm>
</extensions>
</trkpt>
<trkpt lat="30.895057678" lon="34.801036835">
<ele>539.562500</ele>
<time>2013-11-20T13:49:19Z</time>
<speed>3.650000</speed>
<extensions>
<speed>3.7</speed>
<temp>0.00</temp>
<bpm>0</bpm>
<rpm>0.00</rpm>
</extensions>
</trkpt>
<trkpt lat="30.894884109" lon="34.800960541">
<ele>540.468750</ele>
<time>2013-11-20T13:49:24Z</time>
<speed>4.100000</speed>
<extensions>
<speed>4.1</speed>
<temp>0.00</temp>
<bpm>0</bpm>
<rpm>0.00</rpm>
</extensions>
</trkpt>
<trkpt lat="30.894739151" lon="34.800899506">
<ele>541.468750</ele>
<time>2013-11-20T13:49:29Z</time>
<speed>3.550000</speed>
<extensions>
<speed>3.5</speed>
<temp>0.00</temp>
<bpm>0</bpm>
<rpm>0.00</rpm>
</extensions>
</trkpt>
<trkpt lat="30.894598007" lon="34.800895691">
<ele>540.843750</ele>
<time>2013-11-20T13:49:34Z</time>
<speed>3.530000</speed>
<extensions>
<speed>3.5</speed>
<temp>0.00</temp>
<bpm>0</bpm>
<rpm>0.00</rpm>
</extensions>
</trkpt>
<trkpt lat="30.894472122" lon="34.800979614">
<ele>541.609375</ele>
<time>2013-11-20T13:49:39Z</time>
<speed>2.660000</speed>
<extensions>
<speed>2.7</speed>
<temp>0.00</temp>
<bpm>0</bpm>
<rpm>0.00</rpm>
</extensions>
</trkpt>
<trkpt lat="30.894355774" lon="34.801055908">
<ele>541.218750</ele>
<time>2013-11-20T13:49:44Z</time>
<speed>3.710000</speed>
<extensions>
<speed>3.7</speed>
<temp>0.00</temp>
<bpm>0</bpm>
<rpm>0.00</rpm>
</extensions>
</trkpt>
<trkpt lat="30.894187927" lon="34.801067352">
<ele>539.984375</ele>
<time>2013-11-20T13:49:49Z</time>
<speed>3.190000</speed>
<extensions>
<speed>3.2</speed>
<temp>0.00</temp>
<bpm>0</bpm>
<rpm>0.00</rpm>
</extensions>
</trkpt>
<trkpt lat="30.894092560" lon="34.801113129">
<ele>540.281250</ele>
<time>2013-11-20T13:49:54Z</time>
<speed>2.350000</speed>
<extensions>
<speed>2.4</speed>
<temp>0.00</temp>
<bpm>0</bpm>
<rpm>0.00</rpm>
</extensions>
</trkpt>
<trkpt lat="30.894048691" lon="34.801162720">
<ele>541.203125</ele>
<time>2013-11-20T13:49:59Z</time>
<speed>0.160000</speed>
<extensions>
<speed>0.2</speed>
<temp>0.00</temp>
<bpm>0</bpm>
<rpm>0.00</rpm>
</extensions>
</trkpt>
<trkpt lat="30.894054413" lon="34.801158905">
<ele>540.531250</ele>
<time>2013-11-20T13:50:04Z</time>
<speed>0.050000</speed>
<extensions>
<speed>0.1</speed>
<temp>0.00</temp>
<bpm>0</bpm>
<rpm>0.00</rpm>
</extensions>
</trkpt>
<trkpt lat="30.894054413" lon="34.801158905">
<ele>540.593750</ele>
<time>2013-11-20T13:50:09Z</time>
<extensions>
<speed>0.0</speed>
<temp>0.00</temp>
<bpm>0</bpm>
<rpm>0.00</rpm>
</extensions>
</trkpt>
<trkpt lat="30.894054413" lon="34.801158905">
<ele>540.625000</ele>
<time>2013-11-20T13:50:14Z</time>
<speed>0.010000</speed>
<extensions>
<speed>0.0</speed>
<temp>0.00</temp>
<bpm>0</bpm>
<rpm>0.00</rpm>
</extensions>
</trkpt>
<trkpt lat="30.894054413" lon="34.801158905">
<ele>540.640625</ele>
<time>2013-11-20T13:50:19Z</time>
<extensions>
<speed>0.0</speed>
<temp>0.00</temp>
<bpm>0</bpm>
<rpm>0.00</rpm>
</extensions>
</trkpt>
<trkpt lat="30.894054413" lon="34.801162720">
<ele>540.609375</ele>
<time>2013-11-20T13:50:24Z</time>
<extensions>
<speed>0.0</speed>
<temp>0.00</temp>
<bpm>0</bpm>
<rpm>0.00</rpm>
</extensions>
</trkpt>
<trkpt lat="30.894054413" lon="34.801162720">
<ele>540.609375</ele>
<time>2013-11-20T13:50:29Z</time>
<speed>0.010000</speed>
<extensions>
<speed>0.0</speed>
<temp>0.00</temp>
<bpm>0</bpm>
<rpm>0.00</rpm>
</extensions>
</trkpt>
<trkpt lat="30.894044876" lon="34.801136017">
<ele>540.140625</ele>
<time>2013-11-20T13:50:34Z</time>
<speed>1.030000</speed>
<extensions>
<speed>1.0</speed>
<temp>0.00</temp>
<bpm>0</bpm>
<rpm>0.00</rpm>
</extensions>
</trkpt>
<trkpt lat="30.893997192" lon="34.801063538">
<ele>538.781250</ele>
<time>2013-11-20T13:50:39Z</time>
<speed>1.940000</speed>
<extensions>
<speed>1.9</speed>
<temp>0.00</temp>
<bpm>0</bpm>
<rpm>0.00</rpm>
</extensions>
</trkpt>
<trkpt lat="30.893918991" lon="34.801059723">
<ele>538.484375</ele>
<time>2013-11-20T13:50:44Z</time>
<speed>2.020000</speed>
<extensions>
<speed>2.0</speed>
<temp>0.00</temp>
<bpm>0</bpm>
<rpm>0.00</rpm>
</extensions>
</trkpt>
<trkpt lat="30.893859863" lon="34.801063538">
<ele>538.046875</ele>
<time>2013-11-20T13:50:49Z</time>
<speed>1.610000</speed>
<extensions>
<speed>1.6</speed>
<temp>0.00</temp>
<bpm>0</bpm>
<rpm>0.00</rpm>
</extensions>
</trkpt>
<trkpt lat="30.893785477" lon="34.801067352">
<ele>537.875000</ele>
<time>2013-11-20T13:50:54Z</time>
<speed>1.720000</speed>
<extensions>
<speed>1.7</speed>
<temp>0.00</temp>
<bpm>0</bpm>
<rpm>0.00</rpm>
</extensions>
</trkpt>
<trkpt lat="30.893709183" lon="34.801086426">
<ele>537.875000</ele>
<time>2013-11-20T13:50:59Z</time>
<speed>1.840000</speed>
<extensions>
<speed>1.8</speed>
<temp>0.00</temp>
<bpm>0</bpm>
<rpm>0.00</rpm>
</extensions>
</trkpt>
<trkpt lat="30.893663406" lon="34.801105499">
<ele>537.968750</ele>
<time>2013-11-20T13:51:04Z</time>
<speed>0.030000</speed>
<extensions>
<speed>0.0</speed>
<temp>0.00</temp>
<bpm>0</bpm>
<rpm>0.00</rpm>
</extensions>
</trkpt>
<trkpt lat="30.893636703" lon="34.801116943">
<ele>538.312500</ele>
<time>2013-11-20T13:51:09Z</time>
<speed>0.940000</speed>
<extensions>
<speed>0.9</speed>
<temp>0.00</temp>
<bpm>0</bpm>
<rpm>0.00</rpm>
</extensions>
</trkpt>
<trkpt lat="30.893610001" lon="34.801124573">
<ele>538.281250</ele>
<time>2013-11-20T13:51:14Z</time>
<speed>0.150000</speed>
<extensions>
<speed>0.2</speed>
<temp>0.00</temp>
<bpm>0</bpm>
<rpm>0.00</rpm>
</extensions>
</trkpt>
<trkpt lat="30.893575668" lon="34.801136017">
<ele>537.828125</ele>
<time>2013-11-20T13:51:19Z</time>
<speed>0.940000</speed>
<extensions>
<speed>0.9</speed>
<temp>0.00</temp>
<bpm>0</bpm>
<rpm>0.00</rpm>
</extensions>
</trkpt>
<trkpt lat="30.893522263" lon="34.801151276">
<ele>535.906250</ele>
<time>2013-11-20T13:51:24Z</time>
<speed>1.140000</speed>
<extensions>
<speed>1.1</speed>
<temp>0.00</temp>
<bpm>0</bpm>
<rpm>0.00</rpm>
</extensions>
</trkpt>
<trkpt lat="30.893484116" lon="34.801136017">
<ele>536.031250</ele>
<time>2013-11-20T13:51:29Z</time>
<speed>0.790000</speed>
<extensions>
<speed>0.8</speed>
<temp>0.00</temp>
<bpm>0</bpm>
<rpm>0.00</rpm>
</extensions>
</trkpt>
<trkpt lat="30.893445969" lon="34.801120758">
<ele>536.203125</ele>
<time>2013-11-20T13:51:34Z</time>
<speed>0.820000</speed>
<extensions>
<speed>0.8</speed>
<temp>0.00</temp>
<bpm>0</bpm>
<rpm>0.00</rpm>
</extensions>
</trkpt>
<trkpt lat="30.893423080" lon="34.801124573">
<ele>534.515625</ele>
<time>2013-11-20T13:51:39Z</time>
<speed>0.220000</speed>
<extensions>
<speed>0.2</speed>
<temp>0.00</temp>
<bpm>0</bpm>
<rpm>0.00</rpm>
</extensions>
</trkpt>
<trkpt lat="30.893421173" lon="34.801132202">
<ele>533.750000</ele>
<time>2013-11-20T13:51:44Z</time>
<speed>0.690000</speed>
<extensions>
<speed>0.7</speed>
<temp>0.00</temp>
<bpm>0</bpm>
<rpm>0.00</rpm>
</extensions>
</trkpt>
<trkpt lat="30.893386841" lon="34.801136017">
<ele>533.843750</ele>
<time>2013-11-20T13:51:49Z</time>
<speed>0.920000</speed>
<extensions>
<speed>0.9</speed>
<temp>0.00</temp>
<bpm>0</bpm>
<rpm>0.00</rpm>
</extensions>
</trkpt>
<trkpt lat="30.893346786" lon="34.801155090">
<ele>533.656250</ele>
<time>2013-11-20T13:51:54Z</time>
<speed>1.010000</speed>
<extensions>
<speed>1.0</speed>
<temp>0.00</temp>
<bpm>0</bpm>
<rpm>0.00</rpm>
</extensions>
</trkpt>
<trkpt lat="30.893301010" lon="34.801174164">
<ele>533.859375</ele>
<time>2013-11-20T13:51:59Z</time>
<speed>0.880000</speed>
<extensions>
<speed>0.9</speed>
<temp>0.00</temp>
<bpm>0</bpm>
<rpm>0.00</rpm>
</extensions>
</trkpt>
<trkpt lat="30.893266678" lon="34.801208496">
<ele>533.765625</ele>
<time>2013-11-20T13:52:04Z</time>
<speed>0.950000</speed>
<extensions>
<speed>1.0</speed>
<temp>0.00</temp>
<bpm>0</bpm>
<rpm>0.00</rpm>
</extensions>
</trkpt>
<trkpt lat="30.893238068" lon="34.801246643">
<ele>534.125000</ele>
<time>2013-11-20T13:52:09Z</time>
<speed>0.950000</speed>
<extensions>
<speed>1.0</speed>
<temp>0.00</temp>
<bpm>0</bpm>
<rpm>0.00</rpm>
</extensions>
</trkpt>
<trkpt lat="30.893218994" lon="34.801284790">
<ele>534.750000</ele>
<time>2013-11-20T13:52:14Z</time>
<speed>0.990000</speed>
<extensions>
<speed>1.0</speed>
<temp>0.00</temp>
<bpm>0</bpm>
<rpm>0.00</rpm>
</extensions>
</trkpt>
<trkpt lat="30.893198013" lon="34.801315308">
<ele>534.468750</ele>
<time>2013-11-20T13:52:19Z</time>
<speed>0.850000</speed>
<extensions>
<speed>0.8</speed>
<temp>0.00</temp>
<bpm>0</bpm>
<rpm>0.00</rpm>
</extensions>
</trkpt>
<trkpt lat="30.893171310" lon="34.801307678">
<ele>535.171875</ele>
<time>2013-11-20T13:52:24Z</time>
<speed>0.850000</speed>
<extensions>
<speed>0.8</speed>
<temp>0.00</temp>
<bpm>0</bpm>
<rpm>0.00</rpm>
</extensions>
</trkpt>
<trkpt lat="30.893136978" lon="34.801334381">
<ele>536.203125</ele>
<time>2013-11-20T13:52:29Z</time>
<speed>1.010000</speed>
<extensions>
<speed>1.0</speed>
<temp>0.00</temp>
<bpm>0</bpm>
<rpm>0.00</rpm>
</extensions>
</trkpt>
<trkpt lat="30.893093109" lon="34.801357269">
<ele>537.156250</ele>
<time>2013-11-20T13:52:34Z</time>
<speed>1.160000</speed>
<extensions>
<speed>1.2</speed>
<temp>0.00</temp>
<bpm>0</bpm>
<rpm>0.00</rpm>
</extensions>
</trkpt>
<trkpt lat="30.893053055" lon="34.801364899">
<ele>537.203125</ele>
<time>2013-11-20T13:52:39Z</time>
<speed>0.940000</speed>
<extensions>
<speed>0.9</speed>
<temp>0.00</temp>
<bpm>0</bpm>
<rpm>0.00</rpm>
</extensions>
</trkpt>
<trkpt lat="30.893018723" lon="34.801368713">
<ele>537.156250</ele>
<time>2013-11-20T13:52:44Z</time>
<speed>0.840000</speed>
<extensions>
<speed>0.8</speed>
<temp>0.00</temp>
<bpm>0</bpm>
<rpm>0.00</rpm>
</extensions>
</trkpt>
<trkpt lat="30.892990112" lon="34.801361084">
<ele>536.750000</ele>
<time>2013-11-20T13:52:49Z</time>
<speed>0.550000</speed>
<extensions>
<speed>0.6</speed>
<temp>0.00</temp>
<bpm>0</bpm>
<rpm>0.00</rpm>
</extensions>
</trkpt>
<trkpt lat="30.892951965" lon="34.801353455">
<ele>536.890625</ele>
<time>2013-11-20T13:52:54Z</time>
<speed>0.870000</speed>
<extensions>
<speed>0.9</speed>
<temp>0.00</temp>
<bpm>0</bpm>
<rpm>0.00</rpm>
</extensions>
</trkpt>
<trkpt lat="30.892910004" lon="34.801349640">
<ele>537.328125</ele>
<time>2013-11-20T13:52:59Z</time>
<speed>0.190000</speed>
<extensions>
<speed>0.2</speed>
<temp>0.00</temp>
<bpm>0</bpm>
<rpm>0.00</rpm>
</extensions>
</trkpt>
<trkpt lat="30.892915726" lon="34.801357269">
<ele>537.125000</ele>
<time>2013-11-20T13:53:04Z</time>
<speed>0.320000</speed>
<extensions>
<speed>0.3</speed>
<temp>0.00</temp>
<bpm>0</bpm>
<rpm>0.00</rpm>
</extensions>
</trkpt>
<trkpt lat="30.892868042" lon="34.801380157">
<ele>537.078125</ele>
<time>2013-11-20T13:53:09Z</time>
<speed>1.860000</speed>
<extensions>
<speed>1.9</speed>
<temp>0.00</temp>
<bpm>0</bpm>
<rpm>0.00</rpm>
</extensions>
</trkpt>
<trkpt lat="30.892768860" lon="34.801422119">
<ele>536.875000</ele>
<time>2013-11-20T13:53:14Z</time>
<speed>2.660000</speed>
<extensions>
<speed>2.7</speed>
<temp>0.00</temp>
<bpm>0</bpm>
<rpm>0.00</rpm>
</extensions>
</trkpt>
<trkpt lat="30.892650604" lon="34.801437378">
<ele>536.203125</ele>
<time>2013-11-20T13:53:19Z</time>
<speed>2.920000</speed>
<extensions>
<speed>2.9</speed>
<temp>0.00</temp>
<bpm>0</bpm>
<rpm>0.00</rpm>
</extensions>
</trkpt>
<trkpt lat="30.892526627" lon="34.801425934">
<ele>535.609375</ele>
<time>2013-11-20T13:53:24Z</time>
<speed>2.010000</speed>
<extensions>
<speed>2.0</speed>
<temp>0.00</temp>
<bpm>0</bpm>
<rpm>0.00</rpm>
</extensions>
</trkpt>
<trkpt lat="30.892446518" lon="34.801418304">
<ele>535.468750</ele>
<time>2013-11-20T13:53:29Z</time>
<speed>1.950000</speed>
<extensions>
<speed>1.9</speed>
<temp>0.00</temp>
<bpm>0</bpm>
<rpm>0.00</rpm>
</extensions>
</trkpt>
<trkpt lat="30.892330170" lon="34.801410675">
<ele>534.859375</ele>
<time>2013-11-20T13:53:34Z</time>
<speed>2.850000</speed>
<extensions>
<speed>2.9</speed>
<temp>0.00</temp>
<bpm>0</bpm>
<rpm>0.00</rpm>
</extensions>
</trkpt>
<trkpt lat="30.892192841" lon="34.801414490">
<ele>533.937500</ele>
<time>2013-11-20T13:53:39Z</time>
<speed>2.920000</speed>
<extensions>
<speed>2.9</speed>
<temp>0.00</temp>
<bpm>0</bpm>
<rpm>0.00</rpm>
</extensions>
</trkpt>
<trkpt lat="30.892034531" lon="34.801429749">
<ele>532.203125</ele>
<time>2013-11-20T13:53:44Z</time>
<speed>4.510000</speed>
<extensions>
<speed>4.5</speed>
<temp>0.00</temp>
<bpm>0</bpm>
<rpm>0.00</rpm>
</extensions>
</trkpt>
<trkpt lat="30.891830444" lon="34.801445007">
<ele>529.328125</ele>
<time>2013-11-20T13:53:49Z</time>
<speed>4.600000</speed>
<extensions>
<speed>4.6</speed>
<temp>0.00</temp>
<bpm>0</bpm>
<rpm>0.00</rpm>
</extensions>
</trkpt>
<trkpt lat="30.891607285" lon="34.801479340">
<ele>527.843750</ele>
<time>2013-11-20T13:53:54Z</time>
<speed>5.090000</speed>
<extensions>
<speed>5.1</speed>
<temp>0.00</temp>
<bpm>0</bpm>
<rpm>0.00</rpm>
</extensions>
</trkpt>
<trkpt lat="30.891365051" lon="34.801483154">
<ele>525.906250</ele>
<time>2013-11-20T13:53:59Z</time>
<speed>4.760000</speed>
<extensions>
<speed>4.8</speed>
<temp>0.00</temp>
<bpm>0</bpm>
<rpm>0.00</rpm>
</extensions>
</trkpt>
<trkpt lat="30.891244888" lon="34.801494598">
<ele>525.390625</ele>
<time>2013-11-20T13:54:04Z</time>
<speed>0.100000</speed>
<extensions>
<speed>0.1</speed>
<temp>0.00</temp>
<bpm>0</bpm>
<rpm>0.00</rpm>
</extensions>
</trkpt>
<trkpt lat="30.891244888" lon="34.801494598">
<ele>525.968750</ele>
<time>2013-11-20T13:54:09Z</time>
<speed>0.050000</speed>
<extensions>
<speed>0.1</speed>
<temp>0.00</temp>
<bpm>0</bpm>
<rpm>0.00</rpm>
</extensions>
</trkpt>
<trkpt lat="30.891237259" lon="34.801498413">
<ele>525.484375</ele>
<time>2013-11-20T13:54:14Z</time>
<speed>0.020000</speed>
<extensions>
<speed>0.0</speed>
<temp>0.00</temp>
<bpm>0</bpm>
<rpm>0.00</rpm>
</extensions>
</trkpt>
<trkpt lat="30.891237259" lon="34.801498413">
<ele>525.437500</ele>
<time>2013-11-20T13:54:19Z</time>
<speed>0.020000</speed>
<extensions>
<speed>0.0</speed>
<temp>0.00</temp>
<bpm>0</bpm>
<rpm>0.00</rpm>
</extensions>
</trkpt>
<trkpt lat="30.891166687" lon="34.801494598">
<ele>525.218750</ele>
<time>2013-11-20T13:54:24Z</time>
<speed>2.900000</speed>
<extensions>
<speed>2.9</speed>
<temp>0.00</temp>
<bpm>0</bpm>
<rpm>0.00</rpm>
</extensions>
</trkpt>
<trkpt lat="30.890985489" lon="34.801486969">
<ele>524.046875</ele>
<time>2013-11-20T13:54:29Z</time>
<speed>4.830000</speed>
<extensions>
<speed>4.8</speed>
<temp>0.00</temp>
<bpm>0</bpm>
<rpm>0.00</rpm>
</extensions>
</trkpt>
<trkpt lat="30.890792847" lon="34.801475525">
<ele>521.562500</ele>
<time>2013-11-20T13:54:34Z</time>
<speed>3.650000</speed>
<extensions>
<speed>3.7</speed>
<temp>0.00</temp>
<bpm>0</bpm>
<rpm>0.00</rpm>
</extensions>
</trkpt>
<trkpt lat="30.890607834" lon="34.801483154">
<ele>519.578125</ele>
<time>2013-11-20T13:54:39Z</time>
<speed>4.560000</speed>
<extensions>
<speed>4.6</speed>
<temp>0.00</temp>
<bpm>0</bpm>
<rpm>0.00</rpm>
</extensions>
</trkpt>
<trkpt lat="30.890367508" lon="34.801399231">
<ele>517.078125</ele>
<time>2013-11-20T13:54:44Z</time>
<speed>6.450000</speed>
<extensions>
<speed>6.4</speed>
<temp>0.00</temp>
<bpm>0</bpm>
<rpm>0.00</rpm>
</extensions>
</trkpt>
<trkpt lat="30.890094757" lon="34.801349640">
<ele>514.562500</ele>
<time>2013-11-20T13:54:49Z</time>
<speed>6.450000</speed>
<extensions>
<speed>6.4</speed>
<temp>0.00</temp>
<bpm>0</bpm>
<rpm>0.00</rpm>
</extensions>
</trkpt>
<trkpt lat="30.889839172" lon="34.801437378">
<ele>512.265625</ele>
<time>2013-11-20T13:54:54Z</time>
<speed>5.120000</speed>
<extensions>
<speed>5.1</speed>
<temp>0.00</temp>
<bpm>0</bpm>
<rpm>0.00</rpm>
</extensions>
</trkpt>
<trkpt lat="30.889638901" lon="34.801483154">
<ele>509.625000</ele>
<time>2013-11-20T13:54:59Z</time>
<speed>4.500000</speed>
<extensions>
<speed>4.5</speed>
<temp>0.00</temp>
<bpm>0</bpm>
<rpm>0.00</rpm>
</extensions>
</trkpt>
<trkpt lat="30.889486313" lon="34.801486969">
<ele>507.968750</ele>
<time>2013-11-20T13:55:04Z</time>
<speed>2.150000</speed>
<extensions>
<speed>2.1</speed>
<temp>0.00</temp>
<bpm>0</bpm>
<rpm>0.00</rpm>
</extensions>
</trkpt>
<trkpt lat="30.889394760" lon="34.801464081">
<ele>505.859375</ele>
<time>2013-11-20T13:55:09Z</time>
<speed>2.400000</speed>
<extensions>
<speed>2.4</speed>
<temp>0.00</temp>
<bpm>0</bpm>
<rpm>0.00</rpm>
</extensions>
</trkpt>
<trkpt lat="30.889312744" lon="34.801494598">
<ele>504.726563</ele>
<time>2013-11-20T13:55:14Z</time>
<speed>1.390000</speed>
<extensions>
<speed>1.4</speed>
<temp>0.00</temp>
<bpm>0</bpm>
<rpm>0.00</rpm>
</extensions>
</trkpt>
<trkpt lat="30.889236450" lon="34.801506042">
<ele>504.085938</ele>
<time>2013-11-20T13:55:19Z</time>
<speed>2.360000</speed>
<extensions>
<speed>2.4</speed>
<temp>0.00</temp>
<bpm>0</bpm>
<rpm>0.00</rpm>
</extensions>
</trkpt>
<trkpt lat="30.889127731" lon="34.801506042">
<ele>503.929688</ele>
<time>2013-11-20T13:55:24Z</time>
<speed>2.950000</speed>
<extensions>
<speed>2.9</speed>
<temp>0.00</temp>
<bpm>0</bpm>
<rpm>0.00</rpm>
</extensions>
</trkpt>
<trkpt lat="30.889036179" lon="34.801517487">
<ele>502.757813</ele>
<time>2013-11-20T13:55:29Z</time>
<speed>1.140000</speed>
<extensions>
<speed>1.1</speed>
<temp>0.00</temp>
<bpm>0</bpm>
<rpm>0.00</rpm>
</extensions>
</trkpt>
<trkpt lat="30.889041901" lon="34.801517487">
<ele>502.843750</ele>
<time>2013-11-20T13:55:34Z</time>
<speed>0.590000</speed>
<extensions>
<speed>0.6</speed>
<temp>0.00</temp>
<bpm>0</bpm>
<rpm>0.00</rpm>
</extensions>
</trkpt>
<trkpt lat="30.888948441" lon="34.801548004">
<ele>501.960938</ele>
<time>2013-11-20T13:55:39Z</time>
<speed>3.480000</speed>
<extensions>
<speed>3.5</speed>
<temp>0.00</temp>
<bpm>0</bpm>
<rpm>0.00</rpm>
</extensions>
</trkpt>
<trkpt lat="30.888828278" lon="34.801582336">
<ele>501.507813</ele>
<time>2013-11-20T13:55:44Z</time>
<speed>2.310000</speed>
<extensions>
<speed>2.3</speed>
<temp>0.00</temp>
<bpm>0</bpm>
<rpm>0.00</rpm>
</extensions>
</trkpt>
<trkpt lat="30.888727188" lon="34.801624298">
<ele>501.382813</ele>
<time>2013-11-20T13:55:49Z</time>
<speed>2.840000</speed>
<extensions>
<speed>2.8</speed>
<temp>0.00</temp>
<bpm>0</bpm>
<rpm>0.00</rpm>
</extensions>
</trkpt>
<trkpt lat="30.888586044" lon="34.801631927">
<ele>501.281250</ele>
<time>2013-11-20T13:55:54Z</time>
<speed>2.290000</speed>
<extensions>
<speed>2.3</speed>
<temp>0.00</temp>
<bpm>0</bpm>
<rpm>0.00</rpm>
</extensions>
</trkpt>
<trkpt lat="30.888477325" lon="34.801631927">
<ele>500.789063</ele>
<time>2013-11-20T13:55:59Z</time>
<speed>2.840000</speed>
<extensions>
<speed>2.8</speed>
<temp>0.00</temp>
<bpm>0</bpm>
<rpm>0.00</rpm>
</extensions>
</trkpt>
<trkpt lat="30.888347626" lon="34.801555634">
<ele>499.843750</ele>
<time>2013-11-20T13:56:04Z</time>
<speed>3.300000</speed>
<extensions>
<speed>3.3</speed>
<temp>0.00</temp>
<bpm>0</bpm>
<rpm>0.00</rpm>
</extensions>
</trkpt>
<trkpt lat="30.888210297" lon="34.801441193">
<ele>498.492188</ele>
<time>2013-11-20T13:56:09Z</time>
<speed>3.110000</speed>
<extensions>
<speed>3.1</speed>
<temp>0.00</temp>
<bpm>0</bpm>
<rpm>0.00</rpm>
</extensions>
</trkpt>
<trkpt lat="30.888101578" lon="34.801456451">
<ele>497.843750</ele>
<time>2013-11-20T13:56:14Z</time>
<speed>2.810000</speed>
<extensions>
<speed>2.8</speed>
<temp>0.00</temp>
<bpm>0</bpm>
<rpm>0.00</rpm>
</extensions>
</trkpt>
<trkpt lat="30.888042450" lon="34.801574707">
<ele>497.500000</ele>
<time>2013-11-20T13:56:19Z</time>
<speed>3.090000</speed>
<extensions>
<speed>3.1</speed>
<temp>0.00</temp>
<bpm>0</bpm>
<rpm>0.00</rpm>
</extensions>
</trkpt>
<trkpt lat="30.887950897" lon="34.801620483">
<ele>499.148438</ele>
<time>2013-11-20T13:56:24Z</time>
<speed>1.250000</speed>
<extensions>
<speed>1.3</speed>
<temp>0.00</temp>
<bpm>0</bpm>
<rpm>0.00</rpm>
</extensions>
</trkpt>
<trkpt lat="30.887905121" lon="34.801692963">
<ele>499.109375</ele>
<time>2013-11-20T13:56:29Z</time>
<speed>1.860000</speed>
<extensions>
<speed>1.9</speed>
<temp>0.00</temp>
<bpm>0</bpm>
<rpm>0.00</rpm>
</extensions>
</trkpt>
<trkpt lat="30.887914658" lon="34.801784515">
<ele>498.937500</ele>
<time>2013-11-20T13:56:34Z</time>
<speed>1.830000</speed>
<extensions>
<speed>1.8</speed>
<temp>0.00</temp>
<bpm>0</bpm>
<rpm>0.00</rpm>
</extensions>
</trkpt>
<trkpt lat="30.887870789" lon="34.801864624">
<ele>498.640625</ele>
<time>2013-11-20T13:56:39Z</time>
<speed>2.130000</speed>
<extensions>
<speed>2.1</speed>
<temp>0.00</temp>
<bpm>0</bpm>
<rpm>0.00</rpm>
</extensions>
</trkpt>
<trkpt lat="30.887798309" lon="34.801872253">
<ele>499.695313</ele>
<time>2013-11-20T13:56:44Z</time>
<speed>0.210000</speed>
<extensions>
<speed>0.2</speed>
<temp>0.00</temp>
<bpm>0</bpm>
<rpm>0.00</rpm>
</extensions>
</trkpt>
<trkpt lat="30.887798309" lon="34.801864624">
<ele>499.890625</ele>
<time>2013-11-20T13:56:49Z</time>
<speed>0.020000</speed>
<extensions>
<speed>0.0</speed>
<temp>0.00</temp>
<bpm>0</bpm>
<rpm>0.00</rpm>
</extensions>
</trkpt>
<trkpt lat="30.887798309" lon="34.801860809">
<ele>499.914063</ele>
<time>2013-11-20T13:56:54Z</time>
<speed>0.050000</speed>
<extensions>
<speed>0.1</speed>
<temp>0.00</temp>
<bpm>0</bpm>
<rpm>0.00</rpm>
</extensions>
</trkpt>
<trkpt lat="30.887798309" lon="34.801860809">
<ele>499.820313</ele>
<time>2013-11-20T13:56:59Z</time>
<extensions>
<speed>0.0</speed>
<temp>0.00</temp>
<bpm>0</bpm>
<rpm>0.00</rpm>
</extensions>
</trkpt>
<trkpt lat="30.887798309" lon="34.801860809">
<ele>499.812500</ele>
<time>2013-11-20T13:57:04Z</time>
<extensions>
<speed>0.0</speed>
<temp>0.00</temp>
<bpm>0</bpm>
<rpm>0.00</rpm>
</extensions>
</trkpt>
<trkpt lat="30.887798309" lon="34.801860809">
<ele>499.789063</ele>
<time>2013-11-20T13:57:09Z</time>
<extensions>
<speed>0.0</speed>
<temp>0.00</temp>
<bpm>0</bpm>
<rpm>0.00</rpm>
</extensions>
</trkpt>
<trkpt lat="30.887798309" lon="34.801860809">
<ele>499.750000</ele>
<time>2013-11-20T13:57:14Z</time>
<extensions>
<speed>0.0</speed>
<temp>0.00</temp>
<bpm>0</bpm>
<rpm>0.00</rpm>
</extensions>
</trkpt>
<trkpt lat="30.887798309" lon="34.801860809">
<ele>499.734375</ele>
<time>2013-11-20T13:57:19Z</time>
<extensions>
<speed>0.0</speed>
<temp>0.00</temp>
<bpm>0</bpm>
<rpm>0.00</rpm>
</extensions>
</trkpt>
<trkpt lat="30.887798309" lon="34.801860809">
<ele>499.742188</ele>
<time>2013-11-20T13:57:24Z</time>
<extensions>
<speed>0.0</speed>
<temp>0.00</temp>
<bpm>0</bpm>
<rpm>0.00</rpm>
</extensions>
</trkpt>
<trkpt lat="30.887798309" lon="34.801860809">
<ele>499.742188</ele>
<time>2013-11-20T13:57:29Z</time>
<extensions>
<speed>0.0</speed>
<temp>0.00</temp>
<bpm>0</bpm>
<rpm>0.00</rpm>
</extensions>
</trkpt>
<trkpt lat="30.887798309" lon="34.801860809">
<ele>499.734375</ele>
<time>2013-11-20T13:57:34Z</time>
<extensions>
<speed>0.0</speed>
<temp>0.00</temp>
<bpm>0</bpm>
<rpm>0.00</rpm>
</extensions>
</trkpt>
<trkpt lat="30.887798309" lon="34.801860809">
<ele>499.734375</ele>
<time>2013-11-20T13:57:39Z</time>
<extensions>
<speed>0.0</speed>
<temp>0.00</temp>
<bpm>0</bpm>
<rpm>0.00</rpm>
</extensions>
</trkpt>
<trkpt lat="30.887798309" lon="34.801860809">
<ele>499.726563</ele>
<time>2013-11-20T13:57:44Z</time>
<speed>0.010000</speed>
<extensions>
<speed>0.0</speed>
<temp>0.00</temp>
<bpm>0</bpm>
<rpm>0.00</rpm>
</extensions>
</trkpt>
<trkpt lat="30.887798309" lon="34.801860809">
<ele>499.726563</ele>
<time>2013-11-20T13:57:49Z</time>
<extensions>
<speed>0.0</speed>
<temp>0.00</temp>
<bpm>0</bpm>
<rpm>0.00</rpm>
</extensions>
</trkpt>
<trkpt lat="30.887798309" lon="34.801860809">
<ele>499.726563</ele>
<time>2013-11-20T13:57:54Z</time>
<extensions>
<speed>0.0</speed>
<temp>0.00</temp>
<bpm>0</bpm>
<rpm>0.00</rpm>
</extensions>
</trkpt>
<trkpt lat="30.887798309" lon="34.801860809">
<ele>499.726563</ele>
<time>2013-11-20T13:57:59Z</time>
<extensions>
<speed>0.0</speed>
<temp>0.00</temp>
<bpm>0</bpm>
<rpm>0.00</rpm>
</extensions>
</trkpt>
<trkpt lat="30.887798309" lon="34.801860809">
<ele>499.718750</ele>
<time>2013-11-20T13:58:04Z</time>
<extensions>
<speed>0.0</speed>
<temp>0.00</temp>
<bpm>0</bpm>
<rpm>0.00</rpm>
</extensions>
</trkpt>
<trkpt lat="30.887798309" lon="34.801860809">
<ele>499.710938</ele>
<time>2013-11-20T13:58:09Z</time>
<speed>0.020000</speed>
<extensions>
<speed>0.0</speed>
<temp>0.00</temp>
<bpm>0</bpm>
<rpm>0.00</rpm>
</extensions>
</trkpt>
<trkpt lat="30.887798309" lon="34.801860809">
<ele>499.710938</ele>
<time>2013-11-20T13:58:14Z</time>
<speed>0.270000</speed>
<extensions>
<speed>0.3</speed>
<temp>0.00</temp>
<bpm>0</bpm>
<rpm>0.00</rpm>
</extensions>
</trkpt>
<trkpt lat="30.887777328" lon="34.801853180">
<ele>499.328125</ele>
<time>2013-11-20T13:58:19Z</time>
<speed>0.850000</speed>
<extensions>
<speed>0.8</speed>
<temp>0.00</temp>
<bpm>0</bpm>
<rpm>0.00</rpm>
</extensions>
</trkpt>
<trkpt lat="30.887758255" lon="34.801853180">
<ele>499.273438</ele>
<time>2013-11-20T13:58:24Z</time>
<speed>0.040000</speed>
<extensions>
<speed>0.0</speed>
<temp>0.00</temp>
<bpm>0</bpm>
<rpm>0.00</rpm>
</extensions>
</trkpt>
<trkpt lat="30.887758255" lon="34.801853180">
<ele>499.218750</ele>
<time>2013-11-20T13:58:29Z</time>
<extensions>
<speed>0.0</speed>
<temp>0.00</temp>
<bpm>0</bpm>
<rpm>0.00</rpm>
</extensions>
</trkpt>
<trkpt lat="30.887758255" lon="34.801853180">
<ele>499.171875</ele>
<time>2013-11-20T13:58:34Z</time>
<extensions>
<speed>0.0</speed>
<temp>0.00</temp>
<bpm>0</bpm>
<rpm>0.00</rpm>
</extensions>
</trkpt>
<trkpt lat="30.887758255" lon="34.801853180">
<ele>499.179688</ele>
<time>2013-11-20T13:58:39Z</time>
<extensions>
<speed>0.0</speed>
<temp>0.00</temp>
<bpm>0</bpm>
<rpm>0.00</rpm>
</extensions>
</trkpt>
<trkpt lat="30.887758255" lon="34.801853180">
<ele>499.179688</ele>
<time>2013-11-20T13:58:44Z</time>
<extensions>
<speed>0.0</speed>
<temp>0.00</temp>
<bpm>0</bpm>
<rpm>0.00</rpm>
</extensions>
</trkpt>
<trkpt lat="30.887758255" lon="34.801853180">
<ele>499.179688</ele>
<time>2013-11-20T13:58:49Z</time>
<extensions>
<speed>0.0</speed>
<temp>0.00</temp>
<bpm>0</bpm>
<rpm>0.00</rpm>
</extensions>
</trkpt>
<trkpt lat="30.887758255" lon="34.801853180">
<ele>499.179688</ele>
<time>2013-11-20T13:58:54Z</time>
<extensions>
<speed>0.0</speed>
<temp>0.00</temp>
<bpm>0</bpm>
<rpm>0.00</rpm>
</extensions>
</trkpt>
<trkpt lat="30.887758255" lon="34.801853180">
<ele>499.179688</ele>
<time>2013-11-20T13:58:59Z</time>
<extensions>
<speed>0.0</speed>
<temp>0.00</temp>
<bpm>0</bpm>
<rpm>0.00</rpm>
</extensions>
</trkpt>
<trkpt lat="30.887758255" lon="34.801853180">
<ele>499.195313</ele>
<time>2013-11-20T13:59:04Z</time>
<extensions>
<speed>0.0</speed>
<temp>0.00</temp>
<bpm>0</bpm>
<rpm>0.00</rpm>
</extensions>
</trkpt>
<trkpt lat="30.887758255" lon="34.801853180">
<ele>499.203125</ele>
<time>2013-11-20T13:59:09Z</time>
<extensions>
<speed>0.0</speed>
<temp>0.00</temp>
<bpm>0</bpm>
<rpm>0.00</rpm>
</extensions>
</trkpt>
<trkpt lat="30.887758255" lon="34.801853180">
<ele>499.210938</ele>
<time>2013-11-20T13:59:14Z</time>
<extensions>
<speed>0.0</speed>
<temp>0.00</temp>
<bpm>0</bpm>
<rpm>0.00</rpm>
</extensions>
</trkpt>
<trkpt lat="30.887758255" lon="34.801853180">
<ele>499.218750</ele>
<time>2013-11-20T13:59:19Z</time>
<extensions>
<speed>0.0</speed>
<temp>0.00</temp>
<bpm>0</bpm>
<rpm>0.00</rpm>
</extensions>
</trkpt>
<trkpt lat="30.887756348" lon="34.801853180">
<ele>499.226563</ele>
<time>2013-11-20T13:59:24Z</time>
<extensions>
<speed>0.0</speed>
<temp>0.00</temp>
<bpm>0</bpm>
<rpm>0.00</rpm>
</extensions>
</trkpt>
<trkpt lat="30.887756348" lon="34.801853180">
<ele>499.226563</ele>
<time>2013-11-20T13:59:29Z</time>
<extensions>
<speed>0.0</speed>
<temp>0.00</temp>
<bpm>0</bpm>
<rpm>0.00</rpm>
</extensions>
</trkpt>
<trkpt lat="30.887756348" lon="34.801853180">
<ele>499.234375</ele>
<time>2013-11-20T13:59:34Z</time>
<extensions>
<speed>0.0</speed>
<temp>0.00</temp>
<bpm>0</bpm>
<rpm>0.00</rpm>
</extensions>
</trkpt>
<trkpt lat="30.887756348" lon="34.801853180">
<ele>499.242188</ele>
<time>2013-11-20T13:59:39Z</time>
<extensions>
<speed>0.0</speed>
<temp>0.00</temp>
<bpm>0</bpm>
<rpm>0.00</rpm>
</extensions>
</trkpt>
<trkpt lat="30.887756348" lon="34.801853180">
<ele>499.242188</ele>
<time>2013-11-20T13:59:44Z</time>
<extensions>
<speed>0.0</speed>
<temp>0.00</temp>
<bpm>0</bpm>
<rpm>0.00</rpm>
</extensions>
</trkpt>
<trkpt lat="30.887756348" lon="34.801853180">
<ele>499.250000</ele>
<time>2013-11-20T13:59:49Z</time>
<extensions>
<speed>0.0</speed>
<temp>0.00</temp>
<bpm>0</bpm>
<rpm>0.00</rpm>
</extensions>
</trkpt>
<trkpt lat="30.887756348" lon="34.801853180">
<ele>499.257813</ele>
<time>2013-11-20T13:59:54Z</time>
<extensions>
<speed>0.0</speed>
<temp>0.00</temp>
<bpm>0</bpm>
<rpm>0.00</rpm>
</extensions>
</trkpt>
<trkpt lat="30.887756348" lon="34.801853180">
<ele>499.257813</ele>
<time>2013-11-20T13:59:59Z</time>
<speed>0.010000</speed>
<extensions>
<speed>0.0</speed>
<temp>0.00</temp>
<bpm>0</bpm>
<rpm>0.00</rpm>
</extensions>
</trkpt>
<trkpt lat="30.887750626" lon="34.801841736">
<ele>499.265625</ele>
<time>2013-11-20T14:00:04Z</time>
<speed>0.820000</speed>
<extensions>
<speed>0.8</speed>
<temp>0.00</temp>
<bpm>0</bpm>
<rpm>0.00</rpm>
</extensions>
</trkpt>
<trkpt lat="30.887739182" lon="34.801746368">
<ele>499.085938</ele>
<time>2013-11-20T14:00:09Z</time>
<speed>2.020000</speed>
<extensions>
<speed>2.0</speed>
<temp>0.00</temp>
<bpm>0</bpm>
<rpm>0.00</rpm>
</extensions>
</trkpt>
<trkpt lat="30.887731552" lon="34.801544189">
<ele>494.937500</ele>
<time>2013-11-20T14:00:14Z</time>
<speed>5.230000</speed>
<extensions>
<speed>5.2</speed>
<temp>0.00</temp>
<bpm>0</bpm>
<rpm>0.00</rpm>
</extensions>
</trkpt>
<trkpt lat="30.887735367" lon="34.801361084">
<ele>495.382813</ele>
<time>2013-11-20T14:00:19Z</time>
<speed>2.710000</speed>
<extensions>
<speed>2.7</speed>
<temp>0.00</temp>
<bpm>0</bpm>
<rpm>0.00</rpm>
</extensions>
</trkpt>
<trkpt lat="30.887737274" lon="34.801273346">
<ele>494.765625</ele>
<time>2013-11-20T14:00:24Z</time>
<speed>1.650000</speed>
<extensions>
<speed>1.7</speed>
<temp>0.00</temp>
<bpm>0</bpm>
<rpm>0.00</rpm>
</extensions>
</trkpt>
<trkpt lat="30.887746811" lon="34.801219940">
<ele>493.859375</ele>
<time>2013-11-20T14:00:29Z</time>
<speed>1.080000</speed>
<extensions>
<speed>1.1</speed>
<temp>0.00</temp>
<bpm>0</bpm>
<rpm>0.00</rpm>
</extensions>
</trkpt>
<trkpt lat="30.887756348" lon="34.801162720">
<ele>493.148438</ele>
<time>2013-11-20T14:00:34Z</time>
<speed>1.330000</speed>
<extensions>
<speed>1.3</speed>
<temp>0.00</temp>
<bpm>0</bpm>
<rpm>0.00</rpm>
</extensions>
</trkpt>
<trkpt lat="30.887750626" lon="34.801036835">
<ele>492.632813</ele>
<time>2013-11-20T14:00:39Z</time>
<speed>2.370000</speed>
<extensions>
<speed>2.4</speed>
<temp>0.00</temp>
<bpm>0</bpm>
<rpm>0.00</rpm>
</extensions>
</trkpt>
<trkpt lat="30.887735367" lon="34.800952911">
<ele>493.000000</ele>
<time>2013-11-20T14:00:44Z</time>
<speed>1.460000</speed>
<extensions>
<speed>1.5</speed>
<temp>0.00</temp>
<bpm>0</bpm>
<rpm>0.00</rpm>
</extensions>
</trkpt>
<trkpt lat="30.887702942" lon="34.800830841">
<ele>492.281250</ele>
<time>2013-11-20T14:00:49Z</time>
<speed>2.670000</speed>
<extensions>
<speed>2.7</speed>
<temp>0.00</temp>
<bpm>0</bpm>
<rpm>0.00</rpm>
</extensions>
</trkpt>
<trkpt lat="30.887647629" lon="34.800662994">
<ele>492.101563</ele>
<time>2013-11-20T14:00:54Z</time>
<speed>3.860000</speed>
<extensions>
<speed>3.9</speed>
<temp>0.00</temp>
<bpm>0</bpm>
<rpm>0.00</rpm>
</extensions>
</trkpt>
<trkpt lat="30.887617111" lon="34.800506592">
<ele>493.031250</ele>
<time>2013-11-20T14:00:59Z</time>
<speed>2.990000</speed>
<extensions>
<speed>3.0</speed>
<temp>0.00</temp>
<bpm>0</bpm>
<rpm>0.00</rpm>
</extensions>
</trkpt>
<trkpt lat="30.887617111" lon="34.800346375">
<ele>493.804688</ele>
<time>2013-11-20T14:01:04Z</time>
<speed>3.220000</speed>
<extensions>
<speed>3.2</speed>
<temp>0.00</temp>
<bpm>0</bpm>
<rpm>0.00</rpm>
</extensions>
</trkpt>
<trkpt lat="30.887594223" lon="34.800155640">
<ele>494.023438</ele>
<time>2013-11-20T14:01:09Z</time>
<speed>4.010000</speed>
<extensions>
<speed>4.0</speed>
<temp>0.00</temp>
<bpm>0</bpm>
<rpm>0.00</rpm>
</extensions>
</trkpt>
<trkpt lat="30.887601852" lon="34.799953461">
<ele>493.398438</ele>
<time>2013-11-20T14:01:14Z</time>
<speed>4.060000</speed>
<extensions>
<speed>4.1</speed>
<temp>0.00</temp>
<bpm>0</bpm>
<rpm>0.00</rpm>
</extensions>
</trkpt>
<trkpt lat="30.887590408" lon="34.799736023">
<ele>493.031250</ele>
<time>2013-11-20T14:01:19Z</time>
<speed>4.680000</speed>
<extensions>
<speed>4.7</speed>
<temp>0.00</temp>
<bpm>0</bpm>
<rpm>0.00</rpm>
</extensions>
</trkpt>
<trkpt lat="30.887538910" lon="34.799468994">
<ele>491.867188</ele>
<time>2013-11-20T14:01:24Z</time>
<speed>5.610000</speed>
<extensions>
<speed>5.6</speed>
<temp>0.00</temp>
<bpm>0</bpm>
<rpm>0.00</rpm>
</extensions>
</trkpt>
<trkpt lat="30.887540817" lon="34.799270630">
<ele>490.953125</ele>
<time>2013-11-20T14:01:29Z</time>
<speed>2.770000</speed>
<extensions>
<speed>2.8</speed>
<temp>0.00</temp>
<bpm>0</bpm>
<rpm>0.00</rpm>
</extensions>
</trkpt>
<trkpt lat="30.887542725" lon="34.799106598">
<ele>492.703125</ele>
<time>2013-11-20T14:01:34Z</time>
<speed>3.290000</speed>
<extensions>
<speed>3.3</speed>
<temp>0.00</temp>
<bpm>0</bpm>
<rpm>0.00</rpm>
</extensions>
</trkpt>
<trkpt lat="30.887514114" lon="34.798942566">
<ele>494.320313</ele>
<time>2013-11-20T14:01:39Z</time>
<speed>3.840000</speed>
<extensions>
<speed>3.8</speed>
<temp>0.00</temp>
<bpm>0</bpm>
<rpm>0.00</rpm>
</extensions>
</trkpt>
<trkpt lat="30.887434006" lon="34.798725128">
<ele>495.601563</ele>
<time>2013-11-20T14:01:44Z</time>
<speed>4.860000</speed>
<extensions>
<speed>4.9</speed>
<temp>0.00</temp>
<bpm>0</bpm>
<rpm>0.00</rpm>
</extensions>
</trkpt>
<trkpt lat="30.887371063" lon="34.798511505">
<ele>496.335938</ele>
<time>2013-11-20T14:01:49Z</time>
<speed>3.500000</speed>
<extensions>
<speed>3.5</speed>
<temp>0.00</temp>
<bpm>0</bpm>
<rpm>0.00</rpm>
</extensions>
</trkpt>
<trkpt lat="30.887313843" lon="34.798332214">
<ele>494.937500</ele>
<time>2013-11-20T14:01:54Z</time>
<speed>4.640000</speed>
<extensions>
<speed>4.6</speed>
<temp>0.00</temp>
<bpm>0</bpm>
<rpm>0.00</rpm>
</extensions>
</trkpt>
<trkpt lat="30.887243271" lon="34.798095703">
<ele>494.421875</ele>
<time>2013-11-20T14:01:59Z</time>
<speed>4.190000</speed>
<extensions>
<speed>4.2</speed>
<temp>0.00</temp>
<bpm>0</bpm>
<rpm>0.00</rpm>
</extensions>
</trkpt>
<trkpt lat="30.887214661" lon="34.797843933">
<ele>493.492188</ele>
<time>2013-11-20T14:02:04Z</time>
<speed>5.410000</speed>
<extensions>
<speed>5.4</speed>
<temp>0.00</temp>
<bpm>0</bpm>
<rpm>0.00</rpm>
</extensions>
</trkpt>
<trkpt lat="30.887193680" lon="34.797622681">
<ele>493.882813</ele>
<time>2013-11-20T14:02:09Z</time>
<speed>3.580000</speed>
<extensions>
<speed>3.6</speed>
<temp>0.00</temp>
<bpm>0</bpm>
<rpm>0.00</rpm>
</extensions>
</trkpt>
<trkpt lat="30.887100220" lon="34.797435760">
<ele>493.484375</ele>
<time>2013-11-20T14:02:14Z</time>
<speed>3.550000</speed>
<extensions>
<speed>3.5</speed>
<temp>0.00</temp>
<bpm>0</bpm>
<rpm>0.00</rpm>
</extensions>
</trkpt>
<trkpt lat="30.886999130" lon="34.797290802">
<ele>492.953125</ele>
<time>2013-11-20T14:02:19Z</time>
<speed>3.940000</speed>
<extensions>
<speed>3.9</speed>
<temp>0.00</temp>
<bpm>0</bpm>
<rpm>0.00</rpm>
</extensions>
</trkpt>
<trkpt lat="30.886873245" lon="34.797138214">
<ele>492.937500</ele>
<time>2013-11-20T14:02:24Z</time>
<speed>3.510000</speed>
<extensions>
<speed>3.5</speed>
<temp>0.00</temp>
<bpm>0</bpm>
<rpm>0.00</rpm>
</extensions>
</trkpt>
<trkpt lat="30.886762619" lon="34.796974182">
<ele>493.187500</ele>
<time>2013-11-20T14:02:29Z</time>
<speed>3.870000</speed>
<extensions>
<speed>3.9</speed>
<temp>0.00</temp>
<bpm>0</bpm>
<rpm>0.00</rpm>
</extensions>
</trkpt>
<trkpt lat="30.886682510" lon="34.796813965">
<ele>494.484375</ele>
<time>2013-11-20T14:02:34Z</time>
<speed>3.280000</speed>
<extensions>
<speed>3.3</speed>
<temp>0.00</temp>
<bpm>0</bpm>
<rpm>0.00</rpm>
</extensions>
</trkpt>
<trkpt lat="30.886581421" lon="34.796638489">
<ele>493.335938</ele>
<time>2013-11-20T14:02:39Z</time>
<speed>4.220000</speed>
<extensions>
<speed>4.2</speed>
<temp>0.00</temp>
<bpm>0</bpm>
<rpm>0.00</rpm>
</extensions>
</trkpt>
<trkpt lat="30.886482239" lon="34.796440125">
<ele>492.500000</ele>
<time>2013-11-20T14:02:44Z</time>
<speed>4.180000</speed>
<extensions>
<speed>4.2</speed>
<temp>0.00</temp>
<bpm>0</bpm>
<rpm>0.00</rpm>
</extensions>
</trkpt>
<trkpt lat="30.886436462" lon="34.796279907">
<ele>493.234375</ele>
<time>2013-11-20T14:02:49Z</time>
<speed>2.960000</speed>
<extensions>
<speed>3.0</speed>
<temp>0.00</temp>
<bpm>0</bpm>
<rpm>0.00</rpm>
</extensions>
</trkpt>
<trkpt lat="30.886335373" lon="34.796119690">
<ele>491.210938</ele>
<time>2013-11-20T14:02:54Z</time>
<speed>4.910000</speed>
<extensions>
<speed>4.9</speed>
<temp>0.00</temp>
<bpm>0</bpm>
<rpm>0.00</rpm>
</extensions>
</trkpt>
<trkpt lat="30.886177063" lon="34.795906067">
<ele>489.320313</ele>
<time>2013-11-20T14:02:59Z</time>
<speed>5.010000</speed>
<extensions>
<speed>5.0</speed>
<temp>0.00</temp>
<bpm>0</bpm>
<rpm>0.00</rpm>
</extensions>
</trkpt>
<trkpt lat="30.886041641" lon="34.795711517">
<ele>489.304688</ele>
<time>2013-11-20T14:03:04Z</time>
<speed>4.620000</speed>
<extensions>
<speed>4.6</speed>
<temp>0.00</temp>
<bpm>0</bpm>
<rpm>0.00</rpm>
</extensions>
</trkpt>
<trkpt lat="30.885919571" lon="34.795532227">
<ele>490.117188</ele>
<time>2013-11-20T14:03:09Z</time>
<speed>4.100000</speed>
<extensions>
<speed>4.1</speed>
<temp>0.00</temp>
<bpm>0</bpm>
<rpm>0.00</rpm>
</extensions>
</trkpt>
<trkpt lat="30.885852814" lon="34.795379639">
<ele>490.617188</ele>
<time>2013-11-20T14:03:14Z</time>
<speed>3.520000</speed>
<extensions>
<speed>3.5</speed>
<temp>0.00</temp>
<bpm>0</bpm>
<rpm>0.00</rpm>
</extensions>
</trkpt>
<trkpt lat="30.885841370" lon="34.795246124">
<ele>491.101563</ele>
<time>2013-11-20T14:03:19Z</time>
<speed>2.090000</speed>
<extensions>
<speed>2.1</speed>
<temp>0.00</temp>
<bpm>0</bpm>
<rpm>0.00</rpm>
</extensions>
</trkpt>
<trkpt lat="30.885810852" lon="34.795108795">
<ele>491.335938</ele>
<time>2013-11-20T14:03:24Z</time>
<speed>3.420000</speed>
<extensions>
<speed>3.4</speed>
<temp>0.00</temp>
<bpm>0</bpm>
<rpm>0.00</rpm>
</extensions>
</trkpt>
<trkpt lat="30.885696411" lon="34.794975281">
<ele>490.265625</ele>
<time>2013-11-20T14:03:29Z</time>
<speed>3.060000</speed>
<extensions>
<speed>3.1</speed>
<temp>0.00</temp>
<bpm>0</bpm>
<rpm>0.00</rpm>
</extensions>
</trkpt>
<trkpt lat="30.885591507" lon="34.794845581">
<ele>490.140625</ele>
<time>2013-11-20T14:03:34Z</time>
<speed>3.240000</speed>
<extensions>
<speed>3.2</speed>
<temp>0.00</temp>
<bpm>0</bpm>
<rpm>0.00</rpm>
</extensions>
</trkpt>
<trkpt lat="30.885498047" lon="34.794742584">
<ele>490.460938</ele>
<time>2013-11-20T14:03:39Z</time>
<speed>2.980000</speed>
<extensions>
<speed>3.0</speed>
<temp>0.00</temp>
<bpm>0</bpm>
<rpm>0.00</rpm>
</extensions>
</trkpt>
<trkpt lat="30.885383606" lon="34.794658661">
<ele>490.765625</ele>
<time>2013-11-20T14:03:44Z</time>
<speed>2.980000</speed>
<extensions>
<speed>3.0</speed>
<temp>0.00</temp>
<bpm>0</bpm>
<rpm>0.00</rpm>
</extensions>
</trkpt>
<trkpt lat="30.885265350" lon="34.794582367">
<ele>491.140625</ele>
<time>2013-11-20T14:03:49Z</time>
<speed>3.410000</speed>
<extensions>
<speed>3.4</speed>
<temp>0.00</temp>
<bpm>0</bpm>
<rpm>0.00</rpm>
</extensions>
</trkpt>
<trkpt lat="30.885095596" lon="34.794494629">
<ele>491.882813</ele>
<time>2013-11-20T14:03:54Z</time>
<speed>4.760000</speed>
<extensions>
<speed>4.8</speed>
<temp>0.00</temp>
<bpm>0</bpm>
<rpm>0.00</rpm>
</extensions>
</trkpt>
<trkpt lat="30.884889603" lon="34.794406891">
<ele>492.281250</ele>
<time>2013-11-20T14:03:59Z</time>
<speed>5.100000</speed>
<extensions>
<speed>5.1</speed>
<temp>0.00</temp>
<bpm>0</bpm>
<rpm>0.00</rpm>
</extensions>
</trkpt>
<trkpt lat="30.884658813" lon="34.794326782">
<ele>492.562500</ele>
<time>2013-11-20T14:04:04Z</time>
<speed>5.520000</speed>
<extensions>
<speed>5.5</speed>
<temp>0.00</temp>
<bpm>0</bpm>
<rpm>0.00</rpm>
</extensions>
</trkpt>
<trkpt lat="30.884401321" lon="34.794242859">
<ele>492.476563</ele>
<time>2013-11-20T14:04:09Z</time>
<speed>6.080000</speed>
<extensions>
<speed>6.1</speed>
<temp>0.00</temp>
<bpm>0</bpm>
<rpm>0.00</rpm>
</extensions>
</trkpt>
<trkpt lat="30.884128571" lon="34.794166565">
<ele>492.132813</ele>
<time>2013-11-20T14:04:14Z</time>
<speed>6.450000</speed>
<extensions>
<speed>6.4</speed>
<temp>0.00</temp>
<bpm>0</bpm>
<rpm>0.00</rpm>
</extensions>
</trkpt>
<trkpt lat="30.883832932" lon="34.794128418">
<ele>491.656250</ele>
<time>2013-11-20T14:04:19Z</time>
<speed>6.790000</speed>
<extensions>
<speed>6.8</speed>
<temp>0.00</temp>
<bpm>0</bpm>
<rpm>0.00</rpm>
</extensions>
</trkpt>
<trkpt lat="30.883523941" lon="34.794044495">
<ele>491.070313</ele>
<time>2013-11-20T14:04:24Z</time>
<speed>7.290000</speed>
<extensions>
<speed>7.3</speed>
<temp>0.00</temp>
<bpm>0</bpm>
<rpm>0.00</rpm>
</extensions>
</trkpt>
<trkpt lat="30.883190155" lon="34.793937683">
<ele>489.968750</ele>
<time>2013-11-20T14:04:29Z</time>
<speed>7.960000</speed>
<extensions>
<speed>8.0</speed>
<temp>0.00</temp>
<bpm>0</bpm>
<rpm>0.00</rpm>
</extensions>
</trkpt>
<trkpt lat="30.882831573" lon="34.793823242">
<ele>489.234375</ele>
<time>2013-11-20T14:04:34Z</time>
<speed>8.320000</speed>
<extensions>
<speed>8.3</speed>
<temp>0.00</temp>
<bpm>0</bpm>
<rpm>0.00</rpm>
</extensions>
</trkpt>
<trkpt lat="30.882459641" lon="34.793689728">
<ele>488.257813</ele>
<time>2013-11-20T14:04:39Z</time>
<speed>8.690000</speed>
<extensions>
<speed>8.7</speed>
<temp>0.00</temp>
<bpm>0</bpm>
<rpm>0.00</rpm>
</extensions>
</trkpt>
<trkpt lat="30.882085800" lon="34.793544769">
<ele>488.039063</ele>
<time>2013-11-20T14:04:44Z</time>
<speed>8.410000</speed>
<extensions>
<speed>8.4</speed>
<temp>0.00</temp>
<bpm>0</bpm>
<rpm>0.00</rpm>
</extensions>
</trkpt>
<trkpt lat="30.881746292" lon="34.793403625">
<ele>488.343750</ele>
<time>2013-11-20T14:04:49Z</time>
<speed>7.560000</speed>
<extensions>
<speed>7.6</speed>
<temp>0.00</temp>
<bpm>0</bpm>
<rpm>0.00</rpm>
</extensions>
</trkpt>
<trkpt lat="30.881437302" lon="34.793258667">
<ele>488.406250</ele>
<time>2013-11-20T14:04:54Z</time>
<speed>7.160000</speed>
<extensions>
<speed>7.2</speed>
<temp>0.00</temp>
<bpm>0</bpm>
<rpm>0.00</rpm>
</extensions>
</trkpt>
<trkpt lat="30.881158829" lon="34.793087006">
<ele>488.179688</ele>
<time>2013-11-20T14:04:59Z</time>
<speed>6.780000</speed>
<extensions>
<speed>6.8</speed>
<temp>0.00</temp>
<bpm>0</bpm>
<rpm>0.00</rpm>
</extensions>
</trkpt>
<trkpt lat="30.880903244" lon="34.792911530">
<ele>488.000000</ele>
<time>2013-11-20T14:05:04Z</time>
<speed>6.260000</speed>
<extensions>
<speed>6.3</speed>
<temp>0.00</temp>
<bpm>0</bpm>
<rpm>0.00</rpm>
</extensions>
</trkpt>
<trkpt lat="30.880674362" lon="34.792736053">
<ele>486.750000</ele>
<time>2013-11-20T14:05:09Z</time>
<speed>5.700000</speed>
<extensions>
<speed>5.7</speed>
<temp>0.00</temp>
<bpm>0</bpm>
<rpm>0.00</rpm>
</extensions>
</trkpt>
<trkpt lat="30.880475998" lon="34.792594910">
<ele>486.195313</ele>
<time>2013-11-20T14:05:14Z</time>
<speed>4.070000</speed>
<extensions>
<speed>4.1</speed>
<temp>0.00</temp>
<bpm>0</bpm>
<rpm>0.00</rpm>
</extensions>
</trkpt>
<trkpt lat="30.880369186" lon="34.792499542">
<ele>484.140625</ele>
<time>2013-11-20T14:05:19Z</time>
<speed>2.350000</speed>
<extensions>
<speed>2.4</speed>
<temp>0.00</temp>
<bpm>0</bpm>
<rpm>0.00</rpm>
</extensions>
</trkpt>
<trkpt lat="30.880290985" lon="34.792434692">
<ele>482.898438</ele>
<time>2013-11-20T14:05:24Z</time>
<speed>1.920000</speed>
<extensions>
<speed>1.9</speed>
<temp>0.00</temp>
<bpm>0</bpm>
<rpm>0.00</rpm>
</extensions>
</trkpt>
<trkpt lat="30.880229950" lon="34.792396545">
<ele>482.703125</ele>
<time>2013-11-20T14:05:29Z</time>
<speed>0.110000</speed>
<extensions>
<speed>0.1</speed>
<temp>0.00</temp>
<bpm>0</bpm>
<rpm>0.00</rpm>
</extensions>
</trkpt>
<trkpt lat="30.880226135" lon="34.792392731">
<ele>483.015625</ele>
<time>2013-11-20T14:05:34Z</time>
<extensions>
<speed>0.0</speed>
<temp>0.00</temp>
<bpm>0</bpm>
<rpm>0.00</rpm>
</extensions>
</trkpt>
<trkpt lat="30.880224228" lon="34.792392731">
<ele>483.101563</ele>
<time>2013-11-20T14:05:39Z</time>
<speed>0.040000</speed>
<extensions>
<speed>0.0</speed>
<temp>0.00</temp>
<bpm>0</bpm>
<rpm>0.00</rpm>
</extensions>
</trkpt>
<trkpt lat="30.880222321" lon="34.792392731">
<ele>483.171875</ele>
<time>2013-11-20T14:05:44Z</time>
<speed>0.110000</speed>
<extensions>
<speed>0.1</speed>
<temp>0.00</temp>
<bpm>0</bpm>
<rpm>0.00</rpm>
</extensions>
</trkpt>
<trkpt lat="30.880182266" lon="34.792434692">
<ele>483.648438</ele>
<time>2013-11-20T14:05:49Z</time>
<speed>2.200000</speed>
<extensions>
<speed>2.2</speed>
<temp>0.00</temp>
<bpm>0</bpm>
<rpm>0.00</rpm>
</extensions>
</trkpt>
<trkpt lat="30.880128860" lon="34.792568207">
<ele>483.843750</ele>
<time>2013-11-20T14:05:54Z</time>
<speed>2.820000</speed>
<extensions>
<speed>2.8</speed>
<temp>0.00</temp>
<bpm>0</bpm>
<rpm>0.00</rpm>
</extensions>
</trkpt>
<trkpt lat="30.880060196" lon="34.792739868">
<ele>484.835938</ele>
<time>2013-11-20T14:05:59Z</time>
<speed>4.540000</speed>
<extensions>
<speed>4.5</speed>
<temp>0.00</temp>
<bpm>0</bpm>
<rpm>0.00</rpm>
</extensions>
</trkpt>
<trkpt lat="30.879919052" lon="34.792991638">
<ele>484.179688</ele>
<time>2013-11-20T14:06:04Z</time>
<speed>7.010000</speed>
<extensions>
<speed>7.0</speed>
<temp>0.00</temp>
<bpm>0</bpm>
<rpm>0.00</rpm>
</extensions>
</trkpt>
<trkpt lat="30.879682541" lon="34.793327332">
<ele>482.835938</ele>
<time>2013-11-20T14:06:09Z</time>
<speed>8.490000</speed>
<extensions>
<speed>8.5</speed>
<temp>0.00</temp>
<bpm>0</bpm>
<rpm>0.00</rpm>
</extensions>
</trkpt>
<trkpt lat="30.879365921" lon="34.793579102">
<ele>481.398438</ele>
<time>2013-11-20T14:06:14Z</time>
<speed>8.210000</speed>
<extensions>
<speed>8.2</speed>
<temp>0.00</temp>
<bpm>0</bpm>
<rpm>0.00</rpm>
</extensions>
</trkpt>
<trkpt lat="30.879032135" lon="34.793704987">
<ele>481.054688</ele>
<time>2013-11-20T14:06:19Z</time>
<speed>7.310000</speed>
<extensions>
<speed>7.3</speed>
<temp>0.00</temp>
<bpm>0</bpm>
<rpm>0.00</rpm>
</extensions>
</trkpt>
<trkpt lat="30.878713608" lon="34.793800354">
<ele>480.710938</ele>
<time>2013-11-20T14:06:24Z</time>
<speed>7.350000</speed>
<extensions>
<speed>7.3</speed>
<temp>0.00</temp>
<bpm>0</bpm>
<rpm>0.00</rpm>
</extensions>
</trkpt>
<trkpt lat="30.878395081" lon="34.793861389">
<ele>480.226563</ele>
<time>2013-11-20T14:06:29Z</time>
<speed>6.240000</speed>
<extensions>
<speed>6.2</speed>
<temp>0.00</temp>
<bpm>0</bpm>
<rpm>0.00</rpm>
</extensions>
</trkpt>
<trkpt lat="30.878114700" lon="34.793926239">
<ele>479.578125</ele>
<time>2013-11-20T14:06:34Z</time>
<speed>6.470000</speed>
<extensions>
<speed>6.5</speed>
<temp>0.00</temp>
<bpm>0</bpm>
<rpm>0.00</rpm>
</extensions>
</trkpt>
<trkpt lat="30.877855301" lon="34.794002533">
<ele>479.671875</ele>
<time>2013-11-20T14:06:39Z</time>
<speed>5.260000</speed>
<extensions>
<speed>5.3</speed>
<temp>0.00</temp>
<bpm>0</bpm>
<rpm>0.00</rpm>
</extensions>
</trkpt>
<trkpt lat="30.877613068" lon="34.794055939">
<ele>479.164063</ele>
<time>2013-11-20T14:06:44Z</time>
<speed>6.230000</speed>
<extensions>
<speed>6.2</speed>
<temp>0.00</temp>
<bpm>0</bpm>
<rpm>0.00</rpm>
</extensions>
</trkpt>
<trkpt lat="30.877340317" lon="34.794094086">
<ele>479.187500</ele>
<time>2013-11-20T14:06:49Z</time>
<speed>5.610000</speed>
<extensions>
<speed>5.6</speed>
<temp>0.00</temp>
<bpm>0</bpm>
<rpm>0.00</rpm>
</extensions>
</trkpt>
<trkpt lat="30.877059937" lon="34.794075012">
<ele>478.289063</ele>
<time>2013-11-20T14:06:54Z</time>
<speed>6.560000</speed>
<extensions>
<speed>6.6</speed>
<temp>0.00</temp>
<bpm>0</bpm>
<rpm>0.00</rpm>
</extensions>
</trkpt>
<trkpt lat="30.876754761" lon="34.794040680">
<ele>477.085938</ele>
<time>2013-11-20T14:06:59Z</time>
<speed>6.650000</speed>
<extensions>
<speed>6.7</speed>
<temp>0.00</temp>
<bpm>0</bpm>
<rpm>0.00</rpm>
</extensions>
</trkpt>
<trkpt lat="30.876462936" lon="34.793998718">
<ele>476.281250</ele>
<time>2013-11-20T14:07:04Z</time>
<speed>6.630000</speed>
<extensions>
<speed>6.6</speed>
<temp>0.00</temp>
<bpm>0</bpm>
<rpm>0.00</rpm>
</extensions>
</trkpt>
<trkpt lat="30.876182556" lon="34.794010162">
<ele>475.328125</ele>
<time>2013-11-20T14:07:09Z</time>
<speed>6.470000</speed>
<extensions>
<speed>6.5</speed>
<temp>0.00</temp>
<bpm>0</bpm>
<rpm>0.00</rpm>
</extensions>
</trkpt>
<trkpt lat="30.875890732" lon="34.794059753">
<ele>474.304688</ele>
<time>2013-11-20T14:07:14Z</time>
<speed>6.810000</speed>
<extensions>
<speed>6.8</speed>
<temp>0.00</temp>
<bpm>0</bpm>
<rpm>0.00</rpm>
</extensions>
</trkpt>
<trkpt lat="30.875579834" lon="34.794097900">
<ele>473.414063</ele>
<time>2013-11-20T14:07:19Z</time>
<speed>6.590000</speed>
<extensions>
<speed>6.6</speed>
<temp>0.00</temp>
<bpm>0</bpm>
<rpm>0.00</rpm>
</extensions>
</trkpt>
<trkpt lat="30.875324249" lon="34.794132233">
<ele>473.109375</ele>
<time>2013-11-20T14:07:24Z</time>
<speed>4.320000</speed>
<extensions>
<speed>4.3</speed>
<temp>0.00</temp>
<bpm>0</bpm>
<rpm>0.00</rpm>
</extensions>
</trkpt>
<trkpt lat="30.875158310" lon="34.794155121">
<ele>471.281250</ele>
<time>2013-11-20T14:07:29Z</time>
<speed>3.650000</speed>
<extensions>
<speed>3.7</speed>
<temp>0.00</temp>
<bpm>0</bpm>
<rpm>0.00</rpm>
</extensions>
</trkpt>
<trkpt lat="30.874984741" lon="34.794155121">
<ele>471.625000</ele>
<time>2013-11-20T14:07:34Z</time>
<speed>4.200000</speed>
<extensions>
<speed>4.2</speed>
<temp>0.00</temp>
<bpm>0</bpm>
<rpm>0.00</rpm>
</extensions>
</trkpt>
<trkpt lat="30.874809265" lon="34.794212341">
<ele>471.843750</ele>
<time>2013-11-20T14:07:39Z</time>
<speed>4.140000</speed>
<extensions>
<speed>4.1</speed>
<temp>0.00</temp>
<bpm>0</bpm>
<rpm>0.00</rpm>
</extensions>
</trkpt>
<trkpt lat="30.874622345" lon="34.794231415">
<ele>471.179688</ele>
<time>2013-11-20T14:07:44Z</time>
<speed>3.790000</speed>
<extensions>
<speed>3.8</speed>
<temp>0.00</temp>
<bpm>0</bpm>
<rpm>0.00</rpm>
</extensions>
</trkpt>
<trkpt lat="30.874475479" lon="34.794242859">
<ele>470.109375</ele>
<time>2013-11-20T14:07:49Z</time>
<speed>2.620000</speed>
<extensions>
<speed>2.6</speed>
<temp>0.00</temp>
<bpm>0</bpm>
<rpm>0.00</rpm>
</extensions>
</trkpt>
<trkpt lat="30.874439240" lon="34.794391632">
<ele>470.406250</ele>
<time>2013-11-20T14:07:54Z</time>
<speed>3.950000</speed>
<extensions>
<speed>4.0</speed>
<temp>0.00</temp>
<bpm>0</bpm>
<rpm>0.00</rpm>
</extensions>
</trkpt>
<trkpt lat="30.874477386" lon="34.794597626">
<ele>470.382813</ele>
<time>2013-11-20T14:07:59Z</time>
<speed>3.800000</speed>
<extensions>
<speed>3.8</speed>
<temp>0.00</temp>
<bpm>0</bpm>
<rpm>0.00</rpm>
</extensions>
</trkpt>
<trkpt lat="30.874418259" lon="34.794761658">
<ele>469.757813</ele>
<time>2013-11-20T14:08:04Z</time>
<speed>3.910000</speed>
<extensions>
<speed>3.9</speed>
<temp>0.00</temp>
<bpm>0</bpm>
<rpm>0.00</rpm>
</extensions>
</trkpt>
<trkpt lat="30.874221802" lon="34.794807434">
<ele>470.054688</ele>
<time>2013-11-20T14:08:09Z</time>
<speed>4.750000</speed>
<extensions>
<speed>4.8</speed>
<temp>0.00</temp>
<bpm>0</bpm>
<rpm>0.00</rpm>
</extensions>
</trkpt>
<trkpt lat="30.873989105" lon="34.794849396">
<ele>469.750000</ele>
<time>2013-11-20T14:08:14Z</time>
<speed>5.460000</speed>
<extensions>
<speed>5.5</speed>
<temp>0.00</temp>
<bpm>0</bpm>
<rpm>0.00</rpm>
</extensions>
</trkpt>
<trkpt lat="30.873760223" lon="34.794891357">
<ele>469.156250</ele>
<time>2013-11-20T14:08:19Z</time>
<speed>5.280000</speed>
<extensions>
<speed>5.3</speed>
<temp>0.00</temp>
<bpm>0</bpm>
<rpm>0.00</rpm>
</extensions>
</trkpt>
<trkpt lat="30.873519897" lon="34.794944763">
<ele>469.304688</ele>
<time>2013-11-20T14:08:24Z</time>
<speed>5.030000</speed>
<extensions>
<speed>5.0</speed>
<temp>0.00</temp>
<bpm>0</bpm>
<rpm>0.00</rpm>
</extensions>
</trkpt>
<trkpt lat="30.873304367" lon="34.794994354">
<ele>468.492188</ele>
<time>2013-11-20T14:08:29Z</time>
<speed>5.070000</speed>
<extensions>
<speed>5.1</speed>
<temp>0.00</temp>
<bpm>0</bpm>
<rpm>0.00</rpm>
</extensions>
</trkpt>
<trkpt lat="30.873182297" lon="34.795028687">
<ele>469.656250</ele>
<time>2013-11-20T14:08:34Z</time>
<speed>0.140000</speed>
<extensions>
<speed>0.1</speed>
<temp>0.00</temp>
<bpm>0</bpm>
<rpm>0.00</rpm>
</extensions>
</trkpt>
<trkpt lat="30.873142242" lon="34.795043945">
<ele>468.882813</ele>
<time>2013-11-20T14:08:39Z</time>
<speed>2.230000</speed>
<extensions>
<speed>2.2</speed>
<temp>0.00</temp>
<bpm>0</bpm>
<rpm>0.00</rpm>
</extensions>
</trkpt>
<trkpt lat="30.872964859" lon="34.795074463">
<ele>468.406250</ele>
<time>2013-11-20T14:08:44Z</time>
<speed>4.750000</speed>
<extensions>
<speed>4.8</speed>
<temp>0.00</temp>
<bpm>0</bpm>
<rpm>0.00</rpm>
</extensions>
</trkpt>
<trkpt lat="30.872697830" lon="34.795135498">
<ele>467.515625</ele>
<time>2013-11-20T14:08:49Z</time>
<speed>5.820000</speed>
<extensions>
<speed>5.8</speed>
<temp>0.00</temp>
<bpm>0</bpm>
<rpm>0.00</rpm>
</extensions>
</trkpt>
<trkpt lat="30.872432709" lon="34.795185089">
<ele>467.679688</ele>
<time>2013-11-20T14:08:54Z</time>
<speed>5.180000</speed>
<extensions>
<speed>5.2</speed>
<temp>0.00</temp>
<bpm>0</bpm>
<rpm>0.00</rpm>
</extensions>
</trkpt>
<trkpt lat="30.872213364" lon="34.795227051">
<ele>466.742188</ele>
<time>2013-11-20T14:08:59Z</time>
<speed>4.410000</speed>
<extensions>
<speed>4.4</speed>
<temp>0.00</temp>
<bpm>0</bpm>
<rpm>0.00</rpm>
</extensions>
</trkpt>
<trkpt lat="30.872018814" lon="34.795265198">
<ele>465.835938</ele>
<time>2013-11-20T14:09:04Z</time>
<speed>4.500000</speed>
<extensions>
<speed>4.5</speed>
<temp>0.00</temp>
<bpm>0</bpm>
<rpm>0.00</rpm>
</extensions>
</trkpt>
<trkpt lat="30.871789932" lon="34.795269012">
<ele>467.179688</ele>
<time>2013-11-20T14:09:09Z</time>
<speed>4.790000</speed>
<extensions>
<speed>4.8</speed>
<temp>0.00</temp>
<bpm>0</bpm>
<rpm>0.00</rpm>
</extensions>
</trkpt>
<trkpt lat="30.871654510" lon="34.795127869">
<ele>471.945313</ele>
<time>2013-11-20T14:09:14Z</time>
<speed>4.490000</speed>
<extensions>
<speed>4.5</speed>
<temp>0.00</temp>
<bpm>0</bpm>
<rpm>0.00</rpm>
</extensions>
</trkpt>
<trkpt lat="30.871685028" lon="34.794845581">
<ele>471.312500</ele>
<time>2013-11-20T14:09:19Z</time>
<speed>5.110000</speed>
<extensions>
<speed>5.1</speed>
<temp>0.00</temp>
<bpm>0</bpm>
<rpm>0.00</rpm>
</extensions>
</trkpt>
<trkpt lat="30.871679306" lon="34.794567108">
<ele>471.460938</ele>
<time>2013-11-20T14:09:24Z</time>
<speed>5.050000</speed>
<extensions>
<speed>5.1</speed>
<temp>0.00</temp>
<bpm>0</bpm>
<rpm>0.00</rpm>
</extensions>
</trkpt>
<trkpt lat="30.871675491" lon="34.794307709">
<ele>471.703125</ele>
<time>2013-11-20T14:09:29Z</time>
<speed>4.920000</speed>
<extensions>
<speed>4.9</speed>
<temp>0.00</temp>
<bpm>0</bpm>
<rpm>0.00</rpm>
</extensions>
</trkpt>
<trkpt lat="30.871675491" lon="34.794025421">
<ele>470.937500</ele>
<time>2013-11-20T14:09:34Z</time>
<speed>5.100000</speed>
<extensions>
<speed>5.1</speed>
<temp>0.00</temp>
<bpm>0</bpm>
<rpm>0.00</rpm>
</extensions>
</trkpt>
<trkpt lat="30.871679306" lon="34.793766022">
<ele>469.570313</ele>
<time>2013-11-20T14:09:39Z</time>
<speed>5.400000</speed>
<extensions>
<speed>5.4</speed>
<temp>0.00</temp>
<bpm>0</bpm>
<rpm>0.00</rpm>
</extensions>
</trkpt>
<trkpt lat="30.871669769" lon="34.793464661">
<ele>468.656250</ele>
<time>2013-11-20T14:09:44Z</time>
<speed>5.820000</speed>
<extensions>
<speed>5.8</speed>
<temp>0.00</temp>
<bpm>0</bpm>
<rpm>0.00</rpm>
</extensions>
</trkpt>
<trkpt lat="30.871656418" lon="34.793155670">
<ele>468.179688</ele>
<time>2013-11-20T14:09:49Z</time>
<speed>5.420000</speed>
<extensions>
<speed>5.4</speed>
<temp>0.00</temp>
<bpm>0</bpm>
<rpm>0.00</rpm>
</extensions>
</trkpt>
<trkpt lat="30.871654510" lon="34.792888641">
<ele>467.296875</ele>
<time>2013-11-20T14:09:54Z</time>
<speed>4.510000</speed>
<extensions>
<speed>4.5</speed>
<temp>0.00</temp>
<bpm>0</bpm>
<rpm>0.00</rpm>
</extensions>
</trkpt>
<trkpt lat="30.871667862" lon="34.792640686">
<ele>466.734375</ele>
<time>2013-11-20T14:09:59Z</time>
<speed>4.880000</speed>
<extensions>
<speed>4.9</speed>
<temp>0.00</temp>
<bpm>0</bpm>
<rpm>0.00</rpm>
</extensions>
</trkpt>
<trkpt lat="30.871683121" lon="34.792369843">
<ele>465.164063</ele>
<time>2013-11-20T14:10:04Z</time>
<speed>5.200000</speed>
<extensions>
<speed>5.2</speed>
<temp>0.00</temp>
<bpm>0</bpm>
<rpm>0.00</rpm>
</extensions>
</trkpt>
<trkpt lat="30.871702194" lon="34.792125702">
<ele>463.843750</ele>
<time>2013-11-20T14:10:09Z</time>
<speed>4.510000</speed>
<extensions>
<speed>4.5</speed>
<temp>0.00</temp>
<bpm>0</bpm>
<rpm>0.00</rpm>
</extensions>
</trkpt>
<trkpt lat="30.871719360" lon="34.791900635">
<ele>463.195313</ele>
<time>2013-11-20T14:10:14Z</time>
<speed>4.680000</speed>
<extensions>
<speed>4.7</speed>
<temp>0.00</temp>
<bpm>0</bpm>
<rpm>0.00</rpm>
</extensions>
</trkpt>
<trkpt lat="30.871723175" lon="34.791637421">
<ele>463.296875</ele>
<time>2013-11-20T14:10:19Z</time>
<speed>5.310000</speed>
<extensions>
<speed>5.3</speed>
<temp>0.00</temp>
<bpm>0</bpm>
<rpm>0.00</rpm>
</extensions>
</trkpt>
<trkpt lat="30.871749878" lon="34.791343689">
<ele>463.234375</ele>
<time>2013-11-20T14:10:24Z</time>
<speed>5.480000</speed>
<extensions>
<speed>5.5</speed>
<temp>0.00</temp>
<bpm>0</bpm>
<rpm>0.00</rpm>
</extensions>
</trkpt>
<trkpt lat="30.871755600" lon="34.791065216">
<ele>462.570313</ele>
<time>2013-11-20T14:10:29Z</time>
<speed>5.150000</speed>
<extensions>
<speed>5.2</speed>
<temp>0.00</temp>
<bpm>0</bpm>
<rpm>0.00</rpm>
</extensions>
</trkpt>
<trkpt lat="30.871755600" lon="34.790794373">
<ele>461.218750</ele>
<time>2013-11-20T14:10:34Z</time>
<speed>5.720000</speed>
<extensions>
<speed>5.7</speed>
<temp>0.00</temp>
<bpm>0</bpm>
<rpm>0.00</rpm>
</extensions>
</trkpt>
<trkpt lat="30.871749878" lon="34.790493011">
<ele>460.953125</ele>
<time>2013-11-20T14:10:39Z</time>
<speed>5.410000</speed>
<extensions>
<speed>5.4</speed>
<temp>0.00</temp>
<bpm>0</bpm>
<rpm>0.00</rpm>
</extensions>
</trkpt>
<trkpt lat="30.871685028" lon="34.790248871">
<ele>460.359375</ele>
<time>2013-11-20T14:10:44Z</time>
<speed>4.730000</speed>
<extensions>
<speed>4.7</speed>
<temp>0.00</temp>
<bpm>0</bpm>
<rpm>0.00</rpm>
</extensions>
</trkpt>
<trkpt lat="30.871557236" lon="34.790019989">
<ele>459.718750</ele>
<time>2013-11-20T14:10:49Z</time>
<speed>5.630000</speed>
<extensions>
<speed>5.6</speed>
<temp>0.00</temp>
<bpm>0</bpm>
<rpm>0.00</rpm>
</extensions>
</trkpt>
<trkpt lat="30.871473312" lon="34.789955139">
<ele>459.281250</ele>
<time>2013-11-20T14:10:54Z</time>
<speed>1.120000</speed>
<extensions>
<speed>1.1</speed>
<temp>0.00</temp>
<bpm>0</bpm>
<rpm>0.00</rpm>
</extensions>
</trkpt>
<trkpt lat="30.871517181" lon="34.789974213">
<ele>458.671875</ele>
<time>2013-11-20T14:10:59Z</time>
<speed>1.310000</speed>
<extensions>
<speed>1.3</speed>
<temp>0.00</temp>
<bpm>0</bpm>
<rpm>0.00</rpm>
</extensions>
</trkpt>
<trkpt lat="30.871610641" lon="34.790027618">
<ele>458.976563</ele>
<time>2013-11-20T14:11:04Z</time>
<speed>2.950000</speed>
<extensions>
<speed>2.9</speed>
<temp>0.00</temp>
<bpm>0</bpm>
<rpm>0.00</rpm>
</extensions>
</trkpt>
<trkpt lat="30.871763229" lon="34.790065765">
<ele>459.648438</ele>
<time>2013-11-20T14:11:09Z</time>
<speed>3.030000</speed>
<extensions>
<speed>3.0</speed>
<temp>0.00</temp>
<bpm>0</bpm>
<rpm>0.00</rpm>
</extensions>
</trkpt>
<trkpt lat="30.871917725" lon="34.790081024">
<ele>460.195313</ele>
<time>2013-11-20T14:11:14Z</time>
<speed>2.560000</speed>
<extensions>
<speed>2.6</speed>
<temp>0.00</temp>
<bpm>0</bpm>
<rpm>0.00</rpm>
</extensions>
</trkpt>
<trkpt lat="30.872074127" lon="34.789981842">
<ele>459.726563</ele>
<time>2013-11-20T14:11:19Z</time>
<speed>4.110000</speed>
<extensions>
<speed>4.1</speed>
<temp>0.00</temp>
<bpm>0</bpm>
<rpm>0.00</rpm>
</extensions>
</trkpt>
<trkpt lat="30.872232437" lon="34.789844513">
<ele>459.726563</ele>
<time>2013-11-20T14:11:24Z</time>
<speed>3.740000</speed>
<extensions>
<speed>3.7</speed>
<temp>0.00</temp>
<bpm>0</bpm>
<rpm>0.00</rpm>
</extensions>
</trkpt>
<trkpt lat="30.872354507" lon="34.789714813">
<ele>458.625000</ele>
<time>2013-11-20T14:11:29Z</time>
<speed>3.370000</speed>
<extensions>
<speed>3.4</speed>
<temp>0.00</temp>
<bpm>0</bpm>
<rpm>0.00</rpm>
</extensions>
</trkpt>
<trkpt lat="30.872488022" lon="34.789600372">
<ele>457.570313</ele>
<time>2013-11-20T14:11:34Z</time>
<speed>3.980000</speed>
<extensions>
<speed>4.0</speed>
<temp>0.00</temp>
<bpm>0</bpm>
<rpm>0.00</rpm>
</extensions>
</trkpt>
<trkpt lat="30.872640610" lon="34.789527893">
<ele>456.960938</ele>
<time>2013-11-20T14:11:39Z</time>
<speed>2.980000</speed>
<extensions>
<speed>3.0</speed>
<temp>0.00</temp>
<bpm>0</bpm>
<rpm>0.00</rpm>
</extensions>
</trkpt>
<trkpt lat="30.872747421" lon="34.789581299">
<ele>457.062500</ele>
<time>2013-11-20T14:11:44Z</time>
<speed>2.370000</speed>
<extensions>
<speed>2.4</speed>
<temp>0.00</temp>
<bpm>0</bpm>
<rpm>0.00</rpm>
</extensions>
</trkpt>
<trkpt lat="30.872846603" lon="34.789688110">
<ele>456.398438</ele>
<time>2013-11-20T14:11:49Z</time>
<speed>3.010000</speed>
<extensions>
<speed>3.0</speed>
<temp>0.00</temp>
<bpm>0</bpm>
<rpm>0.00</rpm>
</extensions>
</trkpt>
<trkpt lat="30.872957230" lon="34.789775848">
<ele>458.718750</ele>
<time>2013-11-20T14:11:54Z</time>
<speed>3.490000</speed>
<extensions>
<speed>3.5</speed>
<temp>0.00</temp>
<bpm>0</bpm>
<rpm>0.00</rpm>
</extensions>
</trkpt>
<trkpt lat="30.873096466" lon="34.789806366">
<ele>460.125000</ele>
<time>2013-11-20T14:11:59Z</time>
<speed>3.010000</speed>
<extensions>
<speed>3.0</speed>
<temp>0.00</temp>
<bpm>0</bpm>
<rpm>0.00</rpm>
</extensions>
</trkpt>
<trkpt lat="30.873254776" lon="34.789813995">
<ele>461.226563</ele>
<time>2013-11-20T14:12:04Z</time>
<speed>3.270000</speed>
<extensions>
<speed>3.3</speed>
<temp>0.00</temp>
<bpm>0</bpm>
<rpm>0.00</rpm>
</extensions>
</trkpt>
<trkpt lat="30.873376846" lon="34.789775848">
<ele>461.812500</ele>
<time>2013-11-20T14:12:09Z</time>
<speed>2.010000</speed>
<extensions>
<speed>2.0</speed>
<temp>0.00</temp>
<bpm>0</bpm>
<rpm>0.00</rpm>
</extensions>
</trkpt>
<trkpt lat="30.873392105" lon="34.789772034">
<ele>462.656250</ele>
<time>2013-11-20T14:12:14Z</time>
<speed>0.170000</speed>
<extensions>
<speed>0.2</speed>
<temp>0.00</temp>
<bpm>0</bpm>
<rpm>0.00</rpm>
</extensions>
</trkpt>
<trkpt lat="30.873395920" lon="34.789775848">
<ele>462.851563</ele>
<time>2013-11-20T14:12:19Z</time>
<speed>0.530000</speed>
<extensions>
<speed>0.5</speed>
<temp>0.00</temp>
<bpm>0</bpm>
<rpm>0.00</rpm>
</extensions>
</trkpt>
<trkpt lat="30.873397827" lon="34.789825439">
<ele>462.687500</ele>
<time>2013-11-20T14:12:24Z</time>
<speed>1.350000</speed>
<extensions>
<speed>1.4</speed>
<temp>0.00</temp>
<bpm>0</bpm>
<rpm>0.00</rpm>
</extensions>
</trkpt>
<trkpt lat="30.873386383" lon="34.789924622">
<ele>462.843750</ele>
<time>2013-11-20T14:12:29Z</time>
<speed>2.470000</speed>
<extensions>
<speed>2.5</speed>
<temp>0.00</temp>
<bpm>0</bpm>
<rpm>0.00</rpm>
</extensions>
</trkpt>
<trkpt lat="30.873390198" lon="34.790035248">
<ele>463.187500</ele>
<time>2013-11-20T14:12:34Z</time>
<speed>1.830000</speed>
<extensions>
<speed>1.8</speed>
<temp>0.00</temp>
<bpm>0</bpm>
<rpm>0.00</rpm>
</extensions>
</trkpt>
<trkpt lat="30.873378754" lon="34.790142059">
<ele>463.773438</ele>
<time>2013-11-20T14:12:39Z</time>
<speed>2.680000</speed>
<extensions>
<speed>2.7</speed>
<temp>0.00</temp>
<bpm>0</bpm>
<rpm>0.00</rpm>
</extensions>
</trkpt>
<trkpt lat="30.873367310" lon="34.790264130">
<ele>464.367188</ele>
<time>2013-11-20T14:12:44Z</time>
<speed>2.090000</speed>
<extensions>
<speed>2.1</speed>
<temp>0.00</temp>
<bpm>0</bpm>
<rpm>0.00</rpm>
</extensions>
</trkpt>
<trkpt lat="30.873363495" lon="34.790332794">
<ele>464.968750</ele>
<time>2013-11-20T14:12:49Z</time>
<speed>1.480000</speed>
<extensions>
<speed>1.5</speed>
<temp>0.00</temp>
<bpm>0</bpm>
<rpm>0.00</rpm>
</extensions>
</trkpt>
<trkpt lat="30.873342514" lon="34.790390015">
<ele>464.703125</ele>
<time>2013-11-20T14:12:54Z</time>
<speed>0.720000</speed>
<extensions>
<speed>0.7</speed>
<temp>0.00</temp>
<bpm>0</bpm>
<rpm>0.00</rpm>
</extensions>
</trkpt>
<trkpt lat="30.873319626" lon="34.790370941">
<ele>465.390625</ele>
<time>2013-11-20T14:12:59Z</time>
<speed>1.170000</speed>
<extensions>
<speed>1.2</speed>
<temp>0.00</temp>
<bpm>0</bpm>
<rpm>0.00</rpm>
</extensions>
</trkpt>
<trkpt lat="30.873332977" lon="34.790275574">
<ele>465.054688</ele>
<time>2013-11-20T14:13:04Z</time>
<speed>2.660000</speed>
<extensions>
<speed>2.7</speed>
<temp>0.00</temp>
<bpm>0</bpm>
<rpm>0.00</rpm>
</extensions>
</trkpt>
<trkpt lat="30.873352051" lon="34.790168762">
<ele>465.343750</ele>
<time>2013-11-20T14:13:09Z</time>
<speed>1.820000</speed>
<extensions>
<speed>1.8</speed>
<temp>0.00</temp>
<bpm>0</bpm>
<rpm>0.00</rpm>
</extensions>
</trkpt>
<trkpt lat="30.873361588" lon="34.790092468">
<ele>465.773438</ele>
<time>2013-11-20T14:13:14Z</time>
<speed>1.610000</speed>
<extensions>
<speed>1.6</speed>
<temp>0.00</temp>
<bpm>0</bpm>
<rpm>0.00</rpm>
</extensions>
</trkpt>
<trkpt lat="30.873371124" lon="34.790008545">
<ele>466.250000</ele>
<time>2013-11-20T14:13:19Z</time>
<speed>1.050000</speed>
<extensions>
<speed>1.0</speed>
<temp>0.00</temp>
<bpm>0</bpm>
<rpm>0.00</rpm>
</extensions>
</trkpt>
<trkpt lat="30.873394012" lon="34.789932251">
<ele>466.328125</ele>
<time>2013-11-20T14:13:24Z</time>
<speed>1.000000</speed>
<extensions>
<speed>1.0</speed>
<temp>0.00</temp>
<bpm>0</bpm>
<rpm>0.00</rpm>
</extensions>
</trkpt>
<trkpt lat="30.873367310" lon="34.789878845">
<ele>466.554688</ele>
<time>2013-11-20T14:13:29Z</time>
<speed>0.940000</speed>
<extensions>
<speed>0.9</speed>
<temp>0.00</temp>
<bpm>0</bpm>
<rpm>0.00</rpm>
</extensions>
</trkpt>
<trkpt lat="30.873355865" lon="34.789752960">
<ele>466.554688</ele>
<time>2013-11-20T14:13:34Z</time>
<speed>2.840000</speed>
<extensions>
<speed>2.8</speed>
<temp>0.00</temp>
<bpm>0</bpm>
<rpm>0.00</rpm>
</extensions>
</trkpt>
<trkpt lat="30.873394012" lon="34.789604187">
<ele>466.726563</ele>
<time>2013-11-20T14:13:39Z</time>
<speed>2.850000</speed>
<extensions>
<speed>2.9</speed>
<temp>0.00</temp>
<bpm>0</bpm>
<rpm>0.00</rpm>
</extensions>
</trkpt>
<trkpt lat="30.873455048" lon="34.789505005">
<ele>467.898438</ele>
<time>2013-11-20T14:13:44Z</time>
<speed>2.040000</speed>
<extensions>
<speed>2.0</speed>
<temp>0.00</temp>
<bpm>0</bpm>
<rpm>0.00</rpm>
</extensions>
</trkpt>
<trkpt lat="30.873523712" lon="34.789405823">
<ele>467.625000</ele>
<time>2013-11-20T14:13:49Z</time>
<speed>1.350000</speed>
<extensions>
<speed>1.4</speed>
<temp>0.00</temp>
<bpm>0</bpm>
<rpm>0.00</rpm>
</extensions>
</trkpt>
<trkpt lat="30.873544693" lon="34.789379120">
<ele>467.343750</ele>
<time>2013-11-20T14:13:54Z</time>
<speed>0.800000</speed>
<extensions>
<speed>0.8</speed>
<temp>0.00</temp>
<bpm>0</bpm>
<rpm>0.00</rpm>
</extensions>
</trkpt>
<trkpt lat="30.873626709" lon="34.789379120">
<ele>466.867188</ele>
<time>2013-11-20T14:13:59Z</time>
<speed>2.490000</speed>
<extensions>
<speed>2.5</speed>
<temp>0.00</temp>
<bpm>0</bpm>
<rpm>0.00</rpm>
</extensions>
</trkpt>
<trkpt lat="30.873741150" lon="34.789382935">
<ele>467.304688</ele>
<time>2013-11-20T14:14:04Z</time>
<speed>2.370000</speed>
<extensions>
<speed>2.4</speed>
<temp>0.00</temp>
<bpm>0</bpm>
<rpm>0.00</rpm>
</extensions>
</trkpt>
<trkpt lat="30.873867035" lon="34.789386749">
<ele>467.695313</ele>
<time>2013-11-20T14:14:09Z</time>
<speed>2.580000</speed>
<extensions>
<speed>2.6</speed>
<temp>0.00</temp>
<bpm>0</bpm>
<rpm>0.00</rpm>
</extensions>
</trkpt>
<trkpt lat="30.873954773" lon="34.789382935">
<ele>467.492188</ele>
<time>2013-11-20T14:14:14Z</time>
<speed>0.970000</speed>
<extensions>
<speed>1.0</speed>
<temp>0.00</temp>
<bpm>0</bpm>
<rpm>0.00</rpm>
</extensions>
</trkpt>
<trkpt lat="30.873983383" lon="34.789371490">
<ele>466.617188</ele>
<time>2013-11-20T14:14:19Z</time>
<speed>0.180000</speed>
<extensions>
<speed>0.2</speed>
<temp>0.00</temp>
<bpm>0</bpm>
<rpm>0.00</rpm>
</extensions>
</trkpt>
<trkpt lat="30.873983383" lon="34.789379120">
<ele>465.937500</ele>
<time>2013-11-20T14:14:24Z</time>
<speed>0.030000</speed>
<extensions>
<speed>0.0</speed>
<temp>0.00</temp>
<bpm>0</bpm>
<rpm>0.00</rpm>
</extensions>
</trkpt>
<trkpt lat="30.873983383" lon="34.789379120">
<ele>466.015625</ele>
<time>2013-11-20T14:14:29Z</time>
<speed>0.130000</speed>
<extensions>
<speed>0.1</speed>
<temp>0.00</temp>
<bpm>0</bpm>
<rpm>0.00</rpm>
</extensions>
</trkpt>
<trkpt lat="30.874025345" lon="34.789363861">
<ele>465.859375</ele>
<time>2013-11-20T14:14:34Z</time>
<speed>1.200000</speed>
<extensions>
<speed>1.2</speed>
<temp>0.00</temp>
<bpm>0</bpm>
<rpm>0.00</rpm>
</extensions>
</trkpt>
<trkpt lat="30.874086380" lon="34.789344788">
<ele>466.179688</ele>
<time>2013-11-20T14:14:39Z</time>
<speed>1.440000</speed>
<extensions>
<speed>1.4</speed>
<temp>0.00</temp>
<bpm>0</bpm>
<rpm>0.00</rpm>
</extensions>
</trkpt>
<trkpt lat="30.874071121" lon="34.789352417">
<ele>466.375000</ele>
<time>2013-11-20T14:14:44Z</time>
<speed>1.460000</speed>
<extensions>
<speed>1.5</speed>
<temp>0.00</temp>
<bpm>0</bpm>
<rpm>0.00</rpm>
</extensions>
</trkpt>
<trkpt lat="30.873977661" lon="34.789340973">
<ele>467.398438</ele>
<time>2013-11-20T14:14:49Z</time>
<speed>1.430000</speed>
<extensions>
<speed>1.4</speed>
<temp>0.00</temp>
<bpm>0</bpm>
<rpm>0.00</rpm>
</extensions>
</trkpt>
<trkpt lat="30.873975754" lon="34.789272308">
<ele>467.296875</ele>
<time>2013-11-20T14:14:54Z</time>
<speed>2.030000</speed>
<extensions>
<speed>2.0</speed>
<temp>0.00</temp>
<bpm>0</bpm>
<rpm>0.00</rpm>
</extensions>
</trkpt>
<trkpt lat="30.873960495" lon="34.789165497">
<ele>463.859375</ele>
<time>2013-11-20T14:14:59Z</time>
<speed>2.250000</speed>
<extensions>
<speed>2.3</speed>
<temp>0.00</temp>
<bpm>0</bpm>
<rpm>0.00</rpm>
</extensions>
</trkpt>
<trkpt lat="30.873958588" lon="34.789073944">
<ele>464.054688</ele>
<time>2013-11-20T14:15:04Z</time>
<speed>0.990000</speed>
<extensions>
<speed>1.0</speed>
<temp>0.00</temp>
<bpm>0</bpm>
<rpm>0.00</rpm>
</extensions>
</trkpt>
<trkpt lat="30.873970032" lon="34.789039612">
<ele>465.468750</ele>
<time>2013-11-20T14:15:09Z</time>
<speed>1.270000</speed>
<extensions>
<speed>1.3</speed>
<temp>0.00</temp>
<bpm>0</bpm>
<rpm>0.00</rpm>
</extensions>
</trkpt>
<trkpt lat="30.874004364" lon="34.788982391">
<ele>465.328125</ele>
<time>2013-11-20T14:15:14Z</time>
<speed>1.930000</speed>
<extensions>
<speed>1.9</speed>
<temp>0.00</temp>
<bpm>0</bpm>
<rpm>0.00</rpm>
</extensions>
</trkpt>
<trkpt lat="30.874118805" lon="34.788940430">
<ele>466.906250</ele>
<time>2013-11-20T14:15:19Z</time>
<speed>3.050000</speed>
<extensions>
<speed>3.0</speed>
<temp>0.00</temp>
<bpm>0</bpm>
<rpm>0.00</rpm>
</extensions>
</trkpt>
<trkpt lat="30.874153137" lon="34.788784027">
<ele>467.015625</ele>
<time>2013-11-20T14:15:24Z</time>
<speed>3.420000</speed>
<extensions>
<speed>3.4</speed>
<temp>0.00</temp>
<bpm>0</bpm>
<rpm>0.00</rpm>
</extensions>
</trkpt>
<trkpt lat="30.874202728" lon="34.788608551">
<ele>466.773438</ele>
<time>2013-11-20T14:15:29Z</time>
<speed>4.060000</speed>
<extensions>
<speed>4.1</speed>
<temp>0.00</temp>
<bpm>0</bpm>
<rpm>0.00</rpm>
</extensions>
</trkpt>
<trkpt lat="30.874267578" lon="34.788429260">
<ele>466.742188</ele>
<time>2013-11-20T14:15:34Z</time>
<speed>3.250000</speed>
<extensions>
<speed>3.2</speed>
<temp>0.00</temp>
<bpm>0</bpm>
<rpm>0.00</rpm>
</extensions>
</trkpt>
<trkpt lat="30.874296188" lon="34.788227081">
<ele>466.734375</ele>
<time>2013-11-20T14:15:39Z</time>
<speed>4.030000</speed>
<extensions>
<speed>4.0</speed>
<temp>0.00</temp>
<bpm>0</bpm>
<rpm>0.00</rpm>
</extensions>
</trkpt>
<trkpt lat="30.874153137" lon="34.788169861">
<ele>465.445313</ele>
<time>2013-11-20T14:15:44Z</time>
<speed>4.430000</speed>
<extensions>
<speed>4.4</speed>
<temp>0.00</temp>
<bpm>0</bpm>
<rpm>0.00</rpm>
</extensions>
</trkpt>
<trkpt lat="30.874124527" lon="34.788406372">
<ele>465.929688</ele>
<time>2013-11-20T14:15:49Z</time>
<speed>4.610000</speed>
<extensions>
<speed>4.6</speed>
<temp>0.00</temp>
<bpm>0</bpm>
<rpm>0.00</rpm>
</extensions>
</trkpt>
<trkpt lat="30.874120712" lon="34.788661957">
<ele>466.648438</ele>
<time>2013-11-20T14:15:54Z</time>
<speed>4.460000</speed>
<extensions>
<speed>4.5</speed>
<temp>0.00</temp>
<bpm>0</bpm>
<rpm>0.00</rpm>
</extensions>
</trkpt>
<trkpt lat="30.874095917" lon="34.788909912">
<ele>467.203125</ele>
<time>2013-11-20T14:15:59Z</time>
<speed>4.810000</speed>
<extensions>
<speed>4.8</speed>
<temp>0.00</temp>
<bpm>0</bpm>
<rpm>0.00</rpm>
</extensions>
</trkpt>
<trkpt lat="30.873891830" lon="34.788993835">
<ele>467.835938</ele>
<time>2013-11-20T14:16:04Z</time>
<speed>5.590000</speed>
<extensions>
<speed>5.6</speed>
<temp>0.00</temp>
<bpm>0</bpm>
<rpm>0.00</rpm>
</extensions>
</trkpt>
<trkpt lat="30.873641968" lon="34.788978577">
<ele>467.523438</ele>
<time>2013-11-20T14:16:09Z</time>
<speed>5.600000</speed>
<extensions>
<speed>5.6</speed>
<temp>0.00</temp>
<bpm>0</bpm>
<rpm>0.00</rpm>
</extensions>
</trkpt>
<trkpt lat="30.873411179" lon="34.788902283">
<ele>467.648438</ele>
<time>2013-11-20T14:16:14Z</time>
<speed>5.200000</speed>
<extensions>
<speed>5.2</speed>
<temp>0.00</temp>
<bpm>0</bpm>
<rpm>0.00</rpm>
</extensions>
</trkpt>
<trkpt lat="30.873329163" lon="34.788692474">
<ele>467.500000</ele>
<time>2013-11-20T14:16:19Z</time>
<speed>4.560000</speed>
<extensions>
<speed>4.6</speed>
<temp>0.00</temp>
<bpm>0</bpm>
<rpm>0.00</rpm>
</extensions>
</trkpt>
<trkpt lat="30.873498917" lon="34.788471222">
<ele>466.390625</ele>
<time>2013-11-20T14:16:24Z</time>
<speed>5.660000</speed>
<extensions>
<speed>5.7</speed>
<temp>0.00</temp>
<bpm>0</bpm>
<rpm>0.00</rpm>
</extensions>
</trkpt>
<trkpt lat="30.873708725" lon="34.788246155">
<ele>465.296875</ele>
<time>2013-11-20T14:16:29Z</time>
<speed>6.160000</speed>
<extensions>
<speed>6.2</speed>
<temp>0.00</temp>
<bpm>0</bpm>
<rpm>0.00</rpm>
</extensions>
</trkpt>
<trkpt lat="30.873931885" lon="34.788032532">
<ele>464.070313</ele>
<time>2013-11-20T14:16:34Z</time>
<speed>5.730000</speed>
<extensions>
<speed>5.7</speed>
<temp>0.00</temp>
<bpm>0</bpm>
<rpm>0.00</rpm>
</extensions>
</trkpt>
<trkpt lat="30.874135971" lon="34.787841797">
<ele>462.929688</ele>
<time>2013-11-20T14:16:39Z</time>
<speed>5.900000</speed>
<extensions>
<speed>5.9</speed>
<temp>0.00</temp>
<bpm>0</bpm>
<rpm>0.00</rpm>
</extensions>
</trkpt>
<trkpt lat="30.874341965" lon="34.787628174">
<ele>461.820313</ele>
<time>2013-11-20T14:16:44Z</time>
<speed>5.730000</speed>
<extensions>
<speed>5.7</speed>
<temp>0.00</temp>
<bpm>0</bpm>
<rpm>0.00</rpm>
</extensions>
</trkpt>
<trkpt lat="30.874530792" lon="34.787448883">
<ele>460.921875</ele>
<time>2013-11-20T14:16:49Z</time>
<speed>5.030000</speed>
<extensions>
<speed>5.0</speed>
<temp>0.00</temp>
<bpm>0</bpm>
<rpm>0.00</rpm>
</extensions>
</trkpt>
<trkpt lat="30.874706268" lon="34.787277222">
<ele>460.101563</ele>
<time>2013-11-20T14:16:54Z</time>
<speed>5.570000</speed>
<extensions>
<speed>5.6</speed>
<temp>0.00</temp>
<bpm>0</bpm>
<rpm>0.00</rpm>
</extensions>
</trkpt>
<trkpt lat="30.874908447" lon="34.787086487">
<ele>459.750000</ele>
<time>2013-11-20T14:16:59Z</time>
<speed>5.520000</speed>
<extensions>
<speed>5.5</speed>
<temp>0.00</temp>
<bpm>0</bpm>
<rpm>0.00</rpm>
</extensions>
</trkpt>
<trkpt lat="30.875104904" lon="34.786922455">
<ele>459.187500</ele>
<time>2013-11-20T14:17:04Z</time>
<speed>5.170000</speed>
<extensions>
<speed>5.2</speed>
<temp>0.00</temp>
<bpm>0</bpm>
<rpm>0.00</rpm>
</extensions>
</trkpt>
<trkpt lat="30.875228882" lon="34.786827087">
<ele>458.187500</ele>
<time>2013-11-20T14:17:09Z</time>
<speed>1.770000</speed>
<extensions>
<speed>1.8</speed>
<temp>0.00</temp>
<bpm>0</bpm>
<rpm>0.00</rpm>
</extensions>
</trkpt>
<trkpt lat="30.875240326" lon="34.786792755">
<ele>458.429688</ele>
<time>2013-11-20T14:17:14Z</time>
<speed>0.860000</speed>
<extensions>
<speed>0.9</speed>
<temp>0.00</temp>
<bpm>0</bpm>
<rpm>0.00</rpm>
</extensions>
</trkpt>
<trkpt lat="30.875223160" lon="34.786754608">
<ele>458.539063</ele>
<time>2013-11-20T14:17:19Z</time>
<speed>1.260000</speed>
<extensions>
<speed>1.3</speed>
<temp>0.00</temp>
<bpm>0</bpm>
<rpm>0.00</rpm>
</extensions>
</trkpt>
<trkpt lat="30.875185013" lon="34.786720276">
<ele>459.234375</ele>
<time>2013-11-20T14:17:24Z</time>
<speed>1.120000</speed>
<extensions>
<speed>1.1</speed>
<temp>0.00</temp>
<bpm>0</bpm>
<rpm>0.00</rpm>
</extensions>
</trkpt>
<trkpt lat="30.875194550" lon="34.786563873">
<ele>460.351563</ele>
<time>2013-11-20T14:17:29Z</time>
<speed>4.010000</speed>
<extensions>
<speed>4.0</speed>
<temp>0.00</temp>
<bpm>0</bpm>
<rpm>0.00</rpm>
</extensions>
</trkpt>
<trkpt lat="30.875066757" lon="34.786354065">
<ele>461.343750</ele>
<time>2013-11-20T14:17:34Z</time>
<speed>5.310000</speed>
<extensions>
<speed>5.3</speed>
<temp>0.00</temp>
<bpm>0</bpm>
<rpm>0.00</rpm>
</extensions>
</trkpt>
<trkpt lat="30.874900818" lon="34.786136627">
<ele>462.140625</ele>
<time>2013-11-20T14:17:39Z</time>
<speed>5.550000</speed>
<extensions>
<speed>5.5</speed>
<temp>0.00</temp>
<bpm>0</bpm>
<rpm>0.00</rpm>
</extensions>
</trkpt>
<trkpt lat="30.874738693" lon="34.785934448">
<ele>462.460938</ele>
<time>2013-11-20T14:17:44Z</time>
<speed>5.460000</speed>
<extensions>
<speed>5.5</speed>
<temp>0.00</temp>
<bpm>0</bpm>
<rpm>0.00</rpm>
</extensions>
</trkpt>
<trkpt lat="30.874561310" lon="34.785713196">
<ele>462.390625</ele>
<time>2013-11-20T14:17:49Z</time>
<speed>5.980000</speed>
<extensions>
<speed>6.0</speed>
<temp>0.00</temp>
<bpm>0</bpm>
<rpm>0.00</rpm>
</extensions>
</trkpt>
<trkpt lat="30.874361038" lon="34.785491943">
<ele>462.093750</ele>
<time>2013-11-20T14:17:54Z</time>
<speed>5.930000</speed>
<extensions>
<speed>5.9</speed>
<temp>0.00</temp>
<bpm>0</bpm>
<rpm>0.00</rpm>
</extensions>
</trkpt>
<trkpt lat="30.874153137" lon="34.785278320">
<ele>461.648438</ele>
<time>2013-11-20T14:17:59Z</time>
<speed>6.530000</speed>
<extensions>
<speed>6.5</speed>
<temp>0.00</temp>
<bpm>0</bpm>
<rpm>0.00</rpm>
</extensions>
</trkpt>
<trkpt lat="30.873912811" lon="34.785041809">
<ele>462.000000</ele>
<time>2013-11-20T14:18:04Z</time>
<speed>7.150000</speed>
<extensions>
<speed>7.1</speed>
<temp>0.00</temp>
<bpm>0</bpm>
<rpm>0.00</rpm>
</extensions>
</trkpt>
<trkpt lat="30.873661041" lon="34.784801483">
<ele>462.539063</ele>
<time>2013-11-20T14:18:09Z</time>
<speed>7.120000</speed>
<extensions>
<speed>7.1</speed>
<temp>0.00</temp>
<bpm>0</bpm>
<rpm>0.00</rpm>
</extensions>
</trkpt>
<trkpt lat="30.873426437" lon="34.784568787">
<ele>462.703125</ele>
<time>2013-11-20T14:18:14Z</time>
<speed>6.420000</speed>
<extensions>
<speed>6.4</speed>
<temp>0.00</temp>
<bpm>0</bpm>
<rpm>0.00</rpm>
</extensions>
</trkpt>
<trkpt lat="30.873243332" lon="34.784370422">
<ele>463.359375</ele>
<time>2013-11-20T14:18:19Z</time>
<speed>5.300000</speed>
<extensions>
<speed>5.3</speed>
<temp>0.00</temp>
<bpm>0</bpm>
<rpm>0.00</rpm>
</extensions>
</trkpt>
<trkpt lat="30.873062134" lon="34.784175873">
<ele>464.093750</ele>
<time>2013-11-20T14:18:24Z</time>
<speed>5.010000</speed>
<extensions>
<speed>5.0</speed>
<temp>0.00</temp>
<bpm>0</bpm>
<rpm>0.00</rpm>
</extensions>
</trkpt>
<trkpt lat="30.872901917" lon="34.784019470">
<ele>463.898438</ele>
<time>2013-11-20T14:18:29Z</time>
<speed>4.780000</speed>
<extensions>
<speed>4.8</speed>
<temp>0.00</temp>
<bpm>0</bpm>
<rpm>0.00</rpm>
</extensions>
</trkpt>
<trkpt lat="30.872739792" lon="34.783843994">
<ele>464.242188</ele>
<time>2013-11-20T14:18:34Z</time>
<speed>5.250000</speed>
<extensions>
<speed>5.2</speed>
<temp>0.00</temp>
<bpm>0</bpm>
<rpm>0.00</rpm>
</extensions>
</trkpt>
<trkpt lat="30.872573853" lon="34.783683777">
<ele>464.023438</ele>
<time>2013-11-20T14:18:39Z</time>
<speed>4.020000</speed>
<extensions>
<speed>4.0</speed>
<temp>0.00</temp>
<bpm>0</bpm>
<rpm>0.00</rpm>
</extensions>
</trkpt>
<trkpt lat="30.872430801" lon="34.783535004">
<ele>464.164063</ele>
<time>2013-11-20T14:18:44Z</time>
<speed>4.690000</speed>
<extensions>
<speed>4.7</speed>
<temp>0.00</temp>
<bpm>0</bpm>
<rpm>0.00</rpm>
</extensions>
</trkpt>
<trkpt lat="30.872270584" lon="34.783390045">
<ele>464.242188</ele>
<time>2013-11-20T14:18:49Z</time>
<speed>3.920000</speed>
<extensions>
<speed>3.9</speed>
<temp>0.00</temp>
<bpm>0</bpm>
<rpm>0.00</rpm>
</extensions>
</trkpt>
<trkpt lat="30.872123718" lon="34.783245087">
<ele>464.664063</ele>
<time>2013-11-20T14:18:54Z</time>
<speed>4.500000</speed>
<extensions>
<speed>4.5</speed>
<temp>0.00</temp>
<bpm>0</bpm>
<rpm>0.00</rpm>
</extensions>
</trkpt>
<trkpt lat="30.872001648" lon="34.783115387">
<ele>465.406250</ele>
<time>2013-11-20T14:18:59Z</time>
<speed>3.540000</speed>
<extensions>
<speed>3.5</speed>
<temp>0.00</temp>
<bpm>0</bpm>
<rpm>0.00</rpm>
</extensions>
</trkpt>
<trkpt lat="30.871858597" lon="34.782974243">
<ele>466.437500</ele>
<time>2013-11-20T14:19:04Z</time>
<speed>4.740000</speed>
<extensions>
<speed>4.7</speed>
<temp>0.00</temp>
<bpm>0</bpm>
<rpm>0.00</rpm>
</extensions>
</trkpt>
<trkpt lat="30.871704102" lon="34.782833099">
<ele>467.789063</ele>
<time>2013-11-20T14:19:09Z</time>
<speed>4.280000</speed>
<extensions>
<speed>4.3</speed>
<temp>0.00</temp>
<bpm>0</bpm>
<rpm>0.00</rpm>
</extensions>
</trkpt>
<trkpt lat="30.871547699" lon="34.782665253">
<ele>468.906250</ele>
<time>2013-11-20T14:19:14Z</time>
<speed>4.410000</speed>
<extensions>
<speed>4.4</speed>
<temp>0.00</temp>
<bpm>0</bpm>
<rpm>0.00</rpm>
</extensions>
</trkpt>
<trkpt lat="30.871410370" lon="34.782524109">
<ele>469.421875</ele>
<time>2013-11-20T14:19:19Z</time>
<speed>4.490000</speed>
<extensions>
<speed>4.5</speed>
<temp>0.00</temp>
<bpm>0</bpm>
<rpm>0.00</rpm>
</extensions>
</trkpt>
<trkpt lat="30.871238708" lon="34.782356262">
<ele>469.773438</ele>
<time>2013-11-20T14:19:24Z</time>
<speed>5.480000</speed>
<extensions>
<speed>5.5</speed>
<temp>0.00</temp>
<bpm>0</bpm>
<rpm>0.00</rpm>
</extensions>
</trkpt>
<trkpt lat="30.871065140" lon="34.782165527">
<ele>469.937500</ele>
<time>2013-11-20T14:19:29Z</time>
<speed>5.450000</speed>
<extensions>
<speed>5.5</speed>
<temp>0.00</temp>
<bpm>0</bpm>
<rpm>0.00</rpm>
</extensions>
</trkpt>
<trkpt lat="30.870874405" lon="34.781959534">
<ele>470.242188</ele>
<time>2013-11-20T14:19:34Z</time>
<speed>5.580000</speed>
<extensions>
<speed>5.6</speed>
<temp>0.00</temp>
<bpm>0</bpm>
<rpm>0.00</rpm>
</extensions>
</trkpt>
<trkpt lat="30.870687485" lon="34.781787872">
<ele>470.554688</ele>
<time>2013-11-20T14:19:39Z</time>
<speed>5.670000</speed>
<extensions>
<speed>5.7</speed>
<temp>0.00</temp>
<bpm>0</bpm>
<rpm>0.00</rpm>
</extensions>
</trkpt>
<trkpt lat="30.870477676" lon="34.781578064">
<ele>470.882813</ele>
<time>2013-11-20T14:19:44Z</time>
<speed>5.510000</speed>
<extensions>
<speed>5.5</speed>
<temp>0.00</temp>
<bpm>0</bpm>
<rpm>0.00</rpm>
</extensions>
</trkpt>
<trkpt lat="30.870265961" lon="34.781375885">
<ele>471.007813</ele>
<time>2013-11-20T14:19:49Z</time>
<speed>6.110000</speed>
<extensions>
<speed>6.1</speed>
<temp>0.00</temp>
<bpm>0</bpm>
<rpm>0.00</rpm>
</extensions>
</trkpt>
<trkpt lat="30.870063782" lon="34.781173706">
<ele>471.531250</ele>
<time>2013-11-20T14:19:54Z</time>
<speed>5.240000</speed>
<extensions>
<speed>5.2</speed>
<temp>0.00</temp>
<bpm>0</bpm>
<rpm>0.00</rpm>
</extensions>
</trkpt>
<trkpt lat="30.869873047" lon="34.781024933">
<ele>471.710938</ele>
<time>2013-11-20T14:19:59Z</time>
<speed>5.270000</speed>
<extensions>
<speed>5.3</speed>
<temp>0.00</temp>
<bpm>0</bpm>
<rpm>0.00</rpm>
</extensions>
</trkpt>
<trkpt lat="30.869657516" lon="34.780853271">
<ele>472.234375</ele>
<time>2013-11-20T14:20:04Z</time>
<speed>6.100000</speed>
<extensions>
<speed>6.1</speed>
<temp>0.00</temp>
<bpm>0</bpm>
<rpm>0.00</rpm>
</extensions>
</trkpt>
<trkpt lat="30.869447708" lon="34.780689240">
<ele>472.507813</ele>
<time>2013-11-20T14:20:09Z</time>
<speed>5.020000</speed>
<extensions>
<speed>5.0</speed>
<temp>0.00</temp>
<bpm>0</bpm>
<rpm>0.00</rpm>
</extensions>
</trkpt>
<trkpt lat="30.869234085" lon="34.780529022">
<ele>473.148438</ele>
<time>2013-11-20T14:20:14Z</time>
<speed>5.870000</speed>
<extensions>
<speed>5.9</speed>
<temp>0.00</temp>
<bpm>0</bpm>
<rpm>0.00</rpm>
</extensions>
</trkpt>
<trkpt lat="30.869031906" lon="34.780380249">
<ele>473.437500</ele>
<time>2013-11-20T14:20:19Z</time>
<speed>4.870000</speed>
<extensions>
<speed>4.9</speed>
<temp>0.00</temp>
<bpm>0</bpm>
<rpm>0.00</rpm>
</extensions>
</trkpt>
<trkpt lat="30.868814468" lon="34.780239105">
<ele>473.585938</ele>
<time>2013-11-20T14:20:24Z</time>
<speed>5.930000</speed>
<extensions>
<speed>5.9</speed>
<temp>0.00</temp>
<bpm>0</bpm>
<rpm>0.00</rpm>
</extensions>
</trkpt>
<trkpt lat="30.868572235" lon="34.780075073">
<ele>474.101563</ele>
<time>2013-11-20T14:20:29Z</time>
<speed>5.950000</speed>
<extensions>
<speed>6.0</speed>
<temp>0.00</temp>
<bpm>0</bpm>
<rpm>0.00</rpm>
</extensions>
</trkpt>
<trkpt lat="30.868339539" lon="34.779914856">
<ele>474.445313</ele>
<time>2013-11-20T14:20:34Z</time>
<speed>6.300000</speed>
<extensions>
<speed>6.3</speed>
<temp>0.00</temp>
<bpm>0</bpm>
<rpm>0.00</rpm>
</extensions>
</trkpt>
<trkpt lat="30.868074417" lon="34.779743195">
<ele>474.289063</ele>
<time>2013-11-20T14:20:39Z</time>
<speed>6.950000</speed>
<extensions>
<speed>7.0</speed>
<temp>0.00</temp>
<bpm>0</bpm>
<rpm>0.00</rpm>
</extensions>
</trkpt>
<trkpt lat="30.867822647" lon="34.779563904">
<ele>474.039063</ele>
<time>2013-11-20T14:20:44Z</time>
<speed>6.350000</speed>
<extensions>
<speed>6.4</speed>
<temp>0.00</temp>
<bpm>0</bpm>
<rpm>0.00</rpm>
</extensions>
</trkpt>
<trkpt lat="30.867572784" lon="34.779396057">
<ele>474.023438</ele>
<time>2013-11-20T14:20:49Z</time>
<speed>6.220000</speed>
<extensions>
<speed>6.2</speed>
<temp>0.00</temp>
<bpm>0</bpm>
<rpm>0.00</rpm>
</extensions>
</trkpt>
<trkpt lat="30.867349625" lon="34.779243469">
<ele>473.906250</ele>
<time>2013-11-20T14:20:54Z</time>
<speed>5.600000</speed>
<extensions>
<speed>5.6</speed>
<temp>0.00</temp>
<bpm>0</bpm>
<rpm>0.00</rpm>
</extensions>
</trkpt>
<trkpt lat="30.867122650" lon="34.779098511">
<ele>473.781250</ele>
<time>2013-11-20T14:20:59Z</time>
<speed>5.940000</speed>
<extensions>
<speed>5.9</speed>
<temp>0.00</temp>
<bpm>0</bpm>
<rpm>0.00</rpm>
</extensions>
</trkpt>
<trkpt lat="30.866884232" lon="34.778942108">
<ele>473.757813</ele>
<time>2013-11-20T14:21:04Z</time>
<speed>6.310000</speed>
<extensions>
<speed>6.3</speed>
<temp>0.00</temp>
<bpm>0</bpm>
<rpm>0.00</rpm>
</extensions>
</trkpt>
<trkpt lat="30.866651535" lon="34.778793335">
<ele>474.304688</ele>
<time>2013-11-20T14:21:09Z</time>
<speed>5.520000</speed>
<extensions>
<speed>5.5</speed>
<temp>0.00</temp>
<bpm>0</bpm>
<rpm>0.00</rpm>
</extensions>
</trkpt>
<trkpt lat="30.866420746" lon="34.778633118">
<ele>474.937500</ele>
<time>2013-11-20T14:21:14Z</time>
<speed>6.180000</speed>
<extensions>
<speed>6.2</speed>
<temp>0.00</temp>
<bpm>0</bpm>
<rpm>0.00</rpm>
</extensions>
</trkpt>
<trkpt lat="30.866168976" lon="34.778461456">
<ele>475.000000</ele>
<time>2013-11-20T14:21:19Z</time>
<speed>6.650000</speed>
<extensions>
<speed>6.7</speed>
<temp>0.00</temp>
<bpm>0</bpm>
<rpm>0.00</rpm>
</extensions>
</trkpt>
<trkpt lat="30.865911484" lon="34.778301239">
<ele>474.687500</ele>
<time>2013-11-20T14:21:24Z</time>
<speed>6.300000</speed>
<extensions>
<speed>6.3</speed>
<temp>0.00</temp>
<bpm>0</bpm>
<rpm>0.00</rpm>
</extensions>
</trkpt>
<trkpt lat="30.865684509" lon="34.778152466">
<ele>474.679688</ele>
<time>2013-11-20T14:21:29Z</time>
<speed>5.460000</speed>
<extensions>
<speed>5.5</speed>
<temp>0.00</temp>
<bpm>0</bpm>
<rpm>0.00</rpm>
</extensions>
</trkpt>
<trkpt lat="30.865486145" lon="34.778030396">
<ele>474.750000</ele>
<time>2013-11-20T14:21:34Z</time>
<speed>4.900000</speed>
<extensions>
<speed>4.9</speed>
<temp>0.00</temp>
<bpm>0</bpm>
<rpm>0.00</rpm>
</extensions>
</trkpt>
<trkpt lat="30.865278244" lon="34.777877808">
<ele>474.632813</ele>
<time>2013-11-20T14:21:39Z</time>
<speed>5.760000</speed>
<extensions>
<speed>5.8</speed>
<temp>0.00</temp>
<bpm>0</bpm>
<rpm>0.00</rpm>
</extensions>
</trkpt>
<trkpt lat="30.865051270" lon="34.777729034">
<ele>474.554688</ele>
<time>2013-11-20T14:21:44Z</time>
<speed>5.440000</speed>
<extensions>
<speed>5.4</speed>
<temp>0.00</temp>
<bpm>0</bpm>
<rpm>0.00</rpm>
</extensions>
</trkpt>
<trkpt lat="30.864833832" lon="34.777603149">
<ele>474.960938</ele>
<time>2013-11-20T14:21:49Z</time>
<speed>5.590000</speed>
<extensions>
<speed>5.6</speed>
<temp>0.00</temp>
<bpm>0</bpm>
<rpm>0.00</rpm>
</extensions>
</trkpt>
<trkpt lat="30.864597321" lon="34.777442932">
<ele>475.132813</ele>
<time>2013-11-20T14:21:54Z</time>
<speed>6.300000</speed>
<extensions>
<speed>6.3</speed>
<temp>0.00</temp>
<bpm>0</bpm>
<rpm>0.00</rpm>
</extensions>
</trkpt>
<trkpt lat="30.864349365" lon="34.777282715">
<ele>475.562500</ele>
<time>2013-11-20T14:21:59Z</time>
<speed>5.930000</speed>
<extensions>
<speed>5.9</speed>
<temp>0.00</temp>
<bpm>0</bpm>
<rpm>0.00</rpm>
</extensions>
</trkpt>
<trkpt lat="30.864135742" lon="34.777153015">
<ele>475.617188</ele>
<time>2013-11-20T14:22:04Z</time>
<speed>5.040000</speed>
<extensions>
<speed>5.0</speed>
<temp>0.00</temp>
<bpm>0</bpm>
<rpm>0.00</rpm>
</extensions>
</trkpt>
<trkpt lat="30.863914490" lon="34.777000427">
<ele>475.539063</ele>
<time>2013-11-20T14:22:09Z</time>
<speed>6.040000</speed>
<extensions>
<speed>6.0</speed>
<temp>0.00</temp>
<bpm>0</bpm>
<rpm>0.00</rpm>
</extensions>
</trkpt>
<trkpt lat="30.863674164" lon="34.776840210">
<ele>475.859375</ele>
<time>2013-11-20T14:22:14Z</time>
<speed>5.820000</speed>
<extensions>
<speed>5.8</speed>
<temp>0.00</temp>
<bpm>0</bpm>
<rpm>0.00</rpm>
</extensions>
</trkpt>
<trkpt lat="30.863443375" lon="34.776683807">
<ele>475.710938</ele>
<time>2013-11-20T14:22:19Z</time>
<speed>6.390000</speed>
<extensions>
<speed>6.4</speed>
<temp>0.00</temp>
<bpm>0</bpm>
<rpm>0.00</rpm>
</extensions>
</trkpt>
<trkpt lat="30.863201141" lon="34.776535034">
<ele>475.937500</ele>
<time>2013-11-20T14:22:24Z</time>
<speed>5.660000</speed>
<extensions>
<speed>5.7</speed>
<temp>0.00</temp>
<bpm>0</bpm>
<rpm>0.00</rpm>
</extensions>
</trkpt>
<trkpt lat="30.862976074" lon="34.776386261">
<ele>475.664063</ele>
<time>2013-11-20T14:22:29Z</time>
<speed>6.350000</speed>
<extensions>
<speed>6.4</speed>
<temp>0.00</temp>
<bpm>0</bpm>
<rpm>0.00</rpm>
</extensions>
</trkpt>
<trkpt lat="30.862720490" lon="34.776214600">
<ele>475.929688</ele>
<time>2013-11-20T14:22:34Z</time>
<speed>5.920000</speed>
<extensions>
<speed>5.9</speed>
<temp>0.00</temp>
<bpm>0</bpm>
<rpm>0.00</rpm>
</extensions>
</trkpt>
<trkpt lat="30.862470627" lon="34.776046753">
<ele>475.796875</ele>
<time>2013-11-20T14:22:39Z</time>
<speed>6.560000</speed>
<extensions>
<speed>6.6</speed>
<temp>0.00</temp>
<bpm>0</bpm>
<rpm>0.00</rpm>
</extensions>
</trkpt>
<trkpt lat="30.862241745" lon="34.775886536">
<ele>475.859375</ele>
<time>2013-11-20T14:22:44Z</time>
<speed>5.910000</speed>
<extensions>
<speed>5.9</speed>
<temp>0.00</temp>
<bpm>0</bpm>
<rpm>0.00</rpm>
</extensions>
</trkpt>
<trkpt lat="30.861999512" lon="34.775726318">
<ele>476.328125</ele>
<time>2013-11-20T14:22:49Z</time>
<speed>6.410000</speed>
<extensions>
<speed>6.4</speed>
<temp>0.00</temp>
<bpm>0</bpm>
<rpm>0.00</rpm>
</extensions>
</trkpt>
<trkpt lat="30.861734390" lon="34.775558472">
<ele>476.570313</ele>
<time>2013-11-20T14:22:54Z</time>
<speed>6.780000</speed>
<extensions>
<speed>6.8</speed>
<temp>0.00</temp>
<bpm>0</bpm>
<rpm>0.00</rpm>
</extensions>
</trkpt>
<trkpt lat="30.861463547" lon="34.775367737">
<ele>476.976563</ele>
<time>2013-11-20T14:22:59Z</time>
<speed>6.700000</speed>
<extensions>
<speed>6.7</speed>
<temp>0.00</temp>
<bpm>0</bpm>
<rpm>0.00</rpm>
</extensions>
</trkpt>
<trkpt lat="30.861217499" lon="34.775196075">
<ele>477.484375</ele>
<time>2013-11-20T14:23:04Z</time>
<speed>6.130000</speed>
<extensions>
<speed>6.1</speed>
<temp>0.00</temp>
<bpm>0</bpm>
<rpm>0.00</rpm>
</extensions>
</trkpt>
<trkpt lat="30.860961914" lon="34.775020599">
<ele>477.507813</ele>
<time>2013-11-20T14:23:09Z</time>
<speed>6.740000</speed>
<extensions>
<speed>6.7</speed>
<temp>0.00</temp>
<bpm>0</bpm>
<rpm>0.00</rpm>
</extensions>
</trkpt>
<trkpt lat="30.860712051" lon="34.774852753">
<ele>477.679688</ele>
<time>2013-11-20T14:23:14Z</time>
<speed>6.720000</speed>
<extensions>
<speed>6.7</speed>
<temp>0.00</temp>
<bpm>0</bpm>
<rpm>0.00</rpm>
</extensions>
</trkpt>
<trkpt lat="30.860431671" lon="34.774662018">
<ele>478.382813</ele>
<time>2013-11-20T14:23:19Z</time>
<speed>6.790000</speed>
<extensions>
<speed>6.8</speed>
<temp>0.00</temp>
<bpm>0</bpm>
<rpm>0.00</rpm>
</extensions>
</trkpt>
<trkpt lat="30.860187531" lon="34.774501801">
<ele>478.843750</ele>
<time>2013-11-20T14:23:24Z</time>
<speed>5.390000</speed>
<extensions>
<speed>5.4</speed>
<temp>0.00</temp>
<bpm>0</bpm>
<rpm>0.00</rpm>
</extensions>
</trkpt>
<trkpt lat="30.859951019" lon="34.774349213">
<ele>478.953125</ele>
<time>2013-11-20T14:23:29Z</time>
<speed>6.290000</speed>
<extensions>
<speed>6.3</speed>
<temp>0.00</temp>
<bpm>0</bpm>
<rpm>0.00</rpm>
</extensions>
</trkpt>
<trkpt lat="30.859699249" lon="34.774181366">
<ele>479.312500</ele>
<time>2013-11-20T14:23:34Z</time>
<speed>6.890000</speed>
<extensions>
<speed>6.9</speed>
<temp>0.00</temp>
<bpm>0</bpm>
<rpm>0.00</rpm>
</extensions>
</trkpt>
<trkpt lat="30.859445572" lon="34.774013519">
<ele>479.773438</ele>
<time>2013-11-20T14:23:39Z</time>
<speed>6.000000</speed>
<extensions>
<speed>6.0</speed>
<temp>0.00</temp>
<bpm>0</bpm>
<rpm>0.00</rpm>
</extensions>
</trkpt>
<trkpt lat="30.859239578" lon="34.773872375">
<ele>479.789063</ele>
<time>2013-11-20T14:23:44Z</time>
<speed>5.420000</speed>
<extensions>
<speed>5.4</speed>
<temp>0.00</temp>
<bpm>0</bpm>
<rpm>0.00</rpm>
</extensions>
</trkpt>
<trkpt lat="30.859012604" lon="34.773727417">
<ele>480.515625</ele>
<time>2013-11-20T14:23:49Z</time>
<speed>5.940000</speed>
<extensions>
<speed>5.9</speed>
<temp>0.00</temp>
<bpm>0</bpm>
<rpm>0.00</rpm>
</extensions>
</trkpt>
<trkpt lat="30.858770370" lon="34.773590088">
<ele>481.226563</ele>
<time>2013-11-20T14:23:54Z</time>
<speed>5.540000</speed>
<extensions>
<speed>5.5</speed>
<temp>0.00</temp>
<bpm>0</bpm>
<rpm>0.00</rpm>
</extensions>
</trkpt>
<trkpt lat="30.858554840" lon="34.773445129">
<ele>481.414063</ele>
<time>2013-11-20T14:23:59Z</time>
<speed>5.750000</speed>
<extensions>
<speed>5.8</speed>
<temp>0.00</temp>
<bpm>0</bpm>
<rpm>0.00</rpm>
</extensions>
</trkpt>
<trkpt lat="30.858312607" lon="34.773288727">
<ele>482.398438</ele>
<time>2013-11-20T14:24:04Z</time>
<speed>6.160000</speed>
<extensions>
<speed>6.2</speed>
<temp>0.00</temp>
<bpm>0</bpm>
<rpm>0.00</rpm>
</extensions>
</trkpt>
<trkpt lat="30.858097076" lon="34.773143768">
<ele>482.726563</ele>
<time>2013-11-20T14:24:09Z</time>
<speed>5.030000</speed>
<extensions>
<speed>5.0</speed>
<temp>0.00</temp>
<bpm>0</bpm>
<rpm>0.00</rpm>
</extensions>
</trkpt>
<trkpt lat="30.857892990" lon="34.773010254">
<ele>482.992188</ele>
<time>2013-11-20T14:24:14Z</time>
<speed>5.420000</speed>
<extensions>
<speed>5.4</speed>
<temp>0.00</temp>
<bpm>0</bpm>
<rpm>0.00</rpm>
</extensions>
</trkpt>
<trkpt lat="30.857681274" lon="34.772880554">
<ele>483.085938</ele>
<time>2013-11-20T14:24:19Z</time>
<speed>4.900000</speed>
<extensions>
<speed>4.9</speed>
<temp>0.00</temp>
<bpm>0</bpm>
<rpm>0.00</rpm>
</extensions>
</trkpt>
<trkpt lat="30.857513428" lon="34.772758484">
<ele>483.781250</ele>
<time>2013-11-20T14:24:24Z</time>
<speed>4.440000</speed>
<extensions>
<speed>4.4</speed>
<temp>0.00</temp>
<bpm>0</bpm>
<rpm>0.00</rpm>
</extensions>
</trkpt>
<trkpt lat="30.857345581" lon="34.772640228">
<ele>483.945313</ele>
<time>2013-11-20T14:24:29Z</time>
<speed>3.890000</speed>
<extensions>
<speed>3.9</speed>
<temp>0.00</temp>
<bpm>0</bpm>
<rpm>0.00</rpm>
</extensions>
</trkpt>
<trkpt lat="30.857175827" lon="34.772533417">
<ele>483.492188</ele>
<time>2013-11-20T14:24:34Z</time>
<speed>4.970000</speed>
<extensions>
<speed>5.0</speed>
<temp>0.00</temp>
<bpm>0</bpm>
<rpm>0.00</rpm>
</extensions>
</trkpt>
<trkpt lat="30.856960297" lon="34.772380829">
<ele>483.601563</ele>
<time>2013-11-20T14:24:39Z</time>
<speed>6.010000</speed>
<extensions>
<speed>6.0</speed>
<temp>0.00</temp>
<bpm>0</bpm>
<rpm>0.00</rpm>
</extensions>
</trkpt>
<trkpt lat="30.856718063" lon="34.772209167">
<ele>483.804688</ele>
<time>2013-11-20T14:24:44Z</time>
<speed>5.810000</speed>
<extensions>
<speed>5.8</speed>
<temp>0.00</temp>
<bpm>0</bpm>
<rpm>0.00</rpm>
</extensions>
</trkpt>
<trkpt lat="30.856506348" lon="34.772045135">
<ele>483.726563</ele>
<time>2013-11-20T14:24:49Z</time>
<speed>6.130000</speed>
<extensions>
<speed>6.1</speed>
<temp>0.00</temp>
<bpm>0</bpm>
<rpm>0.00</rpm>
</extensions>
</trkpt>
<trkpt lat="30.856269836" lon="34.771884918">
<ele>483.640625</ele>
<time>2013-11-20T14:24:54Z</time>
<speed>6.310000</speed>
<extensions>
<speed>6.3</speed>
<temp>0.00</temp>
<bpm>0</bpm>
<rpm>0.00</rpm>
</extensions>
</trkpt>
<trkpt lat="30.856031418" lon="34.771709442">
<ele>483.484375</ele>
<time>2013-11-20T14:24:59Z</time>
<speed>5.860000</speed>
<extensions>
<speed>5.9</speed>
<temp>0.00</temp>
<bpm>0</bpm>
<rpm>0.00</rpm>
</extensions>
</trkpt>
<trkpt lat="30.855810165" lon="34.771549225">
<ele>483.734375</ele>
<time>2013-11-20T14:25:04Z</time>
<speed>6.060000</speed>
<extensions>
<speed>6.1</speed>
<temp>0.00</temp>
<bpm>0</bpm>
<rpm>0.00</rpm>
</extensions>
</trkpt>
<trkpt lat="30.855581284" lon="34.771369934">
<ele>484.062500</ele>
<time>2013-11-20T14:25:09Z</time>
<speed>6.100000</speed>
<extensions>
<speed>6.1</speed>
<temp>0.00</temp>
<bpm>0</bpm>
<rpm>0.00</rpm>
</extensions>
</trkpt>
<trkpt lat="30.855367661" lon="34.771209717">
<ele>484.156250</ele>
<time>2013-11-20T14:25:14Z</time>
<speed>5.050000</speed>
<extensions>
<speed>5.1</speed>
<temp>0.00</temp>
<bpm>0</bpm>
<rpm>0.00</rpm>
</extensions>
</trkpt>
<trkpt lat="30.855163574" lon="34.771057129">
<ele>484.328125</ele>
<time>2013-11-20T14:25:19Z</time>
<speed>5.310000</speed>
<extensions>
<speed>5.3</speed>
<temp>0.00</temp>
<bpm>0</bpm>
<rpm>0.00</rpm>
</extensions>
</trkpt>
<trkpt lat="30.854957581" lon="34.770896912">
<ele>484.531250</ele>
<time>2013-11-20T14:25:24Z</time>
<speed>5.740000</speed>
<extensions>
<speed>5.7</speed>
<temp>0.00</temp>
<bpm>0</bpm>
<rpm>0.00</rpm>
</extensions>
</trkpt>
<trkpt lat="30.854774475" lon="34.770732880">
<ele>484.054688</ele>
<time>2013-11-20T14:25:29Z</time>
<speed>4.790000</speed>
<extensions>
<speed>4.8</speed>
<temp>0.00</temp>
<bpm>0</bpm>
<rpm>0.00</rpm>
</extensions>
</trkpt>
<trkpt lat="30.854618073" lon="34.770603180">
<ele>483.781250</ele>
<time>2013-11-20T14:25:34Z</time>
<speed>4.070000</speed>
<extensions>
<speed>4.1</speed>
<temp>0.00</temp>
<bpm>0</bpm>
<rpm>0.00</rpm>
</extensions>
</trkpt>
<trkpt lat="30.854434967" lon="34.770511627">
<ele>484.414063</ele>
<time>2013-11-20T14:25:39Z</time>
<speed>5.070000</speed>
<extensions>
<speed>5.1</speed>
<temp>0.00</temp>
<bpm>0</bpm>
<rpm>0.00</rpm>
</extensions>
</trkpt>
<trkpt lat="30.854206085" lon="34.770473480">
<ele>483.875000</ele>
<time>2013-11-20T14:25:44Z</time>
<speed>5.150000</speed>
<extensions>
<speed>5.2</speed>
<temp>0.00</temp>
<bpm>0</bpm>
<rpm>0.00</rpm>
</extensions>
</trkpt>
<trkpt lat="30.854082108" lon="34.770717621">
<ele>483.273438</ele>
<time>2013-11-20T14:25:49Z</time>
<speed>6.170000</speed>
<extensions>
<speed>6.2</speed>
<temp>0.00</temp>
<bpm>0</bpm>
<rpm>0.00</rpm>
</extensions>
</trkpt>
<trkpt lat="30.853992462" lon="34.771057129">
<ele>483.351563</ele>
<time>2013-11-20T14:25:54Z</time>
<speed>6.620000</speed>
<extensions>
<speed>6.6</speed>
<temp>0.00</temp>
<bpm>0</bpm>
<rpm>0.00</rpm>
</extensions>
</trkpt>
<trkpt lat="30.853918076" lon="34.771400452">
<ele>483.023438</ele>
<time>2013-11-20T14:25:59Z</time>
<speed>6.730000</speed>
<extensions>
<speed>6.7</speed>
<temp>0.00</temp>
<bpm>0</bpm>
<rpm>0.00</rpm>
</extensions>
</trkpt>
<trkpt lat="30.853828430" lon="34.771759033">
<ele>482.195313</ele>
<time>2013-11-20T14:26:04Z</time>
<speed>6.980000</speed>
<extensions>
<speed>7.0</speed>
<temp>0.00</temp>
<bpm>0</bpm>
<rpm>0.00</rpm>
</extensions>
</trkpt>
<trkpt lat="30.853742599" lon="34.772109985">
<ele>481.914063</ele>
<time>2013-11-20T14:26:09Z</time>
<speed>7.140000</speed>
<extensions>
<speed>7.1</speed>
<temp>0.00</temp>
<bpm>0</bpm>
<rpm>0.00</rpm>
</extensions>
</trkpt>
<trkpt lat="30.853658676" lon="34.772480011">
<ele>481.320313</ele>
<time>2013-11-20T14:26:14Z</time>
<speed>7.420000</speed>
<extensions>
<speed>7.4</speed>
<temp>0.00</temp>
<bpm>0</bpm>
<rpm>0.00</rpm>
</extensions>
</trkpt>
<trkpt lat="30.853563309" lon="34.772850037">
<ele>481.203125</ele>
<time>2013-11-20T14:26:19Z</time>
<speed>7.270000</speed>
<extensions>
<speed>7.3</speed>
<temp>0.00</temp>
<bpm>0</bpm>
<rpm>0.00</rpm>
</extensions>
</trkpt>
<trkpt lat="30.853477478" lon="34.773235321">
<ele>479.968750</ele>
<time>2013-11-20T14:26:24Z</time>
<speed>7.500000</speed>
<extensions>
<speed>7.5</speed>
<temp>0.00</temp>
<bpm>0</bpm>
<rpm>0.00</rpm>
</extensions>
</trkpt>
<trkpt lat="30.853380203" lon="34.773624420">
<ele>479.546875</ele>
<time>2013-11-20T14:26:29Z</time>
<speed>7.810000</speed>
<extensions>
<speed>7.8</speed>
<temp>0.00</temp>
<bpm>0</bpm>
<rpm>0.00</rpm>
</extensions>
</trkpt>
<trkpt lat="30.853275299" lon="34.774013519">
<ele>479.351563</ele>
<time>2013-11-20T14:26:34Z</time>
<speed>7.670000</speed>
<extensions>
<speed>7.7</speed>
<temp>0.00</temp>
<bpm>0</bpm>
<rpm>0.00</rpm>
</extensions>
</trkpt>
<trkpt lat="30.853164673" lon="34.774379730">
<ele>479.382813</ele>
<time>2013-11-20T14:26:39Z</time>
<speed>7.680000</speed>
<extensions>
<speed>7.7</speed>
<temp>0.00</temp>
<bpm>0</bpm>
<rpm>0.00</rpm>
</extensions>
</trkpt>
<trkpt lat="30.853015900" lon="34.774734497">
<ele>479.109375</ele>
<time>2013-11-20T14:26:44Z</time>
<speed>7.490000</speed>
<extensions>
<speed>7.5</speed>
<temp>0.00</temp>
<bpm>0</bpm>
<rpm>0.00</rpm>
</extensions>
</trkpt>
<trkpt lat="30.852842331" lon="34.775070190">
<ele>478.304688</ele>
<time>2013-11-20T14:26:49Z</time>
<speed>7.570000</speed>
<extensions>
<speed>7.6</speed>
<temp>0.00</temp>
<bpm>0</bpm>
<rpm>0.00</rpm>
</extensions>
</trkpt>
<trkpt lat="30.852666855" lon="34.775402069">
<ele>477.734375</ele>
<time>2013-11-20T14:26:54Z</time>
<speed>7.730000</speed>
<extensions>
<speed>7.7</speed>
<temp>0.00</temp>
<bpm>0</bpm>
<rpm>0.00</rpm>
</extensions>
</trkpt>
<trkpt lat="30.852472305" lon="34.775726318">
<ele>477.601563</ele>
<time>2013-11-20T14:26:59Z</time>
<speed>7.540000</speed>
<extensions>
<speed>7.5</speed>
<temp>0.00</temp>
<bpm>0</bpm>
<rpm>0.00</rpm>
</extensions>
</trkpt>
<trkpt lat="30.852266312" lon="34.776031494">
<ele>477.437500</ele>
<time>2013-11-20T14:27:04Z</time>
<speed>7.520000</speed>
<extensions>
<speed>7.5</speed>
<temp>0.00</temp>
<bpm>0</bpm>
<rpm>0.00</rpm>
</extensions>
</trkpt>
<trkpt lat="30.852069855" lon="34.776332855">
<ele>477.382813</ele>
<time>2013-11-20T14:27:09Z</time>
<speed>7.090000</speed>
<extensions>
<speed>7.1</speed>
<temp>0.00</temp>
<bpm>0</bpm>
<rpm>0.00</rpm>
</extensions>
</trkpt>
<trkpt lat="30.851890564" lon="34.776618958">
<ele>477.515625</ele>
<time>2013-11-20T14:27:14Z</time>
<speed>6.600000</speed>
<extensions>
<speed>6.6</speed>
<temp>0.00</temp>
<bpm>0</bpm>
<rpm>0.00</rpm>
</extensions>
</trkpt>
<trkpt lat="30.851732254" lon="34.776874542">
<ele>477.695313</ele>
<time>2013-11-20T14:27:19Z</time>
<speed>5.750000</speed>
<extensions>
<speed>5.8</speed>
<temp>0.00</temp>
<bpm>0</bpm>
<rpm>0.00</rpm>
</extensions>
</trkpt>
<trkpt lat="30.851549149" lon="34.777114868">
<ele>478.976563</ele>
<time>2013-11-20T14:27:24Z</time>
<speed>6.030000</speed>
<extensions>
<speed>6.0</speed>
<temp>0.00</temp>
<bpm>0</bpm>
<rpm>0.00</rpm>
</extensions>
</trkpt>
<trkpt lat="30.851377487" lon="34.777378082">
<ele>479.601563</ele>
<time>2013-11-20T14:27:29Z</time>
<speed>6.420000</speed>
<extensions>
<speed>6.4</speed>
<temp>0.00</temp>
<bpm>0</bpm>
<rpm>0.00</rpm>
</extensions>
</trkpt>
<trkpt lat="30.851186752" lon="34.777652740">
<ele>480.640625</ele>
<time>2013-11-20T14:27:34Z</time>
<speed>6.430000</speed>
<extensions>
<speed>6.4</speed>
<temp>0.00</temp>
<bpm>0</bpm>
<rpm>0.00</rpm>
</extensions>
</trkpt>
<trkpt lat="30.851028442" lon="34.777900696">
<ele>481.351563</ele>
<time>2013-11-20T14:27:39Z</time>
<speed>5.410000</speed>
<extensions>
<speed>5.4</speed>
<temp>0.00</temp>
<bpm>0</bpm>
<rpm>0.00</rpm>
</extensions>
</trkpt>
<trkpt lat="30.850877762" lon="34.778137207">
<ele>482.500000</ele>
<time>2013-11-20T14:27:44Z</time>
<speed>5.880000</speed>
<extensions>
<speed>5.9</speed>
<temp>0.00</temp>
<bpm>0</bpm>
<rpm>0.00</rpm>
</extensions>
</trkpt>
<trkpt lat="30.850704193" lon="34.778377533">
<ele>483.765625</ele>
<time>2013-11-20T14:27:49Z</time>
<speed>6.270000</speed>
<extensions>
<speed>6.3</speed>
<temp>0.00</temp>
<bpm>0</bpm>
<rpm>0.00</rpm>
</extensions>
</trkpt>
<trkpt lat="30.850532532" lon="34.778610229">
<ele>484.515625</ele>
<time>2013-11-20T14:27:54Z</time>
<speed>5.550000</speed>
<extensions>
<speed>5.5</speed>
<temp>0.00</temp>
<bpm>0</bpm>
<rpm>0.00</rpm>
</extensions>
</trkpt>
<trkpt lat="30.850395203" lon="34.778816223">
<ele>485.960938</ele>
<time>2013-11-20T14:27:59Z</time>
<speed>4.830000</speed>
<extensions>
<speed>4.8</speed>
<temp>0.00</temp>
<bpm>0</bpm>
<rpm>0.00</rpm>
</extensions>
</trkpt>
<trkpt lat="30.850254059" lon="34.778972626">
<ele>486.210938</ele>
<time>2013-11-20T14:28:04Z</time>
<speed>4.500000</speed>
<extensions>
<speed>4.5</speed>
<temp>0.00</temp>
<bpm>0</bpm>
<rpm>0.00</rpm>
</extensions>
</trkpt>
<trkpt lat="30.850139618" lon="34.779159546">
<ele>485.312500</ele>
<time>2013-11-20T14:28:09Z</time>
<speed>4.540000</speed>
<extensions>
<speed>4.5</speed>
<temp>0.00</temp>
<bpm>0</bpm>
<rpm>0.00</rpm>
</extensions>
</trkpt>
<trkpt lat="30.850057602" lon="34.779384613">
<ele>484.390625</ele>
<time>2013-11-20T14:28:14Z</time>
<speed>4.810000</speed>
<extensions>
<speed>4.8</speed>
<temp>0.00</temp>
<bpm>0</bpm>
<rpm>0.00</rpm>
</extensions>
</trkpt>
<trkpt lat="30.849939346" lon="34.779617310">
<ele>483.195313</ele>
<time>2013-11-20T14:28:19Z</time>
<speed>4.980000</speed>
<extensions>
<speed>5.0</speed>
<temp>0.00</temp>
<bpm>0</bpm>
<rpm>0.00</rpm>
</extensions>
</trkpt>
<trkpt lat="30.849863052" lon="34.779865265">
<ele>482.429688</ele>
<time>2013-11-20T14:28:24Z</time>
<speed>5.410000</speed>
<extensions>
<speed>5.4</speed>
<temp>0.00</temp>
<bpm>0</bpm>
<rpm>0.00</rpm>
</extensions>
</trkpt>
<trkpt lat="30.849899292" lon="34.780174255">
<ele>481.632813</ele>
<time>2013-11-20T14:28:29Z</time>
<speed>5.470000</speed>
<extensions>
<speed>5.5</speed>
<temp>0.00</temp>
<bpm>0</bpm>
<rpm>0.00</rpm>
</extensions>
</trkpt>
<trkpt lat="30.849933624" lon="34.780376434">
<ele>480.234375</ele>
<time>2013-11-20T14:28:34Z</time>
<speed>2.470000</speed>
<extensions>
<speed>2.5</speed>
<temp>0.00</temp>
<bpm>0</bpm>
<rpm>0.00</rpm>
</extensions>
</trkpt>
<trkpt lat="30.849962234" lon="34.780506134">
<ele>479.632813</ele>
<time>2013-11-20T14:28:39Z</time>
<speed>3.360000</speed>
<extensions>
<speed>3.4</speed>
<temp>0.00</temp>
<bpm>0</bpm>
<rpm>0.00</rpm>
</extensions>
</trkpt>
<trkpt lat="30.850008011" lon="34.780757904">
<ele>478.507813</ele>
<time>2013-11-20T14:28:44Z</time>
<speed>5.470000</speed>
<extensions>
<speed>5.5</speed>
<temp>0.00</temp>
<bpm>0</bpm>
<rpm>0.00</rpm>
</extensions>
</trkpt>
<trkpt lat="30.850074768" lon="34.781070709">
<ele>478.671875</ele>
<time>2013-11-20T14:28:49Z</time>
<speed>6.540000</speed>
<extensions>
<speed>6.5</speed>
<temp>0.00</temp>
<bpm>0</bpm>
<rpm>0.00</rpm>
</extensions>
</trkpt>
<trkpt lat="30.850131989" lon="34.781417847">
<ele>479.351563</ele>
<time>2013-11-20T14:28:54Z</time>
<speed>5.820000</speed>
<extensions>
<speed>5.8</speed>
<temp>0.00</temp>
<bpm>0</bpm>
<rpm>0.00</rpm>
</extensions>
</trkpt>
<trkpt lat="30.850185394" lon="34.781707764">
<ele>481.109375</ele>
<time>2013-11-20T14:28:59Z</time>
<speed>5.400000</speed>
<extensions>
<speed>5.4</speed>
<temp>0.00</temp>
<bpm>0</bpm>
<rpm>0.00</rpm>
</extensions>
</trkpt>
<trkpt lat="30.850242615" lon="34.781997681">
<ele>482.484375</ele>
<time>2013-11-20T14:29:04Z</time>
<speed>5.630000</speed>
<extensions>
<speed>5.6</speed>
<temp>0.00</temp>
<bpm>0</bpm>
<rpm>0.00</rpm>
</extensions>
</trkpt>
<trkpt lat="30.850288391" lon="34.782264709">
<ele>482.882813</ele>
<time>2013-11-20T14:29:09Z</time>
<speed>4.950000</speed>
<extensions>
<speed>4.9</speed>
<temp>0.00</temp>
<bpm>0</bpm>
<rpm>0.00</rpm>
</extensions>
</trkpt>
<trkpt lat="30.850334167" lon="34.782501221">
<ele>483.171875</ele>
<time>2013-11-20T14:29:14Z</time>
<speed>3.990000</speed>
<extensions>
<speed>4.0</speed>
<temp>0.00</temp>
<bpm>0</bpm>
<rpm>0.00</rpm>
</extensions>
</trkpt>
<trkpt lat="30.850336075" lon="34.782581329">
<ele>483.171875</ele>
<time>2013-11-20T14:29:19Z</time>
<speed>1.580000</speed>
<extensions>
<speed>1.6</speed>
<temp>0.00</temp>
<bpm>0</bpm>
<rpm>0.00</rpm>
</extensions>
</trkpt>
<trkpt lat="30.850353241" lon="34.782649994">
<ele>483.250000</ele>
<time>2013-11-20T14:29:24Z</time>
<speed>1.670000</speed>
<extensions>
<speed>1.7</speed>
<temp>0.00</temp>
<bpm>0</bpm>
<rpm>0.00</rpm>
</extensions>
</trkpt>
<trkpt lat="30.850387573" lon="34.782722473">
<ele>482.242188</ele>
<time>2013-11-20T14:29:29Z</time>
<speed>2.080000</speed>
<extensions>
<speed>2.1</speed>
<temp>0.00</temp>
<bpm>0</bpm>
<rpm>0.00</rpm>
</extensions>
</trkpt>
<trkpt lat="30.850429535" lon="34.782875061">
<ele>483.351563</ele>
<time>2013-11-20T14:29:34Z</time>
<speed>3.620000</speed>
<extensions>
<speed>3.6</speed>
<temp>0.00</temp>
<bpm>0</bpm>
<rpm>0.00</rpm>
</extensions>
</trkpt>
<trkpt lat="30.850463867" lon="34.783069611">
<ele>483.781250</ele>
<time>2013-11-20T14:29:39Z</time>
<speed>4.020000</speed>
<extensions>
<speed>4.0</speed>
<temp>0.00</temp>
<bpm>0</bpm>
<rpm>0.00</rpm>
</extensions>
</trkpt>
<trkpt lat="30.850505829" lon="34.783237457">
<ele>484.390625</ele>
<time>2013-11-20T14:29:44Z</time>
<speed>2.990000</speed>
<extensions>
<speed>3.0</speed>
<temp>0.00</temp>
<bpm>0</bpm>
<rpm>0.00</rpm>
</extensions>
</trkpt>
<trkpt lat="30.850599289" lon="34.783313751">
<ele>485.085938</ele>
<time>2013-11-20T14:29:49Z</time>
<speed>2.090000</speed>
<extensions>
<speed>2.1</speed>
<temp>0.00</temp>
<bpm>0</bpm>
<rpm>0.00</rpm>
</extensions>
</trkpt>
<trkpt lat="30.850658417" lon="34.783367157">
<ele>485.421875</ele>
<time>2013-11-20T14:29:54Z</time>
<speed>1.280000</speed>
<extensions>
<speed>1.3</speed>
<temp>0.00</temp>
<bpm>0</bpm>
<rpm>0.00</rpm>
</extensions>
</trkpt>
<trkpt lat="30.850696564" lon="34.783416748">
<ele>485.234375</ele>
<time>2013-11-20T14:29:59Z</time>
<speed>0.510000</speed>
<extensions>
<speed>0.5</speed>
<temp>0.00</temp>
<bpm>0</bpm>
<rpm>0.00</rpm>
</extensions>
</trkpt>
<trkpt lat="30.850698471" lon="34.783424377">
<ele>485.585938</ele>
<time>2013-11-20T14:30:04Z</time>
<speed>0.050000</speed>
<extensions>
<speed>0.1</speed>
<temp>0.00</temp>
<bpm>0</bpm>
<rpm>0.00</rpm>
</extensions>
</trkpt>
<trkpt lat="30.850698471" lon="34.783424377">
<ele>485.718750</ele>
<time>2013-11-20T14:30:09Z</time>
<speed>0.310000</speed>
<extensions>
<speed>0.3</speed>
<temp>0.00</temp>
<bpm>0</bpm>
<rpm>0.00</rpm>
</extensions>
</trkpt>
<trkpt lat="30.850688934" lon="34.783432007">
<ele>485.726563</ele>
<time>2013-11-20T14:30:14Z</time>
<speed>0.370000</speed>
<extensions>
<speed>0.4</speed>
<temp>0.00</temp>
<bpm>0</bpm>
<rpm>0.00</rpm>
</extensions>
</trkpt>
<trkpt lat="30.850688934" lon="34.783432007">
<ele>485.617188</ele>
<time>2013-11-20T14:30:19Z</time>
<speed>0.360000</speed>
<extensions>
<speed>0.4</speed>
<temp>0.00</temp>
<bpm>0</bpm>
<rpm>0.00</rpm>
</extensions>
</trkpt>
<trkpt lat="30.850688934" lon="34.783412933">
<ele>485.601563</ele>
<time>2013-11-20T14:30:24Z</time>
<speed>0.280000</speed>
<extensions>
<speed>0.3</speed>
<temp>0.00</temp>
<bpm>0</bpm>
<rpm>0.00</rpm>
</extensions>
</trkpt>
<trkpt lat="30.850683212" lon="34.783409119">
<ele>485.601563</ele>
<time>2013-11-20T14:30:29Z</time>
<speed>0.340000</speed>
<extensions>
<speed>0.3</speed>
<temp>0.00</temp>
<bpm>0</bpm>
<rpm>0.00</rpm>
</extensions>
</trkpt>
<trkpt lat="30.850667953" lon="34.783412933">
<ele>485.578125</ele>
<time>2013-11-20T14:30:34Z</time>
<speed>0.330000</speed>
<extensions>
<speed>0.3</speed>
<temp>0.00</temp>
<bpm>0</bpm>
<rpm>0.00</rpm>
</extensions>
</trkpt>
<trkpt lat="30.850654602" lon="34.783420563">
<ele>485.562500</ele>
<time>2013-11-20T14:30:39Z</time>
<speed>0.330000</speed>
<extensions>
<speed>0.3</speed>
<temp>0.00</temp>
<bpm>0</bpm>
<rpm>0.00</rpm>
</extensions>
</trkpt>
<trkpt lat="30.850641251" lon="34.783424377">
<ele>485.546875</ele>
<time>2013-11-20T14:30:44Z</time>
<speed>0.270000</speed>
<extensions>
<speed>0.3</speed>
<temp>0.00</temp>
<bpm>0</bpm>
<rpm>0.00</rpm>
</extensions>
</trkpt>
<trkpt lat="30.850631714" lon="34.783432007">
<ele>485.531250</ele>
<time>2013-11-20T14:30:49Z</time>
<speed>0.280000</speed>
<extensions>
<speed>0.3</speed>
<temp>0.00</temp>
<bpm>0</bpm>
<rpm>0.00</rpm>
</extensions>
</trkpt>
<trkpt lat="30.850620270" lon="34.783439636">
<ele>485.523438</ele>
<time>2013-11-20T14:30:54Z</time>
<speed>0.230000</speed>
<extensions>
<speed>0.2</speed>
<temp>0.00</temp>
<bpm>0</bpm>
<rpm>0.00</rpm>
</extensions>
</trkpt>
<trkpt lat="30.850612640" lon="34.783443451">
<ele>485.515625</ele>
<time>2013-11-20T14:30:59Z</time>
<speed>0.150000</speed>
<extensions>
<speed>0.2</speed>
<temp>0.00</temp>
<bpm>0</bpm>
<rpm>0.00</rpm>
</extensions>
</trkpt>
<trkpt lat="30.850608826" lon="34.783447266">
<ele>485.500000</ele>
<time>2013-11-20T14:31:04Z</time>
<speed>0.110000</speed>
<extensions>
<speed>0.1</speed>
<temp>0.00</temp>
<bpm>0</bpm>
<rpm>0.00</rpm>
</extensions>
</trkpt>
<trkpt lat="30.850608826" lon="34.783454895">
<ele>485.492188</ele>
<time>2013-11-20T14:31:09Z</time>
<speed>0.170000</speed>
<extensions>
<speed>0.2</speed>
<temp>0.00</temp>
<bpm>0</bpm>
<rpm>0.00</rpm>
</extensions>
</trkpt>
<trkpt lat="30.850612640" lon="34.783466339">
<ele>485.476563</ele>
<time>2013-11-20T14:31:14Z</time>
<speed>0.200000</speed>
<extensions>
<speed>0.2</speed>
<temp>0.00</temp>
<bpm>0</bpm>
<rpm>0.00</rpm>
</extensions>
</trkpt>
<trkpt lat="30.850616455" lon="34.783473969">
<ele>485.453125</ele>
<time>2013-11-20T14:31:19Z</time>
<speed>0.170000</speed>
<extensions>
<speed>0.2</speed>
<temp>0.00</temp>
<bpm>0</bpm>
<rpm>0.00</rpm>
</extensions>
</trkpt>
<trkpt lat="30.850622177" lon="34.783481598">
<ele>485.421875</ele>
<time>2013-11-20T14:31:24Z</time>
<speed>0.150000</speed>
<extensions>
<speed>0.2</speed>
<temp>0.00</temp>
<bpm>0</bpm>
<rpm>0.00</rpm>
</extensions>
</trkpt>
<trkpt lat="30.850629807" lon="34.783485413">
<ele>485.375000</ele>
<time>2013-11-20T14:31:29Z</time>
<speed>0.200000</speed>
<extensions>
<speed>0.2</speed>
<temp>0.00</temp>
<bpm>0</bpm>
<rpm>0.00</rpm>
</extensions>
</trkpt>
<trkpt lat="30.850637436" lon="34.783489227">
<ele>485.320313</ele>
<time>2013-11-20T14:31:34Z</time>
<speed>0.090000</speed>
<extensions>
<speed>0.1</speed>
<temp>0.00</temp>
<bpm>0</bpm>
<rpm>0.00</rpm>
</extensions>
</trkpt>
<trkpt lat="30.850639343" lon="34.783489227">
<ele>485.265625</ele>
<time>2013-11-20T14:31:39Z</time>
<speed>0.090000</speed>
<extensions>
<speed>0.1</speed>
<temp>0.00</temp>
<bpm>0</bpm>
<rpm>0.00</rpm>
</extensions>
</trkpt>
<trkpt lat="30.850645065" lon="34.783477783">
<ele>485.218750</ele>
<time>2013-11-20T14:31:44Z</time>
<speed>0.380000</speed>
<extensions>
<speed>0.4</speed>
<temp>0.00</temp>
<bpm>0</bpm>
<rpm>0.00</rpm>
</extensions>
</trkpt>
<trkpt lat="30.850669861" lon="34.783451080">
<ele>485.187500</ele>
<time>2013-11-20T14:31:49Z</time>
<speed>0.550000</speed>
<extensions>
<speed>0.6</speed>
<temp>0.00</temp>
<bpm>0</bpm>
<rpm>0.00</rpm>
</extensions>
</trkpt>
<trkpt lat="30.850700378" lon="34.783451080">
<ele>485.070313</ele>
<time>2013-11-20T14:31:54Z</time>
<speed>0.500000</speed>
<extensions>
<speed>0.5</speed>
<temp>0.00</temp>
<bpm>0</bpm>
<rpm>0.00</rpm>
</extensions>
</trkpt>
<trkpt lat="30.850715637" lon="34.783447266">
<ele>484.851563</ele>
<time>2013-11-20T14:31:59Z</time>
<speed>0.850000</speed>
<extensions>
<speed>0.8</speed>
<temp>0.00</temp>
<bpm>0</bpm>
<rpm>0.00</rpm>
</extensions>
</trkpt>
<trkpt lat="30.850774765" lon="34.783435822">
<ele>485.109375</ele>
<time>2013-11-20T14:32:04Z</time>
<speed>0.750000</speed>
<extensions>
<speed>0.8</speed>
<temp>0.00</temp>
<bpm>0</bpm>
<rpm>0.00</rpm>
</extensions>
</trkpt>
<trkpt lat="30.850830078" lon="34.783416748">
<ele>484.406250</ele>
<time>2013-11-20T14:32:09Z</time>
<speed>0.290000</speed>
<extensions>
<speed>0.3</speed>
<temp>0.00</temp>
<bpm>0</bpm>
<rpm>0.00</rpm>
</extensions>
</trkpt>
<trkpt lat="30.850845337" lon="34.783405304">
<ele>483.625000</ele>
<time>2013-11-20T14:32:14Z</time>
<speed>0.020000</speed>
<extensions>
<speed>0.0</speed>
<temp>0.00</temp>
<bpm>0</bpm>
<rpm>0.00</rpm>
</extensions>
</trkpt>
<trkpt lat="30.850845337" lon="34.783405304">
<ele>483.625000</ele>
<time>2013-11-20T14:32:19Z</time>
<speed>0.050000</speed>
<extensions>
<speed>0.1</speed>
<temp>0.00</temp>
<bpm>0</bpm>
<rpm>0.00</rpm>
</extensions>
</trkpt>
<trkpt lat="30.850845337" lon="34.783405304">
<ele>483.609375</ele>
<time>2013-11-20T14:32:24Z</time>
<extensions>
<speed>0.0</speed>
<temp>0.00</temp>
<bpm>0</bpm>
<rpm>0.00</rpm>
</extensions>
</trkpt>
<trkpt lat="30.850845337" lon="34.783405304">
<ele>483.601563</ele>
<time>2013-11-20T14:32:29Z</time>
<speed>0.040000</speed>
<extensions>
<speed>0.0</speed>
<temp>0.00</temp>
<bpm>0</bpm>
<rpm>0.00</rpm>
</extensions>
</trkpt>
<trkpt lat="30.850904465" lon="34.783397675">
<ele>483.781250</ele>
<time>2013-11-20T14:32:34Z</time>
<speed>3.030000</speed>
<extensions>
<speed>3.0</speed>
<temp>0.00</temp>
<bpm>0</bpm>
<rpm>0.00</rpm>
</extensions>
</trkpt>
<trkpt lat="30.851125717" lon="34.783363342">
<ele>482.460938</ele>
<time>2013-11-20T14:32:39Z</time>
<speed>3.740000</speed>
<extensions>
<speed>3.7</speed>
<temp>0.00</temp>
<bpm>0</bpm>
<rpm>0.00</rpm>
</extensions>
</trkpt>
<trkpt lat="30.851247787" lon="34.783233643">
<ele>480.773438</ele>
<time>2013-11-20T14:32:44Z</time>
<speed>3.400000</speed>
<extensions>
<speed>3.4</speed>
<temp>0.00</temp>
<bpm>0</bpm>
<rpm>0.00</rpm>
</extensions>
</trkpt>
<trkpt lat="30.851217270" lon="34.783035278">
<ele>479.976563</ele>
<time>2013-11-20T14:32:49Z</time>
<speed>3.880000</speed>
<extensions>
<speed>3.9</speed>
<temp>0.00</temp>
<bpm>0</bpm>
<rpm>0.00</rpm>
</extensions>
</trkpt>
<trkpt lat="30.851169586" lon="34.782817841">
<ele>479.890625</ele>
<time>2013-11-20T14:32:54Z</time>
<speed>3.950000</speed>
<extensions>
<speed>4.0</speed>
<temp>0.00</temp>
<bpm>0</bpm>
<rpm>0.00</rpm>
</extensions>
</trkpt>
<trkpt lat="30.851140976" lon="34.782634735">
<ele>479.367188</ele>
<time>2013-11-20T14:32:59Z</time>
<speed>2.760000</speed>
<extensions>
<speed>2.8</speed>
<temp>0.00</temp>
<bpm>0</bpm>
<rpm>0.00</rpm>
</extensions>
</trkpt>
<trkpt lat="30.851118088" lon="34.782524109">
<ele>478.773438</ele>
<time>2013-11-20T14:33:04Z</time>
<speed>1.150000</speed>
<extensions>
<speed>1.1</speed>
<temp>0.00</temp>
<bpm>0</bpm>
<rpm>0.00</rpm>
</extensions>
</trkpt>
<trkpt lat="30.851167679" lon="34.782459259">
<ele>478.039063</ele>
<time>2013-11-20T14:33:09Z</time>
<speed>2.730000</speed>
<extensions>
<speed>2.7</speed>
<temp>0.00</temp>
<bpm>0</bpm>
<rpm>0.00</rpm>
</extensions>
</trkpt>
<trkpt lat="30.851282120" lon="34.782417297">
<ele>478.218750</ele>
<time>2013-11-20T14:33:14Z</time>
<speed>1.910000</speed>
<extensions>
<speed>1.9</speed>
<temp>0.00</temp>
<bpm>0</bpm>
<rpm>0.00</rpm>
</extensions>
</trkpt>
<trkpt lat="30.851404190" lon="34.782382965">
<ele>478.515625</ele>
<time>2013-11-20T14:33:19Z</time>
<speed>2.850000</speed>
<extensions>
<speed>2.9</speed>
<temp>0.00</temp>
<bpm>0</bpm>
<rpm>0.00</rpm>
</extensions>
</trkpt>
<trkpt lat="30.851509094" lon="34.782348633">
<ele>478.492188</ele>
<time>2013-11-20T14:33:24Z</time>
<speed>2.410000</speed>
<extensions>
<speed>2.4</speed>
<temp>0.00</temp>
<bpm>0</bpm>
<rpm>0.00</rpm>
</extensions>
</trkpt>
<trkpt lat="30.851610184" lon="34.782325745">
<ele>478.296875</ele>
<time>2013-11-20T14:33:29Z</time>
<speed>1.830000</speed>
<extensions>
<speed>1.8</speed>
<temp>0.00</temp>
<bpm>0</bpm>
<rpm>0.00</rpm>
</extensions>
</trkpt>
<trkpt lat="30.851663589" lon="34.782295227">
<ele>477.835938</ele>
<time>2013-11-20T14:33:34Z</time>
<speed>1.480000</speed>
<extensions>
<speed>1.5</speed>
<temp>0.00</temp>
<bpm>0</bpm>
<rpm>0.00</rpm>
</extensions>
</trkpt>
<trkpt lat="30.851694107" lon="34.782249451">
<ele>476.625000</ele>
<time>2013-11-20T14:33:39Z</time>
<speed>0.920000</speed>
<extensions>
<speed>0.9</speed>
<temp>0.00</temp>
<bpm>0</bpm>
<rpm>0.00</rpm>
</extensions>
</trkpt>
<trkpt lat="30.851778030" lon="34.782230377">
<ele>475.289063</ele>
<time>2013-11-20T14:33:44Z</time>
<speed>2.250000</speed>
<extensions>
<speed>2.3</speed>
<temp>0.00</temp>
<bpm>0</bpm>
<rpm>0.00</rpm>
</extensions>
</trkpt>
<trkpt lat="30.851839066" lon="34.782238007">
<ele>475.031250</ele>
<time>2013-11-20T14:33:49Z</time>
<speed>1.430000</speed>
<extensions>
<speed>1.4</speed>
<temp>0.00</temp>
<bpm>0</bpm>
<rpm>0.00</rpm>
</extensions>
</trkpt>
<trkpt lat="30.851860046" lon="34.782341003">
<ele>474.546875</ele>
<time>2013-11-20T14:33:54Z</time>
<speed>2.390000</speed>
<extensions>
<speed>2.4</speed>
<temp>0.00</temp>
<bpm>0</bpm>
<rpm>0.00</rpm>
</extensions>
</trkpt>
<trkpt lat="30.851873398" lon="34.782386780">
<ele>474.023438</ele>
<time>2013-11-20T14:33:59Z</time>
<speed>0.510000</speed>
<extensions>
<speed>0.5</speed>
<temp>0.00</temp>
<bpm>0</bpm>
<rpm>0.00</rpm>
</extensions>
</trkpt>
<trkpt lat="30.851953506" lon="34.782382965">
<ele>473.578125</ele>
<time>2013-11-20T14:34:04Z</time>
<speed>3.300000</speed>
<extensions>
<speed>3.3</speed>
<temp>0.00</temp>
<bpm>0</bpm>
<rpm>0.00</rpm>
</extensions>
</trkpt>
<trkpt lat="30.852119446" lon="34.782329559">
<ele>474.273438</ele>
<time>2013-11-20T14:34:09Z</time>
<speed>3.490000</speed>
<extensions>
<speed>3.5</speed>
<temp>0.00</temp>
<bpm>0</bpm>
<rpm>0.00</rpm>
</extensions>
</trkpt>
<trkpt lat="30.852252960" lon="34.782226563">
<ele>473.406250</ele>
<time>2013-11-20T14:34:14Z</time>
<speed>4.260000</speed>
<extensions>
<speed>4.3</speed>
<temp>0.00</temp>
<bpm>0</bpm>
<rpm>0.00</rpm>
</extensions>
</trkpt>
<trkpt lat="30.852437973" lon="34.782169342">
<ele>473.976563</ele>
<time>2013-11-20T14:34:19Z</time>
<speed>3.980000</speed>
<extensions>
<speed>4.0</speed>
<temp>0.00</temp>
<bpm>0</bpm>
<rpm>0.00</rpm>
</extensions>
</trkpt>
<trkpt lat="30.852609634" lon="34.782119751">
<ele>473.734375</ele>
<time>2013-11-20T14:34:24Z</time>
<speed>3.990000</speed>
<extensions>
<speed>4.0</speed>
<temp>0.00</temp>
<bpm>0</bpm>
<rpm>0.00</rpm>
</extensions>
</trkpt>
<trkpt lat="30.852741241" lon="34.782024384">
<ele>473.570313</ele>
<time>2013-11-20T14:34:29Z</time>
<speed>2.720000</speed>
<extensions>
<speed>2.7</speed>
<temp>0.00</temp>
<bpm>0</bpm>
<rpm>0.00</rpm>
</extensions>
</trkpt>
<trkpt lat="30.852745056" lon="34.781875610">
<ele>473.687500</ele>
<time>2013-11-20T14:34:34Z</time>
<speed>3.410000</speed>
<extensions>
<speed>3.4</speed>
<temp>0.00</temp>
<bpm>0</bpm>
<rpm>0.00</rpm>
</extensions>
</trkpt>
<trkpt lat="30.852697372" lon="34.781665802">
<ele>474.398438</ele>
<time>2013-11-20T14:34:39Z</time>
<speed>3.790000</speed>
<extensions>
<speed>3.8</speed>
<temp>0.00</temp>
<bpm>0</bpm>
<rpm>0.00</rpm>
</extensions>
</trkpt>
<trkpt lat="30.852657318" lon="34.781478882">
<ele>475.085938</ele>
<time>2013-11-20T14:34:44Z</time>
<speed>3.050000</speed>
<extensions>
<speed>3.0</speed>
<temp>0.00</temp>
<bpm>0</bpm>
<rpm>0.00</rpm>
</extensions>
</trkpt>
<trkpt lat="30.852643967" lon="34.781326294">
<ele>475.289063</ele>
<time>2013-11-20T14:34:49Z</time>
<speed>2.700000</speed>
<extensions>
<speed>2.7</speed>
<temp>0.00</temp>
<bpm>0</bpm>
<rpm>0.00</rpm>
</extensions>
</trkpt>
<trkpt lat="30.852649689" lon="34.781192780">
<ele>475.945313</ele>
<time>2013-11-20T14:34:54Z</time>
<speed>3.020000</speed>
<extensions>
<speed>3.0</speed>
<temp>0.00</temp>
<bpm>0</bpm>
<rpm>0.00</rpm>
</extensions>
</trkpt>
<trkpt lat="30.852579117" lon="34.781024933">
<ele>476.398438</ele>
<time>2013-11-20T14:34:59Z</time>
<speed>3.810000</speed>
<extensions>
<speed>3.8</speed>
<temp>0.00</temp>
<bpm>0</bpm>
<rpm>0.00</rpm>
</extensions>
</trkpt>
<trkpt lat="30.852542877" lon="34.780845642">
<ele>476.328125</ele>
<time>2013-11-20T14:35:04Z</time>
<speed>3.240000</speed>
<extensions>
<speed>3.2</speed>
<temp>0.00</temp>
<bpm>0</bpm>
<rpm>0.00</rpm>
</extensions>
</trkpt>
<trkpt lat="30.852508545" lon="34.780693054">
<ele>476.812500</ele>
<time>2013-11-20T14:35:09Z</time>
<speed>2.730000</speed>
<extensions>
<speed>2.7</speed>
<temp>0.00</temp>
<bpm>0</bpm>
<rpm>0.00</rpm>
</extensions>
</trkpt>
<trkpt lat="30.852437973" lon="34.780593872">
<ele>476.242188</ele>
<time>2013-11-20T14:35:14Z</time>
<speed>1.950000</speed>
<extensions>
<speed>1.9</speed>
<temp>0.00</temp>
<bpm>0</bpm>
<rpm>0.00</rpm>
</extensions>
</trkpt>
<trkpt lat="30.852411270" lon="34.780578613">
<ele>475.984375</ele>
<time>2013-11-20T14:35:19Z</time>
<speed>0.100000</speed>
<extensions>
<speed>0.1</speed>
<temp>0.00</temp>
<bpm>0</bpm>
<rpm>0.00</rpm>
</extensions>
</trkpt>
<trkpt lat="30.852411270" lon="34.780578613">
<ele>475.703125</ele>
<time>2013-11-20T14:35:24Z</time>
<speed>0.030000</speed>
<extensions>
<speed>0.0</speed>
<temp>0.00</temp>
<bpm>0</bpm>
<rpm>0.00</rpm>
</extensions>
</trkpt>
<trkpt lat="30.852411270" lon="34.780574799">
<ele>475.609375</ele>
<time>2013-11-20T14:35:29Z</time>
<speed>0.110000</speed>
<extensions>
<speed>0.1</speed>
<temp>0.00</temp>
<bpm>0</bpm>
<rpm>0.00</rpm>
</extensions>
</trkpt>
<trkpt lat="30.852416992" lon="34.780582428">
<ele>475.554688</ele>
<time>2013-11-20T14:35:34Z</time>
<speed>0.980000</speed>
<extensions>
<speed>1.0</speed>
<temp>0.00</temp>
<bpm>0</bpm>
<rpm>0.00</rpm>
</extensions>
</trkpt>
<trkpt lat="30.852458954" lon="34.780693054">
<ele>475.742188</ele>
<time>2013-11-20T14:35:39Z</time>
<speed>2.860000</speed>
<extensions>
<speed>2.9</speed>
<temp>0.00</temp>
<bpm>0</bpm>
<rpm>0.00</rpm>
</extensions>
</trkpt>
<trkpt lat="30.852533340" lon="34.780906677">
<ele>476.625000</ele>
<time>2013-11-20T14:35:44Z</time>
<speed>3.810000</speed>
<extensions>
<speed>3.8</speed>
<temp>0.00</temp>
<bpm>0</bpm>
<rpm>0.00</rpm>
</extensions>
</trkpt>
<trkpt lat="30.852611542" lon="34.781097412">
<ele>476.679688</ele>
<time>2013-11-20T14:35:49Z</time>
<speed>3.430000</speed>
<extensions>
<speed>3.4</speed>
<temp>0.00</temp>
<bpm>0</bpm>
<rpm>0.00</rpm>
</extensions>
</trkpt>
<trkpt lat="30.852664948" lon="34.781211853">
<ele>478.234375</ele>
<time>2013-11-20T14:35:54Z</time>
<speed>2.790000</speed>
<extensions>
<speed>2.8</speed>
<temp>0.00</temp>
<bpm>0</bpm>
<rpm>0.00</rpm>
</extensions>
</trkpt>
<trkpt lat="30.852752686" lon="34.781253815">
<ele>477.164063</ele>
<time>2013-11-20T14:35:59Z</time>
<speed>2.880000</speed>
<extensions>
<speed>2.9</speed>
<temp>0.00</temp>
<bpm>0</bpm>
<rpm>0.00</rpm>
</extensions>
</trkpt>
<trkpt lat="30.852897644" lon="34.781246185">
<ele>476.648438</ele>
<time>2013-11-20T14:36:04Z</time>
<speed>2.930000</speed>
<extensions>
<speed>2.9</speed>
<temp>0.00</temp>
<bpm>0</bpm>
<rpm>0.00</rpm>
</extensions>
</trkpt>
<trkpt lat="30.853012085" lon="34.781253815">
<ele>476.960938</ele>
<time>2013-11-20T14:36:09Z</time>
<speed>1.970000</speed>
<extensions>
<speed>2.0</speed>
<temp>0.00</temp>
<bpm>0</bpm>
<rpm>0.00</rpm>
</extensions>
</trkpt>
<trkpt lat="30.853054047" lon="34.781364441">
<ele>477.695313</ele>
<time>2013-11-20T14:36:14Z</time>
<speed>2.670000</speed>
<extensions>
<speed>2.7</speed>
<temp>0.00</temp>
<bpm>0</bpm>
<rpm>0.00</rpm>
</extensions>
</trkpt>
<trkpt lat="30.853094101" lon="34.781497955">
<ele>477.960938</ele>
<time>2013-11-20T14:36:19Z</time>
<speed>1.980000</speed>
<extensions>
<speed>2.0</speed>
<temp>0.00</temp>
<bpm>0</bpm>
<rpm>0.00</rpm>
</extensions>
</trkpt>
<trkpt lat="30.853078842" lon="34.781532288">
<ele>477.312500</ele>
<time>2013-11-20T14:36:24Z</time>
<speed>0.420000</speed>
<extensions>
<speed>0.4</speed>
<temp>0.00</temp>
<bpm>0</bpm>
<rpm>0.00</rpm>
</extensions>
</trkpt>
<trkpt lat="30.853145599" lon="34.781494141">
<ele>477.210938</ele>
<time>2013-11-20T14:36:29Z</time>
<speed>2.870000</speed>
<extensions>
<speed>2.9</speed>
<temp>0.00</temp>
<bpm>0</bpm>
<rpm>0.00</rpm>
</extensions>
</trkpt>
<trkpt lat="30.853254318" lon="34.781452179">
<ele>477.671875</ele>
<time>2013-11-20T14:36:34Z</time>
<speed>1.690000</speed>
<extensions>
<speed>1.7</speed>
<temp>0.00</temp>
<bpm>0</bpm>
<rpm>0.00</rpm>
</extensions>
</trkpt>
<trkpt lat="30.853332520" lon="34.781421661">
<ele>477.687500</ele>
<time>2013-11-20T14:36:39Z</time>
<speed>1.990000</speed>
<extensions>
<speed>2.0</speed>
<temp>0.00</temp>
<bpm>0</bpm>
<rpm>0.00</rpm>
</extensions>
</trkpt>
<trkpt lat="30.853374481" lon="34.781517029">
<ele>477.031250</ele>
<time>2013-11-20T14:36:44Z</time>
<speed>2.500000</speed>
<extensions>
<speed>2.5</speed>
<temp>0.00</temp>
<bpm>0</bpm>
<rpm>0.00</rpm>
</extensions>
</trkpt>
<trkpt lat="30.853412628" lon="34.781616211">
<ele>475.109375</ele>
<time>2013-11-20T14:36:49Z</time>
<speed>1.840000</speed>
<extensions>
<speed>1.8</speed>
<temp>0.00</temp>
<bpm>0</bpm>
<rpm>0.00</rpm>
</extensions>
</trkpt>
<trkpt lat="30.853435516" lon="34.781631470">
<ele>474.640625</ele>
<time>2013-11-20T14:36:54Z</time>
<speed>1.080000</speed>
<extensions>
<speed>1.1</speed>
<temp>0.00</temp>
<bpm>0</bpm>
<rpm>0.00</rpm>
</extensions>
</trkpt>
<trkpt lat="30.853424072" lon="34.781570435">
<ele>476.093750</ele>
<time>2013-11-20T14:36:59Z</time>
<speed>1.020000</speed>
<extensions>
<speed>1.0</speed>
<temp>0.00</temp>
<bpm>0</bpm>
<rpm>0.00</rpm>
</extensions>
</trkpt>
<trkpt lat="30.853412628" lon="34.781536102">
<ele>476.718750</ele>
<time>2013-11-20T14:37:04Z</time>
<speed>0.610000</speed>
<extensions>
<speed>0.6</speed>
<temp>0.00</temp>
<bpm>0</bpm>
<rpm>0.00</rpm>
</extensions>
</trkpt>
<trkpt lat="30.853429794" lon="34.781551361">
<ele>476.601563</ele>
<time>2013-11-20T14:37:09Z</time>
<speed>0.030000</speed>
<extensions>
<speed>0.0</speed>
<temp>0.00</temp>
<bpm>0</bpm>
<rpm>0.00</rpm>
</extensions>
</trkpt>
<trkpt lat="30.853429794" lon="34.781551361">
<ele>476.765625</ele>
<time>2013-11-20T14:37:14Z</time>
<extensions>
<speed>0.0</speed>
<temp>0.00</temp>
<bpm>0</bpm>
<rpm>0.00</rpm>
</extensions>
</trkpt>
<trkpt lat="30.853431702" lon="34.781551361">
<ele>476.960938</ele>
<time>2013-11-20T14:37:19Z</time>
<speed>0.050000</speed>
<extensions>
<speed>0.1</speed>
<temp>0.00</temp>
<bpm>0</bpm>
<rpm>0.00</rpm>
</extensions>
</trkpt>
<trkpt lat="30.853431702" lon="34.781551361">
<ele>477.070313</ele>
<time>2013-11-20T14:37:24Z</time>
<extensions>
<speed>0.0</speed>
<temp>0.00</temp>
<bpm>0</bpm>
<rpm>0.00</rpm>
</extensions>
</trkpt>
<trkpt lat="30.853433609" lon="34.781551361">
<ele>477.085938</ele>
<time>2013-11-20T14:37:29Z</time>
<extensions>
<speed>0.0</speed>
<temp>0.00</temp>
<bpm>0</bpm>
<rpm>0.00</rpm>
</extensions>
</trkpt>
<trkpt lat="30.853433609" lon="34.781555176">
<ele>477.101563</ele>
<time>2013-11-20T14:37:34Z</time>
<extensions>
<speed>0.0</speed>
<temp>0.00</temp>
<bpm>0</bpm>
<rpm>0.00</rpm>
</extensions>
</trkpt>
<trkpt lat="30.853433609" lon="34.781555176">
<ele>477.117188</ele>
<time>2013-11-20T14:37:39Z</time>
<extensions>
<speed>0.0</speed>
<temp>0.00</temp>
<bpm>0</bpm>
<rpm>0.00</rpm>
</extensions>
</trkpt>
</trkseg>
</trk>
</gpx>